<?xml version="1.0" encoding="utf-8" standalone="yes"?>
<gpx version="1.1" creator="Locus Map, Android"
 xmlns="http://www.topografix.com/GPX/1/1"
 xmlns:xsi="http://www.w3.org/2001/XMLSchema-instance"
 xsi:schemaLocation="http://www.topografix.com/GPX/1/1 http://www.topografix.com/GPX/1/1/gpx.xsd"
 xmlns:gpxx="http://www.garmin.com/xmlschemas/GpxExtensions/v3"
 xmlns:gpxtrkx="http://www.garmin.com/xmlschemas/TrackStatsExtension/v1"
 xmlns:gpxtpx="http://www.garmin.com/xmlschemas/TrackPointExtension/v2"
 xmlns:locus="http://www.locusmap.eu">
	<metadata>
		<desc>File with points/tracks from Locus Map Classic/3.69.2</desc>
		<time>2023-09-10T11:00:09.025Z</time>
	</metadata>
<trk>
<name>Rifugio Tonolini - Rifugio Garibaldi</name>
	<extensions>
		<line xmlns="http://www.topografix.com/GPX/gpx_style/0/2">
			<color>0000FF</color>
			<opacity>0.59</opacity>
			<width>6.0</width>
			<extensions>
				<locus:lsColorBase>#960000FF</locus:lsColorBase>
				<locus:lsWidth>6.0</locus:lsWidth>
				<locus:lsUnits>PIXELS</locus:lsUnits>
			</extensions>
		</line>
	</extensions>
<trkseg>
<trkpt lat="46.1506890" lon="10.4402680">
	<ele>2399.80</ele>
	<time>2023-08-09T05:08:38.000Z</time>
</trkpt>
<trkpt lat="46.1506930" lon="10.4402660">
	<ele>2399.80</ele>
	<time>2023-08-09T05:08:39.000Z</time>
</trkpt>
<trkpt lat="46.1506970" lon="10.4402610">
	<ele>2399.80</ele>
	<time>2023-08-09T05:08:40.000Z</time>
</trkpt>
<trkpt lat="46.1506990" lon="10.4402540">
	<ele>2399.80</ele>
	<time>2023-08-09T05:08:41.000Z</time>
</trkpt>
<trkpt lat="46.1507010" lon="10.4402490">
	<ele>2399.60</ele>
	<time>2023-08-09T05:08:42.000Z</time>
</trkpt>
<trkpt lat="46.1507070" lon="10.4402440">
	<ele>2399.60</ele>
	<time>2023-08-09T05:08:43.000Z</time>
</trkpt>
<trkpt lat="46.1507100" lon="10.4402350">
	<ele>2399.40</ele>
	<time>2023-08-09T05:08:44.000Z</time>
</trkpt>
<trkpt lat="46.1507120" lon="10.4402280">
	<ele>2399.20</ele>
	<time>2023-08-09T05:08:45.000Z</time>
</trkpt>
<trkpt lat="46.1507130" lon="10.4402210">
	<ele>2399.00</ele>
	<time>2023-08-09T05:08:46.000Z</time>
</trkpt>
<trkpt lat="46.1507150" lon="10.4402150">
	<ele>2399.00</ele>
	<time>2023-08-09T05:08:47.000Z</time>
</trkpt>
<trkpt lat="46.1507160" lon="10.4402060">
	<ele>2398.80</ele>
	<time>2023-08-09T05:08:48.000Z</time>
</trkpt>
<trkpt lat="46.1507180" lon="10.4401980">
	<ele>2398.60</ele>
	<time>2023-08-09T05:08:49.000Z</time>
</trkpt>
<trkpt lat="46.1507200" lon="10.4401900">
	<ele>2398.60</ele>
	<time>2023-08-09T05:08:50.000Z</time>
</trkpt>
<trkpt lat="46.1507220" lon="10.4401800">
	<ele>2398.20</ele>
	<time>2023-08-09T05:08:51.000Z</time>
</trkpt>
<trkpt lat="46.1507210" lon="10.4401640">
	<ele>2398.20</ele>
	<time>2023-08-09T05:08:52.000Z</time>
</trkpt>
<trkpt lat="46.1507190" lon="10.4401470">
	<ele>2398.00</ele>
	<time>2023-08-09T05:08:53.000Z</time>
</trkpt>
<trkpt lat="46.1507160" lon="10.4401300">
	<ele>2397.80</ele>
	<time>2023-08-09T05:08:54.000Z</time>
</trkpt>
<trkpt lat="46.1507150" lon="10.4401140">
	<ele>2397.60</ele>
	<time>2023-08-09T05:08:55.000Z</time>
</trkpt>
<trkpt lat="46.1507170" lon="10.4401050">
	<ele>2397.40</ele>
	<time>2023-08-09T05:08:56.000Z</time>
</trkpt>
<trkpt lat="46.1507170" lon="10.4401010">
	<ele>2397.40</ele>
	<time>2023-08-09T05:08:57.000Z</time>
</trkpt>
<trkpt lat="46.1507220" lon="10.4400980">
	<ele>2397.40</ele>
	<time>2023-08-09T05:08:58.000Z</time>
</trkpt>
<trkpt lat="46.1507260" lon="10.4400950">
	<ele>2397.20</ele>
	<time>2023-08-09T05:08:59.000Z</time>
</trkpt>
<trkpt lat="46.1507270" lon="10.4400890">
	<ele>2397.20</ele>
	<time>2023-08-09T05:09:00.000Z</time>
</trkpt>
<trkpt lat="46.1507070" lon="10.4400590">
	<ele>2397.00</ele>
	<time>2023-08-09T05:09:01.000Z</time>
</trkpt>
<trkpt lat="46.1506940" lon="10.4400400">
	<ele>2396.80</ele>
	<time>2023-08-09T05:09:02.000Z</time>
</trkpt>
<trkpt lat="46.1506970" lon="10.4400340">
	<ele>2396.60</ele>
	<time>2023-08-09T05:09:03.000Z</time>
</trkpt>
<trkpt lat="46.1507090" lon="10.4400310">
	<ele>2396.60</ele>
	<time>2023-08-09T05:09:04.000Z</time>
</trkpt>
<trkpt lat="46.1507210" lon="10.4400340">
	<ele>2396.40</ele>
	<time>2023-08-09T05:09:05.000Z</time>
</trkpt>
<trkpt lat="46.1507290" lon="10.4400380">
	<ele>2396.40</ele>
	<time>2023-08-09T05:09:06.000Z</time>
</trkpt>
<trkpt lat="46.1507310" lon="10.4400430">
	<ele>2396.20</ele>
	<time>2023-08-09T05:09:07.000Z</time>
</trkpt>
<trkpt lat="46.1507340" lon="10.4400460">
	<ele>2396.00</ele>
	<time>2023-08-09T05:09:08.000Z</time>
</trkpt>
<trkpt lat="46.1507410" lon="10.4400490">
	<ele>2396.00</ele>
	<time>2023-08-09T05:09:09.000Z</time>
</trkpt>
<trkpt lat="46.1507450" lon="10.4400520">
	<ele>2395.80</ele>
	<time>2023-08-09T05:09:10.000Z</time>
</trkpt>
<trkpt lat="46.1507460" lon="10.4400540">
	<ele>2395.80</ele>
	<time>2023-08-09T05:09:11.000Z</time>
</trkpt>
<trkpt lat="46.1507470" lon="10.4400540">
	<ele>2395.80</ele>
	<time>2023-08-09T05:09:12.000Z</time>
</trkpt>
<trkpt lat="46.1507470" lon="10.4400520">
	<ele>2395.80</ele>
	<time>2023-08-09T05:09:13.000Z</time>
</trkpt>
<trkpt lat="46.1507500" lon="10.4400530">
	<ele>2396.00</ele>
	<time>2023-08-09T05:09:14.000Z</time>
</trkpt>
<trkpt lat="46.1507500" lon="10.4400530">
	<ele>2396.00</ele>
	<time>2023-08-09T05:09:15.000Z</time>
</trkpt>
<trkpt lat="46.1507500" lon="10.4400530">
	<ele>2396.20</ele>
	<time>2023-08-09T05:09:16.000Z</time>
</trkpt>
<trkpt lat="46.1507500" lon="10.4400530">
	<ele>2396.20</ele>
	<time>2023-08-09T05:09:17.000Z</time>
</trkpt>
<trkpt lat="46.1507500" lon="10.4400530">
	<ele>2396.20</ele>
	<time>2023-08-09T05:09:18.000Z</time>
</trkpt>
<trkpt lat="46.1507500" lon="10.4400530">
	<ele>2396.20</ele>
	<time>2023-08-09T05:09:19.000Z</time>
</trkpt>
<trkpt lat="46.1507500" lon="10.4400530">
	<ele>2396.20</ele>
	<time>2023-08-09T05:09:20.000Z</time>
</trkpt>
<trkpt lat="46.1507500" lon="10.4400530">
	<ele>2396.20</ele>
	<time>2023-08-09T05:09:21.000Z</time>
</trkpt>
<trkpt lat="46.1507500" lon="10.4400530">
	<ele>2396.20</ele>
	<time>2023-08-09T05:09:22.000Z</time>
</trkpt>
<trkpt lat="46.1507500" lon="10.4400530">
	<ele>2396.00</ele>
	<time>2023-08-09T05:09:23.000Z</time>
</trkpt>
<trkpt lat="46.1507500" lon="10.4400530">
	<ele>2396.00</ele>
	<time>2023-08-09T05:09:24.000Z</time>
</trkpt>
<trkpt lat="46.1507500" lon="10.4400530">
	<ele>2396.00</ele>
	<time>2023-08-09T05:09:25.000Z</time>
</trkpt>
<trkpt lat="46.1507500" lon="10.4400530">
	<ele>2396.00</ele>
	<time>2023-08-09T05:09:26.000Z</time>
</trkpt>
<trkpt lat="46.1507500" lon="10.4400530">
	<ele>2396.00</ele>
	<time>2023-08-09T05:09:27.000Z</time>
</trkpt>
<trkpt lat="46.1507500" lon="10.4400530">
	<ele>2396.00</ele>
	<time>2023-08-09T05:09:28.000Z</time>
</trkpt>
<trkpt lat="46.1507500" lon="10.4400530">
	<ele>2395.80</ele>
	<time>2023-08-09T05:09:29.000Z</time>
</trkpt>
<trkpt lat="46.1507490" lon="10.4400530">
	<ele>2395.80</ele>
	<time>2023-08-09T05:09:30.000Z</time>
</trkpt>
<trkpt lat="46.1507470" lon="10.4400530">
	<ele>2395.80</ele>
	<time>2023-08-09T05:09:31.000Z</time>
</trkpt>
<trkpt lat="46.1507470" lon="10.4400530">
	<ele>2395.80</ele>
	<time>2023-08-09T05:09:32.000Z</time>
</trkpt>
<trkpt lat="46.1507460" lon="10.4400530">
	<ele>2395.80</ele>
	<time>2023-08-09T05:09:33.000Z</time>
</trkpt>
<trkpt lat="46.1507450" lon="10.4400530">
	<ele>2395.80</ele>
	<time>2023-08-09T05:09:34.000Z</time>
</trkpt>
<trkpt lat="46.1507430" lon="10.4400530">
	<ele>2395.80</ele>
	<time>2023-08-09T05:09:35.000Z</time>
</trkpt>
<trkpt lat="46.1507390" lon="10.4400600">
	<ele>2395.60</ele>
	<time>2023-08-09T05:09:36.000Z</time>
</trkpt>
<trkpt lat="46.1507320" lon="10.4400800">
	<ele>2395.60</ele>
	<time>2023-08-09T05:09:37.000Z</time>
</trkpt>
<trkpt lat="46.1507300" lon="10.4401000">
	<ele>2397.20</ele>
	<time>2023-08-09T05:09:38.000Z</time>
</trkpt>
<trkpt lat="46.1507230" lon="10.4401180">
	<ele>2397.60</ele>
	<time>2023-08-09T05:09:39.000Z</time>
</trkpt>
<trkpt lat="46.1507150" lon="10.4401320">
	<ele>2398.00</ele>
	<time>2023-08-09T05:09:40.000Z</time>
</trkpt>
<trkpt lat="46.1507090" lon="10.4401410">
	<ele>2398.00</ele>
	<time>2023-08-09T05:09:41.000Z</time>
</trkpt>
<trkpt lat="46.1507040" lon="10.4401470">
	<ele>2398.00</ele>
	<time>2023-08-09T05:09:42.000Z</time>
</trkpt>
<trkpt lat="46.1507000" lon="10.4401510">
	<ele>2398.00</ele>
	<time>2023-08-09T05:09:43.000Z</time>
</trkpt>
<trkpt lat="46.1506970" lon="10.4401580">
	<ele>2397.40</ele>
	<time>2023-08-09T05:09:44.000Z</time>
</trkpt>
<trkpt lat="46.1506930" lon="10.4401650">
	<ele>2397.00</ele>
	<time>2023-08-09T05:09:45.000Z</time>
</trkpt>
<trkpt lat="46.1506930" lon="10.4401670">
	<ele>2397.00</ele>
	<time>2023-08-09T05:09:46.000Z</time>
</trkpt>
<trkpt lat="46.1506910" lon="10.4401660">
	<ele>2396.80</ele>
	<time>2023-08-09T05:09:47.000Z</time>
</trkpt>
<trkpt lat="46.1506870" lon="10.4401650">
	<ele>2396.80</ele>
	<time>2023-08-09T05:09:48.000Z</time>
</trkpt>
<trkpt lat="46.1506820" lon="10.4401640">
	<ele>2396.80</ele>
	<time>2023-08-09T05:09:49.000Z</time>
</trkpt>
<trkpt lat="46.1506770" lon="10.4401600">
	<ele>2396.80</ele>
	<time>2023-08-09T05:09:50.000Z</time>
</trkpt>
<trkpt lat="46.1506770" lon="10.4401600">
	<ele>2396.80</ele>
	<time>2023-08-09T05:09:51.000Z</time>
</trkpt>
<trkpt lat="46.1506770" lon="10.4401600">
	<ele>2396.80</ele>
	<time>2023-08-09T05:09:52.000Z</time>
</trkpt>
<trkpt lat="46.1506770" lon="10.4401600">
	<ele>2397.00</ele>
	<time>2023-08-09T05:09:53.000Z</time>
</trkpt>
<trkpt lat="46.1506770" lon="10.4401600">
	<ele>2397.00</ele>
	<time>2023-08-09T05:09:54.000Z</time>
</trkpt>
<trkpt lat="46.1506770" lon="10.4401600">
	<ele>2397.20</ele>
	<time>2023-08-09T05:09:55.000Z</time>
</trkpt>
<trkpt lat="46.1506770" lon="10.4401600">
	<ele>2397.40</ele>
	<time>2023-08-09T05:09:56.000Z</time>
</trkpt>
<trkpt lat="46.1506760" lon="10.4401660">
	<ele>2397.60</ele>
	<time>2023-08-09T05:09:57.000Z</time>
</trkpt>
<trkpt lat="46.1506790" lon="10.4401910">
	<ele>2397.60</ele>
	<time>2023-08-09T05:09:58.000Z</time>
</trkpt>
<trkpt lat="46.1506840" lon="10.4402090">
	<ele>2397.60</ele>
	<time>2023-08-09T05:09:59.000Z</time>
</trkpt>
<trkpt lat="46.1506810" lon="10.4402190">
	<ele>2397.60</ele>
	<time>2023-08-09T05:10:00.000Z</time>
</trkpt>
<trkpt lat="46.1506790" lon="10.4402260">
	<ele>2397.60</ele>
	<time>2023-08-09T05:10:01.000Z</time>
</trkpt>
<trkpt lat="46.1506790" lon="10.4402270">
	<ele>2397.40</ele>
	<time>2023-08-09T05:10:02.000Z</time>
</trkpt>
<trkpt lat="46.1506760" lon="10.4402220">
	<ele>2397.40</ele>
	<time>2023-08-09T05:10:03.000Z</time>
</trkpt>
<trkpt lat="46.1506760" lon="10.4402170">
	<ele>2397.40</ele>
	<time>2023-08-09T05:10:04.000Z</time>
</trkpt>
<trkpt lat="46.1506800" lon="10.4402130">
	<ele>2397.40</ele>
	<time>2023-08-09T05:10:05.000Z</time>
</trkpt>
<trkpt lat="46.1506820" lon="10.4402070">
	<ele>2397.60</ele>
	<time>2023-08-09T05:10:06.000Z</time>
</trkpt>
<trkpt lat="46.1506850" lon="10.4401950">
	<ele>2397.60</ele>
	<time>2023-08-09T05:10:07.000Z</time>
</trkpt>
<trkpt lat="46.1506870" lon="10.4401850">
	<ele>2397.60</ele>
	<time>2023-08-09T05:10:08.000Z</time>
</trkpt>
<trkpt lat="46.1506890" lon="10.4401760">
	<ele>2397.60</ele>
	<time>2023-08-09T05:10:09.000Z</time>
</trkpt>
<trkpt lat="46.1506890" lon="10.4401710">
	<ele>2397.00</ele>
	<time>2023-08-09T05:10:10.000Z</time>
</trkpt>
<trkpt lat="46.1506880" lon="10.4401710">
	<ele>2397.00</ele>
	<time>2023-08-09T05:10:11.000Z</time>
</trkpt>
<trkpt lat="46.1506870" lon="10.4401710">
	<ele>2397.00</ele>
	<time>2023-08-09T05:10:12.000Z</time>
</trkpt>
<trkpt lat="46.1506870" lon="10.4401710">
	<ele>2397.00</ele>
	<time>2023-08-09T05:10:13.000Z</time>
</trkpt>
<trkpt lat="46.1506870" lon="10.4401710">
	<ele>2397.00</ele>
	<time>2023-08-09T05:10:14.000Z</time>
</trkpt>
<trkpt lat="46.1506870" lon="10.4401710">
	<ele>2397.00</ele>
	<time>2023-08-09T05:10:15.000Z</time>
</trkpt>
<trkpt lat="46.1506870" lon="10.4401710">
	<ele>2397.00</ele>
	<time>2023-08-09T05:10:16.000Z</time>
</trkpt>
<trkpt lat="46.1506870" lon="10.4401710">
	<ele>2397.00</ele>
	<time>2023-08-09T05:10:17.000Z</time>
</trkpt>
<trkpt lat="46.1506870" lon="10.4401670">
	<ele>2397.00</ele>
	<time>2023-08-09T05:10:18.000Z</time>
</trkpt>
<trkpt lat="46.1506860" lon="10.4401560">
	<ele>2396.80</ele>
	<time>2023-08-09T05:10:19.000Z</time>
</trkpt>
<trkpt lat="46.1506880" lon="10.4401500">
	<ele>2397.00</ele>
	<time>2023-08-09T05:10:20.000Z</time>
</trkpt>
<trkpt lat="46.1506920" lon="10.4401450">
	<ele>2397.00</ele>
	<time>2023-08-09T05:10:21.000Z</time>
</trkpt>
<trkpt lat="46.1506970" lon="10.4401420">
	<ele>2398.00</ele>
	<time>2023-08-09T05:10:22.000Z</time>
</trkpt>
<trkpt lat="46.1506970" lon="10.4401420">
	<ele>2398.00</ele>
	<time>2023-08-09T05:10:23.000Z</time>
</trkpt>
<trkpt lat="46.1506970" lon="10.4401420">
	<ele>2398.00</ele>
	<time>2023-08-09T05:10:24.000Z</time>
</trkpt>
<trkpt lat="46.1506970" lon="10.4401420">
	<ele>2397.80</ele>
	<time>2023-08-09T05:10:25.000Z</time>
</trkpt>
<trkpt lat="46.1506970" lon="10.4401420">
	<ele>2397.80</ele>
	<time>2023-08-09T05:10:26.000Z</time>
</trkpt>
<trkpt lat="46.1506980" lon="10.4401460">
	<ele>2397.60</ele>
	<time>2023-08-09T05:10:27.000Z</time>
</trkpt>
<trkpt lat="46.1506960" lon="10.4401570">
	<ele>2397.60</ele>
	<time>2023-08-09T05:10:28.000Z</time>
</trkpt>
<trkpt lat="46.1506930" lon="10.4401700">
	<ele>2397.00</ele>
	<time>2023-08-09T05:10:29.000Z</time>
</trkpt>
<trkpt lat="46.1506910" lon="10.4401870">
	<ele>2397.60</ele>
	<time>2023-08-09T05:10:30.000Z</time>
</trkpt>
<trkpt lat="46.1506900" lon="10.4402080">
	<ele>2397.60</ele>
	<time>2023-08-09T05:10:31.000Z</time>
</trkpt>
<trkpt lat="46.1506850" lon="10.4402290">
	<ele>2397.60</ele>
	<time>2023-08-09T05:10:32.000Z</time>
</trkpt>
<trkpt lat="46.1506820" lon="10.4402490">
	<ele>2396.20</ele>
	<time>2023-08-09T05:10:33.000Z</time>
</trkpt>
<trkpt lat="46.1506830" lon="10.4402680">
	<ele>2396.20</ele>
	<time>2023-08-09T05:10:34.000Z</time>
</trkpt>
<trkpt lat="46.1506790" lon="10.4402900">
	<ele>2396.20</ele>
	<time>2023-08-09T05:10:35.000Z</time>
</trkpt>
<trkpt lat="46.1506770" lon="10.4403120">
	<ele>2396.20</ele>
	<time>2023-08-09T05:10:36.000Z</time>
</trkpt>
<trkpt lat="46.1506710" lon="10.4403250">
	<ele>2396.20</ele>
	<time>2023-08-09T05:10:37.000Z</time>
</trkpt>
<trkpt lat="46.1506740" lon="10.4403420">
	<ele>2396.20</ele>
	<time>2023-08-09T05:10:38.000Z</time>
</trkpt>
<trkpt lat="46.1506810" lon="10.4403520">
	<ele>2396.20</ele>
	<time>2023-08-09T05:10:39.000Z</time>
</trkpt>
<trkpt lat="46.1506900" lon="10.4403600">
	<ele>2396.20</ele>
	<time>2023-08-09T05:10:40.000Z</time>
</trkpt>
<trkpt lat="46.1506970" lon="10.4403720">
	<ele>2396.00</ele>
	<time>2023-08-09T05:10:41.000Z</time>
</trkpt>
<trkpt lat="46.1507020" lon="10.4403830">
	<ele>2396.00</ele>
	<time>2023-08-09T05:10:42.000Z</time>
</trkpt>
<trkpt lat="46.1507050" lon="10.4403920">
	<ele>2396.00</ele>
	<time>2023-08-09T05:10:43.000Z</time>
</trkpt>
<trkpt lat="46.1507120" lon="10.4404010">
	<ele>2396.00</ele>
	<time>2023-08-09T05:10:44.000Z</time>
</trkpt>
<trkpt lat="46.1507190" lon="10.4404060">
	<ele>2396.20</ele>
	<time>2023-08-09T05:10:45.000Z</time>
</trkpt>
<trkpt lat="46.1507290" lon="10.4404110">
	<ele>2396.20</ele>
	<time>2023-08-09T05:10:46.000Z</time>
</trkpt>
<trkpt lat="46.1507370" lon="10.4404210">
	<ele>2396.20</ele>
	<time>2023-08-09T05:10:47.000Z</time>
</trkpt>
<trkpt lat="46.1507480" lon="10.4404330">
	<ele>2396.20</ele>
	<time>2023-08-09T05:10:48.000Z</time>
</trkpt>
<trkpt lat="46.1507550" lon="10.4404440">
	<ele>2396.40</ele>
	<time>2023-08-09T05:10:49.000Z</time>
</trkpt>
<trkpt lat="46.1507560" lon="10.4404570">
	<ele>2396.60</ele>
	<time>2023-08-09T05:10:50.000Z</time>
</trkpt>
<trkpt lat="46.1507550" lon="10.4404650">
	<ele>2396.60</ele>
	<time>2023-08-09T05:10:51.000Z</time>
</trkpt>
<trkpt lat="46.1507540" lon="10.4404720">
	<ele>2396.60</ele>
	<time>2023-08-09T05:10:52.000Z</time>
</trkpt>
<trkpt lat="46.1507560" lon="10.4404770">
	<ele>2396.80</ele>
	<time>2023-08-09T05:10:53.000Z</time>
</trkpt>
<trkpt lat="46.1507550" lon="10.4404790">
	<ele>2397.00</ele>
	<time>2023-08-09T05:10:54.000Z</time>
</trkpt>
<trkpt lat="46.1507590" lon="10.4404870">
	<ele>2397.00</ele>
	<time>2023-08-09T05:10:55.000Z</time>
</trkpt>
<trkpt lat="46.1507650" lon="10.4404900">
	<ele>2397.20</ele>
	<time>2023-08-09T05:10:56.000Z</time>
</trkpt>
<trkpt lat="46.1507700" lon="10.4404910">
	<ele>2397.20</ele>
	<time>2023-08-09T05:10:57.000Z</time>
</trkpt>
<trkpt lat="46.1507730" lon="10.4404870">
	<ele>2397.20</ele>
	<time>2023-08-09T05:10:58.000Z</time>
</trkpt>
<trkpt lat="46.1507760" lon="10.4404860">
	<ele>2397.20</ele>
	<time>2023-08-09T05:10:59.000Z</time>
</trkpt>
<trkpt lat="46.1507800" lon="10.4404830">
	<ele>2397.00</ele>
	<time>2023-08-09T05:11:00.000Z</time>
</trkpt>
<trkpt lat="46.1507860" lon="10.4404850">
	<ele>2397.00</ele>
	<time>2023-08-09T05:11:01.000Z</time>
</trkpt>
<trkpt lat="46.1507950" lon="10.4404960">
	<ele>2396.80</ele>
	<time>2023-08-09T05:11:02.000Z</time>
</trkpt>
<trkpt lat="46.1508040" lon="10.4405080">
	<ele>2396.60</ele>
	<time>2023-08-09T05:11:03.000Z</time>
</trkpt>
<trkpt lat="46.1508110" lon="10.4405210">
	<ele>2396.40</ele>
	<time>2023-08-09T05:11:04.000Z</time>
</trkpt>
<trkpt lat="46.1508190" lon="10.4405290">
	<ele>2396.40</ele>
	<time>2023-08-09T05:11:05.000Z</time>
</trkpt>
<trkpt lat="46.1508230" lon="10.4405380">
	<ele>2396.20</ele>
	<time>2023-08-09T05:11:06.000Z</time>
</trkpt>
<trkpt lat="46.1508240" lon="10.4405480">
	<ele>2396.00</ele>
	<time>2023-08-09T05:11:07.000Z</time>
</trkpt>
<trkpt lat="46.1508270" lon="10.4405550">
	<ele>2396.00</ele>
	<time>2023-08-09T05:11:08.000Z</time>
</trkpt>
<trkpt lat="46.1508300" lon="10.4405610">
	<ele>2396.00</ele>
	<time>2023-08-09T05:11:09.000Z</time>
</trkpt>
<trkpt lat="46.1508330" lon="10.4405640">
	<ele>2396.00</ele>
	<time>2023-08-09T05:11:10.000Z</time>
</trkpt>
<trkpt lat="46.1508370" lon="10.4405720">
	<ele>2395.80</ele>
	<time>2023-08-09T05:11:11.000Z</time>
</trkpt>
<trkpt lat="46.1508460" lon="10.4405780">
	<ele>2395.60</ele>
	<time>2023-08-09T05:11:12.000Z</time>
</trkpt>
<trkpt lat="46.1508540" lon="10.4405900">
	<ele>2395.60</ele>
	<time>2023-08-09T05:11:13.000Z</time>
</trkpt>
<trkpt lat="46.1508590" lon="10.4406030">
	<ele>2395.40</ele>
	<time>2023-08-09T05:11:14.000Z</time>
</trkpt>
<trkpt lat="46.1508630" lon="10.4406170">
	<ele>2395.20</ele>
	<time>2023-08-09T05:11:15.000Z</time>
</trkpt>
<trkpt lat="46.1508660" lon="10.4406320">
	<ele>2395.00</ele>
	<time>2023-08-09T05:11:16.000Z</time>
</trkpt>
<trkpt lat="46.1508670" lon="10.4406460">
	<ele>2395.00</ele>
	<time>2023-08-09T05:11:17.000Z</time>
</trkpt>
<trkpt lat="46.1508700" lon="10.4406580">
	<ele>2395.00</ele>
	<time>2023-08-09T05:11:18.000Z</time>
</trkpt>
<trkpt lat="46.1508700" lon="10.4406690">
	<ele>2395.00</ele>
	<time>2023-08-09T05:11:19.000Z</time>
</trkpt>
<trkpt lat="46.1508700" lon="10.4406790">
	<ele>2395.00</ele>
	<time>2023-08-09T05:11:20.000Z</time>
</trkpt>
<trkpt lat="46.1508730" lon="10.4406880">
	<ele>2395.00</ele>
	<time>2023-08-09T05:11:21.000Z</time>
</trkpt>
<trkpt lat="46.1508770" lon="10.4406980">
	<ele>2395.20</ele>
	<time>2023-08-09T05:11:22.000Z</time>
</trkpt>
<trkpt lat="46.1508800" lon="10.4407080">
	<ele>2395.20</ele>
	<time>2023-08-09T05:11:23.000Z</time>
</trkpt>
<trkpt lat="46.1508810" lon="10.4407160">
	<ele>2395.20</ele>
	<time>2023-08-09T05:11:24.000Z</time>
</trkpt>
<trkpt lat="46.1508840" lon="10.4407260">
	<ele>2395.20</ele>
	<time>2023-08-09T05:11:25.000Z</time>
</trkpt>
<trkpt lat="46.1508870" lon="10.4407380">
	<ele>2395.20</ele>
	<time>2023-08-09T05:11:26.000Z</time>
</trkpt>
<trkpt lat="46.1508900" lon="10.4407540">
	<ele>2395.20</ele>
	<time>2023-08-09T05:11:27.000Z</time>
</trkpt>
<trkpt lat="46.1508920" lon="10.4407690">
	<ele>2395.40</ele>
	<time>2023-08-09T05:11:28.000Z</time>
</trkpt>
<trkpt lat="46.1508940" lon="10.4407840">
	<ele>2395.40</ele>
	<time>2023-08-09T05:11:29.000Z</time>
</trkpt>
<trkpt lat="46.1508960" lon="10.4407990">
	<ele>2395.20</ele>
	<time>2023-08-09T05:11:30.000Z</time>
</trkpt>
<trkpt lat="46.1508960" lon="10.4408140">
	<ele>2395.20</ele>
	<time>2023-08-09T05:11:31.000Z</time>
</trkpt>
<trkpt lat="46.1508950" lon="10.4408260">
	<ele>2395.00</ele>
	<time>2023-08-09T05:11:32.000Z</time>
</trkpt>
<trkpt lat="46.1508970" lon="10.4408370">
	<ele>2395.00</ele>
	<time>2023-08-09T05:11:33.000Z</time>
</trkpt>
<trkpt lat="46.1509000" lon="10.4408470">
	<ele>2395.00</ele>
	<time>2023-08-09T05:11:34.000Z</time>
</trkpt>
<trkpt lat="46.1509040" lon="10.4408510">
	<ele>2395.00</ele>
	<time>2023-08-09T05:11:35.000Z</time>
</trkpt>
<trkpt lat="46.1509070" lon="10.4408600">
	<ele>2395.00</ele>
	<time>2023-08-09T05:11:36.000Z</time>
</trkpt>
<trkpt lat="46.1509100" lon="10.4408640">
	<ele>2395.00</ele>
	<time>2023-08-09T05:11:37.000Z</time>
</trkpt>
<trkpt lat="46.1509120" lon="10.4408650">
	<ele>2395.00</ele>
	<time>2023-08-09T05:11:38.000Z</time>
</trkpt>
<trkpt lat="46.1509110" lon="10.4408650">
	<ele>2395.20</ele>
	<time>2023-08-09T05:11:39.000Z</time>
</trkpt>
<trkpt lat="46.1509110" lon="10.4408620">
	<ele>2395.40</ele>
	<time>2023-08-09T05:11:40.000Z</time>
</trkpt>
<trkpt lat="46.1509100" lon="10.4408610">
	<ele>2395.40</ele>
	<time>2023-08-09T05:11:41.000Z</time>
</trkpt>
<trkpt lat="46.1509090" lon="10.4408600">
	<ele>2395.60</ele>
	<time>2023-08-09T05:11:42.000Z</time>
</trkpt>
<trkpt lat="46.1509110" lon="10.4408550">
	<ele>2395.80</ele>
	<time>2023-08-09T05:11:43.000Z</time>
</trkpt>
<trkpt lat="46.1509140" lon="10.4408500">
	<ele>2395.80</ele>
	<time>2023-08-09T05:11:44.000Z</time>
</trkpt>
<trkpt lat="46.1509150" lon="10.4408480">
	<ele>2395.00</ele>
	<time>2023-08-09T05:11:45.000Z</time>
</trkpt>
<trkpt lat="46.1509150" lon="10.4408480">
	<ele>2395.00</ele>
	<time>2023-08-09T05:11:46.000Z</time>
</trkpt>
<trkpt lat="46.1509150" lon="10.4408480">
	<ele>2395.00</ele>
	<time>2023-08-09T05:11:47.000Z</time>
</trkpt>
<trkpt lat="46.1509150" lon="10.4408480">
	<ele>2395.00</ele>
	<time>2023-08-09T05:11:48.000Z</time>
</trkpt>
<trkpt lat="46.1509150" lon="10.4408480">
	<ele>2395.00</ele>
	<time>2023-08-09T05:11:49.000Z</time>
</trkpt>
<trkpt lat="46.1509150" lon="10.4408480">
	<ele>2394.80</ele>
	<time>2023-08-09T05:11:50.000Z</time>
</trkpt>
<trkpt lat="46.1509150" lon="10.4408480">
	<ele>2394.80</ele>
	<time>2023-08-09T05:11:51.000Z</time>
</trkpt>
<trkpt lat="46.1509150" lon="10.4408480">
	<ele>2394.80</ele>
	<time>2023-08-09T05:11:52.000Z</time>
</trkpt>
<trkpt lat="46.1509150" lon="10.4408480">
	<ele>2394.60</ele>
	<time>2023-08-09T05:11:53.000Z</time>
</trkpt>
<trkpt lat="46.1509150" lon="10.4408500">
	<ele>2394.60</ele>
	<time>2023-08-09T05:11:54.000Z</time>
</trkpt>
<trkpt lat="46.1509150" lon="10.4408510">
	<ele>2394.60</ele>
	<time>2023-08-09T05:11:55.000Z</time>
</trkpt>
<trkpt lat="46.1509150" lon="10.4408510">
	<ele>2394.60</ele>
	<time>2023-08-09T05:11:56.000Z</time>
</trkpt>
<trkpt lat="46.1509150" lon="10.4408520">
	<ele>2394.60</ele>
	<time>2023-08-09T05:11:57.000Z</time>
</trkpt>
<trkpt lat="46.1509150" lon="10.4408520">
	<ele>2394.60</ele>
	<time>2023-08-09T05:11:58.000Z</time>
</trkpt>
<trkpt lat="46.1509170" lon="10.4408610">
	<ele>2395.00</ele>
	<time>2023-08-09T05:11:59.000Z</time>
</trkpt>
<trkpt lat="46.1509220" lon="10.4408870">
	<ele>2395.00</ele>
	<time>2023-08-09T05:12:00.000Z</time>
</trkpt>
<trkpt lat="46.1509240" lon="10.4409150">
	<ele>2395.00</ele>
	<time>2023-08-09T05:12:01.000Z</time>
</trkpt>
<trkpt lat="46.1509270" lon="10.4409400">
	<ele>2395.00</ele>
	<time>2023-08-09T05:12:02.000Z</time>
</trkpt>
<trkpt lat="46.1509300" lon="10.4409620">
	<ele>2395.00</ele>
	<time>2023-08-09T05:12:03.000Z</time>
</trkpt>
<trkpt lat="46.1509340" lon="10.4409850">
	<ele>2395.00</ele>
	<time>2023-08-09T05:12:04.000Z</time>
</trkpt>
<trkpt lat="46.1509380" lon="10.4410090">
	<ele>2395.00</ele>
	<time>2023-08-09T05:12:05.000Z</time>
</trkpt>
<trkpt lat="46.1509420" lon="10.4410350">
	<ele>2395.00</ele>
	<time>2023-08-09T05:12:06.000Z</time>
</trkpt>
<trkpt lat="46.1509470" lon="10.4410620">
	<ele>2395.00</ele>
	<time>2023-08-09T05:12:07.000Z</time>
</trkpt>
<trkpt lat="46.1509520" lon="10.4410830">
	<ele>2395.00</ele>
	<time>2023-08-09T05:12:08.000Z</time>
</trkpt>
<trkpt lat="46.1509540" lon="10.4410960">
	<ele>2395.00</ele>
	<time>2023-08-09T05:12:09.000Z</time>
</trkpt>
<trkpt lat="46.1509570" lon="10.4411100">
	<ele>2395.00</ele>
	<time>2023-08-09T05:12:10.000Z</time>
</trkpt>
<trkpt lat="46.1509600" lon="10.4411250">
	<ele>2395.00</ele>
	<time>2023-08-09T05:12:11.000Z</time>
</trkpt>
<trkpt lat="46.1509640" lon="10.4411400">
	<ele>2395.00</ele>
	<time>2023-08-09T05:12:12.000Z</time>
</trkpt>
<trkpt lat="46.1509670" lon="10.4411550">
	<ele>2395.00</ele>
	<time>2023-08-09T05:12:13.000Z</time>
</trkpt>
<trkpt lat="46.1509680" lon="10.4411730">
	<ele>2395.00</ele>
	<time>2023-08-09T05:12:14.000Z</time>
</trkpt>
<trkpt lat="46.1509680" lon="10.4411900">
	<ele>2395.00</ele>
	<time>2023-08-09T05:12:15.000Z</time>
</trkpt>
<trkpt lat="46.1509670" lon="10.4412060">
	<ele>2395.00</ele>
	<time>2023-08-09T05:12:16.000Z</time>
</trkpt>
<trkpt lat="46.1509640" lon="10.4412200">
	<ele>2395.00</ele>
	<time>2023-08-09T05:12:17.000Z</time>
</trkpt>
<trkpt lat="46.1509630" lon="10.4412330">
	<ele>2395.00</ele>
	<time>2023-08-09T05:12:18.000Z</time>
</trkpt>
<trkpt lat="46.1509640" lon="10.4412470">
	<ele>2395.00</ele>
	<time>2023-08-09T05:12:19.000Z</time>
</trkpt>
<trkpt lat="46.1509660" lon="10.4412620">
	<ele>2395.00</ele>
	<time>2023-08-09T05:12:20.000Z</time>
</trkpt>
<trkpt lat="46.1509700" lon="10.4412750">
	<ele>2395.00</ele>
	<time>2023-08-09T05:12:21.000Z</time>
</trkpt>
<trkpt lat="46.1509730" lon="10.4412900">
	<ele>2395.00</ele>
	<time>2023-08-09T05:12:22.000Z</time>
</trkpt>
<trkpt lat="46.1509750" lon="10.4413040">
	<ele>2395.00</ele>
	<time>2023-08-09T05:12:23.000Z</time>
</trkpt>
<trkpt lat="46.1509790" lon="10.4413190">
	<ele>2395.00</ele>
	<time>2023-08-09T05:12:24.000Z</time>
</trkpt>
<trkpt lat="46.1509810" lon="10.4413370">
	<ele>2395.00</ele>
	<time>2023-08-09T05:12:25.000Z</time>
</trkpt>
<trkpt lat="46.1509800" lon="10.4413540">
	<ele>2395.00</ele>
	<time>2023-08-09T05:12:26.000Z</time>
</trkpt>
<trkpt lat="46.1509780" lon="10.4413700">
	<ele>2395.00</ele>
	<time>2023-08-09T05:12:27.000Z</time>
</trkpt>
<trkpt lat="46.1509750" lon="10.4413840">
	<ele>2394.80</ele>
	<time>2023-08-09T05:12:28.000Z</time>
</trkpt>
<trkpt lat="46.1509740" lon="10.4413980">
	<ele>2395.00</ele>
	<time>2023-08-09T05:12:29.000Z</time>
</trkpt>
<trkpt lat="46.1509720" lon="10.4414110">
	<ele>2394.80</ele>
	<time>2023-08-09T05:12:30.000Z</time>
</trkpt>
<trkpt lat="46.1509700" lon="10.4414240">
	<ele>2395.00</ele>
	<time>2023-08-09T05:12:31.000Z</time>
</trkpt>
<trkpt lat="46.1509670" lon="10.4414370">
	<ele>2395.00</ele>
	<time>2023-08-09T05:12:32.000Z</time>
</trkpt>
<trkpt lat="46.1509630" lon="10.4414480">
	<ele>2395.00</ele>
	<time>2023-08-09T05:12:33.000Z</time>
</trkpt>
<trkpt lat="46.1509610" lon="10.4414590">
	<ele>2395.00</ele>
	<time>2023-08-09T05:12:34.000Z</time>
</trkpt>
<trkpt lat="46.1509610" lon="10.4414720">
	<ele>2395.00</ele>
	<time>2023-08-09T05:12:35.000Z</time>
</trkpt>
<trkpt lat="46.1509600" lon="10.4414860">
	<ele>2395.00</ele>
	<time>2023-08-09T05:12:36.000Z</time>
</trkpt>
<trkpt lat="46.1509600" lon="10.4415010">
	<ele>2395.00</ele>
	<time>2023-08-09T05:12:37.000Z</time>
</trkpt>
<trkpt lat="46.1509600" lon="10.4415130">
	<ele>2395.00</ele>
	<time>2023-08-09T05:12:38.000Z</time>
</trkpt>
<trkpt lat="46.1509600" lon="10.4415240">
	<ele>2395.00</ele>
	<time>2023-08-09T05:12:39.000Z</time>
</trkpt>
<trkpt lat="46.1509620" lon="10.4415370">
	<ele>2395.00</ele>
	<time>2023-08-09T05:12:40.000Z</time>
</trkpt>
<trkpt lat="46.1509630" lon="10.4415480">
	<ele>2395.00</ele>
	<time>2023-08-09T05:12:41.000Z</time>
</trkpt>
<trkpt lat="46.1509620" lon="10.4415570">
	<ele>2395.20</ele>
	<time>2023-08-09T05:12:42.000Z</time>
</trkpt>
<trkpt lat="46.1509610" lon="10.4415690">
	<ele>2395.20</ele>
	<time>2023-08-09T05:12:43.000Z</time>
</trkpt>
<trkpt lat="46.1509580" lon="10.4415800">
	<ele>2395.20</ele>
	<time>2023-08-09T05:12:44.000Z</time>
</trkpt>
<trkpt lat="46.1509600" lon="10.4415880">
	<ele>2395.20</ele>
	<time>2023-08-09T05:12:45.000Z</time>
</trkpt>
<trkpt lat="46.1509630" lon="10.4415940">
	<ele>2395.20</ele>
	<time>2023-08-09T05:12:46.000Z</time>
</trkpt>
<trkpt lat="46.1509670" lon="10.4416050">
	<ele>2395.40</ele>
	<time>2023-08-09T05:12:47.000Z</time>
</trkpt>
<trkpt lat="46.1509720" lon="10.4416150">
	<ele>2395.40</ele>
	<time>2023-08-09T05:12:48.000Z</time>
</trkpt>
<trkpt lat="46.1509780" lon="10.4416240">
	<ele>2395.20</ele>
	<time>2023-08-09T05:12:49.000Z</time>
</trkpt>
<trkpt lat="46.1509820" lon="10.4416370">
	<ele>2395.00</ele>
	<time>2023-08-09T05:12:50.000Z</time>
</trkpt>
<trkpt lat="46.1509820" lon="10.4416530">
	<ele>2395.00</ele>
	<time>2023-08-09T05:12:51.000Z</time>
</trkpt>
<trkpt lat="46.1509810" lon="10.4416680">
	<ele>2395.00</ele>
	<time>2023-08-09T05:12:52.000Z</time>
</trkpt>
<trkpt lat="46.1509800" lon="10.4416850">
	<ele>2395.00</ele>
	<time>2023-08-09T05:12:53.000Z</time>
</trkpt>
<trkpt lat="46.1509810" lon="10.4416990">
	<ele>2395.00</ele>
	<time>2023-08-09T05:12:54.000Z</time>
</trkpt>
<trkpt lat="46.1509820" lon="10.4417120">
	<ele>2395.00</ele>
	<time>2023-08-09T05:12:55.000Z</time>
</trkpt>
<trkpt lat="46.1509820" lon="10.4417280">
	<ele>2395.00</ele>
	<time>2023-08-09T05:12:56.000Z</time>
</trkpt>
<trkpt lat="46.1509790" lon="10.4417410">
	<ele>2395.00</ele>
	<time>2023-08-09T05:12:57.000Z</time>
</trkpt>
<trkpt lat="46.1509790" lon="10.4417540">
	<ele>2395.00</ele>
	<time>2023-08-09T05:12:58.000Z</time>
</trkpt>
<trkpt lat="46.1509800" lon="10.4417680">
	<ele>2395.00</ele>
	<time>2023-08-09T05:12:59.000Z</time>
</trkpt>
<trkpt lat="46.1509780" lon="10.4417880">
	<ele>2395.00</ele>
	<time>2023-08-09T05:13:00.000Z</time>
</trkpt>
<trkpt lat="46.1509780" lon="10.4418000">
	<ele>2395.20</ele>
	<time>2023-08-09T05:13:01.000Z</time>
</trkpt>
<trkpt lat="46.1509800" lon="10.4418120">
	<ele>2395.20</ele>
	<time>2023-08-09T05:13:02.000Z</time>
</trkpt>
<trkpt lat="46.1509810" lon="10.4418260">
	<ele>2395.40</ele>
	<time>2023-08-09T05:13:03.000Z</time>
</trkpt>
<trkpt lat="46.1509810" lon="10.4418400">
	<ele>2395.40</ele>
	<time>2023-08-09T05:13:04.000Z</time>
</trkpt>
<trkpt lat="46.1509820" lon="10.4418550">
	<ele>2395.40</ele>
	<time>2023-08-09T05:13:05.000Z</time>
</trkpt>
<trkpt lat="46.1509850" lon="10.4418690">
	<ele>2395.60</ele>
	<time>2023-08-09T05:13:06.000Z</time>
</trkpt>
<trkpt lat="46.1509880" lon="10.4418840">
	<ele>2395.60</ele>
	<time>2023-08-09T05:13:07.000Z</time>
</trkpt>
<trkpt lat="46.1509890" lon="10.4419000">
	<ele>2395.60</ele>
	<time>2023-08-09T05:13:08.000Z</time>
</trkpt>
<trkpt lat="46.1509950" lon="10.4419150">
	<ele>2395.60</ele>
	<time>2023-08-09T05:13:09.000Z</time>
</trkpt>
<trkpt lat="46.1510010" lon="10.4419300">
	<ele>2395.80</ele>
	<time>2023-08-09T05:13:10.000Z</time>
</trkpt>
<trkpt lat="46.1510060" lon="10.4419480">
	<ele>2395.80</ele>
	<time>2023-08-09T05:13:11.000Z</time>
</trkpt>
<trkpt lat="46.1510110" lon="10.4419670">
	<ele>2395.80</ele>
	<time>2023-08-09T05:13:12.000Z</time>
</trkpt>
<trkpt lat="46.1510150" lon="10.4419820">
	<ele>2395.80</ele>
	<time>2023-08-09T05:13:13.000Z</time>
</trkpt>
<trkpt lat="46.1510170" lon="10.4419930">
	<ele>2396.00</ele>
	<time>2023-08-09T05:13:14.000Z</time>
</trkpt>
<trkpt lat="46.1510200" lon="10.4420030">
	<ele>2396.00</ele>
	<time>2023-08-09T05:13:15.000Z</time>
</trkpt>
<trkpt lat="46.1510210" lon="10.4420110">
	<ele>2396.20</ele>
	<time>2023-08-09T05:13:16.000Z</time>
</trkpt>
<trkpt lat="46.1510250" lon="10.4420180">
	<ele>2396.20</ele>
	<time>2023-08-09T05:13:17.000Z</time>
</trkpt>
<trkpt lat="46.1510340" lon="10.4420270">
	<ele>2396.20</ele>
	<time>2023-08-09T05:13:18.000Z</time>
</trkpt>
<trkpt lat="46.1510420" lon="10.4420390">
	<ele>2396.20</ele>
	<time>2023-08-09T05:13:19.000Z</time>
</trkpt>
<trkpt lat="46.1510500" lon="10.4420530">
	<ele>2396.20</ele>
	<time>2023-08-09T05:13:20.000Z</time>
</trkpt>
<trkpt lat="46.1510550" lon="10.4420670">
	<ele>2396.00</ele>
	<time>2023-08-09T05:13:21.000Z</time>
</trkpt>
<trkpt lat="46.1510520" lon="10.4420760">
	<ele>2396.00</ele>
	<time>2023-08-09T05:13:22.000Z</time>
</trkpt>
<trkpt lat="46.1510530" lon="10.4420820">
	<ele>2396.00</ele>
	<time>2023-08-09T05:13:23.000Z</time>
</trkpt>
<trkpt lat="46.1510560" lon="10.4420870">
	<ele>2396.00</ele>
	<time>2023-08-09T05:13:24.000Z</time>
</trkpt>
<trkpt lat="46.1510580" lon="10.4420940">
	<ele>2396.00</ele>
	<time>2023-08-09T05:13:25.000Z</time>
</trkpt>
<trkpt lat="46.1510600" lon="10.4421030">
	<ele>2396.00</ele>
	<time>2023-08-09T05:13:26.000Z</time>
</trkpt>
<trkpt lat="46.1510620" lon="10.4421100">
	<ele>2396.00</ele>
	<time>2023-08-09T05:13:27.000Z</time>
</trkpt>
<trkpt lat="46.1510650" lon="10.4421150">
	<ele>2396.20</ele>
	<time>2023-08-09T05:13:28.000Z</time>
</trkpt>
<trkpt lat="46.1510710" lon="10.4421190">
	<ele>2396.20</ele>
	<time>2023-08-09T05:13:29.000Z</time>
</trkpt>
<trkpt lat="46.1510770" lon="10.4421250">
	<ele>2396.40</ele>
	<time>2023-08-09T05:13:30.000Z</time>
</trkpt>
<trkpt lat="46.1510800" lon="10.4421350">
	<ele>2396.60</ele>
	<time>2023-08-09T05:13:31.000Z</time>
</trkpt>
<trkpt lat="46.1510830" lon="10.4421420">
	<ele>2396.60</ele>
	<time>2023-08-09T05:13:32.000Z</time>
</trkpt>
<trkpt lat="46.1510880" lon="10.4421480">
	<ele>2396.80</ele>
	<time>2023-08-09T05:13:33.000Z</time>
</trkpt>
<trkpt lat="46.1510930" lon="10.4421520">
	<ele>2396.80</ele>
	<time>2023-08-09T05:13:34.000Z</time>
</trkpt>
<trkpt lat="46.1510990" lon="10.4421530">
	<ele>2396.80</ele>
	<time>2023-08-09T05:13:35.000Z</time>
</trkpt>
<trkpt lat="46.1511050" lon="10.4421560">
	<ele>2397.00</ele>
	<time>2023-08-09T05:13:36.000Z</time>
</trkpt>
<trkpt lat="46.1511080" lon="10.4421620">
	<ele>2397.20</ele>
	<time>2023-08-09T05:13:37.000Z</time>
</trkpt>
<trkpt lat="46.1511080" lon="10.4421770">
	<ele>2397.20</ele>
	<time>2023-08-09T05:13:38.000Z</time>
</trkpt>
<trkpt lat="46.1511080" lon="10.4421850">
	<ele>2397.60</ele>
	<time>2023-08-09T05:13:39.000Z</time>
</trkpt>
<trkpt lat="46.1511060" lon="10.4421910">
	<ele>2397.60</ele>
	<time>2023-08-09T05:13:40.000Z</time>
</trkpt>
<trkpt lat="46.1511050" lon="10.4421980">
	<ele>2397.80</ele>
	<time>2023-08-09T05:13:41.000Z</time>
</trkpt>
<trkpt lat="46.1511040" lon="10.4422020">
	<ele>2398.00</ele>
	<time>2023-08-09T05:13:42.000Z</time>
</trkpt>
<trkpt lat="46.1511030" lon="10.4422040">
	<ele>2398.20</ele>
	<time>2023-08-09T05:13:43.000Z</time>
</trkpt>
<trkpt lat="46.1511000" lon="10.4422050">
	<ele>2398.20</ele>
	<time>2023-08-09T05:13:44.000Z</time>
</trkpt>
<trkpt lat="46.1511040" lon="10.4422050">
	<ele>2398.40</ele>
	<time>2023-08-09T05:13:45.000Z</time>
</trkpt>
<trkpt lat="46.1511020" lon="10.4422110">
	<ele>2398.40</ele>
	<time>2023-08-09T05:13:46.000Z</time>
</trkpt>
<trkpt lat="46.1511030" lon="10.4422160">
	<ele>2398.60</ele>
	<time>2023-08-09T05:13:47.000Z</time>
</trkpt>
<trkpt lat="46.1511040" lon="10.4422220">
	<ele>2398.80</ele>
	<time>2023-08-09T05:13:48.000Z</time>
</trkpt>
<trkpt lat="46.1511030" lon="10.4422310">
	<ele>2399.00</ele>
	<time>2023-08-09T05:13:49.000Z</time>
</trkpt>
<trkpt lat="46.1511050" lon="10.4422380">
	<ele>2399.00</ele>
	<time>2023-08-09T05:13:50.000Z</time>
</trkpt>
<trkpt lat="46.1511110" lon="10.4422450">
	<ele>2399.20</ele>
	<time>2023-08-09T05:13:51.000Z</time>
</trkpt>
<trkpt lat="46.1511110" lon="10.4422580">
	<ele>2399.20</ele>
	<time>2023-08-09T05:13:52.000Z</time>
</trkpt>
<trkpt lat="46.1511110" lon="10.4422670">
	<ele>2399.20</ele>
	<time>2023-08-09T05:13:53.000Z</time>
</trkpt>
<trkpt lat="46.1511130" lon="10.4422780">
	<ele>2399.60</ele>
	<time>2023-08-09T05:13:54.000Z</time>
</trkpt>
<trkpt lat="46.1511130" lon="10.4422880">
	<ele>2399.80</ele>
	<time>2023-08-09T05:13:55.000Z</time>
</trkpt>
<trkpt lat="46.1511160" lon="10.4422990">
	<ele>2400.00</ele>
	<time>2023-08-09T05:13:56.000Z</time>
</trkpt>
<trkpt lat="46.1511200" lon="10.4423130">
	<ele>2400.00</ele>
	<time>2023-08-09T05:13:57.000Z</time>
</trkpt>
<trkpt lat="46.1511230" lon="10.4423220">
	<ele>2400.20</ele>
	<time>2023-08-09T05:13:58.000Z</time>
</trkpt>
<trkpt lat="46.1511240" lon="10.4423300">
	<ele>2400.20</ele>
	<time>2023-08-09T05:13:59.000Z</time>
</trkpt>
<trkpt lat="46.1511210" lon="10.4423360">
	<ele>2400.40</ele>
	<time>2023-08-09T05:14:00.000Z</time>
</trkpt>
<trkpt lat="46.1511170" lon="10.4423400">
	<ele>2400.40</ele>
	<time>2023-08-09T05:14:01.000Z</time>
</trkpt>
<trkpt lat="46.1511100" lon="10.4423470">
	<ele>2400.60</ele>
	<time>2023-08-09T05:14:02.000Z</time>
</trkpt>
<trkpt lat="46.1511050" lon="10.4423520">
	<ele>2400.80</ele>
	<time>2023-08-09T05:14:03.000Z</time>
</trkpt>
<trkpt lat="46.1511010" lon="10.4423580">
	<ele>2401.20</ele>
	<time>2023-08-09T05:14:04.000Z</time>
</trkpt>
<trkpt lat="46.1510990" lon="10.4423620">
	<ele>2401.60</ele>
	<time>2023-08-09T05:14:05.000Z</time>
</trkpt>
<trkpt lat="46.1510990" lon="10.4423680">
	<ele>2401.80</ele>
	<time>2023-08-09T05:14:06.000Z</time>
</trkpt>
<trkpt lat="46.1510980" lon="10.4423760">
	<ele>2402.00</ele>
	<time>2023-08-09T05:14:07.000Z</time>
</trkpt>
<trkpt lat="46.1510990" lon="10.4423820">
	<ele>2402.20</ele>
	<time>2023-08-09T05:14:08.000Z</time>
</trkpt>
<trkpt lat="46.1511000" lon="10.4423860">
	<ele>2402.40</ele>
	<time>2023-08-09T05:14:09.000Z</time>
</trkpt>
<trkpt lat="46.1511000" lon="10.4423950">
	<ele>2402.60</ele>
	<time>2023-08-09T05:14:10.000Z</time>
</trkpt>
<trkpt lat="46.1510960" lon="10.4424050">
	<ele>2402.80</ele>
	<time>2023-08-09T05:14:11.000Z</time>
</trkpt>
<trkpt lat="46.1510930" lon="10.4424160">
	<ele>2403.00</ele>
	<time>2023-08-09T05:14:12.000Z</time>
</trkpt>
<trkpt lat="46.1510900" lon="10.4424250">
	<ele>2403.00</ele>
	<time>2023-08-09T05:14:13.000Z</time>
</trkpt>
<trkpt lat="46.1510900" lon="10.4424320">
	<ele>2403.20</ele>
	<time>2023-08-09T05:14:14.000Z</time>
</trkpt>
<trkpt lat="46.1510920" lon="10.4424440">
	<ele>2403.40</ele>
	<time>2023-08-09T05:14:15.000Z</time>
</trkpt>
<trkpt lat="46.1510960" lon="10.4424560">
	<ele>2403.40</ele>
	<time>2023-08-09T05:14:16.000Z</time>
</trkpt>
<trkpt lat="46.1510930" lon="10.4424630">
	<ele>2403.40</ele>
	<time>2023-08-09T05:14:17.000Z</time>
</trkpt>
<trkpt lat="46.1510940" lon="10.4424730">
	<ele>2403.40</ele>
	<time>2023-08-09T05:14:18.000Z</time>
</trkpt>
<trkpt lat="46.1510930" lon="10.4424820">
	<ele>2403.40</ele>
	<time>2023-08-09T05:14:19.000Z</time>
</trkpt>
<trkpt lat="46.1510990" lon="10.4424860">
	<ele>2403.60</ele>
	<time>2023-08-09T05:14:20.000Z</time>
</trkpt>
<trkpt lat="46.1511050" lon="10.4424890">
	<ele>2403.60</ele>
	<time>2023-08-09T05:14:21.000Z</time>
</trkpt>
<trkpt lat="46.1511140" lon="10.4424900">
	<ele>2403.60</ele>
	<time>2023-08-09T05:14:22.000Z</time>
</trkpt>
<trkpt lat="46.1511230" lon="10.4424970">
	<ele>2403.60</ele>
	<time>2023-08-09T05:14:23.000Z</time>
</trkpt>
<trkpt lat="46.1511300" lon="10.4425090">
	<ele>2403.60</ele>
	<time>2023-08-09T05:14:24.000Z</time>
</trkpt>
<trkpt lat="46.1511320" lon="10.4425220">
	<ele>2403.60</ele>
	<time>2023-08-09T05:14:25.000Z</time>
</trkpt>
<trkpt lat="46.1511320" lon="10.4425350">
	<ele>2403.60</ele>
	<time>2023-08-09T05:14:26.000Z</time>
</trkpt>
<trkpt lat="46.1511360" lon="10.4425450">
	<ele>2403.80</ele>
	<time>2023-08-09T05:14:27.000Z</time>
</trkpt>
<trkpt lat="46.1511420" lon="10.4425520">
	<ele>2404.00</ele>
	<time>2023-08-09T05:14:28.000Z</time>
</trkpt>
<trkpt lat="46.1511460" lon="10.4425610">
	<ele>2404.00</ele>
	<time>2023-08-09T05:14:29.000Z</time>
</trkpt>
<trkpt lat="46.1511480" lon="10.4425680">
	<ele>2404.20</ele>
	<time>2023-08-09T05:14:30.000Z</time>
</trkpt>
<trkpt lat="46.1511500" lon="10.4425760">
	<ele>2404.20</ele>
	<time>2023-08-09T05:14:31.000Z</time>
</trkpt>
<trkpt lat="46.1511500" lon="10.4425880">
	<ele>2404.20</ele>
	<time>2023-08-09T05:14:32.000Z</time>
</trkpt>
<trkpt lat="46.1511510" lon="10.4425990">
	<ele>2404.40</ele>
	<time>2023-08-09T05:14:33.000Z</time>
</trkpt>
<trkpt lat="46.1511510" lon="10.4426090">
	<ele>2404.60</ele>
	<time>2023-08-09T05:14:34.000Z</time>
</trkpt>
<trkpt lat="46.1511500" lon="10.4426180">
	<ele>2404.80</ele>
	<time>2023-08-09T05:14:35.000Z</time>
</trkpt>
<trkpt lat="46.1511490" lon="10.4426280">
	<ele>2404.80</ele>
	<time>2023-08-09T05:14:36.000Z</time>
</trkpt>
<trkpt lat="46.1511530" lon="10.4426410">
	<ele>2405.00</ele>
	<time>2023-08-09T05:14:37.000Z</time>
</trkpt>
<trkpt lat="46.1511580" lon="10.4426550">
	<ele>2405.20</ele>
	<time>2023-08-09T05:14:38.000Z</time>
</trkpt>
<trkpt lat="46.1511630" lon="10.4426650">
	<ele>2405.40</ele>
	<time>2023-08-09T05:14:39.000Z</time>
</trkpt>
<trkpt lat="46.1511670" lon="10.4426730">
	<ele>2405.40</ele>
	<time>2023-08-09T05:14:40.000Z</time>
</trkpt>
<trkpt lat="46.1511680" lon="10.4426830">
	<ele>2405.40</ele>
	<time>2023-08-09T05:14:41.000Z</time>
</trkpt>
<trkpt lat="46.1511720" lon="10.4426900">
	<ele>2405.40</ele>
	<time>2023-08-09T05:14:42.000Z</time>
</trkpt>
<trkpt lat="46.1511750" lon="10.4426990">
	<ele>2405.60</ele>
	<time>2023-08-09T05:14:43.000Z</time>
</trkpt>
<trkpt lat="46.1511740" lon="10.4427100">
	<ele>2405.60</ele>
	<time>2023-08-09T05:14:44.000Z</time>
</trkpt>
<trkpt lat="46.1511690" lon="10.4427190">
	<ele>2405.80</ele>
	<time>2023-08-09T05:14:45.000Z</time>
</trkpt>
<trkpt lat="46.1511620" lon="10.4427230">
	<ele>2405.80</ele>
	<time>2023-08-09T05:14:46.000Z</time>
</trkpt>
<trkpt lat="46.1511580" lon="10.4427270">
	<ele>2405.80</ele>
	<time>2023-08-09T05:14:47.000Z</time>
</trkpt>
<trkpt lat="46.1511560" lon="10.4427310">
	<ele>2406.00</ele>
	<time>2023-08-09T05:14:48.000Z</time>
</trkpt>
<trkpt lat="46.1511560" lon="10.4427340">
	<ele>2406.20</ele>
	<time>2023-08-09T05:14:49.000Z</time>
</trkpt>
<trkpt lat="46.1511510" lon="10.4427380">
	<ele>2406.20</ele>
	<time>2023-08-09T05:14:50.000Z</time>
</trkpt>
<trkpt lat="46.1511460" lon="10.4427490">
	<ele>2406.20</ele>
	<time>2023-08-09T05:14:51.000Z</time>
</trkpt>
<trkpt lat="46.1511490" lon="10.4427590">
	<ele>2406.20</ele>
	<time>2023-08-09T05:14:52.000Z</time>
</trkpt>
<trkpt lat="46.1511500" lon="10.4427710">
	<ele>2406.20</ele>
	<time>2023-08-09T05:14:53.000Z</time>
</trkpt>
<trkpt lat="46.1511530" lon="10.4427820">
	<ele>2406.20</ele>
	<time>2023-08-09T05:14:54.000Z</time>
</trkpt>
<trkpt lat="46.1511500" lon="10.4427900">
	<ele>2406.20</ele>
	<time>2023-08-09T05:14:55.000Z</time>
</trkpt>
<trkpt lat="46.1511490" lon="10.4428010">
	<ele>2406.00</ele>
	<time>2023-08-09T05:14:56.000Z</time>
</trkpt>
<trkpt lat="46.1511460" lon="10.4428090">
	<ele>2406.00</ele>
	<time>2023-08-09T05:14:57.000Z</time>
</trkpt>
<trkpt lat="46.1511460" lon="10.4428160">
	<ele>2406.20</ele>
	<time>2023-08-09T05:14:58.000Z</time>
</trkpt>
<trkpt lat="46.1511460" lon="10.4428230">
	<ele>2406.20</ele>
	<time>2023-08-09T05:14:59.000Z</time>
</trkpt>
<trkpt lat="46.1511470" lon="10.4428300">
	<ele>2406.20</ele>
	<time>2023-08-09T05:15:00.000Z</time>
</trkpt>
<trkpt lat="46.1511480" lon="10.4428400">
	<ele>2406.20</ele>
	<time>2023-08-09T05:15:01.000Z</time>
</trkpt>
<trkpt lat="46.1511490" lon="10.4428500">
	<ele>2406.20</ele>
	<time>2023-08-09T05:15:02.000Z</time>
</trkpt>
<trkpt lat="46.1511520" lon="10.4428580">
	<ele>2406.00</ele>
	<time>2023-08-09T05:15:03.000Z</time>
</trkpt>
<trkpt lat="46.1511570" lon="10.4428620">
	<ele>2406.00</ele>
	<time>2023-08-09T05:15:04.000Z</time>
</trkpt>
<trkpt lat="46.1511630" lon="10.4428680">
	<ele>2405.80</ele>
	<time>2023-08-09T05:15:05.000Z</time>
</trkpt>
<trkpt lat="46.1511700" lon="10.4428700">
	<ele>2405.80</ele>
	<time>2023-08-09T05:15:06.000Z</time>
</trkpt>
<trkpt lat="46.1511740" lon="10.4428710">
	<ele>2406.00</ele>
	<time>2023-08-09T05:15:07.000Z</time>
</trkpt>
<trkpt lat="46.1511820" lon="10.4428730">
	<ele>2406.00</ele>
	<time>2023-08-09T05:15:08.000Z</time>
</trkpt>
<trkpt lat="46.1511890" lon="10.4428770">
	<ele>2406.20</ele>
	<time>2023-08-09T05:15:09.000Z</time>
</trkpt>
<trkpt lat="46.1511930" lon="10.4428800">
	<ele>2406.20</ele>
	<time>2023-08-09T05:15:10.000Z</time>
</trkpt>
<trkpt lat="46.1511970" lon="10.4428850">
	<ele>2406.20</ele>
	<time>2023-08-09T05:15:11.000Z</time>
</trkpt>
<trkpt lat="46.1511990" lon="10.4428920">
	<ele>2406.20</ele>
	<time>2023-08-09T05:15:12.000Z</time>
</trkpt>
<trkpt lat="46.1512020" lon="10.4429000">
	<ele>2406.40</ele>
	<time>2023-08-09T05:15:13.000Z</time>
</trkpt>
<trkpt lat="46.1512040" lon="10.4429040">
	<ele>2406.40</ele>
	<time>2023-08-09T05:15:14.000Z</time>
</trkpt>
<trkpt lat="46.1512080" lon="10.4429130">
	<ele>2406.60</ele>
	<time>2023-08-09T05:15:15.000Z</time>
</trkpt>
<trkpt lat="46.1512090" lon="10.4429230">
	<ele>2406.80</ele>
	<time>2023-08-09T05:15:16.000Z</time>
</trkpt>
<trkpt lat="46.1512090" lon="10.4429330">
	<ele>2406.80</ele>
	<time>2023-08-09T05:15:17.000Z</time>
</trkpt>
<trkpt lat="46.1512090" lon="10.4429410">
	<ele>2406.80</ele>
	<time>2023-08-09T05:15:18.000Z</time>
</trkpt>
<trkpt lat="46.1512090" lon="10.4429470">
	<ele>2406.80</ele>
	<time>2023-08-09T05:15:19.000Z</time>
</trkpt>
<trkpt lat="46.1512120" lon="10.4429520">
	<ele>2406.80</ele>
	<time>2023-08-09T05:15:20.000Z</time>
</trkpt>
<trkpt lat="46.1512150" lon="10.4429560">
	<ele>2407.00</ele>
	<time>2023-08-09T05:15:21.000Z</time>
</trkpt>
<trkpt lat="46.1512190" lon="10.4429610">
	<ele>2407.20</ele>
	<time>2023-08-09T05:15:22.000Z</time>
</trkpt>
<trkpt lat="46.1512250" lon="10.4429670">
	<ele>2407.40</ele>
	<time>2023-08-09T05:15:23.000Z</time>
</trkpt>
<trkpt lat="46.1512320" lon="10.4429740">
	<ele>2407.40</ele>
	<time>2023-08-09T05:15:24.000Z</time>
</trkpt>
<trkpt lat="46.1512340" lon="10.4429850">
	<ele>2407.60</ele>
	<time>2023-08-09T05:15:25.000Z</time>
</trkpt>
<trkpt lat="46.1512330" lon="10.4429930">
	<ele>2407.80</ele>
	<time>2023-08-09T05:15:26.000Z</time>
</trkpt>
<trkpt lat="46.1512340" lon="10.4429960">
	<ele>2408.00</ele>
	<time>2023-08-09T05:15:27.000Z</time>
</trkpt>
<trkpt lat="46.1512350" lon="10.4430060">
	<ele>2408.20</ele>
	<time>2023-08-09T05:15:28.000Z</time>
</trkpt>
<trkpt lat="46.1512300" lon="10.4430150">
	<ele>2408.20</ele>
	<time>2023-08-09T05:15:29.000Z</time>
</trkpt>
<trkpt lat="46.1512260" lon="10.4430180">
	<ele>2408.60</ele>
	<time>2023-08-09T05:15:30.000Z</time>
</trkpt>
<trkpt lat="46.1512200" lon="10.4430190">
	<ele>2408.60</ele>
	<time>2023-08-09T05:15:31.000Z</time>
</trkpt>
<trkpt lat="46.1512130" lon="10.4430220">
	<ele>2408.80</ele>
	<time>2023-08-09T05:15:32.000Z</time>
</trkpt>
<trkpt lat="46.1512060" lon="10.4430260">
	<ele>2409.00</ele>
	<time>2023-08-09T05:15:33.000Z</time>
</trkpt>
<trkpt lat="46.1512020" lon="10.4430300">
	<ele>2409.20</ele>
	<time>2023-08-09T05:15:34.000Z</time>
</trkpt>
<trkpt lat="46.1511990" lon="10.4430330">
	<ele>2409.20</ele>
	<time>2023-08-09T05:15:35.000Z</time>
</trkpt>
<trkpt lat="46.1511930" lon="10.4430360">
	<ele>2409.40</ele>
	<time>2023-08-09T05:15:36.000Z</time>
</trkpt>
<trkpt lat="46.1511890" lon="10.4430410">
	<ele>2409.60</ele>
	<time>2023-08-09T05:15:37.000Z</time>
</trkpt>
<trkpt lat="46.1511870" lon="10.4430460">
	<ele>2409.60</ele>
	<time>2023-08-09T05:15:38.000Z</time>
</trkpt>
<trkpt lat="46.1511860" lon="10.4430540">
	<ele>2409.60</ele>
	<time>2023-08-09T05:15:39.000Z</time>
</trkpt>
<trkpt lat="46.1511800" lon="10.4430640">
	<ele>2409.80</ele>
	<time>2023-08-09T05:15:40.000Z</time>
</trkpt>
<trkpt lat="46.1511750" lon="10.4430690">
	<ele>2409.80</ele>
	<time>2023-08-09T05:15:41.000Z</time>
</trkpt>
<trkpt lat="46.1511690" lon="10.4430770">
	<ele>2409.80</ele>
	<time>2023-08-09T05:15:42.000Z</time>
</trkpt>
<trkpt lat="46.1511650" lon="10.4430850">
	<ele>2409.80</ele>
	<time>2023-08-09T05:15:43.000Z</time>
</trkpt>
<trkpt lat="46.1511620" lon="10.4430980">
	<ele>2410.00</ele>
	<time>2023-08-09T05:15:44.000Z</time>
</trkpt>
<trkpt lat="46.1511580" lon="10.4431050">
	<ele>2410.00</ele>
	<time>2023-08-09T05:15:45.000Z</time>
</trkpt>
<trkpt lat="46.1511550" lon="10.4431110">
	<ele>2410.00</ele>
	<time>2023-08-09T05:15:46.000Z</time>
</trkpt>
<trkpt lat="46.1511540" lon="10.4431160">
	<ele>2410.40</ele>
	<time>2023-08-09T05:15:47.000Z</time>
</trkpt>
<trkpt lat="46.1511540" lon="10.4431240">
	<ele>2410.60</ele>
	<time>2023-08-09T05:15:48.000Z</time>
</trkpt>
<trkpt lat="46.1511510" lon="10.4431310">
	<ele>2410.60</ele>
	<time>2023-08-09T05:15:49.000Z</time>
</trkpt>
<trkpt lat="46.1511460" lon="10.4431370">
	<ele>2410.60</ele>
	<time>2023-08-09T05:15:50.000Z</time>
</trkpt>
<trkpt lat="46.1511430" lon="10.4431420">
	<ele>2410.80</ele>
	<time>2023-08-09T05:15:51.000Z</time>
</trkpt>
<trkpt lat="46.1511420" lon="10.4431460">
	<ele>2410.80</ele>
	<time>2023-08-09T05:15:52.000Z</time>
</trkpt>
<trkpt lat="46.1511380" lon="10.4431500">
	<ele>2410.80</ele>
	<time>2023-08-09T05:15:53.000Z</time>
</trkpt>
<trkpt lat="46.1511360" lon="10.4431530">
	<ele>2410.80</ele>
	<time>2023-08-09T05:15:54.000Z</time>
</trkpt>
<trkpt lat="46.1511330" lon="10.4431570">
	<ele>2410.80</ele>
	<time>2023-08-09T05:15:55.000Z</time>
</trkpt>
<trkpt lat="46.1511310" lon="10.4431610">
	<ele>2411.20</ele>
	<time>2023-08-09T05:15:56.000Z</time>
</trkpt>
<trkpt lat="46.1511280" lon="10.4431680">
	<ele>2411.20</ele>
	<time>2023-08-09T05:15:57.000Z</time>
</trkpt>
<trkpt lat="46.1511270" lon="10.4431750">
	<ele>2411.40</ele>
	<time>2023-08-09T05:15:58.000Z</time>
</trkpt>
<trkpt lat="46.1511230" lon="10.4431790">
	<ele>2411.40</ele>
	<time>2023-08-09T05:15:59.000Z</time>
</trkpt>
<trkpt lat="46.1511200" lon="10.4431810">
	<ele>2411.60</ele>
	<time>2023-08-09T05:16:00.000Z</time>
</trkpt>
<trkpt lat="46.1511190" lon="10.4431850">
	<ele>2411.60</ele>
	<time>2023-08-09T05:16:01.000Z</time>
</trkpt>
<trkpt lat="46.1511160" lon="10.4431900">
	<ele>2411.80</ele>
	<time>2023-08-09T05:16:02.000Z</time>
</trkpt>
<trkpt lat="46.1511140" lon="10.4431950">
	<ele>2411.80</ele>
	<time>2023-08-09T05:16:03.000Z</time>
</trkpt>
<trkpt lat="46.1511150" lon="10.4431970">
	<ele>2412.20</ele>
	<time>2023-08-09T05:16:04.000Z</time>
</trkpt>
<trkpt lat="46.1511170" lon="10.4431980">
	<ele>2412.40</ele>
	<time>2023-08-09T05:16:05.000Z</time>
</trkpt>
<trkpt lat="46.1511200" lon="10.4431990">
	<ele>2412.60</ele>
	<time>2023-08-09T05:16:06.000Z</time>
</trkpt>
<trkpt lat="46.1511260" lon="10.4432050">
	<ele>2412.60</ele>
	<time>2023-08-09T05:16:07.000Z</time>
</trkpt>
<trkpt lat="46.1511280" lon="10.4432110">
	<ele>2412.80</ele>
	<time>2023-08-09T05:16:08.000Z</time>
</trkpt>
<trkpt lat="46.1511330" lon="10.4432180">
	<ele>2413.00</ele>
	<time>2023-08-09T05:16:09.000Z</time>
</trkpt>
<trkpt lat="46.1511330" lon="10.4432260">
	<ele>2413.20</ele>
	<time>2023-08-09T05:16:10.000Z</time>
</trkpt>
<trkpt lat="46.1511350" lon="10.4432340">
	<ele>2413.20</ele>
	<time>2023-08-09T05:16:11.000Z</time>
</trkpt>
<trkpt lat="46.1511350" lon="10.4432400">
	<ele>2413.20</ele>
	<time>2023-08-09T05:16:12.000Z</time>
</trkpt>
<trkpt lat="46.1511360" lon="10.4432530">
	<ele>2413.40</ele>
	<time>2023-08-09T05:16:13.000Z</time>
</trkpt>
<trkpt lat="46.1511360" lon="10.4432590">
	<ele>2413.40</ele>
	<time>2023-08-09T05:16:14.000Z</time>
</trkpt>
<trkpt lat="46.1511380" lon="10.4432650">
	<ele>2413.60</ele>
	<time>2023-08-09T05:16:15.000Z</time>
</trkpt>
<trkpt lat="46.1511390" lon="10.4432690">
	<ele>2413.80</ele>
	<time>2023-08-09T05:16:16.000Z</time>
</trkpt>
<trkpt lat="46.1511410" lon="10.4432770">
	<ele>2414.00</ele>
	<time>2023-08-09T05:16:17.000Z</time>
</trkpt>
<trkpt lat="46.1511390" lon="10.4432840">
	<ele>2414.20</ele>
	<time>2023-08-09T05:16:18.000Z</time>
</trkpt>
<trkpt lat="46.1511370" lon="10.4432860">
	<ele>2414.40</ele>
	<time>2023-08-09T05:16:19.000Z</time>
</trkpt>
<trkpt lat="46.1511390" lon="10.4433020">
	<ele>2414.40</ele>
	<time>2023-08-09T05:16:20.000Z</time>
</trkpt>
<trkpt lat="46.1511380" lon="10.4433070">
	<ele>2414.40</ele>
	<time>2023-08-09T05:16:21.000Z</time>
</trkpt>
<trkpt lat="46.1511390" lon="10.4433130">
	<ele>2414.60</ele>
	<time>2023-08-09T05:16:22.000Z</time>
</trkpt>
<trkpt lat="46.1511400" lon="10.4433140">
	<ele>2414.80</ele>
	<time>2023-08-09T05:16:23.000Z</time>
</trkpt>
<trkpt lat="46.1511360" lon="10.4433130">
	<ele>2415.20</ele>
	<time>2023-08-09T05:16:24.000Z</time>
</trkpt>
<trkpt lat="46.1511330" lon="10.4433150">
	<ele>2415.20</ele>
	<time>2023-08-09T05:16:25.000Z</time>
</trkpt>
<trkpt lat="46.1511310" lon="10.4433180">
	<ele>2415.40</ele>
	<time>2023-08-09T05:16:26.000Z</time>
</trkpt>
<trkpt lat="46.1511290" lon="10.4433210">
	<ele>2415.60</ele>
	<time>2023-08-09T05:16:27.000Z</time>
</trkpt>
<trkpt lat="46.1511270" lon="10.4433240">
	<ele>2415.80</ele>
	<time>2023-08-09T05:16:28.000Z</time>
</trkpt>
<trkpt lat="46.1511260" lon="10.4433240">
	<ele>2415.80</ele>
	<time>2023-08-09T05:16:29.000Z</time>
</trkpt>
<trkpt lat="46.1511270" lon="10.4433260">
	<ele>2415.80</ele>
	<time>2023-08-09T05:16:30.000Z</time>
</trkpt>
<trkpt lat="46.1511270" lon="10.4433280">
	<ele>2416.00</ele>
	<time>2023-08-09T05:16:31.000Z</time>
</trkpt>
<trkpt lat="46.1511310" lon="10.4433320">
	<ele>2416.00</ele>
	<time>2023-08-09T05:16:32.000Z</time>
</trkpt>
<trkpt lat="46.1511330" lon="10.4433340">
	<ele>2416.00</ele>
	<time>2023-08-09T05:16:33.000Z</time>
</trkpt>
<trkpt lat="46.1511310" lon="10.4433410">
	<ele>2416.20</ele>
	<time>2023-08-09T05:16:34.000Z</time>
</trkpt>
<trkpt lat="46.1511250" lon="10.4433470">
	<ele>2416.40</ele>
	<time>2023-08-09T05:16:35.000Z</time>
</trkpt>
<trkpt lat="46.1511200" lon="10.4433460">
	<ele>2416.40</ele>
	<time>2023-08-09T05:16:36.000Z</time>
</trkpt>
<trkpt lat="46.1511170" lon="10.4433470">
	<ele>2416.40</ele>
	<time>2023-08-09T05:16:37.000Z</time>
</trkpt>
<trkpt lat="46.1511140" lon="10.4433470">
	<ele>2416.60</ele>
	<time>2023-08-09T05:16:38.000Z</time>
</trkpt>
<trkpt lat="46.1511130" lon="10.4433500">
	<ele>2416.60</ele>
	<time>2023-08-09T05:16:39.000Z</time>
</trkpt>
<trkpt lat="46.1511130" lon="10.4433530">
	<ele>2416.80</ele>
	<time>2023-08-09T05:16:40.000Z</time>
</trkpt>
<trkpt lat="46.1511130" lon="10.4433560">
	<ele>2416.80</ele>
	<time>2023-08-09T05:16:41.000Z</time>
</trkpt>
<trkpt lat="46.1511120" lon="10.4433590">
	<ele>2417.00</ele>
	<time>2023-08-09T05:16:42.000Z</time>
</trkpt>
<trkpt lat="46.1511100" lon="10.4433640">
	<ele>2417.20</ele>
	<time>2023-08-09T05:16:43.000Z</time>
</trkpt>
<trkpt lat="46.1511080" lon="10.4433670">
	<ele>2417.40</ele>
	<time>2023-08-09T05:16:44.000Z</time>
</trkpt>
<trkpt lat="46.1511070" lon="10.4433710">
	<ele>2417.60</ele>
	<time>2023-08-09T05:16:45.000Z</time>
</trkpt>
<trkpt lat="46.1511070" lon="10.4433800">
	<ele>2417.60</ele>
	<time>2023-08-09T05:16:46.000Z</time>
</trkpt>
<trkpt lat="46.1511070" lon="10.4433880">
	<ele>2417.80</ele>
	<time>2023-08-09T05:16:47.000Z</time>
</trkpt>
<trkpt lat="46.1511090" lon="10.4433930">
	<ele>2418.20</ele>
	<time>2023-08-09T05:16:48.000Z</time>
</trkpt>
<trkpt lat="46.1511090" lon="10.4433970">
	<ele>2418.40</ele>
	<time>2023-08-09T05:16:49.000Z</time>
</trkpt>
<trkpt lat="46.1511100" lon="10.4434020">
	<ele>2418.60</ele>
	<time>2023-08-09T05:16:50.000Z</time>
</trkpt>
<trkpt lat="46.1511100" lon="10.4434050">
	<ele>2418.60</ele>
	<time>2023-08-09T05:16:51.000Z</time>
</trkpt>
<trkpt lat="46.1511120" lon="10.4434110">
	<ele>2418.80</ele>
	<time>2023-08-09T05:16:52.000Z</time>
</trkpt>
<trkpt lat="46.1511130" lon="10.4434140">
	<ele>2418.80</ele>
	<time>2023-08-09T05:16:53.000Z</time>
</trkpt>
<trkpt lat="46.1511160" lon="10.4434210">
	<ele>2418.80</ele>
	<time>2023-08-09T05:16:54.000Z</time>
</trkpt>
<trkpt lat="46.1511100" lon="10.4434250">
	<ele>2419.00</ele>
	<time>2023-08-09T05:16:55.000Z</time>
</trkpt>
<trkpt lat="46.1511060" lon="10.4434290">
	<ele>2419.40</ele>
	<time>2023-08-09T05:16:56.000Z</time>
</trkpt>
<trkpt lat="46.1511060" lon="10.4434320">
	<ele>2419.60</ele>
	<time>2023-08-09T05:16:57.000Z</time>
</trkpt>
<trkpt lat="46.1511060" lon="10.4434360">
	<ele>2419.80</ele>
	<time>2023-08-09T05:16:58.000Z</time>
</trkpt>
<trkpt lat="46.1511060" lon="10.4434380">
	<ele>2419.80</ele>
	<time>2023-08-09T05:16:59.000Z</time>
</trkpt>
<trkpt lat="46.1511080" lon="10.4434420">
	<ele>2420.00</ele>
	<time>2023-08-09T05:17:00.000Z</time>
</trkpt>
<trkpt lat="46.1511080" lon="10.4434440">
	<ele>2420.00</ele>
	<time>2023-08-09T05:17:01.000Z</time>
</trkpt>
<trkpt lat="46.1511060" lon="10.4434470">
	<ele>2420.20</ele>
	<time>2023-08-09T05:17:02.000Z</time>
</trkpt>
<trkpt lat="46.1511080" lon="10.4434500">
	<ele>2420.20</ele>
	<time>2023-08-09T05:17:03.000Z</time>
</trkpt>
<trkpt lat="46.1511110" lon="10.4434570">
	<ele>2420.40</ele>
	<time>2023-08-09T05:17:04.000Z</time>
</trkpt>
<trkpt lat="46.1511100" lon="10.4434630">
	<ele>2420.40</ele>
	<time>2023-08-09T05:17:05.000Z</time>
</trkpt>
<trkpt lat="46.1511080" lon="10.4434670">
	<ele>2420.60</ele>
	<time>2023-08-09T05:17:06.000Z</time>
</trkpt>
<trkpt lat="46.1511080" lon="10.4434710">
	<ele>2420.60</ele>
	<time>2023-08-09T05:17:07.000Z</time>
</trkpt>
<trkpt lat="46.1511070" lon="10.4434750">
	<ele>2420.80</ele>
	<time>2023-08-09T05:17:08.000Z</time>
</trkpt>
<trkpt lat="46.1511030" lon="10.4434750">
	<ele>2421.00</ele>
	<time>2023-08-09T05:17:09.000Z</time>
</trkpt>
<trkpt lat="46.1511020" lon="10.4434750">
	<ele>2421.20</ele>
	<time>2023-08-09T05:17:10.000Z</time>
</trkpt>
<trkpt lat="46.1511040" lon="10.4434780">
	<ele>2421.40</ele>
	<time>2023-08-09T05:17:11.000Z</time>
</trkpt>
<trkpt lat="46.1511010" lon="10.4434760">
	<ele>2421.60</ele>
	<time>2023-08-09T05:17:12.000Z</time>
</trkpt>
<trkpt lat="46.1511000" lon="10.4434780">
	<ele>2421.60</ele>
	<time>2023-08-09T05:17:13.000Z</time>
</trkpt>
<trkpt lat="46.1511000" lon="10.4434790">
	<ele>2421.80</ele>
	<time>2023-08-09T05:17:14.000Z</time>
</trkpt>
<trkpt lat="46.1511010" lon="10.4434840">
	<ele>2422.00</ele>
	<time>2023-08-09T05:17:15.000Z</time>
</trkpt>
<trkpt lat="46.1511000" lon="10.4434880">
	<ele>2422.00</ele>
	<time>2023-08-09T05:17:16.000Z</time>
</trkpt>
<trkpt lat="46.1511010" lon="10.4434890">
	<ele>2422.20</ele>
	<time>2023-08-09T05:17:17.000Z</time>
</trkpt>
<trkpt lat="46.1511010" lon="10.4434930">
	<ele>2422.20</ele>
	<time>2023-08-09T05:17:18.000Z</time>
</trkpt>
<trkpt lat="46.1511010" lon="10.4434960">
	<ele>2422.40</ele>
	<time>2023-08-09T05:17:19.000Z</time>
</trkpt>
<trkpt lat="46.1511010" lon="10.4434970">
	<ele>2422.60</ele>
	<time>2023-08-09T05:17:20.000Z</time>
</trkpt>
<trkpt lat="46.1511050" lon="10.4434970">
	<ele>2422.80</ele>
	<time>2023-08-09T05:17:21.000Z</time>
</trkpt>
<trkpt lat="46.1511060" lon="10.4435000">
	<ele>2422.80</ele>
	<time>2023-08-09T05:17:22.000Z</time>
</trkpt>
<trkpt lat="46.1511080" lon="10.4435030">
	<ele>2423.00</ele>
	<time>2023-08-09T05:17:23.000Z</time>
</trkpt>
<trkpt lat="46.1511070" lon="10.4435050">
	<ele>2423.00</ele>
	<time>2023-08-09T05:17:24.000Z</time>
</trkpt>
<trkpt lat="46.1511080" lon="10.4435110">
	<ele>2423.40</ele>
	<time>2023-08-09T05:17:25.000Z</time>
</trkpt>
<trkpt lat="46.1511090" lon="10.4435160">
	<ele>2423.40</ele>
	<time>2023-08-09T05:17:26.000Z</time>
</trkpt>
<trkpt lat="46.1511070" lon="10.4435180">
	<ele>2423.60</ele>
	<time>2023-08-09T05:17:27.000Z</time>
</trkpt>
<trkpt lat="46.1511040" lon="10.4435230">
	<ele>2423.80</ele>
	<time>2023-08-09T05:17:28.000Z</time>
</trkpt>
<trkpt lat="46.1511020" lon="10.4435270">
	<ele>2423.80</ele>
	<time>2023-08-09T05:17:29.000Z</time>
</trkpt>
<trkpt lat="46.1511030" lon="10.4435290">
	<ele>2424.00</ele>
	<time>2023-08-09T05:17:30.000Z</time>
</trkpt>
<trkpt lat="46.1511030" lon="10.4435420">
	<ele>2424.40</ele>
	<time>2023-08-09T05:17:31.000Z</time>
</trkpt>
<trkpt lat="46.1511050" lon="10.4435520">
	<ele>2424.60</ele>
	<time>2023-08-09T05:17:32.000Z</time>
</trkpt>
<trkpt lat="46.1511060" lon="10.4435610">
	<ele>2424.60</ele>
	<time>2023-08-09T05:17:33.000Z</time>
</trkpt>
<trkpt lat="46.1511040" lon="10.4435690">
	<ele>2424.80</ele>
	<time>2023-08-09T05:17:34.000Z</time>
</trkpt>
<trkpt lat="46.1511020" lon="10.4435760">
	<ele>2425.00</ele>
	<time>2023-08-09T05:17:35.000Z</time>
</trkpt>
<trkpt lat="46.1510970" lon="10.4435830">
	<ele>2425.00</ele>
	<time>2023-08-09T05:17:36.000Z</time>
</trkpt>
<trkpt lat="46.1510890" lon="10.4435850">
	<ele>2425.20</ele>
	<time>2023-08-09T05:17:37.000Z</time>
</trkpt>
<trkpt lat="46.1510830" lon="10.4435880">
	<ele>2425.20</ele>
	<time>2023-08-09T05:17:38.000Z</time>
</trkpt>
<trkpt lat="46.1510800" lon="10.4435960">
	<ele>2425.40</ele>
	<time>2023-08-09T05:17:39.000Z</time>
</trkpt>
<trkpt lat="46.1510740" lon="10.4436030">
	<ele>2425.40</ele>
	<time>2023-08-09T05:17:40.000Z</time>
</trkpt>
<trkpt lat="46.1510720" lon="10.4436120">
	<ele>2425.60</ele>
	<time>2023-08-09T05:17:41.000Z</time>
</trkpt>
<trkpt lat="46.1510690" lon="10.4436230">
	<ele>2425.60</ele>
	<time>2023-08-09T05:17:42.000Z</time>
</trkpt>
<trkpt lat="46.1510650" lon="10.4436300">
	<ele>2426.00</ele>
	<time>2023-08-09T05:17:43.000Z</time>
</trkpt>
<trkpt lat="46.1510600" lon="10.4436340">
	<ele>2426.20</ele>
	<time>2023-08-09T05:17:44.000Z</time>
</trkpt>
<trkpt lat="46.1510570" lon="10.4436370">
	<ele>2426.20</ele>
	<time>2023-08-09T05:17:45.000Z</time>
</trkpt>
<trkpt lat="46.1510560" lon="10.4436380">
	<ele>2426.20</ele>
	<time>2023-08-09T05:17:46.000Z</time>
</trkpt>
<trkpt lat="46.1510550" lon="10.4436370">
	<ele>2426.20</ele>
	<time>2023-08-09T05:17:47.000Z</time>
</trkpt>
<trkpt lat="46.1510530" lon="10.4436360">
	<ele>2426.20</ele>
	<time>2023-08-09T05:17:48.000Z</time>
</trkpt>
<trkpt lat="46.1510530" lon="10.4436380">
	<ele>2426.40</ele>
	<time>2023-08-09T05:17:49.000Z</time>
</trkpt>
<trkpt lat="46.1510550" lon="10.4436400">
	<ele>2426.20</ele>
	<time>2023-08-09T05:17:50.000Z</time>
</trkpt>
<trkpt lat="46.1510550" lon="10.4436410">
	<ele>2426.20</ele>
	<time>2023-08-09T05:17:51.000Z</time>
</trkpt>
<trkpt lat="46.1510550" lon="10.4436410">
	<ele>2426.20</ele>
	<time>2023-08-09T05:17:52.000Z</time>
</trkpt>
<trkpt lat="46.1510560" lon="10.4436410">
	<ele>2426.20</ele>
	<time>2023-08-09T05:17:53.000Z</time>
</trkpt>
<trkpt lat="46.1510570" lon="10.4436420">
	<ele>2426.20</ele>
	<time>2023-08-09T05:17:54.000Z</time>
</trkpt>
<trkpt lat="46.1510590" lon="10.4436440">
	<ele>2426.20</ele>
	<time>2023-08-09T05:17:55.000Z</time>
</trkpt>
<trkpt lat="46.1510590" lon="10.4436430">
	<ele>2426.20</ele>
	<time>2023-08-09T05:17:56.000Z</time>
</trkpt>
<trkpt lat="46.1510580" lon="10.4436440">
	<ele>2426.20</ele>
	<time>2023-08-09T05:17:57.000Z</time>
</trkpt>
<trkpt lat="46.1510580" lon="10.4436440">
	<ele>2426.20</ele>
	<time>2023-08-09T05:17:58.000Z</time>
</trkpt>
<trkpt lat="46.1510580" lon="10.4436440">
	<ele>2426.20</ele>
	<time>2023-08-09T05:17:59.000Z</time>
</trkpt>
<trkpt lat="46.1510580" lon="10.4436440">
	<ele>2426.20</ele>
	<time>2023-08-09T05:18:00.000Z</time>
</trkpt>
<trkpt lat="46.1510580" lon="10.4436440">
	<ele>2426.20</ele>
	<time>2023-08-09T05:18:01.000Z</time>
</trkpt>
<trkpt lat="46.1510580" lon="10.4436440">
	<ele>2426.20</ele>
	<time>2023-08-09T05:18:02.000Z</time>
</trkpt>
<trkpt lat="46.1510580" lon="10.4436440">
	<ele>2426.20</ele>
	<time>2023-08-09T05:18:03.000Z</time>
</trkpt>
<trkpt lat="46.1510580" lon="10.4436440">
	<ele>2426.60</ele>
	<time>2023-08-09T05:18:04.000Z</time>
</trkpt>
<trkpt lat="46.1510580" lon="10.4436440">
	<ele>2426.80</ele>
	<time>2023-08-09T05:18:05.000Z</time>
</trkpt>
<trkpt lat="46.1510580" lon="10.4436440">
	<ele>2427.00</ele>
	<time>2023-08-09T05:18:06.000Z</time>
</trkpt>
<trkpt lat="46.1510580" lon="10.4436430">
	<ele>2427.00</ele>
	<time>2023-08-09T05:18:07.000Z</time>
</trkpt>
<trkpt lat="46.1510580" lon="10.4436430">
	<ele>2427.00</ele>
	<time>2023-08-09T05:18:08.000Z</time>
</trkpt>
<trkpt lat="46.1510580" lon="10.4436430">
	<ele>2427.00</ele>
	<time>2023-08-09T05:18:09.000Z</time>
</trkpt>
<trkpt lat="46.1510580" lon="10.4436420">
	<ele>2427.00</ele>
	<time>2023-08-09T05:18:10.000Z</time>
</trkpt>
<trkpt lat="46.1510580" lon="10.4436420">
	<ele>2427.00</ele>
	<time>2023-08-09T05:18:11.000Z</time>
</trkpt>
<trkpt lat="46.1510580" lon="10.4436410">
	<ele>2426.80</ele>
	<time>2023-08-09T05:18:12.000Z</time>
</trkpt>
<trkpt lat="46.1510570" lon="10.4436410">
	<ele>2426.60</ele>
	<time>2023-08-09T05:18:13.000Z</time>
</trkpt>
<trkpt lat="46.1510560" lon="10.4436410">
	<ele>2426.60</ele>
	<time>2023-08-09T05:18:14.000Z</time>
</trkpt>
<trkpt lat="46.1510560" lon="10.4436410">
	<ele>2426.40</ele>
	<time>2023-08-09T05:18:15.000Z</time>
</trkpt>
<trkpt lat="46.1510550" lon="10.4436410">
	<ele>2426.40</ele>
	<time>2023-08-09T05:18:16.000Z</time>
</trkpt>
<trkpt lat="46.1510550" lon="10.4436410">
	<ele>2426.20</ele>
	<time>2023-08-09T05:18:17.000Z</time>
</trkpt>
<trkpt lat="46.1510550" lon="10.4436410">
	<ele>2426.40</ele>
	<time>2023-08-09T05:18:18.000Z</time>
</trkpt>
<trkpt lat="46.1510550" lon="10.4436410">
	<ele>2426.40</ele>
	<time>2023-08-09T05:18:19.000Z</time>
</trkpt>
<trkpt lat="46.1510550" lon="10.4436410">
	<ele>2426.40</ele>
	<time>2023-08-09T05:18:20.000Z</time>
</trkpt>
<trkpt lat="46.1510550" lon="10.4436410">
	<ele>2426.60</ele>
	<time>2023-08-09T05:18:21.000Z</time>
</trkpt>
<trkpt lat="46.1510550" lon="10.4436400">
	<ele>2426.60</ele>
	<time>2023-08-09T05:18:22.000Z</time>
</trkpt>
<trkpt lat="46.1510550" lon="10.4436400">
	<ele>2426.60</ele>
	<time>2023-08-09T05:18:23.000Z</time>
</trkpt>
<trkpt lat="46.1510550" lon="10.4436400">
	<ele>2426.80</ele>
	<time>2023-08-09T05:18:24.000Z</time>
</trkpt>
<trkpt lat="46.1510540" lon="10.4436400">
	<ele>2427.20</ele>
	<time>2023-08-09T05:18:25.000Z</time>
</trkpt>
<trkpt lat="46.1510540" lon="10.4436400">
	<ele>2427.20</ele>
	<time>2023-08-09T05:18:26.000Z</time>
</trkpt>
<trkpt lat="46.1510530" lon="10.4436400">
	<ele>2427.40</ele>
	<time>2023-08-09T05:18:27.000Z</time>
</trkpt>
<trkpt lat="46.1510530" lon="10.4436400">
	<ele>2427.60</ele>
	<time>2023-08-09T05:18:28.000Z</time>
</trkpt>
<trkpt lat="46.1510530" lon="10.4436400">
	<ele>2427.60</ele>
	<time>2023-08-09T05:18:29.000Z</time>
</trkpt>
<trkpt lat="46.1510530" lon="10.4436400">
	<ele>2427.80</ele>
	<time>2023-08-09T05:18:30.000Z</time>
</trkpt>
<trkpt lat="46.1510530" lon="10.4436400">
	<ele>2427.80</ele>
	<time>2023-08-09T05:18:31.000Z</time>
</trkpt>
<trkpt lat="46.1510520" lon="10.4436400">
	<ele>2428.00</ele>
	<time>2023-08-09T05:18:32.000Z</time>
</trkpt>
<trkpt lat="46.1510520" lon="10.4436400">
	<ele>2428.00</ele>
	<time>2023-08-09T05:18:33.000Z</time>
</trkpt>
<trkpt lat="46.1510520" lon="10.4436400">
	<ele>2428.00</ele>
	<time>2023-08-09T05:18:34.000Z</time>
</trkpt>
<trkpt lat="46.1510520" lon="10.4436400">
	<ele>2428.00</ele>
	<time>2023-08-09T05:18:35.000Z</time>
</trkpt>
<trkpt lat="46.1510500" lon="10.4436400">
	<ele>2428.20</ele>
	<time>2023-08-09T05:18:36.000Z</time>
</trkpt>
<trkpt lat="46.1510490" lon="10.4436400">
	<ele>2428.40</ele>
	<time>2023-08-09T05:18:37.000Z</time>
</trkpt>
<trkpt lat="46.1510490" lon="10.4436420">
	<ele>2428.40</ele>
	<time>2023-08-09T05:18:38.000Z</time>
</trkpt>
<trkpt lat="46.1510480" lon="10.4436470">
	<ele>2428.60</ele>
	<time>2023-08-09T05:18:39.000Z</time>
</trkpt>
<trkpt lat="46.1510480" lon="10.4436510">
	<ele>2428.80</ele>
	<time>2023-08-09T05:18:40.000Z</time>
</trkpt>
<trkpt lat="46.1510480" lon="10.4436550">
	<ele>2428.80</ele>
	<time>2023-08-09T05:18:41.000Z</time>
</trkpt>
<trkpt lat="46.1510480" lon="10.4436580">
	<ele>2429.00</ele>
	<time>2023-08-09T05:18:42.000Z</time>
</trkpt>
<trkpt lat="46.1510480" lon="10.4436620">
	<ele>2429.00</ele>
	<time>2023-08-09T05:18:43.000Z</time>
</trkpt>
<trkpt lat="46.1510490" lon="10.4436750">
	<ele>2429.00</ele>
	<time>2023-08-09T05:18:44.000Z</time>
</trkpt>
<trkpt lat="46.1510500" lon="10.4436980">
	<ele>2429.20</ele>
	<time>2023-08-09T05:18:45.000Z</time>
</trkpt>
<trkpt lat="46.1510490" lon="10.4437180">
	<ele>2429.40</ele>
	<time>2023-08-09T05:18:46.000Z</time>
</trkpt>
<trkpt lat="46.1510480" lon="10.4437360">
	<ele>2429.60</ele>
	<time>2023-08-09T05:18:47.000Z</time>
</trkpt>
<trkpt lat="46.1510460" lon="10.4437560">
	<ele>2429.80</ele>
	<time>2023-08-09T05:18:48.000Z</time>
</trkpt>
<trkpt lat="46.1510440" lon="10.4437720">
	<ele>2429.80</ele>
	<time>2023-08-09T05:18:49.000Z</time>
</trkpt>
<trkpt lat="46.1510440" lon="10.4437910">
	<ele>2430.00</ele>
	<time>2023-08-09T05:18:50.000Z</time>
</trkpt>
<trkpt lat="46.1510470" lon="10.4438170">
	<ele>2430.00</ele>
	<time>2023-08-09T05:18:51.000Z</time>
</trkpt>
<trkpt lat="46.1510490" lon="10.4438400">
	<ele>2430.20</ele>
	<time>2023-08-09T05:18:52.000Z</time>
</trkpt>
<trkpt lat="46.1510510" lon="10.4438640">
	<ele>2430.20</ele>
	<time>2023-08-09T05:18:53.000Z</time>
</trkpt>
<trkpt lat="46.1510510" lon="10.4438730">
	<ele>2430.20</ele>
	<time>2023-08-09T05:18:54.000Z</time>
</trkpt>
<trkpt lat="46.1510490" lon="10.4438810">
	<ele>2430.20</ele>
	<time>2023-08-09T05:18:55.000Z</time>
</trkpt>
<trkpt lat="46.1510490" lon="10.4438940">
	<ele>2430.40</ele>
	<time>2023-08-09T05:18:56.000Z</time>
</trkpt>
<trkpt lat="46.1510470" lon="10.4439000">
	<ele>2430.40</ele>
	<time>2023-08-09T05:18:57.000Z</time>
</trkpt>
<trkpt lat="46.1510510" lon="10.4439140">
	<ele>2430.60</ele>
	<time>2023-08-09T05:18:58.000Z</time>
</trkpt>
<trkpt lat="46.1510500" lon="10.4439230">
	<ele>2430.60</ele>
	<time>2023-08-09T05:18:59.000Z</time>
</trkpt>
<trkpt lat="46.1510520" lon="10.4439280">
	<ele>2431.00</ele>
	<time>2023-08-09T05:19:00.000Z</time>
</trkpt>
<trkpt lat="46.1510560" lon="10.4439320">
	<ele>2431.20</ele>
	<time>2023-08-09T05:19:01.000Z</time>
</trkpt>
<trkpt lat="46.1510580" lon="10.4439390">
	<ele>2431.40</ele>
	<time>2023-08-09T05:19:02.000Z</time>
</trkpt>
<trkpt lat="46.1510560" lon="10.4439470">
	<ele>2431.60</ele>
	<time>2023-08-09T05:19:03.000Z</time>
</trkpt>
<trkpt lat="46.1510520" lon="10.4439560">
	<ele>2431.60</ele>
	<time>2023-08-09T05:19:04.000Z</time>
</trkpt>
<trkpt lat="46.1510470" lon="10.4439620">
	<ele>2431.80</ele>
	<time>2023-08-09T05:19:05.000Z</time>
</trkpt>
<trkpt lat="46.1510470" lon="10.4439680">
	<ele>2431.80</ele>
	<time>2023-08-09T05:19:06.000Z</time>
</trkpt>
<trkpt lat="46.1510470" lon="10.4439750">
	<ele>2432.00</ele>
	<time>2023-08-09T05:19:07.000Z</time>
</trkpt>
<trkpt lat="46.1510460" lon="10.4439780">
	<ele>2432.00</ele>
	<time>2023-08-09T05:19:08.000Z</time>
</trkpt>
<trkpt lat="46.1510470" lon="10.4439890">
	<ele>2432.00</ele>
	<time>2023-08-09T05:19:09.000Z</time>
</trkpt>
<trkpt lat="46.1510460" lon="10.4439990">
	<ele>2432.20</ele>
	<time>2023-08-09T05:19:10.000Z</time>
</trkpt>
<trkpt lat="46.1510430" lon="10.4440060">
	<ele>2432.40</ele>
	<time>2023-08-09T05:19:11.000Z</time>
</trkpt>
<trkpt lat="46.1510430" lon="10.4440130">
	<ele>2432.40</ele>
	<time>2023-08-09T05:19:12.000Z</time>
</trkpt>
<trkpt lat="46.1510380" lon="10.4440160">
	<ele>2432.60</ele>
	<time>2023-08-09T05:19:13.000Z</time>
</trkpt>
<trkpt lat="46.1510350" lon="10.4440280">
	<ele>2432.60</ele>
	<time>2023-08-09T05:19:14.000Z</time>
</trkpt>
<trkpt lat="46.1510330" lon="10.4440350">
	<ele>2432.80</ele>
	<time>2023-08-09T05:19:15.000Z</time>
</trkpt>
<trkpt lat="46.1510320" lon="10.4440420">
	<ele>2432.80</ele>
	<time>2023-08-09T05:19:16.000Z</time>
</trkpt>
<trkpt lat="46.1510360" lon="10.4440520">
	<ele>2432.80</ele>
	<time>2023-08-09T05:19:17.000Z</time>
</trkpt>
<trkpt lat="46.1510370" lon="10.4440590">
	<ele>2433.00</ele>
	<time>2023-08-09T05:19:18.000Z</time>
</trkpt>
<trkpt lat="46.1510360" lon="10.4440630">
	<ele>2433.00</ele>
	<time>2023-08-09T05:19:19.000Z</time>
</trkpt>
<trkpt lat="46.1510380" lon="10.4440700">
	<ele>2433.00</ele>
	<time>2023-08-09T05:19:20.000Z</time>
</trkpt>
<trkpt lat="46.1510410" lon="10.4440810">
	<ele>2433.00</ele>
	<time>2023-08-09T05:19:21.000Z</time>
</trkpt>
<trkpt lat="46.1510420" lon="10.4440920">
	<ele>2433.00</ele>
	<time>2023-08-09T05:19:22.000Z</time>
</trkpt>
<trkpt lat="46.1510450" lon="10.4441010">
	<ele>2433.00</ele>
	<time>2023-08-09T05:19:23.000Z</time>
</trkpt>
<trkpt lat="46.1510470" lon="10.4441110">
	<ele>2433.00</ele>
	<time>2023-08-09T05:19:24.000Z</time>
</trkpt>
<trkpt lat="46.1510440" lon="10.4441230">
	<ele>2433.00</ele>
	<time>2023-08-09T05:19:25.000Z</time>
</trkpt>
<trkpt lat="46.1510420" lon="10.4441280">
	<ele>2433.40</ele>
	<time>2023-08-09T05:19:26.000Z</time>
</trkpt>
<trkpt lat="46.1510400" lon="10.4441350">
	<ele>2433.60</ele>
	<time>2023-08-09T05:19:27.000Z</time>
</trkpt>
<trkpt lat="46.1510360" lon="10.4441450">
	<ele>2433.80</ele>
	<time>2023-08-09T05:19:28.000Z</time>
</trkpt>
<trkpt lat="46.1510330" lon="10.4441520">
	<ele>2434.00</ele>
	<time>2023-08-09T05:19:29.000Z</time>
</trkpt>
<trkpt lat="46.1510290" lon="10.4441550">
	<ele>2434.20</ele>
	<time>2023-08-09T05:19:30.000Z</time>
</trkpt>
<trkpt lat="46.1510280" lon="10.4441600">
	<ele>2434.40</ele>
	<time>2023-08-09T05:19:31.000Z</time>
</trkpt>
<trkpt lat="46.1510260" lon="10.4441710">
	<ele>2434.60</ele>
	<time>2023-08-09T05:19:32.000Z</time>
</trkpt>
<trkpt lat="46.1510270" lon="10.4441810">
	<ele>2434.60</ele>
	<time>2023-08-09T05:19:33.000Z</time>
</trkpt>
<trkpt lat="46.1510290" lon="10.4441890">
	<ele>2434.80</ele>
	<time>2023-08-09T05:19:34.000Z</time>
</trkpt>
<trkpt lat="46.1510280" lon="10.4441980">
	<ele>2434.80</ele>
	<time>2023-08-09T05:19:35.000Z</time>
</trkpt>
<trkpt lat="46.1510230" lon="10.4442080">
	<ele>2435.00</ele>
	<time>2023-08-09T05:19:36.000Z</time>
</trkpt>
<trkpt lat="46.1510220" lon="10.4442140">
	<ele>2435.20</ele>
	<time>2023-08-09T05:19:37.000Z</time>
</trkpt>
<trkpt lat="46.1510170" lon="10.4442200">
	<ele>2435.20</ele>
	<time>2023-08-09T05:19:38.000Z</time>
</trkpt>
<trkpt lat="46.1510130" lon="10.4442280">
	<ele>2435.40</ele>
	<time>2023-08-09T05:19:39.000Z</time>
</trkpt>
<trkpt lat="46.1510100" lon="10.4442320">
	<ele>2435.60</ele>
	<time>2023-08-09T05:19:40.000Z</time>
</trkpt>
<trkpt lat="46.1510060" lon="10.4442400">
	<ele>2435.60</ele>
	<time>2023-08-09T05:19:41.000Z</time>
</trkpt>
<trkpt lat="46.1510040" lon="10.4442470">
	<ele>2435.80</ele>
	<time>2023-08-09T05:19:42.000Z</time>
</trkpt>
<trkpt lat="46.1510010" lon="10.4442550">
	<ele>2435.80</ele>
	<time>2023-08-09T05:19:43.000Z</time>
</trkpt>
<trkpt lat="46.1509970" lon="10.4442600">
	<ele>2435.80</ele>
	<time>2023-08-09T05:19:44.000Z</time>
</trkpt>
<trkpt lat="46.1509940" lon="10.4442660">
	<ele>2435.80</ele>
	<time>2023-08-09T05:19:45.000Z</time>
</trkpt>
<trkpt lat="46.1509930" lon="10.4442730">
	<ele>2436.00</ele>
	<time>2023-08-09T05:19:46.000Z</time>
</trkpt>
<trkpt lat="46.1509920" lon="10.4442790">
	<ele>2436.00</ele>
	<time>2023-08-09T05:19:47.000Z</time>
</trkpt>
<trkpt lat="46.1509910" lon="10.4442860">
	<ele>2436.00</ele>
	<time>2023-08-09T05:19:48.000Z</time>
</trkpt>
<trkpt lat="46.1509900" lon="10.4442950">
	<ele>2436.00</ele>
	<time>2023-08-09T05:19:49.000Z</time>
</trkpt>
<trkpt lat="46.1509920" lon="10.4443020">
	<ele>2436.20</ele>
	<time>2023-08-09T05:19:50.000Z</time>
</trkpt>
<trkpt lat="46.1509960" lon="10.4443110">
	<ele>2436.40</ele>
	<time>2023-08-09T05:19:51.000Z</time>
</trkpt>
<trkpt lat="46.1509970" lon="10.4443190">
	<ele>2436.40</ele>
	<time>2023-08-09T05:19:52.000Z</time>
</trkpt>
<trkpt lat="46.1509980" lon="10.4443240">
	<ele>2436.60</ele>
	<time>2023-08-09T05:19:53.000Z</time>
</trkpt>
<trkpt lat="46.1509970" lon="10.4443290">
	<ele>2436.60</ele>
	<time>2023-08-09T05:19:54.000Z</time>
</trkpt>
<trkpt lat="46.1509960" lon="10.4443380">
	<ele>2436.80</ele>
	<time>2023-08-09T05:19:55.000Z</time>
</trkpt>
<trkpt lat="46.1509950" lon="10.4443470">
	<ele>2436.80</ele>
	<time>2023-08-09T05:19:56.000Z</time>
</trkpt>
<trkpt lat="46.1509930" lon="10.4443530">
	<ele>2437.20</ele>
	<time>2023-08-09T05:19:57.000Z</time>
</trkpt>
<trkpt lat="46.1509900" lon="10.4443600">
	<ele>2437.40</ele>
	<time>2023-08-09T05:19:58.000Z</time>
</trkpt>
<trkpt lat="46.1509870" lon="10.4443630">
	<ele>2437.60</ele>
	<time>2023-08-09T05:19:59.000Z</time>
</trkpt>
<trkpt lat="46.1509860" lon="10.4443690">
	<ele>2437.80</ele>
	<time>2023-08-09T05:20:00.000Z</time>
</trkpt>
<trkpt lat="46.1509870" lon="10.4443790">
	<ele>2437.80</ele>
	<time>2023-08-09T05:20:01.000Z</time>
</trkpt>
<trkpt lat="46.1509870" lon="10.4443860">
	<ele>2437.80</ele>
	<time>2023-08-09T05:20:02.000Z</time>
</trkpt>
<trkpt lat="46.1509880" lon="10.4443930">
	<ele>2437.80</ele>
	<time>2023-08-09T05:20:03.000Z</time>
</trkpt>
<trkpt lat="46.1509840" lon="10.4443970">
	<ele>2437.80</ele>
	<time>2023-08-09T05:20:04.000Z</time>
</trkpt>
<trkpt lat="46.1509840" lon="10.4443990">
	<ele>2437.80</ele>
	<time>2023-08-09T05:20:05.000Z</time>
</trkpt>
<trkpt lat="46.1509850" lon="10.4444000">
	<ele>2437.60</ele>
	<time>2023-08-09T05:20:06.000Z</time>
</trkpt>
<trkpt lat="46.1509880" lon="10.4444010">
	<ele>2437.60</ele>
	<time>2023-08-09T05:20:07.000Z</time>
</trkpt>
<trkpt lat="46.1509910" lon="10.4443980">
	<ele>2437.60</ele>
	<time>2023-08-09T05:20:08.000Z</time>
</trkpt>
<trkpt lat="46.1509940" lon="10.4443950">
	<ele>2437.60</ele>
	<time>2023-08-09T05:20:09.000Z</time>
</trkpt>
<trkpt lat="46.1509970" lon="10.4443950">
	<ele>2437.60</ele>
	<time>2023-08-09T05:20:10.000Z</time>
</trkpt>
<trkpt lat="46.1509990" lon="10.4443960">
	<ele>2437.60</ele>
	<time>2023-08-09T05:20:11.000Z</time>
</trkpt>
<trkpt lat="46.1510010" lon="10.4443980">
	<ele>2437.60</ele>
	<time>2023-08-09T05:20:12.000Z</time>
</trkpt>
<trkpt lat="46.1510040" lon="10.4444000">
	<ele>2437.60</ele>
	<time>2023-08-09T05:20:13.000Z</time>
</trkpt>
<trkpt lat="46.1510050" lon="10.4444010">
	<ele>2437.60</ele>
	<time>2023-08-09T05:20:14.000Z</time>
</trkpt>
<trkpt lat="46.1510070" lon="10.4444040">
	<ele>2437.80</ele>
	<time>2023-08-09T05:20:15.000Z</time>
</trkpt>
<trkpt lat="46.1510080" lon="10.4444050">
	<ele>2437.80</ele>
	<time>2023-08-09T05:20:16.000Z</time>
</trkpt>
<trkpt lat="46.1510100" lon="10.4444060">
	<ele>2438.00</ele>
	<time>2023-08-09T05:20:17.000Z</time>
</trkpt>
<trkpt lat="46.1510100" lon="10.4444060">
	<ele>2438.00</ele>
	<time>2023-08-09T05:20:18.000Z</time>
</trkpt>
<trkpt lat="46.1510100" lon="10.4444060">
	<ele>2438.00</ele>
	<time>2023-08-09T05:20:19.000Z</time>
</trkpt>
<trkpt lat="46.1510100" lon="10.4444060">
	<ele>2438.00</ele>
	<time>2023-08-09T05:20:20.000Z</time>
</trkpt>
<trkpt lat="46.1510100" lon="10.4444060">
	<ele>2438.00</ele>
	<time>2023-08-09T05:20:21.000Z</time>
</trkpt>
<trkpt lat="46.1510100" lon="10.4444060">
	<ele>2438.00</ele>
	<time>2023-08-09T05:20:22.000Z</time>
</trkpt>
<trkpt lat="46.1510100" lon="10.4444060">
	<ele>2438.00</ele>
	<time>2023-08-09T05:20:23.000Z</time>
</trkpt>
<trkpt lat="46.1510100" lon="10.4444060">
	<ele>2438.00</ele>
	<time>2023-08-09T05:20:24.000Z</time>
</trkpt>
<trkpt lat="46.1510100" lon="10.4444060">
	<ele>2438.00</ele>
	<time>2023-08-09T05:20:25.000Z</time>
</trkpt>
<trkpt lat="46.1510100" lon="10.4444060">
	<ele>2438.00</ele>
	<time>2023-08-09T05:20:26.000Z</time>
</trkpt>
<trkpt lat="46.1510100" lon="10.4444060">
	<ele>2438.20</ele>
	<time>2023-08-09T05:20:27.000Z</time>
</trkpt>
<trkpt lat="46.1510130" lon="10.4444100">
	<ele>2438.20</ele>
	<time>2023-08-09T05:20:28.000Z</time>
</trkpt>
<trkpt lat="46.1510180" lon="10.4444220">
	<ele>2438.40</ele>
	<time>2023-08-09T05:20:29.000Z</time>
</trkpt>
<trkpt lat="46.1510220" lon="10.4444360">
	<ele>2438.40</ele>
	<time>2023-08-09T05:20:30.000Z</time>
</trkpt>
<trkpt lat="46.1510260" lon="10.4444460">
	<ele>2438.40</ele>
	<time>2023-08-09T05:20:31.000Z</time>
</trkpt>
<trkpt lat="46.1510270" lon="10.4444540">
	<ele>2438.60</ele>
	<time>2023-08-09T05:20:32.000Z</time>
</trkpt>
<trkpt lat="46.1510290" lon="10.4444620">
	<ele>2438.40</ele>
	<time>2023-08-09T05:20:33.000Z</time>
</trkpt>
<trkpt lat="46.1510330" lon="10.4444690">
	<ele>2438.40</ele>
	<time>2023-08-09T05:20:34.000Z</time>
</trkpt>
<trkpt lat="46.1510400" lon="10.4444800">
	<ele>2438.60</ele>
	<time>2023-08-09T05:20:35.000Z</time>
</trkpt>
<trkpt lat="46.1510470" lon="10.4444890">
	<ele>2438.60</ele>
	<time>2023-08-09T05:20:36.000Z</time>
</trkpt>
<trkpt lat="46.1510540" lon="10.4445010">
	<ele>2438.60</ele>
	<time>2023-08-09T05:20:37.000Z</time>
</trkpt>
<trkpt lat="46.1510610" lon="10.4445040">
	<ele>2438.60</ele>
	<time>2023-08-09T05:20:38.000Z</time>
</trkpt>
<trkpt lat="46.1510670" lon="10.4445060">
	<ele>2438.80</ele>
	<time>2023-08-09T05:20:39.000Z</time>
</trkpt>
<trkpt lat="46.1510720" lon="10.4445070">
	<ele>2438.80</ele>
	<time>2023-08-09T05:20:40.000Z</time>
</trkpt>
<trkpt lat="46.1510760" lon="10.4445060">
	<ele>2438.80</ele>
	<time>2023-08-09T05:20:41.000Z</time>
</trkpt>
<trkpt lat="46.1510810" lon="10.4445050">
	<ele>2438.80</ele>
	<time>2023-08-09T05:20:42.000Z</time>
</trkpt>
<trkpt lat="46.1510880" lon="10.4445090">
	<ele>2438.80</ele>
	<time>2023-08-09T05:20:43.000Z</time>
</trkpt>
<trkpt lat="46.1510930" lon="10.4445150">
	<ele>2439.00</ele>
	<time>2023-08-09T05:20:44.000Z</time>
</trkpt>
<trkpt lat="46.1510980" lon="10.4445180">
	<ele>2439.00</ele>
	<time>2023-08-09T05:20:45.000Z</time>
</trkpt>
<trkpt lat="46.1511010" lon="10.4445230">
	<ele>2439.20</ele>
	<time>2023-08-09T05:20:46.000Z</time>
</trkpt>
<trkpt lat="46.1511040" lon="10.4445300">
	<ele>2439.40</ele>
	<time>2023-08-09T05:20:47.000Z</time>
</trkpt>
<trkpt lat="46.1511070" lon="10.4445330">
	<ele>2439.40</ele>
	<time>2023-08-09T05:20:48.000Z</time>
</trkpt>
<trkpt lat="46.1511100" lon="10.4445410">
	<ele>2439.60</ele>
	<time>2023-08-09T05:20:49.000Z</time>
</trkpt>
<trkpt lat="46.1511130" lon="10.4445480">
	<ele>2439.60</ele>
	<time>2023-08-09T05:20:50.000Z</time>
</trkpt>
<trkpt lat="46.1511130" lon="10.4445540">
	<ele>2439.60</ele>
	<time>2023-08-09T05:20:51.000Z</time>
</trkpt>
<trkpt lat="46.1511130" lon="10.4445630">
	<ele>2439.80</ele>
	<time>2023-08-09T05:20:52.000Z</time>
</trkpt>
<trkpt lat="46.1511110" lon="10.4445680">
	<ele>2440.00</ele>
	<time>2023-08-09T05:20:53.000Z</time>
</trkpt>
<trkpt lat="46.1511100" lon="10.4445760">
	<ele>2440.00</ele>
	<time>2023-08-09T05:20:54.000Z</time>
</trkpt>
<trkpt lat="46.1511070" lon="10.4445770">
	<ele>2440.20</ele>
	<time>2023-08-09T05:20:55.000Z</time>
</trkpt>
<trkpt lat="46.1511070" lon="10.4445850">
	<ele>2440.40</ele>
	<time>2023-08-09T05:20:56.000Z</time>
</trkpt>
<trkpt lat="46.1511080" lon="10.4445930">
	<ele>2440.40</ele>
	<time>2023-08-09T05:20:57.000Z</time>
</trkpt>
<trkpt lat="46.1511090" lon="10.4446000">
	<ele>2440.60</ele>
	<time>2023-08-09T05:20:58.000Z</time>
</trkpt>
<trkpt lat="46.1511100" lon="10.4446090">
	<ele>2440.80</ele>
	<time>2023-08-09T05:20:59.000Z</time>
</trkpt>
<trkpt lat="46.1511100" lon="10.4446200">
	<ele>2440.80</ele>
	<time>2023-08-09T05:21:00.000Z</time>
</trkpt>
<trkpt lat="46.1511080" lon="10.4446310">
	<ele>2441.00</ele>
	<time>2023-08-09T05:21:01.000Z</time>
</trkpt>
<trkpt lat="46.1511070" lon="10.4446380">
	<ele>2441.00</ele>
	<time>2023-08-09T05:21:02.000Z</time>
</trkpt>
<trkpt lat="46.1511070" lon="10.4446420">
	<ele>2441.20</ele>
	<time>2023-08-09T05:21:03.000Z</time>
</trkpt>
<trkpt lat="46.1511070" lon="10.4446470">
	<ele>2441.40</ele>
	<time>2023-08-09T05:21:04.000Z</time>
</trkpt>
<trkpt lat="46.1511060" lon="10.4446540">
	<ele>2441.40</ele>
	<time>2023-08-09T05:21:05.000Z</time>
</trkpt>
<trkpt lat="46.1511060" lon="10.4446590">
	<ele>2441.40</ele>
	<time>2023-08-09T05:21:06.000Z</time>
</trkpt>
<trkpt lat="46.1511060" lon="10.4446610">
	<ele>2441.60</ele>
	<time>2023-08-09T05:21:07.000Z</time>
</trkpt>
<trkpt lat="46.1511050" lon="10.4446630">
	<ele>2441.80</ele>
	<time>2023-08-09T05:21:08.000Z</time>
</trkpt>
<trkpt lat="46.1511010" lon="10.4446660">
	<ele>2441.80</ele>
	<time>2023-08-09T05:21:09.000Z</time>
</trkpt>
<trkpt lat="46.1510990" lon="10.4446700">
	<ele>2441.80</ele>
	<time>2023-08-09T05:21:10.000Z</time>
</trkpt>
<trkpt lat="46.1510980" lon="10.4446700">
	<ele>2442.20</ele>
	<time>2023-08-09T05:21:11.000Z</time>
</trkpt>
<trkpt lat="46.1510980" lon="10.4446730">
	<ele>2442.60</ele>
	<time>2023-08-09T05:21:12.000Z</time>
</trkpt>
<trkpt lat="46.1511030" lon="10.4446760">
	<ele>2442.80</ele>
	<time>2023-08-09T05:21:13.000Z</time>
</trkpt>
<trkpt lat="46.1511060" lon="10.4446780">
	<ele>2442.80</ele>
	<time>2023-08-09T05:21:14.000Z</time>
</trkpt>
<trkpt lat="46.1511080" lon="10.4446790">
	<ele>2443.00</ele>
	<time>2023-08-09T05:21:15.000Z</time>
</trkpt>
<trkpt lat="46.1511100" lon="10.4446780">
	<ele>2443.20</ele>
	<time>2023-08-09T05:21:16.000Z</time>
</trkpt>
<trkpt lat="46.1511120" lon="10.4446770">
	<ele>2443.40</ele>
	<time>2023-08-09T05:21:17.000Z</time>
</trkpt>
<trkpt lat="46.1511160" lon="10.4446760">
	<ele>2443.40</ele>
	<time>2023-08-09T05:21:18.000Z</time>
</trkpt>
<trkpt lat="46.1511200" lon="10.4446750">
	<ele>2443.40</ele>
	<time>2023-08-09T05:21:19.000Z</time>
</trkpt>
<trkpt lat="46.1511240" lon="10.4446740">
	<ele>2443.60</ele>
	<time>2023-08-09T05:21:20.000Z</time>
</trkpt>
<trkpt lat="46.1511280" lon="10.4446710">
	<ele>2443.60</ele>
	<time>2023-08-09T05:21:21.000Z</time>
</trkpt>
<trkpt lat="46.1511330" lon="10.4446720">
	<ele>2443.60</ele>
	<time>2023-08-09T05:21:22.000Z</time>
</trkpt>
<trkpt lat="46.1511400" lon="10.4446720">
	<ele>2443.80</ele>
	<time>2023-08-09T05:21:23.000Z</time>
</trkpt>
<trkpt lat="46.1511480" lon="10.4446710">
	<ele>2444.00</ele>
	<time>2023-08-09T05:21:24.000Z</time>
</trkpt>
<trkpt lat="46.1511550" lon="10.4446680">
	<ele>2444.00</ele>
	<time>2023-08-09T05:21:25.000Z</time>
</trkpt>
<trkpt lat="46.1511630" lon="10.4446630">
	<ele>2444.20</ele>
	<time>2023-08-09T05:21:26.000Z</time>
</trkpt>
<trkpt lat="46.1511700" lon="10.4446640">
	<ele>2444.20</ele>
	<time>2023-08-09T05:21:27.000Z</time>
</trkpt>
<trkpt lat="46.1511770" lon="10.4446680">
	<ele>2444.40</ele>
	<time>2023-08-09T05:21:28.000Z</time>
</trkpt>
<trkpt lat="46.1511840" lon="10.4446780">
	<ele>2444.40</ele>
	<time>2023-08-09T05:21:29.000Z</time>
</trkpt>
<trkpt lat="46.1511870" lon="10.4446860">
	<ele>2444.40</ele>
	<time>2023-08-09T05:21:30.000Z</time>
</trkpt>
<trkpt lat="46.1511900" lon="10.4446860">
	<ele>2444.60</ele>
	<time>2023-08-09T05:21:31.000Z</time>
</trkpt>
<trkpt lat="46.1511920" lon="10.4446860">
	<ele>2444.60</ele>
	<time>2023-08-09T05:21:32.000Z</time>
</trkpt>
<trkpt lat="46.1511940" lon="10.4446870">
	<ele>2444.60</ele>
	<time>2023-08-09T05:21:33.000Z</time>
</trkpt>
<trkpt lat="46.1511990" lon="10.4446900">
	<ele>2444.60</ele>
	<time>2023-08-09T05:21:34.000Z</time>
</trkpt>
<trkpt lat="46.1512080" lon="10.4446900">
	<ele>2444.60</ele>
	<time>2023-08-09T05:21:35.000Z</time>
</trkpt>
<trkpt lat="46.1512140" lon="10.4446860">
	<ele>2444.60</ele>
	<time>2023-08-09T05:21:36.000Z</time>
</trkpt>
<trkpt lat="46.1512200" lon="10.4446850">
	<ele>2444.20</ele>
	<time>2023-08-09T05:21:37.000Z</time>
</trkpt>
<trkpt lat="46.1512250" lon="10.4446840">
	<ele>2444.20</ele>
	<time>2023-08-09T05:21:38.000Z</time>
</trkpt>
<trkpt lat="46.1512310" lon="10.4446860">
	<ele>2444.00</ele>
	<time>2023-08-09T05:21:39.000Z</time>
</trkpt>
<trkpt lat="46.1512370" lon="10.4446840">
	<ele>2444.00</ele>
	<time>2023-08-09T05:21:40.000Z</time>
</trkpt>
<trkpt lat="46.1512420" lon="10.4446830">
	<ele>2444.20</ele>
	<time>2023-08-09T05:21:41.000Z</time>
</trkpt>
<trkpt lat="46.1512500" lon="10.4446850">
	<ele>2444.40</ele>
	<time>2023-08-09T05:21:42.000Z</time>
</trkpt>
<trkpt lat="46.1512530" lon="10.4446850">
	<ele>2444.40</ele>
	<time>2023-08-09T05:21:43.000Z</time>
</trkpt>
<trkpt lat="46.1512570" lon="10.4446860">
	<ele>2444.60</ele>
	<time>2023-08-09T05:21:44.000Z</time>
</trkpt>
<trkpt lat="46.1512610" lon="10.4446840">
	<ele>2444.60</ele>
	<time>2023-08-09T05:21:45.000Z</time>
</trkpt>
<trkpt lat="46.1512620" lon="10.4446820">
	<ele>2444.60</ele>
	<time>2023-08-09T05:21:46.000Z</time>
</trkpt>
<trkpt lat="46.1512650" lon="10.4446810">
	<ele>2444.80</ele>
	<time>2023-08-09T05:21:47.000Z</time>
</trkpt>
<trkpt lat="46.1512670" lon="10.4446800">
	<ele>2444.80</ele>
	<time>2023-08-09T05:21:48.000Z</time>
</trkpt>
<trkpt lat="46.1512730" lon="10.4446800">
	<ele>2444.80</ele>
	<time>2023-08-09T05:21:49.000Z</time>
</trkpt>
<trkpt lat="46.1512770" lon="10.4446810">
	<ele>2444.80</ele>
	<time>2023-08-09T05:21:50.000Z</time>
</trkpt>
<trkpt lat="46.1512800" lon="10.4446810">
	<ele>2445.00</ele>
	<time>2023-08-09T05:21:51.000Z</time>
</trkpt>
<trkpt lat="46.1512820" lon="10.4446820">
	<ele>2445.00</ele>
	<time>2023-08-09T05:21:52.000Z</time>
</trkpt>
<trkpt lat="46.1512870" lon="10.4446820">
	<ele>2445.00</ele>
	<time>2023-08-09T05:21:53.000Z</time>
</trkpt>
<trkpt lat="46.1512910" lon="10.4446870">
	<ele>2445.20</ele>
	<time>2023-08-09T05:21:54.000Z</time>
</trkpt>
<trkpt lat="46.1512970" lon="10.4446940">
	<ele>2445.20</ele>
	<time>2023-08-09T05:21:55.000Z</time>
</trkpt>
<trkpt lat="46.1513020" lon="10.4447020">
	<ele>2445.20</ele>
	<time>2023-08-09T05:21:56.000Z</time>
</trkpt>
<trkpt lat="46.1513080" lon="10.4447060">
	<ele>2445.20</ele>
	<time>2023-08-09T05:21:57.000Z</time>
</trkpt>
<trkpt lat="46.1513160" lon="10.4447080">
	<ele>2445.20</ele>
	<time>2023-08-09T05:21:58.000Z</time>
</trkpt>
<trkpt lat="46.1513260" lon="10.4447100">
	<ele>2445.20</ele>
	<time>2023-08-09T05:21:59.000Z</time>
</trkpt>
<trkpt lat="46.1513340" lon="10.4447140">
	<ele>2445.20</ele>
	<time>2023-08-09T05:22:00.000Z</time>
</trkpt>
<trkpt lat="46.1513430" lon="10.4447210">
	<ele>2445.20</ele>
	<time>2023-08-09T05:22:01.000Z</time>
</trkpt>
<trkpt lat="46.1513480" lon="10.4447340">
	<ele>2445.40</ele>
	<time>2023-08-09T05:22:02.000Z</time>
</trkpt>
<trkpt lat="46.1513450" lon="10.4447420">
	<ele>2445.60</ele>
	<time>2023-08-09T05:22:03.000Z</time>
</trkpt>
<trkpt lat="46.1513400" lon="10.4447530">
	<ele>2445.60</ele>
	<time>2023-08-09T05:22:04.000Z</time>
</trkpt>
<trkpt lat="46.1513390" lon="10.4447620">
	<ele>2445.80</ele>
	<time>2023-08-09T05:22:05.000Z</time>
</trkpt>
<trkpt lat="46.1513380" lon="10.4447680">
	<ele>2446.00</ele>
	<time>2023-08-09T05:22:06.000Z</time>
</trkpt>
<trkpt lat="46.1513400" lon="10.4447770">
	<ele>2446.00</ele>
	<time>2023-08-09T05:22:07.000Z</time>
</trkpt>
<trkpt lat="46.1513370" lon="10.4447870">
	<ele>2446.00</ele>
	<time>2023-08-09T05:22:08.000Z</time>
</trkpt>
<trkpt lat="46.1513370" lon="10.4447950">
	<ele>2446.20</ele>
	<time>2023-08-09T05:22:09.000Z</time>
</trkpt>
<trkpt lat="46.1513390" lon="10.4447990">
	<ele>2446.20</ele>
	<time>2023-08-09T05:22:10.000Z</time>
</trkpt>
<trkpt lat="46.1513430" lon="10.4448020">
	<ele>2446.40</ele>
	<time>2023-08-09T05:22:11.000Z</time>
</trkpt>
<trkpt lat="46.1513490" lon="10.4448050">
	<ele>2446.40</ele>
	<time>2023-08-09T05:22:12.000Z</time>
</trkpt>
<trkpt lat="46.1513540" lon="10.4448080">
	<ele>2446.60</ele>
	<time>2023-08-09T05:22:13.000Z</time>
</trkpt>
<trkpt lat="46.1513560" lon="10.4448130">
	<ele>2446.80</ele>
	<time>2023-08-09T05:22:14.000Z</time>
</trkpt>
<trkpt lat="46.1513560" lon="10.4448200">
	<ele>2446.80</ele>
	<time>2023-08-09T05:22:15.000Z</time>
</trkpt>
<trkpt lat="46.1513570" lon="10.4448260">
	<ele>2447.00</ele>
	<time>2023-08-09T05:22:16.000Z</time>
</trkpt>
<trkpt lat="46.1513560" lon="10.4448300">
	<ele>2447.00</ele>
	<time>2023-08-09T05:22:17.000Z</time>
</trkpt>
<trkpt lat="46.1513550" lon="10.4448340">
	<ele>2447.20</ele>
	<time>2023-08-09T05:22:18.000Z</time>
</trkpt>
<trkpt lat="46.1513540" lon="10.4448380">
	<ele>2447.20</ele>
	<time>2023-08-09T05:22:19.000Z</time>
</trkpt>
<trkpt lat="46.1513540" lon="10.4448380">
	<ele>2447.40</ele>
	<time>2023-08-09T05:22:20.000Z</time>
</trkpt>
<trkpt lat="46.1513590" lon="10.4448410">
	<ele>2447.40</ele>
	<time>2023-08-09T05:22:21.000Z</time>
</trkpt>
<trkpt lat="46.1513620" lon="10.4448450">
	<ele>2447.60</ele>
	<time>2023-08-09T05:22:22.000Z</time>
</trkpt>
<trkpt lat="46.1513640" lon="10.4448500">
	<ele>2447.60</ele>
	<time>2023-08-09T05:22:23.000Z</time>
</trkpt>
<trkpt lat="46.1513650" lon="10.4448560">
	<ele>2447.80</ele>
	<time>2023-08-09T05:22:24.000Z</time>
</trkpt>
<trkpt lat="46.1513680" lon="10.4448640">
	<ele>2448.00</ele>
	<time>2023-08-09T05:22:25.000Z</time>
</trkpt>
<trkpt lat="46.1513720" lon="10.4448720">
	<ele>2448.00</ele>
	<time>2023-08-09T05:22:26.000Z</time>
</trkpt>
<trkpt lat="46.1513760" lon="10.4448850">
	<ele>2448.20</ele>
	<time>2023-08-09T05:22:27.000Z</time>
</trkpt>
<trkpt lat="46.1513770" lon="10.4448970">
	<ele>2448.20</ele>
	<time>2023-08-09T05:22:28.000Z</time>
</trkpt>
<trkpt lat="46.1513760" lon="10.4449040">
	<ele>2448.40</ele>
	<time>2023-08-09T05:22:29.000Z</time>
</trkpt>
<trkpt lat="46.1513750" lon="10.4449120">
	<ele>2448.60</ele>
	<time>2023-08-09T05:22:30.000Z</time>
</trkpt>
<trkpt lat="46.1513760" lon="10.4449240">
	<ele>2448.60</ele>
	<time>2023-08-09T05:22:31.000Z</time>
</trkpt>
<trkpt lat="46.1513790" lon="10.4449360">
	<ele>2448.60</ele>
	<time>2023-08-09T05:22:32.000Z</time>
</trkpt>
<trkpt lat="46.1513750" lon="10.4449450">
	<ele>2448.80</ele>
	<time>2023-08-09T05:22:33.000Z</time>
</trkpt>
<trkpt lat="46.1513720" lon="10.4449520">
	<ele>2448.80</ele>
	<time>2023-08-09T05:22:34.000Z</time>
</trkpt>
<trkpt lat="46.1513670" lon="10.4449540">
	<ele>2448.80</ele>
	<time>2023-08-09T05:22:35.000Z</time>
</trkpt>
<trkpt lat="46.1513640" lon="10.4449630">
	<ele>2448.80</ele>
	<time>2023-08-09T05:22:36.000Z</time>
</trkpt>
<trkpt lat="46.1513670" lon="10.4449680">
	<ele>2449.00</ele>
	<time>2023-08-09T05:22:37.000Z</time>
</trkpt>
<trkpt lat="46.1513710" lon="10.4449760">
	<ele>2449.00</ele>
	<time>2023-08-09T05:22:38.000Z</time>
</trkpt>
<trkpt lat="46.1513720" lon="10.4449820">
	<ele>2449.20</ele>
	<time>2023-08-09T05:22:39.000Z</time>
</trkpt>
<trkpt lat="46.1513690" lon="10.4449920">
	<ele>2449.40</ele>
	<time>2023-08-09T05:22:40.000Z</time>
</trkpt>
<trkpt lat="46.1513650" lon="10.4450050">
	<ele>2449.60</ele>
	<time>2023-08-09T05:22:41.000Z</time>
</trkpt>
<trkpt lat="46.1513630" lon="10.4450190">
	<ele>2449.80</ele>
	<time>2023-08-09T05:22:42.000Z</time>
</trkpt>
<trkpt lat="46.1513620" lon="10.4450280">
	<ele>2449.80</ele>
	<time>2023-08-09T05:22:43.000Z</time>
</trkpt>
<trkpt lat="46.1513610" lon="10.4450350">
	<ele>2450.00</ele>
	<time>2023-08-09T05:22:44.000Z</time>
</trkpt>
<trkpt lat="46.1513630" lon="10.4450440">
	<ele>2450.00</ele>
	<time>2023-08-09T05:22:45.000Z</time>
</trkpt>
<trkpt lat="46.1513630" lon="10.4450560">
	<ele>2450.20</ele>
	<time>2023-08-09T05:22:46.000Z</time>
</trkpt>
<trkpt lat="46.1513600" lon="10.4450630">
	<ele>2450.20</ele>
	<time>2023-08-09T05:22:47.000Z</time>
</trkpt>
<trkpt lat="46.1513570" lon="10.4450680">
	<ele>2450.20</ele>
	<time>2023-08-09T05:22:48.000Z</time>
</trkpt>
<trkpt lat="46.1513560" lon="10.4450730">
	<ele>2450.20</ele>
	<time>2023-08-09T05:22:49.000Z</time>
</trkpt>
<trkpt lat="46.1513550" lon="10.4450770">
	<ele>2450.40</ele>
	<time>2023-08-09T05:22:50.000Z</time>
</trkpt>
<trkpt lat="46.1513550" lon="10.4450830">
	<ele>2450.40</ele>
	<time>2023-08-09T05:22:51.000Z</time>
</trkpt>
<trkpt lat="46.1513550" lon="10.4450920">
	<ele>2450.60</ele>
	<time>2023-08-09T05:22:52.000Z</time>
</trkpt>
<trkpt lat="46.1513550" lon="10.4451010">
	<ele>2450.80</ele>
	<time>2023-08-09T05:22:53.000Z</time>
</trkpt>
<trkpt lat="46.1513580" lon="10.4451090">
	<ele>2450.80</ele>
	<time>2023-08-09T05:22:54.000Z</time>
</trkpt>
<trkpt lat="46.1513560" lon="10.4451180">
	<ele>2451.00</ele>
	<time>2023-08-09T05:22:55.000Z</time>
</trkpt>
<trkpt lat="46.1513550" lon="10.4451270">
	<ele>2451.20</ele>
	<time>2023-08-09T05:22:56.000Z</time>
</trkpt>
<trkpt lat="46.1513500" lon="10.4451360">
	<ele>2451.20</ele>
	<time>2023-08-09T05:22:57.000Z</time>
</trkpt>
<trkpt lat="46.1513480" lon="10.4451440">
	<ele>2451.40</ele>
	<time>2023-08-09T05:22:58.000Z</time>
</trkpt>
<trkpt lat="46.1513480" lon="10.4451500">
	<ele>2451.40</ele>
	<time>2023-08-09T05:22:59.000Z</time>
</trkpt>
<trkpt lat="46.1513470" lon="10.4451580">
	<ele>2451.60</ele>
	<time>2023-08-09T05:23:00.000Z</time>
</trkpt>
<trkpt lat="46.1513460" lon="10.4451660">
	<ele>2451.80</ele>
	<time>2023-08-09T05:23:01.000Z</time>
</trkpt>
<trkpt lat="46.1513450" lon="10.4451740">
	<ele>2451.80</ele>
	<time>2023-08-09T05:23:02.000Z</time>
</trkpt>
<trkpt lat="46.1513450" lon="10.4451850">
	<ele>2452.00</ele>
	<time>2023-08-09T05:23:03.000Z</time>
</trkpt>
<trkpt lat="46.1513470" lon="10.4451940">
	<ele>2452.00</ele>
	<time>2023-08-09T05:23:04.000Z</time>
</trkpt>
<trkpt lat="46.1513470" lon="10.4452000">
	<ele>2452.00</ele>
	<time>2023-08-09T05:23:05.000Z</time>
</trkpt>
<trkpt lat="46.1513470" lon="10.4452070">
	<ele>2452.20</ele>
	<time>2023-08-09T05:23:06.000Z</time>
</trkpt>
<trkpt lat="46.1513480" lon="10.4452130">
	<ele>2452.60</ele>
	<time>2023-08-09T05:23:07.000Z</time>
</trkpt>
<trkpt lat="46.1513510" lon="10.4452200">
	<ele>2452.60</ele>
	<time>2023-08-09T05:23:08.000Z</time>
</trkpt>
<trkpt lat="46.1513540" lon="10.4452330">
	<ele>2452.80</ele>
	<time>2023-08-09T05:23:09.000Z</time>
</trkpt>
<trkpt lat="46.1513530" lon="10.4452400">
	<ele>2452.80</ele>
	<time>2023-08-09T05:23:10.000Z</time>
</trkpt>
<trkpt lat="46.1513540" lon="10.4452510">
	<ele>2453.00</ele>
	<time>2023-08-09T05:23:11.000Z</time>
</trkpt>
<trkpt lat="46.1513560" lon="10.4452580">
	<ele>2453.20</ele>
	<time>2023-08-09T05:23:12.000Z</time>
</trkpt>
<trkpt lat="46.1513590" lon="10.4452660">
	<ele>2453.20</ele>
	<time>2023-08-09T05:23:13.000Z</time>
</trkpt>
<trkpt lat="46.1513610" lon="10.4452710">
	<ele>2453.20</ele>
	<time>2023-08-09T05:23:14.000Z</time>
</trkpt>
<trkpt lat="46.1513640" lon="10.4452740">
	<ele>2453.20</ele>
	<time>2023-08-09T05:23:15.000Z</time>
</trkpt>
<trkpt lat="46.1513670" lon="10.4452780">
	<ele>2453.40</ele>
	<time>2023-08-09T05:23:16.000Z</time>
</trkpt>
<trkpt lat="46.1513700" lon="10.4452810">
	<ele>2453.40</ele>
	<time>2023-08-09T05:23:17.000Z</time>
</trkpt>
<trkpt lat="46.1513730" lon="10.4452880">
	<ele>2453.40</ele>
	<time>2023-08-09T05:23:18.000Z</time>
</trkpt>
<trkpt lat="46.1513740" lon="10.4452980">
	<ele>2453.60</ele>
	<time>2023-08-09T05:23:19.000Z</time>
</trkpt>
<trkpt lat="46.1513750" lon="10.4453070">
	<ele>2453.80</ele>
	<time>2023-08-09T05:23:20.000Z</time>
</trkpt>
<trkpt lat="46.1513730" lon="10.4453150">
	<ele>2453.80</ele>
	<time>2023-08-09T05:23:21.000Z</time>
</trkpt>
<trkpt lat="46.1513720" lon="10.4453230">
	<ele>2454.00</ele>
	<time>2023-08-09T05:23:22.000Z</time>
</trkpt>
<trkpt lat="46.1513690" lon="10.4453290">
	<ele>2454.00</ele>
	<time>2023-08-09T05:23:23.000Z</time>
</trkpt>
<trkpt lat="46.1513680" lon="10.4453360">
	<ele>2454.20</ele>
	<time>2023-08-09T05:23:24.000Z</time>
</trkpt>
<trkpt lat="46.1513670" lon="10.4453440">
	<ele>2454.20</ele>
	<time>2023-08-09T05:23:25.000Z</time>
</trkpt>
<trkpt lat="46.1513660" lon="10.4453510">
	<ele>2454.20</ele>
	<time>2023-08-09T05:23:26.000Z</time>
</trkpt>
<trkpt lat="46.1513630" lon="10.4453530">
	<ele>2454.20</ele>
	<time>2023-08-09T05:23:27.000Z</time>
</trkpt>
<trkpt lat="46.1513620" lon="10.4453590">
	<ele>2454.40</ele>
	<time>2023-08-09T05:23:28.000Z</time>
</trkpt>
<trkpt lat="46.1513620" lon="10.4453680">
	<ele>2454.60</ele>
	<time>2023-08-09T05:23:29.000Z</time>
</trkpt>
<trkpt lat="46.1513640" lon="10.4453780">
	<ele>2454.60</ele>
	<time>2023-08-09T05:23:30.000Z</time>
</trkpt>
<trkpt lat="46.1513640" lon="10.4453850">
	<ele>2454.80</ele>
	<time>2023-08-09T05:23:31.000Z</time>
</trkpt>
<trkpt lat="46.1513640" lon="10.4453900">
	<ele>2455.00</ele>
	<time>2023-08-09T05:23:32.000Z</time>
</trkpt>
<trkpt lat="46.1513630" lon="10.4453930">
	<ele>2455.20</ele>
	<time>2023-08-09T05:23:33.000Z</time>
</trkpt>
<trkpt lat="46.1513610" lon="10.4453940">
	<ele>2455.40</ele>
	<time>2023-08-09T05:23:34.000Z</time>
</trkpt>
<trkpt lat="46.1513590" lon="10.4453960">
	<ele>2455.40</ele>
	<time>2023-08-09T05:23:35.000Z</time>
</trkpt>
<trkpt lat="46.1513570" lon="10.4454000">
	<ele>2455.60</ele>
	<time>2023-08-09T05:23:36.000Z</time>
</trkpt>
<trkpt lat="46.1513590" lon="10.4454040">
	<ele>2455.60</ele>
	<time>2023-08-09T05:23:37.000Z</time>
</trkpt>
<trkpt lat="46.1513590" lon="10.4454060">
	<ele>2455.60</ele>
	<time>2023-08-09T05:23:38.000Z</time>
</trkpt>
<trkpt lat="46.1513590" lon="10.4454140">
	<ele>2455.60</ele>
	<time>2023-08-09T05:23:39.000Z</time>
</trkpt>
<trkpt lat="46.1513580" lon="10.4454230">
	<ele>2455.60</ele>
	<time>2023-08-09T05:23:40.000Z</time>
</trkpt>
<trkpt lat="46.1513570" lon="10.4454300">
	<ele>2455.80</ele>
	<time>2023-08-09T05:23:41.000Z</time>
</trkpt>
<trkpt lat="46.1513560" lon="10.4454350">
	<ele>2456.00</ele>
	<time>2023-08-09T05:23:42.000Z</time>
</trkpt>
<trkpt lat="46.1513560" lon="10.4454390">
	<ele>2456.00</ele>
	<time>2023-08-09T05:23:43.000Z</time>
</trkpt>
<trkpt lat="46.1513560" lon="10.4454450">
	<ele>2456.00</ele>
	<time>2023-08-09T05:23:44.000Z</time>
</trkpt>
<trkpt lat="46.1513570" lon="10.4454510">
	<ele>2456.20</ele>
	<time>2023-08-09T05:23:45.000Z</time>
</trkpt>
<trkpt lat="46.1513570" lon="10.4454560">
	<ele>2456.20</ele>
	<time>2023-08-09T05:23:46.000Z</time>
</trkpt>
<trkpt lat="46.1513590" lon="10.4454620">
	<ele>2456.40</ele>
	<time>2023-08-09T05:23:47.000Z</time>
</trkpt>
<trkpt lat="46.1513590" lon="10.4454650">
	<ele>2456.60</ele>
	<time>2023-08-09T05:23:48.000Z</time>
</trkpt>
<trkpt lat="46.1513570" lon="10.4454690">
	<ele>2456.60</ele>
	<time>2023-08-09T05:23:49.000Z</time>
</trkpt>
<trkpt lat="46.1513580" lon="10.4454740">
	<ele>2456.60</ele>
	<time>2023-08-09T05:23:50.000Z</time>
</trkpt>
<trkpt lat="46.1513630" lon="10.4454820">
	<ele>2456.40</ele>
	<time>2023-08-09T05:23:51.000Z</time>
</trkpt>
<trkpt lat="46.1513660" lon="10.4454900">
	<ele>2456.60</ele>
	<time>2023-08-09T05:23:52.000Z</time>
</trkpt>
<trkpt lat="46.1513670" lon="10.4454950">
	<ele>2456.40</ele>
	<time>2023-08-09T05:23:53.000Z</time>
</trkpt>
<trkpt lat="46.1513710" lon="10.4455070">
	<ele>2456.40</ele>
	<time>2023-08-09T05:23:54.000Z</time>
</trkpt>
<trkpt lat="46.1513740" lon="10.4455190">
	<ele>2456.40</ele>
	<time>2023-08-09T05:23:55.000Z</time>
</trkpt>
<trkpt lat="46.1513760" lon="10.4455280">
	<ele>2456.60</ele>
	<time>2023-08-09T05:23:56.000Z</time>
</trkpt>
<trkpt lat="46.1513760" lon="10.4455340">
	<ele>2456.60</ele>
	<time>2023-08-09T05:23:57.000Z</time>
</trkpt>
<trkpt lat="46.1513780" lon="10.4455370">
	<ele>2456.60</ele>
	<time>2023-08-09T05:23:58.000Z</time>
</trkpt>
<trkpt lat="46.1513800" lon="10.4455400">
	<ele>2456.60</ele>
	<time>2023-08-09T05:23:59.000Z</time>
</trkpt>
<trkpt lat="46.1513810" lon="10.4455420">
	<ele>2456.60</ele>
	<time>2023-08-09T05:24:00.000Z</time>
</trkpt>
<trkpt lat="46.1513810" lon="10.4455470">
	<ele>2456.60</ele>
	<time>2023-08-09T05:24:01.000Z</time>
</trkpt>
<trkpt lat="46.1513810" lon="10.4455530">
	<ele>2456.80</ele>
	<time>2023-08-09T05:24:02.000Z</time>
</trkpt>
<trkpt lat="46.1513790" lon="10.4455610">
	<ele>2457.00</ele>
	<time>2023-08-09T05:24:03.000Z</time>
</trkpt>
<trkpt lat="46.1513760" lon="10.4455700">
	<ele>2457.20</ele>
	<time>2023-08-09T05:24:04.000Z</time>
</trkpt>
<trkpt lat="46.1513760" lon="10.4455760">
	<ele>2457.20</ele>
	<time>2023-08-09T05:24:05.000Z</time>
</trkpt>
<trkpt lat="46.1513770" lon="10.4455820">
	<ele>2457.20</ele>
	<time>2023-08-09T05:24:06.000Z</time>
</trkpt>
<trkpt lat="46.1513770" lon="10.4455940">
	<ele>2457.40</ele>
	<time>2023-08-09T05:24:07.000Z</time>
</trkpt>
<trkpt lat="46.1513780" lon="10.4456060">
	<ele>2457.40</ele>
	<time>2023-08-09T05:24:08.000Z</time>
</trkpt>
<trkpt lat="46.1513770" lon="10.4456120">
	<ele>2457.60</ele>
	<time>2023-08-09T05:24:09.000Z</time>
</trkpt>
<trkpt lat="46.1513760" lon="10.4456220">
	<ele>2457.60</ele>
	<time>2023-08-09T05:24:10.000Z</time>
</trkpt>
<trkpt lat="46.1513760" lon="10.4456280">
	<ele>2457.60</ele>
	<time>2023-08-09T05:24:11.000Z</time>
</trkpt>
<trkpt lat="46.1513740" lon="10.4456340">
	<ele>2457.60</ele>
	<time>2023-08-09T05:24:12.000Z</time>
</trkpt>
<trkpt lat="46.1513730" lon="10.4456410">
	<ele>2457.80</ele>
	<time>2023-08-09T05:24:13.000Z</time>
</trkpt>
<trkpt lat="46.1513720" lon="10.4456460">
	<ele>2457.80</ele>
	<time>2023-08-09T05:24:14.000Z</time>
</trkpt>
<trkpt lat="46.1513710" lon="10.4456500">
	<ele>2457.80</ele>
	<time>2023-08-09T05:24:15.000Z</time>
</trkpt>
<trkpt lat="46.1513720" lon="10.4456520">
	<ele>2457.80</ele>
	<time>2023-08-09T05:24:16.000Z</time>
</trkpt>
<trkpt lat="46.1513770" lon="10.4456610">
	<ele>2458.00</ele>
	<time>2023-08-09T05:24:17.000Z</time>
</trkpt>
<trkpt lat="46.1513800" lon="10.4456650">
	<ele>2458.00</ele>
	<time>2023-08-09T05:24:18.000Z</time>
</trkpt>
<trkpt lat="46.1513840" lon="10.4456700">
	<ele>2458.40</ele>
	<time>2023-08-09T05:24:19.000Z</time>
</trkpt>
<trkpt lat="46.1513860" lon="10.4456780">
	<ele>2458.60</ele>
	<time>2023-08-09T05:24:20.000Z</time>
</trkpt>
<trkpt lat="46.1513840" lon="10.4456850">
	<ele>2458.60</ele>
	<time>2023-08-09T05:24:21.000Z</time>
</trkpt>
<trkpt lat="46.1513820" lon="10.4456890">
	<ele>2458.80</ele>
	<time>2023-08-09T05:24:22.000Z</time>
</trkpt>
<trkpt lat="46.1513810" lon="10.4456920">
	<ele>2459.00</ele>
	<time>2023-08-09T05:24:23.000Z</time>
</trkpt>
<trkpt lat="46.1513830" lon="10.4456980">
	<ele>2459.00</ele>
	<time>2023-08-09T05:24:24.000Z</time>
</trkpt>
<trkpt lat="46.1513850" lon="10.4457110">
	<ele>2459.00</ele>
	<time>2023-08-09T05:24:25.000Z</time>
</trkpt>
<trkpt lat="46.1513850" lon="10.4457210">
	<ele>2459.00</ele>
	<time>2023-08-09T05:24:26.000Z</time>
</trkpt>
<trkpt lat="46.1513820" lon="10.4457270">
	<ele>2459.00</ele>
	<time>2023-08-09T05:24:27.000Z</time>
</trkpt>
<trkpt lat="46.1513800" lon="10.4457350">
	<ele>2459.00</ele>
	<time>2023-08-09T05:24:28.000Z</time>
</trkpt>
<trkpt lat="46.1513820" lon="10.4457470">
	<ele>2459.00</ele>
	<time>2023-08-09T05:24:29.000Z</time>
</trkpt>
<trkpt lat="46.1513810" lon="10.4457550">
	<ele>2459.00</ele>
	<time>2023-08-09T05:24:30.000Z</time>
</trkpt>
<trkpt lat="46.1513860" lon="10.4457600">
	<ele>2459.00</ele>
	<time>2023-08-09T05:24:31.000Z</time>
</trkpt>
<trkpt lat="46.1513890" lon="10.4457720">
	<ele>2459.20</ele>
	<time>2023-08-09T05:24:32.000Z</time>
</trkpt>
<trkpt lat="46.1513930" lon="10.4457810">
	<ele>2459.20</ele>
	<time>2023-08-09T05:24:33.000Z</time>
</trkpt>
<trkpt lat="46.1513960" lon="10.4457860">
	<ele>2459.40</ele>
	<time>2023-08-09T05:24:34.000Z</time>
</trkpt>
<trkpt lat="46.1514020" lon="10.4457920">
	<ele>2459.60</ele>
	<time>2023-08-09T05:24:35.000Z</time>
</trkpt>
<trkpt lat="46.1514050" lon="10.4457990">
	<ele>2459.80</ele>
	<time>2023-08-09T05:24:36.000Z</time>
</trkpt>
<trkpt lat="46.1514060" lon="10.4458080">
	<ele>2460.00</ele>
	<time>2023-08-09T05:24:37.000Z</time>
</trkpt>
<trkpt lat="46.1514090" lon="10.4458170">
	<ele>2460.00</ele>
	<time>2023-08-09T05:24:38.000Z</time>
</trkpt>
<trkpt lat="46.1514110" lon="10.4458260">
	<ele>2460.20</ele>
	<time>2023-08-09T05:24:39.000Z</time>
</trkpt>
<trkpt lat="46.1514130" lon="10.4458350">
	<ele>2460.20</ele>
	<time>2023-08-09T05:24:40.000Z</time>
</trkpt>
<trkpt lat="46.1514170" lon="10.4458420">
	<ele>2460.20</ele>
	<time>2023-08-09T05:24:41.000Z</time>
</trkpt>
<trkpt lat="46.1514210" lon="10.4458460">
	<ele>2460.20</ele>
	<time>2023-08-09T05:24:42.000Z</time>
</trkpt>
<trkpt lat="46.1514250" lon="10.4458450">
	<ele>2460.20</ele>
	<time>2023-08-09T05:24:43.000Z</time>
</trkpt>
<trkpt lat="46.1514300" lon="10.4458470">
	<ele>2460.20</ele>
	<time>2023-08-09T05:24:44.000Z</time>
</trkpt>
<trkpt lat="46.1514320" lon="10.4458500">
	<ele>2460.40</ele>
	<time>2023-08-09T05:24:45.000Z</time>
</trkpt>
<trkpt lat="46.1514330" lon="10.4458530">
	<ele>2460.60</ele>
	<time>2023-08-09T05:24:46.000Z</time>
</trkpt>
<trkpt lat="46.1514370" lon="10.4458590">
	<ele>2460.80</ele>
	<time>2023-08-09T05:24:47.000Z</time>
</trkpt>
<trkpt lat="46.1514400" lon="10.4458680">
	<ele>2461.00</ele>
	<time>2023-08-09T05:24:48.000Z</time>
</trkpt>
<trkpt lat="46.1514410" lon="10.4458750">
	<ele>2461.00</ele>
	<time>2023-08-09T05:24:49.000Z</time>
</trkpt>
<trkpt lat="46.1514450" lon="10.4458800">
	<ele>2461.20</ele>
	<time>2023-08-09T05:24:50.000Z</time>
</trkpt>
<trkpt lat="46.1514470" lon="10.4458850">
	<ele>2461.40</ele>
	<time>2023-08-09T05:24:51.000Z</time>
</trkpt>
<trkpt lat="46.1514500" lon="10.4458900">
	<ele>2461.40</ele>
	<time>2023-08-09T05:24:52.000Z</time>
</trkpt>
<trkpt lat="46.1514540" lon="10.4458930">
	<ele>2461.40</ele>
	<time>2023-08-09T05:24:53.000Z</time>
</trkpt>
<trkpt lat="46.1514580" lon="10.4459000">
	<ele>2461.60</ele>
	<time>2023-08-09T05:24:54.000Z</time>
</trkpt>
<trkpt lat="46.1514620" lon="10.4459100">
	<ele>2461.60</ele>
	<time>2023-08-09T05:24:55.000Z</time>
</trkpt>
<trkpt lat="46.1514620" lon="10.4459150">
	<ele>2461.80</ele>
	<time>2023-08-09T05:24:56.000Z</time>
</trkpt>
<trkpt lat="46.1514620" lon="10.4459140">
	<ele>2461.80</ele>
	<time>2023-08-09T05:24:57.000Z</time>
</trkpt>
<trkpt lat="46.1514620" lon="10.4459190">
	<ele>2462.00</ele>
	<time>2023-08-09T05:24:58.000Z</time>
</trkpt>
<trkpt lat="46.1514620" lon="10.4459230">
	<ele>2462.00</ele>
	<time>2023-08-09T05:24:59.000Z</time>
</trkpt>
<trkpt lat="46.1514650" lon="10.4459300">
	<ele>2462.20</ele>
	<time>2023-08-09T05:25:00.000Z</time>
</trkpt>
<trkpt lat="46.1514680" lon="10.4459410">
	<ele>2462.20</ele>
	<time>2023-08-09T05:25:01.000Z</time>
</trkpt>
<trkpt lat="46.1514690" lon="10.4459480">
	<ele>2462.40</ele>
	<time>2023-08-09T05:25:02.000Z</time>
</trkpt>
<trkpt lat="46.1514720" lon="10.4459600">
	<ele>2462.60</ele>
	<time>2023-08-09T05:25:03.000Z</time>
</trkpt>
<trkpt lat="46.1514740" lon="10.4459680">
	<ele>2462.60</ele>
	<time>2023-08-09T05:25:04.000Z</time>
</trkpt>
<trkpt lat="46.1514750" lon="10.4459730">
	<ele>2463.00</ele>
	<time>2023-08-09T05:25:05.000Z</time>
</trkpt>
<trkpt lat="46.1514780" lon="10.4459750">
	<ele>2463.00</ele>
	<time>2023-08-09T05:25:06.000Z</time>
</trkpt>
<trkpt lat="46.1514810" lon="10.4459740">
	<ele>2463.20</ele>
	<time>2023-08-09T05:25:07.000Z</time>
</trkpt>
<trkpt lat="46.1514840" lon="10.4459720">
	<ele>2463.20</ele>
	<time>2023-08-09T05:25:08.000Z</time>
</trkpt>
<trkpt lat="46.1514910" lon="10.4459710">
	<ele>2463.20</ele>
	<time>2023-08-09T05:25:09.000Z</time>
</trkpt>
<trkpt lat="46.1514950" lon="10.4459700">
	<ele>2463.40</ele>
	<time>2023-08-09T05:25:10.000Z</time>
</trkpt>
<trkpt lat="46.1514990" lon="10.4459680">
	<ele>2463.40</ele>
	<time>2023-08-09T05:25:11.000Z</time>
</trkpt>
<trkpt lat="46.1514990" lon="10.4459660">
	<ele>2463.40</ele>
	<time>2023-08-09T05:25:12.000Z</time>
</trkpt>
<trkpt lat="46.1515030" lon="10.4459720">
	<ele>2463.40</ele>
	<time>2023-08-09T05:25:13.000Z</time>
</trkpt>
<trkpt lat="46.1515050" lon="10.4459770">
	<ele>2463.60</ele>
	<time>2023-08-09T05:25:14.000Z</time>
</trkpt>
<trkpt lat="46.1515080" lon="10.4459850">
	<ele>2463.60</ele>
	<time>2023-08-09T05:25:15.000Z</time>
</trkpt>
<trkpt lat="46.1515130" lon="10.4459900">
	<ele>2463.80</ele>
	<time>2023-08-09T05:25:16.000Z</time>
</trkpt>
<trkpt lat="46.1515180" lon="10.4459990">
	<ele>2464.00</ele>
	<time>2023-08-09T05:25:17.000Z</time>
</trkpt>
<trkpt lat="46.1515220" lon="10.4460030">
	<ele>2464.20</ele>
	<time>2023-08-09T05:25:18.000Z</time>
</trkpt>
<trkpt lat="46.1515250" lon="10.4460020">
	<ele>2464.40</ele>
	<time>2023-08-09T05:25:19.000Z</time>
</trkpt>
<trkpt lat="46.1515290" lon="10.4460060">
	<ele>2464.40</ele>
	<time>2023-08-09T05:25:20.000Z</time>
</trkpt>
<trkpt lat="46.1515320" lon="10.4460160">
	<ele>2464.40</ele>
	<time>2023-08-09T05:25:21.000Z</time>
</trkpt>
<trkpt lat="46.1515320" lon="10.4460230">
	<ele>2464.60</ele>
	<time>2023-08-09T05:25:22.000Z</time>
</trkpt>
<trkpt lat="46.1515310" lon="10.4460310">
	<ele>2464.80</ele>
	<time>2023-08-09T05:25:23.000Z</time>
</trkpt>
<trkpt lat="46.1515300" lon="10.4460390">
	<ele>2465.00</ele>
	<time>2023-08-09T05:25:24.000Z</time>
</trkpt>
<trkpt lat="46.1515290" lon="10.4460450">
	<ele>2465.00</ele>
	<time>2023-08-09T05:25:25.000Z</time>
</trkpt>
<trkpt lat="46.1515300" lon="10.4460470">
	<ele>2465.20</ele>
	<time>2023-08-09T05:25:26.000Z</time>
</trkpt>
<trkpt lat="46.1515320" lon="10.4460500">
	<ele>2465.20</ele>
	<time>2023-08-09T05:25:27.000Z</time>
</trkpt>
<trkpt lat="46.1515360" lon="10.4460600">
	<ele>2465.40</ele>
	<time>2023-08-09T05:25:28.000Z</time>
</trkpt>
<trkpt lat="46.1515380" lon="10.4460710">
	<ele>2465.40</ele>
	<time>2023-08-09T05:25:29.000Z</time>
</trkpt>
<trkpt lat="46.1515380" lon="10.4460780">
	<ele>2465.60</ele>
	<time>2023-08-09T05:25:30.000Z</time>
</trkpt>
<trkpt lat="46.1515390" lon="10.4460830">
	<ele>2465.80</ele>
	<time>2023-08-09T05:25:31.000Z</time>
</trkpt>
<trkpt lat="46.1515420" lon="10.4460860">
	<ele>2466.00</ele>
	<time>2023-08-09T05:25:32.000Z</time>
</trkpt>
<trkpt lat="46.1515450" lon="10.4460960">
	<ele>2466.00</ele>
	<time>2023-08-09T05:25:33.000Z</time>
</trkpt>
<trkpt lat="46.1515440" lon="10.4461080">
	<ele>2466.20</ele>
	<time>2023-08-09T05:25:34.000Z</time>
</trkpt>
<trkpt lat="46.1515440" lon="10.4461140">
	<ele>2466.40</ele>
	<time>2023-08-09T05:25:35.000Z</time>
</trkpt>
<trkpt lat="46.1515460" lon="10.4461190">
	<ele>2466.40</ele>
	<time>2023-08-09T05:25:36.000Z</time>
</trkpt>
<trkpt lat="46.1515480" lon="10.4461250">
	<ele>2466.60</ele>
	<time>2023-08-09T05:25:37.000Z</time>
</trkpt>
<trkpt lat="46.1515490" lon="10.4461300">
	<ele>2466.80</ele>
	<time>2023-08-09T05:25:38.000Z</time>
</trkpt>
<trkpt lat="46.1515510" lon="10.4461330">
	<ele>2466.80</ele>
	<time>2023-08-09T05:25:39.000Z</time>
</trkpt>
<trkpt lat="46.1515530" lon="10.4461340">
	<ele>2467.00</ele>
	<time>2023-08-09T05:25:40.000Z</time>
</trkpt>
<trkpt lat="46.1515600" lon="10.4461400">
	<ele>2467.00</ele>
	<time>2023-08-09T05:25:41.000Z</time>
</trkpt>
<trkpt lat="46.1515630" lon="10.4461430">
	<ele>2467.20</ele>
	<time>2023-08-09T05:25:42.000Z</time>
</trkpt>
<trkpt lat="46.1515660" lon="10.4461510">
	<ele>2467.20</ele>
	<time>2023-08-09T05:25:43.000Z</time>
</trkpt>
<trkpt lat="46.1515690" lon="10.4461580">
	<ele>2467.20</ele>
	<time>2023-08-09T05:25:44.000Z</time>
</trkpt>
<trkpt lat="46.1515690" lon="10.4461620">
	<ele>2467.60</ele>
	<time>2023-08-09T05:25:45.000Z</time>
</trkpt>
<trkpt lat="46.1515700" lon="10.4461650">
	<ele>2467.80</ele>
	<time>2023-08-09T05:25:46.000Z</time>
</trkpt>
<trkpt lat="46.1515770" lon="10.4461710">
	<ele>2467.80</ele>
	<time>2023-08-09T05:25:47.000Z</time>
</trkpt>
<trkpt lat="46.1515820" lon="10.4461720">
	<ele>2468.00</ele>
	<time>2023-08-09T05:25:48.000Z</time>
</trkpt>
<trkpt lat="46.1515900" lon="10.4461720">
	<ele>2468.00</ele>
	<time>2023-08-09T05:25:49.000Z</time>
</trkpt>
<trkpt lat="46.1515970" lon="10.4461780">
	<ele>2468.00</ele>
	<time>2023-08-09T05:25:50.000Z</time>
</trkpt>
<trkpt lat="46.1516000" lon="10.4461810">
	<ele>2468.00</ele>
	<time>2023-08-09T05:25:51.000Z</time>
</trkpt>
<trkpt lat="46.1516050" lon="10.4461860">
	<ele>2468.20</ele>
	<time>2023-08-09T05:25:52.000Z</time>
</trkpt>
<trkpt lat="46.1516080" lon="10.4461930">
	<ele>2468.40</ele>
	<time>2023-08-09T05:25:53.000Z</time>
</trkpt>
<trkpt lat="46.1516110" lon="10.4461970">
	<ele>2468.60</ele>
	<time>2023-08-09T05:25:54.000Z</time>
</trkpt>
<trkpt lat="46.1516150" lon="10.4462000">
	<ele>2468.60</ele>
	<time>2023-08-09T05:25:55.000Z</time>
</trkpt>
<trkpt lat="46.1516180" lon="10.4462040">
	<ele>2468.80</ele>
	<time>2023-08-09T05:25:56.000Z</time>
</trkpt>
<trkpt lat="46.1516210" lon="10.4462090">
	<ele>2468.80</ele>
	<time>2023-08-09T05:25:57.000Z</time>
</trkpt>
<trkpt lat="46.1516260" lon="10.4462150">
	<ele>2468.80</ele>
	<time>2023-08-09T05:25:58.000Z</time>
</trkpt>
<trkpt lat="46.1516330" lon="10.4462200">
	<ele>2468.80</ele>
	<time>2023-08-09T05:25:59.000Z</time>
</trkpt>
<trkpt lat="46.1516390" lon="10.4462260">
	<ele>2468.80</ele>
	<time>2023-08-09T05:26:00.000Z</time>
</trkpt>
<trkpt lat="46.1516430" lon="10.4462310">
	<ele>2468.80</ele>
	<time>2023-08-09T05:26:01.000Z</time>
</trkpt>
<trkpt lat="46.1516440" lon="10.4462370">
	<ele>2468.80</ele>
	<time>2023-08-09T05:26:02.000Z</time>
</trkpt>
<trkpt lat="46.1516470" lon="10.4462420">
	<ele>2468.80</ele>
	<time>2023-08-09T05:26:03.000Z</time>
</trkpt>
<trkpt lat="46.1516500" lon="10.4462430">
	<ele>2469.00</ele>
	<time>2023-08-09T05:26:04.000Z</time>
</trkpt>
<trkpt lat="46.1516520" lon="10.4462470">
	<ele>2469.20</ele>
	<time>2023-08-09T05:26:05.000Z</time>
</trkpt>
<trkpt lat="46.1516530" lon="10.4462500">
	<ele>2469.40</ele>
	<time>2023-08-09T05:26:06.000Z</time>
</trkpt>
<trkpt lat="46.1516550" lon="10.4462570">
	<ele>2469.40</ele>
	<time>2023-08-09T05:26:07.000Z</time>
</trkpt>
<trkpt lat="46.1516580" lon="10.4462630">
	<ele>2469.60</ele>
	<time>2023-08-09T05:26:08.000Z</time>
</trkpt>
<trkpt lat="46.1516600" lon="10.4462670">
	<ele>2469.60</ele>
	<time>2023-08-09T05:26:09.000Z</time>
</trkpt>
<trkpt lat="46.1516640" lon="10.4462720">
	<ele>2469.80</ele>
	<time>2023-08-09T05:26:10.000Z</time>
</trkpt>
<trkpt lat="46.1516670" lon="10.4462750">
	<ele>2469.80</ele>
	<time>2023-08-09T05:26:11.000Z</time>
</trkpt>
<trkpt lat="46.1516690" lon="10.4462800">
	<ele>2469.80</ele>
	<time>2023-08-09T05:26:12.000Z</time>
</trkpt>
<trkpt lat="46.1516710" lon="10.4462830">
	<ele>2469.80</ele>
	<time>2023-08-09T05:26:13.000Z</time>
</trkpt>
<trkpt lat="46.1516780" lon="10.4462840">
	<ele>2469.80</ele>
	<time>2023-08-09T05:26:14.000Z</time>
</trkpt>
<trkpt lat="46.1516860" lon="10.4462860">
	<ele>2469.80</ele>
	<time>2023-08-09T05:26:15.000Z</time>
</trkpt>
<trkpt lat="46.1516930" lon="10.4462920">
	<ele>2469.80</ele>
	<time>2023-08-09T05:26:16.000Z</time>
</trkpt>
<trkpt lat="46.1517000" lon="10.4462930">
	<ele>2469.80</ele>
	<time>2023-08-09T05:26:17.000Z</time>
</trkpt>
<trkpt lat="46.1517060" lon="10.4462930">
	<ele>2469.80</ele>
	<time>2023-08-09T05:26:18.000Z</time>
</trkpt>
<trkpt lat="46.1517110" lon="10.4462920">
	<ele>2470.00</ele>
	<time>2023-08-09T05:26:19.000Z</time>
</trkpt>
<trkpt lat="46.1517160" lon="10.4462920">
	<ele>2470.00</ele>
	<time>2023-08-09T05:26:20.000Z</time>
</trkpt>
<trkpt lat="46.1517210" lon="10.4462930">
	<ele>2470.20</ele>
	<time>2023-08-09T05:26:21.000Z</time>
</trkpt>
<trkpt lat="46.1517280" lon="10.4462960">
	<ele>2470.20</ele>
	<time>2023-08-09T05:26:22.000Z</time>
</trkpt>
<trkpt lat="46.1517340" lon="10.4462970">
	<ele>2470.40</ele>
	<time>2023-08-09T05:26:23.000Z</time>
</trkpt>
<trkpt lat="46.1517420" lon="10.4462960">
	<ele>2470.40</ele>
	<time>2023-08-09T05:26:24.000Z</time>
</trkpt>
<trkpt lat="46.1517520" lon="10.4462990">
	<ele>2470.40</ele>
	<time>2023-08-09T05:26:25.000Z</time>
</trkpt>
<trkpt lat="46.1517630" lon="10.4463040">
	<ele>2470.40</ele>
	<time>2023-08-09T05:26:26.000Z</time>
</trkpt>
<trkpt lat="46.1517690" lon="10.4463070">
	<ele>2470.40</ele>
	<time>2023-08-09T05:26:27.000Z</time>
</trkpt>
<trkpt lat="46.1517710" lon="10.4463100">
	<ele>2470.40</ele>
	<time>2023-08-09T05:26:28.000Z</time>
</trkpt>
<trkpt lat="46.1517740" lon="10.4463170">
	<ele>2470.40</ele>
	<time>2023-08-09T05:26:29.000Z</time>
</trkpt>
<trkpt lat="46.1517760" lon="10.4463210">
	<ele>2470.40</ele>
	<time>2023-08-09T05:26:30.000Z</time>
</trkpt>
<trkpt lat="46.1517790" lon="10.4463250">
	<ele>2470.40</ele>
	<time>2023-08-09T05:26:31.000Z</time>
</trkpt>
<trkpt lat="46.1517800" lon="10.4463270">
	<ele>2470.40</ele>
	<time>2023-08-09T05:26:32.000Z</time>
</trkpt>
<trkpt lat="46.1517840" lon="10.4463290">
	<ele>2470.40</ele>
	<time>2023-08-09T05:26:33.000Z</time>
</trkpt>
<trkpt lat="46.1517910" lon="10.4463300">
	<ele>2470.40</ele>
	<time>2023-08-09T05:26:34.000Z</time>
</trkpt>
<trkpt lat="46.1517950" lon="10.4463320">
	<ele>2470.40</ele>
	<time>2023-08-09T05:26:35.000Z</time>
</trkpt>
<trkpt lat="46.1518020" lon="10.4463360">
	<ele>2470.40</ele>
	<time>2023-08-09T05:26:36.000Z</time>
</trkpt>
<trkpt lat="46.1518070" lon="10.4463410">
	<ele>2470.40</ele>
	<time>2023-08-09T05:26:37.000Z</time>
</trkpt>
<trkpt lat="46.1518140" lon="10.4463460">
	<ele>2470.40</ele>
	<time>2023-08-09T05:26:38.000Z</time>
</trkpt>
<trkpt lat="46.1518220" lon="10.4463500">
	<ele>2470.60</ele>
	<time>2023-08-09T05:26:39.000Z</time>
</trkpt>
<trkpt lat="46.1518300" lon="10.4463530">
	<ele>2470.60</ele>
	<time>2023-08-09T05:26:40.000Z</time>
</trkpt>
<trkpt lat="46.1518330" lon="10.4463550">
	<ele>2470.60</ele>
	<time>2023-08-09T05:26:41.000Z</time>
</trkpt>
<trkpt lat="46.1518390" lon="10.4463590">
	<ele>2470.60</ele>
	<time>2023-08-09T05:26:42.000Z</time>
</trkpt>
<trkpt lat="46.1518440" lon="10.4463680">
	<ele>2470.80</ele>
	<time>2023-08-09T05:26:43.000Z</time>
</trkpt>
<trkpt lat="46.1518490" lon="10.4463740">
	<ele>2470.80</ele>
	<time>2023-08-09T05:26:44.000Z</time>
</trkpt>
<trkpt lat="46.1518540" lon="10.4463810">
	<ele>2470.80</ele>
	<time>2023-08-09T05:26:45.000Z</time>
</trkpt>
<trkpt lat="46.1518560" lon="10.4463890">
	<ele>2470.80</ele>
	<time>2023-08-09T05:26:46.000Z</time>
</trkpt>
<trkpt lat="46.1518550" lon="10.4463950">
	<ele>2471.00</ele>
	<time>2023-08-09T05:26:47.000Z</time>
</trkpt>
<trkpt lat="46.1518530" lon="10.4464000">
	<ele>2471.20</ele>
	<time>2023-08-09T05:26:48.000Z</time>
</trkpt>
<trkpt lat="46.1518540" lon="10.4464070">
	<ele>2471.40</ele>
	<time>2023-08-09T05:26:49.000Z</time>
</trkpt>
<trkpt lat="46.1518550" lon="10.4464120">
	<ele>2471.40</ele>
	<time>2023-08-09T05:26:50.000Z</time>
</trkpt>
<trkpt lat="46.1518570" lon="10.4464190">
	<ele>2471.60</ele>
	<time>2023-08-09T05:26:51.000Z</time>
</trkpt>
<trkpt lat="46.1518600" lon="10.4464220">
	<ele>2471.80</ele>
	<time>2023-08-09T05:26:52.000Z</time>
</trkpt>
<trkpt lat="46.1518650" lon="10.4464260">
	<ele>2472.00</ele>
	<time>2023-08-09T05:26:53.000Z</time>
</trkpt>
<trkpt lat="46.1518680" lon="10.4464340">
	<ele>2472.00</ele>
	<time>2023-08-09T05:26:54.000Z</time>
</trkpt>
<trkpt lat="46.1518710" lon="10.4464440">
	<ele>2472.00</ele>
	<time>2023-08-09T05:26:55.000Z</time>
</trkpt>
<trkpt lat="46.1518720" lon="10.4464480">
	<ele>2472.20</ele>
	<time>2023-08-09T05:26:56.000Z</time>
</trkpt>
<trkpt lat="46.1518730" lon="10.4464500">
	<ele>2472.20</ele>
	<time>2023-08-09T05:26:57.000Z</time>
</trkpt>
<trkpt lat="46.1518750" lon="10.4464530">
	<ele>2472.20</ele>
	<time>2023-08-09T05:26:58.000Z</time>
</trkpt>
<trkpt lat="46.1518790" lon="10.4464580">
	<ele>2472.40</ele>
	<time>2023-08-09T05:26:59.000Z</time>
</trkpt>
<trkpt lat="46.1518830" lon="10.4464600">
	<ele>2472.40</ele>
	<time>2023-08-09T05:27:00.000Z</time>
</trkpt>
<trkpt lat="46.1518820" lon="10.4464620">
	<ele>2472.60</ele>
	<time>2023-08-09T05:27:01.000Z</time>
</trkpt>
<trkpt lat="46.1518860" lon="10.4464640">
	<ele>2472.60</ele>
	<time>2023-08-09T05:27:02.000Z</time>
</trkpt>
<trkpt lat="46.1518900" lon="10.4464640">
	<ele>2472.80</ele>
	<time>2023-08-09T05:27:03.000Z</time>
</trkpt>
<trkpt lat="46.1518910" lon="10.4464620">
	<ele>2472.80</ele>
	<time>2023-08-09T05:27:04.000Z</time>
</trkpt>
<trkpt lat="46.1518940" lon="10.4464600">
	<ele>2473.00</ele>
	<time>2023-08-09T05:27:05.000Z</time>
</trkpt>
<trkpt lat="46.1518970" lon="10.4464600">
	<ele>2473.00</ele>
	<time>2023-08-09T05:27:06.000Z</time>
</trkpt>
<trkpt lat="46.1519030" lon="10.4464600">
	<ele>2473.00</ele>
	<time>2023-08-09T05:27:07.000Z</time>
</trkpt>
<trkpt lat="46.1519080" lon="10.4464600">
	<ele>2473.00</ele>
	<time>2023-08-09T05:27:08.000Z</time>
</trkpt>
<trkpt lat="46.1519110" lon="10.4464590">
	<ele>2473.20</ele>
	<time>2023-08-09T05:27:09.000Z</time>
</trkpt>
<trkpt lat="46.1519130" lon="10.4464610">
	<ele>2473.40</ele>
	<time>2023-08-09T05:27:10.000Z</time>
</trkpt>
<trkpt lat="46.1519220" lon="10.4464690">
	<ele>2473.60</ele>
	<time>2023-08-09T05:27:11.000Z</time>
</trkpt>
<trkpt lat="46.1519260" lon="10.4464720">
	<ele>2473.60</ele>
	<time>2023-08-09T05:27:12.000Z</time>
</trkpt>
<trkpt lat="46.1519310" lon="10.4464740">
	<ele>2473.80</ele>
	<time>2023-08-09T05:27:13.000Z</time>
</trkpt>
<trkpt lat="46.1519340" lon="10.4464770">
	<ele>2474.00</ele>
	<time>2023-08-09T05:27:14.000Z</time>
</trkpt>
<trkpt lat="46.1519380" lon="10.4464800">
	<ele>2474.20</ele>
	<time>2023-08-09T05:27:15.000Z</time>
</trkpt>
<trkpt lat="46.1519390" lon="10.4464820">
	<ele>2474.40</ele>
	<time>2023-08-09T05:27:16.000Z</time>
</trkpt>
<trkpt lat="46.1519390" lon="10.4464840">
	<ele>2474.60</ele>
	<time>2023-08-09T05:27:17.000Z</time>
</trkpt>
<trkpt lat="46.1519410" lon="10.4464890">
	<ele>2474.60</ele>
	<time>2023-08-09T05:27:18.000Z</time>
</trkpt>
<trkpt lat="46.1519450" lon="10.4464980">
	<ele>2474.80</ele>
	<time>2023-08-09T05:27:19.000Z</time>
</trkpt>
<trkpt lat="46.1519470" lon="10.4465050">
	<ele>2474.80</ele>
	<time>2023-08-09T05:27:20.000Z</time>
</trkpt>
<trkpt lat="46.1519480" lon="10.4465070">
	<ele>2475.00</ele>
	<time>2023-08-09T05:27:21.000Z</time>
</trkpt>
<trkpt lat="46.1519480" lon="10.4465060">
	<ele>2475.00</ele>
	<time>2023-08-09T05:27:22.000Z</time>
</trkpt>
<trkpt lat="46.1519490" lon="10.4465110">
	<ele>2475.20</ele>
	<time>2023-08-09T05:27:23.000Z</time>
</trkpt>
<trkpt lat="46.1519510" lon="10.4465180">
	<ele>2475.20</ele>
	<time>2023-08-09T05:27:24.000Z</time>
</trkpt>
<trkpt lat="46.1519520" lon="10.4465220">
	<ele>2475.40</ele>
	<time>2023-08-09T05:27:25.000Z</time>
</trkpt>
<trkpt lat="46.1519510" lon="10.4465290">
	<ele>2475.40</ele>
	<time>2023-08-09T05:27:26.000Z</time>
</trkpt>
<trkpt lat="46.1519500" lon="10.4465390">
	<ele>2475.60</ele>
	<time>2023-08-09T05:27:27.000Z</time>
</trkpt>
<trkpt lat="46.1519510" lon="10.4465480">
	<ele>2475.80</ele>
	<time>2023-08-09T05:27:28.000Z</time>
</trkpt>
<trkpt lat="46.1519530" lon="10.4465530">
	<ele>2476.00</ele>
	<time>2023-08-09T05:27:29.000Z</time>
</trkpt>
<trkpt lat="46.1519550" lon="10.4465570">
	<ele>2476.00</ele>
	<time>2023-08-09T05:27:30.000Z</time>
</trkpt>
<trkpt lat="46.1519560" lon="10.4465610">
	<ele>2476.00</ele>
	<time>2023-08-09T05:27:31.000Z</time>
</trkpt>
<trkpt lat="46.1519600" lon="10.4465700">
	<ele>2476.20</ele>
	<time>2023-08-09T05:27:32.000Z</time>
</trkpt>
<trkpt lat="46.1519610" lon="10.4465800">
	<ele>2476.40</ele>
	<time>2023-08-09T05:27:33.000Z</time>
</trkpt>
<trkpt lat="46.1519590" lon="10.4465880">
	<ele>2476.40</ele>
	<time>2023-08-09T05:27:34.000Z</time>
</trkpt>
<trkpt lat="46.1519580" lon="10.4465970">
	<ele>2476.40</ele>
	<time>2023-08-09T05:27:35.000Z</time>
</trkpt>
<trkpt lat="46.1519570" lon="10.4466070">
	<ele>2476.60</ele>
	<time>2023-08-09T05:27:36.000Z</time>
</trkpt>
<trkpt lat="46.1519580" lon="10.4466140">
	<ele>2476.60</ele>
	<time>2023-08-09T05:27:37.000Z</time>
</trkpt>
<trkpt lat="46.1519580" lon="10.4466160">
	<ele>2476.80</ele>
	<time>2023-08-09T05:27:38.000Z</time>
</trkpt>
<trkpt lat="46.1519610" lon="10.4466220">
	<ele>2476.80</ele>
	<time>2023-08-09T05:27:39.000Z</time>
</trkpt>
<trkpt lat="46.1519650" lon="10.4466270">
	<ele>2476.80</ele>
	<time>2023-08-09T05:27:40.000Z</time>
</trkpt>
<trkpt lat="46.1519670" lon="10.4466310">
	<ele>2477.20</ele>
	<time>2023-08-09T05:27:41.000Z</time>
</trkpt>
<trkpt lat="46.1519690" lon="10.4466330">
	<ele>2477.40</ele>
	<time>2023-08-09T05:27:42.000Z</time>
</trkpt>
<trkpt lat="46.1519730" lon="10.4466360">
	<ele>2477.60</ele>
	<time>2023-08-09T05:27:43.000Z</time>
</trkpt>
<trkpt lat="46.1519790" lon="10.4466430">
	<ele>2477.60</ele>
	<time>2023-08-09T05:27:44.000Z</time>
</trkpt>
<trkpt lat="46.1519820" lon="10.4466490">
	<ele>2477.80</ele>
	<time>2023-08-09T05:27:45.000Z</time>
</trkpt>
<trkpt lat="46.1519840" lon="10.4466560">
	<ele>2477.80</ele>
	<time>2023-08-09T05:27:46.000Z</time>
</trkpt>
<trkpt lat="46.1519870" lon="10.4466630">
	<ele>2478.00</ele>
	<time>2023-08-09T05:27:47.000Z</time>
</trkpt>
<trkpt lat="46.1519860" lon="10.4466720">
	<ele>2478.20</ele>
	<time>2023-08-09T05:27:48.000Z</time>
</trkpt>
<trkpt lat="46.1519860" lon="10.4466770">
	<ele>2478.40</ele>
	<time>2023-08-09T05:27:49.000Z</time>
</trkpt>
<trkpt lat="46.1519920" lon="10.4466850">
	<ele>2478.40</ele>
	<time>2023-08-09T05:27:50.000Z</time>
</trkpt>
<trkpt lat="46.1519950" lon="10.4466910">
	<ele>2478.60</ele>
	<time>2023-08-09T05:27:51.000Z</time>
</trkpt>
<trkpt lat="46.1519960" lon="10.4466980">
	<ele>2478.80</ele>
	<time>2023-08-09T05:27:52.000Z</time>
</trkpt>
<trkpt lat="46.1519960" lon="10.4467070">
	<ele>2479.00</ele>
	<time>2023-08-09T05:27:53.000Z</time>
</trkpt>
<trkpt lat="46.1519930" lon="10.4467130">
	<ele>2479.00</ele>
	<time>2023-08-09T05:27:54.000Z</time>
</trkpt>
<trkpt lat="46.1519970" lon="10.4467250">
	<ele>2479.00</ele>
	<time>2023-08-09T05:27:55.000Z</time>
</trkpt>
<trkpt lat="46.1519990" lon="10.4467350">
	<ele>2479.00</ele>
	<time>2023-08-09T05:27:56.000Z</time>
</trkpt>
<trkpt lat="46.1519990" lon="10.4467420">
	<ele>2479.20</ele>
	<time>2023-08-09T05:27:57.000Z</time>
</trkpt>
<trkpt lat="46.1520020" lon="10.4467530">
	<ele>2479.20</ele>
	<time>2023-08-09T05:27:58.000Z</time>
</trkpt>
<trkpt lat="46.1520010" lon="10.4467630">
	<ele>2479.20</ele>
	<time>2023-08-09T05:27:59.000Z</time>
</trkpt>
<trkpt lat="46.1520000" lon="10.4467750">
	<ele>2479.40</ele>
	<time>2023-08-09T05:28:00.000Z</time>
</trkpt>
<trkpt lat="46.1520010" lon="10.4467850">
	<ele>2479.40</ele>
	<time>2023-08-09T05:28:01.000Z</time>
</trkpt>
<trkpt lat="46.1520050" lon="10.4467940">
	<ele>2479.60</ele>
	<time>2023-08-09T05:28:02.000Z</time>
</trkpt>
<trkpt lat="46.1520070" lon="10.4468010">
	<ele>2479.60</ele>
	<time>2023-08-09T05:28:03.000Z</time>
</trkpt>
<trkpt lat="46.1520080" lon="10.4468050">
	<ele>2479.80</ele>
	<time>2023-08-09T05:28:04.000Z</time>
</trkpt>
<trkpt lat="46.1520080" lon="10.4468090">
	<ele>2479.80</ele>
	<time>2023-08-09T05:28:05.000Z</time>
</trkpt>
<trkpt lat="46.1520120" lon="10.4468140">
	<ele>2480.00</ele>
	<time>2023-08-09T05:28:06.000Z</time>
</trkpt>
<trkpt lat="46.1520150" lon="10.4468200">
	<ele>2480.20</ele>
	<time>2023-08-09T05:28:07.000Z</time>
</trkpt>
<trkpt lat="46.1520160" lon="10.4468250">
	<ele>2480.40</ele>
	<time>2023-08-09T05:28:08.000Z</time>
</trkpt>
<trkpt lat="46.1520180" lon="10.4468280">
	<ele>2480.40</ele>
	<time>2023-08-09T05:28:09.000Z</time>
</trkpt>
<trkpt lat="46.1520190" lon="10.4468290">
	<ele>2480.40</ele>
	<time>2023-08-09T05:28:10.000Z</time>
</trkpt>
<trkpt lat="46.1520200" lon="10.4468300">
	<ele>2480.40</ele>
	<time>2023-08-09T05:28:11.000Z</time>
</trkpt>
<trkpt lat="46.1520200" lon="10.4468300">
	<ele>2480.60</ele>
	<time>2023-08-09T05:28:12.000Z</time>
</trkpt>
<trkpt lat="46.1520210" lon="10.4468300">
	<ele>2480.80</ele>
	<time>2023-08-09T05:28:13.000Z</time>
</trkpt>
<trkpt lat="46.1520220" lon="10.4468280">
	<ele>2480.80</ele>
	<time>2023-08-09T05:28:14.000Z</time>
</trkpt>
<trkpt lat="46.1520240" lon="10.4468270">
	<ele>2481.00</ele>
	<time>2023-08-09T05:28:15.000Z</time>
</trkpt>
<trkpt lat="46.1520260" lon="10.4468270">
	<ele>2481.20</ele>
	<time>2023-08-09T05:28:16.000Z</time>
</trkpt>
<trkpt lat="46.1520280" lon="10.4468300">
	<ele>2481.40</ele>
	<time>2023-08-09T05:28:17.000Z</time>
</trkpt>
<trkpt lat="46.1520320" lon="10.4468330">
	<ele>2481.60</ele>
	<time>2023-08-09T05:28:18.000Z</time>
</trkpt>
<trkpt lat="46.1520340" lon="10.4468340">
	<ele>2481.80</ele>
	<time>2023-08-09T05:28:19.000Z</time>
</trkpt>
<trkpt lat="46.1520350" lon="10.4468350">
	<ele>2482.00</ele>
	<time>2023-08-09T05:28:20.000Z</time>
</trkpt>
<trkpt lat="46.1520350" lon="10.4468360">
	<ele>2482.20</ele>
	<time>2023-08-09T05:28:21.000Z</time>
</trkpt>
<trkpt lat="46.1520380" lon="10.4468430">
	<ele>2482.20</ele>
	<time>2023-08-09T05:28:22.000Z</time>
</trkpt>
<trkpt lat="46.1520400" lon="10.4468510">
	<ele>2482.20</ele>
	<time>2023-08-09T05:28:23.000Z</time>
</trkpt>
<trkpt lat="46.1520380" lon="10.4468570">
	<ele>2482.20</ele>
	<time>2023-08-09T05:28:24.000Z</time>
</trkpt>
<trkpt lat="46.1520360" lon="10.4468620">
	<ele>2482.60</ele>
	<time>2023-08-09T05:28:25.000Z</time>
</trkpt>
<trkpt lat="46.1520340" lon="10.4468670">
	<ele>2482.60</ele>
	<time>2023-08-09T05:28:26.000Z</time>
</trkpt>
<trkpt lat="46.1520330" lon="10.4468710">
	<ele>2482.80</ele>
	<time>2023-08-09T05:28:27.000Z</time>
</trkpt>
<trkpt lat="46.1520330" lon="10.4468760">
	<ele>2483.00</ele>
	<time>2023-08-09T05:28:28.000Z</time>
</trkpt>
<trkpt lat="46.1520350" lon="10.4468800">
	<ele>2483.00</ele>
	<time>2023-08-09T05:28:29.000Z</time>
</trkpt>
<trkpt lat="46.1520360" lon="10.4468830">
	<ele>2483.20</ele>
	<time>2023-08-09T05:28:30.000Z</time>
</trkpt>
<trkpt lat="46.1520360" lon="10.4468870">
	<ele>2483.20</ele>
	<time>2023-08-09T05:28:31.000Z</time>
</trkpt>
<trkpt lat="46.1520380" lon="10.4468960">
	<ele>2483.20</ele>
	<time>2023-08-09T05:28:32.000Z</time>
</trkpt>
<trkpt lat="46.1520390" lon="10.4469040">
	<ele>2483.20</ele>
	<time>2023-08-09T05:28:33.000Z</time>
</trkpt>
<trkpt lat="46.1520400" lon="10.4469090">
	<ele>2483.20</ele>
	<time>2023-08-09T05:28:34.000Z</time>
</trkpt>
<trkpt lat="46.1520410" lon="10.4469180">
	<ele>2483.20</ele>
	<time>2023-08-09T05:28:35.000Z</time>
</trkpt>
<trkpt lat="46.1520400" lon="10.4469250">
	<ele>2483.40</ele>
	<time>2023-08-09T05:28:36.000Z</time>
</trkpt>
<trkpt lat="46.1520420" lon="10.4469290">
	<ele>2483.40</ele>
	<time>2023-08-09T05:28:37.000Z</time>
</trkpt>
<trkpt lat="46.1520430" lon="10.4469340">
	<ele>2483.60</ele>
	<time>2023-08-09T05:28:38.000Z</time>
</trkpt>
<trkpt lat="46.1520420" lon="10.4469420">
	<ele>2483.60</ele>
	<time>2023-08-09T05:28:39.000Z</time>
</trkpt>
<trkpt lat="46.1520430" lon="10.4469510">
	<ele>2483.60</ele>
	<time>2023-08-09T05:28:40.000Z</time>
</trkpt>
<trkpt lat="46.1520420" lon="10.4469610">
	<ele>2483.80</ele>
	<time>2023-08-09T05:28:41.000Z</time>
</trkpt>
<trkpt lat="46.1520430" lon="10.4469660">
	<ele>2484.00</ele>
	<time>2023-08-09T05:28:42.000Z</time>
</trkpt>
<trkpt lat="46.1520430" lon="10.4469690">
	<ele>2484.00</ele>
	<time>2023-08-09T05:28:43.000Z</time>
</trkpt>
<trkpt lat="46.1520440" lon="10.4469710">
	<ele>2484.00</ele>
	<time>2023-08-09T05:28:44.000Z</time>
</trkpt>
<trkpt lat="46.1520440" lon="10.4469780">
	<ele>2484.20</ele>
	<time>2023-08-09T05:28:45.000Z</time>
</trkpt>
<trkpt lat="46.1520460" lon="10.4469880">
	<ele>2484.20</ele>
	<time>2023-08-09T05:28:46.000Z</time>
</trkpt>
<trkpt lat="46.1520480" lon="10.4469950">
	<ele>2484.20</ele>
	<time>2023-08-09T05:28:47.000Z</time>
</trkpt>
<trkpt lat="46.1520480" lon="10.4469990">
	<ele>2484.60</ele>
	<time>2023-08-09T05:28:48.000Z</time>
</trkpt>
<trkpt lat="46.1520490" lon="10.4470010">
	<ele>2484.80</ele>
	<time>2023-08-09T05:28:49.000Z</time>
</trkpt>
<trkpt lat="46.1520490" lon="10.4470010">
	<ele>2484.80</ele>
	<time>2023-08-09T05:28:50.000Z</time>
</trkpt>
<trkpt lat="46.1520510" lon="10.4470050">
	<ele>2484.80</ele>
	<time>2023-08-09T05:28:51.000Z</time>
</trkpt>
<trkpt lat="46.1520540" lon="10.4470130">
	<ele>2485.00</ele>
	<time>2023-08-09T05:28:52.000Z</time>
</trkpt>
<trkpt lat="46.1520550" lon="10.4470250">
	<ele>2485.00</ele>
	<time>2023-08-09T05:28:53.000Z</time>
</trkpt>
<trkpt lat="46.1520530" lon="10.4470370">
	<ele>2485.00</ele>
	<time>2023-08-09T05:28:54.000Z</time>
</trkpt>
<trkpt lat="46.1520530" lon="10.4470430">
	<ele>2485.20</ele>
	<time>2023-08-09T05:28:55.000Z</time>
</trkpt>
<trkpt lat="46.1520530" lon="10.4470480">
	<ele>2485.40</ele>
	<time>2023-08-09T05:28:56.000Z</time>
</trkpt>
<trkpt lat="46.1520520" lon="10.4470550">
	<ele>2485.60</ele>
	<time>2023-08-09T05:28:57.000Z</time>
</trkpt>
<trkpt lat="46.1520500" lon="10.4470610">
	<ele>2485.60</ele>
	<time>2023-08-09T05:28:58.000Z</time>
</trkpt>
<trkpt lat="46.1520490" lon="10.4470650">
	<ele>2485.80</ele>
	<time>2023-08-09T05:28:59.000Z</time>
</trkpt>
<trkpt lat="46.1520460" lon="10.4470660">
	<ele>2486.00</ele>
	<time>2023-08-09T05:29:00.000Z</time>
</trkpt>
<trkpt lat="46.1520510" lon="10.4470700">
	<ele>2486.20</ele>
	<time>2023-08-09T05:29:01.000Z</time>
</trkpt>
<trkpt lat="46.1520520" lon="10.4470760">
	<ele>2486.40</ele>
	<time>2023-08-09T05:29:02.000Z</time>
</trkpt>
<trkpt lat="46.1520530" lon="10.4470780">
	<ele>2486.60</ele>
	<time>2023-08-09T05:29:03.000Z</time>
</trkpt>
<trkpt lat="46.1520540" lon="10.4470800">
	<ele>2486.60</ele>
	<time>2023-08-09T05:29:04.000Z</time>
</trkpt>
<trkpt lat="46.1520550" lon="10.4470870">
	<ele>2486.80</ele>
	<time>2023-08-09T05:29:05.000Z</time>
</trkpt>
<trkpt lat="46.1520560" lon="10.4470930">
	<ele>2486.80</ele>
	<time>2023-08-09T05:29:06.000Z</time>
</trkpt>
<trkpt lat="46.1520570" lon="10.4470970">
	<ele>2487.00</ele>
	<time>2023-08-09T05:29:07.000Z</time>
</trkpt>
<trkpt lat="46.1520560" lon="10.4471000">
	<ele>2487.20</ele>
	<time>2023-08-09T05:29:08.000Z</time>
</trkpt>
<trkpt lat="46.1520540" lon="10.4471100">
	<ele>2487.40</ele>
	<time>2023-08-09T05:29:09.000Z</time>
</trkpt>
<trkpt lat="46.1520540" lon="10.4471160">
	<ele>2487.60</ele>
	<time>2023-08-09T05:29:10.000Z</time>
</trkpt>
<trkpt lat="46.1520530" lon="10.4471220">
	<ele>2487.80</ele>
	<time>2023-08-09T05:29:11.000Z</time>
</trkpt>
<trkpt lat="46.1520500" lon="10.4471270">
	<ele>2487.80</ele>
	<time>2023-08-09T05:29:12.000Z</time>
</trkpt>
<trkpt lat="46.1520480" lon="10.4471360">
	<ele>2488.00</ele>
	<time>2023-08-09T05:29:13.000Z</time>
</trkpt>
<trkpt lat="46.1520490" lon="10.4471410">
	<ele>2488.00</ele>
	<time>2023-08-09T05:29:14.000Z</time>
</trkpt>
<trkpt lat="46.1520540" lon="10.4471490">
	<ele>2488.00</ele>
	<time>2023-08-09T05:29:15.000Z</time>
</trkpt>
<trkpt lat="46.1520560" lon="10.4471570">
	<ele>2488.20</ele>
	<time>2023-08-09T05:29:16.000Z</time>
</trkpt>
<trkpt lat="46.1520560" lon="10.4471640">
	<ele>2488.20</ele>
	<time>2023-08-09T05:29:17.000Z</time>
</trkpt>
<trkpt lat="46.1520570" lon="10.4471700">
	<ele>2488.40</ele>
	<time>2023-08-09T05:29:18.000Z</time>
</trkpt>
<trkpt lat="46.1520610" lon="10.4471810">
	<ele>2488.60</ele>
	<time>2023-08-09T05:29:19.000Z</time>
</trkpt>
<trkpt lat="46.1520630" lon="10.4471850">
	<ele>2488.60</ele>
	<time>2023-08-09T05:29:20.000Z</time>
</trkpt>
<trkpt lat="46.1520660" lon="10.4471880">
	<ele>2488.80</ele>
	<time>2023-08-09T05:29:21.000Z</time>
</trkpt>
<trkpt lat="46.1520720" lon="10.4471980">
	<ele>2489.00</ele>
	<time>2023-08-09T05:29:22.000Z</time>
</trkpt>
<trkpt lat="46.1520760" lon="10.4472070">
	<ele>2489.00</ele>
	<time>2023-08-09T05:29:23.000Z</time>
</trkpt>
<trkpt lat="46.1520800" lon="10.4472160">
	<ele>2489.00</ele>
	<time>2023-08-09T05:29:24.000Z</time>
</trkpt>
<trkpt lat="46.1520800" lon="10.4472210">
	<ele>2489.00</ele>
	<time>2023-08-09T05:29:25.000Z</time>
</trkpt>
<trkpt lat="46.1520810" lon="10.4472260">
	<ele>2489.20</ele>
	<time>2023-08-09T05:29:26.000Z</time>
</trkpt>
<trkpt lat="46.1520820" lon="10.4472310">
	<ele>2489.40</ele>
	<time>2023-08-09T05:29:27.000Z</time>
</trkpt>
<trkpt lat="46.1520830" lon="10.4472340">
	<ele>2489.40</ele>
	<time>2023-08-09T05:29:28.000Z</time>
</trkpt>
<trkpt lat="46.1520850" lon="10.4472360">
	<ele>2489.40</ele>
	<time>2023-08-09T05:29:29.000Z</time>
</trkpt>
<trkpt lat="46.1520870" lon="10.4472380">
	<ele>2489.60</ele>
	<time>2023-08-09T05:29:30.000Z</time>
</trkpt>
<trkpt lat="46.1520900" lon="10.4472440">
	<ele>2489.60</ele>
	<time>2023-08-09T05:29:31.000Z</time>
</trkpt>
<trkpt lat="46.1520920" lon="10.4472510">
	<ele>2489.80</ele>
	<time>2023-08-09T05:29:32.000Z</time>
</trkpt>
<trkpt lat="46.1520910" lon="10.4472560">
	<ele>2490.00</ele>
	<time>2023-08-09T05:29:33.000Z</time>
</trkpt>
<trkpt lat="46.1520890" lon="10.4472590">
	<ele>2490.00</ele>
	<time>2023-08-09T05:29:34.000Z</time>
</trkpt>
<trkpt lat="46.1520870" lon="10.4472660">
	<ele>2490.20</ele>
	<time>2023-08-09T05:29:35.000Z</time>
</trkpt>
<trkpt lat="46.1520850" lon="10.4472750">
	<ele>2490.20</ele>
	<time>2023-08-09T05:29:36.000Z</time>
</trkpt>
<trkpt lat="46.1520840" lon="10.4472810">
	<ele>2490.20</ele>
	<time>2023-08-09T05:29:37.000Z</time>
</trkpt>
<trkpt lat="46.1520860" lon="10.4472910">
	<ele>2490.20</ele>
	<time>2023-08-09T05:29:38.000Z</time>
</trkpt>
<trkpt lat="46.1520890" lon="10.4473000">
	<ele>2490.20</ele>
	<time>2023-08-09T05:29:39.000Z</time>
</trkpt>
<trkpt lat="46.1520890" lon="10.4473090">
	<ele>2490.40</ele>
	<time>2023-08-09T05:29:40.000Z</time>
</trkpt>
<trkpt lat="46.1520880" lon="10.4473160">
	<ele>2490.40</ele>
	<time>2023-08-09T05:29:41.000Z</time>
</trkpt>
<trkpt lat="46.1520880" lon="10.4473270">
	<ele>2490.40</ele>
	<time>2023-08-09T05:29:42.000Z</time>
</trkpt>
<trkpt lat="46.1520890" lon="10.4473370">
	<ele>2490.60</ele>
	<time>2023-08-09T05:29:43.000Z</time>
</trkpt>
<trkpt lat="46.1520870" lon="10.4473410">
	<ele>2490.40</ele>
	<time>2023-08-09T05:29:44.000Z</time>
</trkpt>
<trkpt lat="46.1520850" lon="10.4473470">
	<ele>2490.40</ele>
	<time>2023-08-09T05:29:45.000Z</time>
</trkpt>
<trkpt lat="46.1520810" lon="10.4473540">
	<ele>2490.40</ele>
	<time>2023-08-09T05:29:46.000Z</time>
</trkpt>
<trkpt lat="46.1520800" lon="10.4473590">
	<ele>2490.40</ele>
	<time>2023-08-09T05:29:47.000Z</time>
</trkpt>
<trkpt lat="46.1520780" lon="10.4473630">
	<ele>2490.20</ele>
	<time>2023-08-09T05:29:48.000Z</time>
</trkpt>
<trkpt lat="46.1520750" lon="10.4473660">
	<ele>2490.20</ele>
	<time>2023-08-09T05:29:49.000Z</time>
</trkpt>
<trkpt lat="46.1520730" lon="10.4473690">
	<ele>2490.20</ele>
	<time>2023-08-09T05:29:50.000Z</time>
</trkpt>
<trkpt lat="46.1520720" lon="10.4473750">
	<ele>2490.40</ele>
	<time>2023-08-09T05:29:51.000Z</time>
</trkpt>
<trkpt lat="46.1520700" lon="10.4473800">
	<ele>2490.40</ele>
	<time>2023-08-09T05:29:52.000Z</time>
</trkpt>
<trkpt lat="46.1520670" lon="10.4473850">
	<ele>2490.40</ele>
	<time>2023-08-09T05:29:53.000Z</time>
</trkpt>
<trkpt lat="46.1520650" lon="10.4473920">
	<ele>2490.60</ele>
	<time>2023-08-09T05:29:54.000Z</time>
</trkpt>
<trkpt lat="46.1520650" lon="10.4473970">
	<ele>2490.60</ele>
	<time>2023-08-09T05:29:55.000Z</time>
</trkpt>
<trkpt lat="46.1520660" lon="10.4474000">
	<ele>2490.80</ele>
	<time>2023-08-09T05:29:56.000Z</time>
</trkpt>
<trkpt lat="46.1520680" lon="10.4474030">
	<ele>2490.80</ele>
	<time>2023-08-09T05:29:57.000Z</time>
</trkpt>
<trkpt lat="46.1520690" lon="10.4474110">
	<ele>2490.80</ele>
	<time>2023-08-09T05:29:58.000Z</time>
</trkpt>
<trkpt lat="46.1520690" lon="10.4474170">
	<ele>2490.80</ele>
	<time>2023-08-09T05:29:59.000Z</time>
</trkpt>
<trkpt lat="46.1520690" lon="10.4474230">
	<ele>2491.20</ele>
	<time>2023-08-09T05:30:00.000Z</time>
</trkpt>
<trkpt lat="46.1520640" lon="10.4474250">
	<ele>2491.40</ele>
	<time>2023-08-09T05:30:01.000Z</time>
</trkpt>
<trkpt lat="46.1520610" lon="10.4474280">
	<ele>2491.40</ele>
	<time>2023-08-09T05:30:02.000Z</time>
</trkpt>
<trkpt lat="46.1520570" lon="10.4474320">
	<ele>2491.60</ele>
	<time>2023-08-09T05:30:03.000Z</time>
</trkpt>
<trkpt lat="46.1520570" lon="10.4474380">
	<ele>2491.60</ele>
	<time>2023-08-09T05:30:04.000Z</time>
</trkpt>
<trkpt lat="46.1520530" lon="10.4474450">
	<ele>2491.80</ele>
	<time>2023-08-09T05:30:05.000Z</time>
</trkpt>
<trkpt lat="46.1520490" lon="10.4474540">
	<ele>2492.00</ele>
	<time>2023-08-09T05:30:06.000Z</time>
</trkpt>
<trkpt lat="46.1520480" lon="10.4474630">
	<ele>2492.00</ele>
	<time>2023-08-09T05:30:07.000Z</time>
</trkpt>
<trkpt lat="46.1520470" lon="10.4474680">
	<ele>2492.00</ele>
	<time>2023-08-09T05:30:08.000Z</time>
</trkpt>
<trkpt lat="46.1520460" lon="10.4474750">
	<ele>2492.20</ele>
	<time>2023-08-09T05:30:09.000Z</time>
</trkpt>
<trkpt lat="46.1520460" lon="10.4474850">
	<ele>2492.40</ele>
	<time>2023-08-09T05:30:10.000Z</time>
</trkpt>
<trkpt lat="46.1520480" lon="10.4474910">
	<ele>2492.40</ele>
	<time>2023-08-09T05:30:11.000Z</time>
</trkpt>
<trkpt lat="46.1520500" lon="10.4475000">
	<ele>2492.60</ele>
	<time>2023-08-09T05:30:12.000Z</time>
</trkpt>
<trkpt lat="46.1520520" lon="10.4475100">
	<ele>2492.80</ele>
	<time>2023-08-09T05:30:13.000Z</time>
</trkpt>
<trkpt lat="46.1520520" lon="10.4475160">
	<ele>2493.00</ele>
	<time>2023-08-09T05:30:14.000Z</time>
</trkpt>
<trkpt lat="46.1520500" lon="10.4475210">
	<ele>2493.00</ele>
	<time>2023-08-09T05:30:15.000Z</time>
</trkpt>
<trkpt lat="46.1520490" lon="10.4475260">
	<ele>2493.20</ele>
	<time>2023-08-09T05:30:16.000Z</time>
</trkpt>
<trkpt lat="46.1520490" lon="10.4475310">
	<ele>2493.20</ele>
	<time>2023-08-09T05:30:17.000Z</time>
</trkpt>
<trkpt lat="46.1520510" lon="10.4475380">
	<ele>2493.20</ele>
	<time>2023-08-09T05:30:18.000Z</time>
</trkpt>
<trkpt lat="46.1520530" lon="10.4475460">
	<ele>2493.40</ele>
	<time>2023-08-09T05:30:19.000Z</time>
</trkpt>
<trkpt lat="46.1520570" lon="10.4475580">
	<ele>2493.40</ele>
	<time>2023-08-09T05:30:20.000Z</time>
</trkpt>
<trkpt lat="46.1520550" lon="10.4475660">
	<ele>2493.60</ele>
	<time>2023-08-09T05:30:21.000Z</time>
</trkpt>
<trkpt lat="46.1520510" lon="10.4475740">
	<ele>2493.80</ele>
	<time>2023-08-09T05:30:22.000Z</time>
</trkpt>
<trkpt lat="46.1520500" lon="10.4475840">
	<ele>2494.00</ele>
	<time>2023-08-09T05:30:23.000Z</time>
</trkpt>
<trkpt lat="46.1520490" lon="10.4475940">
	<ele>2494.00</ele>
	<time>2023-08-09T05:30:24.000Z</time>
</trkpt>
<trkpt lat="46.1520470" lon="10.4476000">
	<ele>2494.20</ele>
	<time>2023-08-09T05:30:25.000Z</time>
</trkpt>
<trkpt lat="46.1520440" lon="10.4476070">
	<ele>2494.60</ele>
	<time>2023-08-09T05:30:26.000Z</time>
</trkpt>
<trkpt lat="46.1520420" lon="10.4476130">
	<ele>2494.80</ele>
	<time>2023-08-09T05:30:27.000Z</time>
</trkpt>
<trkpt lat="46.1520430" lon="10.4476200">
	<ele>2494.80</ele>
	<time>2023-08-09T05:30:28.000Z</time>
</trkpt>
<trkpt lat="46.1520450" lon="10.4476230">
	<ele>2494.80</ele>
	<time>2023-08-09T05:30:29.000Z</time>
</trkpt>
<trkpt lat="46.1520480" lon="10.4476270">
	<ele>2494.80</ele>
	<time>2023-08-09T05:30:30.000Z</time>
</trkpt>
<trkpt lat="46.1520500" lon="10.4476290">
	<ele>2495.00</ele>
	<time>2023-08-09T05:30:31.000Z</time>
</trkpt>
<trkpt lat="46.1520520" lon="10.4476330">
	<ele>2495.00</ele>
	<time>2023-08-09T05:30:32.000Z</time>
</trkpt>
<trkpt lat="46.1520520" lon="10.4476390">
	<ele>2495.00</ele>
	<time>2023-08-09T05:30:33.000Z</time>
</trkpt>
<trkpt lat="46.1520520" lon="10.4476470">
	<ele>2495.00</ele>
	<time>2023-08-09T05:30:34.000Z</time>
</trkpt>
<trkpt lat="46.1520510" lon="10.4476520">
	<ele>2495.20</ele>
	<time>2023-08-09T05:30:35.000Z</time>
</trkpt>
<trkpt lat="46.1520510" lon="10.4476570">
	<ele>2495.40</ele>
	<time>2023-08-09T05:30:36.000Z</time>
</trkpt>
<trkpt lat="46.1520480" lon="10.4476620">
	<ele>2495.40</ele>
	<time>2023-08-09T05:30:37.000Z</time>
</trkpt>
<trkpt lat="46.1520440" lon="10.4476670">
	<ele>2495.60</ele>
	<time>2023-08-09T05:30:38.000Z</time>
</trkpt>
<trkpt lat="46.1520410" lon="10.4476710">
	<ele>2495.60</ele>
	<time>2023-08-09T05:30:39.000Z</time>
</trkpt>
<trkpt lat="46.1520330" lon="10.4476740">
	<ele>2495.80</ele>
	<time>2023-08-09T05:30:40.000Z</time>
</trkpt>
<trkpt lat="46.1520300" lon="10.4476780">
	<ele>2496.00</ele>
	<time>2023-08-09T05:30:41.000Z</time>
</trkpt>
<trkpt lat="46.1520280" lon="10.4476830">
	<ele>2496.20</ele>
	<time>2023-08-09T05:30:42.000Z</time>
</trkpt>
<trkpt lat="46.1520270" lon="10.4476880">
	<ele>2496.20</ele>
	<time>2023-08-09T05:30:43.000Z</time>
</trkpt>
<trkpt lat="46.1520250" lon="10.4476940">
	<ele>2496.20</ele>
	<time>2023-08-09T05:30:44.000Z</time>
</trkpt>
<trkpt lat="46.1520210" lon="10.4477030">
	<ele>2496.40</ele>
	<time>2023-08-09T05:30:45.000Z</time>
</trkpt>
<trkpt lat="46.1520150" lon="10.4477120">
	<ele>2496.40</ele>
	<time>2023-08-09T05:30:46.000Z</time>
</trkpt>
<trkpt lat="46.1520110" lon="10.4477190">
	<ele>2496.60</ele>
	<time>2023-08-09T05:30:47.000Z</time>
</trkpt>
<trkpt lat="46.1520090" lon="10.4477250">
	<ele>2496.60</ele>
	<time>2023-08-09T05:30:48.000Z</time>
</trkpt>
<trkpt lat="46.1520080" lon="10.4477280">
	<ele>2496.60</ele>
	<time>2023-08-09T05:30:49.000Z</time>
</trkpt>
<trkpt lat="46.1520080" lon="10.4477390">
	<ele>2496.80</ele>
	<time>2023-08-09T05:30:50.000Z</time>
</trkpt>
<trkpt lat="46.1520090" lon="10.4477460">
	<ele>2497.00</ele>
	<time>2023-08-09T05:30:51.000Z</time>
</trkpt>
<trkpt lat="46.1520090" lon="10.4477510">
	<ele>2497.00</ele>
	<time>2023-08-09T05:30:52.000Z</time>
</trkpt>
<trkpt lat="46.1520080" lon="10.4477550">
	<ele>2497.20</ele>
	<time>2023-08-09T05:30:53.000Z</time>
</trkpt>
<trkpt lat="46.1520100" lon="10.4477600">
	<ele>2497.40</ele>
	<time>2023-08-09T05:30:54.000Z</time>
</trkpt>
<trkpt lat="46.1520120" lon="10.4477650">
	<ele>2497.40</ele>
	<time>2023-08-09T05:30:55.000Z</time>
</trkpt>
<trkpt lat="46.1520150" lon="10.4477680">
	<ele>2497.60</ele>
	<time>2023-08-09T05:30:56.000Z</time>
</trkpt>
<trkpt lat="46.1520170" lon="10.4477710">
	<ele>2497.80</ele>
	<time>2023-08-09T05:30:57.000Z</time>
</trkpt>
<trkpt lat="46.1520130" lon="10.4477760">
	<ele>2498.00</ele>
	<time>2023-08-09T05:30:58.000Z</time>
</trkpt>
<trkpt lat="46.1520110" lon="10.4477830">
	<ele>2498.00</ele>
	<time>2023-08-09T05:30:59.000Z</time>
</trkpt>
<trkpt lat="46.1520100" lon="10.4477920">
	<ele>2498.00</ele>
	<time>2023-08-09T05:31:00.000Z</time>
</trkpt>
<trkpt lat="46.1520120" lon="10.4477990">
	<ele>2498.20</ele>
	<time>2023-08-09T05:31:01.000Z</time>
</trkpt>
<trkpt lat="46.1520130" lon="10.4478090">
	<ele>2498.20</ele>
	<time>2023-08-09T05:31:02.000Z</time>
</trkpt>
<trkpt lat="46.1520140" lon="10.4478160">
	<ele>2498.20</ele>
	<time>2023-08-09T05:31:03.000Z</time>
</trkpt>
<trkpt lat="46.1520140" lon="10.4478210">
	<ele>2498.40</ele>
	<time>2023-08-09T05:31:04.000Z</time>
</trkpt>
<trkpt lat="46.1520130" lon="10.4478260">
	<ele>2498.40</ele>
	<time>2023-08-09T05:31:05.000Z</time>
</trkpt>
<trkpt lat="46.1520170" lon="10.4478340">
	<ele>2498.40</ele>
	<time>2023-08-09T05:31:06.000Z</time>
</trkpt>
<trkpt lat="46.1520160" lon="10.4478450">
	<ele>2498.60</ele>
	<time>2023-08-09T05:31:07.000Z</time>
</trkpt>
<trkpt lat="46.1520160" lon="10.4478520">
	<ele>2498.80</ele>
	<time>2023-08-09T05:31:08.000Z</time>
</trkpt>
<trkpt lat="46.1520150" lon="10.4478580">
	<ele>2499.00</ele>
	<time>2023-08-09T05:31:09.000Z</time>
</trkpt>
<trkpt lat="46.1520150" lon="10.4478650">
	<ele>2499.20</ele>
	<time>2023-08-09T05:31:10.000Z</time>
</trkpt>
<trkpt lat="46.1520150" lon="10.4478690">
	<ele>2499.40</ele>
	<time>2023-08-09T05:31:11.000Z</time>
</trkpt>
<trkpt lat="46.1520170" lon="10.4478720">
	<ele>2499.40</ele>
	<time>2023-08-09T05:31:12.000Z</time>
</trkpt>
<trkpt lat="46.1520150" lon="10.4478750">
	<ele>2499.60</ele>
	<time>2023-08-09T05:31:13.000Z</time>
</trkpt>
<trkpt lat="46.1520120" lon="10.4478830">
	<ele>2499.80</ele>
	<time>2023-08-09T05:31:14.000Z</time>
</trkpt>
<trkpt lat="46.1520080" lon="10.4478900">
	<ele>2500.00</ele>
	<time>2023-08-09T05:31:15.000Z</time>
</trkpt>
<trkpt lat="46.1520070" lon="10.4478970">
	<ele>2500.00</ele>
	<time>2023-08-09T05:31:16.000Z</time>
</trkpt>
<trkpt lat="46.1520050" lon="10.4479010">
	<ele>2500.00</ele>
	<time>2023-08-09T05:31:17.000Z</time>
</trkpt>
<trkpt lat="46.1520040" lon="10.4479030">
	<ele>2500.20</ele>
	<time>2023-08-09T05:31:18.000Z</time>
</trkpt>
<trkpt lat="46.1520060" lon="10.4479020">
	<ele>2500.20</ele>
	<time>2023-08-09T05:31:19.000Z</time>
</trkpt>
<trkpt lat="46.1520090" lon="10.4479080">
	<ele>2500.20</ele>
	<time>2023-08-09T05:31:20.000Z</time>
</trkpt>
<trkpt lat="46.1520080" lon="10.4479150">
	<ele>2500.40</ele>
	<time>2023-08-09T05:31:21.000Z</time>
</trkpt>
<trkpt lat="46.1520080" lon="10.4479280">
	<ele>2500.60</ele>
	<time>2023-08-09T05:31:22.000Z</time>
</trkpt>
<trkpt lat="46.1520090" lon="10.4479350">
	<ele>2500.60</ele>
	<time>2023-08-09T05:31:23.000Z</time>
</trkpt>
<trkpt lat="46.1520080" lon="10.4479400">
	<ele>2500.80</ele>
	<time>2023-08-09T05:31:24.000Z</time>
</trkpt>
<trkpt lat="46.1520040" lon="10.4479490">
	<ele>2500.80</ele>
	<time>2023-08-09T05:31:25.000Z</time>
</trkpt>
<trkpt lat="46.1520000" lon="10.4479550">
	<ele>2500.80</ele>
	<time>2023-08-09T05:31:26.000Z</time>
</trkpt>
<trkpt lat="46.1519960" lon="10.4479610">
	<ele>2501.00</ele>
	<time>2023-08-09T05:31:27.000Z</time>
</trkpt>
<trkpt lat="46.1519920" lon="10.4479660">
	<ele>2501.00</ele>
	<time>2023-08-09T05:31:28.000Z</time>
</trkpt>
<trkpt lat="46.1519920" lon="10.4479750">
	<ele>2501.20</ele>
	<time>2023-08-09T05:31:29.000Z</time>
</trkpt>
<trkpt lat="46.1519890" lon="10.4479840">
	<ele>2501.20</ele>
	<time>2023-08-09T05:31:30.000Z</time>
</trkpt>
<trkpt lat="46.1519890" lon="10.4479930">
	<ele>2501.20</ele>
	<time>2023-08-09T05:31:31.000Z</time>
</trkpt>
<trkpt lat="46.1519870" lon="10.4480020">
	<ele>2501.20</ele>
	<time>2023-08-09T05:31:32.000Z</time>
</trkpt>
<trkpt lat="46.1519830" lon="10.4480110">
	<ele>2501.40</ele>
	<time>2023-08-09T05:31:33.000Z</time>
</trkpt>
<trkpt lat="46.1519800" lon="10.4480170">
	<ele>2501.60</ele>
	<time>2023-08-09T05:31:34.000Z</time>
</trkpt>
<trkpt lat="46.1519760" lon="10.4480220">
	<ele>2501.80</ele>
	<time>2023-08-09T05:31:35.000Z</time>
</trkpt>
<trkpt lat="46.1519720" lon="10.4480310">
	<ele>2501.80</ele>
	<time>2023-08-09T05:31:36.000Z</time>
</trkpt>
<trkpt lat="46.1519690" lon="10.4480380">
	<ele>2501.80</ele>
	<time>2023-08-09T05:31:37.000Z</time>
</trkpt>
<trkpt lat="46.1519650" lon="10.4480450">
	<ele>2502.00</ele>
	<time>2023-08-09T05:31:38.000Z</time>
</trkpt>
<trkpt lat="46.1519590" lon="10.4480530">
	<ele>2502.20</ele>
	<time>2023-08-09T05:31:39.000Z</time>
</trkpt>
<trkpt lat="46.1519540" lon="10.4480570">
	<ele>2502.40</ele>
	<time>2023-08-09T05:31:40.000Z</time>
</trkpt>
<trkpt lat="46.1519540" lon="10.4480670">
	<ele>2502.60</ele>
	<time>2023-08-09T05:31:41.000Z</time>
</trkpt>
<trkpt lat="46.1519560" lon="10.4480800">
	<ele>2502.60</ele>
	<time>2023-08-09T05:31:42.000Z</time>
</trkpt>
<trkpt lat="46.1519560" lon="10.4480890">
	<ele>2502.60</ele>
	<time>2023-08-09T05:31:43.000Z</time>
</trkpt>
<trkpt lat="46.1519580" lon="10.4481020">
	<ele>2502.60</ele>
	<time>2023-08-09T05:31:44.000Z</time>
</trkpt>
<trkpt lat="46.1519570" lon="10.4481100">
	<ele>2502.60</ele>
	<time>2023-08-09T05:31:45.000Z</time>
</trkpt>
<trkpt lat="46.1519550" lon="10.4481200">
	<ele>2502.60</ele>
	<time>2023-08-09T05:31:46.000Z</time>
</trkpt>
<trkpt lat="46.1519530" lon="10.4481260">
	<ele>2502.80</ele>
	<time>2023-08-09T05:31:47.000Z</time>
</trkpt>
<trkpt lat="46.1519470" lon="10.4481320">
	<ele>2502.80</ele>
	<time>2023-08-09T05:31:48.000Z</time>
</trkpt>
<trkpt lat="46.1519470" lon="10.4481470">
	<ele>2502.80</ele>
	<time>2023-08-09T05:31:49.000Z</time>
</trkpt>
<trkpt lat="46.1519450" lon="10.4481600">
	<ele>2502.80</ele>
	<time>2023-08-09T05:31:50.000Z</time>
</trkpt>
<trkpt lat="46.1519480" lon="10.4481760">
	<ele>2503.00</ele>
	<time>2023-08-09T05:31:51.000Z</time>
</trkpt>
<trkpt lat="46.1519500" lon="10.4481900">
	<ele>2503.00</ele>
	<time>2023-08-09T05:31:52.000Z</time>
</trkpt>
<trkpt lat="46.1519500" lon="10.4482010">
	<ele>2503.00</ele>
	<time>2023-08-09T05:31:53.000Z</time>
</trkpt>
<trkpt lat="46.1519510" lon="10.4482140">
	<ele>2503.20</ele>
	<time>2023-08-09T05:31:54.000Z</time>
</trkpt>
<trkpt lat="46.1519510" lon="10.4482240">
	<ele>2503.20</ele>
	<time>2023-08-09T05:31:55.000Z</time>
</trkpt>
<trkpt lat="46.1519570" lon="10.4482340">
	<ele>2503.40</ele>
	<time>2023-08-09T05:31:56.000Z</time>
</trkpt>
<trkpt lat="46.1519560" lon="10.4482450">
	<ele>2503.60</ele>
	<time>2023-08-09T05:31:57.000Z</time>
</trkpt>
<trkpt lat="46.1519580" lon="10.4482610">
	<ele>2503.60</ele>
	<time>2023-08-09T05:31:58.000Z</time>
</trkpt>
<trkpt lat="46.1519640" lon="10.4482760">
	<ele>2503.60</ele>
	<time>2023-08-09T05:31:59.000Z</time>
</trkpt>
<trkpt lat="46.1519680" lon="10.4482840">
	<ele>2503.60</ele>
	<time>2023-08-09T05:32:00.000Z</time>
</trkpt>
<trkpt lat="46.1519700" lon="10.4482970">
	<ele>2503.80</ele>
	<time>2023-08-09T05:32:01.000Z</time>
</trkpt>
<trkpt lat="46.1519710" lon="10.4483100">
	<ele>2503.80</ele>
	<time>2023-08-09T05:32:02.000Z</time>
</trkpt>
<trkpt lat="46.1519700" lon="10.4483180">
	<ele>2503.80</ele>
	<time>2023-08-09T05:32:03.000Z</time>
</trkpt>
<trkpt lat="46.1519680" lon="10.4483280">
	<ele>2503.60</ele>
	<time>2023-08-09T05:32:04.000Z</time>
</trkpt>
<trkpt lat="46.1519640" lon="10.4483390">
	<ele>2503.60</ele>
	<time>2023-08-09T05:32:05.000Z</time>
</trkpt>
<trkpt lat="46.1519630" lon="10.4483490">
	<ele>2503.80</ele>
	<time>2023-08-09T05:32:06.000Z</time>
</trkpt>
<trkpt lat="46.1519640" lon="10.4483600">
	<ele>2503.80</ele>
	<time>2023-08-09T05:32:07.000Z</time>
</trkpt>
<trkpt lat="46.1519660" lon="10.4483730">
	<ele>2503.80</ele>
	<time>2023-08-09T05:32:08.000Z</time>
</trkpt>
<trkpt lat="46.1519660" lon="10.4483830">
	<ele>2504.00</ele>
	<time>2023-08-09T05:32:09.000Z</time>
</trkpt>
<trkpt lat="46.1519670" lon="10.4483960">
	<ele>2504.00</ele>
	<time>2023-08-09T05:32:10.000Z</time>
</trkpt>
<trkpt lat="46.1519650" lon="10.4484120">
	<ele>2504.00</ele>
	<time>2023-08-09T05:32:11.000Z</time>
</trkpt>
<trkpt lat="46.1519590" lon="10.4484230">
	<ele>2504.00</ele>
	<time>2023-08-09T05:32:12.000Z</time>
</trkpt>
<trkpt lat="46.1519540" lon="10.4484330">
	<ele>2504.00</ele>
	<time>2023-08-09T05:32:13.000Z</time>
</trkpt>
<trkpt lat="46.1519510" lon="10.4484440">
	<ele>2504.20</ele>
	<time>2023-08-09T05:32:14.000Z</time>
</trkpt>
<trkpt lat="46.1519470" lon="10.4484560">
	<ele>2504.20</ele>
	<time>2023-08-09T05:32:15.000Z</time>
</trkpt>
<trkpt lat="46.1519440" lon="10.4484660">
	<ele>2504.20</ele>
	<time>2023-08-09T05:32:16.000Z</time>
</trkpt>
<trkpt lat="46.1519420" lon="10.4484800">
	<ele>2504.20</ele>
	<time>2023-08-09T05:32:17.000Z</time>
</trkpt>
<trkpt lat="46.1519400" lon="10.4484920">
	<ele>2504.20</ele>
	<time>2023-08-09T05:32:18.000Z</time>
</trkpt>
<trkpt lat="46.1519430" lon="10.4485040">
	<ele>2504.20</ele>
	<time>2023-08-09T05:32:19.000Z</time>
</trkpt>
<trkpt lat="46.1519500" lon="10.4485160">
	<ele>2504.40</ele>
	<time>2023-08-09T05:32:20.000Z</time>
</trkpt>
<trkpt lat="46.1519530" lon="10.4485250">
	<ele>2504.60</ele>
	<time>2023-08-09T05:32:21.000Z</time>
</trkpt>
<trkpt lat="46.1519520" lon="10.4485310">
	<ele>2504.60</ele>
	<time>2023-08-09T05:32:22.000Z</time>
</trkpt>
<trkpt lat="46.1519490" lon="10.4485380">
	<ele>2504.60</ele>
	<time>2023-08-09T05:32:23.000Z</time>
</trkpt>
<trkpt lat="46.1519500" lon="10.4485460">
	<ele>2504.80</ele>
	<time>2023-08-09T05:32:24.000Z</time>
</trkpt>
<trkpt lat="46.1519500" lon="10.4485550">
	<ele>2504.80</ele>
	<time>2023-08-09T05:32:25.000Z</time>
</trkpt>
<trkpt lat="46.1519510" lon="10.4485640">
	<ele>2505.00</ele>
	<time>2023-08-09T05:32:26.000Z</time>
</trkpt>
<trkpt lat="46.1519540" lon="10.4485750">
	<ele>2505.00</ele>
	<time>2023-08-09T05:32:27.000Z</time>
</trkpt>
<trkpt lat="46.1519520" lon="10.4485840">
	<ele>2505.00</ele>
	<time>2023-08-09T05:32:28.000Z</time>
</trkpt>
<trkpt lat="46.1519500" lon="10.4485950">
	<ele>2505.20</ele>
	<time>2023-08-09T05:32:29.000Z</time>
</trkpt>
<trkpt lat="46.1519500" lon="10.4486070">
	<ele>2505.40</ele>
	<time>2023-08-09T05:32:30.000Z</time>
</trkpt>
<trkpt lat="46.1519500" lon="10.4486200">
	<ele>2505.40</ele>
	<time>2023-08-09T05:32:31.000Z</time>
</trkpt>
<trkpt lat="46.1519480" lon="10.4486300">
	<ele>2505.60</ele>
	<time>2023-08-09T05:32:32.000Z</time>
</trkpt>
<trkpt lat="46.1519460" lon="10.4486370">
	<ele>2505.60</ele>
	<time>2023-08-09T05:32:33.000Z</time>
</trkpt>
<trkpt lat="46.1519460" lon="10.4486490">
	<ele>2505.80</ele>
	<time>2023-08-09T05:32:34.000Z</time>
</trkpt>
<trkpt lat="46.1519450" lon="10.4486570">
	<ele>2506.00</ele>
	<time>2023-08-09T05:32:35.000Z</time>
</trkpt>
<trkpt lat="46.1519380" lon="10.4486620">
	<ele>2506.00</ele>
	<time>2023-08-09T05:32:36.000Z</time>
</trkpt>
<trkpt lat="46.1519340" lon="10.4486690">
	<ele>2506.20</ele>
	<time>2023-08-09T05:32:37.000Z</time>
</trkpt>
<trkpt lat="46.1519310" lon="10.4486810">
	<ele>2506.20</ele>
	<time>2023-08-09T05:32:38.000Z</time>
</trkpt>
<trkpt lat="46.1519300" lon="10.4486920">
	<ele>2506.20</ele>
	<time>2023-08-09T05:32:39.000Z</time>
</trkpt>
<trkpt lat="46.1519270" lon="10.4486990">
	<ele>2506.20</ele>
	<time>2023-08-09T05:32:40.000Z</time>
</trkpt>
<trkpt lat="46.1519220" lon="10.4487060">
	<ele>2506.40</ele>
	<time>2023-08-09T05:32:41.000Z</time>
</trkpt>
<trkpt lat="46.1519190" lon="10.4487120">
	<ele>2506.40</ele>
	<time>2023-08-09T05:32:42.000Z</time>
</trkpt>
<trkpt lat="46.1519180" lon="10.4487170">
	<ele>2506.60</ele>
	<time>2023-08-09T05:32:43.000Z</time>
</trkpt>
<trkpt lat="46.1519170" lon="10.4487250">
	<ele>2506.80</ele>
	<time>2023-08-09T05:32:44.000Z</time>
</trkpt>
<trkpt lat="46.1519170" lon="10.4487370">
	<ele>2506.80</ele>
	<time>2023-08-09T05:32:45.000Z</time>
</trkpt>
<trkpt lat="46.1519210" lon="10.4487500">
	<ele>2506.80</ele>
	<time>2023-08-09T05:32:46.000Z</time>
</trkpt>
<trkpt lat="46.1519220" lon="10.4487620">
	<ele>2507.00</ele>
	<time>2023-08-09T05:32:47.000Z</time>
</trkpt>
<trkpt lat="46.1519230" lon="10.4487730">
	<ele>2507.00</ele>
	<time>2023-08-09T05:32:48.000Z</time>
</trkpt>
<trkpt lat="46.1519260" lon="10.4487830">
	<ele>2507.20</ele>
	<time>2023-08-09T05:32:49.000Z</time>
</trkpt>
<trkpt lat="46.1519290" lon="10.4487950">
	<ele>2507.40</ele>
	<time>2023-08-09T05:32:50.000Z</time>
</trkpt>
<trkpt lat="46.1519280" lon="10.4488030">
	<ele>2507.60</ele>
	<time>2023-08-09T05:32:51.000Z</time>
</trkpt>
<trkpt lat="46.1519290" lon="10.4488100">
	<ele>2507.60</ele>
	<time>2023-08-09T05:32:52.000Z</time>
</trkpt>
<trkpt lat="46.1519300" lon="10.4488120">
	<ele>2507.60</ele>
	<time>2023-08-09T05:32:53.000Z</time>
</trkpt>
<trkpt lat="46.1519320" lon="10.4488170">
	<ele>2507.80</ele>
	<time>2023-08-09T05:32:54.000Z</time>
</trkpt>
<trkpt lat="46.1519350" lon="10.4488200">
	<ele>2507.80</ele>
	<time>2023-08-09T05:32:55.000Z</time>
</trkpt>
<trkpt lat="46.1519400" lon="10.4488220">
	<ele>2508.00</ele>
	<time>2023-08-09T05:32:56.000Z</time>
</trkpt>
<trkpt lat="46.1519460" lon="10.4488300">
	<ele>2508.00</ele>
	<time>2023-08-09T05:32:57.000Z</time>
</trkpt>
<trkpt lat="46.1519510" lon="10.4488400">
	<ele>2508.20</ele>
	<time>2023-08-09T05:32:58.000Z</time>
</trkpt>
<trkpt lat="46.1519530" lon="10.4488480">
	<ele>2508.40</ele>
	<time>2023-08-09T05:32:59.000Z</time>
</trkpt>
<trkpt lat="46.1519520" lon="10.4488520">
	<ele>2508.60</ele>
	<time>2023-08-09T05:33:00.000Z</time>
</trkpt>
<trkpt lat="46.1519480" lon="10.4488620">
	<ele>2508.80</ele>
	<time>2023-08-09T05:33:01.000Z</time>
</trkpt>
<trkpt lat="46.1519410" lon="10.4488690">
	<ele>2508.80</ele>
	<time>2023-08-09T05:33:02.000Z</time>
</trkpt>
<trkpt lat="46.1519380" lon="10.4488810">
	<ele>2508.80</ele>
	<time>2023-08-09T05:33:03.000Z</time>
</trkpt>
<trkpt lat="46.1519380" lon="10.4488900">
	<ele>2509.00</ele>
	<time>2023-08-09T05:33:04.000Z</time>
</trkpt>
<trkpt lat="46.1519380" lon="10.4488960">
	<ele>2509.00</ele>
	<time>2023-08-09T05:33:05.000Z</time>
</trkpt>
<trkpt lat="46.1519390" lon="10.4489000">
	<ele>2509.00</ele>
	<time>2023-08-09T05:33:06.000Z</time>
</trkpt>
<trkpt lat="46.1519380" lon="10.4489070">
	<ele>2509.20</ele>
	<time>2023-08-09T05:33:07.000Z</time>
</trkpt>
<trkpt lat="46.1519390" lon="10.4489170">
	<ele>2509.20</ele>
	<time>2023-08-09T05:33:08.000Z</time>
</trkpt>
<trkpt lat="46.1519370" lon="10.4489220">
	<ele>2509.40</ele>
	<time>2023-08-09T05:33:09.000Z</time>
</trkpt>
<trkpt lat="46.1519370" lon="10.4489320">
	<ele>2509.60</ele>
	<time>2023-08-09T05:33:10.000Z</time>
</trkpt>
<trkpt lat="46.1519410" lon="10.4489370">
	<ele>2509.60</ele>
	<time>2023-08-09T05:33:11.000Z</time>
</trkpt>
<trkpt lat="46.1519440" lon="10.4489480">
	<ele>2509.80</ele>
	<time>2023-08-09T05:33:12.000Z</time>
</trkpt>
<trkpt lat="46.1519440" lon="10.4489560">
	<ele>2509.80</ele>
	<time>2023-08-09T05:33:13.000Z</time>
</trkpt>
<trkpt lat="46.1519410" lon="10.4489650">
	<ele>2510.20</ele>
	<time>2023-08-09T05:33:14.000Z</time>
</trkpt>
<trkpt lat="46.1519420" lon="10.4489750">
	<ele>2510.40</ele>
	<time>2023-08-09T05:33:15.000Z</time>
</trkpt>
<trkpt lat="46.1519420" lon="10.4489840">
	<ele>2510.40</ele>
	<time>2023-08-09T05:33:16.000Z</time>
</trkpt>
<trkpt lat="46.1519410" lon="10.4489950">
	<ele>2510.60</ele>
	<time>2023-08-09T05:33:17.000Z</time>
</trkpt>
<trkpt lat="46.1519420" lon="10.4490050">
	<ele>2510.60</ele>
	<time>2023-08-09T05:33:18.000Z</time>
</trkpt>
<trkpt lat="46.1519470" lon="10.4490150">
	<ele>2510.60</ele>
	<time>2023-08-09T05:33:19.000Z</time>
</trkpt>
<trkpt lat="46.1519500" lon="10.4490260">
	<ele>2510.60</ele>
	<time>2023-08-09T05:33:20.000Z</time>
</trkpt>
<trkpt lat="46.1519520" lon="10.4490370">
	<ele>2510.80</ele>
	<time>2023-08-09T05:33:21.000Z</time>
</trkpt>
<trkpt lat="46.1519520" lon="10.4490490">
	<ele>2510.80</ele>
	<time>2023-08-09T05:33:22.000Z</time>
</trkpt>
<trkpt lat="46.1519550" lon="10.4490590">
	<ele>2511.00</ele>
	<time>2023-08-09T05:33:23.000Z</time>
</trkpt>
<trkpt lat="46.1519540" lon="10.4490720">
	<ele>2511.00</ele>
	<time>2023-08-09T05:33:24.000Z</time>
</trkpt>
<trkpt lat="46.1519510" lon="10.4490820">
	<ele>2511.20</ele>
	<time>2023-08-09T05:33:25.000Z</time>
</trkpt>
<trkpt lat="46.1519530" lon="10.4490950">
	<ele>2511.20</ele>
	<time>2023-08-09T05:33:26.000Z</time>
</trkpt>
<trkpt lat="46.1519530" lon="10.4491050">
	<ele>2511.40</ele>
	<time>2023-08-09T05:33:27.000Z</time>
</trkpt>
<trkpt lat="46.1519530" lon="10.4491160">
	<ele>2511.60</ele>
	<time>2023-08-09T05:33:28.000Z</time>
</trkpt>
<trkpt lat="46.1519540" lon="10.4491250">
	<ele>2511.60</ele>
	<time>2023-08-09T05:33:29.000Z</time>
</trkpt>
<trkpt lat="46.1519510" lon="10.4491340">
	<ele>2511.60</ele>
	<time>2023-08-09T05:33:30.000Z</time>
</trkpt>
<trkpt lat="46.1519440" lon="10.4491440">
	<ele>2511.80</ele>
	<time>2023-08-09T05:33:31.000Z</time>
</trkpt>
<trkpt lat="46.1519420" lon="10.4491490">
	<ele>2512.00</ele>
	<time>2023-08-09T05:33:32.000Z</time>
</trkpt>
<trkpt lat="46.1519380" lon="10.4491580">
	<ele>2512.00</ele>
	<time>2023-08-09T05:33:33.000Z</time>
</trkpt>
<trkpt lat="46.1519370" lon="10.4491700">
	<ele>2512.00</ele>
	<time>2023-08-09T05:33:34.000Z</time>
</trkpt>
<trkpt lat="46.1519360" lon="10.4491830">
	<ele>2512.00</ele>
	<time>2023-08-09T05:33:35.000Z</time>
</trkpt>
<trkpt lat="46.1519360" lon="10.4491990">
	<ele>2512.00</ele>
	<time>2023-08-09T05:33:36.000Z</time>
</trkpt>
<trkpt lat="46.1519330" lon="10.4492120">
	<ele>2512.00</ele>
	<time>2023-08-09T05:33:37.000Z</time>
</trkpt>
<trkpt lat="46.1519300" lon="10.4492200">
	<ele>2512.00</ele>
	<time>2023-08-09T05:33:38.000Z</time>
</trkpt>
<trkpt lat="46.1519320" lon="10.4492340">
	<ele>2512.00</ele>
	<time>2023-08-09T05:33:39.000Z</time>
</trkpt>
<trkpt lat="46.1519340" lon="10.4492460">
	<ele>2512.20</ele>
	<time>2023-08-09T05:33:40.000Z</time>
</trkpt>
<trkpt lat="46.1519330" lon="10.4492540">
	<ele>2512.20</ele>
	<time>2023-08-09T05:33:41.000Z</time>
</trkpt>
<trkpt lat="46.1519340" lon="10.4492640">
	<ele>2512.20</ele>
	<time>2023-08-09T05:33:42.000Z</time>
</trkpt>
<trkpt lat="46.1519380" lon="10.4492730">
	<ele>2512.40</ele>
	<time>2023-08-09T05:33:43.000Z</time>
</trkpt>
<trkpt lat="46.1519380" lon="10.4492780">
	<ele>2512.40</ele>
	<time>2023-08-09T05:33:44.000Z</time>
</trkpt>
<trkpt lat="46.1519400" lon="10.4492900">
	<ele>2512.60</ele>
	<time>2023-08-09T05:33:45.000Z</time>
</trkpt>
<trkpt lat="46.1519400" lon="10.4493010">
	<ele>2512.60</ele>
	<time>2023-08-09T05:33:46.000Z</time>
</trkpt>
<trkpt lat="46.1519380" lon="10.4493080">
	<ele>2512.80</ele>
	<time>2023-08-09T05:33:47.000Z</time>
</trkpt>
<trkpt lat="46.1519390" lon="10.4493220">
	<ele>2512.80</ele>
	<time>2023-08-09T05:33:48.000Z</time>
</trkpt>
<trkpt lat="46.1519410" lon="10.4493340">
	<ele>2512.80</ele>
	<time>2023-08-09T05:33:49.000Z</time>
</trkpt>
<trkpt lat="46.1519390" lon="10.4493470">
	<ele>2512.80</ele>
	<time>2023-08-09T05:33:50.000Z</time>
</trkpt>
<trkpt lat="46.1519350" lon="10.4493630">
	<ele>2512.80</ele>
	<time>2023-08-09T05:33:51.000Z</time>
</trkpt>
<trkpt lat="46.1519320" lon="10.4493670">
	<ele>2512.80</ele>
	<time>2023-08-09T05:33:52.000Z</time>
</trkpt>
<trkpt lat="46.1519380" lon="10.4493740">
	<ele>2512.60</ele>
	<time>2023-08-09T05:33:53.000Z</time>
</trkpt>
<trkpt lat="46.1519450" lon="10.4493920">
	<ele>2512.60</ele>
	<time>2023-08-09T05:33:54.000Z</time>
</trkpt>
<trkpt lat="46.1519430" lon="10.4494060">
	<ele>2512.60</ele>
	<time>2023-08-09T05:33:55.000Z</time>
</trkpt>
<trkpt lat="46.1519400" lon="10.4494150">
	<ele>2512.60</ele>
	<time>2023-08-09T05:33:56.000Z</time>
</trkpt>
<trkpt lat="46.1519430" lon="10.4494320">
	<ele>2512.60</ele>
	<time>2023-08-09T05:33:57.000Z</time>
</trkpt>
<trkpt lat="46.1519430" lon="10.4494460">
	<ele>2512.60</ele>
	<time>2023-08-09T05:33:58.000Z</time>
</trkpt>
<trkpt lat="46.1519400" lon="10.4494540">
	<ele>2512.40</ele>
	<time>2023-08-09T05:33:59.000Z</time>
</trkpt>
<trkpt lat="46.1519400" lon="10.4494590">
	<ele>2512.40</ele>
	<time>2023-08-09T05:34:00.000Z</time>
</trkpt>
<trkpt lat="46.1519390" lon="10.4494730">
	<ele>2512.40</ele>
	<time>2023-08-09T05:34:01.000Z</time>
</trkpt>
<trkpt lat="46.1519380" lon="10.4494850">
	<ele>2512.40</ele>
	<time>2023-08-09T05:34:02.000Z</time>
</trkpt>
<trkpt lat="46.1519350" lon="10.4494920">
	<ele>2512.20</ele>
	<time>2023-08-09T05:34:03.000Z</time>
</trkpt>
<trkpt lat="46.1519360" lon="10.4495040">
	<ele>2512.20</ele>
	<time>2023-08-09T05:34:04.000Z</time>
</trkpt>
<trkpt lat="46.1519380" lon="10.4495140">
	<ele>2512.00</ele>
	<time>2023-08-09T05:34:05.000Z</time>
</trkpt>
<trkpt lat="46.1519420" lon="10.4495300">
	<ele>2512.00</ele>
	<time>2023-08-09T05:34:06.000Z</time>
</trkpt>
<trkpt lat="46.1519440" lon="10.4495430">
	<ele>2511.80</ele>
	<time>2023-08-09T05:34:07.000Z</time>
</trkpt>
<trkpt lat="46.1519440" lon="10.4495530">
	<ele>2511.80</ele>
	<time>2023-08-09T05:34:08.000Z</time>
</trkpt>
<trkpt lat="46.1519450" lon="10.4495670">
	<ele>2511.60</ele>
	<time>2023-08-09T05:34:09.000Z</time>
</trkpt>
<trkpt lat="46.1519480" lon="10.4495800">
	<ele>2511.60</ele>
	<time>2023-08-09T05:34:10.000Z</time>
</trkpt>
<trkpt lat="46.1519530" lon="10.4495920">
	<ele>2511.60</ele>
	<time>2023-08-09T05:34:11.000Z</time>
</trkpt>
<trkpt lat="46.1519550" lon="10.4496000">
	<ele>2511.60</ele>
	<time>2023-08-09T05:34:12.000Z</time>
</trkpt>
<trkpt lat="46.1519620" lon="10.4496090">
	<ele>2511.60</ele>
	<time>2023-08-09T05:34:13.000Z</time>
</trkpt>
<trkpt lat="46.1519650" lon="10.4496190">
	<ele>2511.60</ele>
	<time>2023-08-09T05:34:14.000Z</time>
</trkpt>
<trkpt lat="46.1519670" lon="10.4496280">
	<ele>2511.60</ele>
	<time>2023-08-09T05:34:15.000Z</time>
</trkpt>
<trkpt lat="46.1519700" lon="10.4496370">
	<ele>2511.60</ele>
	<time>2023-08-09T05:34:16.000Z</time>
</trkpt>
<trkpt lat="46.1519770" lon="10.4496470">
	<ele>2511.60</ele>
	<time>2023-08-09T05:34:17.000Z</time>
</trkpt>
<trkpt lat="46.1519810" lon="10.4496510">
	<ele>2511.60</ele>
	<time>2023-08-09T05:34:18.000Z</time>
</trkpt>
<trkpt lat="46.1519890" lon="10.4496550">
	<ele>2511.60</ele>
	<time>2023-08-09T05:34:19.000Z</time>
</trkpt>
<trkpt lat="46.1519960" lon="10.4496580">
	<ele>2511.60</ele>
	<time>2023-08-09T05:34:20.000Z</time>
</trkpt>
<trkpt lat="46.1520040" lon="10.4496640">
	<ele>2511.60</ele>
	<time>2023-08-09T05:34:21.000Z</time>
</trkpt>
<trkpt lat="46.1520060" lon="10.4496740">
	<ele>2511.60</ele>
	<time>2023-08-09T05:34:22.000Z</time>
</trkpt>
<trkpt lat="46.1520090" lon="10.4496880">
	<ele>2511.40</ele>
	<time>2023-08-09T05:34:23.000Z</time>
</trkpt>
<trkpt lat="46.1520100" lon="10.4496990">
	<ele>2511.40</ele>
	<time>2023-08-09T05:34:24.000Z</time>
</trkpt>
<trkpt lat="46.1520120" lon="10.4497120">
	<ele>2511.40</ele>
	<time>2023-08-09T05:34:25.000Z</time>
</trkpt>
<trkpt lat="46.1520140" lon="10.4497300">
	<ele>2511.40</ele>
	<time>2023-08-09T05:34:26.000Z</time>
</trkpt>
<trkpt lat="46.1520170" lon="10.4497460">
	<ele>2511.40</ele>
	<time>2023-08-09T05:34:27.000Z</time>
</trkpt>
<trkpt lat="46.1520220" lon="10.4497620">
	<ele>2511.60</ele>
	<time>2023-08-09T05:34:28.000Z</time>
</trkpt>
<trkpt lat="46.1520280" lon="10.4497740">
	<ele>2511.80</ele>
	<time>2023-08-09T05:34:29.000Z</time>
</trkpt>
<trkpt lat="46.1520300" lon="10.4497850">
	<ele>2511.80</ele>
	<time>2023-08-09T05:34:30.000Z</time>
</trkpt>
<trkpt lat="46.1520310" lon="10.4497930">
	<ele>2512.00</ele>
	<time>2023-08-09T05:34:31.000Z</time>
</trkpt>
<trkpt lat="46.1520310" lon="10.4498010">
	<ele>2512.20</ele>
	<time>2023-08-09T05:34:32.000Z</time>
</trkpt>
<trkpt lat="46.1520280" lon="10.4498000">
	<ele>2512.40</ele>
	<time>2023-08-09T05:34:33.000Z</time>
</trkpt>
<trkpt lat="46.1520260" lon="10.4498080">
	<ele>2512.60</ele>
	<time>2023-08-09T05:34:34.000Z</time>
</trkpt>
<trkpt lat="46.1520250" lon="10.4498220">
	<ele>2512.60</ele>
	<time>2023-08-09T05:34:35.000Z</time>
</trkpt>
<trkpt lat="46.1520230" lon="10.4498300">
	<ele>2512.80</ele>
	<time>2023-08-09T05:34:36.000Z</time>
</trkpt>
<trkpt lat="46.1520240" lon="10.4498350">
	<ele>2512.80</ele>
	<time>2023-08-09T05:34:37.000Z</time>
</trkpt>
<trkpt lat="46.1520220" lon="10.4498410">
	<ele>2512.80</ele>
	<time>2023-08-09T05:34:38.000Z</time>
</trkpt>
<trkpt lat="46.1520210" lon="10.4498560">
	<ele>2512.80</ele>
	<time>2023-08-09T05:34:39.000Z</time>
</trkpt>
<trkpt lat="46.1520200" lon="10.4498730">
	<ele>2512.80</ele>
	<time>2023-08-09T05:34:40.000Z</time>
</trkpt>
<trkpt lat="46.1520180" lon="10.4498880">
	<ele>2513.00</ele>
	<time>2023-08-09T05:34:41.000Z</time>
</trkpt>
<trkpt lat="46.1520140" lon="10.4498980">
	<ele>2513.20</ele>
	<time>2023-08-09T05:34:42.000Z</time>
</trkpt>
<trkpt lat="46.1520120" lon="10.4499120">
	<ele>2513.20</ele>
	<time>2023-08-09T05:34:43.000Z</time>
</trkpt>
<trkpt lat="46.1520090" lon="10.4499280">
	<ele>2513.20</ele>
	<time>2023-08-09T05:34:44.000Z</time>
</trkpt>
<trkpt lat="46.1520080" lon="10.4499400">
	<ele>2513.20</ele>
	<time>2023-08-09T05:34:45.000Z</time>
</trkpt>
<trkpt lat="46.1520060" lon="10.4499520">
	<ele>2513.40</ele>
	<time>2023-08-09T05:34:46.000Z</time>
</trkpt>
<trkpt lat="46.1520050" lon="10.4499640">
	<ele>2513.40</ele>
	<time>2023-08-09T05:34:47.000Z</time>
</trkpt>
<trkpt lat="46.1520030" lon="10.4499720">
	<ele>2513.60</ele>
	<time>2023-08-09T05:34:48.000Z</time>
</trkpt>
<trkpt lat="46.1520030" lon="10.4499850">
	<ele>2513.80</ele>
	<time>2023-08-09T05:34:49.000Z</time>
</trkpt>
<trkpt lat="46.1519990" lon="10.4499990">
	<ele>2513.80</ele>
	<time>2023-08-09T05:34:50.000Z</time>
</trkpt>
<trkpt lat="46.1519960" lon="10.4500150">
	<ele>2514.00</ele>
	<time>2023-08-09T05:34:51.000Z</time>
</trkpt>
<trkpt lat="46.1519940" lon="10.4500280">
	<ele>2514.00</ele>
	<time>2023-08-09T05:34:52.000Z</time>
</trkpt>
<trkpt lat="46.1519930" lon="10.4500400">
	<ele>2514.20</ele>
	<time>2023-08-09T05:34:53.000Z</time>
</trkpt>
<trkpt lat="46.1519940" lon="10.4500540">
	<ele>2514.20</ele>
	<time>2023-08-09T05:34:54.000Z</time>
</trkpt>
<trkpt lat="46.1519910" lon="10.4500680">
	<ele>2514.00</ele>
	<time>2023-08-09T05:34:55.000Z</time>
</trkpt>
<trkpt lat="46.1519890" lon="10.4500790">
	<ele>2514.00</ele>
	<time>2023-08-09T05:34:56.000Z</time>
</trkpt>
<trkpt lat="46.1519880" lon="10.4500880">
	<ele>2514.00</ele>
	<time>2023-08-09T05:34:57.000Z</time>
</trkpt>
<trkpt lat="46.1519880" lon="10.4500960">
	<ele>2513.80</ele>
	<time>2023-08-09T05:34:58.000Z</time>
</trkpt>
<trkpt lat="46.1519870" lon="10.4501070">
	<ele>2513.80</ele>
	<time>2023-08-09T05:34:59.000Z</time>
</trkpt>
<trkpt lat="46.1519860" lon="10.4501170">
	<ele>2513.80</ele>
	<time>2023-08-09T05:35:00.000Z</time>
</trkpt>
<trkpt lat="46.1519880" lon="10.4501270">
	<ele>2513.80</ele>
	<time>2023-08-09T05:35:01.000Z</time>
</trkpt>
<trkpt lat="46.1519870" lon="10.4501350">
	<ele>2513.80</ele>
	<time>2023-08-09T05:35:02.000Z</time>
</trkpt>
<trkpt lat="46.1519880" lon="10.4501450">
	<ele>2513.80</ele>
	<time>2023-08-09T05:35:03.000Z</time>
</trkpt>
<trkpt lat="46.1519900" lon="10.4501550">
	<ele>2513.80</ele>
	<time>2023-08-09T05:35:04.000Z</time>
</trkpt>
<trkpt lat="46.1519920" lon="10.4501630">
	<ele>2513.80</ele>
	<time>2023-08-09T05:35:05.000Z</time>
</trkpt>
<trkpt lat="46.1519910" lon="10.4501750">
	<ele>2513.80</ele>
	<time>2023-08-09T05:35:06.000Z</time>
</trkpt>
<trkpt lat="46.1519830" lon="10.4501890">
	<ele>2513.80</ele>
	<time>2023-08-09T05:35:07.000Z</time>
</trkpt>
<trkpt lat="46.1519770" lon="10.4501980">
	<ele>2513.80</ele>
	<time>2023-08-09T05:35:08.000Z</time>
</trkpt>
<trkpt lat="46.1519730" lon="10.4502060">
	<ele>2513.80</ele>
	<time>2023-08-09T05:35:09.000Z</time>
</trkpt>
<trkpt lat="46.1519690" lon="10.4502110">
	<ele>2513.80</ele>
	<time>2023-08-09T05:35:10.000Z</time>
</trkpt>
<trkpt lat="46.1519690" lon="10.4502210">
	<ele>2513.60</ele>
	<time>2023-08-09T05:35:11.000Z</time>
</trkpt>
<trkpt lat="46.1519700" lon="10.4502360">
	<ele>2513.60</ele>
	<time>2023-08-09T05:35:12.000Z</time>
</trkpt>
<trkpt lat="46.1519720" lon="10.4502510">
	<ele>2513.60</ele>
	<time>2023-08-09T05:35:13.000Z</time>
</trkpt>
<trkpt lat="46.1519770" lon="10.4502640">
	<ele>2513.60</ele>
	<time>2023-08-09T05:35:14.000Z</time>
</trkpt>
<trkpt lat="46.1519840" lon="10.4502770">
	<ele>2513.60</ele>
	<time>2023-08-09T05:35:15.000Z</time>
</trkpt>
<trkpt lat="46.1519900" lon="10.4502890">
	<ele>2513.60</ele>
	<time>2023-08-09T05:35:16.000Z</time>
</trkpt>
<trkpt lat="46.1519940" lon="10.4502980">
	<ele>2513.60</ele>
	<time>2023-08-09T05:35:17.000Z</time>
</trkpt>
<trkpt lat="46.1519960" lon="10.4503070">
	<ele>2513.40</ele>
	<time>2023-08-09T05:35:18.000Z</time>
</trkpt>
<trkpt lat="46.1519970" lon="10.4503170">
	<ele>2513.40</ele>
	<time>2023-08-09T05:35:19.000Z</time>
</trkpt>
<trkpt lat="46.1519940" lon="10.4503270">
	<ele>2513.40</ele>
	<time>2023-08-09T05:35:20.000Z</time>
</trkpt>
<trkpt lat="46.1519900" lon="10.4503330">
	<ele>2513.40</ele>
	<time>2023-08-09T05:35:21.000Z</time>
</trkpt>
<trkpt lat="46.1519870" lon="10.4503400">
	<ele>2513.40</ele>
	<time>2023-08-09T05:35:22.000Z</time>
</trkpt>
<trkpt lat="46.1519910" lon="10.4503530">
	<ele>2513.20</ele>
	<time>2023-08-09T05:35:23.000Z</time>
</trkpt>
<trkpt lat="46.1519850" lon="10.4503670">
	<ele>2513.20</ele>
	<time>2023-08-09T05:35:24.000Z</time>
</trkpt>
<trkpt lat="46.1519820" lon="10.4503880">
	<ele>2513.00</ele>
	<time>2023-08-09T05:35:25.000Z</time>
</trkpt>
<trkpt lat="46.1519770" lon="10.4503960">
	<ele>2513.00</ele>
	<time>2023-08-09T05:35:26.000Z</time>
</trkpt>
<trkpt lat="46.1519740" lon="10.4504030">
	<ele>2513.00</ele>
	<time>2023-08-09T05:35:27.000Z</time>
</trkpt>
<trkpt lat="46.1519720" lon="10.4504090">
	<ele>2513.00</ele>
	<time>2023-08-09T05:35:28.000Z</time>
</trkpt>
<trkpt lat="46.1519690" lon="10.4504170">
	<ele>2513.00</ele>
	<time>2023-08-09T05:35:29.000Z</time>
</trkpt>
<trkpt lat="46.1519650" lon="10.4504250">
	<ele>2513.00</ele>
	<time>2023-08-09T05:35:30.000Z</time>
</trkpt>
<trkpt lat="46.1519610" lon="10.4504360">
	<ele>2512.80</ele>
	<time>2023-08-09T05:35:31.000Z</time>
</trkpt>
<trkpt lat="46.1519590" lon="10.4504420">
	<ele>2512.80</ele>
	<time>2023-08-09T05:35:32.000Z</time>
</trkpt>
<trkpt lat="46.1519580" lon="10.4504470">
	<ele>2512.80</ele>
	<time>2023-08-09T05:35:33.000Z</time>
</trkpt>
<trkpt lat="46.1519590" lon="10.4504560">
	<ele>2512.80</ele>
	<time>2023-08-09T05:35:34.000Z</time>
</trkpt>
<trkpt lat="46.1519590" lon="10.4504630">
	<ele>2512.80</ele>
	<time>2023-08-09T05:35:35.000Z</time>
</trkpt>
<trkpt lat="46.1519590" lon="10.4504690">
	<ele>2512.80</ele>
	<time>2023-08-09T05:35:36.000Z</time>
</trkpt>
<trkpt lat="46.1519620" lon="10.4504730">
	<ele>2513.00</ele>
	<time>2023-08-09T05:35:37.000Z</time>
</trkpt>
<trkpt lat="46.1519650" lon="10.4504770">
	<ele>2513.20</ele>
	<time>2023-08-09T05:35:38.000Z</time>
</trkpt>
<trkpt lat="46.1519720" lon="10.4504790">
	<ele>2513.20</ele>
	<time>2023-08-09T05:35:39.000Z</time>
</trkpt>
<trkpt lat="46.1519820" lon="10.4504800">
	<ele>2513.20</ele>
	<time>2023-08-09T05:35:40.000Z</time>
</trkpt>
<trkpt lat="46.1519920" lon="10.4504850">
	<ele>2513.40</ele>
	<time>2023-08-09T05:35:41.000Z</time>
</trkpt>
<trkpt lat="46.1519980" lon="10.4504850">
	<ele>2513.40</ele>
	<time>2023-08-09T05:35:42.000Z</time>
</trkpt>
<trkpt lat="46.1520050" lon="10.4504840">
	<ele>2513.40</ele>
	<time>2023-08-09T05:35:43.000Z</time>
</trkpt>
<trkpt lat="46.1520140" lon="10.4504880">
	<ele>2513.40</ele>
	<time>2023-08-09T05:35:44.000Z</time>
</trkpt>
<trkpt lat="46.1520170" lon="10.4504940">
	<ele>2513.40</ele>
	<time>2023-08-09T05:35:45.000Z</time>
</trkpt>
<trkpt lat="46.1520200" lon="10.4504980">
	<ele>2513.40</ele>
	<time>2023-08-09T05:35:46.000Z</time>
</trkpt>
<trkpt lat="46.1520210" lon="10.4505040">
	<ele>2513.40</ele>
	<time>2023-08-09T05:35:47.000Z</time>
</trkpt>
<trkpt lat="46.1520200" lon="10.4505060">
	<ele>2513.40</ele>
	<time>2023-08-09T05:35:48.000Z</time>
</trkpt>
<trkpt lat="46.1520200" lon="10.4505120">
	<ele>2513.40</ele>
	<time>2023-08-09T05:35:49.000Z</time>
</trkpt>
<trkpt lat="46.1520250" lon="10.4505220">
	<ele>2513.40</ele>
	<time>2023-08-09T05:35:50.000Z</time>
</trkpt>
<trkpt lat="46.1520260" lon="10.4505290">
	<ele>2513.40</ele>
	<time>2023-08-09T05:35:51.000Z</time>
</trkpt>
<trkpt lat="46.1520260" lon="10.4505350">
	<ele>2513.20</ele>
	<time>2023-08-09T05:35:52.000Z</time>
</trkpt>
<trkpt lat="46.1520270" lon="10.4505380">
	<ele>2513.20</ele>
	<time>2023-08-09T05:35:53.000Z</time>
</trkpt>
<trkpt lat="46.1520280" lon="10.4505400">
	<ele>2513.20</ele>
	<time>2023-08-09T05:35:54.000Z</time>
</trkpt>
<trkpt lat="46.1520320" lon="10.4505480">
	<ele>2513.00</ele>
	<time>2023-08-09T05:35:55.000Z</time>
</trkpt>
<trkpt lat="46.1520330" lon="10.4505560">
	<ele>2513.00</ele>
	<time>2023-08-09T05:35:56.000Z</time>
</trkpt>
<trkpt lat="46.1520350" lon="10.4505620">
	<ele>2512.80</ele>
	<time>2023-08-09T05:35:57.000Z</time>
</trkpt>
<trkpt lat="46.1520370" lon="10.4505680">
	<ele>2512.80</ele>
	<time>2023-08-09T05:35:58.000Z</time>
</trkpt>
<trkpt lat="46.1520410" lon="10.4505790">
	<ele>2512.60</ele>
	<time>2023-08-09T05:35:59.000Z</time>
</trkpt>
<trkpt lat="46.1520420" lon="10.4505870">
	<ele>2512.60</ele>
	<time>2023-08-09T05:36:00.000Z</time>
</trkpt>
<trkpt lat="46.1520430" lon="10.4505940">
	<ele>2512.60</ele>
	<time>2023-08-09T05:36:01.000Z</time>
</trkpt>
<trkpt lat="46.1520430" lon="10.4506020">
	<ele>2512.80</ele>
	<time>2023-08-09T05:36:02.000Z</time>
</trkpt>
<trkpt lat="46.1520430" lon="10.4506050">
	<ele>2512.80</ele>
	<time>2023-08-09T05:36:03.000Z</time>
</trkpt>
<trkpt lat="46.1520450" lon="10.4506070">
	<ele>2512.80</ele>
	<time>2023-08-09T05:36:04.000Z</time>
</trkpt>
<trkpt lat="46.1520480" lon="10.4506070">
	<ele>2513.00</ele>
	<time>2023-08-09T05:36:05.000Z</time>
</trkpt>
<trkpt lat="46.1520540" lon="10.4506110">
	<ele>2513.20</ele>
	<time>2023-08-09T05:36:06.000Z</time>
</trkpt>
<trkpt lat="46.1520580" lon="10.4506170">
	<ele>2513.20</ele>
	<time>2023-08-09T05:36:07.000Z</time>
</trkpt>
<trkpt lat="46.1520610" lon="10.4506210">
	<ele>2513.20</ele>
	<time>2023-08-09T05:36:08.000Z</time>
</trkpt>
<trkpt lat="46.1520650" lon="10.4506280">
	<ele>2513.20</ele>
	<time>2023-08-09T05:36:09.000Z</time>
</trkpt>
<trkpt lat="46.1520680" lon="10.4506330">
	<ele>2513.20</ele>
	<time>2023-08-09T05:36:10.000Z</time>
</trkpt>
<trkpt lat="46.1520690" lon="10.4506390">
	<ele>2513.40</ele>
	<time>2023-08-09T05:36:11.000Z</time>
</trkpt>
<trkpt lat="46.1520720" lon="10.4506480">
	<ele>2513.40</ele>
	<time>2023-08-09T05:36:12.000Z</time>
</trkpt>
<trkpt lat="46.1520740" lon="10.4506520">
	<ele>2513.60</ele>
	<time>2023-08-09T05:36:13.000Z</time>
</trkpt>
<trkpt lat="46.1520760" lon="10.4506580">
	<ele>2513.80</ele>
	<time>2023-08-09T05:36:14.000Z</time>
</trkpt>
<trkpt lat="46.1520750" lon="10.4506640">
	<ele>2514.00</ele>
	<time>2023-08-09T05:36:15.000Z</time>
</trkpt>
<trkpt lat="46.1520760" lon="10.4506700">
	<ele>2514.20</ele>
	<time>2023-08-09T05:36:16.000Z</time>
</trkpt>
<trkpt lat="46.1520770" lon="10.4506780">
	<ele>2514.20</ele>
	<time>2023-08-09T05:36:17.000Z</time>
</trkpt>
<trkpt lat="46.1520790" lon="10.4506890">
	<ele>2514.20</ele>
	<time>2023-08-09T05:36:18.000Z</time>
</trkpt>
<trkpt lat="46.1520800" lon="10.4507000">
	<ele>2514.40</ele>
	<time>2023-08-09T05:36:19.000Z</time>
</trkpt>
<trkpt lat="46.1520800" lon="10.4507090">
	<ele>2514.40</ele>
	<time>2023-08-09T05:36:20.000Z</time>
</trkpt>
<trkpt lat="46.1520830" lon="10.4507170">
	<ele>2514.40</ele>
	<time>2023-08-09T05:36:21.000Z</time>
</trkpt>
<trkpt lat="46.1520860" lon="10.4507240">
	<ele>2514.60</ele>
	<time>2023-08-09T05:36:22.000Z</time>
</trkpt>
<trkpt lat="46.1520910" lon="10.4507310">
	<ele>2514.80</ele>
	<time>2023-08-09T05:36:23.000Z</time>
</trkpt>
<trkpt lat="46.1520940" lon="10.4507380">
	<ele>2514.80</ele>
	<time>2023-08-09T05:36:24.000Z</time>
</trkpt>
<trkpt lat="46.1520960" lon="10.4507460">
	<ele>2514.80</ele>
	<time>2023-08-09T05:36:25.000Z</time>
</trkpt>
<trkpt lat="46.1520970" lon="10.4507540">
	<ele>2514.80</ele>
	<time>2023-08-09T05:36:26.000Z</time>
</trkpt>
<trkpt lat="46.1520960" lon="10.4507660">
	<ele>2515.00</ele>
	<time>2023-08-09T05:36:27.000Z</time>
</trkpt>
<trkpt lat="46.1520960" lon="10.4507760">
	<ele>2515.00</ele>
	<time>2023-08-09T05:36:28.000Z</time>
</trkpt>
<trkpt lat="46.1520920" lon="10.4507840">
	<ele>2515.00</ele>
	<time>2023-08-09T05:36:29.000Z</time>
</trkpt>
<trkpt lat="46.1520950" lon="10.4507950">
	<ele>2515.20</ele>
	<time>2023-08-09T05:36:30.000Z</time>
</trkpt>
<trkpt lat="46.1520980" lon="10.4508000">
	<ele>2515.20</ele>
	<time>2023-08-09T05:36:31.000Z</time>
</trkpt>
<trkpt lat="46.1520980" lon="10.4508060">
	<ele>2515.40</ele>
	<time>2023-08-09T05:36:32.000Z</time>
</trkpt>
<trkpt lat="46.1520950" lon="10.4508140">
	<ele>2515.40</ele>
	<time>2023-08-09T05:36:33.000Z</time>
</trkpt>
<trkpt lat="46.1520970" lon="10.4508240">
	<ele>2515.40</ele>
	<time>2023-08-09T05:36:34.000Z</time>
</trkpt>
<trkpt lat="46.1521000" lon="10.4508420">
	<ele>2515.40</ele>
	<time>2023-08-09T05:36:35.000Z</time>
</trkpt>
<trkpt lat="46.1521000" lon="10.4508570">
	<ele>2515.40</ele>
	<time>2023-08-09T05:36:36.000Z</time>
</trkpt>
<trkpt lat="46.1520980" lon="10.4508690">
	<ele>2515.60</ele>
	<time>2023-08-09T05:36:37.000Z</time>
</trkpt>
<trkpt lat="46.1520950" lon="10.4508790">
	<ele>2515.60</ele>
	<time>2023-08-09T05:36:38.000Z</time>
</trkpt>
<trkpt lat="46.1520960" lon="10.4508880">
	<ele>2515.80</ele>
	<time>2023-08-09T05:36:39.000Z</time>
</trkpt>
<trkpt lat="46.1520990" lon="10.4508960">
	<ele>2516.00</ele>
	<time>2023-08-09T05:36:40.000Z</time>
</trkpt>
<trkpt lat="46.1520980" lon="10.4509090">
	<ele>2516.00</ele>
	<time>2023-08-09T05:36:41.000Z</time>
</trkpt>
<trkpt lat="46.1520960" lon="10.4509190">
	<ele>2516.20</ele>
	<time>2023-08-09T05:36:42.000Z</time>
</trkpt>
<trkpt lat="46.1520950" lon="10.4509340">
	<ele>2516.20</ele>
	<time>2023-08-09T05:36:43.000Z</time>
</trkpt>
<trkpt lat="46.1520920" lon="10.4509480">
	<ele>2516.20</ele>
	<time>2023-08-09T05:36:44.000Z</time>
</trkpt>
<trkpt lat="46.1520930" lon="10.4509630">
	<ele>2516.20</ele>
	<time>2023-08-09T05:36:45.000Z</time>
</trkpt>
<trkpt lat="46.1520930" lon="10.4509760">
	<ele>2516.20</ele>
	<time>2023-08-09T05:36:46.000Z</time>
</trkpt>
<trkpt lat="46.1520920" lon="10.4509880">
	<ele>2516.40</ele>
	<time>2023-08-09T05:36:47.000Z</time>
</trkpt>
<trkpt lat="46.1520920" lon="10.4509980">
	<ele>2516.40</ele>
	<time>2023-08-09T05:36:48.000Z</time>
</trkpt>
<trkpt lat="46.1520930" lon="10.4510130">
	<ele>2516.60</ele>
	<time>2023-08-09T05:36:49.000Z</time>
</trkpt>
<trkpt lat="46.1520930" lon="10.4510280">
	<ele>2516.60</ele>
	<time>2023-08-09T05:36:50.000Z</time>
</trkpt>
<trkpt lat="46.1520940" lon="10.4510370">
	<ele>2516.60</ele>
	<time>2023-08-09T05:36:51.000Z</time>
</trkpt>
<trkpt lat="46.1520940" lon="10.4510450">
	<ele>2517.00</ele>
	<time>2023-08-09T05:36:52.000Z</time>
</trkpt>
<trkpt lat="46.1520940" lon="10.4510530">
	<ele>2517.00</ele>
	<time>2023-08-09T05:36:53.000Z</time>
</trkpt>
<trkpt lat="46.1520910" lon="10.4510600">
	<ele>2517.40</ele>
	<time>2023-08-09T05:36:54.000Z</time>
</trkpt>
<trkpt lat="46.1520850" lon="10.4510670">
	<ele>2517.60</ele>
	<time>2023-08-09T05:36:55.000Z</time>
</trkpt>
<trkpt lat="46.1520850" lon="10.4510790">
	<ele>2517.80</ele>
	<time>2023-08-09T05:36:56.000Z</time>
</trkpt>
<trkpt lat="46.1520840" lon="10.4510910">
	<ele>2517.80</ele>
	<time>2023-08-09T05:36:57.000Z</time>
</trkpt>
<trkpt lat="46.1520860" lon="10.4511010">
	<ele>2518.00</ele>
	<time>2023-08-09T05:36:58.000Z</time>
</trkpt>
<trkpt lat="46.1520820" lon="10.4511100">
	<ele>2518.00</ele>
	<time>2023-08-09T05:36:59.000Z</time>
</trkpt>
<trkpt lat="46.1520800" lon="10.4511200">
	<ele>2518.00</ele>
	<time>2023-08-09T05:37:00.000Z</time>
</trkpt>
<trkpt lat="46.1520800" lon="10.4511300">
	<ele>2518.20</ele>
	<time>2023-08-09T05:37:01.000Z</time>
</trkpt>
<trkpt lat="46.1520800" lon="10.4511360">
	<ele>2518.20</ele>
	<time>2023-08-09T05:37:02.000Z</time>
</trkpt>
<trkpt lat="46.1520800" lon="10.4511440">
	<ele>2518.20</ele>
	<time>2023-08-09T05:37:03.000Z</time>
</trkpt>
<trkpt lat="46.1520810" lon="10.4511500">
	<ele>2518.40</ele>
	<time>2023-08-09T05:37:04.000Z</time>
</trkpt>
<trkpt lat="46.1520810" lon="10.4511590">
	<ele>2518.40</ele>
	<time>2023-08-09T05:37:05.000Z</time>
</trkpt>
<trkpt lat="46.1520790" lon="10.4511670">
	<ele>2518.40</ele>
	<time>2023-08-09T05:37:06.000Z</time>
</trkpt>
<trkpt lat="46.1520800" lon="10.4511770">
	<ele>2518.40</ele>
	<time>2023-08-09T05:37:07.000Z</time>
</trkpt>
<trkpt lat="46.1520780" lon="10.4511860">
	<ele>2518.60</ele>
	<time>2023-08-09T05:37:08.000Z</time>
</trkpt>
<trkpt lat="46.1520780" lon="10.4511910">
	<ele>2518.60</ele>
	<time>2023-08-09T05:37:09.000Z</time>
</trkpt>
<trkpt lat="46.1520780" lon="10.4511970">
	<ele>2518.60</ele>
	<time>2023-08-09T05:37:10.000Z</time>
</trkpt>
<trkpt lat="46.1520790" lon="10.4512030">
	<ele>2518.80</ele>
	<time>2023-08-09T05:37:11.000Z</time>
</trkpt>
<trkpt lat="46.1520810" lon="10.4512060">
	<ele>2519.00</ele>
	<time>2023-08-09T05:37:12.000Z</time>
</trkpt>
<trkpt lat="46.1520850" lon="10.4512120">
	<ele>2519.00</ele>
	<time>2023-08-09T05:37:13.000Z</time>
</trkpt>
<trkpt lat="46.1520860" lon="10.4512220">
	<ele>2519.20</ele>
	<time>2023-08-09T05:37:14.000Z</time>
</trkpt>
<trkpt lat="46.1520820" lon="10.4512320">
	<ele>2519.20</ele>
	<time>2023-08-09T05:37:15.000Z</time>
</trkpt>
<trkpt lat="46.1520810" lon="10.4512400">
	<ele>2519.20</ele>
	<time>2023-08-09T05:37:16.000Z</time>
</trkpt>
<trkpt lat="46.1520810" lon="10.4512480">
	<ele>2519.20</ele>
	<time>2023-08-09T05:37:17.000Z</time>
</trkpt>
<trkpt lat="46.1520810" lon="10.4512570">
	<ele>2519.40</ele>
	<time>2023-08-09T05:37:18.000Z</time>
</trkpt>
<trkpt lat="46.1520800" lon="10.4512690">
	<ele>2519.40</ele>
	<time>2023-08-09T05:37:19.000Z</time>
</trkpt>
<trkpt lat="46.1520810" lon="10.4512800">
	<ele>2519.20</ele>
	<time>2023-08-09T05:37:20.000Z</time>
</trkpt>
<trkpt lat="46.1520790" lon="10.4512920">
	<ele>2519.40</ele>
	<time>2023-08-09T05:37:21.000Z</time>
</trkpt>
<trkpt lat="46.1520750" lon="10.4513030">
	<ele>2519.40</ele>
	<time>2023-08-09T05:37:22.000Z</time>
</trkpt>
<trkpt lat="46.1520740" lon="10.4513140">
	<ele>2519.40</ele>
	<time>2023-08-09T05:37:23.000Z</time>
</trkpt>
<trkpt lat="46.1520760" lon="10.4513260">
	<ele>2519.40</ele>
	<time>2023-08-09T05:37:24.000Z</time>
</trkpt>
<trkpt lat="46.1520750" lon="10.4513360">
	<ele>2519.40</ele>
	<time>2023-08-09T05:37:25.000Z</time>
</trkpt>
<trkpt lat="46.1520720" lon="10.4513500">
	<ele>2519.40</ele>
	<time>2023-08-09T05:37:26.000Z</time>
</trkpt>
<trkpt lat="46.1520720" lon="10.4513630">
	<ele>2519.40</ele>
	<time>2023-08-09T05:37:27.000Z</time>
</trkpt>
<trkpt lat="46.1520720" lon="10.4513740">
	<ele>2519.60</ele>
	<time>2023-08-09T05:37:28.000Z</time>
</trkpt>
<trkpt lat="46.1520720" lon="10.4513820">
	<ele>2519.60</ele>
	<time>2023-08-09T05:37:29.000Z</time>
</trkpt>
<trkpt lat="46.1520730" lon="10.4513880">
	<ele>2519.60</ele>
	<time>2023-08-09T05:37:30.000Z</time>
</trkpt>
<trkpt lat="46.1520770" lon="10.4513970">
	<ele>2519.60</ele>
	<time>2023-08-09T05:37:31.000Z</time>
</trkpt>
<trkpt lat="46.1520780" lon="10.4514070">
	<ele>2519.60</ele>
	<time>2023-08-09T05:37:32.000Z</time>
</trkpt>
<trkpt lat="46.1520800" lon="10.4514160">
	<ele>2519.80</ele>
	<time>2023-08-09T05:37:33.000Z</time>
</trkpt>
<trkpt lat="46.1520870" lon="10.4514310">
	<ele>2519.80</ele>
	<time>2023-08-09T05:37:34.000Z</time>
</trkpt>
<trkpt lat="46.1520920" lon="10.4514490">
	<ele>2520.00</ele>
	<time>2023-08-09T05:37:35.000Z</time>
</trkpt>
<trkpt lat="46.1520960" lon="10.4514660">
	<ele>2520.00</ele>
	<time>2023-08-09T05:37:36.000Z</time>
</trkpt>
<trkpt lat="46.1520980" lon="10.4514820">
	<ele>2520.20</ele>
	<time>2023-08-09T05:37:37.000Z</time>
</trkpt>
<trkpt lat="46.1521040" lon="10.4514970">
	<ele>2520.40</ele>
	<time>2023-08-09T05:37:38.000Z</time>
</trkpt>
<trkpt lat="46.1521060" lon="10.4515130">
	<ele>2520.40</ele>
	<time>2023-08-09T05:37:39.000Z</time>
</trkpt>
<trkpt lat="46.1521070" lon="10.4515190">
	<ele>2520.40</ele>
	<time>2023-08-09T05:37:40.000Z</time>
</trkpt>
<trkpt lat="46.1521050" lon="10.4515310">
	<ele>2520.40</ele>
	<time>2023-08-09T05:37:41.000Z</time>
</trkpt>
<trkpt lat="46.1521060" lon="10.4515350">
	<ele>2520.40</ele>
	<time>2023-08-09T05:37:42.000Z</time>
</trkpt>
<trkpt lat="46.1521110" lon="10.4515410">
	<ele>2520.40</ele>
	<time>2023-08-09T05:37:43.000Z</time>
</trkpt>
<trkpt lat="46.1521090" lon="10.4515420">
	<ele>2520.40</ele>
	<time>2023-08-09T05:37:44.000Z</time>
</trkpt>
<trkpt lat="46.1521090" lon="10.4515430">
	<ele>2520.20</ele>
	<time>2023-08-09T05:37:45.000Z</time>
</trkpt>
<trkpt lat="46.1521090" lon="10.4515430">
	<ele>2520.20</ele>
	<time>2023-08-09T05:37:46.000Z</time>
</trkpt>
<trkpt lat="46.1521110" lon="10.4515480">
	<ele>2520.20</ele>
	<time>2023-08-09T05:37:47.000Z</time>
</trkpt>
<trkpt lat="46.1521100" lon="10.4515490">
	<ele>2520.00</ele>
	<time>2023-08-09T05:37:48.000Z</time>
</trkpt>
<trkpt lat="46.1521100" lon="10.4515480">
	<ele>2520.00</ele>
	<time>2023-08-09T05:37:49.000Z</time>
</trkpt>
<trkpt lat="46.1521110" lon="10.4515490">
	<ele>2520.00</ele>
	<time>2023-08-09T05:37:50.000Z</time>
</trkpt>
<trkpt lat="46.1521130" lon="10.4515480">
	<ele>2520.00</ele>
	<time>2023-08-09T05:37:51.000Z</time>
</trkpt>
<trkpt lat="46.1521150" lon="10.4515470">
	<ele>2520.00</ele>
	<time>2023-08-09T05:37:52.000Z</time>
</trkpt>
<trkpt lat="46.1521160" lon="10.4515480">
	<ele>2520.00</ele>
	<time>2023-08-09T05:37:53.000Z</time>
</trkpt>
<trkpt lat="46.1521160" lon="10.4515480">
	<ele>2520.00</ele>
	<time>2023-08-09T05:37:54.000Z</time>
</trkpt>
<trkpt lat="46.1521160" lon="10.4515480">
	<ele>2520.00</ele>
	<time>2023-08-09T05:37:55.000Z</time>
</trkpt>
<trkpt lat="46.1521160" lon="10.4515480">
	<ele>2520.00</ele>
	<time>2023-08-09T05:37:56.000Z</time>
</trkpt>
<trkpt lat="46.1521160" lon="10.4515480">
	<ele>2520.20</ele>
	<time>2023-08-09T05:37:57.000Z</time>
</trkpt>
<trkpt lat="46.1521160" lon="10.4515480">
	<ele>2520.40</ele>
	<time>2023-08-09T05:37:58.000Z</time>
</trkpt>
<trkpt lat="46.1521160" lon="10.4515480">
	<ele>2520.60</ele>
	<time>2023-08-09T05:37:59.000Z</time>
</trkpt>
<trkpt lat="46.1521160" lon="10.4515480">
	<ele>2520.80</ele>
	<time>2023-08-09T05:38:00.000Z</time>
</trkpt>
<trkpt lat="46.1521160" lon="10.4515480">
	<ele>2520.80</ele>
	<time>2023-08-09T05:38:01.000Z</time>
</trkpt>
<trkpt lat="46.1521150" lon="10.4515480">
	<ele>2520.40</ele>
	<time>2023-08-09T05:38:02.000Z</time>
</trkpt>
<trkpt lat="46.1521140" lon="10.4515480">
	<ele>2520.20</ele>
	<time>2023-08-09T05:38:03.000Z</time>
</trkpt>
<trkpt lat="46.1521140" lon="10.4515480">
	<ele>2520.20</ele>
	<time>2023-08-09T05:38:04.000Z</time>
</trkpt>
<trkpt lat="46.1521140" lon="10.4515480">
	<ele>2520.00</ele>
	<time>2023-08-09T05:38:05.000Z</time>
</trkpt>
<trkpt lat="46.1521140" lon="10.4515480">
	<ele>2520.00</ele>
	<time>2023-08-09T05:38:06.000Z</time>
</trkpt>
<trkpt lat="46.1521110" lon="10.4515510">
	<ele>2520.00</ele>
	<time>2023-08-09T05:38:07.000Z</time>
</trkpt>
<trkpt lat="46.1521110" lon="10.4515640">
	<ele>2519.80</ele>
	<time>2023-08-09T05:38:08.000Z</time>
</trkpt>
<trkpt lat="46.1521110" lon="10.4515780">
	<ele>2519.80</ele>
	<time>2023-08-09T05:38:09.000Z</time>
</trkpt>
<trkpt lat="46.1521100" lon="10.4515890">
	<ele>2519.60</ele>
	<time>2023-08-09T05:38:10.000Z</time>
</trkpt>
<trkpt lat="46.1521080" lon="10.4515930">
	<ele>2519.60</ele>
	<time>2023-08-09T05:38:11.000Z</time>
</trkpt>
<trkpt lat="46.1521070" lon="10.4515970">
	<ele>2519.60</ele>
	<time>2023-08-09T05:38:12.000Z</time>
</trkpt>
<trkpt lat="46.1521070" lon="10.4515970">
	<ele>2519.60</ele>
	<time>2023-08-09T05:38:13.000Z</time>
</trkpt>
<trkpt lat="46.1521070" lon="10.4515970">
	<ele>2519.60</ele>
	<time>2023-08-09T05:38:14.000Z</time>
</trkpt>
<trkpt lat="46.1521070" lon="10.4515970">
	<ele>2519.60</ele>
	<time>2023-08-09T05:38:15.000Z</time>
</trkpt>
<trkpt lat="46.1521070" lon="10.4515970">
	<ele>2519.60</ele>
	<time>2023-08-09T05:38:16.000Z</time>
</trkpt>
<trkpt lat="46.1521070" lon="10.4515970">
	<ele>2519.60</ele>
	<time>2023-08-09T05:38:17.000Z</time>
</trkpt>
<trkpt lat="46.1521070" lon="10.4515970">
	<ele>2519.60</ele>
	<time>2023-08-09T05:38:18.000Z</time>
</trkpt>
<trkpt lat="46.1520990" lon="10.4515970">
	<ele>2519.40</ele>
	<time>2023-08-09T05:38:19.000Z</time>
</trkpt>
<trkpt lat="46.1520990" lon="10.4515970">
	<ele>2519.40</ele>
	<time>2023-08-09T05:38:20.000Z</time>
</trkpt>
<trkpt lat="46.1520980" lon="10.4515970">
	<ele>2519.40</ele>
	<time>2023-08-09T05:38:21.000Z</time>
</trkpt>
<trkpt lat="46.1520980" lon="10.4515970">
	<ele>2519.40</ele>
	<time>2023-08-09T05:38:22.000Z</time>
</trkpt>
<trkpt lat="46.1520980" lon="10.4515970">
	<ele>2519.20</ele>
	<time>2023-08-09T05:38:23.000Z</time>
</trkpt>
<trkpt lat="46.1520980" lon="10.4516000">
	<ele>2519.20</ele>
	<time>2023-08-09T05:38:24.000Z</time>
</trkpt>
<trkpt lat="46.1520980" lon="10.4516070">
	<ele>2519.00</ele>
	<time>2023-08-09T05:38:25.000Z</time>
</trkpt>
<trkpt lat="46.1520980" lon="10.4516090">
	<ele>2519.20</ele>
	<time>2023-08-09T05:38:26.000Z</time>
</trkpt>
<trkpt lat="46.1520980" lon="10.4516090">
	<ele>2519.20</ele>
	<time>2023-08-09T05:38:27.000Z</time>
</trkpt>
<trkpt lat="46.1520980" lon="10.4516100">
	<ele>2519.20</ele>
	<time>2023-08-09T05:38:28.000Z</time>
</trkpt>
<trkpt lat="46.1520980" lon="10.4516100">
	<ele>2519.20</ele>
	<time>2023-08-09T05:38:29.000Z</time>
</trkpt>
<trkpt lat="46.1520980" lon="10.4516110">
	<ele>2519.20</ele>
	<time>2023-08-09T05:38:30.000Z</time>
</trkpt>
<trkpt lat="46.1520970" lon="10.4516110">
	<ele>2519.20</ele>
	<time>2023-08-09T05:38:31.000Z</time>
</trkpt>
<trkpt lat="46.1520970" lon="10.4516110">
	<ele>2519.20</ele>
	<time>2023-08-09T05:38:32.000Z</time>
</trkpt>
<trkpt lat="46.1520970" lon="10.4516110">
	<ele>2519.20</ele>
	<time>2023-08-09T05:38:33.000Z</time>
</trkpt>
<trkpt lat="46.1520970" lon="10.4516120">
	<ele>2519.00</ele>
	<time>2023-08-09T05:38:34.000Z</time>
</trkpt>
<trkpt lat="46.1520970" lon="10.4516150">
	<ele>2519.00</ele>
	<time>2023-08-09T05:38:35.000Z</time>
</trkpt>
<trkpt lat="46.1520980" lon="10.4516220">
	<ele>2519.00</ele>
	<time>2023-08-09T05:38:36.000Z</time>
</trkpt>
<trkpt lat="46.1520980" lon="10.4516300">
	<ele>2519.00</ele>
	<time>2023-08-09T05:38:37.000Z</time>
</trkpt>
<trkpt lat="46.1520980" lon="10.4516350">
	<ele>2519.00</ele>
	<time>2023-08-09T05:38:38.000Z</time>
</trkpt>
<trkpt lat="46.1520980" lon="10.4516400">
	<ele>2519.00</ele>
	<time>2023-08-09T05:38:39.000Z</time>
</trkpt>
<trkpt lat="46.1520980" lon="10.4516480">
	<ele>2519.00</ele>
	<time>2023-08-09T05:38:40.000Z</time>
</trkpt>
<trkpt lat="46.1520980" lon="10.4516550">
	<ele>2519.00</ele>
	<time>2023-08-09T05:38:41.000Z</time>
</trkpt>
<trkpt lat="46.1520980" lon="10.4516600">
	<ele>2518.80</ele>
	<time>2023-08-09T05:38:42.000Z</time>
</trkpt>
<trkpt lat="46.1520990" lon="10.4516670">
	<ele>2518.80</ele>
	<time>2023-08-09T05:38:43.000Z</time>
</trkpt>
<trkpt lat="46.1520990" lon="10.4516750">
	<ele>2518.80</ele>
	<time>2023-08-09T05:38:44.000Z</time>
</trkpt>
<trkpt lat="46.1520990" lon="10.4516800">
	<ele>2518.60</ele>
	<time>2023-08-09T05:38:45.000Z</time>
</trkpt>
<trkpt lat="46.1520990" lon="10.4516860">
	<ele>2518.60</ele>
	<time>2023-08-09T05:38:46.000Z</time>
</trkpt>
<trkpt lat="46.1520990" lon="10.4516940">
	<ele>2518.60</ele>
	<time>2023-08-09T05:38:47.000Z</time>
</trkpt>
<trkpt lat="46.1520990" lon="10.4517000">
	<ele>2518.60</ele>
	<time>2023-08-09T05:38:48.000Z</time>
</trkpt>
<trkpt lat="46.1520990" lon="10.4517050">
	<ele>2518.20</ele>
	<time>2023-08-09T05:38:49.000Z</time>
</trkpt>
<trkpt lat="46.1521000" lon="10.4517120">
	<ele>2518.00</ele>
	<time>2023-08-09T05:38:50.000Z</time>
</trkpt>
<trkpt lat="46.1521010" lon="10.4517190">
	<ele>2518.00</ele>
	<time>2023-08-09T05:38:51.000Z</time>
</trkpt>
<trkpt lat="46.1521000" lon="10.4517300">
	<ele>2517.80</ele>
	<time>2023-08-09T05:38:52.000Z</time>
</trkpt>
<trkpt lat="46.1520960" lon="10.4517460">
	<ele>2517.80</ele>
	<time>2023-08-09T05:38:53.000Z</time>
</trkpt>
<trkpt lat="46.1520960" lon="10.4517600">
	<ele>2517.80</ele>
	<time>2023-08-09T05:38:54.000Z</time>
</trkpt>
<trkpt lat="46.1520930" lon="10.4517780">
	<ele>2517.80</ele>
	<time>2023-08-09T05:38:55.000Z</time>
</trkpt>
<trkpt lat="46.1520900" lon="10.4517910">
	<ele>2517.80</ele>
	<time>2023-08-09T05:38:56.000Z</time>
</trkpt>
<trkpt lat="46.1520890" lon="10.4518020">
	<ele>2517.80</ele>
	<time>2023-08-09T05:38:57.000Z</time>
</trkpt>
<trkpt lat="46.1520940" lon="10.4518170">
	<ele>2518.00</ele>
	<time>2023-08-09T05:38:58.000Z</time>
</trkpt>
<trkpt lat="46.1520970" lon="10.4518350">
	<ele>2518.00</ele>
	<time>2023-08-09T05:38:59.000Z</time>
</trkpt>
<trkpt lat="46.1520990" lon="10.4518520">
	<ele>2518.20</ele>
	<time>2023-08-09T05:39:00.000Z</time>
</trkpt>
<trkpt lat="46.1520990" lon="10.4518680">
	<ele>2518.20</ele>
	<time>2023-08-09T05:39:01.000Z</time>
</trkpt>
<trkpt lat="46.1521010" lon="10.4518730">
	<ele>2518.00</ele>
	<time>2023-08-09T05:39:02.000Z</time>
</trkpt>
<trkpt lat="46.1521030" lon="10.4518860">
	<ele>2518.00</ele>
	<time>2023-08-09T05:39:03.000Z</time>
</trkpt>
<trkpt lat="46.1521030" lon="10.4518980">
	<ele>2518.00</ele>
	<time>2023-08-09T05:39:04.000Z</time>
</trkpt>
<trkpt lat="46.1521000" lon="10.4519020">
	<ele>2518.00</ele>
	<time>2023-08-09T05:39:05.000Z</time>
</trkpt>
<trkpt lat="46.1520970" lon="10.4519060">
	<ele>2518.00</ele>
	<time>2023-08-09T05:39:06.000Z</time>
</trkpt>
<trkpt lat="46.1520960" lon="10.4519100">
	<ele>2518.00</ele>
	<time>2023-08-09T05:39:07.000Z</time>
</trkpt>
<trkpt lat="46.1520980" lon="10.4519100">
	<ele>2518.00</ele>
	<time>2023-08-09T05:39:08.000Z</time>
</trkpt>
<trkpt lat="46.1520990" lon="10.4519100">
	<ele>2518.00</ele>
	<time>2023-08-09T05:39:09.000Z</time>
</trkpt>
<trkpt lat="46.1520990" lon="10.4519120">
	<ele>2518.00</ele>
	<time>2023-08-09T05:39:10.000Z</time>
</trkpt>
<trkpt lat="46.1520980" lon="10.4519140">
	<ele>2518.00</ele>
	<time>2023-08-09T05:39:11.000Z</time>
</trkpt>
<trkpt lat="46.1520990" lon="10.4519160">
	<ele>2518.00</ele>
	<time>2023-08-09T05:39:12.000Z</time>
</trkpt>
<trkpt lat="46.1521000" lon="10.4519180">
	<ele>2518.00</ele>
	<time>2023-08-09T05:39:13.000Z</time>
</trkpt>
<trkpt lat="46.1520990" lon="10.4519180">
	<ele>2517.80</ele>
	<time>2023-08-09T05:39:14.000Z</time>
</trkpt>
<trkpt lat="46.1521000" lon="10.4519200">
	<ele>2517.60</ele>
	<time>2023-08-09T05:39:15.000Z</time>
</trkpt>
<trkpt lat="46.1521020" lon="10.4519220">
	<ele>2517.60</ele>
	<time>2023-08-09T05:39:16.000Z</time>
</trkpt>
<trkpt lat="46.1521030" lon="10.4519280">
	<ele>2517.60</ele>
	<time>2023-08-09T05:39:17.000Z</time>
</trkpt>
<trkpt lat="46.1521040" lon="10.4519330">
	<ele>2517.60</ele>
	<time>2023-08-09T05:39:18.000Z</time>
</trkpt>
<trkpt lat="46.1521040" lon="10.4519350">
	<ele>2517.40</ele>
	<time>2023-08-09T05:39:19.000Z</time>
</trkpt>
<trkpt lat="46.1521020" lon="10.4519350">
	<ele>2517.40</ele>
	<time>2023-08-09T05:39:20.000Z</time>
</trkpt>
<trkpt lat="46.1521030" lon="10.4519370">
	<ele>2517.40</ele>
	<time>2023-08-09T05:39:21.000Z</time>
</trkpt>
<trkpt lat="46.1521030" lon="10.4519380">
	<ele>2517.40</ele>
	<time>2023-08-09T05:39:22.000Z</time>
</trkpt>
<trkpt lat="46.1521030" lon="10.4519380">
	<ele>2517.60</ele>
	<time>2023-08-09T05:39:23.000Z</time>
</trkpt>
<trkpt lat="46.1521020" lon="10.4519370">
	<ele>2517.60</ele>
	<time>2023-08-09T05:39:24.000Z</time>
</trkpt>
<trkpt lat="46.1521010" lon="10.4519390">
	<ele>2517.60</ele>
	<time>2023-08-09T05:39:25.000Z</time>
</trkpt>
<trkpt lat="46.1521030" lon="10.4519470">
	<ele>2517.60</ele>
	<time>2023-08-09T05:39:26.000Z</time>
</trkpt>
<trkpt lat="46.1520980" lon="10.4519560">
	<ele>2517.80</ele>
	<time>2023-08-09T05:39:27.000Z</time>
</trkpt>
<trkpt lat="46.1520960" lon="10.4519630">
	<ele>2518.00</ele>
	<time>2023-08-09T05:39:28.000Z</time>
</trkpt>
<trkpt lat="46.1520950" lon="10.4519660">
	<ele>2518.00</ele>
	<time>2023-08-09T05:39:29.000Z</time>
</trkpt>
<trkpt lat="46.1520920" lon="10.4519700">
	<ele>2518.00</ele>
	<time>2023-08-09T05:39:30.000Z</time>
</trkpt>
<trkpt lat="46.1520860" lon="10.4519750">
	<ele>2518.00</ele>
	<time>2023-08-09T05:39:31.000Z</time>
</trkpt>
<trkpt lat="46.1520820" lon="10.4519780">
	<ele>2518.20</ele>
	<time>2023-08-09T05:39:32.000Z</time>
</trkpt>
<trkpt lat="46.1520800" lon="10.4519780">
	<ele>2518.20</ele>
	<time>2023-08-09T05:39:33.000Z</time>
</trkpt>
<trkpt lat="46.1520810" lon="10.4519790">
	<ele>2518.20</ele>
	<time>2023-08-09T05:39:34.000Z</time>
</trkpt>
<trkpt lat="46.1520780" lon="10.4519830">
	<ele>2518.20</ele>
	<time>2023-08-09T05:39:35.000Z</time>
</trkpt>
<trkpt lat="46.1520720" lon="10.4519890">
	<ele>2518.40</ele>
	<time>2023-08-09T05:39:36.000Z</time>
</trkpt>
<trkpt lat="46.1520680" lon="10.4519910">
	<ele>2518.40</ele>
	<time>2023-08-09T05:39:37.000Z</time>
</trkpt>
<trkpt lat="46.1520650" lon="10.4519940">
	<ele>2518.40</ele>
	<time>2023-08-09T05:39:38.000Z</time>
</trkpt>
<trkpt lat="46.1520600" lon="10.4519980">
	<ele>2518.40</ele>
	<time>2023-08-09T05:39:39.000Z</time>
</trkpt>
<trkpt lat="46.1520550" lon="10.4520080">
	<ele>2518.40</ele>
	<time>2023-08-09T05:39:40.000Z</time>
</trkpt>
<trkpt lat="46.1520470" lon="10.4520140">
	<ele>2518.40</ele>
	<time>2023-08-09T05:39:41.000Z</time>
</trkpt>
<trkpt lat="46.1520460" lon="10.4520170">
	<ele>2518.60</ele>
	<time>2023-08-09T05:39:42.000Z</time>
</trkpt>
<trkpt lat="46.1520440" lon="10.4520200">
	<ele>2518.60</ele>
	<time>2023-08-09T05:39:43.000Z</time>
</trkpt>
<trkpt lat="46.1520400" lon="10.4520280">
	<ele>2518.80</ele>
	<time>2023-08-09T05:39:44.000Z</time>
</trkpt>
<trkpt lat="46.1520380" lon="10.4520330">
	<ele>2518.80</ele>
	<time>2023-08-09T05:39:45.000Z</time>
</trkpt>
<trkpt lat="46.1520350" lon="10.4520400">
	<ele>2519.00</ele>
	<time>2023-08-09T05:39:46.000Z</time>
</trkpt>
<trkpt lat="46.1520320" lon="10.4520450">
	<ele>2519.00</ele>
	<time>2023-08-09T05:39:47.000Z</time>
</trkpt>
<trkpt lat="46.1520280" lon="10.4520490">
	<ele>2519.20</ele>
	<time>2023-08-09T05:39:48.000Z</time>
</trkpt>
<trkpt lat="46.1520250" lon="10.4520580">
	<ele>2519.40</ele>
	<time>2023-08-09T05:39:49.000Z</time>
</trkpt>
<trkpt lat="46.1520170" lon="10.4520670">
	<ele>2519.40</ele>
	<time>2023-08-09T05:39:50.000Z</time>
</trkpt>
<trkpt lat="46.1520160" lon="10.4520740">
	<ele>2519.60</ele>
	<time>2023-08-09T05:39:51.000Z</time>
</trkpt>
<trkpt lat="46.1520110" lon="10.4520790">
	<ele>2519.80</ele>
	<time>2023-08-09T05:39:52.000Z</time>
</trkpt>
<trkpt lat="46.1520090" lon="10.4520830">
	<ele>2520.00</ele>
	<time>2023-08-09T05:39:53.000Z</time>
</trkpt>
<trkpt lat="46.1520120" lon="10.4520900">
	<ele>2520.20</ele>
	<time>2023-08-09T05:39:54.000Z</time>
</trkpt>
<trkpt lat="46.1520120" lon="10.4521000">
	<ele>2520.40</ele>
	<time>2023-08-09T05:39:55.000Z</time>
</trkpt>
<trkpt lat="46.1520110" lon="10.4521050">
	<ele>2520.40</ele>
	<time>2023-08-09T05:39:56.000Z</time>
</trkpt>
<trkpt lat="46.1520130" lon="10.4521110">
	<ele>2520.60</ele>
	<time>2023-08-09T05:39:57.000Z</time>
</trkpt>
<trkpt lat="46.1520080" lon="10.4521190">
	<ele>2520.80</ele>
	<time>2023-08-09T05:39:58.000Z</time>
</trkpt>
<trkpt lat="46.1520080" lon="10.4521220">
	<ele>2521.00</ele>
	<time>2023-08-09T05:39:59.000Z</time>
</trkpt>
<trkpt lat="46.1520140" lon="10.4521300">
	<ele>2521.00</ele>
	<time>2023-08-09T05:40:00.000Z</time>
</trkpt>
<trkpt lat="46.1520180" lon="10.4521410">
	<ele>2521.00</ele>
	<time>2023-08-09T05:40:01.000Z</time>
</trkpt>
<trkpt lat="46.1520200" lon="10.4521480">
	<ele>2521.20</ele>
	<time>2023-08-09T05:40:02.000Z</time>
</trkpt>
<trkpt lat="46.1520230" lon="10.4521560">
	<ele>2521.40</ele>
	<time>2023-08-09T05:40:03.000Z</time>
</trkpt>
<trkpt lat="46.1520240" lon="10.4521620">
	<ele>2521.40</ele>
	<time>2023-08-09T05:40:04.000Z</time>
</trkpt>
<trkpt lat="46.1520260" lon="10.4521680">
	<ele>2521.60</ele>
	<time>2023-08-09T05:40:05.000Z</time>
</trkpt>
<trkpt lat="46.1520270" lon="10.4521720">
	<ele>2521.80</ele>
	<time>2023-08-09T05:40:06.000Z</time>
</trkpt>
<trkpt lat="46.1520280" lon="10.4521770">
	<ele>2522.00</ele>
	<time>2023-08-09T05:40:07.000Z</time>
</trkpt>
<trkpt lat="46.1520300" lon="10.4521870">
	<ele>2522.00</ele>
	<time>2023-08-09T05:40:08.000Z</time>
</trkpt>
<trkpt lat="46.1520270" lon="10.4521970">
	<ele>2522.20</ele>
	<time>2023-08-09T05:40:09.000Z</time>
</trkpt>
<trkpt lat="46.1520220" lon="10.4522040">
	<ele>2522.40</ele>
	<time>2023-08-09T05:40:10.000Z</time>
</trkpt>
<trkpt lat="46.1520200" lon="10.4522160">
	<ele>2522.40</ele>
	<time>2023-08-09T05:40:11.000Z</time>
</trkpt>
<trkpt lat="46.1520230" lon="10.4522290">
	<ele>2522.40</ele>
	<time>2023-08-09T05:40:12.000Z</time>
</trkpt>
<trkpt lat="46.1520210" lon="10.4522400">
	<ele>2522.40</ele>
	<time>2023-08-09T05:40:13.000Z</time>
</trkpt>
<trkpt lat="46.1520200" lon="10.4522490">
	<ele>2522.40</ele>
	<time>2023-08-09T05:40:14.000Z</time>
</trkpt>
<trkpt lat="46.1520170" lon="10.4522640">
	<ele>2522.40</ele>
	<time>2023-08-09T05:40:15.000Z</time>
</trkpt>
<trkpt lat="46.1520150" lon="10.4522760">
	<ele>2522.40</ele>
	<time>2023-08-09T05:40:16.000Z</time>
</trkpt>
<trkpt lat="46.1520140" lon="10.4522890">
	<ele>2522.40</ele>
	<time>2023-08-09T05:40:17.000Z</time>
</trkpt>
<trkpt lat="46.1520130" lon="10.4523010">
	<ele>2522.40</ele>
	<time>2023-08-09T05:40:18.000Z</time>
</trkpt>
<trkpt lat="46.1520080" lon="10.4523110">
	<ele>2522.40</ele>
	<time>2023-08-09T05:40:19.000Z</time>
</trkpt>
<trkpt lat="46.1520040" lon="10.4523190">
	<ele>2522.40</ele>
	<time>2023-08-09T05:40:20.000Z</time>
</trkpt>
<trkpt lat="46.1520000" lon="10.4523220">
	<ele>2522.40</ele>
	<time>2023-08-09T05:40:21.000Z</time>
</trkpt>
<trkpt lat="46.1519960" lon="10.4523240">
	<ele>2522.40</ele>
	<time>2023-08-09T05:40:22.000Z</time>
</trkpt>
<trkpt lat="46.1519920" lon="10.4523290">
	<ele>2522.40</ele>
	<time>2023-08-09T05:40:23.000Z</time>
</trkpt>
<trkpt lat="46.1519870" lon="10.4523360">
	<ele>2522.40</ele>
	<time>2023-08-09T05:40:24.000Z</time>
</trkpt>
<trkpt lat="46.1519860" lon="10.4523430">
	<ele>2522.40</ele>
	<time>2023-08-09T05:40:25.000Z</time>
</trkpt>
<trkpt lat="46.1519850" lon="10.4523520">
	<ele>2522.40</ele>
	<time>2023-08-09T05:40:26.000Z</time>
</trkpt>
<trkpt lat="46.1519830" lon="10.4523600">
	<ele>2522.40</ele>
	<time>2023-08-09T05:40:27.000Z</time>
</trkpt>
<trkpt lat="46.1519820" lon="10.4523660">
	<ele>2522.40</ele>
	<time>2023-08-09T05:40:28.000Z</time>
</trkpt>
<trkpt lat="46.1519820" lon="10.4523740">
	<ele>2522.60</ele>
	<time>2023-08-09T05:40:29.000Z</time>
</trkpt>
<trkpt lat="46.1519830" lon="10.4523800">
	<ele>2522.60</ele>
	<time>2023-08-09T05:40:30.000Z</time>
</trkpt>
<trkpt lat="46.1519840" lon="10.4523850">
	<ele>2522.80</ele>
	<time>2023-08-09T05:40:31.000Z</time>
</trkpt>
<trkpt lat="46.1519840" lon="10.4523940">
	<ele>2522.80</ele>
	<time>2023-08-09T05:40:32.000Z</time>
</trkpt>
<trkpt lat="46.1519830" lon="10.4524010">
	<ele>2522.80</ele>
	<time>2023-08-09T05:40:33.000Z</time>
</trkpt>
<trkpt lat="46.1519790" lon="10.4524080">
	<ele>2523.00</ele>
	<time>2023-08-09T05:40:34.000Z</time>
</trkpt>
<trkpt lat="46.1519780" lon="10.4524160">
	<ele>2523.00</ele>
	<time>2023-08-09T05:40:35.000Z</time>
</trkpt>
<trkpt lat="46.1519770" lon="10.4524250">
	<ele>2523.20</ele>
	<time>2023-08-09T05:40:36.000Z</time>
</trkpt>
<trkpt lat="46.1519750" lon="10.4524320">
	<ele>2523.20</ele>
	<time>2023-08-09T05:40:37.000Z</time>
</trkpt>
<trkpt lat="46.1519750" lon="10.4524400">
	<ele>2523.40</ele>
	<time>2023-08-09T05:40:38.000Z</time>
</trkpt>
<trkpt lat="46.1519750" lon="10.4524440">
	<ele>2523.60</ele>
	<time>2023-08-09T05:40:39.000Z</time>
</trkpt>
<trkpt lat="46.1519720" lon="10.4524520">
	<ele>2523.60</ele>
	<time>2023-08-09T05:40:40.000Z</time>
</trkpt>
<trkpt lat="46.1519710" lon="10.4524570">
	<ele>2523.80</ele>
	<time>2023-08-09T05:40:41.000Z</time>
</trkpt>
<trkpt lat="46.1519720" lon="10.4524620">
	<ele>2523.80</ele>
	<time>2023-08-09T05:40:42.000Z</time>
</trkpt>
<trkpt lat="46.1519690" lon="10.4524690">
	<ele>2524.20</ele>
	<time>2023-08-09T05:40:43.000Z</time>
</trkpt>
<trkpt lat="46.1519680" lon="10.4524760">
	<ele>2524.40</ele>
	<time>2023-08-09T05:40:44.000Z</time>
</trkpt>
<trkpt lat="46.1519680" lon="10.4524820">
	<ele>2524.40</ele>
	<time>2023-08-09T05:40:45.000Z</time>
</trkpt>
<trkpt lat="46.1519650" lon="10.4524900">
	<ele>2524.60</ele>
	<time>2023-08-09T05:40:46.000Z</time>
</trkpt>
<trkpt lat="46.1519570" lon="10.4524960">
	<ele>2524.60</ele>
	<time>2023-08-09T05:40:47.000Z</time>
</trkpt>
<trkpt lat="46.1519530" lon="10.4525000">
	<ele>2524.60</ele>
	<time>2023-08-09T05:40:48.000Z</time>
</trkpt>
<trkpt lat="46.1519470" lon="10.4524990">
	<ele>2524.80</ele>
	<time>2023-08-09T05:40:49.000Z</time>
</trkpt>
<trkpt lat="46.1519430" lon="10.4525030">
	<ele>2524.80</ele>
	<time>2023-08-09T05:40:50.000Z</time>
</trkpt>
<trkpt lat="46.1519370" lon="10.4525060">
	<ele>2524.80</ele>
	<time>2023-08-09T05:40:51.000Z</time>
</trkpt>
<trkpt lat="46.1519350" lon="10.4525060">
	<ele>2524.80</ele>
	<time>2023-08-09T05:40:52.000Z</time>
</trkpt>
<trkpt lat="46.1519330" lon="10.4525060">
	<ele>2524.80</ele>
	<time>2023-08-09T05:40:53.000Z</time>
</trkpt>
<trkpt lat="46.1519320" lon="10.4525070">
	<ele>2524.80</ele>
	<time>2023-08-09T05:40:54.000Z</time>
</trkpt>
<trkpt lat="46.1519270" lon="10.4525090">
	<ele>2524.80</ele>
	<time>2023-08-09T05:40:55.000Z</time>
</trkpt>
<trkpt lat="46.1519180" lon="10.4525110">
	<ele>2524.80</ele>
	<time>2023-08-09T05:40:56.000Z</time>
</trkpt>
<trkpt lat="46.1519160" lon="10.4525080">
	<ele>2524.80</ele>
	<time>2023-08-09T05:40:57.000Z</time>
</trkpt>
<trkpt lat="46.1519140" lon="10.4525070">
	<ele>2524.80</ele>
	<time>2023-08-09T05:40:58.000Z</time>
</trkpt>
<trkpt lat="46.1519110" lon="10.4525070">
	<ele>2524.80</ele>
	<time>2023-08-09T05:40:59.000Z</time>
</trkpt>
<trkpt lat="46.1519040" lon="10.4525070">
	<ele>2524.80</ele>
	<time>2023-08-09T05:41:00.000Z</time>
</trkpt>
<trkpt lat="46.1519000" lon="10.4525060">
	<ele>2524.80</ele>
	<time>2023-08-09T05:41:01.000Z</time>
</trkpt>
<trkpt lat="46.1519000" lon="10.4525050">
	<ele>2524.80</ele>
	<time>2023-08-09T05:41:02.000Z</time>
</trkpt>
<trkpt lat="46.1518980" lon="10.4525030">
	<ele>2524.80</ele>
	<time>2023-08-09T05:41:03.000Z</time>
</trkpt>
<trkpt lat="46.1518960" lon="10.4525010">
	<ele>2524.80</ele>
	<time>2023-08-09T05:41:04.000Z</time>
</trkpt>
<trkpt lat="46.1518960" lon="10.4524990">
	<ele>2524.60</ele>
	<time>2023-08-09T05:41:05.000Z</time>
</trkpt>
<trkpt lat="46.1518970" lon="10.4524980">
	<ele>2524.60</ele>
	<time>2023-08-09T05:41:06.000Z</time>
</trkpt>
<trkpt lat="46.1518970" lon="10.4524980">
	<ele>2524.60</ele>
	<time>2023-08-09T05:41:07.000Z</time>
</trkpt>
<trkpt lat="46.1518970" lon="10.4524980">
	<ele>2524.60</ele>
	<time>2023-08-09T05:41:08.000Z</time>
</trkpt>
<trkpt lat="46.1518970" lon="10.4524980">
	<ele>2524.60</ele>
	<time>2023-08-09T05:41:09.000Z</time>
</trkpt>
<trkpt lat="46.1518970" lon="10.4524980">
	<ele>2524.40</ele>
	<time>2023-08-09T05:41:10.000Z</time>
</trkpt>
<trkpt lat="46.1518970" lon="10.4524980">
	<ele>2524.40</ele>
	<time>2023-08-09T05:41:11.000Z</time>
</trkpt>
<trkpt lat="46.1518970" lon="10.4524980">
	<ele>2524.40</ele>
	<time>2023-08-09T05:41:12.000Z</time>
</trkpt>
<trkpt lat="46.1518970" lon="10.4524980">
	<ele>2524.40</ele>
	<time>2023-08-09T05:41:13.000Z</time>
</trkpt>
<trkpt lat="46.1518970" lon="10.4524980">
	<ele>2524.40</ele>
	<time>2023-08-09T05:41:14.000Z</time>
</trkpt>
<trkpt lat="46.1518970" lon="10.4524980">
	<ele>2524.40</ele>
	<time>2023-08-09T05:41:15.000Z</time>
</trkpt>
<trkpt lat="46.1518970" lon="10.4524980">
	<ele>2524.40</ele>
	<time>2023-08-09T05:41:16.000Z</time>
</trkpt>
<trkpt lat="46.1518970" lon="10.4524980">
	<ele>2524.40</ele>
	<time>2023-08-09T05:41:17.000Z</time>
</trkpt>
<trkpt lat="46.1518970" lon="10.4524980">
	<ele>2524.40</ele>
	<time>2023-08-09T05:41:18.000Z</time>
</trkpt>
<trkpt lat="46.1518970" lon="10.4524980">
	<ele>2524.40</ele>
	<time>2023-08-09T05:41:19.000Z</time>
</trkpt>
<trkpt lat="46.1518970" lon="10.4524980">
	<ele>2524.40</ele>
	<time>2023-08-09T05:41:20.000Z</time>
</trkpt>
<trkpt lat="46.1518970" lon="10.4524980">
	<ele>2524.40</ele>
	<time>2023-08-09T05:41:21.000Z</time>
</trkpt>
<trkpt lat="46.1518960" lon="10.4524980">
	<ele>2524.40</ele>
	<time>2023-08-09T05:41:22.000Z</time>
</trkpt>
<trkpt lat="46.1518960" lon="10.4524980">
	<ele>2524.40</ele>
	<time>2023-08-09T05:41:23.000Z</time>
</trkpt>
<trkpt lat="46.1518960" lon="10.4524980">
	<ele>2524.40</ele>
	<time>2023-08-09T05:41:24.000Z</time>
</trkpt>
<trkpt lat="46.1518960" lon="10.4524980">
	<ele>2524.40</ele>
	<time>2023-08-09T05:41:25.000Z</time>
</trkpt>
<trkpt lat="46.1518960" lon="10.4524980">
	<ele>2524.60</ele>
	<time>2023-08-09T05:41:26.000Z</time>
</trkpt>
<trkpt lat="46.1518960" lon="10.4524980">
	<ele>2524.80</ele>
	<time>2023-08-09T05:41:27.000Z</time>
</trkpt>
<trkpt lat="46.1518960" lon="10.4524980">
	<ele>2525.00</ele>
	<time>2023-08-09T05:41:28.000Z</time>
</trkpt>
<trkpt lat="46.1518950" lon="10.4524980">
	<ele>2525.20</ele>
	<time>2023-08-09T05:41:29.000Z</time>
</trkpt>
<trkpt lat="46.1518950" lon="10.4524980">
	<ele>2525.20</ele>
	<time>2023-08-09T05:41:30.000Z</time>
</trkpt>
<trkpt lat="46.1518950" lon="10.4524980">
	<ele>2525.40</ele>
	<time>2023-08-09T05:41:31.000Z</time>
</trkpt>
<trkpt lat="46.1518950" lon="10.4524980">
	<ele>2525.40</ele>
	<time>2023-08-09T05:41:32.000Z</time>
</trkpt>
<trkpt lat="46.1518940" lon="10.4524980">
	<ele>2525.60</ele>
	<time>2023-08-09T05:41:33.000Z</time>
</trkpt>
<trkpt lat="46.1518940" lon="10.4524980">
	<ele>2525.60</ele>
	<time>2023-08-09T05:41:34.000Z</time>
</trkpt>
<trkpt lat="46.1518940" lon="10.4524980">
	<ele>2525.60</ele>
	<time>2023-08-09T05:41:35.000Z</time>
</trkpt>
<trkpt lat="46.1518930" lon="10.4524980">
	<ele>2525.60</ele>
	<time>2023-08-09T05:41:36.000Z</time>
</trkpt>
<trkpt lat="46.1518920" lon="10.4524980">
	<ele>2525.80</ele>
	<time>2023-08-09T05:41:37.000Z</time>
</trkpt>
<trkpt lat="46.1518920" lon="10.4524980">
	<ele>2525.80</ele>
	<time>2023-08-09T05:41:38.000Z</time>
</trkpt>
<trkpt lat="46.1518920" lon="10.4524980">
	<ele>2526.00</ele>
	<time>2023-08-09T05:41:39.000Z</time>
</trkpt>
<trkpt lat="46.1518890" lon="10.4525000">
	<ele>2526.20</ele>
	<time>2023-08-09T05:41:40.000Z</time>
</trkpt>
<trkpt lat="46.1518860" lon="10.4525030">
	<ele>2526.40</ele>
	<time>2023-08-09T05:41:41.000Z</time>
</trkpt>
<trkpt lat="46.1518850" lon="10.4525080">
	<ele>2526.40</ele>
	<time>2023-08-09T05:41:42.000Z</time>
</trkpt>
<trkpt lat="46.1518840" lon="10.4525110">
	<ele>2526.40</ele>
	<time>2023-08-09T05:41:43.000Z</time>
</trkpt>
<trkpt lat="46.1518840" lon="10.4525140">
	<ele>2526.60</ele>
	<time>2023-08-09T05:41:44.000Z</time>
</trkpt>
<trkpt lat="46.1518840" lon="10.4525180">
	<ele>2526.60</ele>
	<time>2023-08-09T05:41:45.000Z</time>
</trkpt>
<trkpt lat="46.1518840" lon="10.4525270">
	<ele>2526.60</ele>
	<time>2023-08-09T05:41:46.000Z</time>
</trkpt>
<trkpt lat="46.1518840" lon="10.4525360">
	<ele>2526.80</ele>
	<time>2023-08-09T05:41:47.000Z</time>
</trkpt>
<trkpt lat="46.1518840" lon="10.4525410">
	<ele>2526.80</ele>
	<time>2023-08-09T05:41:48.000Z</time>
</trkpt>
<trkpt lat="46.1518840" lon="10.4525440">
	<ele>2527.00</ele>
	<time>2023-08-09T05:41:49.000Z</time>
</trkpt>
<trkpt lat="46.1518840" lon="10.4525460">
	<ele>2527.20</ele>
	<time>2023-08-09T05:41:50.000Z</time>
</trkpt>
<trkpt lat="46.1518840" lon="10.4525460">
	<ele>2527.40</ele>
	<time>2023-08-09T05:41:51.000Z</time>
</trkpt>
<trkpt lat="46.1518840" lon="10.4525500">
	<ele>2527.40</ele>
	<time>2023-08-09T05:41:52.000Z</time>
</trkpt>
<trkpt lat="46.1518840" lon="10.4525550">
	<ele>2527.40</ele>
	<time>2023-08-09T05:41:53.000Z</time>
</trkpt>
<trkpt lat="46.1518840" lon="10.4525600">
	<ele>2527.40</ele>
	<time>2023-08-09T05:41:54.000Z</time>
</trkpt>
<trkpt lat="46.1518840" lon="10.4525640">
	<ele>2527.60</ele>
	<time>2023-08-09T05:41:55.000Z</time>
</trkpt>
<trkpt lat="46.1518840" lon="10.4525730">
	<ele>2527.60</ele>
	<time>2023-08-09T05:41:56.000Z</time>
</trkpt>
<trkpt lat="46.1518890" lon="10.4525810">
	<ele>2527.60</ele>
	<time>2023-08-09T05:41:57.000Z</time>
</trkpt>
<trkpt lat="46.1518900" lon="10.4525830">
	<ele>2527.80</ele>
	<time>2023-08-09T05:41:58.000Z</time>
</trkpt>
<trkpt lat="46.1518910" lon="10.4525840">
	<ele>2528.00</ele>
	<time>2023-08-09T05:41:59.000Z</time>
</trkpt>
<trkpt lat="46.1518920" lon="10.4525840">
	<ele>2528.00</ele>
	<time>2023-08-09T05:42:00.000Z</time>
</trkpt>
<trkpt lat="46.1518940" lon="10.4525840">
	<ele>2528.20</ele>
	<time>2023-08-09T05:42:01.000Z</time>
</trkpt>
<trkpt lat="46.1518960" lon="10.4525840">
	<ele>2528.40</ele>
	<time>2023-08-09T05:42:02.000Z</time>
</trkpt>
<trkpt lat="46.1518990" lon="10.4525840">
	<ele>2528.60</ele>
	<time>2023-08-09T05:42:03.000Z</time>
</trkpt>
<trkpt lat="46.1519020" lon="10.4525840">
	<ele>2528.60</ele>
	<time>2023-08-09T05:42:04.000Z</time>
</trkpt>
<trkpt lat="46.1519070" lon="10.4525840">
	<ele>2528.80</ele>
	<time>2023-08-09T05:42:05.000Z</time>
</trkpt>
<trkpt lat="46.1519110" lon="10.4525840">
	<ele>2528.80</ele>
	<time>2023-08-09T05:42:06.000Z</time>
</trkpt>
<trkpt lat="46.1519160" lon="10.4525840">
	<ele>2529.00</ele>
	<time>2023-08-09T05:42:07.000Z</time>
</trkpt>
<trkpt lat="46.1519200" lon="10.4525850">
	<ele>2529.20</ele>
	<time>2023-08-09T05:42:08.000Z</time>
</trkpt>
<trkpt lat="46.1519250" lon="10.4525850">
	<ele>2529.40</ele>
	<time>2023-08-09T05:42:09.000Z</time>
</trkpt>
<trkpt lat="46.1519290" lon="10.4525850">
	<ele>2529.60</ele>
	<time>2023-08-09T05:42:10.000Z</time>
</trkpt>
<trkpt lat="46.1519340" lon="10.4525850">
	<ele>2529.80</ele>
	<time>2023-08-09T05:42:11.000Z</time>
</trkpt>
<trkpt lat="46.1519390" lon="10.4525850">
	<ele>2529.80</ele>
	<time>2023-08-09T05:42:12.000Z</time>
</trkpt>
<trkpt lat="46.1519430" lon="10.4525850">
	<ele>2530.00</ele>
	<time>2023-08-09T05:42:13.000Z</time>
</trkpt>
<trkpt lat="46.1519500" lon="10.4525850">
	<ele>2530.20</ele>
	<time>2023-08-09T05:42:14.000Z</time>
</trkpt>
<trkpt lat="46.1519550" lon="10.4525830">
	<ele>2530.20</ele>
	<time>2023-08-09T05:42:15.000Z</time>
</trkpt>
<trkpt lat="46.1519580" lon="10.4525830">
	<ele>2530.40</ele>
	<time>2023-08-09T05:42:16.000Z</time>
</trkpt>
<trkpt lat="46.1519600" lon="10.4525820">
	<ele>2530.60</ele>
	<time>2023-08-09T05:42:17.000Z</time>
</trkpt>
<trkpt lat="46.1519610" lon="10.4525820">
	<ele>2530.60</ele>
	<time>2023-08-09T05:42:18.000Z</time>
</trkpt>
<trkpt lat="46.1519620" lon="10.4525820">
	<ele>2530.80</ele>
	<time>2023-08-09T05:42:19.000Z</time>
</trkpt>
<trkpt lat="46.1519630" lon="10.4525820">
	<ele>2530.80</ele>
	<time>2023-08-09T05:42:20.000Z</time>
</trkpt>
<trkpt lat="46.1519640" lon="10.4525820">
	<ele>2531.00</ele>
	<time>2023-08-09T05:42:21.000Z</time>
</trkpt>
<trkpt lat="46.1519660" lon="10.4525820">
	<ele>2531.20</ele>
	<time>2023-08-09T05:42:22.000Z</time>
</trkpt>
<trkpt lat="46.1519680" lon="10.4525820">
	<ele>2531.40</ele>
	<time>2023-08-09T05:42:23.000Z</time>
</trkpt>
<trkpt lat="46.1519710" lon="10.4525820">
	<ele>2531.60</ele>
	<time>2023-08-09T05:42:24.000Z</time>
</trkpt>
<trkpt lat="46.1519730" lon="10.4525820">
	<ele>2531.80</ele>
	<time>2023-08-09T05:42:25.000Z</time>
</trkpt>
<trkpt lat="46.1519740" lon="10.4525820">
	<ele>2531.80</ele>
	<time>2023-08-09T05:42:26.000Z</time>
</trkpt>
<trkpt lat="46.1519750" lon="10.4525820">
	<ele>2532.00</ele>
	<time>2023-08-09T05:42:27.000Z</time>
</trkpt>
<trkpt lat="46.1519770" lon="10.4525820">
	<ele>2532.20</ele>
	<time>2023-08-09T05:42:28.000Z</time>
</trkpt>
<trkpt lat="46.1519780" lon="10.4525820">
	<ele>2532.20</ele>
	<time>2023-08-09T05:42:29.000Z</time>
</trkpt>
<trkpt lat="46.1519780" lon="10.4525830">
	<ele>2532.40</ele>
	<time>2023-08-09T05:42:30.000Z</time>
</trkpt>
<trkpt lat="46.1519800" lon="10.4525830">
	<ele>2532.40</ele>
	<time>2023-08-09T05:42:31.000Z</time>
</trkpt>
<trkpt lat="46.1519830" lon="10.4525840">
	<ele>2532.40</ele>
	<time>2023-08-09T05:42:32.000Z</time>
</trkpt>
<trkpt lat="46.1519870" lon="10.4525840">
	<ele>2532.60</ele>
	<time>2023-08-09T05:42:33.000Z</time>
</trkpt>
<trkpt lat="46.1519920" lon="10.4525850">
	<ele>2532.60</ele>
	<time>2023-08-09T05:42:34.000Z</time>
</trkpt>
<trkpt lat="46.1519950" lon="10.4525850">
	<ele>2532.60</ele>
	<time>2023-08-09T05:42:35.000Z</time>
</trkpt>
<trkpt lat="46.1519980" lon="10.4525850">
	<ele>2532.60</ele>
	<time>2023-08-09T05:42:36.000Z</time>
</trkpt>
<trkpt lat="46.1520020" lon="10.4525900">
	<ele>2532.80</ele>
	<time>2023-08-09T05:42:37.000Z</time>
</trkpt>
<trkpt lat="46.1520060" lon="10.4526020">
	<ele>2533.00</ele>
	<time>2023-08-09T05:42:38.000Z</time>
</trkpt>
<trkpt lat="46.1520090" lon="10.4526100">
	<ele>2533.00</ele>
	<time>2023-08-09T05:42:39.000Z</time>
</trkpt>
<trkpt lat="46.1520130" lon="10.4526230">
	<ele>2533.20</ele>
	<time>2023-08-09T05:42:40.000Z</time>
</trkpt>
<trkpt lat="46.1520160" lon="10.4526370">
	<ele>2533.20</ele>
	<time>2023-08-09T05:42:41.000Z</time>
</trkpt>
<trkpt lat="46.1520200" lon="10.4526450">
	<ele>2533.20</ele>
	<time>2023-08-09T05:42:42.000Z</time>
</trkpt>
<trkpt lat="46.1520250" lon="10.4526530">
	<ele>2533.20</ele>
	<time>2023-08-09T05:42:43.000Z</time>
</trkpt>
<trkpt lat="46.1520290" lon="10.4526620">
	<ele>2533.40</ele>
	<time>2023-08-09T05:42:44.000Z</time>
</trkpt>
<trkpt lat="46.1520350" lon="10.4526710">
	<ele>2533.60</ele>
	<time>2023-08-09T05:42:45.000Z</time>
</trkpt>
<trkpt lat="46.1520400" lon="10.4526810">
	<ele>2533.80</ele>
	<time>2023-08-09T05:42:46.000Z</time>
</trkpt>
<trkpt lat="46.1520400" lon="10.4526870">
	<ele>2533.80</ele>
	<time>2023-08-09T05:42:47.000Z</time>
</trkpt>
<trkpt lat="46.1520440" lon="10.4526940">
	<ele>2534.00</ele>
	<time>2023-08-09T05:42:48.000Z</time>
</trkpt>
<trkpt lat="46.1520450" lon="10.4527010">
	<ele>2534.00</ele>
	<time>2023-08-09T05:42:49.000Z</time>
</trkpt>
<trkpt lat="46.1520460" lon="10.4527050">
	<ele>2534.00</ele>
	<time>2023-08-09T05:42:50.000Z</time>
</trkpt>
<trkpt lat="46.1520470" lon="10.4527070">
	<ele>2534.20</ele>
	<time>2023-08-09T05:42:51.000Z</time>
</trkpt>
<trkpt lat="46.1520460" lon="10.4527080">
	<ele>2534.40</ele>
	<time>2023-08-09T05:42:52.000Z</time>
</trkpt>
<trkpt lat="46.1520460" lon="10.4527060">
	<ele>2534.60</ele>
	<time>2023-08-09T05:42:53.000Z</time>
</trkpt>
<trkpt lat="46.1520490" lon="10.4527060">
	<ele>2534.80</ele>
	<time>2023-08-09T05:42:54.000Z</time>
</trkpt>
<trkpt lat="46.1520510" lon="10.4527060">
	<ele>2534.80</ele>
	<time>2023-08-09T05:42:55.000Z</time>
</trkpt>
<trkpt lat="46.1520520" lon="10.4527070">
	<ele>2535.00</ele>
	<time>2023-08-09T05:42:56.000Z</time>
</trkpt>
<trkpt lat="46.1520540" lon="10.4527060">
	<ele>2535.20</ele>
	<time>2023-08-09T05:42:57.000Z</time>
</trkpt>
<trkpt lat="46.1520570" lon="10.4527020">
	<ele>2535.20</ele>
	<time>2023-08-09T05:42:58.000Z</time>
</trkpt>
<trkpt lat="46.1520630" lon="10.4527000">
	<ele>2535.40</ele>
	<time>2023-08-09T05:42:59.000Z</time>
</trkpt>
<trkpt lat="46.1520660" lon="10.4526990">
	<ele>2535.60</ele>
	<time>2023-08-09T05:43:00.000Z</time>
</trkpt>
<trkpt lat="46.1520670" lon="10.4526970">
	<ele>2535.60</ele>
	<time>2023-08-09T05:43:01.000Z</time>
</trkpt>
<trkpt lat="46.1520690" lon="10.4526980">
	<ele>2535.80</ele>
	<time>2023-08-09T05:43:02.000Z</time>
</trkpt>
<trkpt lat="46.1520720" lon="10.4527000">
	<ele>2535.80</ele>
	<time>2023-08-09T05:43:03.000Z</time>
</trkpt>
<trkpt lat="46.1520730" lon="10.4527000">
	<ele>2536.20</ele>
	<time>2023-08-09T05:43:04.000Z</time>
</trkpt>
<trkpt lat="46.1520740" lon="10.4526990">
	<ele>2536.40</ele>
	<time>2023-08-09T05:43:05.000Z</time>
</trkpt>
<trkpt lat="46.1520770" lon="10.4526990">
	<ele>2536.60</ele>
	<time>2023-08-09T05:43:06.000Z</time>
</trkpt>
<trkpt lat="46.1520760" lon="10.4526960">
	<ele>2536.60</ele>
	<time>2023-08-09T05:43:07.000Z</time>
</trkpt>
<trkpt lat="46.1520750" lon="10.4526900">
	<ele>2536.60</ele>
	<time>2023-08-09T05:43:08.000Z</time>
</trkpt>
<trkpt lat="46.1520790" lon="10.4526890">
	<ele>2536.80</ele>
	<time>2023-08-09T05:43:09.000Z</time>
</trkpt>
<trkpt lat="46.1520840" lon="10.4526870">
	<ele>2536.80</ele>
	<time>2023-08-09T05:43:10.000Z</time>
</trkpt>
<trkpt lat="46.1520860" lon="10.4526850">
	<ele>2536.80</ele>
	<time>2023-08-09T05:43:11.000Z</time>
</trkpt>
<trkpt lat="46.1520870" lon="10.4526830">
	<ele>2537.00</ele>
	<time>2023-08-09T05:43:12.000Z</time>
</trkpt>
<trkpt lat="46.1520890" lon="10.4526760">
	<ele>2537.20</ele>
	<time>2023-08-09T05:43:13.000Z</time>
</trkpt>
<trkpt lat="46.1520880" lon="10.4526660">
	<ele>2537.20</ele>
	<time>2023-08-09T05:43:14.000Z</time>
</trkpt>
<trkpt lat="46.1520890" lon="10.4526630">
	<ele>2537.20</ele>
	<time>2023-08-09T05:43:15.000Z</time>
</trkpt>
<trkpt lat="46.1520960" lon="10.4526550">
	<ele>2537.20</ele>
	<time>2023-08-09T05:43:16.000Z</time>
</trkpt>
<trkpt lat="46.1521020" lon="10.4526520">
	<ele>2537.20</ele>
	<time>2023-08-09T05:43:17.000Z</time>
</trkpt>
<trkpt lat="46.1521060" lon="10.4526580">
	<ele>2537.40</ele>
	<time>2023-08-09T05:43:18.000Z</time>
</trkpt>
<trkpt lat="46.1521080" lon="10.4526590">
	<ele>2537.60</ele>
	<time>2023-08-09T05:43:19.000Z</time>
</trkpt>
<trkpt lat="46.1521080" lon="10.4526610">
	<ele>2537.60</ele>
	<time>2023-08-09T05:43:20.000Z</time>
</trkpt>
<trkpt lat="46.1521080" lon="10.4526650">
	<ele>2537.80</ele>
	<time>2023-08-09T05:43:21.000Z</time>
</trkpt>
<trkpt lat="46.1521080" lon="10.4526740">
	<ele>2537.80</ele>
	<time>2023-08-09T05:43:22.000Z</time>
</trkpt>
<trkpt lat="46.1521060" lon="10.4526810">
	<ele>2538.00</ele>
	<time>2023-08-09T05:43:23.000Z</time>
</trkpt>
<trkpt lat="46.1521040" lon="10.4526870">
	<ele>2538.20</ele>
	<time>2023-08-09T05:43:24.000Z</time>
</trkpt>
<trkpt lat="46.1521050" lon="10.4526960">
	<ele>2538.40</ele>
	<time>2023-08-09T05:43:25.000Z</time>
</trkpt>
<trkpt lat="46.1521070" lon="10.4527010">
	<ele>2538.60</ele>
	<time>2023-08-09T05:43:26.000Z</time>
</trkpt>
<trkpt lat="46.1521080" lon="10.4527050">
	<ele>2538.60</ele>
	<time>2023-08-09T05:43:27.000Z</time>
</trkpt>
<trkpt lat="46.1521090" lon="10.4527060">
	<ele>2538.80</ele>
	<time>2023-08-09T05:43:28.000Z</time>
</trkpt>
<trkpt lat="46.1521100" lon="10.4527080">
	<ele>2538.80</ele>
	<time>2023-08-09T05:43:29.000Z</time>
</trkpt>
<trkpt lat="46.1521120" lon="10.4527070">
	<ele>2539.00</ele>
	<time>2023-08-09T05:43:30.000Z</time>
</trkpt>
<trkpt lat="46.1521150" lon="10.4527060">
	<ele>2539.20</ele>
	<time>2023-08-09T05:43:31.000Z</time>
</trkpt>
<trkpt lat="46.1521170" lon="10.4527030">
	<ele>2539.20</ele>
	<time>2023-08-09T05:43:32.000Z</time>
</trkpt>
<trkpt lat="46.1521180" lon="10.4527000">
	<ele>2539.40</ele>
	<time>2023-08-09T05:43:33.000Z</time>
</trkpt>
<trkpt lat="46.1521190" lon="10.4526970">
	<ele>2539.60</ele>
	<time>2023-08-09T05:43:34.000Z</time>
</trkpt>
<trkpt lat="46.1521240" lon="10.4526940">
	<ele>2539.80</ele>
	<time>2023-08-09T05:43:35.000Z</time>
</trkpt>
<trkpt lat="46.1521290" lon="10.4526960">
	<ele>2539.80</ele>
	<time>2023-08-09T05:43:36.000Z</time>
</trkpt>
<trkpt lat="46.1521310" lon="10.4526970">
	<ele>2540.00</ele>
	<time>2023-08-09T05:43:37.000Z</time>
</trkpt>
<trkpt lat="46.1521300" lon="10.4526990">
	<ele>2540.20</ele>
	<time>2023-08-09T05:43:38.000Z</time>
</trkpt>
<trkpt lat="46.1521300" lon="10.4526990">
	<ele>2540.40</ele>
	<time>2023-08-09T05:43:39.000Z</time>
</trkpt>
<trkpt lat="46.1521300" lon="10.4526990">
	<ele>2540.60</ele>
	<time>2023-08-09T05:43:40.000Z</time>
</trkpt>
<trkpt lat="46.1521300" lon="10.4526990">
	<ele>2540.80</ele>
	<time>2023-08-09T05:43:41.000Z</time>
</trkpt>
<trkpt lat="46.1521300" lon="10.4526990">
	<ele>2540.80</ele>
	<time>2023-08-09T05:43:42.000Z</time>
</trkpt>
<trkpt lat="46.1521300" lon="10.4526990">
	<ele>2541.00</ele>
	<time>2023-08-09T05:43:43.000Z</time>
</trkpt>
<trkpt lat="46.1521300" lon="10.4526990">
	<ele>2541.00</ele>
	<time>2023-08-09T05:43:44.000Z</time>
</trkpt>
<trkpt lat="46.1521300" lon="10.4526990">
	<ele>2541.20</ele>
	<time>2023-08-09T05:43:45.000Z</time>
</trkpt>
<trkpt lat="46.1521300" lon="10.4526990">
	<ele>2541.20</ele>
	<time>2023-08-09T05:43:46.000Z</time>
</trkpt>
<trkpt lat="46.1521300" lon="10.4526990">
	<ele>2541.20</ele>
	<time>2023-08-09T05:43:47.000Z</time>
</trkpt>
<trkpt lat="46.1521300" lon="10.4526990">
	<ele>2541.40</ele>
	<time>2023-08-09T05:43:48.000Z</time>
</trkpt>
<trkpt lat="46.1521300" lon="10.4526990">
	<ele>2541.60</ele>
	<time>2023-08-09T05:43:49.000Z</time>
</trkpt>
<trkpt lat="46.1521300" lon="10.4527000">
	<ele>2541.80</ele>
	<time>2023-08-09T05:43:50.000Z</time>
</trkpt>
<trkpt lat="46.1521300" lon="10.4527030">
	<ele>2542.00</ele>
	<time>2023-08-09T05:43:51.000Z</time>
</trkpt>
<trkpt lat="46.1521300" lon="10.4527060">
	<ele>2542.00</ele>
	<time>2023-08-09T05:43:52.000Z</time>
</trkpt>
<trkpt lat="46.1521310" lon="10.4527060">
	<ele>2542.40</ele>
	<time>2023-08-09T05:43:53.000Z</time>
</trkpt>
<trkpt lat="46.1521310" lon="10.4527070">
	<ele>2542.60</ele>
	<time>2023-08-09T05:43:54.000Z</time>
</trkpt>
<trkpt lat="46.1521310" lon="10.4527090">
	<ele>2542.80</ele>
	<time>2023-08-09T05:43:55.000Z</time>
</trkpt>
<trkpt lat="46.1521320" lon="10.4527100">
	<ele>2542.80</ele>
	<time>2023-08-09T05:43:56.000Z</time>
</trkpt>
<trkpt lat="46.1521330" lon="10.4527140">
	<ele>2543.00</ele>
	<time>2023-08-09T05:43:57.000Z</time>
</trkpt>
<trkpt lat="46.1521330" lon="10.4527180">
	<ele>2543.00</ele>
	<time>2023-08-09T05:43:58.000Z</time>
</trkpt>
<trkpt lat="46.1521340" lon="10.4527200">
	<ele>2543.20</ele>
	<time>2023-08-09T05:43:59.000Z</time>
</trkpt>
<trkpt lat="46.1521340" lon="10.4527210">
	<ele>2543.40</ele>
	<time>2023-08-09T05:44:00.000Z</time>
</trkpt>
<trkpt lat="46.1521350" lon="10.4527250">
	<ele>2543.40</ele>
	<time>2023-08-09T05:44:01.000Z</time>
</trkpt>
<trkpt lat="46.1521350" lon="10.4527300">
	<ele>2543.60</ele>
	<time>2023-08-09T05:44:02.000Z</time>
</trkpt>
<trkpt lat="46.1521350" lon="10.4527320">
	<ele>2543.60</ele>
	<time>2023-08-09T05:44:03.000Z</time>
</trkpt>
<trkpt lat="46.1521350" lon="10.4527330">
	<ele>2543.60</ele>
	<time>2023-08-09T05:44:04.000Z</time>
</trkpt>
<trkpt lat="46.1521360" lon="10.4527360">
	<ele>2543.80</ele>
	<time>2023-08-09T05:44:05.000Z</time>
</trkpt>
<trkpt lat="46.1521370" lon="10.4527370">
	<ele>2543.80</ele>
	<time>2023-08-09T05:44:06.000Z</time>
</trkpt>
<trkpt lat="46.1521370" lon="10.4527380">
	<ele>2543.80</ele>
	<time>2023-08-09T05:44:07.000Z</time>
</trkpt>
<trkpt lat="46.1521370" lon="10.4527390">
	<ele>2543.80</ele>
	<time>2023-08-09T05:44:08.000Z</time>
</trkpt>
<trkpt lat="46.1521380" lon="10.4527390">
	<ele>2543.80</ele>
	<time>2023-08-09T05:44:09.000Z</time>
</trkpt>
<trkpt lat="46.1521380" lon="10.4527400">
	<ele>2544.00</ele>
	<time>2023-08-09T05:44:10.000Z</time>
</trkpt>
<trkpt lat="46.1521380" lon="10.4527400">
	<ele>2544.20</ele>
	<time>2023-08-09T05:44:11.000Z</time>
</trkpt>
<trkpt lat="46.1521390" lon="10.4527400">
	<ele>2544.40</ele>
	<time>2023-08-09T05:44:12.000Z</time>
</trkpt>
<trkpt lat="46.1521440" lon="10.4527410">
	<ele>2544.60</ele>
	<time>2023-08-09T05:44:13.000Z</time>
</trkpt>
<trkpt lat="46.1521460" lon="10.4527430">
	<ele>2544.60</ele>
	<time>2023-08-09T05:44:14.000Z</time>
</trkpt>
<trkpt lat="46.1521460" lon="10.4527440">
	<ele>2544.80</ele>
	<time>2023-08-09T05:44:15.000Z</time>
</trkpt>
<trkpt lat="46.1521470" lon="10.4527460">
	<ele>2544.80</ele>
	<time>2023-08-09T05:44:16.000Z</time>
</trkpt>
<trkpt lat="46.1521490" lon="10.4527470">
	<ele>2544.80</ele>
	<time>2023-08-09T05:44:17.000Z</time>
</trkpt>
<trkpt lat="46.1521490" lon="10.4527490">
	<ele>2545.00</ele>
	<time>2023-08-09T05:44:18.000Z</time>
</trkpt>
<trkpt lat="46.1521490" lon="10.4527510">
	<ele>2545.00</ele>
	<time>2023-08-09T05:44:19.000Z</time>
</trkpt>
<trkpt lat="46.1521490" lon="10.4527530">
	<ele>2545.20</ele>
	<time>2023-08-09T05:44:20.000Z</time>
</trkpt>
<trkpt lat="46.1521500" lon="10.4527540">
	<ele>2545.20</ele>
	<time>2023-08-09T05:44:21.000Z</time>
</trkpt>
<trkpt lat="46.1521500" lon="10.4527590">
	<ele>2545.20</ele>
	<time>2023-08-09T05:44:22.000Z</time>
</trkpt>
<trkpt lat="46.1521500" lon="10.4527610">
	<ele>2545.40</ele>
	<time>2023-08-09T05:44:23.000Z</time>
</trkpt>
<trkpt lat="46.1521500" lon="10.4527630">
	<ele>2545.60</ele>
	<time>2023-08-09T05:44:24.000Z</time>
</trkpt>
<trkpt lat="46.1521510" lon="10.4527680">
	<ele>2545.60</ele>
	<time>2023-08-09T05:44:25.000Z</time>
</trkpt>
<trkpt lat="46.1521510" lon="10.4527730">
	<ele>2545.80</ele>
	<time>2023-08-09T05:44:26.000Z</time>
</trkpt>
<trkpt lat="46.1521510" lon="10.4527750">
	<ele>2546.00</ele>
	<time>2023-08-09T05:44:27.000Z</time>
</trkpt>
<trkpt lat="46.1521510" lon="10.4527780">
	<ele>2546.40</ele>
	<time>2023-08-09T05:44:28.000Z</time>
</trkpt>
<trkpt lat="46.1521520" lon="10.4527850">
	<ele>2546.60</ele>
	<time>2023-08-09T05:44:29.000Z</time>
</trkpt>
<trkpt lat="46.1521520" lon="10.4527940">
	<ele>2546.60</ele>
	<time>2023-08-09T05:44:30.000Z</time>
</trkpt>
<trkpt lat="46.1521520" lon="10.4528020">
	<ele>2546.80</ele>
	<time>2023-08-09T05:44:31.000Z</time>
</trkpt>
<trkpt lat="46.1521520" lon="10.4528070">
	<ele>2546.80</ele>
	<time>2023-08-09T05:44:32.000Z</time>
</trkpt>
<trkpt lat="46.1521530" lon="10.4528110">
	<ele>2547.00</ele>
	<time>2023-08-09T05:44:33.000Z</time>
</trkpt>
<trkpt lat="46.1521530" lon="10.4528180">
	<ele>2547.20</ele>
	<time>2023-08-09T05:44:34.000Z</time>
</trkpt>
<trkpt lat="46.1521530" lon="10.4528250">
	<ele>2547.20</ele>
	<time>2023-08-09T05:44:35.000Z</time>
</trkpt>
<trkpt lat="46.1521540" lon="10.4528330">
	<ele>2547.20</ele>
	<time>2023-08-09T05:44:36.000Z</time>
</trkpt>
<trkpt lat="46.1521540" lon="10.4528360">
	<ele>2547.60</ele>
	<time>2023-08-09T05:44:37.000Z</time>
</trkpt>
<trkpt lat="46.1521540" lon="10.4528420">
	<ele>2547.80</ele>
	<time>2023-08-09T05:44:38.000Z</time>
</trkpt>
<trkpt lat="46.1521540" lon="10.4528480">
	<ele>2548.00</ele>
	<time>2023-08-09T05:44:39.000Z</time>
</trkpt>
<trkpt lat="46.1521550" lon="10.4528570">
	<ele>2548.00</ele>
	<time>2023-08-09T05:44:40.000Z</time>
</trkpt>
<trkpt lat="46.1521550" lon="10.4528640">
	<ele>2548.00</ele>
	<time>2023-08-09T05:44:41.000Z</time>
</trkpt>
<trkpt lat="46.1521550" lon="10.4528700">
	<ele>2548.20</ele>
	<time>2023-08-09T05:44:42.000Z</time>
</trkpt>
<trkpt lat="46.1521560" lon="10.4528750">
	<ele>2548.40</ele>
	<time>2023-08-09T05:44:43.000Z</time>
</trkpt>
<trkpt lat="46.1521570" lon="10.4528810">
	<ele>2548.40</ele>
	<time>2023-08-09T05:44:44.000Z</time>
</trkpt>
<trkpt lat="46.1521570" lon="10.4528860">
	<ele>2548.40</ele>
	<time>2023-08-09T05:44:45.000Z</time>
</trkpt>
<trkpt lat="46.1521600" lon="10.4528920">
	<ele>2548.60</ele>
	<time>2023-08-09T05:44:46.000Z</time>
</trkpt>
<trkpt lat="46.1521620" lon="10.4528960">
	<ele>2548.80</ele>
	<time>2023-08-09T05:44:47.000Z</time>
</trkpt>
<trkpt lat="46.1521630" lon="10.4529000">
	<ele>2549.00</ele>
	<time>2023-08-09T05:44:48.000Z</time>
</trkpt>
<trkpt lat="46.1521640" lon="10.4529030">
	<ele>2549.00</ele>
	<time>2023-08-09T05:44:49.000Z</time>
</trkpt>
<trkpt lat="46.1521650" lon="10.4529080">
	<ele>2549.20</ele>
	<time>2023-08-09T05:44:50.000Z</time>
</trkpt>
<trkpt lat="46.1521650" lon="10.4529140">
	<ele>2549.40</ele>
	<time>2023-08-09T05:44:51.000Z</time>
</trkpt>
<trkpt lat="46.1521660" lon="10.4529200">
	<ele>2549.60</ele>
	<time>2023-08-09T05:44:52.000Z</time>
</trkpt>
<trkpt lat="46.1521660" lon="10.4529240">
	<ele>2549.80</ele>
	<time>2023-08-09T05:44:53.000Z</time>
</trkpt>
<trkpt lat="46.1521660" lon="10.4529280">
	<ele>2549.80</ele>
	<time>2023-08-09T05:44:54.000Z</time>
</trkpt>
<trkpt lat="46.1521670" lon="10.4529320">
	<ele>2550.00</ele>
	<time>2023-08-09T05:44:55.000Z</time>
</trkpt>
<trkpt lat="46.1521680" lon="10.4529390">
	<ele>2550.00</ele>
	<time>2023-08-09T05:44:56.000Z</time>
</trkpt>
<trkpt lat="46.1521680" lon="10.4529440">
	<ele>2550.20</ele>
	<time>2023-08-09T05:44:57.000Z</time>
</trkpt>
<trkpt lat="46.1521690" lon="10.4529490">
	<ele>2550.20</ele>
	<time>2023-08-09T05:44:58.000Z</time>
</trkpt>
<trkpt lat="46.1521700" lon="10.4529550">
	<ele>2550.40</ele>
	<time>2023-08-09T05:44:59.000Z</time>
</trkpt>
<trkpt lat="46.1521700" lon="10.4529600">
	<ele>2550.60</ele>
	<time>2023-08-09T05:45:00.000Z</time>
</trkpt>
<trkpt lat="46.1521700" lon="10.4529630">
	<ele>2550.60</ele>
	<time>2023-08-09T05:45:01.000Z</time>
</trkpt>
<trkpt lat="46.1521710" lon="10.4529660">
	<ele>2550.80</ele>
	<time>2023-08-09T05:45:02.000Z</time>
</trkpt>
<trkpt lat="46.1521720" lon="10.4529710">
	<ele>2551.00</ele>
	<time>2023-08-09T05:45:03.000Z</time>
</trkpt>
<trkpt lat="46.1521720" lon="10.4529780">
	<ele>2551.00</ele>
	<time>2023-08-09T05:45:04.000Z</time>
</trkpt>
<trkpt lat="46.1521730" lon="10.4529830">
	<ele>2551.20</ele>
	<time>2023-08-09T05:45:05.000Z</time>
</trkpt>
<trkpt lat="46.1521730" lon="10.4529860">
	<ele>2551.40</ele>
	<time>2023-08-09T05:45:06.000Z</time>
</trkpt>
<trkpt lat="46.1521730" lon="10.4529880">
	<ele>2551.60</ele>
	<time>2023-08-09T05:45:07.000Z</time>
</trkpt>
<trkpt lat="46.1521740" lon="10.4529890">
	<ele>2551.60</ele>
	<time>2023-08-09T05:45:08.000Z</time>
</trkpt>
<trkpt lat="46.1521740" lon="10.4529910">
	<ele>2551.80</ele>
	<time>2023-08-09T05:45:09.000Z</time>
</trkpt>
<trkpt lat="46.1521740" lon="10.4529980">
	<ele>2552.00</ele>
	<time>2023-08-09T05:45:10.000Z</time>
</trkpt>
<trkpt lat="46.1521750" lon="10.4530040">
	<ele>2552.20</ele>
	<time>2023-08-09T05:45:11.000Z</time>
</trkpt>
<trkpt lat="46.1521750" lon="10.4530090">
	<ele>2552.40</ele>
	<time>2023-08-09T05:45:12.000Z</time>
</trkpt>
<trkpt lat="46.1521760" lon="10.4530160">
	<ele>2552.40</ele>
	<time>2023-08-09T05:45:13.000Z</time>
</trkpt>
<trkpt lat="46.1521770" lon="10.4530220">
	<ele>2552.60</ele>
	<time>2023-08-09T05:45:14.000Z</time>
</trkpt>
<trkpt lat="46.1521770" lon="10.4530270">
	<ele>2552.60</ele>
	<time>2023-08-09T05:45:15.000Z</time>
</trkpt>
<trkpt lat="46.1521780" lon="10.4530340">
	<ele>2552.80</ele>
	<time>2023-08-09T05:45:16.000Z</time>
</trkpt>
<trkpt lat="46.1521780" lon="10.4530410">
	<ele>2552.80</ele>
	<time>2023-08-09T05:45:17.000Z</time>
</trkpt>
<trkpt lat="46.1521780" lon="10.4530460">
	<ele>2552.80</ele>
	<time>2023-08-09T05:45:18.000Z</time>
</trkpt>
<trkpt lat="46.1521780" lon="10.4530500">
	<ele>2552.80</ele>
	<time>2023-08-09T05:45:19.000Z</time>
</trkpt>
<trkpt lat="46.1521780" lon="10.4530530">
	<ele>2553.00</ele>
	<time>2023-08-09T05:45:20.000Z</time>
</trkpt>
<trkpt lat="46.1521780" lon="10.4530570">
	<ele>2553.00</ele>
	<time>2023-08-09T05:45:21.000Z</time>
</trkpt>
<trkpt lat="46.1521780" lon="10.4530600">
	<ele>2553.20</ele>
	<time>2023-08-09T05:45:22.000Z</time>
</trkpt>
<trkpt lat="46.1521780" lon="10.4530620">
	<ele>2553.20</ele>
	<time>2023-08-09T05:45:23.000Z</time>
</trkpt>
<trkpt lat="46.1521780" lon="10.4530650">
	<ele>2553.40</ele>
	<time>2023-08-09T05:45:24.000Z</time>
</trkpt>
<trkpt lat="46.1521770" lon="10.4530690">
	<ele>2553.40</ele>
	<time>2023-08-09T05:45:25.000Z</time>
</trkpt>
<trkpt lat="46.1521770" lon="10.4530720">
	<ele>2553.40</ele>
	<time>2023-08-09T05:45:26.000Z</time>
</trkpt>
<trkpt lat="46.1521760" lon="10.4530760">
	<ele>2553.60</ele>
	<time>2023-08-09T05:45:27.000Z</time>
</trkpt>
<trkpt lat="46.1521760" lon="10.4530800">
	<ele>2553.60</ele>
	<time>2023-08-09T05:45:28.000Z</time>
</trkpt>
<trkpt lat="46.1521760" lon="10.4530860">
	<ele>2553.60</ele>
	<time>2023-08-09T05:45:29.000Z</time>
</trkpt>
<trkpt lat="46.1521760" lon="10.4530930">
	<ele>2553.60</ele>
	<time>2023-08-09T05:45:30.000Z</time>
</trkpt>
<trkpt lat="46.1521750" lon="10.4531000">
	<ele>2553.80</ele>
	<time>2023-08-09T05:45:31.000Z</time>
</trkpt>
<trkpt lat="46.1521750" lon="10.4531070">
	<ele>2554.00</ele>
	<time>2023-08-09T05:45:32.000Z</time>
</trkpt>
<trkpt lat="46.1521750" lon="10.4531150">
	<ele>2554.20</ele>
	<time>2023-08-09T05:45:33.000Z</time>
</trkpt>
<trkpt lat="46.1521740" lon="10.4531220">
	<ele>2554.20</ele>
	<time>2023-08-09T05:45:34.000Z</time>
</trkpt>
<trkpt lat="46.1521740" lon="10.4531280">
	<ele>2554.20</ele>
	<time>2023-08-09T05:45:35.000Z</time>
</trkpt>
<trkpt lat="46.1521730" lon="10.4531340">
	<ele>2554.40</ele>
	<time>2023-08-09T05:45:36.000Z</time>
</trkpt>
<trkpt lat="46.1521730" lon="10.4531420">
	<ele>2554.40</ele>
	<time>2023-08-09T05:45:37.000Z</time>
</trkpt>
<trkpt lat="46.1521720" lon="10.4531490">
	<ele>2554.40</ele>
	<time>2023-08-09T05:45:38.000Z</time>
</trkpt>
<trkpt lat="46.1521720" lon="10.4531560">
	<ele>2554.40</ele>
	<time>2023-08-09T05:45:39.000Z</time>
</trkpt>
<trkpt lat="46.1521710" lon="10.4531630">
	<ele>2554.40</ele>
	<time>2023-08-09T05:45:40.000Z</time>
</trkpt>
<trkpt lat="46.1521700" lon="10.4531710">
	<ele>2554.40</ele>
	<time>2023-08-09T05:45:41.000Z</time>
</trkpt>
<trkpt lat="46.1521650" lon="10.4531840">
	<ele>2554.40</ele>
	<time>2023-08-09T05:45:42.000Z</time>
</trkpt>
<trkpt lat="46.1521570" lon="10.4532090">
	<ele>2554.40</ele>
	<time>2023-08-09T05:45:43.000Z</time>
</trkpt>
<trkpt lat="46.1521460" lon="10.4532360">
	<ele>2554.40</ele>
	<time>2023-08-09T05:45:44.000Z</time>
</trkpt>
<trkpt lat="46.1521380" lon="10.4532560">
	<ele>2554.40</ele>
	<time>2023-08-09T05:45:45.000Z</time>
</trkpt>
<trkpt lat="46.1521240" lon="10.4532750">
	<ele>2554.40</ele>
	<time>2023-08-09T05:45:46.000Z</time>
</trkpt>
<trkpt lat="46.1521140" lon="10.4532950">
	<ele>2554.40</ele>
	<time>2023-08-09T05:45:47.000Z</time>
</trkpt>
<trkpt lat="46.1521070" lon="10.4533140">
	<ele>2554.40</ele>
	<time>2023-08-09T05:45:48.000Z</time>
</trkpt>
<trkpt lat="46.1520980" lon="10.4533340">
	<ele>2554.60</ele>
	<time>2023-08-09T05:45:49.000Z</time>
</trkpt>
<trkpt lat="46.1520920" lon="10.4533590">
	<ele>2554.60</ele>
	<time>2023-08-09T05:45:50.000Z</time>
</trkpt>
<trkpt lat="46.1520850" lon="10.4533840">
	<ele>2554.60</ele>
	<time>2023-08-09T05:45:51.000Z</time>
</trkpt>
<trkpt lat="46.1520820" lon="10.4533930">
	<ele>2554.60</ele>
	<time>2023-08-09T05:45:52.000Z</time>
</trkpt>
<trkpt lat="46.1520760" lon="10.4534000">
	<ele>2554.60</ele>
	<time>2023-08-09T05:45:53.000Z</time>
</trkpt>
<trkpt lat="46.1520730" lon="10.4534060">
	<ele>2554.80</ele>
	<time>2023-08-09T05:45:54.000Z</time>
</trkpt>
<trkpt lat="46.1520710" lon="10.4534110">
	<ele>2554.80</ele>
	<time>2023-08-09T05:45:55.000Z</time>
</trkpt>
<trkpt lat="46.1520700" lon="10.4534200">
	<ele>2555.00</ele>
	<time>2023-08-09T05:45:56.000Z</time>
</trkpt>
<trkpt lat="46.1520690" lon="10.4534290">
	<ele>2555.00</ele>
	<time>2023-08-09T05:45:57.000Z</time>
</trkpt>
<trkpt lat="46.1520670" lon="10.4534360">
	<ele>2555.40</ele>
	<time>2023-08-09T05:45:58.000Z</time>
</trkpt>
<trkpt lat="46.1520670" lon="10.4534420">
	<ele>2555.60</ele>
	<time>2023-08-09T05:45:59.000Z</time>
</trkpt>
<trkpt lat="46.1520670" lon="10.4534450">
	<ele>2555.80</ele>
	<time>2023-08-09T05:46:00.000Z</time>
</trkpt>
<trkpt lat="46.1520670" lon="10.4534460">
	<ele>2556.00</ele>
	<time>2023-08-09T05:46:01.000Z</time>
</trkpt>
<trkpt lat="46.1520670" lon="10.4534500">
	<ele>2556.20</ele>
	<time>2023-08-09T05:46:02.000Z</time>
</trkpt>
<trkpt lat="46.1520690" lon="10.4534550">
	<ele>2556.20</ele>
	<time>2023-08-09T05:46:03.000Z</time>
</trkpt>
<trkpt lat="46.1520700" lon="10.4534640">
	<ele>2556.40</ele>
	<time>2023-08-09T05:46:04.000Z</time>
</trkpt>
<trkpt lat="46.1520710" lon="10.4534680">
	<ele>2556.60</ele>
	<time>2023-08-09T05:46:05.000Z</time>
</trkpt>
<trkpt lat="46.1520710" lon="10.4534710">
	<ele>2556.80</ele>
	<time>2023-08-09T05:46:06.000Z</time>
</trkpt>
<trkpt lat="46.1520720" lon="10.4534790">
	<ele>2557.00</ele>
	<time>2023-08-09T05:46:07.000Z</time>
</trkpt>
<trkpt lat="46.1520710" lon="10.4534830">
	<ele>2557.00</ele>
	<time>2023-08-09T05:46:08.000Z</time>
</trkpt>
<trkpt lat="46.1520700" lon="10.4534860">
	<ele>2557.20</ele>
	<time>2023-08-09T05:46:09.000Z</time>
</trkpt>
<trkpt lat="46.1520710" lon="10.4534900">
	<ele>2557.20</ele>
	<time>2023-08-09T05:46:10.000Z</time>
</trkpt>
<trkpt lat="46.1520710" lon="10.4534920">
	<ele>2557.20</ele>
	<time>2023-08-09T05:46:11.000Z</time>
</trkpt>
<trkpt lat="46.1520710" lon="10.4534950">
	<ele>2557.40</ele>
	<time>2023-08-09T05:46:12.000Z</time>
</trkpt>
<trkpt lat="46.1520780" lon="10.4535020">
	<ele>2557.60</ele>
	<time>2023-08-09T05:46:13.000Z</time>
</trkpt>
<trkpt lat="46.1520790" lon="10.4535060">
	<ele>2557.80</ele>
	<time>2023-08-09T05:46:14.000Z</time>
</trkpt>
<trkpt lat="46.1520820" lon="10.4535160">
	<ele>2558.00</ele>
	<time>2023-08-09T05:46:15.000Z</time>
</trkpt>
<trkpt lat="46.1520840" lon="10.4535240">
	<ele>2558.20</ele>
	<time>2023-08-09T05:46:16.000Z</time>
</trkpt>
<trkpt lat="46.1520840" lon="10.4535290">
	<ele>2558.20</ele>
	<time>2023-08-09T05:46:17.000Z</time>
</trkpt>
<trkpt lat="46.1520860" lon="10.4535310">
	<ele>2558.40</ele>
	<time>2023-08-09T05:46:18.000Z</time>
</trkpt>
<trkpt lat="46.1520870" lon="10.4535320">
	<ele>2558.60</ele>
	<time>2023-08-09T05:46:19.000Z</time>
</trkpt>
<trkpt lat="46.1520880" lon="10.4535340">
	<ele>2558.80</ele>
	<time>2023-08-09T05:46:20.000Z</time>
</trkpt>
<trkpt lat="46.1520870" lon="10.4535420">
	<ele>2559.00</ele>
	<time>2023-08-09T05:46:21.000Z</time>
</trkpt>
<trkpt lat="46.1520870" lon="10.4535480">
	<ele>2559.40</ele>
	<time>2023-08-09T05:46:22.000Z</time>
</trkpt>
<trkpt lat="46.1520880" lon="10.4535530">
	<ele>2559.60</ele>
	<time>2023-08-09T05:46:23.000Z</time>
</trkpt>
<trkpt lat="46.1520890" lon="10.4535560">
	<ele>2559.60</ele>
	<time>2023-08-09T05:46:24.000Z</time>
</trkpt>
<trkpt lat="46.1520870" lon="10.4535560">
	<ele>2559.80</ele>
	<time>2023-08-09T05:46:25.000Z</time>
</trkpt>
<trkpt lat="46.1520870" lon="10.4535560">
	<ele>2560.00</ele>
	<time>2023-08-09T05:46:26.000Z</time>
</trkpt>
<trkpt lat="46.1520860" lon="10.4535610">
	<ele>2560.00</ele>
	<time>2023-08-09T05:46:27.000Z</time>
</trkpt>
<trkpt lat="46.1520870" lon="10.4535690">
	<ele>2560.20</ele>
	<time>2023-08-09T05:46:28.000Z</time>
</trkpt>
<trkpt lat="46.1520850" lon="10.4535720">
	<ele>2560.40</ele>
	<time>2023-08-09T05:46:29.000Z</time>
</trkpt>
<trkpt lat="46.1520860" lon="10.4535780">
	<ele>2560.40</ele>
	<time>2023-08-09T05:46:30.000Z</time>
</trkpt>
<trkpt lat="46.1520890" lon="10.4535860">
	<ele>2560.40</ele>
	<time>2023-08-09T05:46:31.000Z</time>
</trkpt>
<trkpt lat="46.1520880" lon="10.4535950">
	<ele>2560.60</ele>
	<time>2023-08-09T05:46:32.000Z</time>
</trkpt>
<trkpt lat="46.1520880" lon="10.4536020">
	<ele>2560.60</ele>
	<time>2023-08-09T05:46:33.000Z</time>
</trkpt>
<trkpt lat="46.1520880" lon="10.4536060">
	<ele>2560.60</ele>
	<time>2023-08-09T05:46:34.000Z</time>
</trkpt>
<trkpt lat="46.1520840" lon="10.4536090">
	<ele>2560.80</ele>
	<time>2023-08-09T05:46:35.000Z</time>
</trkpt>
<trkpt lat="46.1520860" lon="10.4536160">
	<ele>2561.20</ele>
	<time>2023-08-09T05:46:36.000Z</time>
</trkpt>
<trkpt lat="46.1520860" lon="10.4536200">
	<ele>2561.40</ele>
	<time>2023-08-09T05:46:37.000Z</time>
</trkpt>
<trkpt lat="46.1520850" lon="10.4536240">
	<ele>2561.60</ele>
	<time>2023-08-09T05:46:38.000Z</time>
</trkpt>
<trkpt lat="46.1520840" lon="10.4536290">
	<ele>2561.80</ele>
	<time>2023-08-09T05:46:39.000Z</time>
</trkpt>
<trkpt lat="46.1520840" lon="10.4536310">
	<ele>2561.80</ele>
	<time>2023-08-09T05:46:40.000Z</time>
</trkpt>
<trkpt lat="46.1520840" lon="10.4536300">
	<ele>2561.80</ele>
	<time>2023-08-09T05:46:41.000Z</time>
</trkpt>
<trkpt lat="46.1520840" lon="10.4536320">
	<ele>2562.00</ele>
	<time>2023-08-09T05:46:42.000Z</time>
</trkpt>
<trkpt lat="46.1520860" lon="10.4536360">
	<ele>2562.00</ele>
	<time>2023-08-09T05:46:43.000Z</time>
</trkpt>
<trkpt lat="46.1520890" lon="10.4536370">
	<ele>2562.40</ele>
	<time>2023-08-09T05:46:44.000Z</time>
</trkpt>
<trkpt lat="46.1520910" lon="10.4536370">
	<ele>2562.60</ele>
	<time>2023-08-09T05:46:45.000Z</time>
</trkpt>
<trkpt lat="46.1520930" lon="10.4536360">
	<ele>2562.60</ele>
	<time>2023-08-09T05:46:46.000Z</time>
</trkpt>
<trkpt lat="46.1520950" lon="10.4536380">
	<ele>2562.80</ele>
	<time>2023-08-09T05:46:47.000Z</time>
</trkpt>
<trkpt lat="46.1520960" lon="10.4536400">
	<ele>2563.00</ele>
	<time>2023-08-09T05:46:48.000Z</time>
</trkpt>
<trkpt lat="46.1520960" lon="10.4536420">
	<ele>2563.00</ele>
	<time>2023-08-09T05:46:49.000Z</time>
</trkpt>
<trkpt lat="46.1520960" lon="10.4536420">
	<ele>2563.00</ele>
	<time>2023-08-09T05:46:50.000Z</time>
</trkpt>
<trkpt lat="46.1520960" lon="10.4536420">
	<ele>2563.20</ele>
	<time>2023-08-09T05:46:51.000Z</time>
</trkpt>
<trkpt lat="46.1520960" lon="10.4536420">
	<ele>2563.40</ele>
	<time>2023-08-09T05:46:52.000Z</time>
</trkpt>
<trkpt lat="46.1520960" lon="10.4536420">
	<ele>2563.60</ele>
	<time>2023-08-09T05:46:53.000Z</time>
</trkpt>
<trkpt lat="46.1520960" lon="10.4536420">
	<ele>2563.60</ele>
	<time>2023-08-09T05:46:54.000Z</time>
</trkpt>
<trkpt lat="46.1520960" lon="10.4536420">
	<ele>2563.80</ele>
	<time>2023-08-09T05:46:55.000Z</time>
</trkpt>
<trkpt lat="46.1520960" lon="10.4536420">
	<ele>2564.00</ele>
	<time>2023-08-09T05:46:56.000Z</time>
</trkpt>
<trkpt lat="46.1520960" lon="10.4536420">
	<ele>2564.00</ele>
	<time>2023-08-09T05:46:57.000Z</time>
</trkpt>
<trkpt lat="46.1520960" lon="10.4536420">
	<ele>2564.20</ele>
	<time>2023-08-09T05:46:58.000Z</time>
</trkpt>
<trkpt lat="46.1520960" lon="10.4536420">
	<ele>2564.40</ele>
	<time>2023-08-09T05:46:59.000Z</time>
</trkpt>
<trkpt lat="46.1520960" lon="10.4536420">
	<ele>2564.40</ele>
	<time>2023-08-09T05:47:00.000Z</time>
</trkpt>
<trkpt lat="46.1520960" lon="10.4536420">
	<ele>2564.40</ele>
	<time>2023-08-09T05:47:01.000Z</time>
</trkpt>
<trkpt lat="46.1520960" lon="10.4536420">
	<ele>2564.60</ele>
	<time>2023-08-09T05:47:02.000Z</time>
</trkpt>
<trkpt lat="46.1520960" lon="10.4536420">
	<ele>2564.60</ele>
	<time>2023-08-09T05:47:03.000Z</time>
</trkpt>
<trkpt lat="46.1520950" lon="10.4536420">
	<ele>2564.60</ele>
	<time>2023-08-09T05:47:04.000Z</time>
</trkpt>
<trkpt lat="46.1520940" lon="10.4536440">
	<ele>2564.80</ele>
	<time>2023-08-09T05:47:05.000Z</time>
</trkpt>
<trkpt lat="46.1520930" lon="10.4536470">
	<ele>2564.80</ele>
	<time>2023-08-09T05:47:06.000Z</time>
</trkpt>
<trkpt lat="46.1520910" lon="10.4536520">
	<ele>2565.00</ele>
	<time>2023-08-09T05:47:07.000Z</time>
</trkpt>
<trkpt lat="46.1520900" lon="10.4536550">
	<ele>2565.00</ele>
	<time>2023-08-09T05:47:08.000Z</time>
</trkpt>
<trkpt lat="46.1520890" lon="10.4536580">
	<ele>2565.00</ele>
	<time>2023-08-09T05:47:09.000Z</time>
</trkpt>
<trkpt lat="46.1520870" lon="10.4536640">
	<ele>2565.20</ele>
	<time>2023-08-09T05:47:10.000Z</time>
</trkpt>
<trkpt lat="46.1520870" lon="10.4536670">
	<ele>2565.20</ele>
	<time>2023-08-09T05:47:11.000Z</time>
</trkpt>
<trkpt lat="46.1520870" lon="10.4536740">
	<ele>2565.40</ele>
	<time>2023-08-09T05:47:12.000Z</time>
</trkpt>
<trkpt lat="46.1520870" lon="10.4536770">
	<ele>2565.60</ele>
	<time>2023-08-09T05:47:13.000Z</time>
</trkpt>
<trkpt lat="46.1520850" lon="10.4536790">
	<ele>2565.60</ele>
	<time>2023-08-09T05:47:14.000Z</time>
</trkpt>
<trkpt lat="46.1520840" lon="10.4536830">
	<ele>2565.80</ele>
	<time>2023-08-09T05:47:15.000Z</time>
</trkpt>
<trkpt lat="46.1520820" lon="10.4536900">
	<ele>2565.80</ele>
	<time>2023-08-09T05:47:16.000Z</time>
</trkpt>
<trkpt lat="46.1520790" lon="10.4536960">
	<ele>2565.80</ele>
	<time>2023-08-09T05:47:17.000Z</time>
</trkpt>
<trkpt lat="46.1520780" lon="10.4537010">
	<ele>2566.00</ele>
	<time>2023-08-09T05:47:18.000Z</time>
</trkpt>
<trkpt lat="46.1520770" lon="10.4537080">
	<ele>2566.00</ele>
	<time>2023-08-09T05:47:19.000Z</time>
</trkpt>
<trkpt lat="46.1520770" lon="10.4537170">
	<ele>2566.40</ele>
	<time>2023-08-09T05:47:20.000Z</time>
</trkpt>
<trkpt lat="46.1520740" lon="10.4537260">
	<ele>2566.60</ele>
	<time>2023-08-09T05:47:21.000Z</time>
</trkpt>
<trkpt lat="46.1520710" lon="10.4537330">
	<ele>2566.80</ele>
	<time>2023-08-09T05:47:22.000Z</time>
</trkpt>
<trkpt lat="46.1520700" lon="10.4537380">
	<ele>2566.80</ele>
	<time>2023-08-09T05:47:23.000Z</time>
</trkpt>
<trkpt lat="46.1520680" lon="10.4537400">
	<ele>2567.00</ele>
	<time>2023-08-09T05:47:24.000Z</time>
</trkpt>
<trkpt lat="46.1520660" lon="10.4537460">
	<ele>2567.20</ele>
	<time>2023-08-09T05:47:25.000Z</time>
</trkpt>
<trkpt lat="46.1520650" lon="10.4537530">
	<ele>2567.20</ele>
	<time>2023-08-09T05:47:26.000Z</time>
</trkpt>
<trkpt lat="46.1520630" lon="10.4537580">
	<ele>2567.40</ele>
	<time>2023-08-09T05:47:27.000Z</time>
</trkpt>
<trkpt lat="46.1520580" lon="10.4537640">
	<ele>2567.40</ele>
	<time>2023-08-09T05:47:28.000Z</time>
</trkpt>
<trkpt lat="46.1520550" lon="10.4537680">
	<ele>2567.40</ele>
	<time>2023-08-09T05:47:29.000Z</time>
</trkpt>
<trkpt lat="46.1520520" lon="10.4537730">
	<ele>2567.40</ele>
	<time>2023-08-09T05:47:30.000Z</time>
</trkpt>
<trkpt lat="46.1520510" lon="10.4537760">
	<ele>2567.80</ele>
	<time>2023-08-09T05:47:31.000Z</time>
</trkpt>
<trkpt lat="46.1520510" lon="10.4537780">
	<ele>2568.00</ele>
	<time>2023-08-09T05:47:32.000Z</time>
</trkpt>
<trkpt lat="46.1520510" lon="10.4537840">
	<ele>2568.00</ele>
	<time>2023-08-09T05:47:33.000Z</time>
</trkpt>
<trkpt lat="46.1520510" lon="10.4537910">
	<ele>2568.20</ele>
	<time>2023-08-09T05:47:34.000Z</time>
</trkpt>
<trkpt lat="46.1520510" lon="10.4537970">
	<ele>2568.40</ele>
	<time>2023-08-09T05:47:35.000Z</time>
</trkpt>
<trkpt lat="46.1520510" lon="10.4538030">
	<ele>2568.60</ele>
	<time>2023-08-09T05:47:36.000Z</time>
</trkpt>
<trkpt lat="46.1520510" lon="10.4538070">
	<ele>2568.80</ele>
	<time>2023-08-09T05:47:37.000Z</time>
</trkpt>
<trkpt lat="46.1520510" lon="10.4538140">
	<ele>2568.80</ele>
	<time>2023-08-09T05:47:38.000Z</time>
</trkpt>
<trkpt lat="46.1520510" lon="10.4538230">
	<ele>2569.00</ele>
	<time>2023-08-09T05:47:39.000Z</time>
</trkpt>
<trkpt lat="46.1520510" lon="10.4538320">
	<ele>2569.20</ele>
	<time>2023-08-09T05:47:40.000Z</time>
</trkpt>
<trkpt lat="46.1520510" lon="10.4538380">
	<ele>2569.20</ele>
	<time>2023-08-09T05:47:41.000Z</time>
</trkpt>
<trkpt lat="46.1520510" lon="10.4538440">
	<ele>2569.40</ele>
	<time>2023-08-09T05:47:42.000Z</time>
</trkpt>
<trkpt lat="46.1520510" lon="10.4538480">
	<ele>2569.60</ele>
	<time>2023-08-09T05:47:43.000Z</time>
</trkpt>
<trkpt lat="46.1520510" lon="10.4538540">
	<ele>2569.80</ele>
	<time>2023-08-09T05:47:44.000Z</time>
</trkpt>
<trkpt lat="46.1520510" lon="10.4538580">
	<ele>2569.80</ele>
	<time>2023-08-09T05:47:45.000Z</time>
</trkpt>
<trkpt lat="46.1520510" lon="10.4538620">
	<ele>2570.00</ele>
	<time>2023-08-09T05:47:46.000Z</time>
</trkpt>
<trkpt lat="46.1520510" lon="10.4538650">
	<ele>2570.00</ele>
	<time>2023-08-09T05:47:47.000Z</time>
</trkpt>
<trkpt lat="46.1520520" lon="10.4538730">
	<ele>2570.20</ele>
	<time>2023-08-09T05:47:48.000Z</time>
</trkpt>
<trkpt lat="46.1520540" lon="10.4538830">
	<ele>2570.40</ele>
	<time>2023-08-09T05:47:49.000Z</time>
</trkpt>
<trkpt lat="46.1520580" lon="10.4538910">
	<ele>2570.40</ele>
	<time>2023-08-09T05:47:50.000Z</time>
</trkpt>
<trkpt lat="46.1520650" lon="10.4539010">
	<ele>2570.60</ele>
	<time>2023-08-09T05:47:51.000Z</time>
</trkpt>
<trkpt lat="46.1520670" lon="10.4539140">
	<ele>2570.80</ele>
	<time>2023-08-09T05:47:52.000Z</time>
</trkpt>
<trkpt lat="46.1520680" lon="10.4539270">
	<ele>2570.80</ele>
	<time>2023-08-09T05:47:53.000Z</time>
</trkpt>
<trkpt lat="46.1520690" lon="10.4539370">
	<ele>2571.00</ele>
	<time>2023-08-09T05:47:54.000Z</time>
</trkpt>
<trkpt lat="46.1520700" lon="10.4539470">
	<ele>2571.00</ele>
	<time>2023-08-09T05:47:55.000Z</time>
</trkpt>
<trkpt lat="46.1520760" lon="10.4539600">
	<ele>2571.20</ele>
	<time>2023-08-09T05:47:56.000Z</time>
</trkpt>
<trkpt lat="46.1520830" lon="10.4539780">
	<ele>2571.20</ele>
	<time>2023-08-09T05:47:57.000Z</time>
</trkpt>
<trkpt lat="46.1520860" lon="10.4539840">
	<ele>2571.60</ele>
	<time>2023-08-09T05:47:58.000Z</time>
</trkpt>
<trkpt lat="46.1520870" lon="10.4539880">
	<ele>2571.80</ele>
	<time>2023-08-09T05:47:59.000Z</time>
</trkpt>
<trkpt lat="46.1520860" lon="10.4539900">
	<ele>2572.00</ele>
	<time>2023-08-09T05:48:00.000Z</time>
</trkpt>
<trkpt lat="46.1520880" lon="10.4539940">
	<ele>2572.00</ele>
	<time>2023-08-09T05:48:01.000Z</time>
</trkpt>
<trkpt lat="46.1520910" lon="10.4540040">
	<ele>2572.20</ele>
	<time>2023-08-09T05:48:02.000Z</time>
</trkpt>
<trkpt lat="46.1520900" lon="10.4540120">
	<ele>2572.20</ele>
	<time>2023-08-09T05:48:03.000Z</time>
</trkpt>
<trkpt lat="46.1520900" lon="10.4540190">
	<ele>2572.40</ele>
	<time>2023-08-09T05:48:04.000Z</time>
</trkpt>
<trkpt lat="46.1520900" lon="10.4540240">
	<ele>2572.60</ele>
	<time>2023-08-09T05:48:05.000Z</time>
</trkpt>
<trkpt lat="46.1520890" lon="10.4540270">
	<ele>2572.80</ele>
	<time>2023-08-09T05:48:06.000Z</time>
</trkpt>
<trkpt lat="46.1520900" lon="10.4540290">
	<ele>2572.80</ele>
	<time>2023-08-09T05:48:07.000Z</time>
</trkpt>
<trkpt lat="46.1520910" lon="10.4540330">
	<ele>2573.00</ele>
	<time>2023-08-09T05:48:08.000Z</time>
</trkpt>
<trkpt lat="46.1520910" lon="10.4540370">
	<ele>2573.00</ele>
	<time>2023-08-09T05:48:09.000Z</time>
</trkpt>
<trkpt lat="46.1520890" lon="10.4540400">
	<ele>2573.20</ele>
	<time>2023-08-09T05:48:10.000Z</time>
</trkpt>
<trkpt lat="46.1520880" lon="10.4540450">
	<ele>2573.20</ele>
	<time>2023-08-09T05:48:11.000Z</time>
</trkpt>
<trkpt lat="46.1520890" lon="10.4540510">
	<ele>2573.20</ele>
	<time>2023-08-09T05:48:12.000Z</time>
</trkpt>
<trkpt lat="46.1520860" lon="10.4540580">
	<ele>2573.40</ele>
	<time>2023-08-09T05:48:13.000Z</time>
</trkpt>
<trkpt lat="46.1520850" lon="10.4540630">
	<ele>2573.40</ele>
	<time>2023-08-09T05:48:14.000Z</time>
</trkpt>
<trkpt lat="46.1520840" lon="10.4540700">
	<ele>2573.40</ele>
	<time>2023-08-09T05:48:15.000Z</time>
</trkpt>
<trkpt lat="46.1520820" lon="10.4540750">
	<ele>2573.60</ele>
	<time>2023-08-09T05:48:16.000Z</time>
</trkpt>
<trkpt lat="46.1520810" lon="10.4540780">
	<ele>2573.80</ele>
	<time>2023-08-09T05:48:17.000Z</time>
</trkpt>
<trkpt lat="46.1520810" lon="10.4540820">
	<ele>2573.80</ele>
	<time>2023-08-09T05:48:18.000Z</time>
</trkpt>
<trkpt lat="46.1520810" lon="10.4540840">
	<ele>2573.80</ele>
	<time>2023-08-09T05:48:19.000Z</time>
</trkpt>
<trkpt lat="46.1520810" lon="10.4540850">
	<ele>2574.00</ele>
	<time>2023-08-09T05:48:20.000Z</time>
</trkpt>
<trkpt lat="46.1520810" lon="10.4540850">
	<ele>2574.20</ele>
	<time>2023-08-09T05:48:21.000Z</time>
</trkpt>
<trkpt lat="46.1520810" lon="10.4540850">
	<ele>2574.20</ele>
	<time>2023-08-09T05:48:22.000Z</time>
</trkpt>
<trkpt lat="46.1520810" lon="10.4540850">
	<ele>2574.40</ele>
	<time>2023-08-09T05:48:23.000Z</time>
</trkpt>
<trkpt lat="46.1520810" lon="10.4540850">
	<ele>2574.40</ele>
	<time>2023-08-09T05:48:24.000Z</time>
</trkpt>
<trkpt lat="46.1520810" lon="10.4540850">
	<ele>2574.60</ele>
	<time>2023-08-09T05:48:25.000Z</time>
</trkpt>
<trkpt lat="46.1520810" lon="10.4540850">
	<ele>2574.80</ele>
	<time>2023-08-09T05:48:26.000Z</time>
</trkpt>
<trkpt lat="46.1520810" lon="10.4540850">
	<ele>2574.80</ele>
	<time>2023-08-09T05:48:27.000Z</time>
</trkpt>
<trkpt lat="46.1520810" lon="10.4540850">
	<ele>2575.00</ele>
	<time>2023-08-09T05:48:28.000Z</time>
</trkpt>
<trkpt lat="46.1520810" lon="10.4540850">
	<ele>2575.00</ele>
	<time>2023-08-09T05:48:29.000Z</time>
</trkpt>
<trkpt lat="46.1520810" lon="10.4540850">
	<ele>2575.20</ele>
	<time>2023-08-09T05:48:30.000Z</time>
</trkpt>
<trkpt lat="46.1520820" lon="10.4540850">
	<ele>2575.20</ele>
	<time>2023-08-09T05:48:31.000Z</time>
</trkpt>
<trkpt lat="46.1520820" lon="10.4540850">
	<ele>2575.40</ele>
	<time>2023-08-09T05:48:32.000Z</time>
</trkpt>
<trkpt lat="46.1520820" lon="10.4540850">
	<ele>2575.60</ele>
	<time>2023-08-09T05:48:33.000Z</time>
</trkpt>
<trkpt lat="46.1520820" lon="10.4540850">
	<ele>2576.00</ele>
	<time>2023-08-09T05:48:34.000Z</time>
</trkpt>
<trkpt lat="46.1520820" lon="10.4540850">
	<ele>2576.00</ele>
	<time>2023-08-09T05:48:35.000Z</time>
</trkpt>
<trkpt lat="46.1520820" lon="10.4540900">
	<ele>2576.20</ele>
	<time>2023-08-09T05:48:36.000Z</time>
</trkpt>
<trkpt lat="46.1520820" lon="10.4540950">
	<ele>2576.40</ele>
	<time>2023-08-09T05:48:37.000Z</time>
</trkpt>
<trkpt lat="46.1520820" lon="10.4540970">
	<ele>2576.40</ele>
	<time>2023-08-09T05:48:38.000Z</time>
</trkpt>
<trkpt lat="46.1520820" lon="10.4540980">
	<ele>2576.60</ele>
	<time>2023-08-09T05:48:39.000Z</time>
</trkpt>
<trkpt lat="46.1520820" lon="10.4541030">
	<ele>2576.80</ele>
	<time>2023-08-09T05:48:40.000Z</time>
</trkpt>
<trkpt lat="46.1520820" lon="10.4541090">
	<ele>2577.00</ele>
	<time>2023-08-09T05:48:41.000Z</time>
</trkpt>
<trkpt lat="46.1520820" lon="10.4541130">
	<ele>2577.00</ele>
	<time>2023-08-09T05:48:42.000Z</time>
</trkpt>
<trkpt lat="46.1520820" lon="10.4541170">
	<ele>2577.20</ele>
	<time>2023-08-09T05:48:43.000Z</time>
</trkpt>
<trkpt lat="46.1520810" lon="10.4541190">
	<ele>2577.40</ele>
	<time>2023-08-09T05:48:44.000Z</time>
</trkpt>
<trkpt lat="46.1520810" lon="10.4541260">
	<ele>2577.40</ele>
	<time>2023-08-09T05:48:45.000Z</time>
</trkpt>
<trkpt lat="46.1520810" lon="10.4541330">
	<ele>2577.40</ele>
	<time>2023-08-09T05:48:46.000Z</time>
</trkpt>
<trkpt lat="46.1520810" lon="10.4541380">
	<ele>2577.60</ele>
	<time>2023-08-09T05:48:47.000Z</time>
</trkpt>
<trkpt lat="46.1520790" lon="10.4541430">
	<ele>2577.60</ele>
	<time>2023-08-09T05:48:48.000Z</time>
</trkpt>
<trkpt lat="46.1520770" lon="10.4541500">
	<ele>2577.80</ele>
	<time>2023-08-09T05:48:49.000Z</time>
</trkpt>
<trkpt lat="46.1520760" lon="10.4541570">
	<ele>2577.80</ele>
	<time>2023-08-09T05:48:50.000Z</time>
</trkpt>
<trkpt lat="46.1520750" lon="10.4541620">
	<ele>2578.00</ele>
	<time>2023-08-09T05:48:51.000Z</time>
</trkpt>
<trkpt lat="46.1520730" lon="10.4541670">
	<ele>2578.00</ele>
	<time>2023-08-09T05:48:52.000Z</time>
</trkpt>
<trkpt lat="46.1520710" lon="10.4541720">
	<ele>2578.20</ele>
	<time>2023-08-09T05:48:53.000Z</time>
</trkpt>
<trkpt lat="46.1520690" lon="10.4541750">
	<ele>2578.20</ele>
	<time>2023-08-09T05:48:54.000Z</time>
</trkpt>
<trkpt lat="46.1520660" lon="10.4541830">
	<ele>2578.40</ele>
	<time>2023-08-09T05:48:55.000Z</time>
</trkpt>
<trkpt lat="46.1520600" lon="10.4541950">
	<ele>2578.40</ele>
	<time>2023-08-09T05:48:56.000Z</time>
</trkpt>
<trkpt lat="46.1520510" lon="10.4542100">
	<ele>2578.60</ele>
	<time>2023-08-09T05:48:57.000Z</time>
</trkpt>
<trkpt lat="46.1520450" lon="10.4542220">
	<ele>2578.80</ele>
	<time>2023-08-09T05:48:58.000Z</time>
</trkpt>
<trkpt lat="46.1520390" lon="10.4542320">
	<ele>2579.00</ele>
	<time>2023-08-09T05:48:59.000Z</time>
</trkpt>
<trkpt lat="46.1520330" lon="10.4542430">
	<ele>2579.00</ele>
	<time>2023-08-09T05:49:00.000Z</time>
</trkpt>
<trkpt lat="46.1520300" lon="10.4542550">
	<ele>2579.20</ele>
	<time>2023-08-09T05:49:01.000Z</time>
</trkpt>
<trkpt lat="46.1520240" lon="10.4542680">
	<ele>2579.40</ele>
	<time>2023-08-09T05:49:02.000Z</time>
</trkpt>
<trkpt lat="46.1520190" lon="10.4542780">
	<ele>2579.60</ele>
	<time>2023-08-09T05:49:03.000Z</time>
</trkpt>
<trkpt lat="46.1520160" lon="10.4542890">
	<ele>2579.80</ele>
	<time>2023-08-09T05:49:04.000Z</time>
</trkpt>
<trkpt lat="46.1520160" lon="10.4542920">
	<ele>2580.00</ele>
	<time>2023-08-09T05:49:05.000Z</time>
</trkpt>
<trkpt lat="46.1520180" lon="10.4542980">
	<ele>2580.00</ele>
	<time>2023-08-09T05:49:06.000Z</time>
</trkpt>
<trkpt lat="46.1520180" lon="10.4543020">
	<ele>2580.00</ele>
	<time>2023-08-09T05:49:07.000Z</time>
</trkpt>
<trkpt lat="46.1520190" lon="10.4543030">
	<ele>2580.20</ele>
	<time>2023-08-09T05:49:08.000Z</time>
</trkpt>
<trkpt lat="46.1520200" lon="10.4543080">
	<ele>2580.20</ele>
	<time>2023-08-09T05:49:09.000Z</time>
</trkpt>
<trkpt lat="46.1520230" lon="10.4543130">
	<ele>2580.20</ele>
	<time>2023-08-09T05:49:10.000Z</time>
</trkpt>
<trkpt lat="46.1520250" lon="10.4543170">
	<ele>2580.20</ele>
	<time>2023-08-09T05:49:11.000Z</time>
</trkpt>
<trkpt lat="46.1520280" lon="10.4543170">
	<ele>2580.20</ele>
	<time>2023-08-09T05:49:12.000Z</time>
</trkpt>
<trkpt lat="46.1520290" lon="10.4543200">
	<ele>2580.40</ele>
	<time>2023-08-09T05:49:13.000Z</time>
</trkpt>
<trkpt lat="46.1520330" lon="10.4543200">
	<ele>2580.40</ele>
	<time>2023-08-09T05:49:14.000Z</time>
</trkpt>
<trkpt lat="46.1520380" lon="10.4543210">
	<ele>2580.60</ele>
	<time>2023-08-09T05:49:15.000Z</time>
</trkpt>
<trkpt lat="46.1520400" lon="10.4543220">
	<ele>2580.80</ele>
	<time>2023-08-09T05:49:16.000Z</time>
</trkpt>
<trkpt lat="46.1520430" lon="10.4543220">
	<ele>2581.00</ele>
	<time>2023-08-09T05:49:17.000Z</time>
</trkpt>
<trkpt lat="46.1520450" lon="10.4543210">
	<ele>2581.20</ele>
	<time>2023-08-09T05:49:18.000Z</time>
</trkpt>
<trkpt lat="46.1520470" lon="10.4543260">
	<ele>2581.40</ele>
	<time>2023-08-09T05:49:19.000Z</time>
</trkpt>
<trkpt lat="46.1520490" lon="10.4543250">
	<ele>2581.40</ele>
	<time>2023-08-09T05:49:20.000Z</time>
</trkpt>
<trkpt lat="46.1520510" lon="10.4543230">
	<ele>2581.60</ele>
	<time>2023-08-09T05:49:21.000Z</time>
</trkpt>
<trkpt lat="46.1520540" lon="10.4543210">
	<ele>2581.80</ele>
	<time>2023-08-09T05:49:22.000Z</time>
</trkpt>
<trkpt lat="46.1520550" lon="10.4543180">
	<ele>2581.80</ele>
	<time>2023-08-09T05:49:23.000Z</time>
</trkpt>
<trkpt lat="46.1520570" lon="10.4543160">
	<ele>2581.80</ele>
	<time>2023-08-09T05:49:24.000Z</time>
</trkpt>
<trkpt lat="46.1520610" lon="10.4543170">
	<ele>2582.00</ele>
	<time>2023-08-09T05:49:25.000Z</time>
</trkpt>
<trkpt lat="46.1520650" lon="10.4543190">
	<ele>2582.00</ele>
	<time>2023-08-09T05:49:26.000Z</time>
</trkpt>
<trkpt lat="46.1520670" lon="10.4543210">
	<ele>2582.20</ele>
	<time>2023-08-09T05:49:27.000Z</time>
</trkpt>
<trkpt lat="46.1520690" lon="10.4543240">
	<ele>2582.40</ele>
	<time>2023-08-09T05:49:28.000Z</time>
</trkpt>
<trkpt lat="46.1520710" lon="10.4543240">
	<ele>2582.60</ele>
	<time>2023-08-09T05:49:29.000Z</time>
</trkpt>
<trkpt lat="46.1520730" lon="10.4543230">
	<ele>2582.80</ele>
	<time>2023-08-09T05:49:30.000Z</time>
</trkpt>
<trkpt lat="46.1520750" lon="10.4543210">
	<ele>2582.80</ele>
	<time>2023-08-09T05:49:31.000Z</time>
</trkpt>
<trkpt lat="46.1520780" lon="10.4543200">
	<ele>2583.00</ele>
	<time>2023-08-09T05:49:32.000Z</time>
</trkpt>
<trkpt lat="46.1520810" lon="10.4543200">
	<ele>2583.20</ele>
	<time>2023-08-09T05:49:33.000Z</time>
</trkpt>
<trkpt lat="46.1520830" lon="10.4543220">
	<ele>2583.40</ele>
	<time>2023-08-09T05:49:34.000Z</time>
</trkpt>
<trkpt lat="46.1520870" lon="10.4543300">
	<ele>2583.40</ele>
	<time>2023-08-09T05:49:35.000Z</time>
</trkpt>
<trkpt lat="46.1520920" lon="10.4543410">
	<ele>2583.60</ele>
	<time>2023-08-09T05:49:36.000Z</time>
</trkpt>
<trkpt lat="46.1520930" lon="10.4543480">
	<ele>2584.00</ele>
	<time>2023-08-09T05:49:37.000Z</time>
</trkpt>
<trkpt lat="46.1520950" lon="10.4543520">
	<ele>2584.20</ele>
	<time>2023-08-09T05:49:38.000Z</time>
</trkpt>
<trkpt lat="46.1520940" lon="10.4543580">
	<ele>2584.20</ele>
	<time>2023-08-09T05:49:39.000Z</time>
</trkpt>
<trkpt lat="46.1520940" lon="10.4543660">
	<ele>2584.40</ele>
	<time>2023-08-09T05:49:40.000Z</time>
</trkpt>
<trkpt lat="46.1520930" lon="10.4543720">
	<ele>2584.60</ele>
	<time>2023-08-09T05:49:41.000Z</time>
</trkpt>
<trkpt lat="46.1520930" lon="10.4543760">
	<ele>2584.80</ele>
	<time>2023-08-09T05:49:42.000Z</time>
</trkpt>
<trkpt lat="46.1520900" lon="10.4543800">
	<ele>2585.00</ele>
	<time>2023-08-09T05:49:43.000Z</time>
</trkpt>
<trkpt lat="46.1520880" lon="10.4543840">
	<ele>2585.00</ele>
	<time>2023-08-09T05:49:44.000Z</time>
</trkpt>
<trkpt lat="46.1520840" lon="10.4543880">
	<ele>2585.00</ele>
	<time>2023-08-09T05:49:45.000Z</time>
</trkpt>
<trkpt lat="46.1520810" lon="10.4543900">
	<ele>2585.20</ele>
	<time>2023-08-09T05:49:46.000Z</time>
</trkpt>
<trkpt lat="46.1520740" lon="10.4543940">
	<ele>2585.40</ele>
	<time>2023-08-09T05:49:47.000Z</time>
</trkpt>
<trkpt lat="46.1520710" lon="10.4543940">
	<ele>2585.40</ele>
	<time>2023-08-09T05:49:48.000Z</time>
</trkpt>
<trkpt lat="46.1520650" lon="10.4543870">
	<ele>2585.40</ele>
	<time>2023-08-09T05:49:49.000Z</time>
</trkpt>
<trkpt lat="46.1520630" lon="10.4543870">
	<ele>2585.40</ele>
	<time>2023-08-09T05:49:50.000Z</time>
</trkpt>
<trkpt lat="46.1520620" lon="10.4543870">
	<ele>2585.60</ele>
	<time>2023-08-09T05:49:51.000Z</time>
</trkpt>
<trkpt lat="46.1520620" lon="10.4543860">
	<ele>2585.60</ele>
	<time>2023-08-09T05:49:52.000Z</time>
</trkpt>
<trkpt lat="46.1520610" lon="10.4543850">
	<ele>2585.60</ele>
	<time>2023-08-09T05:49:53.000Z</time>
</trkpt>
<trkpt lat="46.1520620" lon="10.4543850">
	<ele>2585.60</ele>
	<time>2023-08-09T05:49:54.000Z</time>
</trkpt>
<trkpt lat="46.1520600" lon="10.4543830">
	<ele>2585.60</ele>
	<time>2023-08-09T05:49:55.000Z</time>
</trkpt>
<trkpt lat="46.1520560" lon="10.4543770">
	<ele>2585.60</ele>
	<time>2023-08-09T05:49:56.000Z</time>
</trkpt>
<trkpt lat="46.1520540" lon="10.4543760">
	<ele>2585.60</ele>
	<time>2023-08-09T05:49:57.000Z</time>
</trkpt>
<trkpt lat="46.1520530" lon="10.4543770">
	<ele>2585.60</ele>
	<time>2023-08-09T05:49:58.000Z</time>
</trkpt>
<trkpt lat="46.1520550" lon="10.4543790">
	<ele>2585.60</ele>
	<time>2023-08-09T05:49:59.000Z</time>
</trkpt>
<trkpt lat="46.1520560" lon="10.4543800">
	<ele>2585.80</ele>
	<time>2023-08-09T05:50:00.000Z</time>
</trkpt>
<trkpt lat="46.1520560" lon="10.4543810">
	<ele>2585.80</ele>
	<time>2023-08-09T05:50:01.000Z</time>
</trkpt>
<trkpt lat="46.1520560" lon="10.4543800">
	<ele>2585.80</ele>
	<time>2023-08-09T05:50:02.000Z</time>
</trkpt>
<trkpt lat="46.1520570" lon="10.4543810">
	<ele>2585.80</ele>
	<time>2023-08-09T05:50:03.000Z</time>
</trkpt>
<trkpt lat="46.1520570" lon="10.4543820">
	<ele>2585.60</ele>
	<time>2023-08-09T05:50:04.000Z</time>
</trkpt>
<trkpt lat="46.1520580" lon="10.4543820">
	<ele>2585.60</ele>
	<time>2023-08-09T05:50:05.000Z</time>
</trkpt>
<trkpt lat="46.1520610" lon="10.4543840">
	<ele>2585.80</ele>
	<time>2023-08-09T05:50:06.000Z</time>
</trkpt>
<trkpt lat="46.1520630" lon="10.4543880">
	<ele>2586.00</ele>
	<time>2023-08-09T05:50:07.000Z</time>
</trkpt>
<trkpt lat="46.1520620" lon="10.4543890">
	<ele>2586.00</ele>
	<time>2023-08-09T05:50:08.000Z</time>
</trkpt>
<trkpt lat="46.1520600" lon="10.4543880">
	<ele>2586.00</ele>
	<time>2023-08-09T05:50:09.000Z</time>
</trkpt>
<trkpt lat="46.1520630" lon="10.4543870">
	<ele>2586.00</ele>
	<time>2023-08-09T05:50:10.000Z</time>
</trkpt>
<trkpt lat="46.1520660" lon="10.4543890">
	<ele>2586.00</ele>
	<time>2023-08-09T05:50:11.000Z</time>
</trkpt>
<trkpt lat="46.1520670" lon="10.4543890">
	<ele>2586.00</ele>
	<time>2023-08-09T05:50:12.000Z</time>
</trkpt>
<trkpt lat="46.1520630" lon="10.4543920">
	<ele>2586.00</ele>
	<time>2023-08-09T05:50:13.000Z</time>
</trkpt>
<trkpt lat="46.1520600" lon="10.4543910">
	<ele>2586.00</ele>
	<time>2023-08-09T05:50:14.000Z</time>
</trkpt>
<trkpt lat="46.1520610" lon="10.4543910">
	<ele>2585.80</ele>
	<time>2023-08-09T05:50:15.000Z</time>
</trkpt>
<trkpt lat="46.1520610" lon="10.4543910">
	<ele>2585.80</ele>
	<time>2023-08-09T05:50:16.000Z</time>
</trkpt>
<trkpt lat="46.1520610" lon="10.4543900">
	<ele>2585.60</ele>
	<time>2023-08-09T05:50:17.000Z</time>
</trkpt>
<trkpt lat="46.1520610" lon="10.4543870">
	<ele>2585.60</ele>
	<time>2023-08-09T05:50:18.000Z</time>
</trkpt>
<trkpt lat="46.1520610" lon="10.4543860">
	<ele>2585.60</ele>
	<time>2023-08-09T05:50:19.000Z</time>
</trkpt>
<trkpt lat="46.1520610" lon="10.4543870">
	<ele>2585.60</ele>
	<time>2023-08-09T05:50:20.000Z</time>
</trkpt>
<trkpt lat="46.1520630" lon="10.4543880">
	<ele>2585.60</ele>
	<time>2023-08-09T05:50:21.000Z</time>
</trkpt>
<trkpt lat="46.1520620" lon="10.4543840">
	<ele>2585.60</ele>
	<time>2023-08-09T05:50:22.000Z</time>
</trkpt>
<trkpt lat="46.1520610" lon="10.4543820">
	<ele>2585.60</ele>
	<time>2023-08-09T05:50:23.000Z</time>
</trkpt>
<trkpt lat="46.1520610" lon="10.4543820">
	<ele>2585.60</ele>
	<time>2023-08-09T05:50:24.000Z</time>
</trkpt>
<trkpt lat="46.1520610" lon="10.4543820">
	<ele>2585.80</ele>
	<time>2023-08-09T05:50:25.000Z</time>
</trkpt>
<trkpt lat="46.1520610" lon="10.4543820">
	<ele>2585.80</ele>
	<time>2023-08-09T05:50:26.000Z</time>
</trkpt>
<trkpt lat="46.1520610" lon="10.4543820">
	<ele>2585.80</ele>
	<time>2023-08-09T05:50:27.000Z</time>
</trkpt>
<trkpt lat="46.1520610" lon="10.4543820">
	<ele>2585.80</ele>
	<time>2023-08-09T05:50:28.000Z</time>
</trkpt>
<trkpt lat="46.1520610" lon="10.4543820">
	<ele>2585.80</ele>
	<time>2023-08-09T05:50:29.000Z</time>
</trkpt>
<trkpt lat="46.1520610" lon="10.4543820">
	<ele>2585.80</ele>
	<time>2023-08-09T05:50:30.000Z</time>
</trkpt>
<trkpt lat="46.1520610" lon="10.4543840">
	<ele>2585.80</ele>
	<time>2023-08-09T05:50:31.000Z</time>
</trkpt>
<trkpt lat="46.1520560" lon="10.4543920">
	<ele>2585.80</ele>
	<time>2023-08-09T05:50:32.000Z</time>
</trkpt>
<trkpt lat="46.1520580" lon="10.4543960">
	<ele>2585.60</ele>
	<time>2023-08-09T05:50:33.000Z</time>
</trkpt>
<trkpt lat="46.1520610" lon="10.4544020">
	<ele>2585.60</ele>
	<time>2023-08-09T05:50:34.000Z</time>
</trkpt>
<trkpt lat="46.1520610" lon="10.4544050">
	<ele>2585.60</ele>
	<time>2023-08-09T05:50:35.000Z</time>
</trkpt>
<trkpt lat="46.1520600" lon="10.4544080">
	<ele>2585.60</ele>
	<time>2023-08-09T05:50:36.000Z</time>
</trkpt>
<trkpt lat="46.1520590" lon="10.4544110">
	<ele>2585.40</ele>
	<time>2023-08-09T05:50:37.000Z</time>
</trkpt>
<trkpt lat="46.1520580" lon="10.4544120">
	<ele>2585.60</ele>
	<time>2023-08-09T05:50:38.000Z</time>
</trkpt>
<trkpt lat="46.1520670" lon="10.4544130">
	<ele>2585.80</ele>
	<time>2023-08-09T05:50:39.000Z</time>
</trkpt>
<trkpt lat="46.1520670" lon="10.4544140">
	<ele>2585.80</ele>
	<time>2023-08-09T05:50:40.000Z</time>
</trkpt>
<trkpt lat="46.1520660" lon="10.4544130">
	<ele>2586.00</ele>
	<time>2023-08-09T05:50:41.000Z</time>
</trkpt>
<trkpt lat="46.1520660" lon="10.4544120">
	<ele>2586.00</ele>
	<time>2023-08-09T05:50:42.000Z</time>
</trkpt>
<trkpt lat="46.1520660" lon="10.4544110">
	<ele>2586.00</ele>
	<time>2023-08-09T05:50:43.000Z</time>
</trkpt>
<trkpt lat="46.1520660" lon="10.4544110">
	<ele>2586.00</ele>
	<time>2023-08-09T05:50:44.000Z</time>
</trkpt>
<trkpt lat="46.1520660" lon="10.4544110">
	<ele>2586.00</ele>
	<time>2023-08-09T05:50:45.000Z</time>
</trkpt>
<trkpt lat="46.1520660" lon="10.4544110">
	<ele>2586.00</ele>
	<time>2023-08-09T05:50:46.000Z</time>
</trkpt>
<trkpt lat="46.1520660" lon="10.4544110">
	<ele>2586.20</ele>
	<time>2023-08-09T05:50:47.000Z</time>
</trkpt>
<trkpt lat="46.1520660" lon="10.4544110">
	<ele>2586.20</ele>
	<time>2023-08-09T05:50:48.000Z</time>
</trkpt>
<trkpt lat="46.1520660" lon="10.4544110">
	<ele>2586.20</ele>
	<time>2023-08-09T05:50:49.000Z</time>
</trkpt>
<trkpt lat="46.1520660" lon="10.4544110">
	<ele>2586.20</ele>
	<time>2023-08-09T05:50:50.000Z</time>
</trkpt>
<trkpt lat="46.1520660" lon="10.4544110">
	<ele>2586.20</ele>
	<time>2023-08-09T05:50:51.000Z</time>
</trkpt>
<trkpt lat="46.1520660" lon="10.4544110">
	<ele>2586.20</ele>
	<time>2023-08-09T05:50:52.000Z</time>
</trkpt>
<trkpt lat="46.1520660" lon="10.4544110">
	<ele>2586.20</ele>
	<time>2023-08-09T05:50:53.000Z</time>
</trkpt>
<trkpt lat="46.1520660" lon="10.4544110">
	<ele>2586.20</ele>
	<time>2023-08-09T05:50:54.000Z</time>
</trkpt>
<trkpt lat="46.1520660" lon="10.4544110">
	<ele>2586.20</ele>
	<time>2023-08-09T05:50:55.000Z</time>
</trkpt>
<trkpt lat="46.1520660" lon="10.4544110">
	<ele>2586.20</ele>
	<time>2023-08-09T05:50:56.000Z</time>
</trkpt>
<trkpt lat="46.1520660" lon="10.4544110">
	<ele>2586.20</ele>
	<time>2023-08-09T05:50:57.000Z</time>
</trkpt>
<trkpt lat="46.1520660" lon="10.4544110">
	<ele>2586.00</ele>
	<time>2023-08-09T05:50:58.000Z</time>
</trkpt>
<trkpt lat="46.1520660" lon="10.4544100">
	<ele>2586.00</ele>
	<time>2023-08-09T05:50:59.000Z</time>
</trkpt>
<trkpt lat="46.1520660" lon="10.4544100">
	<ele>2586.00</ele>
	<time>2023-08-09T05:51:00.000Z</time>
</trkpt>
<trkpt lat="46.1520660" lon="10.4544100">
	<ele>2586.00</ele>
	<time>2023-08-09T05:51:01.000Z</time>
</trkpt>
<trkpt lat="46.1520660" lon="10.4544100">
	<ele>2586.00</ele>
	<time>2023-08-09T05:51:02.000Z</time>
</trkpt>
<trkpt lat="46.1520660" lon="10.4544100">
	<ele>2586.00</ele>
	<time>2023-08-09T05:51:03.000Z</time>
</trkpt>
<trkpt lat="46.1520660" lon="10.4544100">
	<ele>2586.00</ele>
	<time>2023-08-09T05:51:04.000Z</time>
</trkpt>
<trkpt lat="46.1520660" lon="10.4544100">
	<ele>2585.80</ele>
	<time>2023-08-09T05:51:05.000Z</time>
</trkpt>
<trkpt lat="46.1520660" lon="10.4544100">
	<ele>2585.80</ele>
	<time>2023-08-09T05:51:06.000Z</time>
</trkpt>
<trkpt lat="46.1520660" lon="10.4544100">
	<ele>2585.80</ele>
	<time>2023-08-09T05:51:07.000Z</time>
</trkpt>
<trkpt lat="46.1520660" lon="10.4544100">
	<ele>2585.80</ele>
	<time>2023-08-09T05:51:08.000Z</time>
</trkpt>
<trkpt lat="46.1520660" lon="10.4544100">
	<ele>2585.80</ele>
	<time>2023-08-09T05:51:09.000Z</time>
</trkpt>
<trkpt lat="46.1520660" lon="10.4544100">
	<ele>2585.80</ele>
	<time>2023-08-09T05:51:10.000Z</time>
</trkpt>
<trkpt lat="46.1520660" lon="10.4544100">
	<ele>2585.80</ele>
	<time>2023-08-09T05:51:11.000Z</time>
</trkpt>
<trkpt lat="46.1520660" lon="10.4544090">
	<ele>2585.80</ele>
	<time>2023-08-09T05:51:12.000Z</time>
</trkpt>
<trkpt lat="46.1520660" lon="10.4544090">
	<ele>2586.00</ele>
	<time>2023-08-09T05:51:13.000Z</time>
</trkpt>
<trkpt lat="46.1520660" lon="10.4544090">
	<ele>2586.00</ele>
	<time>2023-08-09T05:51:14.000Z</time>
</trkpt>
<trkpt lat="46.1520660" lon="10.4544090">
	<ele>2586.00</ele>
	<time>2023-08-09T05:51:15.000Z</time>
</trkpt>
<trkpt lat="46.1520660" lon="10.4544090">
	<ele>2586.00</ele>
	<time>2023-08-09T05:51:16.000Z</time>
</trkpt>
<trkpt lat="46.1520660" lon="10.4544090">
	<ele>2586.00</ele>
	<time>2023-08-09T05:51:17.000Z</time>
</trkpt>
<trkpt lat="46.1520660" lon="10.4544090">
	<ele>2586.00</ele>
	<time>2023-08-09T05:51:18.000Z</time>
</trkpt>
<trkpt lat="46.1520670" lon="10.4544090">
	<ele>2586.00</ele>
	<time>2023-08-09T05:51:19.000Z</time>
</trkpt>
<trkpt lat="46.1520660" lon="10.4544090">
	<ele>2586.00</ele>
	<time>2023-08-09T05:51:20.000Z</time>
</trkpt>
<trkpt lat="46.1520660" lon="10.4544090">
	<ele>2586.00</ele>
	<time>2023-08-09T05:51:21.000Z</time>
</trkpt>
<trkpt lat="46.1520660" lon="10.4544090">
	<ele>2586.00</ele>
	<time>2023-08-09T05:51:22.000Z</time>
</trkpt>
<trkpt lat="46.1520660" lon="10.4544090">
	<ele>2586.00</ele>
	<time>2023-08-09T05:51:23.000Z</time>
</trkpt>
<trkpt lat="46.1520660" lon="10.4544090">
	<ele>2586.00</ele>
	<time>2023-08-09T05:51:24.000Z</time>
</trkpt>
<trkpt lat="46.1520660" lon="10.4544090">
	<ele>2586.00</ele>
	<time>2023-08-09T05:51:25.000Z</time>
</trkpt>
<trkpt lat="46.1520650" lon="10.4544090">
	<ele>2586.00</ele>
	<time>2023-08-09T05:51:26.000Z</time>
</trkpt>
<trkpt lat="46.1520650" lon="10.4544100">
	<ele>2586.00</ele>
	<time>2023-08-09T05:51:27.000Z</time>
</trkpt>
<trkpt lat="46.1520650" lon="10.4544110">
	<ele>2586.00</ele>
	<time>2023-08-09T05:51:28.000Z</time>
</trkpt>
<trkpt lat="46.1520650" lon="10.4544110">
	<ele>2585.80</ele>
	<time>2023-08-09T05:51:29.000Z</time>
</trkpt>
<trkpt lat="46.1520650" lon="10.4544110">
	<ele>2585.80</ele>
	<time>2023-08-09T05:51:30.000Z</time>
</trkpt>
<trkpt lat="46.1520650" lon="10.4544110">
	<ele>2585.80</ele>
	<time>2023-08-09T05:51:31.000Z</time>
</trkpt>
<trkpt lat="46.1520650" lon="10.4544110">
	<ele>2585.80</ele>
	<time>2023-08-09T05:51:32.000Z</time>
</trkpt>
<trkpt lat="46.1520650" lon="10.4544110">
	<ele>2585.80</ele>
	<time>2023-08-09T05:51:33.000Z</time>
</trkpt>
<trkpt lat="46.1520650" lon="10.4544110">
	<ele>2585.60</ele>
	<time>2023-08-09T05:51:34.000Z</time>
</trkpt>
<trkpt lat="46.1520650" lon="10.4544110">
	<ele>2585.60</ele>
	<time>2023-08-09T05:51:35.000Z</time>
</trkpt>
<trkpt lat="46.1520650" lon="10.4544120">
	<ele>2585.60</ele>
	<time>2023-08-09T05:51:36.000Z</time>
</trkpt>
<trkpt lat="46.1520650" lon="10.4544140">
	<ele>2585.40</ele>
	<time>2023-08-09T05:51:37.000Z</time>
</trkpt>
<trkpt lat="46.1520650" lon="10.4544150">
	<ele>2585.20</ele>
	<time>2023-08-09T05:51:38.000Z</time>
</trkpt>
<trkpt lat="46.1520650" lon="10.4544150">
	<ele>2585.20</ele>
	<time>2023-08-09T05:51:39.000Z</time>
</trkpt>
<trkpt lat="46.1520650" lon="10.4544150">
	<ele>2585.00</ele>
	<time>2023-08-09T05:51:40.000Z</time>
</trkpt>
<trkpt lat="46.1520650" lon="10.4544150">
	<ele>2585.00</ele>
	<time>2023-08-09T05:51:41.000Z</time>
</trkpt>
<trkpt lat="46.1520660" lon="10.4544150">
	<ele>2585.00</ele>
	<time>2023-08-09T05:51:42.000Z</time>
</trkpt>
<trkpt lat="46.1520660" lon="10.4544150">
	<ele>2585.00</ele>
	<time>2023-08-09T05:51:43.000Z</time>
</trkpt>
<trkpt lat="46.1520660" lon="10.4544160">
	<ele>2585.00</ele>
	<time>2023-08-09T05:51:44.000Z</time>
</trkpt>
<trkpt lat="46.1520670" lon="10.4544160">
	<ele>2585.00</ele>
	<time>2023-08-09T05:51:45.000Z</time>
</trkpt>
<trkpt lat="46.1520670" lon="10.4544160">
	<ele>2585.20</ele>
	<time>2023-08-09T05:51:46.000Z</time>
</trkpt>
<trkpt lat="46.1520670" lon="10.4544170">
	<ele>2585.20</ele>
	<time>2023-08-09T05:51:47.000Z</time>
</trkpt>
<trkpt lat="46.1520670" lon="10.4544170">
	<ele>2585.20</ele>
	<time>2023-08-09T05:51:48.000Z</time>
</trkpt>
<trkpt lat="46.1520670" lon="10.4544170">
	<ele>2585.20</ele>
	<time>2023-08-09T05:51:49.000Z</time>
</trkpt>
<trkpt lat="46.1520710" lon="10.4544190">
	<ele>2585.20</ele>
	<time>2023-08-09T05:51:50.000Z</time>
</trkpt>
<trkpt lat="46.1520750" lon="10.4544230">
	<ele>2585.20</ele>
	<time>2023-08-09T05:51:51.000Z</time>
</trkpt>
<trkpt lat="46.1520770" lon="10.4544250">
	<ele>2585.20</ele>
	<time>2023-08-09T05:51:52.000Z</time>
</trkpt>
<trkpt lat="46.1520780" lon="10.4544270">
	<ele>2585.20</ele>
	<time>2023-08-09T05:51:53.000Z</time>
</trkpt>
<trkpt lat="46.1520790" lon="10.4544280">
	<ele>2585.40</ele>
	<time>2023-08-09T05:51:54.000Z</time>
</trkpt>
<trkpt lat="46.1520790" lon="10.4544280">
	<ele>2585.40</ele>
	<time>2023-08-09T05:51:55.000Z</time>
</trkpt>
<trkpt lat="46.1520790" lon="10.4544280">
	<ele>2585.40</ele>
	<time>2023-08-09T05:51:56.000Z</time>
</trkpt>
<trkpt lat="46.1520800" lon="10.4544290">
	<ele>2585.40</ele>
	<time>2023-08-09T05:51:57.000Z</time>
</trkpt>
<trkpt lat="46.1520800" lon="10.4544290">
	<ele>2585.60</ele>
	<time>2023-08-09T05:51:58.000Z</time>
</trkpt>
<trkpt lat="46.1520810" lon="10.4544290">
	<ele>2585.60</ele>
	<time>2023-08-09T05:51:59.000Z</time>
</trkpt>
<trkpt lat="46.1520820" lon="10.4544290">
	<ele>2585.60</ele>
	<time>2023-08-09T05:52:00.000Z</time>
</trkpt>
<trkpt lat="46.1520820" lon="10.4544290">
	<ele>2585.60</ele>
	<time>2023-08-09T05:52:01.000Z</time>
</trkpt>
<trkpt lat="46.1520820" lon="10.4544290">
	<ele>2585.80</ele>
	<time>2023-08-09T05:52:02.000Z</time>
</trkpt>
<trkpt lat="46.1520830" lon="10.4544290">
	<ele>2585.80</ele>
	<time>2023-08-09T05:52:03.000Z</time>
</trkpt>
<trkpt lat="46.1520830" lon="10.4544290">
	<ele>2585.80</ele>
	<time>2023-08-09T05:52:04.000Z</time>
</trkpt>
<trkpt lat="46.1520830" lon="10.4544290">
	<ele>2586.00</ele>
	<time>2023-08-09T05:52:05.000Z</time>
</trkpt>
<trkpt lat="46.1520830" lon="10.4544290">
	<ele>2586.00</ele>
	<time>2023-08-09T05:52:06.000Z</time>
</trkpt>
<trkpt lat="46.1520830" lon="10.4544290">
	<ele>2586.00</ele>
	<time>2023-08-09T05:52:07.000Z</time>
</trkpt>
<trkpt lat="46.1520830" lon="10.4544290">
	<ele>2586.20</ele>
	<time>2023-08-09T05:52:08.000Z</time>
</trkpt>
<trkpt lat="46.1520840" lon="10.4544290">
	<ele>2586.40</ele>
	<time>2023-08-09T05:52:09.000Z</time>
</trkpt>
<trkpt lat="46.1520840" lon="10.4544280">
	<ele>2586.40</ele>
	<time>2023-08-09T05:52:10.000Z</time>
</trkpt>
<trkpt lat="46.1520840" lon="10.4544280">
	<ele>2586.40</ele>
	<time>2023-08-09T05:52:11.000Z</time>
</trkpt>
<trkpt lat="46.1520840" lon="10.4544280">
	<ele>2586.40</ele>
	<time>2023-08-09T05:52:12.000Z</time>
</trkpt>
<trkpt lat="46.1520840" lon="10.4544280">
	<ele>2586.40</ele>
	<time>2023-08-09T05:52:13.000Z</time>
</trkpt>
<trkpt lat="46.1520840" lon="10.4544270">
	<ele>2586.00</ele>
	<time>2023-08-09T05:52:14.000Z</time>
</trkpt>
<trkpt lat="46.1520830" lon="10.4544270">
	<ele>2586.00</ele>
	<time>2023-08-09T05:52:15.000Z</time>
</trkpt>
<trkpt lat="46.1520830" lon="10.4544270">
	<ele>2585.80</ele>
	<time>2023-08-09T05:52:16.000Z</time>
</trkpt>
<trkpt lat="46.1520830" lon="10.4544270">
	<ele>2585.80</ele>
	<time>2023-08-09T05:52:17.000Z</time>
</trkpt>
<trkpt lat="46.1520830" lon="10.4544270">
	<ele>2585.80</ele>
	<time>2023-08-09T05:52:18.000Z</time>
</trkpt>
<trkpt lat="46.1520830" lon="10.4544270">
	<ele>2585.80</ele>
	<time>2023-08-09T05:52:19.000Z</time>
</trkpt>
<trkpt lat="46.1520830" lon="10.4544270">
	<ele>2586.00</ele>
	<time>2023-08-09T05:52:20.000Z</time>
</trkpt>
<trkpt lat="46.1520830" lon="10.4544270">
	<ele>2586.20</ele>
	<time>2023-08-09T05:52:21.000Z</time>
</trkpt>
<trkpt lat="46.1520830" lon="10.4544270">
	<ele>2586.40</ele>
	<time>2023-08-09T05:52:22.000Z</time>
</trkpt>
<trkpt lat="46.1520830" lon="10.4544270">
	<ele>2586.60</ele>
	<time>2023-08-09T05:52:23.000Z</time>
</trkpt>
<trkpt lat="46.1520820" lon="10.4544270">
	<ele>2587.00</ele>
	<time>2023-08-09T05:52:24.000Z</time>
</trkpt>
<trkpt lat="46.1520800" lon="10.4544280">
	<ele>2587.20</ele>
	<time>2023-08-09T05:52:25.000Z</time>
</trkpt>
<trkpt lat="46.1520760" lon="10.4544290">
	<ele>2587.20</ele>
	<time>2023-08-09T05:52:26.000Z</time>
</trkpt>
<trkpt lat="46.1520730" lon="10.4544300">
	<ele>2587.40</ele>
	<time>2023-08-09T05:52:27.000Z</time>
</trkpt>
<trkpt lat="46.1520690" lon="10.4544320">
	<ele>2587.40</ele>
	<time>2023-08-09T05:52:28.000Z</time>
</trkpt>
<trkpt lat="46.1520640" lon="10.4544330">
	<ele>2587.60</ele>
	<time>2023-08-09T05:52:29.000Z</time>
</trkpt>
<trkpt lat="46.1520590" lon="10.4544340">
	<ele>2587.60</ele>
	<time>2023-08-09T05:52:30.000Z</time>
</trkpt>
<trkpt lat="46.1520550" lon="10.4544360">
	<ele>2587.80</ele>
	<time>2023-08-09T05:52:31.000Z</time>
</trkpt>
<trkpt lat="46.1520510" lon="10.4544380">
	<ele>2587.80</ele>
	<time>2023-08-09T05:52:32.000Z</time>
</trkpt>
<trkpt lat="46.1520480" lon="10.4544390">
	<ele>2588.00</ele>
	<time>2023-08-09T05:52:33.000Z</time>
</trkpt>
<trkpt lat="46.1520460" lon="10.4544420">
	<ele>2588.00</ele>
	<time>2023-08-09T05:52:34.000Z</time>
</trkpt>
<trkpt lat="46.1520440" lon="10.4544460">
	<ele>2588.20</ele>
	<time>2023-08-09T05:52:35.000Z</time>
</trkpt>
<trkpt lat="46.1520420" lon="10.4544510">
	<ele>2588.40</ele>
	<time>2023-08-09T05:52:36.000Z</time>
</trkpt>
<trkpt lat="46.1520400" lon="10.4544540">
	<ele>2588.60</ele>
	<time>2023-08-09T05:52:37.000Z</time>
</trkpt>
<trkpt lat="46.1520380" lon="10.4544580">
	<ele>2588.60</ele>
	<time>2023-08-09T05:52:38.000Z</time>
</trkpt>
<trkpt lat="46.1520360" lon="10.4544610">
	<ele>2588.80</ele>
	<time>2023-08-09T05:52:39.000Z</time>
</trkpt>
<trkpt lat="46.1520350" lon="10.4544640">
	<ele>2589.00</ele>
	<time>2023-08-09T05:52:40.000Z</time>
</trkpt>
<trkpt lat="46.1520350" lon="10.4544650">
	<ele>2589.20</ele>
	<time>2023-08-09T05:52:41.000Z</time>
</trkpt>
<trkpt lat="46.1520340" lon="10.4544670">
	<ele>2589.40</ele>
	<time>2023-08-09T05:52:42.000Z</time>
</trkpt>
<trkpt lat="46.1520330" lon="10.4544700">
	<ele>2589.40</ele>
	<time>2023-08-09T05:52:43.000Z</time>
</trkpt>
<trkpt lat="46.1520330" lon="10.4544710">
	<ele>2589.60</ele>
	<time>2023-08-09T05:52:44.000Z</time>
</trkpt>
<trkpt lat="46.1520330" lon="10.4544730">
	<ele>2589.60</ele>
	<time>2023-08-09T05:52:45.000Z</time>
</trkpt>
<trkpt lat="46.1520320" lon="10.4544750">
	<ele>2589.60</ele>
	<time>2023-08-09T05:52:46.000Z</time>
</trkpt>
<trkpt lat="46.1520320" lon="10.4544770">
	<ele>2589.60</ele>
	<time>2023-08-09T05:52:47.000Z</time>
</trkpt>
<trkpt lat="46.1520310" lon="10.4544790">
	<ele>2589.80</ele>
	<time>2023-08-09T05:52:48.000Z</time>
</trkpt>
<trkpt lat="46.1520310" lon="10.4544820">
	<ele>2590.00</ele>
	<time>2023-08-09T05:52:49.000Z</time>
</trkpt>
<trkpt lat="46.1520300" lon="10.4544840">
	<ele>2590.00</ele>
	<time>2023-08-09T05:52:50.000Z</time>
</trkpt>
<trkpt lat="46.1520290" lon="10.4544870">
	<ele>2590.00</ele>
	<time>2023-08-09T05:52:51.000Z</time>
</trkpt>
<trkpt lat="46.1520280" lon="10.4544890">
	<ele>2590.00</ele>
	<time>2023-08-09T05:52:52.000Z</time>
</trkpt>
<trkpt lat="46.1520280" lon="10.4544910">
	<ele>2590.20</ele>
	<time>2023-08-09T05:52:53.000Z</time>
</trkpt>
<trkpt lat="46.1520280" lon="10.4544920">
	<ele>2590.20</ele>
	<time>2023-08-09T05:52:54.000Z</time>
</trkpt>
<trkpt lat="46.1520270" lon="10.4544940">
	<ele>2590.40</ele>
	<time>2023-08-09T05:52:55.000Z</time>
</trkpt>
<trkpt lat="46.1520270" lon="10.4544960">
	<ele>2590.60</ele>
	<time>2023-08-09T05:52:56.000Z</time>
</trkpt>
<trkpt lat="46.1520270" lon="10.4544980">
	<ele>2590.80</ele>
	<time>2023-08-09T05:52:57.000Z</time>
</trkpt>
<trkpt lat="46.1520270" lon="10.4544990">
	<ele>2591.00</ele>
	<time>2023-08-09T05:52:58.000Z</time>
</trkpt>
<trkpt lat="46.1520270" lon="10.4545010">
	<ele>2591.00</ele>
	<time>2023-08-09T05:52:59.000Z</time>
</trkpt>
<trkpt lat="46.1520270" lon="10.4545030">
	<ele>2591.20</ele>
	<time>2023-08-09T05:53:00.000Z</time>
</trkpt>
<trkpt lat="46.1520270" lon="10.4545060">
	<ele>2591.40</ele>
	<time>2023-08-09T05:53:01.000Z</time>
</trkpt>
<trkpt lat="46.1520270" lon="10.4545090">
	<ele>2591.40</ele>
	<time>2023-08-09T05:53:02.000Z</time>
</trkpt>
<trkpt lat="46.1520270" lon="10.4545120">
	<ele>2591.60</ele>
	<time>2023-08-09T05:53:03.000Z</time>
</trkpt>
<trkpt lat="46.1520270" lon="10.4545140">
	<ele>2591.60</ele>
	<time>2023-08-09T05:53:04.000Z</time>
</trkpt>
<trkpt lat="46.1520270" lon="10.4545170">
	<ele>2591.80</ele>
	<time>2023-08-09T05:53:05.000Z</time>
</trkpt>
<trkpt lat="46.1520280" lon="10.4545200">
	<ele>2591.80</ele>
	<time>2023-08-09T05:53:06.000Z</time>
</trkpt>
<trkpt lat="46.1520290" lon="10.4545240">
	<ele>2592.00</ele>
	<time>2023-08-09T05:53:07.000Z</time>
</trkpt>
<trkpt lat="46.1520300" lon="10.4545280">
	<ele>2592.20</ele>
	<time>2023-08-09T05:53:08.000Z</time>
</trkpt>
<trkpt lat="46.1520310" lon="10.4545330">
	<ele>2592.40</ele>
	<time>2023-08-09T05:53:09.000Z</time>
</trkpt>
<trkpt lat="46.1520310" lon="10.4545380">
	<ele>2592.60</ele>
	<time>2023-08-09T05:53:10.000Z</time>
</trkpt>
<trkpt lat="46.1520320" lon="10.4545420">
	<ele>2592.80</ele>
	<time>2023-08-09T05:53:11.000Z</time>
</trkpt>
<trkpt lat="46.1520320" lon="10.4545460">
	<ele>2593.00</ele>
	<time>2023-08-09T05:53:12.000Z</time>
</trkpt>
<trkpt lat="46.1520330" lon="10.4545490">
	<ele>2593.00</ele>
	<time>2023-08-09T05:53:13.000Z</time>
</trkpt>
<trkpt lat="46.1520330" lon="10.4545540">
	<ele>2593.20</ele>
	<time>2023-08-09T05:53:14.000Z</time>
</trkpt>
<trkpt lat="46.1520330" lon="10.4545590">
	<ele>2593.40</ele>
	<time>2023-08-09T05:53:15.000Z</time>
</trkpt>
<trkpt lat="46.1520340" lon="10.4545630">
	<ele>2593.40</ele>
	<time>2023-08-09T05:53:16.000Z</time>
</trkpt>
<trkpt lat="46.1520340" lon="10.4545670">
	<ele>2593.40</ele>
	<time>2023-08-09T05:53:17.000Z</time>
</trkpt>
<trkpt lat="46.1520350" lon="10.4545710">
	<ele>2593.60</ele>
	<time>2023-08-09T05:53:18.000Z</time>
</trkpt>
<trkpt lat="46.1520350" lon="10.4545750">
	<ele>2593.80</ele>
	<time>2023-08-09T05:53:19.000Z</time>
</trkpt>
<trkpt lat="46.1520350" lon="10.4545770">
	<ele>2594.00</ele>
	<time>2023-08-09T05:53:20.000Z</time>
</trkpt>
<trkpt lat="46.1520360" lon="10.4545800">
	<ele>2594.20</ele>
	<time>2023-08-09T05:53:21.000Z</time>
</trkpt>
<trkpt lat="46.1520360" lon="10.4545820">
	<ele>2594.40</ele>
	<time>2023-08-09T05:53:22.000Z</time>
</trkpt>
<trkpt lat="46.1520360" lon="10.4545850">
	<ele>2594.40</ele>
	<time>2023-08-09T05:53:23.000Z</time>
</trkpt>
<trkpt lat="46.1520360" lon="10.4545880">
	<ele>2594.40</ele>
	<time>2023-08-09T05:53:24.000Z</time>
</trkpt>
<trkpt lat="46.1520370" lon="10.4545900">
	<ele>2594.40</ele>
	<time>2023-08-09T05:53:25.000Z</time>
</trkpt>
<trkpt lat="46.1520370" lon="10.4545930">
	<ele>2594.40</ele>
	<time>2023-08-09T05:53:26.000Z</time>
</trkpt>
<trkpt lat="46.1520370" lon="10.4545950">
	<ele>2594.40</ele>
	<time>2023-08-09T05:53:27.000Z</time>
</trkpt>
<trkpt lat="46.1520380" lon="10.4545980">
	<ele>2594.60</ele>
	<time>2023-08-09T05:53:28.000Z</time>
</trkpt>
<trkpt lat="46.1520380" lon="10.4546000">
	<ele>2594.60</ele>
	<time>2023-08-09T05:53:29.000Z</time>
</trkpt>
<trkpt lat="46.1520380" lon="10.4546030">
	<ele>2594.60</ele>
	<time>2023-08-09T05:53:30.000Z</time>
</trkpt>
<trkpt lat="46.1520390" lon="10.4546060">
	<ele>2594.80</ele>
	<time>2023-08-09T05:53:31.000Z</time>
</trkpt>
<trkpt lat="46.1520390" lon="10.4546090">
	<ele>2594.80</ele>
	<time>2023-08-09T05:53:32.000Z</time>
</trkpt>
<trkpt lat="46.1520390" lon="10.4546130">
	<ele>2595.00</ele>
	<time>2023-08-09T05:53:33.000Z</time>
</trkpt>
<trkpt lat="46.1520390" lon="10.4546160">
	<ele>2595.00</ele>
	<time>2023-08-09T05:53:34.000Z</time>
</trkpt>
<trkpt lat="46.1520400" lon="10.4546190">
	<ele>2595.20</ele>
	<time>2023-08-09T05:53:35.000Z</time>
</trkpt>
<trkpt lat="46.1520400" lon="10.4546210">
	<ele>2595.20</ele>
	<time>2023-08-09T05:53:36.000Z</time>
</trkpt>
<trkpt lat="46.1520400" lon="10.4546240">
	<ele>2595.40</ele>
	<time>2023-08-09T05:53:37.000Z</time>
</trkpt>
<trkpt lat="46.1520410" lon="10.4546260">
	<ele>2595.40</ele>
	<time>2023-08-09T05:53:38.000Z</time>
</trkpt>
<trkpt lat="46.1520410" lon="10.4546270">
	<ele>2595.40</ele>
	<time>2023-08-09T05:53:39.000Z</time>
</trkpt>
<trkpt lat="46.1520410" lon="10.4546290">
	<ele>2595.60</ele>
	<time>2023-08-09T05:53:40.000Z</time>
</trkpt>
<trkpt lat="46.1520420" lon="10.4546310">
	<ele>2595.60</ele>
	<time>2023-08-09T05:53:41.000Z</time>
</trkpt>
<trkpt lat="46.1520420" lon="10.4546330">
	<ele>2595.60</ele>
	<time>2023-08-09T05:53:42.000Z</time>
</trkpt>
<trkpt lat="46.1520430" lon="10.4546350">
	<ele>2595.60</ele>
	<time>2023-08-09T05:53:43.000Z</time>
</trkpt>
<trkpt lat="46.1520430" lon="10.4546380">
	<ele>2595.60</ele>
	<time>2023-08-09T05:53:44.000Z</time>
</trkpt>
<trkpt lat="46.1520440" lon="10.4546400">
	<ele>2595.60</ele>
	<time>2023-08-09T05:53:45.000Z</time>
</trkpt>
<trkpt lat="46.1520440" lon="10.4546420">
	<ele>2595.80</ele>
	<time>2023-08-09T05:53:46.000Z</time>
</trkpt>
<trkpt lat="46.1520450" lon="10.4546450">
	<ele>2595.80</ele>
	<time>2023-08-09T05:53:47.000Z</time>
</trkpt>
<trkpt lat="46.1520460" lon="10.4546470">
	<ele>2596.00</ele>
	<time>2023-08-09T05:53:48.000Z</time>
</trkpt>
<trkpt lat="46.1520460" lon="10.4546490">
	<ele>2596.20</ele>
	<time>2023-08-09T05:53:49.000Z</time>
</trkpt>
<trkpt lat="46.1520470" lon="10.4546510">
	<ele>2596.20</ele>
	<time>2023-08-09T05:53:50.000Z</time>
</trkpt>
<trkpt lat="46.1520470" lon="10.4546520">
	<ele>2596.20</ele>
	<time>2023-08-09T05:53:51.000Z</time>
</trkpt>
<trkpt lat="46.1520480" lon="10.4546540">
	<ele>2596.20</ele>
	<time>2023-08-09T05:53:52.000Z</time>
</trkpt>
<trkpt lat="46.1520480" lon="10.4546550">
	<ele>2596.40</ele>
	<time>2023-08-09T05:53:53.000Z</time>
</trkpt>
<trkpt lat="46.1520490" lon="10.4546560">
	<ele>2596.40</ele>
	<time>2023-08-09T05:53:54.000Z</time>
</trkpt>
<trkpt lat="46.1520490" lon="10.4546570">
	<ele>2596.40</ele>
	<time>2023-08-09T05:53:55.000Z</time>
</trkpt>
<trkpt lat="46.1520500" lon="10.4546580">
	<ele>2596.60</ele>
	<time>2023-08-09T05:53:56.000Z</time>
</trkpt>
<trkpt lat="46.1520510" lon="10.4546590">
	<ele>2596.80</ele>
	<time>2023-08-09T05:53:57.000Z</time>
</trkpt>
<trkpt lat="46.1520520" lon="10.4546600">
	<ele>2596.80</ele>
	<time>2023-08-09T05:53:58.000Z</time>
</trkpt>
<trkpt lat="46.1520520" lon="10.4546600">
	<ele>2597.00</ele>
	<time>2023-08-09T05:53:59.000Z</time>
</trkpt>
<trkpt lat="46.1520530" lon="10.4546610">
	<ele>2597.00</ele>
	<time>2023-08-09T05:54:00.000Z</time>
</trkpt>
<trkpt lat="46.1520540" lon="10.4546610">
	<ele>2597.00</ele>
	<time>2023-08-09T05:54:01.000Z</time>
</trkpt>
<trkpt lat="46.1520540" lon="10.4546620">
	<ele>2597.00</ele>
	<time>2023-08-09T05:54:02.000Z</time>
</trkpt>
<trkpt lat="46.1520540" lon="10.4546620">
	<ele>2597.20</ele>
	<time>2023-08-09T05:54:03.000Z</time>
</trkpt>
<trkpt lat="46.1520550" lon="10.4546620">
	<ele>2597.00</ele>
	<time>2023-08-09T05:54:04.000Z</time>
</trkpt>
<trkpt lat="46.1520550" lon="10.4546620">
	<ele>2597.00</ele>
	<time>2023-08-09T05:54:05.000Z</time>
</trkpt>
<trkpt lat="46.1520550" lon="10.4546620">
	<ele>2597.00</ele>
	<time>2023-08-09T05:54:06.000Z</time>
</trkpt>
<trkpt lat="46.1520560" lon="10.4546620">
	<ele>2596.80</ele>
	<time>2023-08-09T05:54:07.000Z</time>
</trkpt>
<trkpt lat="46.1520560" lon="10.4546620">
	<ele>2596.80</ele>
	<time>2023-08-09T05:54:08.000Z</time>
</trkpt>
<trkpt lat="46.1520560" lon="10.4546620">
	<ele>2597.00</ele>
	<time>2023-08-09T05:54:09.000Z</time>
</trkpt>
<trkpt lat="46.1520560" lon="10.4546620">
	<ele>2597.00</ele>
	<time>2023-08-09T05:54:10.000Z</time>
</trkpt>
<trkpt lat="46.1520570" lon="10.4546620">
	<ele>2597.00</ele>
	<time>2023-08-09T05:54:11.000Z</time>
</trkpt>
<trkpt lat="46.1520570" lon="10.4546620">
	<ele>2597.20</ele>
	<time>2023-08-09T05:54:12.000Z</time>
</trkpt>
<trkpt lat="46.1520570" lon="10.4546620">
	<ele>2597.20</ele>
	<time>2023-08-09T05:54:13.000Z</time>
</trkpt>
<trkpt lat="46.1520570" lon="10.4546620">
	<ele>2597.00</ele>
	<time>2023-08-09T05:54:14.000Z</time>
</trkpt>
<trkpt lat="46.1520580" lon="10.4546620">
	<ele>2597.00</ele>
	<time>2023-08-09T05:54:15.000Z</time>
</trkpt>
<trkpt lat="46.1520580" lon="10.4546620">
	<ele>2597.00</ele>
	<time>2023-08-09T05:54:16.000Z</time>
</trkpt>
<trkpt lat="46.1520580" lon="10.4546620">
	<ele>2597.00</ele>
	<time>2023-08-09T05:54:17.000Z</time>
</trkpt>
<trkpt lat="46.1520590" lon="10.4546620">
	<ele>2597.00</ele>
	<time>2023-08-09T05:54:18.000Z</time>
</trkpt>
<trkpt lat="46.1520590" lon="10.4546620">
	<ele>2597.00</ele>
	<time>2023-08-09T05:54:19.000Z</time>
</trkpt>
<trkpt lat="46.1520590" lon="10.4546620">
	<ele>2597.00</ele>
	<time>2023-08-09T05:54:20.000Z</time>
</trkpt>
<trkpt lat="46.1520600" lon="10.4546620">
	<ele>2597.20</ele>
	<time>2023-08-09T05:54:21.000Z</time>
</trkpt>
<trkpt lat="46.1520600" lon="10.4546620">
	<ele>2597.60</ele>
	<time>2023-08-09T05:54:22.000Z</time>
</trkpt>
<trkpt lat="46.1520600" lon="10.4546620">
	<ele>2597.80</ele>
	<time>2023-08-09T05:54:23.000Z</time>
</trkpt>
<trkpt lat="46.1520610" lon="10.4546620">
	<ele>2598.00</ele>
	<time>2023-08-09T05:54:24.000Z</time>
</trkpt>
<trkpt lat="46.1520610" lon="10.4546610">
	<ele>2598.20</ele>
	<time>2023-08-09T05:54:25.000Z</time>
</trkpt>
<trkpt lat="46.1520620" lon="10.4546610">
	<ele>2598.40</ele>
	<time>2023-08-09T05:54:26.000Z</time>
</trkpt>
<trkpt lat="46.1520620" lon="10.4546610">
	<ele>2598.60</ele>
	<time>2023-08-09T05:54:27.000Z</time>
</trkpt>
<trkpt lat="46.1520620" lon="10.4546610">
	<ele>2598.60</ele>
	<time>2023-08-09T05:54:28.000Z</time>
</trkpt>
<trkpt lat="46.1520630" lon="10.4546610">
	<ele>2598.80</ele>
	<time>2023-08-09T05:54:29.000Z</time>
</trkpt>
<trkpt lat="46.1520630" lon="10.4546610">
	<ele>2598.80</ele>
	<time>2023-08-09T05:54:30.000Z</time>
</trkpt>
<trkpt lat="46.1520640" lon="10.4546610">
	<ele>2599.00</ele>
	<time>2023-08-09T05:54:31.000Z</time>
</trkpt>
<trkpt lat="46.1520640" lon="10.4546610">
	<ele>2599.00</ele>
	<time>2023-08-09T05:54:32.000Z</time>
</trkpt>
<trkpt lat="46.1520650" lon="10.4546610">
	<ele>2599.20</ele>
	<time>2023-08-09T05:54:33.000Z</time>
</trkpt>
<trkpt lat="46.1520650" lon="10.4546620">
	<ele>2599.20</ele>
	<time>2023-08-09T05:54:34.000Z</time>
</trkpt>
<trkpt lat="46.1520650" lon="10.4546620">
	<ele>2599.20</ele>
	<time>2023-08-09T05:54:35.000Z</time>
</trkpt>
<trkpt lat="46.1520660" lon="10.4546620">
	<ele>2599.20</ele>
	<time>2023-08-09T05:54:36.000Z</time>
</trkpt>
<trkpt lat="46.1520660" lon="10.4546620">
	<ele>2599.20</ele>
	<time>2023-08-09T05:54:37.000Z</time>
</trkpt>
<trkpt lat="46.1520660" lon="10.4546620">
	<ele>2599.20</ele>
	<time>2023-08-09T05:54:38.000Z</time>
</trkpt>
<trkpt lat="46.1520670" lon="10.4546620">
	<ele>2599.20</ele>
	<time>2023-08-09T05:54:39.000Z</time>
</trkpt>
<trkpt lat="46.1520670" lon="10.4546620">
	<ele>2599.20</ele>
	<time>2023-08-09T05:54:40.000Z</time>
</trkpt>
<trkpt lat="46.1520670" lon="10.4546620">
	<ele>2599.40</ele>
	<time>2023-08-09T05:54:41.000Z</time>
</trkpt>
<trkpt lat="46.1520680" lon="10.4546620">
	<ele>2599.40</ele>
	<time>2023-08-09T05:54:42.000Z</time>
</trkpt>
<trkpt lat="46.1520680" lon="10.4546620">
	<ele>2599.60</ele>
	<time>2023-08-09T05:54:43.000Z</time>
</trkpt>
<trkpt lat="46.1520680" lon="10.4546630">
	<ele>2599.80</ele>
	<time>2023-08-09T05:54:44.000Z</time>
</trkpt>
<trkpt lat="46.1520690" lon="10.4546630">
	<ele>2599.80</ele>
	<time>2023-08-09T05:54:45.000Z</time>
</trkpt>
<trkpt lat="46.1520690" lon="10.4546630">
	<ele>2600.00</ele>
	<time>2023-08-09T05:54:46.000Z</time>
</trkpt>
<trkpt lat="46.1520690" lon="10.4546630">
	<ele>2600.00</ele>
	<time>2023-08-09T05:54:47.000Z</time>
</trkpt>
<trkpt lat="46.1520700" lon="10.4546630">
	<ele>2600.20</ele>
	<time>2023-08-09T05:54:48.000Z</time>
</trkpt>
<trkpt lat="46.1520700" lon="10.4546630">
	<ele>2600.20</ele>
	<time>2023-08-09T05:54:49.000Z</time>
</trkpt>
<trkpt lat="46.1520710" lon="10.4546630">
	<ele>2600.40</ele>
	<time>2023-08-09T05:54:50.000Z</time>
</trkpt>
<trkpt lat="46.1520710" lon="10.4546640">
	<ele>2600.80</ele>
	<time>2023-08-09T05:54:51.000Z</time>
</trkpt>
<trkpt lat="46.1520710" lon="10.4546640">
	<ele>2600.80</ele>
	<time>2023-08-09T05:54:52.000Z</time>
</trkpt>
<trkpt lat="46.1520720" lon="10.4546640">
	<ele>2601.00</ele>
	<time>2023-08-09T05:54:53.000Z</time>
</trkpt>
<trkpt lat="46.1520720" lon="10.4546640">
	<ele>2601.00</ele>
	<time>2023-08-09T05:54:54.000Z</time>
</trkpt>
<trkpt lat="46.1520730" lon="10.4546640">
	<ele>2601.20</ele>
	<time>2023-08-09T05:54:55.000Z</time>
</trkpt>
<trkpt lat="46.1520730" lon="10.4546640">
	<ele>2601.40</ele>
	<time>2023-08-09T05:54:56.000Z</time>
</trkpt>
<trkpt lat="46.1520730" lon="10.4546640">
	<ele>2601.60</ele>
	<time>2023-08-09T05:54:57.000Z</time>
</trkpt>
<trkpt lat="46.1520740" lon="10.4546640">
	<ele>2601.80</ele>
	<time>2023-08-09T05:54:58.000Z</time>
</trkpt>
<trkpt lat="46.1520740" lon="10.4546650">
	<ele>2602.00</ele>
	<time>2023-08-09T05:54:59.000Z</time>
</trkpt>
<trkpt lat="46.1520750" lon="10.4546650">
	<ele>2602.20</ele>
	<time>2023-08-09T05:55:00.000Z</time>
</trkpt>
<trkpt lat="46.1520750" lon="10.4546650">
	<ele>2602.20</ele>
	<time>2023-08-09T05:55:01.000Z</time>
</trkpt>
<trkpt lat="46.1520760" lon="10.4546650">
	<ele>2602.60</ele>
	<time>2023-08-09T05:55:02.000Z</time>
</trkpt>
<trkpt lat="46.1520760" lon="10.4546650">
	<ele>2602.80</ele>
	<time>2023-08-09T05:55:03.000Z</time>
</trkpt>
<trkpt lat="46.1520760" lon="10.4546650">
	<ele>2603.00</ele>
	<time>2023-08-09T05:55:04.000Z</time>
</trkpt>
<trkpt lat="46.1520770" lon="10.4546660">
	<ele>2603.00</ele>
	<time>2023-08-09T05:55:05.000Z</time>
</trkpt>
<trkpt lat="46.1520770" lon="10.4546660">
	<ele>2603.20</ele>
	<time>2023-08-09T05:55:06.000Z</time>
</trkpt>
<trkpt lat="46.1520780" lon="10.4546660">
	<ele>2603.20</ele>
	<time>2023-08-09T05:55:07.000Z</time>
</trkpt>
<trkpt lat="46.1520780" lon="10.4546660">
	<ele>2603.20</ele>
	<time>2023-08-09T05:55:08.000Z</time>
</trkpt>
<trkpt lat="46.1520790" lon="10.4546660">
	<ele>2603.40</ele>
	<time>2023-08-09T05:55:09.000Z</time>
</trkpt>
<trkpt lat="46.1520790" lon="10.4546660">
	<ele>2603.40</ele>
	<time>2023-08-09T05:55:10.000Z</time>
</trkpt>
<trkpt lat="46.1520800" lon="10.4546660">
	<ele>2603.60</ele>
	<time>2023-08-09T05:55:11.000Z</time>
</trkpt>
<trkpt lat="46.1520800" lon="10.4546670">
	<ele>2603.80</ele>
	<time>2023-08-09T05:55:12.000Z</time>
</trkpt>
<trkpt lat="46.1520800" lon="10.4546670">
	<ele>2604.00</ele>
	<time>2023-08-09T05:55:13.000Z</time>
</trkpt>
<trkpt lat="46.1520810" lon="10.4546670">
	<ele>2604.00</ele>
	<time>2023-08-09T05:55:14.000Z</time>
</trkpt>
<trkpt lat="46.1520810" lon="10.4546670">
	<ele>2604.00</ele>
	<time>2023-08-09T05:55:15.000Z</time>
</trkpt>
<trkpt lat="46.1520820" lon="10.4546670">
	<ele>2604.20</ele>
	<time>2023-08-09T05:55:16.000Z</time>
</trkpt>
<trkpt lat="46.1520820" lon="10.4546680">
	<ele>2604.40</ele>
	<time>2023-08-09T05:55:17.000Z</time>
</trkpt>
<trkpt lat="46.1520820" lon="10.4546680">
	<ele>2604.40</ele>
	<time>2023-08-09T05:55:18.000Z</time>
</trkpt>
<trkpt lat="46.1520830" lon="10.4546680">
	<ele>2604.60</ele>
	<time>2023-08-09T05:55:19.000Z</time>
</trkpt>
<trkpt lat="46.1520830" lon="10.4546680">
	<ele>2604.60</ele>
	<time>2023-08-09T05:55:20.000Z</time>
</trkpt>
<trkpt lat="46.1520840" lon="10.4546680">
	<ele>2604.60</ele>
	<time>2023-08-09T05:55:21.000Z</time>
</trkpt>
<trkpt lat="46.1520840" lon="10.4546690">
	<ele>2604.60</ele>
	<time>2023-08-09T05:55:22.000Z</time>
</trkpt>
<trkpt lat="46.1520840" lon="10.4546690">
	<ele>2604.80</ele>
	<time>2023-08-09T05:55:23.000Z</time>
</trkpt>
<trkpt lat="46.1520850" lon="10.4546690">
	<ele>2604.80</ele>
	<time>2023-08-09T05:55:24.000Z</time>
</trkpt>
<trkpt lat="46.1520850" lon="10.4546690">
	<ele>2604.80</ele>
	<time>2023-08-09T05:55:25.000Z</time>
</trkpt>
<trkpt lat="46.1520860" lon="10.4546690">
	<ele>2604.80</ele>
	<time>2023-08-09T05:55:26.000Z</time>
</trkpt>
<trkpt lat="46.1520860" lon="10.4546700">
	<ele>2605.00</ele>
	<time>2023-08-09T05:55:27.000Z</time>
</trkpt>
<trkpt lat="46.1520870" lon="10.4546700">
	<ele>2605.20</ele>
	<time>2023-08-09T05:55:28.000Z</time>
</trkpt>
<trkpt lat="46.1520870" lon="10.4546700">
	<ele>2605.60</ele>
	<time>2023-08-09T05:55:29.000Z</time>
</trkpt>
<trkpt lat="46.1520870" lon="10.4546700">
	<ele>2605.80</ele>
	<time>2023-08-09T05:55:30.000Z</time>
</trkpt>
<trkpt lat="46.1520880" lon="10.4546700">
	<ele>2606.00</ele>
	<time>2023-08-09T05:55:31.000Z</time>
</trkpt>
<trkpt lat="46.1520880" lon="10.4546710">
	<ele>2606.00</ele>
	<time>2023-08-09T05:55:32.000Z</time>
</trkpt>
<trkpt lat="46.1520880" lon="10.4546710">
	<ele>2606.20</ele>
	<time>2023-08-09T05:55:33.000Z</time>
</trkpt>
<trkpt lat="46.1520890" lon="10.4546710">
	<ele>2606.40</ele>
	<time>2023-08-09T05:55:34.000Z</time>
</trkpt>
<trkpt lat="46.1520890" lon="10.4546710">
	<ele>2606.40</ele>
	<time>2023-08-09T05:55:35.000Z</time>
</trkpt>
<trkpt lat="46.1520900" lon="10.4546720">
	<ele>2606.40</ele>
	<time>2023-08-09T05:55:36.000Z</time>
</trkpt>
<trkpt lat="46.1520900" lon="10.4546720">
	<ele>2606.80</ele>
	<time>2023-08-09T05:55:37.000Z</time>
</trkpt>
<trkpt lat="46.1520910" lon="10.4546720">
	<ele>2607.00</ele>
	<time>2023-08-09T05:55:38.000Z</time>
</trkpt>
<trkpt lat="46.1520910" lon="10.4546720">
	<ele>2607.00</ele>
	<time>2023-08-09T05:55:39.000Z</time>
</trkpt>
<trkpt lat="46.1520920" lon="10.4546730">
	<ele>2607.00</ele>
	<time>2023-08-09T05:55:40.000Z</time>
</trkpt>
<trkpt lat="46.1520920" lon="10.4546730">
	<ele>2607.20</ele>
	<time>2023-08-09T05:55:41.000Z</time>
</trkpt>
<trkpt lat="46.1520920" lon="10.4546730">
	<ele>2607.20</ele>
	<time>2023-08-09T05:55:42.000Z</time>
</trkpt>
<trkpt lat="46.1520930" lon="10.4546740">
	<ele>2607.40</ele>
	<time>2023-08-09T05:55:43.000Z</time>
</trkpt>
<trkpt lat="46.1520930" lon="10.4546740">
	<ele>2607.80</ele>
	<time>2023-08-09T05:55:44.000Z</time>
</trkpt>
<trkpt lat="46.1520940" lon="10.4546740">
	<ele>2607.80</ele>
	<time>2023-08-09T05:55:45.000Z</time>
</trkpt>
<trkpt lat="46.1520940" lon="10.4546750">
	<ele>2608.00</ele>
	<time>2023-08-09T05:55:46.000Z</time>
</trkpt>
<trkpt lat="46.1520950" lon="10.4546750">
	<ele>2608.00</ele>
	<time>2023-08-09T05:55:47.000Z</time>
</trkpt>
<trkpt lat="46.1520950" lon="10.4546750">
	<ele>2608.00</ele>
	<time>2023-08-09T05:55:48.000Z</time>
</trkpt>
<trkpt lat="46.1520960" lon="10.4546760">
	<ele>2608.00</ele>
	<time>2023-08-09T05:55:49.000Z</time>
</trkpt>
<trkpt lat="46.1520960" lon="10.4546760">
	<ele>2608.40</ele>
	<time>2023-08-09T05:55:50.000Z</time>
</trkpt>
<trkpt lat="46.1520960" lon="10.4546760">
	<ele>2608.40</ele>
	<time>2023-08-09T05:55:51.000Z</time>
</trkpt>
<trkpt lat="46.1520970" lon="10.4546770">
	<ele>2608.60</ele>
	<time>2023-08-09T05:55:52.000Z</time>
</trkpt>
<trkpt lat="46.1520970" lon="10.4546770">
	<ele>2608.80</ele>
	<time>2023-08-09T05:55:53.000Z</time>
</trkpt>
<trkpt lat="46.1520980" lon="10.4546780">
	<ele>2609.00</ele>
	<time>2023-08-09T05:55:54.000Z</time>
</trkpt>
<trkpt lat="46.1520980" lon="10.4546780">
	<ele>2609.00</ele>
	<time>2023-08-09T05:55:55.000Z</time>
</trkpt>
<trkpt lat="46.1520980" lon="10.4546780">
	<ele>2609.00</ele>
	<time>2023-08-09T05:55:56.000Z</time>
</trkpt>
<trkpt lat="46.1520990" lon="10.4546780">
	<ele>2609.00</ele>
	<time>2023-08-09T05:55:57.000Z</time>
</trkpt>
<trkpt lat="46.1520990" lon="10.4546790">
	<ele>2609.20</ele>
	<time>2023-08-09T05:55:58.000Z</time>
</trkpt>
<trkpt lat="46.1521000" lon="10.4546790">
	<ele>2609.20</ele>
	<time>2023-08-09T05:55:59.000Z</time>
</trkpt>
<trkpt lat="46.1521000" lon="10.4546790">
	<ele>2609.20</ele>
	<time>2023-08-09T05:56:00.000Z</time>
</trkpt>
<trkpt lat="46.1521000" lon="10.4546800">
	<ele>2609.20</ele>
	<time>2023-08-09T05:56:01.000Z</time>
</trkpt>
<trkpt lat="46.1521010" lon="10.4546800">
	<ele>2609.40</ele>
	<time>2023-08-09T05:56:02.000Z</time>
</trkpt>
<trkpt lat="46.1521010" lon="10.4546800">
	<ele>2609.60</ele>
	<time>2023-08-09T05:56:03.000Z</time>
</trkpt>
<trkpt lat="46.1521020" lon="10.4546800">
	<ele>2609.80</ele>
	<time>2023-08-09T05:56:04.000Z</time>
</trkpt>
<trkpt lat="46.1521020" lon="10.4546810">
	<ele>2610.20</ele>
	<time>2023-08-09T05:56:05.000Z</time>
</trkpt>
<trkpt lat="46.1521030" lon="10.4546810">
	<ele>2610.40</ele>
	<time>2023-08-09T05:56:06.000Z</time>
</trkpt>
<trkpt lat="46.1521030" lon="10.4546810">
	<ele>2610.40</ele>
	<time>2023-08-09T05:56:07.000Z</time>
</trkpt>
<trkpt lat="46.1521040" lon="10.4546810">
	<ele>2610.60</ele>
	<time>2023-08-09T05:56:08.000Z</time>
</trkpt>
<trkpt lat="46.1521040" lon="10.4546820">
	<ele>2610.60</ele>
	<time>2023-08-09T05:56:09.000Z</time>
</trkpt>
<trkpt lat="46.1521050" lon="10.4546820">
	<ele>2611.00</ele>
	<time>2023-08-09T05:56:10.000Z</time>
</trkpt>
<trkpt lat="46.1521050" lon="10.4546830">
	<ele>2611.20</ele>
	<time>2023-08-09T05:56:11.000Z</time>
</trkpt>
<trkpt lat="46.1521060" lon="10.4546830">
	<ele>2611.40</ele>
	<time>2023-08-09T05:56:12.000Z</time>
</trkpt>
<trkpt lat="46.1521060" lon="10.4546830">
	<ele>2611.40</ele>
	<time>2023-08-09T05:56:13.000Z</time>
</trkpt>
<trkpt lat="46.1521070" lon="10.4546830">
	<ele>2611.80</ele>
	<time>2023-08-09T05:56:14.000Z</time>
</trkpt>
<trkpt lat="46.1521070" lon="10.4546840">
	<ele>2612.00</ele>
	<time>2023-08-09T05:56:15.000Z</time>
</trkpt>
<trkpt lat="46.1521070" lon="10.4546840">
	<ele>2612.00</ele>
	<time>2023-08-09T05:56:16.000Z</time>
</trkpt>
<trkpt lat="46.1521080" lon="10.4546840">
	<ele>2612.20</ele>
	<time>2023-08-09T05:56:17.000Z</time>
</trkpt>
<trkpt lat="46.1521080" lon="10.4546850">
	<ele>2612.20</ele>
	<time>2023-08-09T05:56:18.000Z</time>
</trkpt>
<trkpt lat="46.1521090" lon="10.4546850">
	<ele>2612.20</ele>
	<time>2023-08-09T05:56:19.000Z</time>
</trkpt>
<trkpt lat="46.1521090" lon="10.4546850">
	<ele>2612.40</ele>
	<time>2023-08-09T05:56:20.000Z</time>
</trkpt>
<trkpt lat="46.1521100" lon="10.4546860">
	<ele>2612.40</ele>
	<time>2023-08-09T05:56:21.000Z</time>
</trkpt>
<trkpt lat="46.1521100" lon="10.4546860">
	<ele>2612.60</ele>
	<time>2023-08-09T05:56:22.000Z</time>
</trkpt>
<trkpt lat="46.1521110" lon="10.4546860">
	<ele>2612.60</ele>
	<time>2023-08-09T05:56:23.000Z</time>
</trkpt>
<trkpt lat="46.1521110" lon="10.4546870">
	<ele>2612.60</ele>
	<time>2023-08-09T05:56:24.000Z</time>
</trkpt>
<trkpt lat="46.1521120" lon="10.4546870">
	<ele>2612.80</ele>
	<time>2023-08-09T05:56:25.000Z</time>
</trkpt>
<trkpt lat="46.1521120" lon="10.4546880">
	<ele>2613.20</ele>
	<time>2023-08-09T05:56:26.000Z</time>
</trkpt>
<trkpt lat="46.1521120" lon="10.4546880">
	<ele>2613.60</ele>
	<time>2023-08-09T05:56:27.000Z</time>
</trkpt>
<trkpt lat="46.1521130" lon="10.4546880">
	<ele>2613.60</ele>
	<time>2023-08-09T05:56:28.000Z</time>
</trkpt>
<trkpt lat="46.1521130" lon="10.4546890">
	<ele>2613.80</ele>
	<time>2023-08-09T05:56:29.000Z</time>
</trkpt>
<trkpt lat="46.1521140" lon="10.4546890">
	<ele>2613.80</ele>
	<time>2023-08-09T05:56:30.000Z</time>
</trkpt>
<trkpt lat="46.1521140" lon="10.4546890">
	<ele>2614.00</ele>
	<time>2023-08-09T05:56:31.000Z</time>
</trkpt>
<trkpt lat="46.1521150" lon="10.4546900">
	<ele>2614.00</ele>
	<time>2023-08-09T05:56:32.000Z</time>
</trkpt>
<trkpt lat="46.1521150" lon="10.4546900">
	<ele>2614.00</ele>
	<time>2023-08-09T05:56:33.000Z</time>
</trkpt>
<trkpt lat="46.1521160" lon="10.4546910">
	<ele>2614.20</ele>
	<time>2023-08-09T05:56:34.000Z</time>
</trkpt>
<trkpt lat="46.1521160" lon="10.4546910">
	<ele>2614.20</ele>
	<time>2023-08-09T05:56:35.000Z</time>
</trkpt>
<trkpt lat="46.1521170" lon="10.4546910">
	<ele>2614.40</ele>
	<time>2023-08-09T05:56:36.000Z</time>
</trkpt>
<trkpt lat="46.1521170" lon="10.4546920">
	<ele>2614.60</ele>
	<time>2023-08-09T05:56:37.000Z</time>
</trkpt>
<trkpt lat="46.1521180" lon="10.4546920">
	<ele>2614.60</ele>
	<time>2023-08-09T05:56:38.000Z</time>
</trkpt>
<trkpt lat="46.1521190" lon="10.4546920">
	<ele>2614.60</ele>
	<time>2023-08-09T05:56:39.000Z</time>
</trkpt>
<trkpt lat="46.1521190" lon="10.4546930">
	<ele>2614.80</ele>
	<time>2023-08-09T05:56:40.000Z</time>
</trkpt>
<trkpt lat="46.1521200" lon="10.4546930">
	<ele>2615.00</ele>
	<time>2023-08-09T05:56:41.000Z</time>
</trkpt>
<trkpt lat="46.1521200" lon="10.4546930">
	<ele>2615.00</ele>
	<time>2023-08-09T05:56:42.000Z</time>
</trkpt>
<trkpt lat="46.1521210" lon="10.4546940">
	<ele>2615.00</ele>
	<time>2023-08-09T05:56:43.000Z</time>
</trkpt>
<trkpt lat="46.1521210" lon="10.4546940">
	<ele>2615.20</ele>
	<time>2023-08-09T05:56:44.000Z</time>
</trkpt>
<trkpt lat="46.1521220" lon="10.4546940">
	<ele>2615.40</ele>
	<time>2023-08-09T05:56:45.000Z</time>
</trkpt>
<trkpt lat="46.1521220" lon="10.4546950">
	<ele>2615.60</ele>
	<time>2023-08-09T05:56:46.000Z</time>
</trkpt>
<trkpt lat="46.1521230" lon="10.4546950">
	<ele>2615.80</ele>
	<time>2023-08-09T05:56:47.000Z</time>
</trkpt>
<trkpt lat="46.1521230" lon="10.4546950">
	<ele>2615.80</ele>
	<time>2023-08-09T05:56:48.000Z</time>
</trkpt>
<trkpt lat="46.1521240" lon="10.4546960">
	<ele>2616.00</ele>
	<time>2023-08-09T05:56:49.000Z</time>
</trkpt>
<trkpt lat="46.1521240" lon="10.4546960">
	<ele>2616.00</ele>
	<time>2023-08-09T05:56:50.000Z</time>
</trkpt>
<trkpt lat="46.1521250" lon="10.4546960">
	<ele>2616.00</ele>
	<time>2023-08-09T05:56:51.000Z</time>
</trkpt>
<trkpt lat="46.1521250" lon="10.4546970">
	<ele>2616.00</ele>
	<time>2023-08-09T05:56:52.000Z</time>
</trkpt>
<trkpt lat="46.1521260" lon="10.4546970">
	<ele>2616.00</ele>
	<time>2023-08-09T05:56:53.000Z</time>
</trkpt>
<trkpt lat="46.1521260" lon="10.4546970">
	<ele>2616.20</ele>
	<time>2023-08-09T05:56:54.000Z</time>
</trkpt>
<trkpt lat="46.1521270" lon="10.4546980">
	<ele>2616.20</ele>
	<time>2023-08-09T05:56:55.000Z</time>
</trkpt>
<trkpt lat="46.1521270" lon="10.4546980">
	<ele>2616.40</ele>
	<time>2023-08-09T05:56:56.000Z</time>
</trkpt>
<trkpt lat="46.1521280" lon="10.4546990">
	<ele>2616.40</ele>
	<time>2023-08-09T05:56:57.000Z</time>
</trkpt>
<trkpt lat="46.1521290" lon="10.4546990">
	<ele>2616.60</ele>
	<time>2023-08-09T05:56:58.000Z</time>
</trkpt>
<trkpt lat="46.1521290" lon="10.4546990">
	<ele>2616.60</ele>
	<time>2023-08-09T05:56:59.000Z</time>
</trkpt>
<trkpt lat="46.1521300" lon="10.4547000">
	<ele>2616.80</ele>
	<time>2023-08-09T05:57:00.000Z</time>
</trkpt>
<trkpt lat="46.1521300" lon="10.4547000">
	<ele>2616.80</ele>
	<time>2023-08-09T05:57:01.000Z</time>
</trkpt>
<trkpt lat="46.1521310" lon="10.4547010">
	<ele>2617.00</ele>
	<time>2023-08-09T05:57:02.000Z</time>
</trkpt>
<trkpt lat="46.1521310" lon="10.4547010">
	<ele>2617.20</ele>
	<time>2023-08-09T05:57:03.000Z</time>
</trkpt>
<trkpt lat="46.1521320" lon="10.4547020">
	<ele>2617.40</ele>
	<time>2023-08-09T05:57:04.000Z</time>
</trkpt>
<trkpt lat="46.1521320" lon="10.4547020">
	<ele>2617.40</ele>
	<time>2023-08-09T05:57:05.000Z</time>
</trkpt>
<trkpt lat="46.1521330" lon="10.4547020">
	<ele>2617.60</ele>
	<time>2023-08-09T05:57:06.000Z</time>
</trkpt>
<trkpt lat="46.1521330" lon="10.4547030">
	<ele>2617.80</ele>
	<time>2023-08-09T05:57:07.000Z</time>
</trkpt>
<trkpt lat="46.1521340" lon="10.4547030">
	<ele>2617.80</ele>
	<time>2023-08-09T05:57:08.000Z</time>
</trkpt>
<trkpt lat="46.1521350" lon="10.4547040">
	<ele>2618.00</ele>
	<time>2023-08-09T05:57:09.000Z</time>
</trkpt>
<trkpt lat="46.1521350" lon="10.4547040">
	<ele>2618.00</ele>
	<time>2023-08-09T05:57:10.000Z</time>
</trkpt>
<trkpt lat="46.1521360" lon="10.4547050">
	<ele>2618.20</ele>
	<time>2023-08-09T05:57:11.000Z</time>
</trkpt>
<trkpt lat="46.1521360" lon="10.4547050">
	<ele>2618.40</ele>
	<time>2023-08-09T05:57:12.000Z</time>
</trkpt>
<trkpt lat="46.1521370" lon="10.4547050">
	<ele>2618.40</ele>
	<time>2023-08-09T05:57:13.000Z</time>
</trkpt>
<trkpt lat="46.1521370" lon="10.4547060">
	<ele>2618.60</ele>
	<time>2023-08-09T05:57:14.000Z</time>
</trkpt>
<trkpt lat="46.1521380" lon="10.4547060">
	<ele>2618.80</ele>
	<time>2023-08-09T05:57:15.000Z</time>
</trkpt>
<trkpt lat="46.1521380" lon="10.4547070">
	<ele>2618.80</ele>
	<time>2023-08-09T05:57:16.000Z</time>
</trkpt>
<trkpt lat="46.1521390" lon="10.4547070">
	<ele>2618.80</ele>
	<time>2023-08-09T05:57:17.000Z</time>
</trkpt>
<trkpt lat="46.1521390" lon="10.4547080">
	<ele>2619.00</ele>
	<time>2023-08-09T05:57:18.000Z</time>
</trkpt>
<trkpt lat="46.1521400" lon="10.4547080">
	<ele>2619.20</ele>
	<time>2023-08-09T05:57:19.000Z</time>
</trkpt>
<trkpt lat="46.1521400" lon="10.4547090">
	<ele>2619.40</ele>
	<time>2023-08-09T05:57:20.000Z</time>
</trkpt>
<trkpt lat="46.1521410" lon="10.4547090">
	<ele>2619.60</ele>
	<time>2023-08-09T05:57:21.000Z</time>
</trkpt>
<trkpt lat="46.1521410" lon="10.4547100">
	<ele>2619.80</ele>
	<time>2023-08-09T05:57:22.000Z</time>
</trkpt>
<trkpt lat="46.1521420" lon="10.4547100">
	<ele>2619.80</ele>
	<time>2023-08-09T05:57:23.000Z</time>
</trkpt>
<trkpt lat="46.1521420" lon="10.4547100">
	<ele>2619.80</ele>
	<time>2023-08-09T05:57:24.000Z</time>
</trkpt>
<trkpt lat="46.1521430" lon="10.4547110">
	<ele>2620.00</ele>
	<time>2023-08-09T05:57:25.000Z</time>
</trkpt>
<trkpt lat="46.1521430" lon="10.4547110">
	<ele>2620.00</ele>
	<time>2023-08-09T05:57:26.000Z</time>
</trkpt>
<trkpt lat="46.1521440" lon="10.4547120">
	<ele>2620.20</ele>
	<time>2023-08-09T05:57:27.000Z</time>
</trkpt>
<trkpt lat="46.1521440" lon="10.4547120">
	<ele>2620.20</ele>
	<time>2023-08-09T05:57:28.000Z</time>
</trkpt>
<trkpt lat="46.1521450" lon="10.4547130">
	<ele>2620.40</ele>
	<time>2023-08-09T05:57:29.000Z</time>
</trkpt>
<trkpt lat="46.1521450" lon="10.4547130">
	<ele>2620.40</ele>
	<time>2023-08-09T05:57:30.000Z</time>
</trkpt>
<trkpt lat="46.1521460" lon="10.4547140">
	<ele>2620.60</ele>
	<time>2023-08-09T05:57:31.000Z</time>
</trkpt>
<trkpt lat="46.1521470" lon="10.4547140">
	<ele>2620.80</ele>
	<time>2023-08-09T05:57:32.000Z</time>
</trkpt>
<trkpt lat="46.1521470" lon="10.4547150">
	<ele>2621.00</ele>
	<time>2023-08-09T05:57:33.000Z</time>
</trkpt>
<trkpt lat="46.1521480" lon="10.4547150">
	<ele>2621.20</ele>
	<time>2023-08-09T05:57:34.000Z</time>
</trkpt>
<trkpt lat="46.1521480" lon="10.4547160">
	<ele>2621.40</ele>
	<time>2023-08-09T05:57:35.000Z</time>
</trkpt>
<trkpt lat="46.1521490" lon="10.4547160">
	<ele>2621.60</ele>
	<time>2023-08-09T05:57:36.000Z</time>
</trkpt>
<trkpt lat="46.1521490" lon="10.4547170">
	<ele>2621.60</ele>
	<time>2023-08-09T05:57:37.000Z</time>
</trkpt>
<trkpt lat="46.1521500" lon="10.4547170">
	<ele>2621.80</ele>
	<time>2023-08-09T05:57:38.000Z</time>
</trkpt>
<trkpt lat="46.1521500" lon="10.4547180">
	<ele>2622.00</ele>
	<time>2023-08-09T05:57:39.000Z</time>
</trkpt>
<trkpt lat="46.1521510" lon="10.4547180">
	<ele>2622.20</ele>
	<time>2023-08-09T05:57:40.000Z</time>
</trkpt>
<trkpt lat="46.1521520" lon="10.4547190">
	<ele>2622.40</ele>
	<time>2023-08-09T05:57:41.000Z</time>
</trkpt>
<trkpt lat="46.1521520" lon="10.4547190">
	<ele>2622.60</ele>
	<time>2023-08-09T05:57:42.000Z</time>
</trkpt>
<trkpt lat="46.1521530" lon="10.4547200">
	<ele>2622.60</ele>
	<time>2023-08-09T05:57:43.000Z</time>
</trkpt>
<trkpt lat="46.1521530" lon="10.4547210">
	<ele>2622.60</ele>
	<time>2023-08-09T05:57:44.000Z</time>
</trkpt>
<trkpt lat="46.1521540" lon="10.4547210">
	<ele>2622.80</ele>
	<time>2023-08-09T05:57:45.000Z</time>
</trkpt>
<trkpt lat="46.1521540" lon="10.4547220">
	<ele>2622.80</ele>
	<time>2023-08-09T05:57:46.000Z</time>
</trkpt>
<trkpt lat="46.1521550" lon="10.4547220">
	<ele>2622.80</ele>
	<time>2023-08-09T05:57:47.000Z</time>
</trkpt>
<trkpt lat="46.1521550" lon="10.4547220">
	<ele>2623.00</ele>
	<time>2023-08-09T05:57:48.000Z</time>
</trkpt>
<trkpt lat="46.1521560" lon="10.4547230">
	<ele>2623.00</ele>
	<time>2023-08-09T05:57:49.000Z</time>
</trkpt>
<trkpt lat="46.1521560" lon="10.4547240">
	<ele>2623.20</ele>
	<time>2023-08-09T05:57:50.000Z</time>
</trkpt>
<trkpt lat="46.1521570" lon="10.4547240">
	<ele>2623.20</ele>
	<time>2023-08-09T05:57:51.000Z</time>
</trkpt>
<trkpt lat="46.1521570" lon="10.4547250">
	<ele>2623.20</ele>
	<time>2023-08-09T05:57:52.000Z</time>
</trkpt>
<trkpt lat="46.1521580" lon="10.4547250">
	<ele>2623.60</ele>
	<time>2023-08-09T05:57:53.000Z</time>
</trkpt>
<trkpt lat="46.1521590" lon="10.4547260">
	<ele>2623.80</ele>
	<time>2023-08-09T05:57:54.000Z</time>
</trkpt>
<trkpt lat="46.1521590" lon="10.4547260">
	<ele>2623.80</ele>
	<time>2023-08-09T05:57:55.000Z</time>
</trkpt>
<trkpt lat="46.1521600" lon="10.4547270">
	<ele>2623.80</ele>
	<time>2023-08-09T05:57:56.000Z</time>
</trkpt>
<trkpt lat="46.1521600" lon="10.4547270">
	<ele>2624.00</ele>
	<time>2023-08-09T05:57:57.000Z</time>
</trkpt>
<trkpt lat="46.1521610" lon="10.4547280">
	<ele>2624.20</ele>
	<time>2023-08-09T05:57:58.000Z</time>
</trkpt>
<trkpt lat="46.1521610" lon="10.4547290">
	<ele>2624.40</ele>
	<time>2023-08-09T05:57:59.000Z</time>
</trkpt>
<trkpt lat="46.1521620" lon="10.4547290">
	<ele>2624.60</ele>
	<time>2023-08-09T05:58:00.000Z</time>
</trkpt>
<trkpt lat="46.1521620" lon="10.4547300">
	<ele>2624.80</ele>
	<time>2023-08-09T05:58:01.000Z</time>
</trkpt>
<trkpt lat="46.1521630" lon="10.4547300">
	<ele>2625.00</ele>
	<time>2023-08-09T05:58:02.000Z</time>
</trkpt>
<trkpt lat="46.1521640" lon="10.4547310">
	<ele>2625.00</ele>
	<time>2023-08-09T05:58:03.000Z</time>
</trkpt>
<trkpt lat="46.1521640" lon="10.4547310">
	<ele>2625.20</ele>
	<time>2023-08-09T05:58:04.000Z</time>
</trkpt>
<trkpt lat="46.1521650" lon="10.4547320">
	<ele>2625.40</ele>
	<time>2023-08-09T05:58:05.000Z</time>
</trkpt>
<trkpt lat="46.1521650" lon="10.4547320">
	<ele>2625.60</ele>
	<time>2023-08-09T05:58:06.000Z</time>
</trkpt>
<trkpt lat="46.1521660" lon="10.4547330">
	<ele>2625.60</ele>
	<time>2023-08-09T05:58:07.000Z</time>
</trkpt>
<trkpt lat="46.1521660" lon="10.4547340">
	<ele>2625.60</ele>
	<time>2023-08-09T05:58:08.000Z</time>
</trkpt>
<trkpt lat="46.1521670" lon="10.4547340">
	<ele>2625.60</ele>
	<time>2023-08-09T05:58:09.000Z</time>
</trkpt>
<trkpt lat="46.1521680" lon="10.4547350">
	<ele>2625.80</ele>
	<time>2023-08-09T05:58:10.000Z</time>
</trkpt>
<trkpt lat="46.1521680" lon="10.4547360">
	<ele>2625.80</ele>
	<time>2023-08-09T05:58:11.000Z</time>
</trkpt>
<trkpt lat="46.1521690" lon="10.4547360">
	<ele>2625.80</ele>
	<time>2023-08-09T05:58:12.000Z</time>
</trkpt>
<trkpt lat="46.1521690" lon="10.4547370">
	<ele>2626.00</ele>
	<time>2023-08-09T05:58:13.000Z</time>
</trkpt>
<trkpt lat="46.1521700" lon="10.4547370">
	<ele>2626.20</ele>
	<time>2023-08-09T05:58:14.000Z</time>
</trkpt>
<trkpt lat="46.1521710" lon="10.4547380">
	<ele>2626.20</ele>
	<time>2023-08-09T05:58:15.000Z</time>
</trkpt>
<trkpt lat="46.1521710" lon="10.4547380">
	<ele>2626.40</ele>
	<time>2023-08-09T05:58:16.000Z</time>
</trkpt>
<trkpt lat="46.1521720" lon="10.4547390">
	<ele>2626.60</ele>
	<time>2023-08-09T05:58:17.000Z</time>
</trkpt>
<trkpt lat="46.1521720" lon="10.4547400">
	<ele>2626.80</ele>
	<time>2023-08-09T05:58:18.000Z</time>
</trkpt>
<trkpt lat="46.1521730" lon="10.4547400">
	<ele>2626.80</ele>
	<time>2023-08-09T05:58:19.000Z</time>
</trkpt>
<trkpt lat="46.1521740" lon="10.4547410">
	<ele>2626.80</ele>
	<time>2023-08-09T05:58:20.000Z</time>
</trkpt>
<trkpt lat="46.1521740" lon="10.4547420">
	<ele>2627.00</ele>
	<time>2023-08-09T05:58:21.000Z</time>
</trkpt>
<trkpt lat="46.1521750" lon="10.4547420">
	<ele>2627.00</ele>
	<time>2023-08-09T05:58:22.000Z</time>
</trkpt>
<trkpt lat="46.1521750" lon="10.4547430">
	<ele>2627.00</ele>
	<time>2023-08-09T05:58:23.000Z</time>
</trkpt>
<trkpt lat="46.1521760" lon="10.4547430">
	<ele>2627.00</ele>
	<time>2023-08-09T05:58:24.000Z</time>
</trkpt>
<trkpt lat="46.1521760" lon="10.4547440">
	<ele>2627.00</ele>
	<time>2023-08-09T05:58:25.000Z</time>
</trkpt>
<trkpt lat="46.1521770" lon="10.4547440">
	<ele>2627.20</ele>
	<time>2023-08-09T05:58:26.000Z</time>
</trkpt>
<trkpt lat="46.1521780" lon="10.4547450">
	<ele>2627.20</ele>
	<time>2023-08-09T05:58:27.000Z</time>
</trkpt>
<trkpt lat="46.1521780" lon="10.4547460">
	<ele>2627.20</ele>
	<time>2023-08-09T05:58:28.000Z</time>
</trkpt>
<trkpt lat="46.1521790" lon="10.4547460">
	<ele>2627.40</ele>
	<time>2023-08-09T05:58:29.000Z</time>
</trkpt>
<trkpt lat="46.1521790" lon="10.4547470">
	<ele>2627.40</ele>
	<time>2023-08-09T05:58:30.000Z</time>
</trkpt>
<trkpt lat="46.1521800" lon="10.4547480">
	<ele>2627.60</ele>
	<time>2023-08-09T05:58:31.000Z</time>
</trkpt>
<trkpt lat="46.1521810" lon="10.4547480">
	<ele>2627.60</ele>
	<time>2023-08-09T05:58:32.000Z</time>
</trkpt>
<trkpt lat="46.1521810" lon="10.4547490">
	<ele>2627.60</ele>
	<time>2023-08-09T05:58:33.000Z</time>
</trkpt>
<trkpt lat="46.1521820" lon="10.4547490">
	<ele>2627.80</ele>
	<time>2023-08-09T05:58:34.000Z</time>
</trkpt>
<trkpt lat="46.1521820" lon="10.4547500">
	<ele>2627.80</ele>
	<time>2023-08-09T05:58:35.000Z</time>
</trkpt>
<trkpt lat="46.1521830" lon="10.4547510">
	<ele>2628.00</ele>
	<time>2023-08-09T05:58:36.000Z</time>
</trkpt>
<trkpt lat="46.1521840" lon="10.4547510">
	<ele>2628.00</ele>
	<time>2023-08-09T05:58:37.000Z</time>
</trkpt>
<trkpt lat="46.1521840" lon="10.4547520">
	<ele>2628.00</ele>
	<time>2023-08-09T05:58:38.000Z</time>
</trkpt>
<trkpt lat="46.1521850" lon="10.4547520">
	<ele>2628.00</ele>
	<time>2023-08-09T05:58:39.000Z</time>
</trkpt>
<trkpt lat="46.1521850" lon="10.4547530">
	<ele>2628.20</ele>
	<time>2023-08-09T05:58:40.000Z</time>
</trkpt>
<trkpt lat="46.1521860" lon="10.4547540">
	<ele>2628.20</ele>
	<time>2023-08-09T05:58:41.000Z</time>
</trkpt>
<trkpt lat="46.1521870" lon="10.4547540">
	<ele>2628.20</ele>
	<time>2023-08-09T05:58:42.000Z</time>
</trkpt>
<trkpt lat="46.1521870" lon="10.4547550">
	<ele>2628.20</ele>
	<time>2023-08-09T05:58:43.000Z</time>
</trkpt>
<trkpt lat="46.1521880" lon="10.4547550">
	<ele>2628.40</ele>
	<time>2023-08-09T05:58:44.000Z</time>
</trkpt>
<trkpt lat="46.1521890" lon="10.4547560">
	<ele>2628.60</ele>
	<time>2023-08-09T05:58:45.000Z</time>
</trkpt>
<trkpt lat="46.1521890" lon="10.4547570">
	<ele>2628.80</ele>
	<time>2023-08-09T05:58:46.000Z</time>
</trkpt>
<trkpt lat="46.1521900" lon="10.4547570">
	<ele>2629.00</ele>
	<time>2023-08-09T05:58:47.000Z</time>
</trkpt>
<trkpt lat="46.1521900" lon="10.4547580">
	<ele>2629.00</ele>
	<time>2023-08-09T05:58:48.000Z</time>
</trkpt>
<trkpt lat="46.1521910" lon="10.4547590">
	<ele>2629.00</ele>
	<time>2023-08-09T05:58:49.000Z</time>
</trkpt>
<trkpt lat="46.1521920" lon="10.4547590">
	<ele>2629.00</ele>
	<time>2023-08-09T05:58:50.000Z</time>
</trkpt>
<trkpt lat="46.1521920" lon="10.4547600">
	<ele>2628.80</ele>
	<time>2023-08-09T05:58:51.000Z</time>
</trkpt>
<trkpt lat="46.1521930" lon="10.4547610">
	<ele>2628.80</ele>
	<time>2023-08-09T05:58:52.000Z</time>
</trkpt>
<trkpt lat="46.1521940" lon="10.4547620">
	<ele>2628.60</ele>
	<time>2023-08-09T05:58:53.000Z</time>
</trkpt>
<trkpt lat="46.1521940" lon="10.4547620">
	<ele>2628.60</ele>
	<time>2023-08-09T05:58:54.000Z</time>
</trkpt>
<trkpt lat="46.1521950" lon="10.4547630">
	<ele>2628.40</ele>
	<time>2023-08-09T05:58:55.000Z</time>
</trkpt>
<trkpt lat="46.1521950" lon="10.4547640">
	<ele>2628.40</ele>
	<time>2023-08-09T05:58:56.000Z</time>
</trkpt>
<trkpt lat="46.1521960" lon="10.4547640">
	<ele>2628.40</ele>
	<time>2023-08-09T05:58:57.000Z</time>
</trkpt>
<trkpt lat="46.1521970" lon="10.4547650">
	<ele>2628.40</ele>
	<time>2023-08-09T05:58:58.000Z</time>
</trkpt>
<trkpt lat="46.1521970" lon="10.4547650">
	<ele>2628.60</ele>
	<time>2023-08-09T05:58:59.000Z</time>
</trkpt>
<trkpt lat="46.1521980" lon="10.4547660">
	<ele>2628.80</ele>
	<time>2023-08-09T05:59:00.000Z</time>
</trkpt>
<trkpt lat="46.1521990" lon="10.4547670">
	<ele>2629.00</ele>
	<time>2023-08-09T05:59:01.000Z</time>
</trkpt>
<trkpt lat="46.1521990" lon="10.4547670">
	<ele>2629.00</ele>
	<time>2023-08-09T05:59:02.000Z</time>
</trkpt>
<trkpt lat="46.1522000" lon="10.4547680">
	<ele>2629.00</ele>
	<time>2023-08-09T05:59:03.000Z</time>
</trkpt>
<trkpt lat="46.1522000" lon="10.4547680">
	<ele>2628.80</ele>
	<time>2023-08-09T05:59:04.000Z</time>
</trkpt>
<trkpt lat="46.1522010" lon="10.4547690">
	<ele>2629.00</ele>
	<time>2023-08-09T05:59:05.000Z</time>
</trkpt>
<trkpt lat="46.1522020" lon="10.4547700">
	<ele>2628.80</ele>
	<time>2023-08-09T05:59:06.000Z</time>
</trkpt>
<trkpt lat="46.1522020" lon="10.4547700">
	<ele>2628.80</ele>
	<time>2023-08-09T05:59:07.000Z</time>
</trkpt>
<trkpt lat="46.1522030" lon="10.4547710">
	<ele>2628.80</ele>
	<time>2023-08-09T05:59:08.000Z</time>
</trkpt>
<trkpt lat="46.1522030" lon="10.4547720">
	<ele>2628.80</ele>
	<time>2023-08-09T05:59:09.000Z</time>
</trkpt>
<trkpt lat="46.1522040" lon="10.4547720">
	<ele>2629.00</ele>
	<time>2023-08-09T05:59:10.000Z</time>
</trkpt>
<trkpt lat="46.1522050" lon="10.4547730">
	<ele>2629.00</ele>
	<time>2023-08-09T05:59:11.000Z</time>
</trkpt>
<trkpt lat="46.1522050" lon="10.4547740">
	<ele>2629.00</ele>
	<time>2023-08-09T05:59:12.000Z</time>
</trkpt>
<trkpt lat="46.1522060" lon="10.4547740">
	<ele>2629.00</ele>
	<time>2023-08-09T05:59:13.000Z</time>
</trkpt>
<trkpt lat="46.1522070" lon="10.4547750">
	<ele>2629.00</ele>
	<time>2023-08-09T05:59:14.000Z</time>
</trkpt>
<trkpt lat="46.1522070" lon="10.4547760">
	<ele>2629.00</ele>
	<time>2023-08-09T05:59:15.000Z</time>
</trkpt>
<trkpt lat="46.1522080" lon="10.4547770">
	<ele>2629.00</ele>
	<time>2023-08-09T05:59:16.000Z</time>
</trkpt>
<trkpt lat="46.1522090" lon="10.4547770">
	<ele>2629.00</ele>
	<time>2023-08-09T05:59:17.000Z</time>
</trkpt>
<trkpt lat="46.1522090" lon="10.4547780">
	<ele>2629.00</ele>
	<time>2023-08-09T05:59:18.000Z</time>
</trkpt>
<trkpt lat="46.1522100" lon="10.4547790">
	<ele>2629.00</ele>
	<time>2023-08-09T05:59:19.000Z</time>
</trkpt>
<trkpt lat="46.1522100" lon="10.4547790">
	<ele>2629.00</ele>
	<time>2023-08-09T05:59:20.000Z</time>
</trkpt>
<trkpt lat="46.1522110" lon="10.4547800">
	<ele>2629.00</ele>
	<time>2023-08-09T05:59:21.000Z</time>
</trkpt>
<trkpt lat="46.1522120" lon="10.4547810">
	<ele>2629.00</ele>
	<time>2023-08-09T05:59:22.000Z</time>
</trkpt>
<trkpt lat="46.1522120" lon="10.4547820">
	<ele>2629.00</ele>
	<time>2023-08-09T05:59:23.000Z</time>
</trkpt>
<trkpt lat="46.1522130" lon="10.4547820">
	<ele>2629.00</ele>
	<time>2023-08-09T05:59:24.000Z</time>
</trkpt>
<trkpt lat="46.1522130" lon="10.4547830">
	<ele>2629.00</ele>
	<time>2023-08-09T05:59:25.000Z</time>
</trkpt>
<trkpt lat="46.1522140" lon="10.4547840">
	<ele>2629.00</ele>
	<time>2023-08-09T05:59:26.000Z</time>
</trkpt>
<trkpt lat="46.1522140" lon="10.4547850">
	<ele>2629.00</ele>
	<time>2023-08-09T05:59:27.000Z</time>
</trkpt>
<trkpt lat="46.1522150" lon="10.4547850">
	<ele>2629.00</ele>
	<time>2023-08-09T05:59:28.000Z</time>
</trkpt>
<trkpt lat="46.1522150" lon="10.4547860">
	<ele>2629.00</ele>
	<time>2023-08-09T05:59:29.000Z</time>
</trkpt>
<trkpt lat="46.1522160" lon="10.4547870">
	<ele>2628.80</ele>
	<time>2023-08-09T05:59:30.000Z</time>
</trkpt>
<trkpt lat="46.1522160" lon="10.4547870">
	<ele>2628.80</ele>
	<time>2023-08-09T05:59:31.000Z</time>
</trkpt>
<trkpt lat="46.1522170" lon="10.4547880">
	<ele>2628.60</ele>
	<time>2023-08-09T05:59:32.000Z</time>
</trkpt>
<trkpt lat="46.1522170" lon="10.4547880">
	<ele>2628.40</ele>
	<time>2023-08-09T05:59:33.000Z</time>
</trkpt>
<trkpt lat="46.1522180" lon="10.4547890">
	<ele>2628.40</ele>
	<time>2023-08-09T05:59:34.000Z</time>
</trkpt>
<trkpt lat="46.1522190" lon="10.4547900">
	<ele>2628.40</ele>
	<time>2023-08-09T05:59:35.000Z</time>
</trkpt>
<trkpt lat="46.1522190" lon="10.4547900">
	<ele>2628.40</ele>
	<time>2023-08-09T05:59:36.000Z</time>
</trkpt>
<trkpt lat="46.1522200" lon="10.4547910">
	<ele>2628.40</ele>
	<time>2023-08-09T05:59:37.000Z</time>
</trkpt>
<trkpt lat="46.1522200" lon="10.4547920">
	<ele>2628.40</ele>
	<time>2023-08-09T05:59:38.000Z</time>
</trkpt>
<trkpt lat="46.1522210" lon="10.4547920">
	<ele>2628.40</ele>
	<time>2023-08-09T05:59:39.000Z</time>
</trkpt>
<trkpt lat="46.1522220" lon="10.4547930">
	<ele>2628.60</ele>
	<time>2023-08-09T05:59:40.000Z</time>
</trkpt>
<trkpt lat="46.1522220" lon="10.4547940">
	<ele>2628.60</ele>
	<time>2023-08-09T05:59:41.000Z</time>
</trkpt>
<trkpt lat="46.1522230" lon="10.4547940">
	<ele>2628.60</ele>
	<time>2023-08-09T05:59:42.000Z</time>
</trkpt>
<trkpt lat="46.1522230" lon="10.4547950">
	<ele>2628.80</ele>
	<time>2023-08-09T05:59:43.000Z</time>
</trkpt>
<trkpt lat="46.1522240" lon="10.4547960">
	<ele>2628.80</ele>
	<time>2023-08-09T05:59:44.000Z</time>
</trkpt>
<trkpt lat="46.1522250" lon="10.4547960">
	<ele>2628.80</ele>
	<time>2023-08-09T05:59:45.000Z</time>
</trkpt>
<trkpt lat="46.1522250" lon="10.4547970">
	<ele>2629.00</ele>
	<time>2023-08-09T05:59:46.000Z</time>
</trkpt>
<trkpt lat="46.1522260" lon="10.4547980">
	<ele>2629.00</ele>
	<time>2023-08-09T05:59:47.000Z</time>
</trkpt>
<trkpt lat="46.1522260" lon="10.4547980">
	<ele>2629.00</ele>
	<time>2023-08-09T05:59:48.000Z</time>
</trkpt>
<trkpt lat="46.1522270" lon="10.4547990">
	<ele>2628.80</ele>
	<time>2023-08-09T05:59:49.000Z</time>
</trkpt>
<trkpt lat="46.1522270" lon="10.4548000">
	<ele>2628.80</ele>
	<time>2023-08-09T05:59:50.000Z</time>
</trkpt>
<trkpt lat="46.1522280" lon="10.4548000">
	<ele>2628.80</ele>
	<time>2023-08-09T05:59:51.000Z</time>
</trkpt>
<trkpt lat="46.1522850" lon="10.4548690">
	<ele>2628.80</ele>
	<time>2023-08-09T05:59:52.000Z</time>
</trkpt>
<trkpt lat="46.1523460" lon="10.4549390">
	<ele>2628.80</ele>
	<time>2023-08-09T05:59:53.000Z</time>
</trkpt>
<trkpt lat="46.1524050" lon="10.4550110">
	<ele>2628.80</ele>
	<time>2023-08-09T05:59:54.000Z</time>
</trkpt>
<trkpt lat="46.1524670" lon="10.4550870">
	<ele>2628.60</ele>
	<time>2023-08-09T05:59:55.000Z</time>
</trkpt>
<trkpt lat="46.1525270" lon="10.4551620">
	<ele>2628.60</ele>
	<time>2023-08-09T05:59:56.000Z</time>
</trkpt>
<trkpt lat="46.1525880" lon="10.4552390">
	<ele>2628.60</ele>
	<time>2023-08-09T05:59:57.000Z</time>
</trkpt>
<trkpt lat="46.1526490" lon="10.4553150">
	<ele>2628.80</ele>
	<time>2023-08-09T05:59:58.000Z</time>
</trkpt>
<trkpt lat="46.1527080" lon="10.4553900">
	<ele>2628.80</ele>
	<time>2023-08-09T05:59:59.000Z</time>
</trkpt>
<trkpt lat="46.1527670" lon="10.4554680">
	<ele>2628.60</ele>
	<time>2023-08-09T06:00:00.000Z</time>
</trkpt>
<trkpt lat="46.1528250" lon="10.4555420">
	<ele>2628.60</ele>
	<time>2023-08-09T06:00:01.000Z</time>
</trkpt>
<trkpt lat="46.1528260" lon="10.4555480">
	<ele>2628.60</ele>
	<time>2023-08-09T06:00:02.000Z</time>
</trkpt>
<trkpt lat="46.1528280" lon="10.4555560">
	<ele>2628.60</ele>
	<time>2023-08-09T06:00:03.000Z</time>
</trkpt>
<trkpt lat="46.1528300" lon="10.4555660">
	<ele>2628.60</ele>
	<time>2023-08-09T06:00:04.000Z</time>
</trkpt>
<trkpt lat="46.1528330" lon="10.4555790">
	<ele>2628.60</ele>
	<time>2023-08-09T06:00:05.000Z</time>
</trkpt>
<trkpt lat="46.1528350" lon="10.4555910">
	<ele>2628.40</ele>
	<time>2023-08-09T06:00:06.000Z</time>
</trkpt>
<trkpt lat="46.1528350" lon="10.4555980">
	<ele>2628.40</ele>
	<time>2023-08-09T06:00:07.000Z</time>
</trkpt>
<trkpt lat="46.1528370" lon="10.4556080">
	<ele>2628.40</ele>
	<time>2023-08-09T06:00:08.000Z</time>
</trkpt>
<trkpt lat="46.1528400" lon="10.4556180">
	<ele>2628.40</ele>
	<time>2023-08-09T06:00:09.000Z</time>
</trkpt>
<trkpt lat="46.1528430" lon="10.4556220">
	<ele>2628.40</ele>
	<time>2023-08-09T06:00:10.000Z</time>
</trkpt>
<trkpt lat="46.1528470" lon="10.4556270">
	<ele>2628.40</ele>
	<time>2023-08-09T06:00:11.000Z</time>
</trkpt>
<trkpt lat="46.1528520" lon="10.4556320">
	<ele>2628.40</ele>
	<time>2023-08-09T06:00:12.000Z</time>
</trkpt>
<trkpt lat="46.1528550" lon="10.4556370">
	<ele>2628.60</ele>
	<time>2023-08-09T06:00:13.000Z</time>
</trkpt>
<trkpt lat="46.1528580" lon="10.4556420">
	<ele>2628.60</ele>
	<time>2023-08-09T06:00:14.000Z</time>
</trkpt>
<trkpt lat="46.1528590" lon="10.4556490">
	<ele>2628.80</ele>
	<time>2023-08-09T06:00:15.000Z</time>
</trkpt>
<trkpt lat="46.1528590" lon="10.4556580">
	<ele>2628.80</ele>
	<time>2023-08-09T06:00:16.000Z</time>
</trkpt>
<trkpt lat="46.1528590" lon="10.4556660">
	<ele>2628.80</ele>
	<time>2023-08-09T06:00:17.000Z</time>
</trkpt>
<trkpt lat="46.1528610" lon="10.4556700">
	<ele>2628.80</ele>
	<time>2023-08-09T06:00:18.000Z</time>
</trkpt>
<trkpt lat="46.1528650" lon="10.4556770">
	<ele>2629.20</ele>
	<time>2023-08-09T06:00:19.000Z</time>
</trkpt>
<trkpt lat="46.1528670" lon="10.4556850">
	<ele>2629.20</ele>
	<time>2023-08-09T06:00:20.000Z</time>
</trkpt>
<trkpt lat="46.1528700" lon="10.4556940">
	<ele>2629.20</ele>
	<time>2023-08-09T06:00:21.000Z</time>
</trkpt>
<trkpt lat="46.1528750" lon="10.4557030">
	<ele>2629.20</ele>
	<time>2023-08-09T06:00:22.000Z</time>
</trkpt>
<trkpt lat="46.1528770" lon="10.4557120">
	<ele>2629.20</ele>
	<time>2023-08-09T06:00:23.000Z</time>
</trkpt>
<trkpt lat="46.1528770" lon="10.4557230">
	<ele>2629.20</ele>
	<time>2023-08-09T06:00:24.000Z</time>
</trkpt>
<trkpt lat="46.1528770" lon="10.4557320">
	<ele>2629.20</ele>
	<time>2023-08-09T06:00:25.000Z</time>
</trkpt>
<trkpt lat="46.1528780" lon="10.4557390">
	<ele>2629.20</ele>
	<time>2023-08-09T06:00:26.000Z</time>
</trkpt>
<trkpt lat="46.1528770" lon="10.4557530">
	<ele>2629.20</ele>
	<time>2023-08-09T06:00:27.000Z</time>
</trkpt>
<trkpt lat="46.1528780" lon="10.4557670">
	<ele>2629.20</ele>
	<time>2023-08-09T06:00:28.000Z</time>
</trkpt>
<trkpt lat="46.1528810" lon="10.4557770">
	<ele>2629.20</ele>
	<time>2023-08-09T06:00:29.000Z</time>
</trkpt>
<trkpt lat="46.1528840" lon="10.4557800">
	<ele>2629.20</ele>
	<time>2023-08-09T06:00:30.000Z</time>
</trkpt>
<trkpt lat="46.1528860" lon="10.4557830">
	<ele>2629.20</ele>
	<time>2023-08-09T06:00:31.000Z</time>
</trkpt>
<trkpt lat="46.1528900" lon="10.4557890">
	<ele>2629.20</ele>
	<time>2023-08-09T06:00:32.000Z</time>
</trkpt>
<trkpt lat="46.1528930" lon="10.4557920">
	<ele>2629.20</ele>
	<time>2023-08-09T06:00:33.000Z</time>
</trkpt>
<trkpt lat="46.1528950" lon="10.4557950">
	<ele>2629.20</ele>
	<time>2023-08-09T06:00:34.000Z</time>
</trkpt>
<trkpt lat="46.1528970" lon="10.4557960">
	<ele>2629.20</ele>
	<time>2023-08-09T06:00:35.000Z</time>
</trkpt>
<trkpt lat="46.1529020" lon="10.4557950">
	<ele>2629.20</ele>
	<time>2023-08-09T06:00:36.000Z</time>
</trkpt>
<trkpt lat="46.1529060" lon="10.4557950">
	<ele>2629.20</ele>
	<time>2023-08-09T06:00:37.000Z</time>
</trkpt>
<trkpt lat="46.1529060" lon="10.4557890">
	<ele>2629.20</ele>
	<time>2023-08-09T06:00:38.000Z</time>
</trkpt>
<trkpt lat="46.1529080" lon="10.4557860">
	<ele>2629.20</ele>
	<time>2023-08-09T06:00:39.000Z</time>
</trkpt>
<trkpt lat="46.1529090" lon="10.4557830">
	<ele>2629.20</ele>
	<time>2023-08-09T06:00:40.000Z</time>
</trkpt>
<trkpt lat="46.1529100" lon="10.4557790">
	<ele>2629.20</ele>
	<time>2023-08-09T06:00:41.000Z</time>
</trkpt>
<trkpt lat="46.1529080" lon="10.4557710">
	<ele>2629.20</ele>
	<time>2023-08-09T06:00:42.000Z</time>
</trkpt>
<trkpt lat="46.1529070" lon="10.4557660">
	<ele>2629.20</ele>
	<time>2023-08-09T06:00:43.000Z</time>
</trkpt>
<trkpt lat="46.1529060" lon="10.4557640">
	<ele>2629.20</ele>
	<time>2023-08-09T06:00:44.000Z</time>
</trkpt>
<trkpt lat="46.1529060" lon="10.4557570">
	<ele>2629.20</ele>
	<time>2023-08-09T06:00:45.000Z</time>
</trkpt>
<trkpt lat="46.1529070" lon="10.4557500">
	<ele>2629.20</ele>
	<time>2023-08-09T06:00:46.000Z</time>
</trkpt>
<trkpt lat="46.1529090" lon="10.4557450">
	<ele>2629.20</ele>
	<time>2023-08-09T06:00:47.000Z</time>
</trkpt>
<trkpt lat="46.1529090" lon="10.4557390">
	<ele>2629.20</ele>
	<time>2023-08-09T06:00:48.000Z</time>
</trkpt>
<trkpt lat="46.1529110" lon="10.4557360">
	<ele>2629.20</ele>
	<time>2023-08-09T06:00:49.000Z</time>
</trkpt>
<trkpt lat="46.1529110" lon="10.4557240">
	<ele>2629.20</ele>
	<time>2023-08-09T06:00:50.000Z</time>
</trkpt>
<trkpt lat="46.1529130" lon="10.4557170">
	<ele>2629.20</ele>
	<time>2023-08-09T06:00:51.000Z</time>
</trkpt>
<trkpt lat="46.1529150" lon="10.4557060">
	<ele>2629.20</ele>
	<time>2023-08-09T06:00:52.000Z</time>
</trkpt>
<trkpt lat="46.1529160" lon="10.4557040">
	<ele>2629.20</ele>
	<time>2023-08-09T06:00:53.000Z</time>
</trkpt>
<trkpt lat="46.1529140" lon="10.4556980">
	<ele>2629.20</ele>
	<time>2023-08-09T06:00:54.000Z</time>
</trkpt>
<trkpt lat="46.1529160" lon="10.4556980">
	<ele>2629.20</ele>
	<time>2023-08-09T06:00:55.000Z</time>
</trkpt>
<trkpt lat="46.1529180" lon="10.4556970">
	<ele>2629.20</ele>
	<time>2023-08-09T06:00:56.000Z</time>
</trkpt>
<trkpt lat="46.1529190" lon="10.4557030">
	<ele>2629.20</ele>
	<time>2023-08-09T06:00:57.000Z</time>
</trkpt>
<trkpt lat="46.1529240" lon="10.4557060">
	<ele>2629.20</ele>
	<time>2023-08-09T06:00:58.000Z</time>
</trkpt>
<trkpt lat="46.1529280" lon="10.4557040">
	<ele>2629.20</ele>
	<time>2023-08-09T06:00:59.000Z</time>
</trkpt>
<trkpt lat="46.1529300" lon="10.4557020">
	<ele>2629.20</ele>
	<time>2023-08-09T06:01:00.000Z</time>
</trkpt>
<trkpt lat="46.1529310" lon="10.4557030">
	<ele>2629.20</ele>
	<time>2023-08-09T06:01:01.000Z</time>
</trkpt>
<trkpt lat="46.1529340" lon="10.4557040">
	<ele>2629.20</ele>
	<time>2023-08-09T06:01:02.000Z</time>
</trkpt>
<trkpt lat="46.1529420" lon="10.4557030">
	<ele>2629.20</ele>
	<time>2023-08-09T06:01:03.000Z</time>
</trkpt>
<trkpt lat="46.1529490" lon="10.4557040">
	<ele>2629.20</ele>
	<time>2023-08-09T06:01:04.000Z</time>
</trkpt>
<trkpt lat="46.1529570" lon="10.4557070">
	<ele>2629.20</ele>
	<time>2023-08-09T06:01:05.000Z</time>
</trkpt>
<trkpt lat="46.1529620" lon="10.4557140">
	<ele>2629.20</ele>
	<time>2023-08-09T06:01:06.000Z</time>
</trkpt>
<trkpt lat="46.1529640" lon="10.4557210">
	<ele>2629.20</ele>
	<time>2023-08-09T06:01:07.000Z</time>
</trkpt>
<trkpt lat="46.1529650" lon="10.4557270">
	<ele>2629.20</ele>
	<time>2023-08-09T06:01:08.000Z</time>
</trkpt>
<trkpt lat="46.1529690" lon="10.4557330">
	<ele>2629.20</ele>
	<time>2023-08-09T06:01:09.000Z</time>
</trkpt>
<trkpt lat="46.1529730" lon="10.4557420">
	<ele>2629.20</ele>
	<time>2023-08-09T06:01:10.000Z</time>
</trkpt>
<trkpt lat="46.1529750" lon="10.4557500">
	<ele>2629.20</ele>
	<time>2023-08-09T06:01:11.000Z</time>
</trkpt>
<trkpt lat="46.1529780" lon="10.4557560">
	<ele>2629.20</ele>
	<time>2023-08-09T06:01:12.000Z</time>
</trkpt>
<trkpt lat="46.1529790" lon="10.4557610">
	<ele>2629.20</ele>
	<time>2023-08-09T06:01:13.000Z</time>
</trkpt>
<trkpt lat="46.1529800" lon="10.4557650">
	<ele>2629.20</ele>
	<time>2023-08-09T06:01:14.000Z</time>
</trkpt>
<trkpt lat="46.1529810" lon="10.4557700">
	<ele>2629.20</ele>
	<time>2023-08-09T06:01:15.000Z</time>
</trkpt>
<trkpt lat="46.1529870" lon="10.4557790">
	<ele>2629.20</ele>
	<time>2023-08-09T06:01:16.000Z</time>
</trkpt>
<trkpt lat="46.1529890" lon="10.4557860">
	<ele>2629.20</ele>
	<time>2023-08-09T06:01:17.000Z</time>
</trkpt>
<trkpt lat="46.1529900" lon="10.4557930">
	<ele>2629.20</ele>
	<time>2023-08-09T06:01:18.000Z</time>
</trkpt>
<trkpt lat="46.1529910" lon="10.4557970">
	<ele>2629.20</ele>
	<time>2023-08-09T06:01:19.000Z</time>
</trkpt>
<trkpt lat="46.1529960" lon="10.4558020">
	<ele>2635.80</ele>
	<time>2023-08-09T06:01:20.000Z</time>
</trkpt>
<trkpt lat="46.1529990" lon="10.4558050">
	<ele>2635.80</ele>
	<time>2023-08-09T06:01:21.000Z</time>
</trkpt>
<trkpt lat="46.1530020" lon="10.4558050">
	<ele>2635.80</ele>
	<time>2023-08-09T06:01:22.000Z</time>
</trkpt>
<trkpt lat="46.1530040" lon="10.4558060">
	<ele>2635.80</ele>
	<time>2023-08-09T06:01:23.000Z</time>
</trkpt>
<trkpt lat="46.1530100" lon="10.4558030">
	<ele>2635.80</ele>
	<time>2023-08-09T06:01:24.000Z</time>
</trkpt>
<trkpt lat="46.1530120" lon="10.4558050">
	<ele>2635.80</ele>
	<time>2023-08-09T06:01:25.000Z</time>
</trkpt>
<trkpt lat="46.1530160" lon="10.4558080">
	<ele>2635.80</ele>
	<time>2023-08-09T06:01:26.000Z</time>
</trkpt>
<trkpt lat="46.1530200" lon="10.4558120">
	<ele>2636.00</ele>
	<time>2023-08-09T06:01:27.000Z</time>
</trkpt>
<trkpt lat="46.1530240" lon="10.4558150">
	<ele>2636.00</ele>
	<time>2023-08-09T06:01:28.000Z</time>
</trkpt>
<trkpt lat="46.1530280" lon="10.4558220">
	<ele>2636.00</ele>
	<time>2023-08-09T06:01:29.000Z</time>
</trkpt>
<trkpt lat="46.1530320" lon="10.4558240">
	<ele>2636.20</ele>
	<time>2023-08-09T06:01:30.000Z</time>
</trkpt>
<trkpt lat="46.1530370" lon="10.4558260">
	<ele>2636.20</ele>
	<time>2023-08-09T06:01:31.000Z</time>
</trkpt>
<trkpt lat="46.1530430" lon="10.4558320">
	<ele>2636.20</ele>
	<time>2023-08-09T06:01:32.000Z</time>
</trkpt>
<trkpt lat="46.1530500" lon="10.4558400">
	<ele>2636.20</ele>
	<time>2023-08-09T06:01:33.000Z</time>
</trkpt>
<trkpt lat="46.1530540" lon="10.4558390">
	<ele>2636.40</ele>
	<time>2023-08-09T06:01:34.000Z</time>
</trkpt>
<trkpt lat="46.1530560" lon="10.4558400">
	<ele>2636.40</ele>
	<time>2023-08-09T06:01:35.000Z</time>
</trkpt>
<trkpt lat="46.1530590" lon="10.4558480">
	<ele>2636.40</ele>
	<time>2023-08-09T06:01:36.000Z</time>
</trkpt>
<trkpt lat="46.1530580" lon="10.4558540">
	<ele>2636.40</ele>
	<time>2023-08-09T06:01:37.000Z</time>
</trkpt>
<trkpt lat="46.1530580" lon="10.4558640">
	<ele>2636.40</ele>
	<time>2023-08-09T06:01:38.000Z</time>
</trkpt>
<trkpt lat="46.1530600" lon="10.4558750">
	<ele>2636.60</ele>
	<time>2023-08-09T06:01:39.000Z</time>
</trkpt>
<trkpt lat="46.1530640" lon="10.4558860">
	<ele>2636.60</ele>
	<time>2023-08-09T06:01:40.000Z</time>
</trkpt>
<trkpt lat="46.1530650" lon="10.4558940">
	<ele>2636.60</ele>
	<time>2023-08-09T06:01:41.000Z</time>
</trkpt>
<trkpt lat="46.1530660" lon="10.4559010">
	<ele>2636.80</ele>
	<time>2023-08-09T06:01:42.000Z</time>
</trkpt>
<trkpt lat="46.1530690" lon="10.4559090">
	<ele>2637.00</ele>
	<time>2023-08-09T06:01:43.000Z</time>
</trkpt>
<trkpt lat="46.1530720" lon="10.4559200">
	<ele>2637.20</ele>
	<time>2023-08-09T06:01:44.000Z</time>
</trkpt>
<trkpt lat="46.1530790" lon="10.4559290">
	<ele>2637.20</ele>
	<time>2023-08-09T06:01:45.000Z</time>
</trkpt>
<trkpt lat="46.1530860" lon="10.4559370">
	<ele>2637.20</ele>
	<time>2023-08-09T06:01:46.000Z</time>
</trkpt>
<trkpt lat="46.1530930" lon="10.4559460">
	<ele>2637.20</ele>
	<time>2023-08-09T06:01:47.000Z</time>
</trkpt>
<trkpt lat="46.1530970" lon="10.4559570">
	<ele>2637.20</ele>
	<time>2023-08-09T06:01:48.000Z</time>
</trkpt>
<trkpt lat="46.1530990" lon="10.4559650">
	<ele>2637.40</ele>
	<time>2023-08-09T06:01:49.000Z</time>
</trkpt>
<trkpt lat="46.1531040" lon="10.4559730">
	<ele>2637.40</ele>
	<time>2023-08-09T06:01:50.000Z</time>
</trkpt>
<trkpt lat="46.1531060" lon="10.4559810">
	<ele>2637.40</ele>
	<time>2023-08-09T06:01:51.000Z</time>
</trkpt>
<trkpt lat="46.1531040" lon="10.4559870">
	<ele>2637.40</ele>
	<time>2023-08-09T06:01:52.000Z</time>
</trkpt>
<trkpt lat="46.1531030" lon="10.4559910">
	<ele>2637.60</ele>
	<time>2023-08-09T06:01:53.000Z</time>
</trkpt>
<trkpt lat="46.1531090" lon="10.4559990">
	<ele>2637.60</ele>
	<time>2023-08-09T06:01:54.000Z</time>
</trkpt>
<trkpt lat="46.1531100" lon="10.4560050">
	<ele>2637.60</ele>
	<time>2023-08-09T06:01:55.000Z</time>
</trkpt>
<trkpt lat="46.1531120" lon="10.4560080">
	<ele>2637.80</ele>
	<time>2023-08-09T06:01:56.000Z</time>
</trkpt>
<trkpt lat="46.1531120" lon="10.4560140">
	<ele>2637.80</ele>
	<time>2023-08-09T06:01:57.000Z</time>
</trkpt>
<trkpt lat="46.1531320" lon="10.4560120">
	<ele>2637.80</ele>
	<time>2023-08-09T06:01:58.000Z</time>
</trkpt>
<trkpt lat="46.1531350" lon="10.4560180">
	<ele>2637.80</ele>
	<time>2023-08-09T06:01:59.000Z</time>
</trkpt>
<trkpt lat="46.1531400" lon="10.4560240">
	<ele>2637.80</ele>
	<time>2023-08-09T06:02:00.000Z</time>
</trkpt>
<trkpt lat="46.1531420" lon="10.4560330">
	<ele>2638.00</ele>
	<time>2023-08-09T06:02:01.000Z</time>
</trkpt>
<trkpt lat="46.1531380" lon="10.4560380">
	<ele>2638.00</ele>
	<time>2023-08-09T06:02:02.000Z</time>
</trkpt>
<trkpt lat="46.1531420" lon="10.4560420">
	<ele>2638.00</ele>
	<time>2023-08-09T06:02:03.000Z</time>
</trkpt>
<trkpt lat="46.1531430" lon="10.4560420">
	<ele>2638.20</ele>
	<time>2023-08-09T06:02:04.000Z</time>
</trkpt>
<trkpt lat="46.1531430" lon="10.4560430">
	<ele>2638.20</ele>
	<time>2023-08-09T06:02:05.000Z</time>
</trkpt>
<trkpt lat="46.1531430" lon="10.4560430">
	<ele>2638.20</ele>
	<time>2023-08-09T06:02:06.000Z</time>
</trkpt>
<trkpt lat="46.1531440" lon="10.4560440">
	<ele>2638.20</ele>
	<time>2023-08-09T06:02:07.000Z</time>
</trkpt>
<trkpt lat="46.1531430" lon="10.4560440">
	<ele>2638.20</ele>
	<time>2023-08-09T06:02:08.000Z</time>
</trkpt>
<trkpt lat="46.1531450" lon="10.4560450">
	<ele>2638.20</ele>
	<time>2023-08-09T06:02:09.000Z</time>
</trkpt>
<trkpt lat="46.1531460" lon="10.4560480">
	<ele>2638.20</ele>
	<time>2023-08-09T06:02:10.000Z</time>
</trkpt>
<trkpt lat="46.1531440" lon="10.4560510">
	<ele>2638.20</ele>
	<time>2023-08-09T06:02:11.000Z</time>
</trkpt>
<trkpt lat="46.1531440" lon="10.4560570">
	<ele>2638.20</ele>
	<time>2023-08-09T06:02:12.000Z</time>
</trkpt>
<trkpt lat="46.1531450" lon="10.4560630">
	<ele>2638.20</ele>
	<time>2023-08-09T06:02:13.000Z</time>
</trkpt>
<trkpt lat="46.1531460" lon="10.4560710">
	<ele>2638.20</ele>
	<time>2023-08-09T06:02:14.000Z</time>
</trkpt>
<trkpt lat="46.1531480" lon="10.4560760">
	<ele>2638.20</ele>
	<time>2023-08-09T06:02:15.000Z</time>
</trkpt>
<trkpt lat="46.1531480" lon="10.4560790">
	<ele>2638.20</ele>
	<time>2023-08-09T06:02:16.000Z</time>
</trkpt>
<trkpt lat="46.1531490" lon="10.4560790">
	<ele>2638.40</ele>
	<time>2023-08-09T06:02:17.000Z</time>
</trkpt>
<trkpt lat="46.1531490" lon="10.4560790">
	<ele>2638.40</ele>
	<time>2023-08-09T06:02:18.000Z</time>
</trkpt>
<trkpt lat="46.1531490" lon="10.4560790">
	<ele>2638.40</ele>
	<time>2023-08-09T06:02:19.000Z</time>
</trkpt>
<trkpt lat="46.1531490" lon="10.4560790">
	<ele>2638.60</ele>
	<time>2023-08-09T06:02:20.000Z</time>
</trkpt>
<trkpt lat="46.1531490" lon="10.4560790">
	<ele>2638.60</ele>
	<time>2023-08-09T06:02:21.000Z</time>
</trkpt>
<trkpt lat="46.1531490" lon="10.4560790">
	<ele>2638.60</ele>
	<time>2023-08-09T06:02:22.000Z</time>
</trkpt>
<trkpt lat="46.1531490" lon="10.4560790">
	<ele>2638.60</ele>
	<time>2023-08-09T06:02:23.000Z</time>
</trkpt>
<trkpt lat="46.1531490" lon="10.4560790">
	<ele>2638.80</ele>
	<time>2023-08-09T06:02:24.000Z</time>
</trkpt>
<trkpt lat="46.1531490" lon="10.4560790">
	<ele>2638.80</ele>
	<time>2023-08-09T06:02:25.000Z</time>
</trkpt>
<trkpt lat="46.1531490" lon="10.4560790">
	<ele>2638.80</ele>
	<time>2023-08-09T06:02:26.000Z</time>
</trkpt>
<trkpt lat="46.1531490" lon="10.4560790">
	<ele>2639.00</ele>
	<time>2023-08-09T06:02:27.000Z</time>
</trkpt>
<trkpt lat="46.1531490" lon="10.4560790">
	<ele>2639.00</ele>
	<time>2023-08-09T06:02:28.000Z</time>
</trkpt>
<trkpt lat="46.1531490" lon="10.4560790">
	<ele>2639.00</ele>
	<time>2023-08-09T06:02:29.000Z</time>
</trkpt>
<trkpt lat="46.1531490" lon="10.4560790">
	<ele>2639.00</ele>
	<time>2023-08-09T06:02:30.000Z</time>
</trkpt>
<trkpt lat="46.1531490" lon="10.4560790">
	<ele>2639.00</ele>
	<time>2023-08-09T06:02:31.000Z</time>
</trkpt>
<trkpt lat="46.1531490" lon="10.4560790">
	<ele>2639.00</ele>
	<time>2023-08-09T06:02:32.000Z</time>
</trkpt>
<trkpt lat="46.1531510" lon="10.4560810">
	<ele>2639.20</ele>
	<time>2023-08-09T06:02:33.000Z</time>
</trkpt>
<trkpt lat="46.1531540" lon="10.4560870">
	<ele>2639.20</ele>
	<time>2023-08-09T06:02:34.000Z</time>
</trkpt>
<trkpt lat="46.1531580" lon="10.4560920">
	<ele>2639.20</ele>
	<time>2023-08-09T06:02:35.000Z</time>
</trkpt>
<trkpt lat="46.1531620" lon="10.4560960">
	<ele>2639.20</ele>
	<time>2023-08-09T06:02:36.000Z</time>
</trkpt>
<trkpt lat="46.1531670" lon="10.4560980">
	<ele>2639.20</ele>
	<time>2023-08-09T06:02:37.000Z</time>
</trkpt>
<trkpt lat="46.1531700" lon="10.4560990">
	<ele>2639.20</ele>
	<time>2023-08-09T06:02:38.000Z</time>
</trkpt>
<trkpt lat="46.1531720" lon="10.4561010">
	<ele>2639.20</ele>
	<time>2023-08-09T06:02:39.000Z</time>
</trkpt>
<trkpt lat="46.1531790" lon="10.4561050">
	<ele>2639.20</ele>
	<time>2023-08-09T06:02:40.000Z</time>
</trkpt>
<trkpt lat="46.1531880" lon="10.4561060">
	<ele>2639.20</ele>
	<time>2023-08-09T06:02:41.000Z</time>
</trkpt>
<trkpt lat="46.1531950" lon="10.4561070">
	<ele>2639.20</ele>
	<time>2023-08-09T06:02:42.000Z</time>
</trkpt>
<trkpt lat="46.1532000" lon="10.4561090">
	<ele>2639.00</ele>
	<time>2023-08-09T06:02:43.000Z</time>
</trkpt>
<trkpt lat="46.1532040" lon="10.4561120">
	<ele>2639.00</ele>
	<time>2023-08-09T06:02:44.000Z</time>
</trkpt>
<trkpt lat="46.1532090" lon="10.4561230">
	<ele>2639.00</ele>
	<time>2023-08-09T06:02:45.000Z</time>
</trkpt>
<trkpt lat="46.1532170" lon="10.4561400">
	<ele>2638.80</ele>
	<time>2023-08-09T06:02:46.000Z</time>
</trkpt>
<trkpt lat="46.1532260" lon="10.4561590">
	<ele>2638.60</ele>
	<time>2023-08-09T06:02:47.000Z</time>
</trkpt>
<trkpt lat="46.1532330" lon="10.4561790">
	<ele>2638.40</ele>
	<time>2023-08-09T06:02:48.000Z</time>
</trkpt>
<trkpt lat="46.1532400" lon="10.4561990">
	<ele>2638.40</ele>
	<time>2023-08-09T06:02:49.000Z</time>
</trkpt>
<trkpt lat="46.1532470" lon="10.4562220">
	<ele>2638.40</ele>
	<time>2023-08-09T06:02:50.000Z</time>
</trkpt>
<trkpt lat="46.1532540" lon="10.4562400">
	<ele>2638.40</ele>
	<time>2023-08-09T06:02:51.000Z</time>
</trkpt>
<trkpt lat="46.1532620" lon="10.4562570">
	<ele>2638.40</ele>
	<time>2023-08-09T06:02:52.000Z</time>
</trkpt>
<trkpt lat="46.1532700" lon="10.4562700">
	<ele>2638.60</ele>
	<time>2023-08-09T06:02:53.000Z</time>
</trkpt>
<trkpt lat="46.1532790" lon="10.4562820">
	<ele>2638.60</ele>
	<time>2023-08-09T06:02:54.000Z</time>
</trkpt>
<trkpt lat="46.1532840" lon="10.4562830">
	<ele>2638.60</ele>
	<time>2023-08-09T06:02:55.000Z</time>
</trkpt>
<trkpt lat="46.1532890" lon="10.4562830">
	<ele>2638.80</ele>
	<time>2023-08-09T06:02:56.000Z</time>
</trkpt>
<trkpt lat="46.1532940" lon="10.4562840">
	<ele>2638.80</ele>
	<time>2023-08-09T06:02:57.000Z</time>
</trkpt>
<trkpt lat="46.1533010" lon="10.4562830">
	<ele>2639.00</ele>
	<time>2023-08-09T06:02:58.000Z</time>
</trkpt>
<trkpt lat="46.1533050" lon="10.4562830">
	<ele>2639.00</ele>
	<time>2023-08-09T06:02:59.000Z</time>
</trkpt>
<trkpt lat="46.1533090" lon="10.4562840">
	<ele>2639.20</ele>
	<time>2023-08-09T06:03:00.000Z</time>
</trkpt>
<trkpt lat="46.1533070" lon="10.4562840">
	<ele>2639.40</ele>
	<time>2023-08-09T06:03:01.000Z</time>
</trkpt>
<trkpt lat="46.1533120" lon="10.4562880">
	<ele>2639.40</ele>
	<time>2023-08-09T06:03:02.000Z</time>
</trkpt>
<trkpt lat="46.1533160" lon="10.4562930">
	<ele>2639.60</ele>
	<time>2023-08-09T06:03:03.000Z</time>
</trkpt>
<trkpt lat="46.1533210" lon="10.4563000">
	<ele>2639.60</ele>
	<time>2023-08-09T06:03:04.000Z</time>
</trkpt>
<trkpt lat="46.1533240" lon="10.4563030">
	<ele>2639.80</ele>
	<time>2023-08-09T06:03:05.000Z</time>
</trkpt>
<trkpt lat="46.1533290" lon="10.4563030">
	<ele>2639.80</ele>
	<time>2023-08-09T06:03:06.000Z</time>
</trkpt>
<trkpt lat="46.1533330" lon="10.4563060">
	<ele>2639.80</ele>
	<time>2023-08-09T06:03:07.000Z</time>
</trkpt>
<trkpt lat="46.1533350" lon="10.4563090">
	<ele>2640.00</ele>
	<time>2023-08-09T06:03:08.000Z</time>
</trkpt>
<trkpt lat="46.1533380" lon="10.4563090">
	<ele>2640.00</ele>
	<time>2023-08-09T06:03:09.000Z</time>
</trkpt>
<trkpt lat="46.1533420" lon="10.4563180">
	<ele>2640.00</ele>
	<time>2023-08-09T06:03:10.000Z</time>
</trkpt>
<trkpt lat="46.1533440" lon="10.4563230">
	<ele>2640.20</ele>
	<time>2023-08-09T06:03:11.000Z</time>
</trkpt>
<trkpt lat="46.1533460" lon="10.4563260">
	<ele>2640.20</ele>
	<time>2023-08-09T06:03:12.000Z</time>
</trkpt>
<trkpt lat="46.1533510" lon="10.4563320">
	<ele>2640.20</ele>
	<time>2023-08-09T06:03:13.000Z</time>
</trkpt>
<trkpt lat="46.1533550" lon="10.4563380">
	<ele>2640.40</ele>
	<time>2023-08-09T06:03:14.000Z</time>
</trkpt>
<trkpt lat="46.1533580" lon="10.4563450">
	<ele>2640.40</ele>
	<time>2023-08-09T06:03:15.000Z</time>
</trkpt>
<trkpt lat="46.1533590" lon="10.4563480">
	<ele>2640.60</ele>
	<time>2023-08-09T06:03:16.000Z</time>
</trkpt>
<trkpt lat="46.1533610" lon="10.4563520">
	<ele>2640.60</ele>
	<time>2023-08-09T06:03:17.000Z</time>
</trkpt>
<trkpt lat="46.1533640" lon="10.4563550">
	<ele>2640.80</ele>
	<time>2023-08-09T06:03:18.000Z</time>
</trkpt>
<trkpt lat="46.1533700" lon="10.4563620">
	<ele>2640.80</ele>
	<time>2023-08-09T06:03:19.000Z</time>
</trkpt>
<trkpt lat="46.1533750" lon="10.4563670">
	<ele>2640.80</ele>
	<time>2023-08-09T06:03:20.000Z</time>
</trkpt>
<trkpt lat="46.1533780" lon="10.4563700">
	<ele>2641.00</ele>
	<time>2023-08-09T06:03:21.000Z</time>
</trkpt>
<trkpt lat="46.1533820" lon="10.4563730">
	<ele>2641.00</ele>
	<time>2023-08-09T06:03:22.000Z</time>
</trkpt>
<trkpt lat="46.1533850" lon="10.4563750">
	<ele>2641.20</ele>
	<time>2023-08-09T06:03:23.000Z</time>
</trkpt>
<trkpt lat="46.1533880" lon="10.4563790">
	<ele>2641.40</ele>
	<time>2023-08-09T06:03:24.000Z</time>
</trkpt>
<trkpt lat="46.1533910" lon="10.4563830">
	<ele>2641.40</ele>
	<time>2023-08-09T06:03:25.000Z</time>
</trkpt>
<trkpt lat="46.1533950" lon="10.4563870">
	<ele>2641.40</ele>
	<time>2023-08-09T06:03:26.000Z</time>
</trkpt>
<trkpt lat="46.1534020" lon="10.4563880">
	<ele>2641.60</ele>
	<time>2023-08-09T06:03:27.000Z</time>
</trkpt>
<trkpt lat="46.1534050" lon="10.4563910">
	<ele>2641.60</ele>
	<time>2023-08-09T06:03:28.000Z</time>
</trkpt>
<trkpt lat="46.1534090" lon="10.4563920">
	<ele>2641.60</ele>
	<time>2023-08-09T06:03:29.000Z</time>
</trkpt>
<trkpt lat="46.1534120" lon="10.4563940">
	<ele>2641.60</ele>
	<time>2023-08-09T06:03:30.000Z</time>
</trkpt>
<trkpt lat="46.1534150" lon="10.4563970">
	<ele>2641.80</ele>
	<time>2023-08-09T06:03:31.000Z</time>
</trkpt>
<trkpt lat="46.1534170" lon="10.4564000">
	<ele>2642.00</ele>
	<time>2023-08-09T06:03:32.000Z</time>
</trkpt>
<trkpt lat="46.1534220" lon="10.4564040">
	<ele>2642.40</ele>
	<time>2023-08-09T06:03:33.000Z</time>
</trkpt>
<trkpt lat="46.1534250" lon="10.4564090">
	<ele>2642.60</ele>
	<time>2023-08-09T06:03:34.000Z</time>
</trkpt>
<trkpt lat="46.1534260" lon="10.4564140">
	<ele>2642.60</ele>
	<time>2023-08-09T06:03:35.000Z</time>
</trkpt>
<trkpt lat="46.1534290" lon="10.4564220">
	<ele>2642.60</ele>
	<time>2023-08-09T06:03:36.000Z</time>
</trkpt>
<trkpt lat="46.1534320" lon="10.4564270">
	<ele>2642.60</ele>
	<time>2023-08-09T06:03:37.000Z</time>
</trkpt>
<trkpt lat="46.1534350" lon="10.4564330">
	<ele>2642.60</ele>
	<time>2023-08-09T06:03:38.000Z</time>
</trkpt>
<trkpt lat="46.1534390" lon="10.4564380">
	<ele>2642.60</ele>
	<time>2023-08-09T06:03:39.000Z</time>
</trkpt>
<trkpt lat="46.1534420" lon="10.4564380">
	<ele>2642.60</ele>
	<time>2023-08-09T06:03:40.000Z</time>
</trkpt>
<trkpt lat="46.1534450" lon="10.4564410">
	<ele>2642.60</ele>
	<time>2023-08-09T06:03:41.000Z</time>
</trkpt>
<trkpt lat="46.1534480" lon="10.4564440">
	<ele>2642.80</ele>
	<time>2023-08-09T06:03:42.000Z</time>
</trkpt>
<trkpt lat="46.1534520" lon="10.4564460">
	<ele>2642.80</ele>
	<time>2023-08-09T06:03:43.000Z</time>
</trkpt>
<trkpt lat="46.1534560" lon="10.4564470">
	<ele>2643.00</ele>
	<time>2023-08-09T06:03:44.000Z</time>
</trkpt>
<trkpt lat="46.1534600" lon="10.4564490">
	<ele>2643.20</ele>
	<time>2023-08-09T06:03:45.000Z</time>
</trkpt>
<trkpt lat="46.1534630" lon="10.4564510">
	<ele>2643.60</ele>
	<time>2023-08-09T06:03:46.000Z</time>
</trkpt>
<trkpt lat="46.1534680" lon="10.4564530">
	<ele>2643.60</ele>
	<time>2023-08-09T06:03:47.000Z</time>
</trkpt>
<trkpt lat="46.1534730" lon="10.4564570">
	<ele>2643.80</ele>
	<time>2023-08-09T06:03:48.000Z</time>
</trkpt>
<trkpt lat="46.1534770" lon="10.4564590">
	<ele>2643.80</ele>
	<time>2023-08-09T06:03:49.000Z</time>
</trkpt>
<trkpt lat="46.1534820" lon="10.4564630">
	<ele>2644.00</ele>
	<time>2023-08-09T06:03:50.000Z</time>
</trkpt>
<trkpt lat="46.1534850" lon="10.4564620">
	<ele>2644.20</ele>
	<time>2023-08-09T06:03:51.000Z</time>
</trkpt>
<trkpt lat="46.1534890" lon="10.4564600">
	<ele>2644.40</ele>
	<time>2023-08-09T06:03:52.000Z</time>
</trkpt>
<trkpt lat="46.1534900" lon="10.4564580">
	<ele>2644.60</ele>
	<time>2023-08-09T06:03:53.000Z</time>
</trkpt>
<trkpt lat="46.1534900" lon="10.4564560">
	<ele>2644.60</ele>
	<time>2023-08-09T06:03:54.000Z</time>
</trkpt>
<trkpt lat="46.1534920" lon="10.4564560">
	<ele>2644.80</ele>
	<time>2023-08-09T06:03:55.000Z</time>
</trkpt>
<trkpt lat="46.1534930" lon="10.4564580">
	<ele>2644.80</ele>
	<time>2023-08-09T06:03:56.000Z</time>
</trkpt>
<trkpt lat="46.1534930" lon="10.4564570">
	<ele>2644.80</ele>
	<time>2023-08-09T06:03:57.000Z</time>
</trkpt>
<trkpt lat="46.1534930" lon="10.4564570">
	<ele>2645.00</ele>
	<time>2023-08-09T06:03:58.000Z</time>
</trkpt>
<trkpt lat="46.1534920" lon="10.4564590">
	<ele>2645.00</ele>
	<time>2023-08-09T06:03:59.000Z</time>
</trkpt>
<trkpt lat="46.1534930" lon="10.4564580">
	<ele>2645.20</ele>
	<time>2023-08-09T06:04:00.000Z</time>
</trkpt>
<trkpt lat="46.1534930" lon="10.4564580">
	<ele>2645.40</ele>
	<time>2023-08-09T06:04:01.000Z</time>
</trkpt>
<trkpt lat="46.1534930" lon="10.4564580">
	<ele>2645.60</ele>
	<time>2023-08-09T06:04:02.000Z</time>
</trkpt>
<trkpt lat="46.1534930" lon="10.4564580">
	<ele>2645.60</ele>
	<time>2023-08-09T06:04:03.000Z</time>
</trkpt>
<trkpt lat="46.1534930" lon="10.4564580">
	<ele>2645.60</ele>
	<time>2023-08-09T06:04:04.000Z</time>
</trkpt>
<trkpt lat="46.1534930" lon="10.4564580">
	<ele>2645.60</ele>
	<time>2023-08-09T06:04:05.000Z</time>
</trkpt>
<trkpt lat="46.1534930" lon="10.4564580">
	<ele>2645.40</ele>
	<time>2023-08-09T06:04:06.000Z</time>
</trkpt>
<trkpt lat="46.1534930" lon="10.4564580">
	<ele>2645.40</ele>
	<time>2023-08-09T06:04:07.000Z</time>
</trkpt>
<trkpt lat="46.1534930" lon="10.4564580">
	<ele>2645.20</ele>
	<time>2023-08-09T06:04:08.000Z</time>
</trkpt>
<trkpt lat="46.1534930" lon="10.4564580">
	<ele>2645.20</ele>
	<time>2023-08-09T06:04:09.000Z</time>
</trkpt>
<trkpt lat="46.1534930" lon="10.4564580">
	<ele>2645.00</ele>
	<time>2023-08-09T06:04:10.000Z</time>
</trkpt>
<trkpt lat="46.1534920" lon="10.4564580">
	<ele>2645.00</ele>
	<time>2023-08-09T06:04:11.000Z</time>
</trkpt>
<trkpt lat="46.1534920" lon="10.4564580">
	<ele>2644.80</ele>
	<time>2023-08-09T06:04:12.000Z</time>
</trkpt>
<trkpt lat="46.1534920" lon="10.4564580">
	<ele>2644.80</ele>
	<time>2023-08-09T06:04:13.000Z</time>
</trkpt>
<trkpt lat="46.1534920" lon="10.4564580">
	<ele>2644.80</ele>
	<time>2023-08-09T06:04:14.000Z</time>
</trkpt>
<trkpt lat="46.1534920" lon="10.4564580">
	<ele>2644.80</ele>
	<time>2023-08-09T06:04:15.000Z</time>
</trkpt>
<trkpt lat="46.1534920" lon="10.4564580">
	<ele>2644.80</ele>
	<time>2023-08-09T06:04:16.000Z</time>
</trkpt>
<trkpt lat="46.1534910" lon="10.4564570">
	<ele>2644.80</ele>
	<time>2023-08-09T06:04:17.000Z</time>
</trkpt>
<trkpt lat="46.1534910" lon="10.4564570">
	<ele>2645.00</ele>
	<time>2023-08-09T06:04:18.000Z</time>
</trkpt>
<trkpt lat="46.1534910" lon="10.4564570">
	<ele>2645.00</ele>
	<time>2023-08-09T06:04:19.000Z</time>
</trkpt>
<trkpt lat="46.1534910" lon="10.4564570">
	<ele>2645.20</ele>
	<time>2023-08-09T06:04:20.000Z</time>
</trkpt>
<trkpt lat="46.1534910" lon="10.4564570">
	<ele>2645.40</ele>
	<time>2023-08-09T06:04:21.000Z</time>
</trkpt>
<trkpt lat="46.1534910" lon="10.4564570">
	<ele>2645.40</ele>
	<time>2023-08-09T06:04:22.000Z</time>
</trkpt>
<trkpt lat="46.1534920" lon="10.4564570">
	<ele>2645.60</ele>
	<time>2023-08-09T06:04:23.000Z</time>
</trkpt>
<trkpt lat="46.1534920" lon="10.4564570">
	<ele>2645.60</ele>
	<time>2023-08-09T06:04:24.000Z</time>
</trkpt>
<trkpt lat="46.1534920" lon="10.4564570">
	<ele>2645.80</ele>
	<time>2023-08-09T06:04:25.000Z</time>
</trkpt>
<trkpt lat="46.1534920" lon="10.4564570">
	<ele>2645.80</ele>
	<time>2023-08-09T06:04:26.000Z</time>
</trkpt>
<trkpt lat="46.1534920" lon="10.4564570">
	<ele>2645.80</ele>
	<time>2023-08-09T06:04:27.000Z</time>
</trkpt>
<trkpt lat="46.1534920" lon="10.4564570">
	<ele>2646.00</ele>
	<time>2023-08-09T06:04:28.000Z</time>
</trkpt>
<trkpt lat="46.1534920" lon="10.4564560">
	<ele>2646.00</ele>
	<time>2023-08-09T06:04:29.000Z</time>
</trkpt>
<trkpt lat="46.1534920" lon="10.4564560">
	<ele>2646.20</ele>
	<time>2023-08-09T06:04:30.000Z</time>
</trkpt>
<trkpt lat="46.1534920" lon="10.4564560">
	<ele>2646.40</ele>
	<time>2023-08-09T06:04:31.000Z</time>
</trkpt>
<trkpt lat="46.1534920" lon="10.4564550">
	<ele>2646.40</ele>
	<time>2023-08-09T06:04:32.000Z</time>
</trkpt>
<trkpt lat="46.1534940" lon="10.4564550">
	<ele>2646.60</ele>
	<time>2023-08-09T06:04:33.000Z</time>
</trkpt>
<trkpt lat="46.1534980" lon="10.4564550">
	<ele>2646.60</ele>
	<time>2023-08-09T06:04:34.000Z</time>
</trkpt>
<trkpt lat="46.1535000" lon="10.4564550">
	<ele>2646.80</ele>
	<time>2023-08-09T06:04:35.000Z</time>
</trkpt>
<trkpt lat="46.1535050" lon="10.4564550">
	<ele>2646.80</ele>
	<time>2023-08-09T06:04:36.000Z</time>
</trkpt>
<trkpt lat="46.1535080" lon="10.4564550">
	<ele>2647.00</ele>
	<time>2023-08-09T06:04:37.000Z</time>
</trkpt>
<trkpt lat="46.1535110" lon="10.4564550">
	<ele>2647.00</ele>
	<time>2023-08-09T06:04:38.000Z</time>
</trkpt>
<trkpt lat="46.1535130" lon="10.4564550">
	<ele>2647.20</ele>
	<time>2023-08-09T06:04:39.000Z</time>
</trkpt>
<trkpt lat="46.1535170" lon="10.4564550">
	<ele>2647.20</ele>
	<time>2023-08-09T06:04:40.000Z</time>
</trkpt>
<trkpt lat="46.1535220" lon="10.4564550">
	<ele>2647.40</ele>
	<time>2023-08-09T06:04:41.000Z</time>
</trkpt>
<trkpt lat="46.1535260" lon="10.4564550">
	<ele>2647.40</ele>
	<time>2023-08-09T06:04:42.000Z</time>
</trkpt>
<trkpt lat="46.1535280" lon="10.4564550">
	<ele>2647.60</ele>
	<time>2023-08-09T06:04:43.000Z</time>
</trkpt>
<trkpt lat="46.1535320" lon="10.4564550">
	<ele>2647.60</ele>
	<time>2023-08-09T06:04:44.000Z</time>
</trkpt>
<trkpt lat="46.1535380" lon="10.4564550">
	<ele>2647.80</ele>
	<time>2023-08-09T06:04:45.000Z</time>
</trkpt>
<trkpt lat="46.1535420" lon="10.4564550">
	<ele>2647.80</ele>
	<time>2023-08-09T06:04:46.000Z</time>
</trkpt>
<trkpt lat="46.1535450" lon="10.4564560">
	<ele>2648.00</ele>
	<time>2023-08-09T06:04:47.000Z</time>
</trkpt>
<trkpt lat="46.1535500" lon="10.4564560">
	<ele>2648.00</ele>
	<time>2023-08-09T06:04:48.000Z</time>
</trkpt>
<trkpt lat="46.1535570" lon="10.4564560">
	<ele>2648.20</ele>
	<time>2023-08-09T06:04:49.000Z</time>
</trkpt>
<trkpt lat="46.1535640" lon="10.4564570">
	<ele>2648.40</ele>
	<time>2023-08-09T06:04:50.000Z</time>
</trkpt>
<trkpt lat="46.1535710" lon="10.4564570">
	<ele>2648.40</ele>
	<time>2023-08-09T06:04:51.000Z</time>
</trkpt>
<trkpt lat="46.1535770" lon="10.4564570">
	<ele>2648.40</ele>
	<time>2023-08-09T06:04:52.000Z</time>
</trkpt>
<trkpt lat="46.1535820" lon="10.4564560">
	<ele>2648.60</ele>
	<time>2023-08-09T06:04:53.000Z</time>
</trkpt>
<trkpt lat="46.1535860" lon="10.4564560">
	<ele>2648.80</ele>
	<time>2023-08-09T06:04:54.000Z</time>
</trkpt>
<trkpt lat="46.1535910" lon="10.4564560">
	<ele>2648.80</ele>
	<time>2023-08-09T06:04:55.000Z</time>
</trkpt>
<trkpt lat="46.1535970" lon="10.4564560">
	<ele>2649.00</ele>
	<time>2023-08-09T06:04:56.000Z</time>
</trkpt>
<trkpt lat="46.1536030" lon="10.4564570">
	<ele>2649.20</ele>
	<time>2023-08-09T06:04:57.000Z</time>
</trkpt>
<trkpt lat="46.1536090" lon="10.4564570">
	<ele>2649.40</ele>
	<time>2023-08-09T06:04:58.000Z</time>
</trkpt>
<trkpt lat="46.1536140" lon="10.4564580">
	<ele>2649.60</ele>
	<time>2023-08-09T06:04:59.000Z</time>
</trkpt>
<trkpt lat="46.1536200" lon="10.4564580">
	<ele>2649.60</ele>
	<time>2023-08-09T06:05:00.000Z</time>
</trkpt>
<trkpt lat="46.1536250" lon="10.4564580">
	<ele>2649.80</ele>
	<time>2023-08-09T06:05:01.000Z</time>
</trkpt>
<trkpt lat="46.1536300" lon="10.4564580">
	<ele>2650.00</ele>
	<time>2023-08-09T06:05:02.000Z</time>
</trkpt>
<trkpt lat="46.1536340" lon="10.4564580">
	<ele>2650.00</ele>
	<time>2023-08-09T06:05:03.000Z</time>
</trkpt>
<trkpt lat="46.1536380" lon="10.4564580">
	<ele>2650.40</ele>
	<time>2023-08-09T06:05:04.000Z</time>
</trkpt>
<trkpt lat="46.1536410" lon="10.4564580">
	<ele>2650.60</ele>
	<time>2023-08-09T06:05:05.000Z</time>
</trkpt>
<trkpt lat="46.1536450" lon="10.4564580">
	<ele>2650.80</ele>
	<time>2023-08-09T06:05:06.000Z</time>
</trkpt>
<trkpt lat="46.1536490" lon="10.4564570">
	<ele>2650.80</ele>
	<time>2023-08-09T06:05:07.000Z</time>
</trkpt>
<trkpt lat="46.1536520" lon="10.4564570">
	<ele>2651.00</ele>
	<time>2023-08-09T06:05:08.000Z</time>
</trkpt>
<trkpt lat="46.1536560" lon="10.4564560">
	<ele>2651.00</ele>
	<time>2023-08-09T06:05:09.000Z</time>
</trkpt>
<trkpt lat="46.1536590" lon="10.4564560">
	<ele>2651.20</ele>
	<time>2023-08-09T06:05:10.000Z</time>
</trkpt>
<trkpt lat="46.1536630" lon="10.4564560">
	<ele>2651.40</ele>
	<time>2023-08-09T06:05:11.000Z</time>
</trkpt>
<trkpt lat="46.1536660" lon="10.4564540">
	<ele>2651.40</ele>
	<time>2023-08-09T06:05:12.000Z</time>
</trkpt>
<trkpt lat="46.1536700" lon="10.4564520">
	<ele>2651.60</ele>
	<time>2023-08-09T06:05:13.000Z</time>
</trkpt>
<trkpt lat="46.1536730" lon="10.4564510">
	<ele>2651.80</ele>
	<time>2023-08-09T06:05:14.000Z</time>
</trkpt>
<trkpt lat="46.1536750" lon="10.4564500">
	<ele>2652.00</ele>
	<time>2023-08-09T06:05:15.000Z</time>
</trkpt>
<trkpt lat="46.1536760" lon="10.4564490">
	<ele>2652.00</ele>
	<time>2023-08-09T06:05:16.000Z</time>
</trkpt>
<trkpt lat="46.1536770" lon="10.4564480">
	<ele>2652.20</ele>
	<time>2023-08-09T06:05:17.000Z</time>
</trkpt>
<trkpt lat="46.1536780" lon="10.4564450">
	<ele>2652.20</ele>
	<time>2023-08-09T06:05:18.000Z</time>
</trkpt>
<trkpt lat="46.1536810" lon="10.4564410">
	<ele>2652.40</ele>
	<time>2023-08-09T06:05:19.000Z</time>
</trkpt>
<trkpt lat="46.1536830" lon="10.4564380">
	<ele>2652.80</ele>
	<time>2023-08-09T06:05:20.000Z</time>
</trkpt>
<trkpt lat="46.1536850" lon="10.4564360">
	<ele>2653.00</ele>
	<time>2023-08-09T06:05:21.000Z</time>
</trkpt>
<trkpt lat="46.1536860" lon="10.4564340">
	<ele>2653.20</ele>
	<time>2023-08-09T06:05:22.000Z</time>
</trkpt>
<trkpt lat="46.1536870" lon="10.4564330">
	<ele>2653.40</ele>
	<time>2023-08-09T06:05:23.000Z</time>
</trkpt>
<trkpt lat="46.1536880" lon="10.4564310">
	<ele>2653.40</ele>
	<time>2023-08-09T06:05:24.000Z</time>
</trkpt>
<trkpt lat="46.1536920" lon="10.4564300">
	<ele>2653.40</ele>
	<time>2023-08-09T06:05:25.000Z</time>
</trkpt>
<trkpt lat="46.1536970" lon="10.4564300">
	<ele>2653.40</ele>
	<time>2023-08-09T06:05:26.000Z</time>
</trkpt>
<trkpt lat="46.1537030" lon="10.4564290">
	<ele>2653.40</ele>
	<time>2023-08-09T06:05:27.000Z</time>
</trkpt>
<trkpt lat="46.1537070" lon="10.4564290">
	<ele>2653.60</ele>
	<time>2023-08-09T06:05:28.000Z</time>
</trkpt>
<trkpt lat="46.1537110" lon="10.4564290">
	<ele>2653.60</ele>
	<time>2023-08-09T06:05:29.000Z</time>
</trkpt>
<trkpt lat="46.1537130" lon="10.4564290">
	<ele>2653.60</ele>
	<time>2023-08-09T06:05:30.000Z</time>
</trkpt>
<trkpt lat="46.1537160" lon="10.4564290">
	<ele>2653.60</ele>
	<time>2023-08-09T06:05:31.000Z</time>
</trkpt>
<trkpt lat="46.1537190" lon="10.4564290">
	<ele>2653.60</ele>
	<time>2023-08-09T06:05:32.000Z</time>
</trkpt>
<trkpt lat="46.1537230" lon="10.4564290">
	<ele>2653.60</ele>
	<time>2023-08-09T06:05:33.000Z</time>
</trkpt>
<trkpt lat="46.1537260" lon="10.4564280">
	<ele>2653.80</ele>
	<time>2023-08-09T06:05:34.000Z</time>
</trkpt>
<trkpt lat="46.1537320" lon="10.4564280">
	<ele>2654.00</ele>
	<time>2023-08-09T06:05:35.000Z</time>
</trkpt>
<trkpt lat="46.1537370" lon="10.4564280">
	<ele>2654.20</ele>
	<time>2023-08-09T06:05:36.000Z</time>
</trkpt>
<trkpt lat="46.1537410" lon="10.4564280">
	<ele>2654.20</ele>
	<time>2023-08-09T06:05:37.000Z</time>
</trkpt>
<trkpt lat="46.1537430" lon="10.4564270">
	<ele>2654.20</ele>
	<time>2023-08-09T06:05:38.000Z</time>
</trkpt>
<trkpt lat="46.1537440" lon="10.4564270">
	<ele>2654.40</ele>
	<time>2023-08-09T06:05:39.000Z</time>
</trkpt>
<trkpt lat="46.1537460" lon="10.4564270">
	<ele>2654.60</ele>
	<time>2023-08-09T06:05:40.000Z</time>
</trkpt>
<trkpt lat="46.1537490" lon="10.4564270">
	<ele>2654.60</ele>
	<time>2023-08-09T06:05:41.000Z</time>
</trkpt>
<trkpt lat="46.1537540" lon="10.4564280">
	<ele>2654.60</ele>
	<time>2023-08-09T06:05:42.000Z</time>
</trkpt>
<trkpt lat="46.1537590" lon="10.4564280">
	<ele>2654.60</ele>
	<time>2023-08-09T06:05:43.000Z</time>
</trkpt>
<trkpt lat="46.1537630" lon="10.4564280">
	<ele>2654.60</ele>
	<time>2023-08-09T06:05:44.000Z</time>
</trkpt>
<trkpt lat="46.1537670" lon="10.4564280">
	<ele>2654.80</ele>
	<time>2023-08-09T06:05:45.000Z</time>
</trkpt>
<trkpt lat="46.1537710" lon="10.4564280">
	<ele>2654.80</ele>
	<time>2023-08-09T06:05:46.000Z</time>
</trkpt>
<trkpt lat="46.1537760" lon="10.4564280">
	<ele>2655.00</ele>
	<time>2023-08-09T06:05:47.000Z</time>
</trkpt>
<trkpt lat="46.1537820" lon="10.4564290">
	<ele>2655.20</ele>
	<time>2023-08-09T06:05:48.000Z</time>
</trkpt>
<trkpt lat="46.1537870" lon="10.4564290">
	<ele>2655.20</ele>
	<time>2023-08-09T06:05:49.000Z</time>
</trkpt>
<trkpt lat="46.1537920" lon="10.4564290">
	<ele>2655.40</ele>
	<time>2023-08-09T06:05:50.000Z</time>
</trkpt>
<trkpt lat="46.1537950" lon="10.4564300">
	<ele>2655.40</ele>
	<time>2023-08-09T06:05:51.000Z</time>
</trkpt>
<trkpt lat="46.1537980" lon="10.4564300">
	<ele>2655.60</ele>
	<time>2023-08-09T06:05:52.000Z</time>
</trkpt>
<trkpt lat="46.1538020" lon="10.4564300">
	<ele>2655.80</ele>
	<time>2023-08-09T06:05:53.000Z</time>
</trkpt>
<trkpt lat="46.1538070" lon="10.4564310">
	<ele>2656.00</ele>
	<time>2023-08-09T06:05:54.000Z</time>
</trkpt>
<trkpt lat="46.1538100" lon="10.4564310">
	<ele>2656.20</ele>
	<time>2023-08-09T06:05:55.000Z</time>
</trkpt>
<trkpt lat="46.1538140" lon="10.4564310">
	<ele>2656.20</ele>
	<time>2023-08-09T06:05:56.000Z</time>
</trkpt>
<trkpt lat="46.1538180" lon="10.4564320">
	<ele>2656.20</ele>
	<time>2023-08-09T06:05:57.000Z</time>
</trkpt>
<trkpt lat="46.1538210" lon="10.4564320">
	<ele>2656.40</ele>
	<time>2023-08-09T06:05:58.000Z</time>
</trkpt>
<trkpt lat="46.1538250" lon="10.4564320">
	<ele>2656.40</ele>
	<time>2023-08-09T06:05:59.000Z</time>
</trkpt>
<trkpt lat="46.1538280" lon="10.4564330">
	<ele>2656.60</ele>
	<time>2023-08-09T06:06:00.000Z</time>
</trkpt>
<trkpt lat="46.1538310" lon="10.4564340">
	<ele>2656.60</ele>
	<time>2023-08-09T06:06:01.000Z</time>
</trkpt>
<trkpt lat="46.1538330" lon="10.4564340">
	<ele>2656.80</ele>
	<time>2023-08-09T06:06:02.000Z</time>
</trkpt>
<trkpt lat="46.1538350" lon="10.4564350">
	<ele>2656.80</ele>
	<time>2023-08-09T06:06:03.000Z</time>
</trkpt>
<trkpt lat="46.1538370" lon="10.4564350">
	<ele>2656.80</ele>
	<time>2023-08-09T06:06:04.000Z</time>
</trkpt>
<trkpt lat="46.1538390" lon="10.4564350">
	<ele>2657.00</ele>
	<time>2023-08-09T06:06:05.000Z</time>
</trkpt>
<trkpt lat="46.1538400" lon="10.4564360">
	<ele>2657.00</ele>
	<time>2023-08-09T06:06:06.000Z</time>
</trkpt>
<trkpt lat="46.1538430" lon="10.4564360">
	<ele>2657.20</ele>
	<time>2023-08-09T06:06:07.000Z</time>
</trkpt>
<trkpt lat="46.1538460" lon="10.4564370">
	<ele>2657.20</ele>
	<time>2023-08-09T06:06:08.000Z</time>
</trkpt>
<trkpt lat="46.1538480" lon="10.4564380">
	<ele>2657.20</ele>
	<time>2023-08-09T06:06:09.000Z</time>
</trkpt>
<trkpt lat="46.1538510" lon="10.4564390">
	<ele>2657.40</ele>
	<time>2023-08-09T06:06:10.000Z</time>
</trkpt>
<trkpt lat="46.1538550" lon="10.4564400">
	<ele>2657.60</ele>
	<time>2023-08-09T06:06:11.000Z</time>
</trkpt>
<trkpt lat="46.1538580" lon="10.4564410">
	<ele>2657.80</ele>
	<time>2023-08-09T06:06:12.000Z</time>
</trkpt>
<trkpt lat="46.1538630" lon="10.4564410">
	<ele>2657.80</ele>
	<time>2023-08-09T06:06:13.000Z</time>
</trkpt>
<trkpt lat="46.1538680" lon="10.4564410">
	<ele>2658.00</ele>
	<time>2023-08-09T06:06:14.000Z</time>
</trkpt>
<trkpt lat="46.1538720" lon="10.4564420">
	<ele>2658.00</ele>
	<time>2023-08-09T06:06:15.000Z</time>
</trkpt>
<trkpt lat="46.1538760" lon="10.4564430">
	<ele>2658.20</ele>
	<time>2023-08-09T06:06:16.000Z</time>
</trkpt>
<trkpt lat="46.1538810" lon="10.4564430">
	<ele>2658.20</ele>
	<time>2023-08-09T06:06:17.000Z</time>
</trkpt>
<trkpt lat="46.1538860" lon="10.4564440">
	<ele>2658.20</ele>
	<time>2023-08-09T06:06:18.000Z</time>
</trkpt>
<trkpt lat="46.1538910" lon="10.4564450">
	<ele>2658.20</ele>
	<time>2023-08-09T06:06:19.000Z</time>
</trkpt>
<trkpt lat="46.1538970" lon="10.4564450">
	<ele>2658.40</ele>
	<time>2023-08-09T06:06:20.000Z</time>
</trkpt>
<trkpt lat="46.1539020" lon="10.4564460">
	<ele>2658.40</ele>
	<time>2023-08-09T06:06:21.000Z</time>
</trkpt>
<trkpt lat="46.1539060" lon="10.4564470">
	<ele>2658.60</ele>
	<time>2023-08-09T06:06:22.000Z</time>
</trkpt>
<trkpt lat="46.1539090" lon="10.4564480">
	<ele>2658.60</ele>
	<time>2023-08-09T06:06:23.000Z</time>
</trkpt>
<trkpt lat="46.1539120" lon="10.4564480">
	<ele>2658.80</ele>
	<time>2023-08-09T06:06:24.000Z</time>
</trkpt>
<trkpt lat="46.1539150" lon="10.4564490">
	<ele>2658.80</ele>
	<time>2023-08-09T06:06:25.000Z</time>
</trkpt>
<trkpt lat="46.1539180" lon="10.4564490">
	<ele>2658.80</ele>
	<time>2023-08-09T06:06:26.000Z</time>
</trkpt>
<trkpt lat="46.1539210" lon="10.4564500">
	<ele>2659.00</ele>
	<time>2023-08-09T06:06:27.000Z</time>
</trkpt>
<trkpt lat="46.1539240" lon="10.4564500">
	<ele>2659.00</ele>
	<time>2023-08-09T06:06:28.000Z</time>
</trkpt>
<trkpt lat="46.1539290" lon="10.4564510">
	<ele>2659.00</ele>
	<time>2023-08-09T06:06:29.000Z</time>
</trkpt>
<trkpt lat="46.1539330" lon="10.4564520">
	<ele>2659.00</ele>
	<time>2023-08-09T06:06:30.000Z</time>
</trkpt>
<trkpt lat="46.1539360" lon="10.4564520">
	<ele>2659.00</ele>
	<time>2023-08-09T06:06:31.000Z</time>
</trkpt>
<trkpt lat="46.1539390" lon="10.4564520">
	<ele>2659.00</ele>
	<time>2023-08-09T06:06:32.000Z</time>
</trkpt>
<trkpt lat="46.1539430" lon="10.4564520">
	<ele>2659.00</ele>
	<time>2023-08-09T06:06:33.000Z</time>
</trkpt>
<trkpt lat="46.1539470" lon="10.4564520">
	<ele>2659.00</ele>
	<time>2023-08-09T06:06:34.000Z</time>
</trkpt>
<trkpt lat="46.1539500" lon="10.4564520">
	<ele>2659.00</ele>
	<time>2023-08-09T06:06:35.000Z</time>
</trkpt>
<trkpt lat="46.1539530" lon="10.4564520">
	<ele>2659.00</ele>
	<time>2023-08-09T06:06:36.000Z</time>
</trkpt>
<trkpt lat="46.1539570" lon="10.4564520">
	<ele>2659.00</ele>
	<time>2023-08-09T06:06:37.000Z</time>
</trkpt>
<trkpt lat="46.1539610" lon="10.4564530">
	<ele>2659.00</ele>
	<time>2023-08-09T06:06:38.000Z</time>
</trkpt>
<trkpt lat="46.1539660" lon="10.4564530">
	<ele>2659.20</ele>
	<time>2023-08-09T06:06:39.000Z</time>
</trkpt>
<trkpt lat="46.1539690" lon="10.4564530">
	<ele>2659.40</ele>
	<time>2023-08-09T06:06:40.000Z</time>
</trkpt>
<trkpt lat="46.1539720" lon="10.4564540">
	<ele>2659.40</ele>
	<time>2023-08-09T06:06:41.000Z</time>
</trkpt>
<trkpt lat="46.1539760" lon="10.4564540">
	<ele>2659.60</ele>
	<time>2023-08-09T06:06:42.000Z</time>
</trkpt>
<trkpt lat="46.1539790" lon="10.4564550">
	<ele>2659.60</ele>
	<time>2023-08-09T06:06:43.000Z</time>
</trkpt>
<trkpt lat="46.1539810" lon="10.4564550">
	<ele>2659.60</ele>
	<time>2023-08-09T06:06:44.000Z</time>
</trkpt>
<trkpt lat="46.1539840" lon="10.4564560">
	<ele>2659.80</ele>
	<time>2023-08-09T06:06:45.000Z</time>
</trkpt>
<trkpt lat="46.1539860" lon="10.4564560">
	<ele>2659.80</ele>
	<time>2023-08-09T06:06:46.000Z</time>
</trkpt>
<trkpt lat="46.1539890" lon="10.4564560">
	<ele>2660.00</ele>
	<time>2023-08-09T06:06:47.000Z</time>
</trkpt>
<trkpt lat="46.1539920" lon="10.4564570">
	<ele>2660.00</ele>
	<time>2023-08-09T06:06:48.000Z</time>
</trkpt>
<trkpt lat="46.1539960" lon="10.4564570">
	<ele>2660.20</ele>
	<time>2023-08-09T06:06:49.000Z</time>
</trkpt>
<trkpt lat="46.1539990" lon="10.4564580">
	<ele>2660.20</ele>
	<time>2023-08-09T06:06:50.000Z</time>
</trkpt>
<trkpt lat="46.1540020" lon="10.4564580">
	<ele>2660.20</ele>
	<time>2023-08-09T06:06:51.000Z</time>
</trkpt>
<trkpt lat="46.1540060" lon="10.4564590">
	<ele>2660.20</ele>
	<time>2023-08-09T06:06:52.000Z</time>
</trkpt>
<trkpt lat="46.1540090" lon="10.4564600">
	<ele>2660.20</ele>
	<time>2023-08-09T06:06:53.000Z</time>
</trkpt>
<trkpt lat="46.1540120" lon="10.4564600">
	<ele>2660.20</ele>
	<time>2023-08-09T06:06:54.000Z</time>
</trkpt>
<trkpt lat="46.1540160" lon="10.4564610">
	<ele>2660.20</ele>
	<time>2023-08-09T06:06:55.000Z</time>
</trkpt>
<trkpt lat="46.1540190" lon="10.4564620">
	<ele>2660.20</ele>
	<time>2023-08-09T06:06:56.000Z</time>
</trkpt>
<trkpt lat="46.1540220" lon="10.4564630">
	<ele>2660.20</ele>
	<time>2023-08-09T06:06:57.000Z</time>
</trkpt>
<trkpt lat="46.1540250" lon="10.4564630">
	<ele>2660.20</ele>
	<time>2023-08-09T06:06:58.000Z</time>
</trkpt>
<trkpt lat="46.1540280" lon="10.4564640">
	<ele>2660.40</ele>
	<time>2023-08-09T06:06:59.000Z</time>
</trkpt>
<trkpt lat="46.1540310" lon="10.4564650">
	<ele>2660.40</ele>
	<time>2023-08-09T06:07:00.000Z</time>
</trkpt>
<trkpt lat="46.1540350" lon="10.4564660">
	<ele>2660.40</ele>
	<time>2023-08-09T06:07:01.000Z</time>
</trkpt>
<trkpt lat="46.1540380" lon="10.4564670">
	<ele>2660.40</ele>
	<time>2023-08-09T06:07:02.000Z</time>
</trkpt>
<trkpt lat="46.1540410" lon="10.4564690">
	<ele>2660.40</ele>
	<time>2023-08-09T06:07:03.000Z</time>
</trkpt>
<trkpt lat="46.1540430" lon="10.4564700">
	<ele>2660.40</ele>
	<time>2023-08-09T06:07:04.000Z</time>
</trkpt>
<trkpt lat="46.1540460" lon="10.4564710">
	<ele>2660.20</ele>
	<time>2023-08-09T06:07:05.000Z</time>
</trkpt>
<trkpt lat="46.1540490" lon="10.4564720">
	<ele>2660.20</ele>
	<time>2023-08-09T06:07:06.000Z</time>
</trkpt>
<trkpt lat="46.1540510" lon="10.4564730">
	<ele>2660.00</ele>
	<time>2023-08-09T06:07:07.000Z</time>
</trkpt>
<trkpt lat="46.1540530" lon="10.4564730">
	<ele>2660.00</ele>
	<time>2023-08-09T06:07:08.000Z</time>
</trkpt>
<trkpt lat="46.1540560" lon="10.4564740">
	<ele>2660.00</ele>
	<time>2023-08-09T06:07:09.000Z</time>
</trkpt>
<trkpt lat="46.1540580" lon="10.4564750">
	<ele>2660.00</ele>
	<time>2023-08-09T06:07:10.000Z</time>
</trkpt>
<trkpt lat="46.1540600" lon="10.4564750">
	<ele>2660.00</ele>
	<time>2023-08-09T06:07:11.000Z</time>
</trkpt>
<trkpt lat="46.1540620" lon="10.4564760">
	<ele>2660.00</ele>
	<time>2023-08-09T06:07:12.000Z</time>
</trkpt>
<trkpt lat="46.1540640" lon="10.4564770">
	<ele>2660.00</ele>
	<time>2023-08-09T06:07:13.000Z</time>
</trkpt>
<trkpt lat="46.1540650" lon="10.4564780">
	<ele>2660.00</ele>
	<time>2023-08-09T06:07:14.000Z</time>
</trkpt>
<trkpt lat="46.1540670" lon="10.4564790">
	<ele>2660.00</ele>
	<time>2023-08-09T06:07:15.000Z</time>
</trkpt>
<trkpt lat="46.1540680" lon="10.4564790">
	<ele>2659.80</ele>
	<time>2023-08-09T06:07:16.000Z</time>
</trkpt>
<trkpt lat="46.1540690" lon="10.4564800">
	<ele>2659.80</ele>
	<time>2023-08-09T06:07:17.000Z</time>
</trkpt>
<trkpt lat="46.1540700" lon="10.4564800">
	<ele>2659.80</ele>
	<time>2023-08-09T06:07:18.000Z</time>
</trkpt>
<trkpt lat="46.1540710" lon="10.4564810">
	<ele>2659.80</ele>
	<time>2023-08-09T06:07:19.000Z</time>
</trkpt>
<trkpt lat="46.1540710" lon="10.4564810">
	<ele>2659.80</ele>
	<time>2023-08-09T06:07:20.000Z</time>
</trkpt>
<trkpt lat="46.1540710" lon="10.4564810">
	<ele>2659.80</ele>
	<time>2023-08-09T06:07:21.000Z</time>
</trkpt>
<trkpt lat="46.1540710" lon="10.4564810">
	<ele>2659.60</ele>
	<time>2023-08-09T06:07:22.000Z</time>
</trkpt>
<trkpt lat="46.1540710" lon="10.4564810">
	<ele>2659.60</ele>
	<time>2023-08-09T06:07:23.000Z</time>
</trkpt>
<trkpt lat="46.1540720" lon="10.4564810">
	<ele>2659.60</ele>
	<time>2023-08-09T06:07:24.000Z</time>
</trkpt>
<trkpt lat="46.1540720" lon="10.4564820">
	<ele>2659.60</ele>
	<time>2023-08-09T06:07:25.000Z</time>
</trkpt>
<trkpt lat="46.1540720" lon="10.4564820">
	<ele>2659.80</ele>
	<time>2023-08-09T06:07:26.000Z</time>
</trkpt>
<trkpt lat="46.1540720" lon="10.4564820">
	<ele>2659.80</ele>
	<time>2023-08-09T06:07:27.000Z</time>
</trkpt>
<trkpt lat="46.1540720" lon="10.4564820">
	<ele>2659.80</ele>
	<time>2023-08-09T06:07:28.000Z</time>
</trkpt>
<trkpt lat="46.1540730" lon="10.4564820">
	<ele>2659.80</ele>
	<time>2023-08-09T06:07:29.000Z</time>
</trkpt>
<trkpt lat="46.1540730" lon="10.4564820">
	<ele>2659.80</ele>
	<time>2023-08-09T06:07:30.000Z</time>
</trkpt>
<trkpt lat="46.1540730" lon="10.4564830">
	<ele>2659.80</ele>
	<time>2023-08-09T06:07:31.000Z</time>
</trkpt>
<trkpt lat="46.1540730" lon="10.4564830">
	<ele>2659.80</ele>
	<time>2023-08-09T06:07:32.000Z</time>
</trkpt>
<trkpt lat="46.1540740" lon="10.4564830">
	<ele>2659.80</ele>
	<time>2023-08-09T06:07:33.000Z</time>
</trkpt>
<trkpt lat="46.1540740" lon="10.4564830">
	<ele>2659.80</ele>
	<time>2023-08-09T06:07:34.000Z</time>
</trkpt>
<trkpt lat="46.1540890" lon="10.4564930">
	<ele>2659.80</ele>
	<time>2023-08-09T06:07:35.000Z</time>
</trkpt>
<trkpt lat="46.1541070" lon="10.4565050">
	<ele>2659.80</ele>
	<time>2023-08-09T06:07:36.000Z</time>
</trkpt>
<trkpt lat="46.1541280" lon="10.4565170">
	<ele>2659.80</ele>
	<time>2023-08-09T06:07:37.000Z</time>
</trkpt>
<trkpt lat="46.1541480" lon="10.4565300">
	<ele>2659.80</ele>
	<time>2023-08-09T06:07:38.000Z</time>
</trkpt>
<trkpt lat="46.1541680" lon="10.4565410">
	<ele>2659.80</ele>
	<time>2023-08-09T06:07:39.000Z</time>
</trkpt>
<trkpt lat="46.1541850" lon="10.4565500">
	<ele>2659.80</ele>
	<time>2023-08-09T06:07:40.000Z</time>
</trkpt>
<trkpt lat="46.1542040" lon="10.4565590">
	<ele>2659.80</ele>
	<time>2023-08-09T06:07:41.000Z</time>
</trkpt>
<trkpt lat="46.1542240" lon="10.4565670">
	<ele>2659.80</ele>
	<time>2023-08-09T06:07:42.000Z</time>
</trkpt>
<trkpt lat="46.1542460" lon="10.4565770">
	<ele>2659.80</ele>
	<time>2023-08-09T06:07:43.000Z</time>
</trkpt>
<trkpt lat="46.1542670" lon="10.4565860">
	<ele>2660.20</ele>
	<time>2023-08-09T06:07:44.000Z</time>
</trkpt>
<trkpt lat="46.1542710" lon="10.4565870">
	<ele>2660.60</ele>
	<time>2023-08-09T06:07:45.000Z</time>
</trkpt>
<trkpt lat="46.1542730" lon="10.4565870">
	<ele>2660.80</ele>
	<time>2023-08-09T06:07:46.000Z</time>
</trkpt>
<trkpt lat="46.1542740" lon="10.4565860">
	<ele>2660.80</ele>
	<time>2023-08-09T06:07:47.000Z</time>
</trkpt>
<trkpt lat="46.1542790" lon="10.4565850">
	<ele>2660.80</ele>
	<time>2023-08-09T06:07:48.000Z</time>
</trkpt>
<trkpt lat="46.1542840" lon="10.4565820">
	<ele>2661.00</ele>
	<time>2023-08-09T06:07:49.000Z</time>
</trkpt>
<trkpt lat="46.1542860" lon="10.4565830">
	<ele>2661.00</ele>
	<time>2023-08-09T06:07:50.000Z</time>
</trkpt>
<trkpt lat="46.1542900" lon="10.4565840">
	<ele>2661.00</ele>
	<time>2023-08-09T06:07:51.000Z</time>
</trkpt>
<trkpt lat="46.1542930" lon="10.4565850">
	<ele>2661.20</ele>
	<time>2023-08-09T06:07:52.000Z</time>
</trkpt>
<trkpt lat="46.1542950" lon="10.4565840">
	<ele>2661.40</ele>
	<time>2023-08-09T06:07:53.000Z</time>
</trkpt>
<trkpt lat="46.1542960" lon="10.4565840">
	<ele>2661.40</ele>
	<time>2023-08-09T06:07:54.000Z</time>
</trkpt>
<trkpt lat="46.1543000" lon="10.4565850">
	<ele>2661.40</ele>
	<time>2023-08-09T06:07:55.000Z</time>
</trkpt>
<trkpt lat="46.1543050" lon="10.4565860">
	<ele>2661.40</ele>
	<time>2023-08-09T06:07:56.000Z</time>
</trkpt>
<trkpt lat="46.1543100" lon="10.4565870">
	<ele>2661.40</ele>
	<time>2023-08-09T06:07:57.000Z</time>
</trkpt>
<trkpt lat="46.1543140" lon="10.4565890">
	<ele>2661.40</ele>
	<time>2023-08-09T06:07:58.000Z</time>
</trkpt>
<trkpt lat="46.1543190" lon="10.4565930">
	<ele>2661.40</ele>
	<time>2023-08-09T06:07:59.000Z</time>
</trkpt>
<trkpt lat="46.1543210" lon="10.4565970">
	<ele>2661.40</ele>
	<time>2023-08-09T06:08:00.000Z</time>
</trkpt>
<trkpt lat="46.1543250" lon="10.4566030">
	<ele>2661.40</ele>
	<time>2023-08-09T06:08:01.000Z</time>
</trkpt>
<trkpt lat="46.1543330" lon="10.4566060">
	<ele>2661.40</ele>
	<time>2023-08-09T06:08:02.000Z</time>
</trkpt>
<trkpt lat="46.1543390" lon="10.4566090">
	<ele>2661.40</ele>
	<time>2023-08-09T06:08:03.000Z</time>
</trkpt>
<trkpt lat="46.1543440" lon="10.4566120">
	<ele>2661.60</ele>
	<time>2023-08-09T06:08:04.000Z</time>
</trkpt>
<trkpt lat="46.1543500" lon="10.4566140">
	<ele>2661.60</ele>
	<time>2023-08-09T06:08:05.000Z</time>
</trkpt>
<trkpt lat="46.1543560" lon="10.4566190">
	<ele>2661.80</ele>
	<time>2023-08-09T06:08:06.000Z</time>
</trkpt>
<trkpt lat="46.1543590" lon="10.4566210">
	<ele>2661.80</ele>
	<time>2023-08-09T06:08:07.000Z</time>
</trkpt>
<trkpt lat="46.1543590" lon="10.4566230">
	<ele>2661.80</ele>
	<time>2023-08-09T06:08:08.000Z</time>
</trkpt>
<trkpt lat="46.1543600" lon="10.4566220">
	<ele>2661.80</ele>
	<time>2023-08-09T06:08:09.000Z</time>
</trkpt>
<trkpt lat="46.1543620" lon="10.4566200">
	<ele>2661.80</ele>
	<time>2023-08-09T06:08:10.000Z</time>
</trkpt>
<trkpt lat="46.1543640" lon="10.4566190">
	<ele>2662.00</ele>
	<time>2023-08-09T06:08:11.000Z</time>
</trkpt>
<trkpt lat="46.1543660" lon="10.4566170">
	<ele>2662.00</ele>
	<time>2023-08-09T06:08:12.000Z</time>
</trkpt>
<trkpt lat="46.1543690" lon="10.4566090">
	<ele>2662.20</ele>
	<time>2023-08-09T06:08:13.000Z</time>
</trkpt>
<trkpt lat="46.1543750" lon="10.4566070">
	<ele>2662.20</ele>
	<time>2023-08-09T06:08:14.000Z</time>
</trkpt>
<trkpt lat="46.1543810" lon="10.4566100">
	<ele>2662.40</ele>
	<time>2023-08-09T06:08:15.000Z</time>
</trkpt>
<trkpt lat="46.1543870" lon="10.4566110">
	<ele>2662.60</ele>
	<time>2023-08-09T06:08:16.000Z</time>
</trkpt>
<trkpt lat="46.1543900" lon="10.4566120">
	<ele>2662.60</ele>
	<time>2023-08-09T06:08:17.000Z</time>
</trkpt>
<trkpt lat="46.1543930" lon="10.4566150">
	<ele>2662.80</ele>
	<time>2023-08-09T06:08:18.000Z</time>
</trkpt>
<trkpt lat="46.1543960" lon="10.4566190">
	<ele>2663.00</ele>
	<time>2023-08-09T06:08:19.000Z</time>
</trkpt>
<trkpt lat="46.1543990" lon="10.4566220">
	<ele>2663.20</ele>
	<time>2023-08-09T06:08:20.000Z</time>
</trkpt>
<trkpt lat="46.1544000" lon="10.4566240">
	<ele>2663.20</ele>
	<time>2023-08-09T06:08:21.000Z</time>
</trkpt>
<trkpt lat="46.1544010" lon="10.4566250">
	<ele>2663.20</ele>
	<time>2023-08-09T06:08:22.000Z</time>
</trkpt>
<trkpt lat="46.1544040" lon="10.4566240">
	<ele>2663.40</ele>
	<time>2023-08-09T06:08:23.000Z</time>
</trkpt>
<trkpt lat="46.1544060" lon="10.4566190">
	<ele>2663.60</ele>
	<time>2023-08-09T06:08:24.000Z</time>
</trkpt>
<trkpt lat="46.1544120" lon="10.4566160">
	<ele>2663.60</ele>
	<time>2023-08-09T06:08:25.000Z</time>
</trkpt>
<trkpt lat="46.1544150" lon="10.4566150">
	<ele>2663.60</ele>
	<time>2023-08-09T06:08:26.000Z</time>
</trkpt>
<trkpt lat="46.1544180" lon="10.4566180">
	<ele>2664.00</ele>
	<time>2023-08-09T06:08:27.000Z</time>
</trkpt>
<trkpt lat="46.1544220" lon="10.4566150">
	<ele>2664.00</ele>
	<time>2023-08-09T06:08:28.000Z</time>
</trkpt>
<trkpt lat="46.1544250" lon="10.4566120">
	<ele>2664.20</ele>
	<time>2023-08-09T06:08:29.000Z</time>
</trkpt>
<trkpt lat="46.1544290" lon="10.4566120">
	<ele>2664.20</ele>
	<time>2023-08-09T06:08:30.000Z</time>
</trkpt>
<trkpt lat="46.1544340" lon="10.4566140">
	<ele>2664.20</ele>
	<time>2023-08-09T06:08:31.000Z</time>
</trkpt>
<trkpt lat="46.1544370" lon="10.4566140">
	<ele>2664.40</ele>
	<time>2023-08-09T06:08:32.000Z</time>
</trkpt>
<trkpt lat="46.1544400" lon="10.4566120">
	<ele>2664.40</ele>
	<time>2023-08-09T06:08:33.000Z</time>
</trkpt>
<trkpt lat="46.1544420" lon="10.4566080">
	<ele>2664.60</ele>
	<time>2023-08-09T06:08:34.000Z</time>
</trkpt>
<trkpt lat="46.1544450" lon="10.4566070">
	<ele>2664.80</ele>
	<time>2023-08-09T06:08:35.000Z</time>
</trkpt>
<trkpt lat="46.1544450" lon="10.4566050">
	<ele>2665.00</ele>
	<time>2023-08-09T06:08:36.000Z</time>
</trkpt>
<trkpt lat="46.1544480" lon="10.4566050">
	<ele>2665.20</ele>
	<time>2023-08-09T06:08:37.000Z</time>
</trkpt>
<trkpt lat="46.1544520" lon="10.4566040">
	<ele>2665.20</ele>
	<time>2023-08-09T06:08:38.000Z</time>
</trkpt>
<trkpt lat="46.1544560" lon="10.4566020">
	<ele>2665.40</ele>
	<time>2023-08-09T06:08:39.000Z</time>
</trkpt>
<trkpt lat="46.1544610" lon="10.4565960">
	<ele>2665.40</ele>
	<time>2023-08-09T06:08:40.000Z</time>
</trkpt>
<trkpt lat="46.1544660" lon="10.4565940">
	<ele>2665.40</ele>
	<time>2023-08-09T06:08:41.000Z</time>
</trkpt>
<trkpt lat="46.1544700" lon="10.4565910">
	<ele>2665.40</ele>
	<time>2023-08-09T06:08:42.000Z</time>
</trkpt>
<trkpt lat="46.1544720" lon="10.4565890">
	<ele>2665.40</ele>
	<time>2023-08-09T06:08:43.000Z</time>
</trkpt>
<trkpt lat="46.1544760" lon="10.4565900">
	<ele>2665.40</ele>
	<time>2023-08-09T06:08:44.000Z</time>
</trkpt>
<trkpt lat="46.1544770" lon="10.4565880">
	<ele>2665.40</ele>
	<time>2023-08-09T06:08:45.000Z</time>
</trkpt>
<trkpt lat="46.1544770" lon="10.4565840">
	<ele>2665.40</ele>
	<time>2023-08-09T06:08:46.000Z</time>
</trkpt>
<trkpt lat="46.1544770" lon="10.4565740">
	<ele>2665.60</ele>
	<time>2023-08-09T06:08:47.000Z</time>
</trkpt>
<trkpt lat="46.1544820" lon="10.4565690">
	<ele>2665.60</ele>
	<time>2023-08-09T06:08:48.000Z</time>
</trkpt>
<trkpt lat="46.1544860" lon="10.4565680">
	<ele>2665.60</ele>
	<time>2023-08-09T06:08:49.000Z</time>
</trkpt>
<trkpt lat="46.1544920" lon="10.4565660">
	<ele>2665.80</ele>
	<time>2023-08-09T06:08:50.000Z</time>
</trkpt>
<trkpt lat="46.1544970" lon="10.4565670">
	<ele>2666.00</ele>
	<time>2023-08-09T06:08:51.000Z</time>
</trkpt>
<trkpt lat="46.1545000" lon="10.4565640">
	<ele>2666.00</ele>
	<time>2023-08-09T06:08:52.000Z</time>
</trkpt>
<trkpt lat="46.1545020" lon="10.4565620">
	<ele>2666.20</ele>
	<time>2023-08-09T06:08:53.000Z</time>
</trkpt>
<trkpt lat="46.1545040" lon="10.4565590">
	<ele>2666.20</ele>
	<time>2023-08-09T06:08:54.000Z</time>
</trkpt>
<trkpt lat="46.1545120" lon="10.4565560">
	<ele>2666.40</ele>
	<time>2023-08-09T06:08:55.000Z</time>
</trkpt>
<trkpt lat="46.1545170" lon="10.4565570">
	<ele>2666.40</ele>
	<time>2023-08-09T06:08:56.000Z</time>
</trkpt>
<trkpt lat="46.1545200" lon="10.4565580">
	<ele>2666.60</ele>
	<time>2023-08-09T06:08:57.000Z</time>
</trkpt>
<trkpt lat="46.1545230" lon="10.4565590">
	<ele>2666.80</ele>
	<time>2023-08-09T06:08:58.000Z</time>
</trkpt>
<trkpt lat="46.1545280" lon="10.4565590">
	<ele>2666.80</ele>
	<time>2023-08-09T06:08:59.000Z</time>
</trkpt>
<trkpt lat="46.1545320" lon="10.4565580">
	<ele>2666.80</ele>
	<time>2023-08-09T06:09:00.000Z</time>
</trkpt>
<trkpt lat="46.1545340" lon="10.4565590">
	<ele>2666.80</ele>
	<time>2023-08-09T06:09:01.000Z</time>
</trkpt>
<trkpt lat="46.1545360" lon="10.4565600">
	<ele>2666.80</ele>
	<time>2023-08-09T06:09:02.000Z</time>
</trkpt>
<trkpt lat="46.1545360" lon="10.4565600">
	<ele>2666.80</ele>
	<time>2023-08-09T06:09:03.000Z</time>
</trkpt>
<trkpt lat="46.1545350" lon="10.4565610">
	<ele>2667.00</ele>
	<time>2023-08-09T06:09:04.000Z</time>
</trkpt>
<trkpt lat="46.1545350" lon="10.4565670">
	<ele>2667.00</ele>
	<time>2023-08-09T06:09:05.000Z</time>
</trkpt>
<trkpt lat="46.1545370" lon="10.4565700">
	<ele>2667.00</ele>
	<time>2023-08-09T06:09:06.000Z</time>
</trkpt>
<trkpt lat="46.1545390" lon="10.4565730">
	<ele>2667.20</ele>
	<time>2023-08-09T06:09:07.000Z</time>
</trkpt>
<trkpt lat="46.1545410" lon="10.4565750">
	<ele>2667.20</ele>
	<time>2023-08-09T06:09:08.000Z</time>
</trkpt>
<trkpt lat="46.1545420" lon="10.4565750">
	<ele>2667.20</ele>
	<time>2023-08-09T06:09:09.000Z</time>
</trkpt>
<trkpt lat="46.1545440" lon="10.4565750">
	<ele>2667.40</ele>
	<time>2023-08-09T06:09:10.000Z</time>
</trkpt>
<trkpt lat="46.1545450" lon="10.4565730">
	<ele>2667.40</ele>
	<time>2023-08-09T06:09:11.000Z</time>
</trkpt>
<trkpt lat="46.1545470" lon="10.4565680">
	<ele>2667.40</ele>
	<time>2023-08-09T06:09:12.000Z</time>
</trkpt>
<trkpt lat="46.1545480" lon="10.4565640">
	<ele>2667.80</ele>
	<time>2023-08-09T06:09:13.000Z</time>
</trkpt>
<trkpt lat="46.1545480" lon="10.4565600">
	<ele>2667.80</ele>
	<time>2023-08-09T06:09:14.000Z</time>
</trkpt>
<trkpt lat="46.1545540" lon="10.4565500">
	<ele>2668.00</ele>
	<time>2023-08-09T06:09:15.000Z</time>
</trkpt>
<trkpt lat="46.1545600" lon="10.4565510">
	<ele>2668.00</ele>
	<time>2023-08-09T06:09:16.000Z</time>
</trkpt>
<trkpt lat="46.1545640" lon="10.4565530">
	<ele>2668.20</ele>
	<time>2023-08-09T06:09:17.000Z</time>
</trkpt>
<trkpt lat="46.1545660" lon="10.4565510">
	<ele>2668.40</ele>
	<time>2023-08-09T06:09:18.000Z</time>
</trkpt>
<trkpt lat="46.1545690" lon="10.4565530">
	<ele>2668.60</ele>
	<time>2023-08-09T06:09:19.000Z</time>
</trkpt>
<trkpt lat="46.1545700" lon="10.4565570">
	<ele>2668.60</ele>
	<time>2023-08-09T06:09:20.000Z</time>
</trkpt>
<trkpt lat="46.1545730" lon="10.4565610">
	<ele>2668.60</ele>
	<time>2023-08-09T06:09:21.000Z</time>
</trkpt>
<trkpt lat="46.1545750" lon="10.4565720">
	<ele>2668.60</ele>
	<time>2023-08-09T06:09:22.000Z</time>
</trkpt>
<trkpt lat="46.1545810" lon="10.4565750">
	<ele>2668.60</ele>
	<time>2023-08-09T06:09:23.000Z</time>
</trkpt>
<trkpt lat="46.1545840" lon="10.4565740">
	<ele>2668.60</ele>
	<time>2023-08-09T06:09:24.000Z</time>
</trkpt>
<trkpt lat="46.1545850" lon="10.4565730">
	<ele>2668.60</ele>
	<time>2023-08-09T06:09:25.000Z</time>
</trkpt>
<trkpt lat="46.1545860" lon="10.4565710">
	<ele>2668.60</ele>
	<time>2023-08-09T06:09:26.000Z</time>
</trkpt>
<trkpt lat="46.1545880" lon="10.4565650">
	<ele>2668.60</ele>
	<time>2023-08-09T06:09:27.000Z</time>
</trkpt>
<trkpt lat="46.1545940" lon="10.4565600">
	<ele>2668.80</ele>
	<time>2023-08-09T06:09:28.000Z</time>
</trkpt>
<trkpt lat="46.1545990" lon="10.4565570">
	<ele>2668.80</ele>
	<time>2023-08-09T06:09:29.000Z</time>
</trkpt>
<trkpt lat="46.1546050" lon="10.4565560">
	<ele>2669.00</ele>
	<time>2023-08-09T06:09:30.000Z</time>
</trkpt>
<trkpt lat="46.1546120" lon="10.4565520">
	<ele>2669.00</ele>
	<time>2023-08-09T06:09:31.000Z</time>
</trkpt>
<trkpt lat="46.1546170" lon="10.4565540">
	<ele>2669.00</ele>
	<time>2023-08-09T06:09:32.000Z</time>
</trkpt>
<trkpt lat="46.1546200" lon="10.4565540">
	<ele>2669.00</ele>
	<time>2023-08-09T06:09:33.000Z</time>
</trkpt>
<trkpt lat="46.1546230" lon="10.4565540">
	<ele>2669.00</ele>
	<time>2023-08-09T06:09:34.000Z</time>
</trkpt>
<trkpt lat="46.1546290" lon="10.4565550">
	<ele>2669.00</ele>
	<time>2023-08-09T06:09:35.000Z</time>
</trkpt>
<trkpt lat="46.1546340" lon="10.4565540">
	<ele>2669.20</ele>
	<time>2023-08-09T06:09:36.000Z</time>
</trkpt>
<trkpt lat="46.1546380" lon="10.4565530">
	<ele>2669.20</ele>
	<time>2023-08-09T06:09:37.000Z</time>
</trkpt>
<trkpt lat="46.1546420" lon="10.4565520">
	<ele>2669.00</ele>
	<time>2023-08-09T06:09:38.000Z</time>
</trkpt>
<trkpt lat="46.1546450" lon="10.4565520">
	<ele>2669.00</ele>
	<time>2023-08-09T06:09:39.000Z</time>
</trkpt>
<trkpt lat="46.1546530" lon="10.4565570">
	<ele>2669.00</ele>
	<time>2023-08-09T06:09:40.000Z</time>
</trkpt>
<trkpt lat="46.1546600" lon="10.4565590">
	<ele>2668.80</ele>
	<time>2023-08-09T06:09:41.000Z</time>
</trkpt>
<trkpt lat="46.1546670" lon="10.4565620">
	<ele>2668.80</ele>
	<time>2023-08-09T06:09:42.000Z</time>
</trkpt>
<trkpt lat="46.1546750" lon="10.4565660">
	<ele>2668.60</ele>
	<time>2023-08-09T06:09:43.000Z</time>
</trkpt>
<trkpt lat="46.1546810" lon="10.4565720">
	<ele>2668.60</ele>
	<time>2023-08-09T06:09:44.000Z</time>
</trkpt>
<trkpt lat="46.1546850" lon="10.4565730">
	<ele>2668.40</ele>
	<time>2023-08-09T06:09:45.000Z</time>
</trkpt>
<trkpt lat="46.1546870" lon="10.4565800">
	<ele>2668.40</ele>
	<time>2023-08-09T06:09:46.000Z</time>
</trkpt>
<trkpt lat="46.1546930" lon="10.4565820">
	<ele>2668.40</ele>
	<time>2023-08-09T06:09:47.000Z</time>
</trkpt>
<trkpt lat="46.1546970" lon="10.4565810">
	<ele>2668.40</ele>
	<time>2023-08-09T06:09:48.000Z</time>
</trkpt>
<trkpt lat="46.1547010" lon="10.4565800">
	<ele>2668.40</ele>
	<time>2023-08-09T06:09:49.000Z</time>
</trkpt>
<trkpt lat="46.1547020" lon="10.4565760">
	<ele>2668.40</ele>
	<time>2023-08-09T06:09:50.000Z</time>
</trkpt>
<trkpt lat="46.1547030" lon="10.4565720">
	<ele>2668.40</ele>
	<time>2023-08-09T06:09:51.000Z</time>
</trkpt>
<trkpt lat="46.1547030" lon="10.4565680">
	<ele>2668.40</ele>
	<time>2023-08-09T06:09:52.000Z</time>
</trkpt>
<trkpt lat="46.1547050" lon="10.4565600">
	<ele>2668.40</ele>
	<time>2023-08-09T06:09:53.000Z</time>
</trkpt>
<trkpt lat="46.1547080" lon="10.4565510">
	<ele>2668.40</ele>
	<time>2023-08-09T06:09:54.000Z</time>
</trkpt>
<trkpt lat="46.1547100" lon="10.4565450">
	<ele>2668.40</ele>
	<time>2023-08-09T06:09:55.000Z</time>
</trkpt>
<trkpt lat="46.1547170" lon="10.4565410">
	<ele>2668.20</ele>
	<time>2023-08-09T06:09:56.000Z</time>
</trkpt>
<trkpt lat="46.1547220" lon="10.4565420">
	<ele>2668.20</ele>
	<time>2023-08-09T06:09:57.000Z</time>
</trkpt>
<trkpt lat="46.1547250" lon="10.4565390">
	<ele>2668.20</ele>
	<time>2023-08-09T06:09:58.000Z</time>
</trkpt>
<trkpt lat="46.1547270" lon="10.4565380">
	<ele>2668.20</ele>
	<time>2023-08-09T06:09:59.000Z</time>
</trkpt>
<trkpt lat="46.1547310" lon="10.4565400">
	<ele>2668.20</ele>
	<time>2023-08-09T06:10:00.000Z</time>
</trkpt>
<trkpt lat="46.1547340" lon="10.4565370">
	<ele>2668.20</ele>
	<time>2023-08-09T06:10:01.000Z</time>
</trkpt>
<trkpt lat="46.1547400" lon="10.4565370">
	<ele>2668.20</ele>
	<time>2023-08-09T06:10:02.000Z</time>
</trkpt>
<trkpt lat="46.1547440" lon="10.4565370">
	<ele>2668.20</ele>
	<time>2023-08-09T06:10:03.000Z</time>
</trkpt>
<trkpt lat="46.1547470" lon="10.4565390">
	<ele>2668.20</ele>
	<time>2023-08-09T06:10:04.000Z</time>
</trkpt>
<trkpt lat="46.1547490" lon="10.4565400">
	<ele>2668.20</ele>
	<time>2023-08-09T06:10:05.000Z</time>
</trkpt>
<trkpt lat="46.1547540" lon="10.4565400">
	<ele>2668.20</ele>
	<time>2023-08-09T06:10:06.000Z</time>
</trkpt>
<trkpt lat="46.1547600" lon="10.4565380">
	<ele>2668.20</ele>
	<time>2023-08-09T06:10:07.000Z</time>
</trkpt>
<trkpt lat="46.1547650" lon="10.4565330">
	<ele>2668.20</ele>
	<time>2023-08-09T06:10:08.000Z</time>
</trkpt>
<trkpt lat="46.1547710" lon="10.4565280">
	<ele>2668.00</ele>
	<time>2023-08-09T06:10:09.000Z</time>
</trkpt>
<trkpt lat="46.1547740" lon="10.4565230">
	<ele>2668.00</ele>
	<time>2023-08-09T06:10:10.000Z</time>
</trkpt>
<trkpt lat="46.1547770" lon="10.4565220">
	<ele>2668.00</ele>
	<time>2023-08-09T06:10:11.000Z</time>
</trkpt>
<trkpt lat="46.1547820" lon="10.4565190">
	<ele>2668.00</ele>
	<time>2023-08-09T06:10:12.000Z</time>
</trkpt>
<trkpt lat="46.1547880" lon="10.4565160">
	<ele>2668.00</ele>
	<time>2023-08-09T06:10:13.000Z</time>
</trkpt>
<trkpt lat="46.1547960" lon="10.4565160">
	<ele>2668.00</ele>
	<time>2023-08-09T06:10:14.000Z</time>
</trkpt>
<trkpt lat="46.1548010" lon="10.4565140">
	<ele>2668.00</ele>
	<time>2023-08-09T06:10:15.000Z</time>
</trkpt>
<trkpt lat="46.1548030" lon="10.4565090">
	<ele>2668.00</ele>
	<time>2023-08-09T06:10:16.000Z</time>
</trkpt>
<trkpt lat="46.1548070" lon="10.4565090">
	<ele>2668.00</ele>
	<time>2023-08-09T06:10:17.000Z</time>
</trkpt>
<trkpt lat="46.1548130" lon="10.4565040">
	<ele>2668.00</ele>
	<time>2023-08-09T06:10:18.000Z</time>
</trkpt>
<trkpt lat="46.1548130" lon="10.4565050">
	<ele>2668.00</ele>
	<time>2023-08-09T06:10:19.000Z</time>
</trkpt>
<trkpt lat="46.1548130" lon="10.4565060">
	<ele>2668.00</ele>
	<time>2023-08-09T06:10:20.000Z</time>
</trkpt>
<trkpt lat="46.1548130" lon="10.4565080">
	<ele>2668.00</ele>
	<time>2023-08-09T06:10:21.000Z</time>
</trkpt>
<trkpt lat="46.1548120" lon="10.4565110">
	<ele>2668.00</ele>
	<time>2023-08-09T06:10:22.000Z</time>
</trkpt>
<trkpt lat="46.1548130" lon="10.4565140">
	<ele>2668.00</ele>
	<time>2023-08-09T06:10:23.000Z</time>
</trkpt>
<trkpt lat="46.1548130" lon="10.4565160">
	<ele>2668.00</ele>
	<time>2023-08-09T06:10:24.000Z</time>
</trkpt>
<trkpt lat="46.1548140" lon="10.4565180">
	<ele>2668.00</ele>
	<time>2023-08-09T06:10:25.000Z</time>
</trkpt>
<trkpt lat="46.1548150" lon="10.4565270">
	<ele>2668.00</ele>
	<time>2023-08-09T06:10:26.000Z</time>
</trkpt>
<trkpt lat="46.1548170" lon="10.4565300">
	<ele>2668.00</ele>
	<time>2023-08-09T06:10:27.000Z</time>
</trkpt>
<trkpt lat="46.1548210" lon="10.4565330">
	<ele>2668.00</ele>
	<time>2023-08-09T06:10:28.000Z</time>
</trkpt>
<trkpt lat="46.1548220" lon="10.4565340">
	<ele>2668.00</ele>
	<time>2023-08-09T06:10:29.000Z</time>
</trkpt>
<trkpt lat="46.1548200" lon="10.4565330">
	<ele>2667.80</ele>
	<time>2023-08-09T06:10:30.000Z</time>
</trkpt>
<trkpt lat="46.1548210" lon="10.4565320">
	<ele>2667.80</ele>
	<time>2023-08-09T06:10:31.000Z</time>
</trkpt>
<trkpt lat="46.1548250" lon="10.4565370">
	<ele>2667.60</ele>
	<time>2023-08-09T06:10:32.000Z</time>
</trkpt>
<trkpt lat="46.1548290" lon="10.4565370">
	<ele>2667.60</ele>
	<time>2023-08-09T06:10:33.000Z</time>
</trkpt>
<trkpt lat="46.1548330" lon="10.4565340">
	<ele>2667.60</ele>
	<time>2023-08-09T06:10:34.000Z</time>
</trkpt>
<trkpt lat="46.1548370" lon="10.4565310">
	<ele>2667.60</ele>
	<time>2023-08-09T06:10:35.000Z</time>
</trkpt>
<trkpt lat="46.1548460" lon="10.4565270">
	<ele>2667.60</ele>
	<time>2023-08-09T06:10:36.000Z</time>
</trkpt>
<trkpt lat="46.1548510" lon="10.4565260">
	<ele>2667.40</ele>
	<time>2023-08-09T06:10:37.000Z</time>
</trkpt>
<trkpt lat="46.1548540" lon="10.4565270">
	<ele>2667.40</ele>
	<time>2023-08-09T06:10:38.000Z</time>
</trkpt>
<trkpt lat="46.1548600" lon="10.4565330">
	<ele>2667.40</ele>
	<time>2023-08-09T06:10:39.000Z</time>
</trkpt>
<trkpt lat="46.1548660" lon="10.4565420">
	<ele>2667.20</ele>
	<time>2023-08-09T06:10:40.000Z</time>
</trkpt>
<trkpt lat="46.1548710" lon="10.4565500">
	<ele>2667.20</ele>
	<time>2023-08-09T06:10:41.000Z</time>
</trkpt>
<trkpt lat="46.1548710" lon="10.4565560">
	<ele>2667.00</ele>
	<time>2023-08-09T06:10:42.000Z</time>
</trkpt>
<trkpt lat="46.1548750" lon="10.4565650">
	<ele>2667.00</ele>
	<time>2023-08-09T06:10:43.000Z</time>
</trkpt>
<trkpt lat="46.1548790" lon="10.4565730">
	<ele>2666.80</ele>
	<time>2023-08-09T06:10:44.000Z</time>
</trkpt>
<trkpt lat="46.1548820" lon="10.4565770">
	<ele>2666.80</ele>
	<time>2023-08-09T06:10:45.000Z</time>
</trkpt>
<trkpt lat="46.1548840" lon="10.4565820">
	<ele>2666.80</ele>
	<time>2023-08-09T06:10:46.000Z</time>
</trkpt>
<trkpt lat="46.1548880" lon="10.4565890">
	<ele>2666.60</ele>
	<time>2023-08-09T06:10:47.000Z</time>
</trkpt>
<trkpt lat="46.1548940" lon="10.4565940">
	<ele>2666.60</ele>
	<time>2023-08-09T06:10:48.000Z</time>
</trkpt>
<trkpt lat="46.1549000" lon="10.4565960">
	<ele>2666.40</ele>
	<time>2023-08-09T06:10:49.000Z</time>
</trkpt>
<trkpt lat="46.1549050" lon="10.4565990">
	<ele>2666.40</ele>
	<time>2023-08-09T06:10:50.000Z</time>
</trkpt>
<trkpt lat="46.1549090" lon="10.4566050">
	<ele>2666.40</ele>
	<time>2023-08-09T06:10:51.000Z</time>
</trkpt>
<trkpt lat="46.1549140" lon="10.4566030">
	<ele>2666.40</ele>
	<time>2023-08-09T06:10:52.000Z</time>
</trkpt>
<trkpt lat="46.1549180" lon="10.4565990">
	<ele>2666.40</ele>
	<time>2023-08-09T06:10:53.000Z</time>
</trkpt>
<trkpt lat="46.1549250" lon="10.4565940">
	<ele>2666.40</ele>
	<time>2023-08-09T06:10:54.000Z</time>
</trkpt>
<trkpt lat="46.1549270" lon="10.4565920">
	<ele>2666.60</ele>
	<time>2023-08-09T06:10:55.000Z</time>
</trkpt>
<trkpt lat="46.1549290" lon="10.4565900">
	<ele>2666.80</ele>
	<time>2023-08-09T06:10:56.000Z</time>
</trkpt>
<trkpt lat="46.1549330" lon="10.4565850">
	<ele>2666.80</ele>
	<time>2023-08-09T06:10:57.000Z</time>
</trkpt>
<trkpt lat="46.1549340" lon="10.4565770">
	<ele>2667.00</ele>
	<time>2023-08-09T06:10:58.000Z</time>
</trkpt>
<trkpt lat="46.1549340" lon="10.4565700">
	<ele>2667.00</ele>
	<time>2023-08-09T06:10:59.000Z</time>
</trkpt>
<trkpt lat="46.1549390" lon="10.4565650">
	<ele>2667.20</ele>
	<time>2023-08-09T06:11:00.000Z</time>
</trkpt>
<trkpt lat="46.1549430" lon="10.4565600">
	<ele>2667.20</ele>
	<time>2023-08-09T06:11:01.000Z</time>
</trkpt>
<trkpt lat="46.1549480" lon="10.4565540">
	<ele>2667.20</ele>
	<time>2023-08-09T06:11:02.000Z</time>
</trkpt>
<trkpt lat="46.1549520" lon="10.4565510">
	<ele>2667.20</ele>
	<time>2023-08-09T06:11:03.000Z</time>
</trkpt>
<trkpt lat="46.1549540" lon="10.4565450">
	<ele>2667.20</ele>
	<time>2023-08-09T06:11:04.000Z</time>
</trkpt>
<trkpt lat="46.1549580" lon="10.4565400">
	<ele>2667.20</ele>
	<time>2023-08-09T06:11:05.000Z</time>
</trkpt>
<trkpt lat="46.1549600" lon="10.4565310">
	<ele>2667.20</ele>
	<time>2023-08-09T06:11:06.000Z</time>
</trkpt>
<trkpt lat="46.1549610" lon="10.4565200">
	<ele>2667.20</ele>
	<time>2023-08-09T06:11:07.000Z</time>
</trkpt>
<trkpt lat="46.1549640" lon="10.4565140">
	<ele>2667.20</ele>
	<time>2023-08-09T06:11:08.000Z</time>
</trkpt>
<trkpt lat="46.1549670" lon="10.4565130">
	<ele>2667.20</ele>
	<time>2023-08-09T06:11:09.000Z</time>
</trkpt>
<trkpt lat="46.1549710" lon="10.4565140">
	<ele>2667.40</ele>
	<time>2023-08-09T06:11:10.000Z</time>
</trkpt>
<trkpt lat="46.1549760" lon="10.4565160">
	<ele>2667.40</ele>
	<time>2023-08-09T06:11:11.000Z</time>
</trkpt>
<trkpt lat="46.1549790" lon="10.4565130">
	<ele>2667.40</ele>
	<time>2023-08-09T06:11:12.000Z</time>
</trkpt>
<trkpt lat="46.1549820" lon="10.4565080">
	<ele>2667.80</ele>
	<time>2023-08-09T06:11:13.000Z</time>
</trkpt>
<trkpt lat="46.1549870" lon="10.4564990">
	<ele>2668.00</ele>
	<time>2023-08-09T06:11:14.000Z</time>
</trkpt>
<trkpt lat="46.1549910" lon="10.4564930">
	<ele>2668.00</ele>
	<time>2023-08-09T06:11:15.000Z</time>
</trkpt>
<trkpt lat="46.1549980" lon="10.4564910">
	<ele>2668.20</ele>
	<time>2023-08-09T06:11:16.000Z</time>
</trkpt>
<trkpt lat="46.1550000" lon="10.4564870">
	<ele>2668.20</ele>
	<time>2023-08-09T06:11:17.000Z</time>
</trkpt>
<trkpt lat="46.1550060" lon="10.4564800">
	<ele>2668.20</ele>
	<time>2023-08-09T06:11:18.000Z</time>
</trkpt>
<trkpt lat="46.1550080" lon="10.4564740">
	<ele>2668.20</ele>
	<time>2023-08-09T06:11:19.000Z</time>
</trkpt>
<trkpt lat="46.1550070" lon="10.4564650">
	<ele>2668.20</ele>
	<time>2023-08-09T06:11:20.000Z</time>
</trkpt>
<trkpt lat="46.1550080" lon="10.4564560">
	<ele>2668.40</ele>
	<time>2023-08-09T06:11:21.000Z</time>
</trkpt>
<trkpt lat="46.1550070" lon="10.4564460">
	<ele>2668.40</ele>
	<time>2023-08-09T06:11:22.000Z</time>
</trkpt>
<trkpt lat="46.1550100" lon="10.4564390">
	<ele>2668.40</ele>
	<time>2023-08-09T06:11:23.000Z</time>
</trkpt>
<trkpt lat="46.1550150" lon="10.4564280">
	<ele>2668.40</ele>
	<time>2023-08-09T06:11:24.000Z</time>
</trkpt>
<trkpt lat="46.1550180" lon="10.4564190">
	<ele>2668.40</ele>
	<time>2023-08-09T06:11:25.000Z</time>
</trkpt>
<trkpt lat="46.1550220" lon="10.4564160">
	<ele>2668.40</ele>
	<time>2023-08-09T06:11:26.000Z</time>
</trkpt>
<trkpt lat="46.1550220" lon="10.4564060">
	<ele>2668.40</ele>
	<time>2023-08-09T06:11:27.000Z</time>
</trkpt>
<trkpt lat="46.1550230" lon="10.4563950">
	<ele>2668.40</ele>
	<time>2023-08-09T06:11:28.000Z</time>
</trkpt>
<trkpt lat="46.1550270" lon="10.4563870">
	<ele>2668.60</ele>
	<time>2023-08-09T06:11:29.000Z</time>
</trkpt>
<trkpt lat="46.1550310" lon="10.4563800">
	<ele>2668.60</ele>
	<time>2023-08-09T06:11:30.000Z</time>
</trkpt>
<trkpt lat="46.1550380" lon="10.4563760">
	<ele>2668.60</ele>
	<time>2023-08-09T06:11:31.000Z</time>
</trkpt>
<trkpt lat="46.1550450" lon="10.4563750">
	<ele>2668.60</ele>
	<time>2023-08-09T06:11:32.000Z</time>
</trkpt>
<trkpt lat="46.1550510" lon="10.4563760">
	<ele>2668.60</ele>
	<time>2023-08-09T06:11:33.000Z</time>
</trkpt>
<trkpt lat="46.1550590" lon="10.4563840">
	<ele>2668.80</ele>
	<time>2023-08-09T06:11:34.000Z</time>
</trkpt>
<trkpt lat="46.1550660" lon="10.4563890">
	<ele>2668.80</ele>
	<time>2023-08-09T06:11:35.000Z</time>
</trkpt>
<trkpt lat="46.1550720" lon="10.4563920">
	<ele>2668.80</ele>
	<time>2023-08-09T06:11:36.000Z</time>
</trkpt>
<trkpt lat="46.1550810" lon="10.4563970">
	<ele>2669.00</ele>
	<time>2023-08-09T06:11:37.000Z</time>
</trkpt>
<trkpt lat="46.1550890" lon="10.4564060">
	<ele>2669.00</ele>
	<time>2023-08-09T06:11:38.000Z</time>
</trkpt>
<trkpt lat="46.1550940" lon="10.4564110">
	<ele>2669.00</ele>
	<time>2023-08-09T06:11:39.000Z</time>
</trkpt>
<trkpt lat="46.1550990" lon="10.4564140">
	<ele>2669.00</ele>
	<time>2023-08-09T06:11:40.000Z</time>
</trkpt>
<trkpt lat="46.1551050" lon="10.4564170">
	<ele>2669.00</ele>
	<time>2023-08-09T06:11:41.000Z</time>
</trkpt>
<trkpt lat="46.1551100" lon="10.4564170">
	<ele>2669.20</ele>
	<time>2023-08-09T06:11:42.000Z</time>
</trkpt>
<trkpt lat="46.1551140" lon="10.4564160">
	<ele>2669.20</ele>
	<time>2023-08-09T06:11:43.000Z</time>
</trkpt>
<trkpt lat="46.1551190" lon="10.4564110">
	<ele>2669.40</ele>
	<time>2023-08-09T06:11:44.000Z</time>
</trkpt>
<trkpt lat="46.1551250" lon="10.4564060">
	<ele>2669.40</ele>
	<time>2023-08-09T06:11:45.000Z</time>
</trkpt>
<trkpt lat="46.1551260" lon="10.4564020">
	<ele>2669.60</ele>
	<time>2023-08-09T06:11:46.000Z</time>
</trkpt>
<trkpt lat="46.1551290" lon="10.4563980">
	<ele>2669.80</ele>
	<time>2023-08-09T06:11:47.000Z</time>
</trkpt>
<trkpt lat="46.1551330" lon="10.4563970">
	<ele>2669.80</ele>
	<time>2023-08-09T06:11:48.000Z</time>
</trkpt>
<trkpt lat="46.1551370" lon="10.4563940">
	<ele>2669.80</ele>
	<time>2023-08-09T06:11:49.000Z</time>
</trkpt>
<trkpt lat="46.1551410" lon="10.4563910">
	<ele>2669.80</ele>
	<time>2023-08-09T06:11:50.000Z</time>
</trkpt>
<trkpt lat="46.1551440" lon="10.4563900">
	<ele>2669.80</ele>
	<time>2023-08-09T06:11:51.000Z</time>
</trkpt>
<trkpt lat="46.1551510" lon="10.4563930">
	<ele>2669.80</ele>
	<time>2023-08-09T06:11:52.000Z</time>
</trkpt>
<trkpt lat="46.1551610" lon="10.4563980">
	<ele>2669.80</ele>
	<time>2023-08-09T06:11:53.000Z</time>
</trkpt>
<trkpt lat="46.1551710" lon="10.4564070">
	<ele>2669.80</ele>
	<time>2023-08-09T06:11:54.000Z</time>
</trkpt>
<trkpt lat="46.1551790" lon="10.4564160">
	<ele>2670.00</ele>
	<time>2023-08-09T06:11:55.000Z</time>
</trkpt>
<trkpt lat="46.1551830" lon="10.4564210">
	<ele>2670.00</ele>
	<time>2023-08-09T06:11:56.000Z</time>
</trkpt>
<trkpt lat="46.1551860" lon="10.4564230">
	<ele>2670.00</ele>
	<time>2023-08-09T06:11:57.000Z</time>
</trkpt>
<trkpt lat="46.1551890" lon="10.4564230">
	<ele>2670.00</ele>
	<time>2023-08-09T06:11:58.000Z</time>
</trkpt>
<trkpt lat="46.1551960" lon="10.4564220">
	<ele>2670.20</ele>
	<time>2023-08-09T06:11:59.000Z</time>
</trkpt>
<trkpt lat="46.1552010" lon="10.4564210">
	<ele>2670.20</ele>
	<time>2023-08-09T06:12:00.000Z</time>
</trkpt>
<trkpt lat="46.1552070" lon="10.4564170">
	<ele>2670.40</ele>
	<time>2023-08-09T06:12:01.000Z</time>
</trkpt>
<trkpt lat="46.1552100" lon="10.4564100">
	<ele>2670.40</ele>
	<time>2023-08-09T06:12:02.000Z</time>
</trkpt>
<trkpt lat="46.1552140" lon="10.4564060">
	<ele>2670.40</ele>
	<time>2023-08-09T06:12:03.000Z</time>
</trkpt>
<trkpt lat="46.1552160" lon="10.4563990">
	<ele>2670.60</ele>
	<time>2023-08-09T06:12:04.000Z</time>
</trkpt>
<trkpt lat="46.1552230" lon="10.4563980">
	<ele>2670.80</ele>
	<time>2023-08-09T06:12:05.000Z</time>
</trkpt>
<trkpt lat="46.1552300" lon="10.4564010">
	<ele>2671.00</ele>
	<time>2023-08-09T06:12:06.000Z</time>
</trkpt>
<trkpt lat="46.1552330" lon="10.4564030">
	<ele>2671.00</ele>
	<time>2023-08-09T06:12:07.000Z</time>
</trkpt>
<trkpt lat="46.1552400" lon="10.4564060">
	<ele>2671.00</ele>
	<time>2023-08-09T06:12:08.000Z</time>
</trkpt>
<trkpt lat="46.1552470" lon="10.4564050">
	<ele>2671.00</ele>
	<time>2023-08-09T06:12:09.000Z</time>
</trkpt>
<trkpt lat="46.1552550" lon="10.4564080">
	<ele>2671.00</ele>
	<time>2023-08-09T06:12:10.000Z</time>
</trkpt>
<trkpt lat="46.1552620" lon="10.4564110">
	<ele>2671.20</ele>
	<time>2023-08-09T06:12:11.000Z</time>
</trkpt>
<trkpt lat="46.1552680" lon="10.4564140">
	<ele>2671.20</ele>
	<time>2023-08-09T06:12:12.000Z</time>
</trkpt>
<trkpt lat="46.1552730" lon="10.4564210">
	<ele>2671.20</ele>
	<time>2023-08-09T06:12:13.000Z</time>
</trkpt>
<trkpt lat="46.1552790" lon="10.4564280">
	<ele>2671.20</ele>
	<time>2023-08-09T06:12:14.000Z</time>
</trkpt>
<trkpt lat="46.1552840" lon="10.4564380">
	<ele>2671.20</ele>
	<time>2023-08-09T06:12:15.000Z</time>
</trkpt>
<trkpt lat="46.1552840" lon="10.4564460">
	<ele>2671.20</ele>
	<time>2023-08-09T06:12:16.000Z</time>
</trkpt>
<trkpt lat="46.1552870" lon="10.4564510">
	<ele>2671.20</ele>
	<time>2023-08-09T06:12:17.000Z</time>
</trkpt>
<trkpt lat="46.1552880" lon="10.4564560">
	<ele>2671.40</ele>
	<time>2023-08-09T06:12:18.000Z</time>
</trkpt>
<trkpt lat="46.1552880" lon="10.4564600">
	<ele>2671.60</ele>
	<time>2023-08-09T06:12:19.000Z</time>
</trkpt>
<trkpt lat="46.1552890" lon="10.4564620">
	<ele>2671.80</ele>
	<time>2023-08-09T06:12:20.000Z</time>
</trkpt>
<trkpt lat="46.1552900" lon="10.4564600">
	<ele>2671.80</ele>
	<time>2023-08-09T06:12:21.000Z</time>
</trkpt>
<trkpt lat="46.1552900" lon="10.4564590">
	<ele>2672.00</ele>
	<time>2023-08-09T06:12:22.000Z</time>
</trkpt>
<trkpt lat="46.1552890" lon="10.4564590">
	<ele>2672.00</ele>
	<time>2023-08-09T06:12:23.000Z</time>
</trkpt>
<trkpt lat="46.1552850" lon="10.4564640">
	<ele>2672.00</ele>
	<time>2023-08-09T06:12:24.000Z</time>
</trkpt>
<trkpt lat="46.1552850" lon="10.4564730">
	<ele>2672.00</ele>
	<time>2023-08-09T06:12:25.000Z</time>
</trkpt>
<trkpt lat="46.1552850" lon="10.4564840">
	<ele>2672.00</ele>
	<time>2023-08-09T06:12:26.000Z</time>
</trkpt>
<trkpt lat="46.1552850" lon="10.4564930">
	<ele>2672.00</ele>
	<time>2023-08-09T06:12:27.000Z</time>
</trkpt>
<trkpt lat="46.1552870" lon="10.4565040">
	<ele>2672.00</ele>
	<time>2023-08-09T06:12:28.000Z</time>
</trkpt>
<trkpt lat="46.1552890" lon="10.4565100">
	<ele>2672.20</ele>
	<time>2023-08-09T06:12:29.000Z</time>
</trkpt>
<trkpt lat="46.1552900" lon="10.4565140">
	<ele>2672.20</ele>
	<time>2023-08-09T06:12:30.000Z</time>
</trkpt>
<trkpt lat="46.1552900" lon="10.4565180">
	<ele>2672.40</ele>
	<time>2023-08-09T06:12:31.000Z</time>
</trkpt>
<trkpt lat="46.1552900" lon="10.4565170">
	<ele>2672.60</ele>
	<time>2023-08-09T06:12:32.000Z</time>
</trkpt>
<trkpt lat="46.1552940" lon="10.4565150">
	<ele>2672.80</ele>
	<time>2023-08-09T06:12:33.000Z</time>
</trkpt>
<trkpt lat="46.1552980" lon="10.4565160">
	<ele>2672.80</ele>
	<time>2023-08-09T06:12:34.000Z</time>
</trkpt>
<trkpt lat="46.1553010" lon="10.4565170">
	<ele>2673.00</ele>
	<time>2023-08-09T06:12:35.000Z</time>
</trkpt>
<trkpt lat="46.1553030" lon="10.4565150">
	<ele>2673.00</ele>
	<time>2023-08-09T06:12:36.000Z</time>
</trkpt>
<trkpt lat="46.1553070" lon="10.4565120">
	<ele>2673.20</ele>
	<time>2023-08-09T06:12:37.000Z</time>
</trkpt>
<trkpt lat="46.1553100" lon="10.4565080">
	<ele>2673.20</ele>
	<time>2023-08-09T06:12:38.000Z</time>
</trkpt>
<trkpt lat="46.1553150" lon="10.4565060">
	<ele>2673.20</ele>
	<time>2023-08-09T06:12:39.000Z</time>
</trkpt>
<trkpt lat="46.1553210" lon="10.4565060">
	<ele>2673.00</ele>
	<time>2023-08-09T06:12:40.000Z</time>
</trkpt>
<trkpt lat="46.1553280" lon="10.4565040">
	<ele>2672.80</ele>
	<time>2023-08-09T06:12:41.000Z</time>
</trkpt>
<trkpt lat="46.1553340" lon="10.4565080">
	<ele>2672.60</ele>
	<time>2023-08-09T06:12:42.000Z</time>
</trkpt>
<trkpt lat="46.1553430" lon="10.4565120">
	<ele>2672.60</ele>
	<time>2023-08-09T06:12:43.000Z</time>
</trkpt>
<trkpt lat="46.1553470" lon="10.4565160">
	<ele>2672.40</ele>
	<time>2023-08-09T06:12:44.000Z</time>
</trkpt>
<trkpt lat="46.1553530" lon="10.4565200">
	<ele>2672.40</ele>
	<time>2023-08-09T06:12:45.000Z</time>
</trkpt>
<trkpt lat="46.1553570" lon="10.4565290">
	<ele>2672.40</ele>
	<time>2023-08-09T06:12:46.000Z</time>
</trkpt>
<trkpt lat="46.1553600" lon="10.4565400">
	<ele>2672.20</ele>
	<time>2023-08-09T06:12:47.000Z</time>
</trkpt>
<trkpt lat="46.1553620" lon="10.4565460">
	<ele>2672.20</ele>
	<time>2023-08-09T06:12:48.000Z</time>
</trkpt>
<trkpt lat="46.1553640" lon="10.4565550">
	<ele>2672.20</ele>
	<time>2023-08-09T06:12:49.000Z</time>
</trkpt>
<trkpt lat="46.1553680" lon="10.4565630">
	<ele>2672.20</ele>
	<time>2023-08-09T06:12:50.000Z</time>
</trkpt>
<trkpt lat="46.1553710" lon="10.4565680">
	<ele>2672.40</ele>
	<time>2023-08-09T06:12:51.000Z</time>
</trkpt>
<trkpt lat="46.1553750" lon="10.4565720">
	<ele>2672.20</ele>
	<time>2023-08-09T06:12:52.000Z</time>
</trkpt>
<trkpt lat="46.1553790" lon="10.4565760">
	<ele>2672.20</ele>
	<time>2023-08-09T06:12:53.000Z</time>
</trkpt>
<trkpt lat="46.1553820" lon="10.4565830">
	<ele>2672.20</ele>
	<time>2023-08-09T06:12:54.000Z</time>
</trkpt>
<trkpt lat="46.1553850" lon="10.4565890">
	<ele>2672.20</ele>
	<time>2023-08-09T06:12:55.000Z</time>
</trkpt>
<trkpt lat="46.1553880" lon="10.4565940">
	<ele>2672.00</ele>
	<time>2023-08-09T06:12:56.000Z</time>
</trkpt>
<trkpt lat="46.1553900" lon="10.4566030">
	<ele>2672.00</ele>
	<time>2023-08-09T06:12:57.000Z</time>
</trkpt>
<trkpt lat="46.1553920" lon="10.4566150">
	<ele>2671.80</ele>
	<time>2023-08-09T06:12:58.000Z</time>
</trkpt>
<trkpt lat="46.1553960" lon="10.4566250">
	<ele>2671.80</ele>
	<time>2023-08-09T06:12:59.000Z</time>
</trkpt>
<trkpt lat="46.1553980" lon="10.4566330">
	<ele>2671.80</ele>
	<time>2023-08-09T06:13:00.000Z</time>
</trkpt>
<trkpt lat="46.1553990" lon="10.4566430">
	<ele>2671.60</ele>
	<time>2023-08-09T06:13:01.000Z</time>
</trkpt>
<trkpt lat="46.1554030" lon="10.4566480">
	<ele>2671.60</ele>
	<time>2023-08-09T06:13:02.000Z</time>
</trkpt>
<trkpt lat="46.1554060" lon="10.4566520">
	<ele>2671.40</ele>
	<time>2023-08-09T06:13:03.000Z</time>
</trkpt>
<trkpt lat="46.1554110" lon="10.4566600">
	<ele>2671.20</ele>
	<time>2023-08-09T06:13:04.000Z</time>
</trkpt>
<trkpt lat="46.1554160" lon="10.4566650">
	<ele>2671.00</ele>
	<time>2023-08-09T06:13:05.000Z</time>
</trkpt>
<trkpt lat="46.1554210" lon="10.4566700">
	<ele>2671.00</ele>
	<time>2023-08-09T06:13:06.000Z</time>
</trkpt>
<trkpt lat="46.1554270" lon="10.4566740">
	<ele>2670.80</ele>
	<time>2023-08-09T06:13:07.000Z</time>
</trkpt>
<trkpt lat="46.1554310" lon="10.4566770">
	<ele>2670.80</ele>
	<time>2023-08-09T06:13:08.000Z</time>
</trkpt>
<trkpt lat="46.1554350" lon="10.4566810">
	<ele>2670.80</ele>
	<time>2023-08-09T06:13:09.000Z</time>
</trkpt>
<trkpt lat="46.1554390" lon="10.4566860">
	<ele>2670.80</ele>
	<time>2023-08-09T06:13:10.000Z</time>
</trkpt>
<trkpt lat="46.1554460" lon="10.4566910">
	<ele>2670.80</ele>
	<time>2023-08-09T06:13:11.000Z</time>
</trkpt>
<trkpt lat="46.1554510" lon="10.4566940">
	<ele>2670.80</ele>
	<time>2023-08-09T06:13:12.000Z</time>
</trkpt>
<trkpt lat="46.1554570" lon="10.4566920">
	<ele>2670.80</ele>
	<time>2023-08-09T06:13:13.000Z</time>
</trkpt>
<trkpt lat="46.1554650" lon="10.4566910">
	<ele>2670.80</ele>
	<time>2023-08-09T06:13:14.000Z</time>
</trkpt>
<trkpt lat="46.1554720" lon="10.4566930">
	<ele>2670.80</ele>
	<time>2023-08-09T06:13:15.000Z</time>
</trkpt>
<trkpt lat="46.1554780" lon="10.4566950">
	<ele>2670.60</ele>
	<time>2023-08-09T06:13:16.000Z</time>
</trkpt>
<trkpt lat="46.1554810" lon="10.4566980">
	<ele>2670.60</ele>
	<time>2023-08-09T06:13:17.000Z</time>
</trkpt>
<trkpt lat="46.1554890" lon="10.4566980">
	<ele>2670.40</ele>
	<time>2023-08-09T06:13:18.000Z</time>
</trkpt>
<trkpt lat="46.1554960" lon="10.4567050">
	<ele>2670.40</ele>
	<time>2023-08-09T06:13:19.000Z</time>
</trkpt>
<trkpt lat="46.1554990" lon="10.4567140">
	<ele>2670.40</ele>
	<time>2023-08-09T06:13:20.000Z</time>
</trkpt>
<trkpt lat="46.1554980" lon="10.4567230">
	<ele>2670.40</ele>
	<time>2023-08-09T06:13:21.000Z</time>
</trkpt>
<trkpt lat="46.1554970" lon="10.4567350">
	<ele>2670.20</ele>
	<time>2023-08-09T06:13:22.000Z</time>
</trkpt>
<trkpt lat="46.1555000" lon="10.4567470">
	<ele>2670.20</ele>
	<time>2023-08-09T06:13:23.000Z</time>
</trkpt>
<trkpt lat="46.1555050" lon="10.4567550">
	<ele>2670.00</ele>
	<time>2023-08-09T06:13:24.000Z</time>
</trkpt>
<trkpt lat="46.1555080" lon="10.4567640">
	<ele>2670.00</ele>
	<time>2023-08-09T06:13:25.000Z</time>
</trkpt>
<trkpt lat="46.1555110" lon="10.4567700">
	<ele>2670.00</ele>
	<time>2023-08-09T06:13:26.000Z</time>
</trkpt>
<trkpt lat="46.1555120" lon="10.4567800">
	<ele>2670.00</ele>
	<time>2023-08-09T06:13:27.000Z</time>
</trkpt>
<trkpt lat="46.1555130" lon="10.4567870">
	<ele>2669.80</ele>
	<time>2023-08-09T06:13:28.000Z</time>
</trkpt>
<trkpt lat="46.1555180" lon="10.4567940">
	<ele>2669.80</ele>
	<time>2023-08-09T06:13:29.000Z</time>
</trkpt>
<trkpt lat="46.1555200" lon="10.4567970">
	<ele>2669.80</ele>
	<time>2023-08-09T06:13:30.000Z</time>
</trkpt>
<trkpt lat="46.1555230" lon="10.4568000">
	<ele>2669.60</ele>
	<time>2023-08-09T06:13:31.000Z</time>
</trkpt>
<trkpt lat="46.1555240" lon="10.4568000">
	<ele>2669.40</ele>
	<time>2023-08-09T06:13:32.000Z</time>
</trkpt>
<trkpt lat="46.1555230" lon="10.4568040">
	<ele>2669.40</ele>
	<time>2023-08-09T06:13:33.000Z</time>
</trkpt>
<trkpt lat="46.1555240" lon="10.4568060">
	<ele>2669.40</ele>
	<time>2023-08-09T06:13:34.000Z</time>
</trkpt>
<trkpt lat="46.1555270" lon="10.4568060">
	<ele>2669.20</ele>
	<time>2023-08-09T06:13:35.000Z</time>
</trkpt>
<trkpt lat="46.1555310" lon="10.4568030">
	<ele>2669.20</ele>
	<time>2023-08-09T06:13:36.000Z</time>
</trkpt>
<trkpt lat="46.1555320" lon="10.4568040">
	<ele>2669.40</ele>
	<time>2023-08-09T06:13:37.000Z</time>
</trkpt>
<trkpt lat="46.1555340" lon="10.4568030">
	<ele>2669.40</ele>
	<time>2023-08-09T06:13:38.000Z</time>
</trkpt>
<trkpt lat="46.1555350" lon="10.4568030">
	<ele>2669.60</ele>
	<time>2023-08-09T06:13:39.000Z</time>
</trkpt>
<trkpt lat="46.1555350" lon="10.4568030">
	<ele>2669.60</ele>
	<time>2023-08-09T06:13:40.000Z</time>
</trkpt>
<trkpt lat="46.1555350" lon="10.4568030">
	<ele>2669.60</ele>
	<time>2023-08-09T06:13:41.000Z</time>
</trkpt>
<trkpt lat="46.1555350" lon="10.4568030">
	<ele>2669.80</ele>
	<time>2023-08-09T06:13:42.000Z</time>
</trkpt>
<trkpt lat="46.1555350" lon="10.4568030">
	<ele>2669.80</ele>
	<time>2023-08-09T06:13:43.000Z</time>
</trkpt>
<trkpt lat="46.1555350" lon="10.4568030">
	<ele>2669.80</ele>
	<time>2023-08-09T06:13:44.000Z</time>
</trkpt>
<trkpt lat="46.1555350" lon="10.4568030">
	<ele>2669.80</ele>
	<time>2023-08-09T06:13:45.000Z</time>
</trkpt>
<trkpt lat="46.1555350" lon="10.4568030">
	<ele>2669.80</ele>
	<time>2023-08-09T06:13:46.000Z</time>
</trkpt>
<trkpt lat="46.1555350" lon="10.4568030">
	<ele>2669.80</ele>
	<time>2023-08-09T06:13:47.000Z</time>
</trkpt>
<trkpt lat="46.1555350" lon="10.4568030">
	<ele>2670.00</ele>
	<time>2023-08-09T06:13:48.000Z</time>
</trkpt>
<trkpt lat="46.1555350" lon="10.4568030">
	<ele>2670.00</ele>
	<time>2023-08-09T06:13:49.000Z</time>
</trkpt>
<trkpt lat="46.1555350" lon="10.4568030">
	<ele>2670.00</ele>
	<time>2023-08-09T06:13:50.000Z</time>
</trkpt>
<trkpt lat="46.1555350" lon="10.4568030">
	<ele>2669.80</ele>
	<time>2023-08-09T06:13:51.000Z</time>
</trkpt>
<trkpt lat="46.1555350" lon="10.4568040">
	<ele>2669.80</ele>
	<time>2023-08-09T06:13:52.000Z</time>
</trkpt>
<trkpt lat="46.1555350" lon="10.4568040">
	<ele>2669.80</ele>
	<time>2023-08-09T06:13:53.000Z</time>
</trkpt>
<trkpt lat="46.1555350" lon="10.4568040">
	<ele>2669.80</ele>
	<time>2023-08-09T06:13:54.000Z</time>
</trkpt>
<trkpt lat="46.1555350" lon="10.4568040">
	<ele>2669.80</ele>
	<time>2023-08-09T06:13:55.000Z</time>
</trkpt>
<trkpt lat="46.1555340" lon="10.4568040">
	<ele>2669.80</ele>
	<time>2023-08-09T06:13:56.000Z</time>
</trkpt>
<trkpt lat="46.1555340" lon="10.4568050">
	<ele>2669.80</ele>
	<time>2023-08-09T06:13:57.000Z</time>
</trkpt>
<trkpt lat="46.1555340" lon="10.4568050">
	<ele>2669.80</ele>
	<time>2023-08-09T06:13:58.000Z</time>
</trkpt>
<trkpt lat="46.1555330" lon="10.4568060">
	<ele>2669.80</ele>
	<time>2023-08-09T06:13:59.000Z</time>
</trkpt>
<trkpt lat="46.1555330" lon="10.4568060">
	<ele>2669.80</ele>
	<time>2023-08-09T06:14:00.000Z</time>
</trkpt>
<trkpt lat="46.1555320" lon="10.4568060">
	<ele>2669.80</ele>
	<time>2023-08-09T06:14:01.000Z</time>
</trkpt>
<trkpt lat="46.1555320" lon="10.4568060">
	<ele>2669.80</ele>
	<time>2023-08-09T06:14:02.000Z</time>
</trkpt>
<trkpt lat="46.1555320" lon="10.4568070">
	<ele>2669.80</ele>
	<time>2023-08-09T06:14:03.000Z</time>
</trkpt>
<trkpt lat="46.1555320" lon="10.4568070">
	<ele>2669.80</ele>
	<time>2023-08-09T06:14:04.000Z</time>
</trkpt>
<trkpt lat="46.1555320" lon="10.4568080">
	<ele>2669.80</ele>
	<time>2023-08-09T06:14:05.000Z</time>
</trkpt>
<trkpt lat="46.1555320" lon="10.4568080">
	<ele>2669.80</ele>
	<time>2023-08-09T06:14:06.000Z</time>
</trkpt>
<trkpt lat="46.1555310" lon="10.4568080">
	<ele>2669.80</ele>
	<time>2023-08-09T06:14:07.000Z</time>
</trkpt>
<trkpt lat="46.1555290" lon="10.4568100">
	<ele>2669.80</ele>
	<time>2023-08-09T06:14:08.000Z</time>
</trkpt>
<trkpt lat="46.1555290" lon="10.4568110">
	<ele>2669.80</ele>
	<time>2023-08-09T06:14:09.000Z</time>
</trkpt>
<trkpt lat="46.1555290" lon="10.4568110">
	<ele>2669.80</ele>
	<time>2023-08-09T06:14:10.000Z</time>
</trkpt>
<trkpt lat="46.1555290" lon="10.4568110">
	<ele>2669.80</ele>
	<time>2023-08-09T06:14:11.000Z</time>
</trkpt>
<trkpt lat="46.1555290" lon="10.4568110">
	<ele>2669.80</ele>
	<time>2023-08-09T06:14:12.000Z</time>
</trkpt>
<trkpt lat="46.1555290" lon="10.4568120">
	<ele>2669.80</ele>
	<time>2023-08-09T06:14:13.000Z</time>
</trkpt>
<trkpt lat="46.1555290" lon="10.4568120">
	<ele>2669.80</ele>
	<time>2023-08-09T06:14:14.000Z</time>
</trkpt>
<trkpt lat="46.1555290" lon="10.4568150">
	<ele>2669.80</ele>
	<time>2023-08-09T06:14:15.000Z</time>
</trkpt>
<trkpt lat="46.1555290" lon="10.4568160">
	<ele>2669.80</ele>
	<time>2023-08-09T06:14:16.000Z</time>
</trkpt>
<trkpt lat="46.1555290" lon="10.4568160">
	<ele>2669.80</ele>
	<time>2023-08-09T06:14:17.000Z</time>
</trkpt>
<trkpt lat="46.1555290" lon="10.4568180">
	<ele>2669.80</ele>
	<time>2023-08-09T06:14:18.000Z</time>
</trkpt>
<trkpt lat="46.1555290" lon="10.4568190">
	<ele>2669.80</ele>
	<time>2023-08-09T06:14:19.000Z</time>
</trkpt>
<trkpt lat="46.1555290" lon="10.4568200">
	<ele>2669.80</ele>
	<time>2023-08-09T06:14:20.000Z</time>
</trkpt>
<trkpt lat="46.1555290" lon="10.4568200">
	<ele>2669.80</ele>
	<time>2023-08-09T06:14:21.000Z</time>
</trkpt>
<trkpt lat="46.1555290" lon="10.4568210">
	<ele>2669.80</ele>
	<time>2023-08-09T06:14:22.000Z</time>
</trkpt>
<trkpt lat="46.1555280" lon="10.4568220">
	<ele>2669.80</ele>
	<time>2023-08-09T06:14:23.000Z</time>
</trkpt>
<trkpt lat="46.1555280" lon="10.4568220">
	<ele>2669.60</ele>
	<time>2023-08-09T06:14:24.000Z</time>
</trkpt>
<trkpt lat="46.1555270" lon="10.4568230">
	<ele>2669.60</ele>
	<time>2023-08-09T06:14:25.000Z</time>
</trkpt>
<trkpt lat="46.1555270" lon="10.4568240">
	<ele>2669.60</ele>
	<time>2023-08-09T06:14:26.000Z</time>
</trkpt>
<trkpt lat="46.1555270" lon="10.4568240">
	<ele>2669.60</ele>
	<time>2023-08-09T06:14:27.000Z</time>
</trkpt>
<trkpt lat="46.1555270" lon="10.4568250">
	<ele>2669.80</ele>
	<time>2023-08-09T06:14:28.000Z</time>
</trkpt>
<trkpt lat="46.1555270" lon="10.4568250">
	<ele>2669.80</ele>
	<time>2023-08-09T06:14:29.000Z</time>
</trkpt>
<trkpt lat="46.1555270" lon="10.4568260">
	<ele>2670.00</ele>
	<time>2023-08-09T06:14:30.000Z</time>
</trkpt>
<trkpt lat="46.1555270" lon="10.4568260">
	<ele>2670.00</ele>
	<time>2023-08-09T06:14:31.000Z</time>
</trkpt>
<trkpt lat="46.1555270" lon="10.4568260">
	<ele>2670.00</ele>
	<time>2023-08-09T06:14:32.000Z</time>
</trkpt>
<trkpt lat="46.1555270" lon="10.4568290">
	<ele>2670.00</ele>
	<time>2023-08-09T06:14:33.000Z</time>
</trkpt>
<trkpt lat="46.1555270" lon="10.4568300">
	<ele>2670.20</ele>
	<time>2023-08-09T06:14:34.000Z</time>
</trkpt>
<trkpt lat="46.1555270" lon="10.4568310">
	<ele>2670.20</ele>
	<time>2023-08-09T06:14:35.000Z</time>
</trkpt>
<trkpt lat="46.1555270" lon="10.4568310">
	<ele>2670.20</ele>
	<time>2023-08-09T06:14:36.000Z</time>
</trkpt>
<trkpt lat="46.1555270" lon="10.4568320">
	<ele>2670.00</ele>
	<time>2023-08-09T06:14:37.000Z</time>
</trkpt>
<trkpt lat="46.1555270" lon="10.4568330">
	<ele>2670.00</ele>
	<time>2023-08-09T06:14:38.000Z</time>
</trkpt>
<trkpt lat="46.1555270" lon="10.4568340">
	<ele>2670.00</ele>
	<time>2023-08-09T06:14:39.000Z</time>
</trkpt>
<trkpt lat="46.1555270" lon="10.4568340">
	<ele>2669.80</ele>
	<time>2023-08-09T06:14:40.000Z</time>
</trkpt>
<trkpt lat="46.1555270" lon="10.4568350">
	<ele>2669.80</ele>
	<time>2023-08-09T06:14:41.000Z</time>
</trkpt>
<trkpt lat="46.1555270" lon="10.4568350">
	<ele>2669.80</ele>
	<time>2023-08-09T06:14:42.000Z</time>
</trkpt>
<trkpt lat="46.1555270" lon="10.4568350">
	<ele>2669.80</ele>
	<time>2023-08-09T06:14:43.000Z</time>
</trkpt>
<trkpt lat="46.1555270" lon="10.4568350">
	<ele>2669.80</ele>
	<time>2023-08-09T06:14:44.000Z</time>
</trkpt>
<trkpt lat="46.1555270" lon="10.4568350">
	<ele>2669.80</ele>
	<time>2023-08-09T06:14:45.000Z</time>
</trkpt>
<trkpt lat="46.1555270" lon="10.4568350">
	<ele>2669.80</ele>
	<time>2023-08-09T06:14:46.000Z</time>
</trkpt>
<trkpt lat="46.1555270" lon="10.4568350">
	<ele>2670.00</ele>
	<time>2023-08-09T06:14:47.000Z</time>
</trkpt>
<trkpt lat="46.1555270" lon="10.4568350">
	<ele>2670.00</ele>
	<time>2023-08-09T06:14:48.000Z</time>
</trkpt>
<trkpt lat="46.1555270" lon="10.4568360">
	<ele>2670.00</ele>
	<time>2023-08-09T06:14:49.000Z</time>
</trkpt>
<trkpt lat="46.1555270" lon="10.4568360">
	<ele>2670.00</ele>
	<time>2023-08-09T06:14:50.000Z</time>
</trkpt>
<trkpt lat="46.1555270" lon="10.4568360">
	<ele>2670.00</ele>
	<time>2023-08-09T06:14:51.000Z</time>
</trkpt>
<trkpt lat="46.1555270" lon="10.4568360">
	<ele>2670.00</ele>
	<time>2023-08-09T06:14:52.000Z</time>
</trkpt>
<trkpt lat="46.1555260" lon="10.4568360">
	<ele>2669.80</ele>
	<time>2023-08-09T06:14:53.000Z</time>
</trkpt>
<trkpt lat="46.1555260" lon="10.4568360">
	<ele>2669.80</ele>
	<time>2023-08-09T06:14:54.000Z</time>
</trkpt>
<trkpt lat="46.1555260" lon="10.4568370">
	<ele>2670.00</ele>
	<time>2023-08-09T06:14:55.000Z</time>
</trkpt>
<trkpt lat="46.1555260" lon="10.4568370">
	<ele>2670.20</ele>
	<time>2023-08-09T06:14:56.000Z</time>
</trkpt>
<trkpt lat="46.1555260" lon="10.4568370">
	<ele>2670.20</ele>
	<time>2023-08-09T06:14:57.000Z</time>
</trkpt>
<trkpt lat="46.1555260" lon="10.4568370">
	<ele>2670.20</ele>
	<time>2023-08-09T06:14:58.000Z</time>
</trkpt>
<trkpt lat="46.1555260" lon="10.4568370">
	<ele>2670.20</ele>
	<time>2023-08-09T06:14:59.000Z</time>
</trkpt>
<trkpt lat="46.1555250" lon="10.4568380">
	<ele>2670.20</ele>
	<time>2023-08-09T06:15:00.000Z</time>
</trkpt>
<trkpt lat="46.1555250" lon="10.4568400">
	<ele>2670.20</ele>
	<time>2023-08-09T06:15:01.000Z</time>
</trkpt>
<trkpt lat="46.1555210" lon="10.4568410">
	<ele>2670.20</ele>
	<time>2023-08-09T06:15:02.000Z</time>
</trkpt>
<trkpt lat="46.1555190" lon="10.4568420">
	<ele>2670.20</ele>
	<time>2023-08-09T06:15:03.000Z</time>
</trkpt>
<trkpt lat="46.1555180" lon="10.4568420">
	<ele>2670.20</ele>
	<time>2023-08-09T06:15:04.000Z</time>
</trkpt>
<trkpt lat="46.1555170" lon="10.4568430">
	<ele>2670.20</ele>
	<time>2023-08-09T06:15:05.000Z</time>
</trkpt>
<trkpt lat="46.1555170" lon="10.4568430">
	<ele>2670.20</ele>
	<time>2023-08-09T06:15:06.000Z</time>
</trkpt>
<trkpt lat="46.1555160" lon="10.4568440">
	<ele>2670.20</ele>
	<time>2023-08-09T06:15:07.000Z</time>
</trkpt>
<trkpt lat="46.1555160" lon="10.4568450">
	<ele>2670.20</ele>
	<time>2023-08-09T06:15:08.000Z</time>
</trkpt>
<trkpt lat="46.1555150" lon="10.4568450">
	<ele>2670.20</ele>
	<time>2023-08-09T06:15:09.000Z</time>
</trkpt>
<trkpt lat="46.1555150" lon="10.4568450">
	<ele>2670.20</ele>
	<time>2023-08-09T06:15:10.000Z</time>
</trkpt>
<trkpt lat="46.1555150" lon="10.4568450">
	<ele>2670.20</ele>
	<time>2023-08-09T06:15:11.000Z</time>
</trkpt>
<trkpt lat="46.1555140" lon="10.4568450">
	<ele>2670.20</ele>
	<time>2023-08-09T06:15:12.000Z</time>
</trkpt>
<trkpt lat="46.1555140" lon="10.4568450">
	<ele>2670.20</ele>
	<time>2023-08-09T06:15:13.000Z</time>
</trkpt>
<trkpt lat="46.1555140" lon="10.4568450">
	<ele>2670.20</ele>
	<time>2023-08-09T06:15:14.000Z</time>
</trkpt>
<trkpt lat="46.1555140" lon="10.4568450">
	<ele>2670.20</ele>
	<time>2023-08-09T06:15:15.000Z</time>
</trkpt>
<trkpt lat="46.1555140" lon="10.4568450">
	<ele>2670.20</ele>
	<time>2023-08-09T06:15:16.000Z</time>
</trkpt>
<trkpt lat="46.1555140" lon="10.4568450">
	<ele>2670.20</ele>
	<time>2023-08-09T06:15:17.000Z</time>
</trkpt>
<trkpt lat="46.1555140" lon="10.4568450">
	<ele>2670.20</ele>
	<time>2023-08-09T06:15:18.000Z</time>
</trkpt>
<trkpt lat="46.1555140" lon="10.4568460">
	<ele>2670.20</ele>
	<time>2023-08-09T06:15:19.000Z</time>
</trkpt>
<trkpt lat="46.1555140" lon="10.4568460">
	<ele>2670.20</ele>
	<time>2023-08-09T06:15:20.000Z</time>
</trkpt>
<trkpt lat="46.1555140" lon="10.4568460">
	<ele>2670.20</ele>
	<time>2023-08-09T06:15:21.000Z</time>
</trkpt>
<trkpt lat="46.1555140" lon="10.4568460">
	<ele>2670.20</ele>
	<time>2023-08-09T06:15:22.000Z</time>
</trkpt>
<trkpt lat="46.1555140" lon="10.4568460">
	<ele>2670.20</ele>
	<time>2023-08-09T06:15:23.000Z</time>
</trkpt>
<trkpt lat="46.1555130" lon="10.4568460">
	<ele>2670.20</ele>
	<time>2023-08-09T06:15:24.000Z</time>
</trkpt>
<trkpt lat="46.1555130" lon="10.4568460">
	<ele>2670.20</ele>
	<time>2023-08-09T06:15:25.000Z</time>
</trkpt>
<trkpt lat="46.1555130" lon="10.4568460">
	<ele>2670.20</ele>
	<time>2023-08-09T06:15:26.000Z</time>
</trkpt>
<trkpt lat="46.1555130" lon="10.4568460">
	<ele>2670.20</ele>
	<time>2023-08-09T06:15:27.000Z</time>
</trkpt>
<trkpt lat="46.1555130" lon="10.4568460">
	<ele>2670.20</ele>
	<time>2023-08-09T06:15:28.000Z</time>
</trkpt>
<trkpt lat="46.1555130" lon="10.4568460">
	<ele>2670.20</ele>
	<time>2023-08-09T06:15:29.000Z</time>
</trkpt>
<trkpt lat="46.1555130" lon="10.4568460">
	<ele>2670.20</ele>
	<time>2023-08-09T06:15:30.000Z</time>
</trkpt>
<trkpt lat="46.1555130" lon="10.4568460">
	<ele>2670.20</ele>
	<time>2023-08-09T06:15:31.000Z</time>
</trkpt>
<trkpt lat="46.1555120" lon="10.4568460">
	<ele>2670.20</ele>
	<time>2023-08-09T06:15:32.000Z</time>
</trkpt>
<trkpt lat="46.1555120" lon="10.4568470">
	<ele>2670.20</ele>
	<time>2023-08-09T06:15:33.000Z</time>
</trkpt>
<trkpt lat="46.1555120" lon="10.4568470">
	<ele>2670.20</ele>
	<time>2023-08-09T06:15:34.000Z</time>
</trkpt>
<trkpt lat="46.1555120" lon="10.4568480">
	<ele>2670.20</ele>
	<time>2023-08-09T06:15:35.000Z</time>
</trkpt>
<trkpt lat="46.1555120" lon="10.4568500">
	<ele>2670.20</ele>
	<time>2023-08-09T06:15:36.000Z</time>
</trkpt>
<trkpt lat="46.1555120" lon="10.4568520">
	<ele>2670.20</ele>
	<time>2023-08-09T06:15:37.000Z</time>
</trkpt>
<trkpt lat="46.1555120" lon="10.4568530">
	<ele>2670.20</ele>
	<time>2023-08-09T06:15:38.000Z</time>
</trkpt>
<trkpt lat="46.1555120" lon="10.4568550">
	<ele>2670.20</ele>
	<time>2023-08-09T06:15:39.000Z</time>
</trkpt>
<trkpt lat="46.1555120" lon="10.4568550">
	<ele>2670.20</ele>
	<time>2023-08-09T06:15:40.000Z</time>
</trkpt>
<trkpt lat="46.1555110" lon="10.4568560">
	<ele>2670.20</ele>
	<time>2023-08-09T06:15:41.000Z</time>
</trkpt>
<trkpt lat="46.1555110" lon="10.4568560">
	<ele>2670.20</ele>
	<time>2023-08-09T06:15:42.000Z</time>
</trkpt>
<trkpt lat="46.1555110" lon="10.4568560">
	<ele>2670.20</ele>
	<time>2023-08-09T06:15:43.000Z</time>
</trkpt>
<trkpt lat="46.1555110" lon="10.4568570">
	<ele>2670.20</ele>
	<time>2023-08-09T06:15:44.000Z</time>
</trkpt>
<trkpt lat="46.1555110" lon="10.4568570">
	<ele>2670.20</ele>
	<time>2023-08-09T06:15:45.000Z</time>
</trkpt>
<trkpt lat="46.1555100" lon="10.4568570">
	<ele>2670.20</ele>
	<time>2023-08-09T06:15:46.000Z</time>
</trkpt>
<trkpt lat="46.1555100" lon="10.4568570">
	<ele>2670.20</ele>
	<time>2023-08-09T06:15:47.000Z</time>
</trkpt>
<trkpt lat="46.1555100" lon="10.4568580">
	<ele>2670.20</ele>
	<time>2023-08-09T06:15:48.000Z</time>
</trkpt>
<trkpt lat="46.1555100" lon="10.4568580">
	<ele>2670.20</ele>
	<time>2023-08-09T06:15:49.000Z</time>
</trkpt>
<trkpt lat="46.1555100" lon="10.4568590">
	<ele>2670.20</ele>
	<time>2023-08-09T06:15:50.000Z</time>
</trkpt>
<trkpt lat="46.1555100" lon="10.4568590">
	<ele>2670.20</ele>
	<time>2023-08-09T06:15:51.000Z</time>
</trkpt>
<trkpt lat="46.1555090" lon="10.4568590">
	<ele>2670.20</ele>
	<time>2023-08-09T06:15:52.000Z</time>
</trkpt>
<trkpt lat="46.1555090" lon="10.4568590">
	<ele>2670.20</ele>
	<time>2023-08-09T06:15:53.000Z</time>
</trkpt>
<trkpt lat="46.1555090" lon="10.4568600">
	<ele>2670.20</ele>
	<time>2023-08-09T06:15:54.000Z</time>
</trkpt>
<trkpt lat="46.1555080" lon="10.4568600">
	<ele>2670.20</ele>
	<time>2023-08-09T06:15:55.000Z</time>
</trkpt>
<trkpt lat="46.1555080" lon="10.4568600">
	<ele>2670.20</ele>
	<time>2023-08-09T06:15:56.000Z</time>
</trkpt>
<trkpt lat="46.1555080" lon="10.4568600">
	<ele>2670.20</ele>
	<time>2023-08-09T06:15:57.000Z</time>
</trkpt>
<trkpt lat="46.1555080" lon="10.4568600">
	<ele>2670.20</ele>
	<time>2023-08-09T06:15:58.000Z</time>
</trkpt>
<trkpt lat="46.1555080" lon="10.4568600">
	<ele>2670.20</ele>
	<time>2023-08-09T06:15:59.000Z</time>
</trkpt>
<trkpt lat="46.1555070" lon="10.4568600">
	<ele>2670.20</ele>
	<time>2023-08-09T06:16:00.000Z</time>
</trkpt>
<trkpt lat="46.1555070" lon="10.4568600">
	<ele>2670.20</ele>
	<time>2023-08-09T06:16:01.000Z</time>
</trkpt>
<trkpt lat="46.1555070" lon="10.4568600">
	<ele>2670.20</ele>
	<time>2023-08-09T06:16:02.000Z</time>
</trkpt>
<trkpt lat="46.1555070" lon="10.4568610">
	<ele>2670.20</ele>
	<time>2023-08-09T06:16:03.000Z</time>
</trkpt>
<trkpt lat="46.1555070" lon="10.4568610">
	<ele>2670.20</ele>
	<time>2023-08-09T06:16:04.000Z</time>
</trkpt>
<trkpt lat="46.1555060" lon="10.4568610">
	<ele>2670.20</ele>
	<time>2023-08-09T06:16:05.000Z</time>
</trkpt>
<trkpt lat="46.1555060" lon="10.4568620">
	<ele>2670.20</ele>
	<time>2023-08-09T06:16:06.000Z</time>
</trkpt>
<trkpt lat="46.1555060" lon="10.4568630">
	<ele>2670.20</ele>
	<time>2023-08-09T06:16:07.000Z</time>
</trkpt>
<trkpt lat="46.1555060" lon="10.4568640">
	<ele>2670.20</ele>
	<time>2023-08-09T06:16:08.000Z</time>
</trkpt>
<trkpt lat="46.1555060" lon="10.4568660">
	<ele>2670.20</ele>
	<time>2023-08-09T06:16:09.000Z</time>
</trkpt>
<trkpt lat="46.1555060" lon="10.4568670">
	<ele>2670.20</ele>
	<time>2023-08-09T06:16:10.000Z</time>
</trkpt>
<trkpt lat="46.1555060" lon="10.4568690">
	<ele>2670.20</ele>
	<time>2023-08-09T06:16:11.000Z</time>
</trkpt>
<trkpt lat="46.1555050" lon="10.4568710">
	<ele>2670.20</ele>
	<time>2023-08-09T06:16:12.000Z</time>
</trkpt>
<trkpt lat="46.1555050" lon="10.4568730">
	<ele>2670.20</ele>
	<time>2023-08-09T06:16:13.000Z</time>
</trkpt>
<trkpt lat="46.1555060" lon="10.4568840">
	<ele>2670.20</ele>
	<time>2023-08-09T06:16:14.000Z</time>
</trkpt>
<trkpt lat="46.1555120" lon="10.4569010">
	<ele>2670.20</ele>
	<time>2023-08-09T06:16:15.000Z</time>
</trkpt>
<trkpt lat="46.1555210" lon="10.4569180">
	<ele>2670.20</ele>
	<time>2023-08-09T06:16:16.000Z</time>
</trkpt>
<trkpt lat="46.1555280" lon="10.4569340">
	<ele>2670.20</ele>
	<time>2023-08-09T06:16:17.000Z</time>
</trkpt>
<trkpt lat="46.1555350" lon="10.4569500">
	<ele>2670.20</ele>
	<time>2023-08-09T06:16:18.000Z</time>
</trkpt>
<trkpt lat="46.1555400" lon="10.4569720">
	<ele>2670.20</ele>
	<time>2023-08-09T06:16:19.000Z</time>
</trkpt>
<trkpt lat="46.1555450" lon="10.4569940">
	<ele>2670.20</ele>
	<time>2023-08-09T06:16:20.000Z</time>
</trkpt>
<trkpt lat="46.1555470" lon="10.4570100">
	<ele>2670.20</ele>
	<time>2023-08-09T06:16:21.000Z</time>
</trkpt>
<trkpt lat="46.1555490" lon="10.4570250">
	<ele>2670.20</ele>
	<time>2023-08-09T06:16:22.000Z</time>
</trkpt>
<trkpt lat="46.1555520" lon="10.4570390">
	<ele>2670.20</ele>
	<time>2023-08-09T06:16:23.000Z</time>
</trkpt>
<trkpt lat="46.1555550" lon="10.4570420">
	<ele>2670.20</ele>
	<time>2023-08-09T06:16:24.000Z</time>
</trkpt>
<trkpt lat="46.1555600" lon="10.4570450">
	<ele>2670.20</ele>
	<time>2023-08-09T06:16:25.000Z</time>
</trkpt>
<trkpt lat="46.1555650" lon="10.4570450">
	<ele>2669.40</ele>
	<time>2023-08-09T06:16:26.000Z</time>
</trkpt>
<trkpt lat="46.1555700" lon="10.4570460">
	<ele>2669.00</ele>
	<time>2023-08-09T06:16:27.000Z</time>
</trkpt>
<trkpt lat="46.1555710" lon="10.4570510">
	<ele>2668.80</ele>
	<time>2023-08-09T06:16:28.000Z</time>
</trkpt>
<trkpt lat="46.1555700" lon="10.4570590">
	<ele>2668.80</ele>
	<time>2023-08-09T06:16:29.000Z</time>
</trkpt>
<trkpt lat="46.1555700" lon="10.4570650">
	<ele>2668.60</ele>
	<time>2023-08-09T06:16:30.000Z</time>
</trkpt>
<trkpt lat="46.1555700" lon="10.4570670">
	<ele>2668.60</ele>
	<time>2023-08-09T06:16:31.000Z</time>
</trkpt>
<trkpt lat="46.1555690" lon="10.4570710">
	<ele>2668.60</ele>
	<time>2023-08-09T06:16:32.000Z</time>
</trkpt>
<trkpt lat="46.1555730" lon="10.4570760">
	<ele>2668.60</ele>
	<time>2023-08-09T06:16:33.000Z</time>
</trkpt>
<trkpt lat="46.1555760" lon="10.4570820">
	<ele>2668.60</ele>
	<time>2023-08-09T06:16:34.000Z</time>
</trkpt>
<trkpt lat="46.1555770" lon="10.4570850">
	<ele>2668.60</ele>
	<time>2023-08-09T06:16:35.000Z</time>
</trkpt>
<trkpt lat="46.1555820" lon="10.4570880">
	<ele>2668.60</ele>
	<time>2023-08-09T06:16:36.000Z</time>
</trkpt>
<trkpt lat="46.1555870" lon="10.4570920">
	<ele>2668.60</ele>
	<time>2023-08-09T06:16:37.000Z</time>
</trkpt>
<trkpt lat="46.1555910" lon="10.4571010">
	<ele>2668.60</ele>
	<time>2023-08-09T06:16:38.000Z</time>
</trkpt>
<trkpt lat="46.1555940" lon="10.4571050">
	<ele>2668.60</ele>
	<time>2023-08-09T06:16:39.000Z</time>
</trkpt>
<trkpt lat="46.1555970" lon="10.4571120">
	<ele>2668.80</ele>
	<time>2023-08-09T06:16:40.000Z</time>
</trkpt>
<trkpt lat="46.1555990" lon="10.4571170">
	<ele>2668.80</ele>
	<time>2023-08-09T06:16:41.000Z</time>
</trkpt>
<trkpt lat="46.1556010" lon="10.4571230">
	<ele>2668.80</ele>
	<time>2023-08-09T06:16:42.000Z</time>
</trkpt>
<trkpt lat="46.1556010" lon="10.4571290">
	<ele>2668.80</ele>
	<time>2023-08-09T06:16:43.000Z</time>
</trkpt>
<trkpt lat="46.1556030" lon="10.4571330">
	<ele>2668.80</ele>
	<time>2023-08-09T06:16:44.000Z</time>
</trkpt>
<trkpt lat="46.1556050" lon="10.4571340">
	<ele>2669.00</ele>
	<time>2023-08-09T06:16:45.000Z</time>
</trkpt>
<trkpt lat="46.1556080" lon="10.4571330">
	<ele>2669.20</ele>
	<time>2023-08-09T06:16:46.000Z</time>
</trkpt>
<trkpt lat="46.1556110" lon="10.4571320">
	<ele>2669.20</ele>
	<time>2023-08-09T06:16:47.000Z</time>
</trkpt>
<trkpt lat="46.1556160" lon="10.4571300">
	<ele>2669.20</ele>
	<time>2023-08-09T06:16:48.000Z</time>
</trkpt>
<trkpt lat="46.1556240" lon="10.4571260">
	<ele>2669.20</ele>
	<time>2023-08-09T06:16:49.000Z</time>
</trkpt>
<trkpt lat="46.1556290" lon="10.4571250">
	<ele>2669.20</ele>
	<time>2023-08-09T06:16:50.000Z</time>
</trkpt>
<trkpt lat="46.1556330" lon="10.4571280">
	<ele>2669.20</ele>
	<time>2023-08-09T06:16:51.000Z</time>
</trkpt>
<trkpt lat="46.1556400" lon="10.4571290">
	<ele>2669.20</ele>
	<time>2023-08-09T06:16:52.000Z</time>
</trkpt>
<trkpt lat="46.1556470" lon="10.4571280">
	<ele>2669.00</ele>
	<time>2023-08-09T06:16:53.000Z</time>
</trkpt>
<trkpt lat="46.1556500" lon="10.4571240">
	<ele>2669.00</ele>
	<time>2023-08-09T06:16:54.000Z</time>
</trkpt>
<trkpt lat="46.1556540" lon="10.4571230">
	<ele>2669.00</ele>
	<time>2023-08-09T06:16:55.000Z</time>
</trkpt>
<trkpt lat="46.1556600" lon="10.4571270">
	<ele>2669.00</ele>
	<time>2023-08-09T06:16:56.000Z</time>
</trkpt>
<trkpt lat="46.1556630" lon="10.4571300">
	<ele>2669.00</ele>
	<time>2023-08-09T06:16:57.000Z</time>
</trkpt>
<trkpt lat="46.1556680" lon="10.4571320">
	<ele>2669.00</ele>
	<time>2023-08-09T06:16:58.000Z</time>
</trkpt>
<trkpt lat="46.1556750" lon="10.4571340">
	<ele>2669.00</ele>
	<time>2023-08-09T06:16:59.000Z</time>
</trkpt>
<trkpt lat="46.1556810" lon="10.4571380">
	<ele>2668.80</ele>
	<time>2023-08-09T06:17:00.000Z</time>
</trkpt>
<trkpt lat="46.1556860" lon="10.4571420">
	<ele>2669.00</ele>
	<time>2023-08-09T06:17:01.000Z</time>
</trkpt>
<trkpt lat="46.1556890" lon="10.4571420">
	<ele>2669.00</ele>
	<time>2023-08-09T06:17:02.000Z</time>
</trkpt>
<trkpt lat="46.1556960" lon="10.4571420">
	<ele>2669.00</ele>
	<time>2023-08-09T06:17:03.000Z</time>
</trkpt>
<trkpt lat="46.1557010" lon="10.4571370">
	<ele>2669.00</ele>
	<time>2023-08-09T06:17:04.000Z</time>
</trkpt>
<trkpt lat="46.1557090" lon="10.4571370">
	<ele>2669.00</ele>
	<time>2023-08-09T06:17:05.000Z</time>
</trkpt>
<trkpt lat="46.1557130" lon="10.4571380">
	<ele>2669.00</ele>
	<time>2023-08-09T06:17:06.000Z</time>
</trkpt>
<trkpt lat="46.1557200" lon="10.4571400">
	<ele>2669.20</ele>
	<time>2023-08-09T06:17:07.000Z</time>
</trkpt>
<trkpt lat="46.1557270" lon="10.4571410">
	<ele>2669.40</ele>
	<time>2023-08-09T06:17:08.000Z</time>
</trkpt>
<trkpt lat="46.1557310" lon="10.4571420">
	<ele>2669.40</ele>
	<time>2023-08-09T06:17:09.000Z</time>
</trkpt>
<trkpt lat="46.1557350" lon="10.4571440">
	<ele>2669.60</ele>
	<time>2023-08-09T06:17:10.000Z</time>
</trkpt>
<trkpt lat="46.1557390" lon="10.4571430">
	<ele>2669.60</ele>
	<time>2023-08-09T06:17:11.000Z</time>
</trkpt>
<trkpt lat="46.1557410" lon="10.4571430">
	<ele>2669.80</ele>
	<time>2023-08-09T06:17:12.000Z</time>
</trkpt>
<trkpt lat="46.1557430" lon="10.4571440">
	<ele>2669.80</ele>
	<time>2023-08-09T06:17:13.000Z</time>
</trkpt>
<trkpt lat="46.1557480" lon="10.4571500">
	<ele>2670.00</ele>
	<time>2023-08-09T06:17:14.000Z</time>
</trkpt>
<trkpt lat="46.1557520" lon="10.4571560">
	<ele>2670.00</ele>
	<time>2023-08-09T06:17:15.000Z</time>
</trkpt>
<trkpt lat="46.1557540" lon="10.4571570">
	<ele>2670.00</ele>
	<time>2023-08-09T06:17:16.000Z</time>
</trkpt>
<trkpt lat="46.1557600" lon="10.4571620">
	<ele>2670.20</ele>
	<time>2023-08-09T06:17:17.000Z</time>
</trkpt>
<trkpt lat="46.1557630" lon="10.4571650">
	<ele>2670.20</ele>
	<time>2023-08-09T06:17:18.000Z</time>
</trkpt>
<trkpt lat="46.1557650" lon="10.4571670">
	<ele>2670.20</ele>
	<time>2023-08-09T06:17:19.000Z</time>
</trkpt>
<trkpt lat="46.1557660" lon="10.4571690">
	<ele>2670.00</ele>
	<time>2023-08-09T06:17:20.000Z</time>
</trkpt>
<trkpt lat="46.1557670" lon="10.4571710">
	<ele>2670.00</ele>
	<time>2023-08-09T06:17:21.000Z</time>
</trkpt>
<trkpt lat="46.1557680" lon="10.4571780">
	<ele>2670.00</ele>
	<time>2023-08-09T06:17:22.000Z</time>
</trkpt>
<trkpt lat="46.1557700" lon="10.4571820">
	<ele>2669.80</ele>
	<time>2023-08-09T06:17:23.000Z</time>
</trkpt>
<trkpt lat="46.1557720" lon="10.4571870">
	<ele>2669.80</ele>
	<time>2023-08-09T06:17:24.000Z</time>
</trkpt>
<trkpt lat="46.1557750" lon="10.4571910">
	<ele>2669.80</ele>
	<time>2023-08-09T06:17:25.000Z</time>
</trkpt>
<trkpt lat="46.1557760" lon="10.4571940">
	<ele>2669.80</ele>
	<time>2023-08-09T06:17:26.000Z</time>
</trkpt>
<trkpt lat="46.1557760" lon="10.4571950">
	<ele>2669.80</ele>
	<time>2023-08-09T06:17:27.000Z</time>
</trkpt>
<trkpt lat="46.1557750" lon="10.4571960">
	<ele>2669.80</ele>
	<time>2023-08-09T06:17:28.000Z</time>
</trkpt>
<trkpt lat="46.1557740" lon="10.4571960">
	<ele>2669.80</ele>
	<time>2023-08-09T06:17:29.000Z</time>
</trkpt>
<trkpt lat="46.1557740" lon="10.4571960">
	<ele>2670.00</ele>
	<time>2023-08-09T06:17:30.000Z</time>
</trkpt>
<trkpt lat="46.1557740" lon="10.4571960">
	<ele>2670.00</ele>
	<time>2023-08-09T06:17:31.000Z</time>
</trkpt>
<trkpt lat="46.1557740" lon="10.4571960">
	<ele>2670.00</ele>
	<time>2023-08-09T06:17:32.000Z</time>
</trkpt>
<trkpt lat="46.1557740" lon="10.4571960">
	<ele>2670.00</ele>
	<time>2023-08-09T06:17:33.000Z</time>
</trkpt>
<trkpt lat="46.1557740" lon="10.4571960">
	<ele>2670.00</ele>
	<time>2023-08-09T06:17:34.000Z</time>
</trkpt>
<trkpt lat="46.1557740" lon="10.4571960">
	<ele>2670.00</ele>
	<time>2023-08-09T06:17:35.000Z</time>
</trkpt>
<trkpt lat="46.1557740" lon="10.4571960">
	<ele>2670.00</ele>
	<time>2023-08-09T06:17:36.000Z</time>
</trkpt>
<trkpt lat="46.1557740" lon="10.4571960">
	<ele>2670.20</ele>
	<time>2023-08-09T06:17:37.000Z</time>
</trkpt>
<trkpt lat="46.1557740" lon="10.4571960">
	<ele>2670.20</ele>
	<time>2023-08-09T06:17:38.000Z</time>
</trkpt>
<trkpt lat="46.1557740" lon="10.4571960">
	<ele>2670.20</ele>
	<time>2023-08-09T06:17:39.000Z</time>
</trkpt>
<trkpt lat="46.1557740" lon="10.4571960">
	<ele>2670.40</ele>
	<time>2023-08-09T06:17:40.000Z</time>
</trkpt>
<trkpt lat="46.1557740" lon="10.4571960">
	<ele>2670.40</ele>
	<time>2023-08-09T06:17:41.000Z</time>
</trkpt>
<trkpt lat="46.1557740" lon="10.4571960">
	<ele>2670.20</ele>
	<time>2023-08-09T06:17:42.000Z</time>
</trkpt>
<trkpt lat="46.1557740" lon="10.4571960">
	<ele>2670.00</ele>
	<time>2023-08-09T06:17:43.000Z</time>
</trkpt>
<trkpt lat="46.1557740" lon="10.4571960">
	<ele>2670.00</ele>
	<time>2023-08-09T06:17:44.000Z</time>
</trkpt>
<trkpt lat="46.1557740" lon="10.4571960">
	<ele>2670.00</ele>
	<time>2023-08-09T06:17:45.000Z</time>
</trkpt>
<trkpt lat="46.1557740" lon="10.4571960">
	<ele>2670.00</ele>
	<time>2023-08-09T06:17:46.000Z</time>
</trkpt>
<trkpt lat="46.1557740" lon="10.4571960">
	<ele>2670.00</ele>
	<time>2023-08-09T06:17:47.000Z</time>
</trkpt>
<trkpt lat="46.1557750" lon="10.4571960">
	<ele>2670.00</ele>
	<time>2023-08-09T06:17:48.000Z</time>
</trkpt>
<trkpt lat="46.1557750" lon="10.4571950">
	<ele>2670.00</ele>
	<time>2023-08-09T06:17:49.000Z</time>
</trkpt>
<trkpt lat="46.1557750" lon="10.4571950">
	<ele>2670.00</ele>
	<time>2023-08-09T06:17:50.000Z</time>
</trkpt>
<trkpt lat="46.1557760" lon="10.4571950">
	<ele>2670.00</ele>
	<time>2023-08-09T06:17:51.000Z</time>
</trkpt>
<trkpt lat="46.1557760" lon="10.4571950">
	<ele>2670.00</ele>
	<time>2023-08-09T06:17:52.000Z</time>
</trkpt>
<trkpt lat="46.1557780" lon="10.4571950">
	<ele>2670.00</ele>
	<time>2023-08-09T06:17:53.000Z</time>
</trkpt>
<trkpt lat="46.1557830" lon="10.4571950">
	<ele>2670.20</ele>
	<time>2023-08-09T06:17:54.000Z</time>
</trkpt>
<trkpt lat="46.1557870" lon="10.4571950">
	<ele>2670.20</ele>
	<time>2023-08-09T06:17:55.000Z</time>
</trkpt>
<trkpt lat="46.1557900" lon="10.4571950">
	<ele>2670.20</ele>
	<time>2023-08-09T06:17:56.000Z</time>
</trkpt>
<trkpt lat="46.1557960" lon="10.4571940">
	<ele>2670.40</ele>
	<time>2023-08-09T06:17:57.000Z</time>
</trkpt>
<trkpt lat="46.1558030" lon="10.4571910">
	<ele>2670.40</ele>
	<time>2023-08-09T06:17:58.000Z</time>
</trkpt>
<trkpt lat="46.1558080" lon="10.4571900">
	<ele>2670.60</ele>
	<time>2023-08-09T06:17:59.000Z</time>
</trkpt>
<trkpt lat="46.1558110" lon="10.4571890">
	<ele>2670.60</ele>
	<time>2023-08-09T06:18:00.000Z</time>
</trkpt>
<trkpt lat="46.1558150" lon="10.4571880">
	<ele>2670.60</ele>
	<time>2023-08-09T06:18:01.000Z</time>
</trkpt>
<trkpt lat="46.1558200" lon="10.4571870">
	<ele>2670.60</ele>
	<time>2023-08-09T06:18:02.000Z</time>
</trkpt>
<trkpt lat="46.1558240" lon="10.4571870">
	<ele>2670.40</ele>
	<time>2023-08-09T06:18:03.000Z</time>
</trkpt>
<trkpt lat="46.1558280" lon="10.4571860">
	<ele>2670.40</ele>
	<time>2023-08-09T06:18:04.000Z</time>
</trkpt>
<trkpt lat="46.1558310" lon="10.4571860">
	<ele>2670.40</ele>
	<time>2023-08-09T06:18:05.000Z</time>
</trkpt>
<trkpt lat="46.1558340" lon="10.4571850">
	<ele>2670.40</ele>
	<time>2023-08-09T06:18:06.000Z</time>
</trkpt>
<trkpt lat="46.1558350" lon="10.4571840">
	<ele>2670.20</ele>
	<time>2023-08-09T06:18:07.000Z</time>
</trkpt>
<trkpt lat="46.1558370" lon="10.4571840">
	<ele>2670.20</ele>
	<time>2023-08-09T06:18:08.000Z</time>
</trkpt>
<trkpt lat="46.1558410" lon="10.4571830">
	<ele>2670.20</ele>
	<time>2023-08-09T06:18:09.000Z</time>
</trkpt>
<trkpt lat="46.1558450" lon="10.4571830">
	<ele>2670.20</ele>
	<time>2023-08-09T06:18:10.000Z</time>
</trkpt>
<trkpt lat="46.1558470" lon="10.4571820">
	<ele>2670.20</ele>
	<time>2023-08-09T06:18:11.000Z</time>
</trkpt>
<trkpt lat="46.1558520" lon="10.4571820">
	<ele>2670.00</ele>
	<time>2023-08-09T06:18:12.000Z</time>
</trkpt>
<trkpt lat="46.1558550" lon="10.4571820">
	<ele>2670.00</ele>
	<time>2023-08-09T06:18:13.000Z</time>
</trkpt>
<trkpt lat="46.1558560" lon="10.4571820">
	<ele>2669.80</ele>
	<time>2023-08-09T06:18:14.000Z</time>
</trkpt>
<trkpt lat="46.1558560" lon="10.4571800">
	<ele>2669.80</ele>
	<time>2023-08-09T06:18:15.000Z</time>
</trkpt>
<trkpt lat="46.1558560" lon="10.4571800">
	<ele>2669.80</ele>
	<time>2023-08-09T06:18:16.000Z</time>
</trkpt>
<trkpt lat="46.1558590" lon="10.4571790">
	<ele>2669.80</ele>
	<time>2023-08-09T06:18:17.000Z</time>
</trkpt>
<trkpt lat="46.1558620" lon="10.4571790">
	<ele>2669.80</ele>
	<time>2023-08-09T06:18:18.000Z</time>
</trkpt>
<trkpt lat="46.1558640" lon="10.4571780">
	<ele>2669.80</ele>
	<time>2023-08-09T06:18:19.000Z</time>
</trkpt>
<trkpt lat="46.1558650" lon="10.4571780">
	<ele>2670.00</ele>
	<time>2023-08-09T06:18:20.000Z</time>
</trkpt>
<trkpt lat="46.1558660" lon="10.4571770">
	<ele>2670.00</ele>
	<time>2023-08-09T06:18:21.000Z</time>
</trkpt>
<trkpt lat="46.1558670" lon="10.4571740">
	<ele>2670.00</ele>
	<time>2023-08-09T06:18:22.000Z</time>
</trkpt>
<trkpt lat="46.1558680" lon="10.4571700">
	<ele>2670.20</ele>
	<time>2023-08-09T06:18:23.000Z</time>
</trkpt>
<trkpt lat="46.1558690" lon="10.4571670">
	<ele>2670.20</ele>
	<time>2023-08-09T06:18:24.000Z</time>
</trkpt>
<trkpt lat="46.1558710" lon="10.4571590">
	<ele>2670.20</ele>
	<time>2023-08-09T06:18:25.000Z</time>
</trkpt>
<trkpt lat="46.1558720" lon="10.4571540">
	<ele>2670.40</ele>
	<time>2023-08-09T06:18:26.000Z</time>
</trkpt>
<trkpt lat="46.1558720" lon="10.4571450">
	<ele>2670.40</ele>
	<time>2023-08-09T06:18:27.000Z</time>
</trkpt>
<trkpt lat="46.1558720" lon="10.4571390">
	<ele>2670.60</ele>
	<time>2023-08-09T06:18:28.000Z</time>
</trkpt>
<trkpt lat="46.1558720" lon="10.4571290">
	<ele>2670.60</ele>
	<time>2023-08-09T06:18:29.000Z</time>
</trkpt>
<trkpt lat="46.1558800" lon="10.4571280">
	<ele>2670.80</ele>
	<time>2023-08-09T06:18:30.000Z</time>
</trkpt>
<trkpt lat="46.1558920" lon="10.4571280">
	<ele>2670.80</ele>
	<time>2023-08-09T06:18:31.000Z</time>
</trkpt>
<trkpt lat="46.1559040" lon="10.4571290">
	<ele>2671.00</ele>
	<time>2023-08-09T06:18:32.000Z</time>
</trkpt>
<trkpt lat="46.1559180" lon="10.4571300">
	<ele>2671.00</ele>
	<time>2023-08-09T06:18:33.000Z</time>
</trkpt>
<trkpt lat="46.1559300" lon="10.4571280">
	<ele>2671.00</ele>
	<time>2023-08-09T06:18:34.000Z</time>
</trkpt>
<trkpt lat="46.1559420" lon="10.4571220">
	<ele>2671.00</ele>
	<time>2023-08-09T06:18:35.000Z</time>
</trkpt>
<trkpt lat="46.1559530" lon="10.4571170">
	<ele>2671.00</ele>
	<time>2023-08-09T06:18:36.000Z</time>
</trkpt>
<trkpt lat="46.1559630" lon="10.4571140">
	<ele>2670.80</ele>
	<time>2023-08-09T06:18:37.000Z</time>
</trkpt>
<trkpt lat="46.1559690" lon="10.4571070">
	<ele>2670.80</ele>
	<time>2023-08-09T06:18:38.000Z</time>
</trkpt>
<trkpt lat="46.1559760" lon="10.4571010">
	<ele>2670.80</ele>
	<time>2023-08-09T06:18:39.000Z</time>
</trkpt>
<trkpt lat="46.1559750" lon="10.4570990">
	<ele>2670.80</ele>
	<time>2023-08-09T06:18:40.000Z</time>
</trkpt>
<trkpt lat="46.1559750" lon="10.4570990">
	<ele>2670.80</ele>
	<time>2023-08-09T06:18:41.000Z</time>
</trkpt>
<trkpt lat="46.1559740" lon="10.4570980">
	<ele>2670.80</ele>
	<time>2023-08-09T06:18:42.000Z</time>
</trkpt>
<trkpt lat="46.1559750" lon="10.4570990">
	<ele>2671.00</ele>
	<time>2023-08-09T06:18:43.000Z</time>
</trkpt>
<trkpt lat="46.1559760" lon="10.4571000">
	<ele>2671.20</ele>
	<time>2023-08-09T06:18:44.000Z</time>
</trkpt>
<trkpt lat="46.1559770" lon="10.4571010">
	<ele>2671.40</ele>
	<time>2023-08-09T06:18:45.000Z</time>
</trkpt>
<trkpt lat="46.1559780" lon="10.4571020">
	<ele>2671.40</ele>
	<time>2023-08-09T06:18:46.000Z</time>
</trkpt>
<trkpt lat="46.1559800" lon="10.4571020">
	<ele>2671.40</ele>
	<time>2023-08-09T06:18:47.000Z</time>
</trkpt>
<trkpt lat="46.1559810" lon="10.4571050">
	<ele>2671.40</ele>
	<time>2023-08-09T06:18:48.000Z</time>
</trkpt>
<trkpt lat="46.1559810" lon="10.4571110">
	<ele>2671.60</ele>
	<time>2023-08-09T06:18:49.000Z</time>
</trkpt>
<trkpt lat="46.1559800" lon="10.4571120">
	<ele>2671.60</ele>
	<time>2023-08-09T06:18:50.000Z</time>
</trkpt>
<trkpt lat="46.1559800" lon="10.4571120">
	<ele>2671.60</ele>
	<time>2023-08-09T06:18:51.000Z</time>
</trkpt>
<trkpt lat="46.1559800" lon="10.4571120">
	<ele>2671.40</ele>
	<time>2023-08-09T06:18:52.000Z</time>
</trkpt>
<trkpt lat="46.1559800" lon="10.4571120">
	<ele>2671.20</ele>
	<time>2023-08-09T06:18:53.000Z</time>
</trkpt>
<trkpt lat="46.1559800" lon="10.4571120">
	<ele>2671.00</ele>
	<time>2023-08-09T06:18:54.000Z</time>
</trkpt>
<trkpt lat="46.1559800" lon="10.4571120">
	<ele>2670.80</ele>
	<time>2023-08-09T06:18:55.000Z</time>
</trkpt>
<trkpt lat="46.1559800" lon="10.4571120">
	<ele>2670.80</ele>
	<time>2023-08-09T06:18:56.000Z</time>
</trkpt>
<trkpt lat="46.1559800" lon="10.4571120">
	<ele>2670.80</ele>
	<time>2023-08-09T06:18:57.000Z</time>
</trkpt>
<trkpt lat="46.1559800" lon="10.4571110">
	<ele>2670.80</ele>
	<time>2023-08-09T06:18:58.000Z</time>
</trkpt>
<trkpt lat="46.1559800" lon="10.4571110">
	<ele>2671.00</ele>
	<time>2023-08-09T06:18:59.000Z</time>
</trkpt>
<trkpt lat="46.1559800" lon="10.4571110">
	<ele>2671.00</ele>
	<time>2023-08-09T06:19:00.000Z</time>
</trkpt>
<trkpt lat="46.1559800" lon="10.4571110">
	<ele>2671.20</ele>
	<time>2023-08-09T06:19:01.000Z</time>
</trkpt>
<trkpt lat="46.1559800" lon="10.4571110">
	<ele>2671.20</ele>
	<time>2023-08-09T06:19:02.000Z</time>
</trkpt>
<trkpt lat="46.1559800" lon="10.4571100">
	<ele>2671.20</ele>
	<time>2023-08-09T06:19:03.000Z</time>
</trkpt>
<trkpt lat="46.1559800" lon="10.4571090">
	<ele>2671.40</ele>
	<time>2023-08-09T06:19:04.000Z</time>
</trkpt>
<trkpt lat="46.1559800" lon="10.4571060">
	<ele>2671.20</ele>
	<time>2023-08-09T06:19:05.000Z</time>
</trkpt>
<trkpt lat="46.1559800" lon="10.4571050">
	<ele>2671.20</ele>
	<time>2023-08-09T06:19:06.000Z</time>
</trkpt>
<trkpt lat="46.1559800" lon="10.4571050">
	<ele>2671.20</ele>
	<time>2023-08-09T06:19:07.000Z</time>
</trkpt>
<trkpt lat="46.1559800" lon="10.4571040">
	<ele>2671.40</ele>
	<time>2023-08-09T06:19:08.000Z</time>
</trkpt>
<trkpt lat="46.1559800" lon="10.4571020">
	<ele>2671.40</ele>
	<time>2023-08-09T06:19:09.000Z</time>
</trkpt>
<trkpt lat="46.1559800" lon="10.4571020">
	<ele>2671.40</ele>
	<time>2023-08-09T06:19:10.000Z</time>
</trkpt>
<trkpt lat="46.1559810" lon="10.4571010">
	<ele>2671.40</ele>
	<time>2023-08-09T06:19:11.000Z</time>
</trkpt>
<trkpt lat="46.1559820" lon="10.4571010">
	<ele>2671.60</ele>
	<time>2023-08-09T06:19:12.000Z</time>
</trkpt>
<trkpt lat="46.1559850" lon="10.4571010">
	<ele>2671.40</ele>
	<time>2023-08-09T06:19:13.000Z</time>
</trkpt>
<trkpt lat="46.1559870" lon="10.4571010">
	<ele>2671.40</ele>
	<time>2023-08-09T06:19:14.000Z</time>
</trkpt>
<trkpt lat="46.1559890" lon="10.4571000">
	<ele>2671.40</ele>
	<time>2023-08-09T06:19:15.000Z</time>
</trkpt>
<trkpt lat="46.1559920" lon="10.4570970">
	<ele>2671.40</ele>
	<time>2023-08-09T06:19:16.000Z</time>
</trkpt>
<trkpt lat="46.1559960" lon="10.4570930">
	<ele>2671.40</ele>
	<time>2023-08-09T06:19:17.000Z</time>
</trkpt>
<trkpt lat="46.1560020" lon="10.4570880">
	<ele>2671.40</ele>
	<time>2023-08-09T06:19:18.000Z</time>
</trkpt>
<trkpt lat="46.1560050" lon="10.4570850">
	<ele>2671.60</ele>
	<time>2023-08-09T06:19:19.000Z</time>
</trkpt>
<trkpt lat="46.1560070" lon="10.4570800">
	<ele>2671.60</ele>
	<time>2023-08-09T06:19:20.000Z</time>
</trkpt>
<trkpt lat="46.1560080" lon="10.4570720">
	<ele>2671.80</ele>
	<time>2023-08-09T06:19:21.000Z</time>
</trkpt>
<trkpt lat="46.1560100" lon="10.4570650">
	<ele>2671.80</ele>
	<time>2023-08-09T06:19:22.000Z</time>
</trkpt>
<trkpt lat="46.1560110" lon="10.4570640">
	<ele>2672.00</ele>
	<time>2023-08-09T06:19:23.000Z</time>
</trkpt>
<trkpt lat="46.1560150" lon="10.4570640">
	<ele>2672.00</ele>
	<time>2023-08-09T06:19:24.000Z</time>
</trkpt>
<trkpt lat="46.1560190" lon="10.4570640">
	<ele>2672.00</ele>
	<time>2023-08-09T06:19:25.000Z</time>
</trkpt>
<trkpt lat="46.1560200" lon="10.4570640">
	<ele>2672.00</ele>
	<time>2023-08-09T06:19:26.000Z</time>
</trkpt>
<trkpt lat="46.1560220" lon="10.4570640">
	<ele>2672.00</ele>
	<time>2023-08-09T06:19:27.000Z</time>
</trkpt>
<trkpt lat="46.1560240" lon="10.4570640">
	<ele>2672.00</ele>
	<time>2023-08-09T06:19:28.000Z</time>
</trkpt>
<trkpt lat="46.1560260" lon="10.4570640">
	<ele>2672.00</ele>
	<time>2023-08-09T06:19:29.000Z</time>
</trkpt>
<trkpt lat="46.1560310" lon="10.4570670">
	<ele>2671.80</ele>
	<time>2023-08-09T06:19:30.000Z</time>
</trkpt>
<trkpt lat="46.1560420" lon="10.4570710">
	<ele>2671.40</ele>
	<time>2023-08-09T06:19:31.000Z</time>
</trkpt>
<trkpt lat="46.1560530" lon="10.4570700">
	<ele>2671.40</ele>
	<time>2023-08-09T06:19:32.000Z</time>
</trkpt>
<trkpt lat="46.1560610" lon="10.4570740">
	<ele>2671.40</ele>
	<time>2023-08-09T06:19:33.000Z</time>
</trkpt>
<trkpt lat="46.1560680" lon="10.4570770">
	<ele>2671.40</ele>
	<time>2023-08-09T06:19:34.000Z</time>
</trkpt>
<trkpt lat="46.1560750" lon="10.4570820">
	<ele>2671.40</ele>
	<time>2023-08-09T06:19:35.000Z</time>
</trkpt>
<trkpt lat="46.1560820" lon="10.4570870">
	<ele>2671.40</ele>
	<time>2023-08-09T06:19:36.000Z</time>
</trkpt>
<trkpt lat="46.1560920" lon="10.4570900">
	<ele>2671.40</ele>
	<time>2023-08-09T06:19:37.000Z</time>
</trkpt>
<trkpt lat="46.1561010" lon="10.4570980">
	<ele>2671.40</ele>
	<time>2023-08-09T06:19:38.000Z</time>
</trkpt>
<trkpt lat="46.1561110" lon="10.4571020">
	<ele>2671.40</ele>
	<time>2023-08-09T06:19:39.000Z</time>
</trkpt>
<trkpt lat="46.1561140" lon="10.4571010">
	<ele>2671.40</ele>
	<time>2023-08-09T06:19:40.000Z</time>
</trkpt>
<trkpt lat="46.1561150" lon="10.4570990">
	<ele>2671.40</ele>
	<time>2023-08-09T06:19:41.000Z</time>
</trkpt>
<trkpt lat="46.1561170" lon="10.4570990">
	<ele>2671.40</ele>
	<time>2023-08-09T06:19:42.000Z</time>
</trkpt>
<trkpt lat="46.1561200" lon="10.4571010">
	<ele>2671.40</ele>
	<time>2023-08-09T06:19:43.000Z</time>
</trkpt>
<trkpt lat="46.1561210" lon="10.4571040">
	<ele>2671.40</ele>
	<time>2023-08-09T06:19:44.000Z</time>
</trkpt>
<trkpt lat="46.1561220" lon="10.4571070">
	<ele>2671.40</ele>
	<time>2023-08-09T06:19:45.000Z</time>
</trkpt>
<trkpt lat="46.1561230" lon="10.4571090">
	<ele>2671.40</ele>
	<time>2023-08-09T06:19:46.000Z</time>
</trkpt>
<trkpt lat="46.1561250" lon="10.4571100">
	<ele>2671.40</ele>
	<time>2023-08-09T06:19:47.000Z</time>
</trkpt>
<trkpt lat="46.1561260" lon="10.4571090">
	<ele>2671.40</ele>
	<time>2023-08-09T06:19:48.000Z</time>
</trkpt>
<trkpt lat="46.1561300" lon="10.4571090">
	<ele>2671.40</ele>
	<time>2023-08-09T06:19:49.000Z</time>
</trkpt>
<trkpt lat="46.1561320" lon="10.4571100">
	<ele>2671.40</ele>
	<time>2023-08-09T06:19:50.000Z</time>
</trkpt>
<trkpt lat="46.1561330" lon="10.4571090">
	<ele>2671.40</ele>
	<time>2023-08-09T06:19:51.000Z</time>
</trkpt>
<trkpt lat="46.1561330" lon="10.4571090">
	<ele>2671.40</ele>
	<time>2023-08-09T06:19:52.000Z</time>
</trkpt>
<trkpt lat="46.1561330" lon="10.4571090">
	<ele>2671.40</ele>
	<time>2023-08-09T06:19:53.000Z</time>
</trkpt>
<trkpt lat="46.1561330" lon="10.4571090">
	<ele>2671.40</ele>
	<time>2023-08-09T06:19:54.000Z</time>
</trkpt>
<trkpt lat="46.1561330" lon="10.4571090">
	<ele>2671.40</ele>
	<time>2023-08-09T06:19:55.000Z</time>
</trkpt>
<trkpt lat="46.1561330" lon="10.4571090">
	<ele>2671.40</ele>
	<time>2023-08-09T06:19:56.000Z</time>
</trkpt>
<trkpt lat="46.1561330" lon="10.4571090">
	<ele>2671.40</ele>
	<time>2023-08-09T06:19:57.000Z</time>
</trkpt>
<trkpt lat="46.1561330" lon="10.4571090">
	<ele>2671.40</ele>
	<time>2023-08-09T06:19:58.000Z</time>
</trkpt>
<trkpt lat="46.1561320" lon="10.4571090">
	<ele>2671.40</ele>
	<time>2023-08-09T06:19:59.000Z</time>
</trkpt>
<trkpt lat="46.1561310" lon="10.4571090">
	<ele>2671.40</ele>
	<time>2023-08-09T06:20:00.000Z</time>
</trkpt>
<trkpt lat="46.1561310" lon="10.4571090">
	<ele>2671.40</ele>
	<time>2023-08-09T06:20:01.000Z</time>
</trkpt>
<trkpt lat="46.1561310" lon="10.4571090">
	<ele>2671.40</ele>
	<time>2023-08-09T06:20:02.000Z</time>
</trkpt>
<trkpt lat="46.1561310" lon="10.4571090">
	<ele>2671.40</ele>
	<time>2023-08-09T06:20:03.000Z</time>
</trkpt>
<trkpt lat="46.1561310" lon="10.4571090">
	<ele>2671.40</ele>
	<time>2023-08-09T06:20:04.000Z</time>
</trkpt>
<trkpt lat="46.1561310" lon="10.4571090">
	<ele>2671.40</ele>
	<time>2023-08-09T06:20:05.000Z</time>
</trkpt>
<trkpt lat="46.1561310" lon="10.4571090">
	<ele>2671.40</ele>
	<time>2023-08-09T06:20:06.000Z</time>
</trkpt>
<trkpt lat="46.1561310" lon="10.4571090">
	<ele>2671.40</ele>
	<time>2023-08-09T06:20:07.000Z</time>
</trkpt>
<trkpt lat="46.1561310" lon="10.4571090">
	<ele>2671.40</ele>
	<time>2023-08-09T06:20:08.000Z</time>
</trkpt>
<trkpt lat="46.1561310" lon="10.4571090">
	<ele>2671.40</ele>
	<time>2023-08-09T06:20:09.000Z</time>
</trkpt>
<trkpt lat="46.1561310" lon="10.4571100">
	<ele>2671.40</ele>
	<time>2023-08-09T06:20:10.000Z</time>
</trkpt>
<trkpt lat="46.1561310" lon="10.4571100">
	<ele>2671.40</ele>
	<time>2023-08-09T06:20:11.000Z</time>
</trkpt>
<trkpt lat="46.1561310" lon="10.4571100">
	<ele>2671.40</ele>
	<time>2023-08-09T06:20:12.000Z</time>
</trkpt>
<trkpt lat="46.1561320" lon="10.4571120">
	<ele>2671.40</ele>
	<time>2023-08-09T06:20:13.000Z</time>
</trkpt>
<trkpt lat="46.1561320" lon="10.4571160">
	<ele>2671.40</ele>
	<time>2023-08-09T06:20:14.000Z</time>
</trkpt>
<trkpt lat="46.1561330" lon="10.4571170">
	<ele>2671.40</ele>
	<time>2023-08-09T06:20:15.000Z</time>
</trkpt>
<trkpt lat="46.1561350" lon="10.4571180">
	<ele>2671.40</ele>
	<time>2023-08-09T06:20:16.000Z</time>
</trkpt>
<trkpt lat="46.1561360" lon="10.4571190">
	<ele>2671.40</ele>
	<time>2023-08-09T06:20:17.000Z</time>
</trkpt>
<trkpt lat="46.1561360" lon="10.4571190">
	<ele>2671.40</ele>
	<time>2023-08-09T06:20:18.000Z</time>
</trkpt>
<trkpt lat="46.1561360" lon="10.4571190">
	<ele>2671.40</ele>
	<time>2023-08-09T06:20:19.000Z</time>
</trkpt>
<trkpt lat="46.1561360" lon="10.4571190">
	<ele>2671.40</ele>
	<time>2023-08-09T06:20:20.000Z</time>
</trkpt>
<trkpt lat="46.1561370" lon="10.4571190">
	<ele>2671.40</ele>
	<time>2023-08-09T06:20:21.000Z</time>
</trkpt>
<trkpt lat="46.1561370" lon="10.4571190">
	<ele>2671.40</ele>
	<time>2023-08-09T06:20:22.000Z</time>
</trkpt>
<trkpt lat="46.1561370" lon="10.4571190">
	<ele>2671.40</ele>
	<time>2023-08-09T06:20:23.000Z</time>
</trkpt>
<trkpt lat="46.1561370" lon="10.4571190">
	<ele>2671.40</ele>
	<time>2023-08-09T06:20:24.000Z</time>
</trkpt>
<trkpt lat="46.1561370" lon="10.4571190">
	<ele>2671.40</ele>
	<time>2023-08-09T06:20:25.000Z</time>
</trkpt>
<trkpt lat="46.1561370" lon="10.4571190">
	<ele>2671.40</ele>
	<time>2023-08-09T06:20:26.000Z</time>
</trkpt>
<trkpt lat="46.1561370" lon="10.4571190">
	<ele>2671.40</ele>
	<time>2023-08-09T06:20:27.000Z</time>
</trkpt>
<trkpt lat="46.1561380" lon="10.4571190">
	<ele>2671.40</ele>
	<time>2023-08-09T06:20:28.000Z</time>
</trkpt>
<trkpt lat="46.1561390" lon="10.4571190">
	<ele>2671.40</ele>
	<time>2023-08-09T06:20:29.000Z</time>
</trkpt>
<trkpt lat="46.1561390" lon="10.4571180">
	<ele>2671.40</ele>
	<time>2023-08-09T06:20:30.000Z</time>
</trkpt>
<trkpt lat="46.1561410" lon="10.4571180">
	<ele>2671.40</ele>
	<time>2023-08-09T06:20:31.000Z</time>
</trkpt>
<trkpt lat="46.1561460" lon="10.4571180">
	<ele>2671.40</ele>
	<time>2023-08-09T06:20:32.000Z</time>
</trkpt>
<trkpt lat="46.1561500" lon="10.4571170">
	<ele>2671.40</ele>
	<time>2023-08-09T06:20:33.000Z</time>
</trkpt>
<trkpt lat="46.1561530" lon="10.4571140">
	<ele>2671.40</ele>
	<time>2023-08-09T06:20:34.000Z</time>
</trkpt>
<trkpt lat="46.1561560" lon="10.4571130">
	<ele>2671.40</ele>
	<time>2023-08-09T06:20:35.000Z</time>
</trkpt>
<trkpt lat="46.1561600" lon="10.4571120">
	<ele>2671.40</ele>
	<time>2023-08-09T06:20:36.000Z</time>
</trkpt>
<trkpt lat="46.1561630" lon="10.4571120">
	<ele>2671.40</ele>
	<time>2023-08-09T06:20:37.000Z</time>
</trkpt>
<trkpt lat="46.1561670" lon="10.4571120">
	<ele>2671.40</ele>
	<time>2023-08-09T06:20:38.000Z</time>
</trkpt>
<trkpt lat="46.1561740" lon="10.4571110">
	<ele>2671.40</ele>
	<time>2023-08-09T06:20:39.000Z</time>
</trkpt>
<trkpt lat="46.1561780" lon="10.4571090">
	<ele>2671.40</ele>
	<time>2023-08-09T06:20:40.000Z</time>
</trkpt>
<trkpt lat="46.1561830" lon="10.4571070">
	<ele>2671.40</ele>
	<time>2023-08-09T06:20:41.000Z</time>
</trkpt>
<trkpt lat="46.1561910" lon="10.4571050">
	<ele>2671.40</ele>
	<time>2023-08-09T06:20:42.000Z</time>
</trkpt>
<trkpt lat="46.1561960" lon="10.4571040">
	<ele>2671.40</ele>
	<time>2023-08-09T06:20:43.000Z</time>
</trkpt>
<trkpt lat="46.1562000" lon="10.4571020">
	<ele>2671.40</ele>
	<time>2023-08-09T06:20:44.000Z</time>
</trkpt>
<trkpt lat="46.1562030" lon="10.4570990">
	<ele>2671.40</ele>
	<time>2023-08-09T06:20:45.000Z</time>
</trkpt>
<trkpt lat="46.1562070" lon="10.4570980">
	<ele>2671.40</ele>
	<time>2023-08-09T06:20:46.000Z</time>
</trkpt>
<trkpt lat="46.1562100" lon="10.4570970">
	<ele>2671.40</ele>
	<time>2023-08-09T06:20:47.000Z</time>
</trkpt>
<trkpt lat="46.1562120" lon="10.4570910">
	<ele>2671.40</ele>
	<time>2023-08-09T06:20:48.000Z</time>
</trkpt>
<trkpt lat="46.1562130" lon="10.4570840">
	<ele>2671.40</ele>
	<time>2023-08-09T06:20:49.000Z</time>
</trkpt>
<trkpt lat="46.1562150" lon="10.4570790">
	<ele>2671.40</ele>
	<time>2023-08-09T06:20:50.000Z</time>
</trkpt>
<trkpt lat="46.1562200" lon="10.4570760">
	<ele>2671.40</ele>
	<time>2023-08-09T06:20:51.000Z</time>
</trkpt>
<trkpt lat="46.1562250" lon="10.4570720">
	<ele>2671.40</ele>
	<time>2023-08-09T06:20:52.000Z</time>
</trkpt>
<trkpt lat="46.1562300" lon="10.4570670">
	<ele>2671.40</ele>
	<time>2023-08-09T06:20:53.000Z</time>
</trkpt>
<trkpt lat="46.1562350" lon="10.4570640">
	<ele>2671.40</ele>
	<time>2023-08-09T06:20:54.000Z</time>
</trkpt>
<trkpt lat="46.1562390" lon="10.4570620">
	<ele>2671.40</ele>
	<time>2023-08-09T06:20:55.000Z</time>
</trkpt>
<trkpt lat="46.1562450" lon="10.4570620">
	<ele>2671.40</ele>
	<time>2023-08-09T06:20:56.000Z</time>
</trkpt>
<trkpt lat="46.1562500" lon="10.4570610">
	<ele>2671.40</ele>
	<time>2023-08-09T06:20:57.000Z</time>
</trkpt>
<trkpt lat="46.1562540" lon="10.4570610">
	<ele>2671.40</ele>
	<time>2023-08-09T06:20:58.000Z</time>
</trkpt>
<trkpt lat="46.1562600" lon="10.4570610">
	<ele>2671.40</ele>
	<time>2023-08-09T06:20:59.000Z</time>
</trkpt>
<trkpt lat="46.1562630" lon="10.4570610">
	<ele>2671.40</ele>
	<time>2023-08-09T06:21:00.000Z</time>
</trkpt>
<trkpt lat="46.1562640" lon="10.4570610">
	<ele>2671.40</ele>
	<time>2023-08-09T06:21:01.000Z</time>
</trkpt>
<trkpt lat="46.1562660" lon="10.4570610">
	<ele>2671.40</ele>
	<time>2023-08-09T06:21:02.000Z</time>
</trkpt>
<trkpt lat="46.1562700" lon="10.4570610">
	<ele>2671.40</ele>
	<time>2023-08-09T06:21:03.000Z</time>
</trkpt>
<trkpt lat="46.1562760" lon="10.4570610">
	<ele>2671.40</ele>
	<time>2023-08-09T06:21:04.000Z</time>
</trkpt>
<trkpt lat="46.1562800" lon="10.4570610">
	<ele>2671.40</ele>
	<time>2023-08-09T06:21:05.000Z</time>
</trkpt>
<trkpt lat="46.1562860" lon="10.4570610">
	<ele>2671.40</ele>
	<time>2023-08-09T06:21:06.000Z</time>
</trkpt>
<trkpt lat="46.1562910" lon="10.4570610">
	<ele>2671.40</ele>
	<time>2023-08-09T06:21:07.000Z</time>
</trkpt>
<trkpt lat="46.1562940" lon="10.4570610">
	<ele>2671.40</ele>
	<time>2023-08-09T06:21:08.000Z</time>
</trkpt>
<trkpt lat="46.1562970" lon="10.4570610">
	<ele>2671.40</ele>
	<time>2023-08-09T06:21:09.000Z</time>
</trkpt>
<trkpt lat="46.1563000" lon="10.4570610">
	<ele>2671.40</ele>
	<time>2023-08-09T06:21:10.000Z</time>
</trkpt>
<trkpt lat="46.1563050" lon="10.4570620">
	<ele>2671.40</ele>
	<time>2023-08-09T06:21:11.000Z</time>
</trkpt>
<trkpt lat="46.1563090" lon="10.4570620">
	<ele>2671.40</ele>
	<time>2023-08-09T06:21:12.000Z</time>
</trkpt>
<trkpt lat="46.1563120" lon="10.4570630">
	<ele>2671.40</ele>
	<time>2023-08-09T06:21:13.000Z</time>
</trkpt>
<trkpt lat="46.1563150" lon="10.4570630">
	<ele>2671.40</ele>
	<time>2023-08-09T06:21:14.000Z</time>
</trkpt>
<trkpt lat="46.1563170" lon="10.4570670">
	<ele>2671.40</ele>
	<time>2023-08-09T06:21:15.000Z</time>
</trkpt>
<trkpt lat="46.1563210" lon="10.4570740">
	<ele>2671.40</ele>
	<time>2023-08-09T06:21:16.000Z</time>
</trkpt>
<trkpt lat="46.1563220" lon="10.4570790">
	<ele>2671.40</ele>
	<time>2023-08-09T06:21:17.000Z</time>
</trkpt>
<trkpt lat="46.1563230" lon="10.4570870">
	<ele>2671.40</ele>
	<time>2023-08-09T06:21:18.000Z</time>
</trkpt>
<trkpt lat="46.1563230" lon="10.4570940">
	<ele>2671.40</ele>
	<time>2023-08-09T06:21:19.000Z</time>
</trkpt>
<trkpt lat="46.1563240" lon="10.4570980">
	<ele>2671.40</ele>
	<time>2023-08-09T06:21:20.000Z</time>
</trkpt>
<trkpt lat="46.1563250" lon="10.4571010">
	<ele>2671.40</ele>
	<time>2023-08-09T06:21:21.000Z</time>
</trkpt>
<trkpt lat="46.1563270" lon="10.4571040">
	<ele>2671.40</ele>
	<time>2023-08-09T06:21:22.000Z</time>
</trkpt>
<trkpt lat="46.1563290" lon="10.4571070">
	<ele>2671.40</ele>
	<time>2023-08-09T06:21:23.000Z</time>
</trkpt>
<trkpt lat="46.1563310" lon="10.4571100">
	<ele>2671.40</ele>
	<time>2023-08-09T06:21:24.000Z</time>
</trkpt>
<trkpt lat="46.1563330" lon="10.4571120">
	<ele>2671.40</ele>
	<time>2023-08-09T06:21:25.000Z</time>
</trkpt>
<trkpt lat="46.1563350" lon="10.4571140">
	<ele>2671.40</ele>
	<time>2023-08-09T06:21:26.000Z</time>
</trkpt>
<trkpt lat="46.1563380" lon="10.4571160">
	<ele>2671.40</ele>
	<time>2023-08-09T06:21:27.000Z</time>
</trkpt>
<trkpt lat="46.1563410" lon="10.4571190">
	<ele>2671.40</ele>
	<time>2023-08-09T06:21:28.000Z</time>
</trkpt>
<trkpt lat="46.1563440" lon="10.4571210">
	<ele>2671.40</ele>
	<time>2023-08-09T06:21:29.000Z</time>
</trkpt>
<trkpt lat="46.1563460" lon="10.4571220">
	<ele>2671.40</ele>
	<time>2023-08-09T06:21:30.000Z</time>
</trkpt>
<trkpt lat="46.1563490" lon="10.4571220">
	<ele>2671.40</ele>
	<time>2023-08-09T06:21:31.000Z</time>
</trkpt>
<trkpt lat="46.1563510" lon="10.4571230">
	<ele>2671.40</ele>
	<time>2023-08-09T06:21:32.000Z</time>
</trkpt>
<trkpt lat="46.1563540" lon="10.4571230">
	<ele>2671.40</ele>
	<time>2023-08-09T06:21:33.000Z</time>
</trkpt>
<trkpt lat="46.1563590" lon="10.4571230">
	<ele>2671.40</ele>
	<time>2023-08-09T06:21:34.000Z</time>
</trkpt>
<trkpt lat="46.1563620" lon="10.4571230">
	<ele>2671.40</ele>
	<time>2023-08-09T06:21:35.000Z</time>
</trkpt>
<trkpt lat="46.1563660" lon="10.4571230">
	<ele>2671.40</ele>
	<time>2023-08-09T06:21:36.000Z</time>
</trkpt>
<trkpt lat="46.1563700" lon="10.4571230">
	<ele>2671.40</ele>
	<time>2023-08-09T06:21:37.000Z</time>
</trkpt>
<trkpt lat="46.1563740" lon="10.4571230">
	<ele>2671.40</ele>
	<time>2023-08-09T06:21:38.000Z</time>
</trkpt>
<trkpt lat="46.1563770" lon="10.4571230">
	<ele>2671.40</ele>
	<time>2023-08-09T06:21:39.000Z</time>
</trkpt>
<trkpt lat="46.1563800" lon="10.4571230">
	<ele>2671.40</ele>
	<time>2023-08-09T06:21:40.000Z</time>
</trkpt>
<trkpt lat="46.1563830" lon="10.4571230">
	<ele>2671.40</ele>
	<time>2023-08-09T06:21:41.000Z</time>
</trkpt>
<trkpt lat="46.1563860" lon="10.4571230">
	<ele>2671.40</ele>
	<time>2023-08-09T06:21:42.000Z</time>
</trkpt>
<trkpt lat="46.1563900" lon="10.4571230">
	<ele>2671.40</ele>
	<time>2023-08-09T06:21:43.000Z</time>
</trkpt>
<trkpt lat="46.1563950" lon="10.4571210">
	<ele>2671.40</ele>
	<time>2023-08-09T06:21:44.000Z</time>
</trkpt>
<trkpt lat="46.1564010" lon="10.4571170">
	<ele>2671.40</ele>
	<time>2023-08-09T06:21:45.000Z</time>
</trkpt>
<trkpt lat="46.1564060" lon="10.4571120">
	<ele>2671.40</ele>
	<time>2023-08-09T06:21:46.000Z</time>
</trkpt>
<trkpt lat="46.1564100" lon="10.4571080">
	<ele>2671.40</ele>
	<time>2023-08-09T06:21:47.000Z</time>
</trkpt>
<trkpt lat="46.1564140" lon="10.4571060">
	<ele>2671.40</ele>
	<time>2023-08-09T06:21:48.000Z</time>
</trkpt>
<trkpt lat="46.1564190" lon="10.4571040">
	<ele>2671.40</ele>
	<time>2023-08-09T06:21:49.000Z</time>
</trkpt>
<trkpt lat="46.1564240" lon="10.4571030">
	<ele>2671.40</ele>
	<time>2023-08-09T06:21:50.000Z</time>
</trkpt>
<trkpt lat="46.1564290" lon="10.4571010">
	<ele>2671.40</ele>
	<time>2023-08-09T06:21:51.000Z</time>
</trkpt>
<trkpt lat="46.1564330" lon="10.4571000">
	<ele>2671.40</ele>
	<time>2023-08-09T06:21:52.000Z</time>
</trkpt>
<trkpt lat="46.1564370" lon="10.4570990">
	<ele>2671.40</ele>
	<time>2023-08-09T06:21:53.000Z</time>
</trkpt>
<trkpt lat="46.1564420" lon="10.4570980">
	<ele>2671.40</ele>
	<time>2023-08-09T06:21:54.000Z</time>
</trkpt>
<trkpt lat="46.1564470" lon="10.4570970">
	<ele>2671.40</ele>
	<time>2023-08-09T06:21:55.000Z</time>
</trkpt>
<trkpt lat="46.1564530" lon="10.4570970">
	<ele>2671.40</ele>
	<time>2023-08-09T06:21:56.000Z</time>
</trkpt>
<trkpt lat="46.1564590" lon="10.4570950">
	<ele>2671.40</ele>
	<time>2023-08-09T06:21:57.000Z</time>
</trkpt>
<trkpt lat="46.1564650" lon="10.4570940">
	<ele>2671.40</ele>
	<time>2023-08-09T06:21:58.000Z</time>
</trkpt>
<trkpt lat="46.1564710" lon="10.4570930">
	<ele>2671.40</ele>
	<time>2023-08-09T06:21:59.000Z</time>
</trkpt>
<trkpt lat="46.1564770" lon="10.4570900">
	<ele>2671.40</ele>
	<time>2023-08-09T06:22:00.000Z</time>
</trkpt>
<trkpt lat="46.1564820" lon="10.4570890">
	<ele>2671.40</ele>
	<time>2023-08-09T06:22:01.000Z</time>
</trkpt>
<trkpt lat="46.1564880" lon="10.4570880">
	<ele>2671.40</ele>
	<time>2023-08-09T06:22:02.000Z</time>
</trkpt>
<trkpt lat="46.1564940" lon="10.4570860">
	<ele>2671.40</ele>
	<time>2023-08-09T06:22:03.000Z</time>
</trkpt>
<trkpt lat="46.1565000" lon="10.4570820">
	<ele>2671.40</ele>
	<time>2023-08-09T06:22:04.000Z</time>
</trkpt>
<trkpt lat="46.1565060" lon="10.4570790">
	<ele>2671.40</ele>
	<time>2023-08-09T06:22:05.000Z</time>
</trkpt>
<trkpt lat="46.1565120" lon="10.4570750">
	<ele>2671.40</ele>
	<time>2023-08-09T06:22:06.000Z</time>
</trkpt>
<trkpt lat="46.1565160" lon="10.4570720">
	<ele>2671.40</ele>
	<time>2023-08-09T06:22:07.000Z</time>
</trkpt>
<trkpt lat="46.1565190" lon="10.4570680">
	<ele>2671.40</ele>
	<time>2023-08-09T06:22:08.000Z</time>
</trkpt>
<trkpt lat="46.1565220" lon="10.4570660">
	<ele>2671.40</ele>
	<time>2023-08-09T06:22:09.000Z</time>
</trkpt>
<trkpt lat="46.1565240" lon="10.4570630">
	<ele>2671.40</ele>
	<time>2023-08-09T06:22:10.000Z</time>
</trkpt>
<trkpt lat="46.1565250" lon="10.4570580">
	<ele>2671.40</ele>
	<time>2023-08-09T06:22:11.000Z</time>
</trkpt>
<trkpt lat="46.1565280" lon="10.4570540">
	<ele>2671.40</ele>
	<time>2023-08-09T06:22:12.000Z</time>
</trkpt>
<trkpt lat="46.1565300" lon="10.4570500">
	<ele>2671.40</ele>
	<time>2023-08-09T06:22:13.000Z</time>
</trkpt>
<trkpt lat="46.1565320" lon="10.4570470">
	<ele>2671.40</ele>
	<time>2023-08-09T06:22:14.000Z</time>
</trkpt>
<trkpt lat="46.1565340" lon="10.4570440">
	<ele>2671.40</ele>
	<time>2023-08-09T06:22:15.000Z</time>
</trkpt>
<trkpt lat="46.1565360" lon="10.4570410">
	<ele>2671.40</ele>
	<time>2023-08-09T06:22:16.000Z</time>
</trkpt>
<trkpt lat="46.1565380" lon="10.4570380">
	<ele>2671.40</ele>
	<time>2023-08-09T06:22:17.000Z</time>
</trkpt>
<trkpt lat="46.1565400" lon="10.4570360">
	<ele>2671.40</ele>
	<time>2023-08-09T06:22:18.000Z</time>
</trkpt>
<trkpt lat="46.1565430" lon="10.4570330">
	<ele>2671.40</ele>
	<time>2023-08-09T06:22:19.000Z</time>
</trkpt>
<trkpt lat="46.1565460" lon="10.4570310">
	<ele>2671.40</ele>
	<time>2023-08-09T06:22:20.000Z</time>
</trkpt>
<trkpt lat="46.1565480" lon="10.4570280">
	<ele>2671.40</ele>
	<time>2023-08-09T06:22:21.000Z</time>
</trkpt>
<trkpt lat="46.1565500" lon="10.4570270">
	<ele>2671.40</ele>
	<time>2023-08-09T06:22:22.000Z</time>
</trkpt>
<trkpt lat="46.1565520" lon="10.4570250">
	<ele>2671.40</ele>
	<time>2023-08-09T06:22:23.000Z</time>
</trkpt>
<trkpt lat="46.1565540" lon="10.4570240">
	<ele>2671.40</ele>
	<time>2023-08-09T06:22:24.000Z</time>
</trkpt>
<trkpt lat="46.1565570" lon="10.4570230">
	<ele>2671.40</ele>
	<time>2023-08-09T06:22:25.000Z</time>
</trkpt>
<trkpt lat="46.1565590" lon="10.4570220">
	<ele>2671.40</ele>
	<time>2023-08-09T06:22:26.000Z</time>
</trkpt>
<trkpt lat="46.1565620" lon="10.4570210">
	<ele>2671.40</ele>
	<time>2023-08-09T06:22:27.000Z</time>
</trkpt>
<trkpt lat="46.1565650" lon="10.4570210">
	<ele>2671.40</ele>
	<time>2023-08-09T06:22:28.000Z</time>
</trkpt>
<trkpt lat="46.1565680" lon="10.4570210">
	<ele>2671.40</ele>
	<time>2023-08-09T06:22:29.000Z</time>
</trkpt>
<trkpt lat="46.1565710" lon="10.4570200">
	<ele>2671.40</ele>
	<time>2023-08-09T06:22:30.000Z</time>
</trkpt>
<trkpt lat="46.1565750" lon="10.4570200">
	<ele>2671.40</ele>
	<time>2023-08-09T06:22:31.000Z</time>
</trkpt>
<trkpt lat="46.1565780" lon="10.4570200">
	<ele>2671.40</ele>
	<time>2023-08-09T06:22:32.000Z</time>
</trkpt>
<trkpt lat="46.1565820" lon="10.4570200">
	<ele>2671.40</ele>
	<time>2023-08-09T06:22:33.000Z</time>
</trkpt>
<trkpt lat="46.1565850" lon="10.4570200">
	<ele>2675.40</ele>
	<time>2023-08-09T06:22:34.000Z</time>
</trkpt>
<trkpt lat="46.1565880" lon="10.4570200">
	<ele>2675.40</ele>
	<time>2023-08-09T06:22:35.000Z</time>
</trkpt>
<trkpt lat="46.1565910" lon="10.4570200">
	<ele>2675.40</ele>
	<time>2023-08-09T06:22:36.000Z</time>
</trkpt>
<trkpt lat="46.1565930" lon="10.4570200">
	<ele>2675.40</ele>
	<time>2023-08-09T06:22:37.000Z</time>
</trkpt>
<trkpt lat="46.1565960" lon="10.4570200">
	<ele>2675.40</ele>
	<time>2023-08-09T06:22:38.000Z</time>
</trkpt>
<trkpt lat="46.1565990" lon="10.4570200">
	<ele>2675.60</ele>
	<time>2023-08-09T06:22:39.000Z</time>
</trkpt>
<trkpt lat="46.1566020" lon="10.4570200">
	<ele>2675.60</ele>
	<time>2023-08-09T06:22:40.000Z</time>
</trkpt>
<trkpt lat="46.1566050" lon="10.4570200">
	<ele>2675.80</ele>
	<time>2023-08-09T06:22:41.000Z</time>
</trkpt>
<trkpt lat="46.1566090" lon="10.4570200">
	<ele>2675.80</ele>
	<time>2023-08-09T06:22:42.000Z</time>
</trkpt>
<trkpt lat="46.1566120" lon="10.4570200">
	<ele>2675.80</ele>
	<time>2023-08-09T06:22:43.000Z</time>
</trkpt>
<trkpt lat="46.1566150" lon="10.4570200">
	<ele>2675.80</ele>
	<time>2023-08-09T06:22:44.000Z</time>
</trkpt>
<trkpt lat="46.1566180" lon="10.4570200">
	<ele>2675.80</ele>
	<time>2023-08-09T06:22:45.000Z</time>
</trkpt>
<trkpt lat="46.1566210" lon="10.4570200">
	<ele>2676.00</ele>
	<time>2023-08-09T06:22:46.000Z</time>
</trkpt>
<trkpt lat="46.1566240" lon="10.4570200">
	<ele>2676.00</ele>
	<time>2023-08-09T06:22:47.000Z</time>
</trkpt>
<trkpt lat="46.1566260" lon="10.4570200">
	<ele>2676.20</ele>
	<time>2023-08-09T06:22:48.000Z</time>
</trkpt>
<trkpt lat="46.1566290" lon="10.4570200">
	<ele>2676.20</ele>
	<time>2023-08-09T06:22:49.000Z</time>
</trkpt>
<trkpt lat="46.1566310" lon="10.4570200">
	<ele>2676.40</ele>
	<time>2023-08-09T06:22:50.000Z</time>
</trkpt>
<trkpt lat="46.1566340" lon="10.4570200">
	<ele>2676.40</ele>
	<time>2023-08-09T06:22:51.000Z</time>
</trkpt>
<trkpt lat="46.1566360" lon="10.4570200">
	<ele>2676.40</ele>
	<time>2023-08-09T06:22:52.000Z</time>
</trkpt>
<trkpt lat="46.1566390" lon="10.4570200">
	<ele>2676.40</ele>
	<time>2023-08-09T06:22:53.000Z</time>
</trkpt>
<trkpt lat="46.1566410" lon="10.4570200">
	<ele>2676.60</ele>
	<time>2023-08-09T06:22:54.000Z</time>
</trkpt>
<trkpt lat="46.1566440" lon="10.4570190">
	<ele>2676.80</ele>
	<time>2023-08-09T06:22:55.000Z</time>
</trkpt>
<trkpt lat="46.1566460" lon="10.4570190">
	<ele>2677.00</ele>
	<time>2023-08-09T06:22:56.000Z</time>
</trkpt>
<trkpt lat="46.1566470" lon="10.4570190">
	<ele>2677.20</ele>
	<time>2023-08-09T06:22:57.000Z</time>
</trkpt>
<trkpt lat="46.1566490" lon="10.4570190">
	<ele>2677.20</ele>
	<time>2023-08-09T06:22:58.000Z</time>
</trkpt>
<trkpt lat="46.1566510" lon="10.4570180">
	<ele>2677.40</ele>
	<time>2023-08-09T06:22:59.000Z</time>
</trkpt>
<trkpt lat="46.1566520" lon="10.4570170">
	<ele>2677.40</ele>
	<time>2023-08-09T06:23:00.000Z</time>
</trkpt>
<trkpt lat="46.1566540" lon="10.4570160">
	<ele>2677.60</ele>
	<time>2023-08-09T06:23:01.000Z</time>
</trkpt>
<trkpt lat="46.1566550" lon="10.4570150">
	<ele>2677.60</ele>
	<time>2023-08-09T06:23:02.000Z</time>
</trkpt>
<trkpt lat="46.1566560" lon="10.4570140">
	<ele>2677.60</ele>
	<time>2023-08-09T06:23:03.000Z</time>
</trkpt>
<trkpt lat="46.1566570" lon="10.4570120">
	<ele>2677.80</ele>
	<time>2023-08-09T06:23:04.000Z</time>
</trkpt>
<trkpt lat="46.1566580" lon="10.4570110">
	<ele>2677.80</ele>
	<time>2023-08-09T06:23:05.000Z</time>
</trkpt>
<trkpt lat="46.1566590" lon="10.4570100">
	<ele>2677.80</ele>
	<time>2023-08-09T06:23:06.000Z</time>
</trkpt>
<trkpt lat="46.1566600" lon="10.4570090">
	<ele>2678.20</ele>
	<time>2023-08-09T06:23:07.000Z</time>
</trkpt>
<trkpt lat="46.1566610" lon="10.4570080">
	<ele>2678.40</ele>
	<time>2023-08-09T06:23:08.000Z</time>
</trkpt>
<trkpt lat="46.1566620" lon="10.4570080">
	<ele>2678.60</ele>
	<time>2023-08-09T06:23:09.000Z</time>
</trkpt>
<trkpt lat="46.1566620" lon="10.4570070">
	<ele>2678.80</ele>
	<time>2023-08-09T06:23:10.000Z</time>
</trkpt>
<trkpt lat="46.1566630" lon="10.4570070">
	<ele>2678.80</ele>
	<time>2023-08-09T06:23:11.000Z</time>
</trkpt>
<trkpt lat="46.1566630" lon="10.4570070">
	<ele>2679.00</ele>
	<time>2023-08-09T06:23:12.000Z</time>
</trkpt>
<trkpt lat="46.1566630" lon="10.4570070">
	<ele>2679.20</ele>
	<time>2023-08-09T06:23:13.000Z</time>
</trkpt>
<trkpt lat="46.1566630" lon="10.4570070">
	<ele>2679.20</ele>
	<time>2023-08-09T06:23:14.000Z</time>
</trkpt>
<trkpt lat="46.1566630" lon="10.4570070">
	<ele>2679.40</ele>
	<time>2023-08-09T06:23:15.000Z</time>
</trkpt>
<trkpt lat="46.1566640" lon="10.4570070">
	<ele>2679.40</ele>
	<time>2023-08-09T06:23:16.000Z</time>
</trkpt>
<trkpt lat="46.1566640" lon="10.4570070">
	<ele>2679.60</ele>
	<time>2023-08-09T06:23:17.000Z</time>
</trkpt>
<trkpt lat="46.1566640" lon="10.4570070">
	<ele>2679.80</ele>
	<time>2023-08-09T06:23:18.000Z</time>
</trkpt>
<trkpt lat="46.1566640" lon="10.4570070">
	<ele>2679.80</ele>
	<time>2023-08-09T06:23:19.000Z</time>
</trkpt>
<trkpt lat="46.1566640" lon="10.4570070">
	<ele>2679.80</ele>
	<time>2023-08-09T06:23:20.000Z</time>
</trkpt>
<trkpt lat="46.1566640" lon="10.4570070">
	<ele>2680.00</ele>
	<time>2023-08-09T06:23:21.000Z</time>
</trkpt>
<trkpt lat="46.1566650" lon="10.4570070">
	<ele>2680.20</ele>
	<time>2023-08-09T06:23:22.000Z</time>
</trkpt>
<trkpt lat="46.1566650" lon="10.4570070">
	<ele>2680.40</ele>
	<time>2023-08-09T06:23:23.000Z</time>
</trkpt>
<trkpt lat="46.1566650" lon="10.4570070">
	<ele>2680.40</ele>
	<time>2023-08-09T06:23:24.000Z</time>
</trkpt>
<trkpt lat="46.1566650" lon="10.4570070">
	<ele>2680.40</ele>
	<time>2023-08-09T06:23:25.000Z</time>
</trkpt>
<trkpt lat="46.1566650" lon="10.4570060">
	<ele>2680.40</ele>
	<time>2023-08-09T06:23:26.000Z</time>
</trkpt>
<trkpt lat="46.1566650" lon="10.4570060">
	<ele>2680.60</ele>
	<time>2023-08-09T06:23:27.000Z</time>
</trkpt>
<trkpt lat="46.1566650" lon="10.4570060">
	<ele>2681.00</ele>
	<time>2023-08-09T06:23:28.000Z</time>
</trkpt>
<trkpt lat="46.1566660" lon="10.4570060">
	<ele>2681.20</ele>
	<time>2023-08-09T06:23:29.000Z</time>
</trkpt>
<trkpt lat="46.1566660" lon="10.4570060">
	<ele>2681.40</ele>
	<time>2023-08-09T06:23:30.000Z</time>
</trkpt>
<trkpt lat="46.1566660" lon="10.4570060">
	<ele>2681.60</ele>
	<time>2023-08-09T06:23:31.000Z</time>
</trkpt>
<trkpt lat="46.1566660" lon="10.4570060">
	<ele>2681.80</ele>
	<time>2023-08-09T06:23:32.000Z</time>
</trkpt>
<trkpt lat="46.1566670" lon="10.4570060">
	<ele>2681.80</ele>
	<time>2023-08-09T06:23:33.000Z</time>
</trkpt>
<trkpt lat="46.1566670" lon="10.4570060">
	<ele>2682.00</ele>
	<time>2023-08-09T06:23:34.000Z</time>
</trkpt>
<trkpt lat="46.1566670" lon="10.4570060">
	<ele>2682.20</ele>
	<time>2023-08-09T06:23:35.000Z</time>
</trkpt>
<trkpt lat="46.1566670" lon="10.4570060">
	<ele>2682.40</ele>
	<time>2023-08-09T06:23:36.000Z</time>
</trkpt>
<trkpt lat="46.1566680" lon="10.4570060">
	<ele>2682.40</ele>
	<time>2023-08-09T06:23:37.000Z</time>
</trkpt>
<trkpt lat="46.1566680" lon="10.4570060">
	<ele>2682.60</ele>
	<time>2023-08-09T06:23:38.000Z</time>
</trkpt>
<trkpt lat="46.1566680" lon="10.4570060">
	<ele>2682.60</ele>
	<time>2023-08-09T06:23:39.000Z</time>
</trkpt>
<trkpt lat="46.1566680" lon="10.4570060">
	<ele>2682.80</ele>
	<time>2023-08-09T06:23:40.000Z</time>
</trkpt>
<trkpt lat="46.1566680" lon="10.4570060">
	<ele>2683.00</ele>
	<time>2023-08-09T06:23:41.000Z</time>
</trkpt>
<trkpt lat="46.1566680" lon="10.4570060">
	<ele>2683.00</ele>
	<time>2023-08-09T06:23:42.000Z</time>
</trkpt>
<trkpt lat="46.1566690" lon="10.4570060">
	<ele>2683.20</ele>
	<time>2023-08-09T06:23:43.000Z</time>
</trkpt>
<trkpt lat="46.1566690" lon="10.4570060">
	<ele>2683.40</ele>
	<time>2023-08-09T06:23:44.000Z</time>
</trkpt>
<trkpt lat="46.1566690" lon="10.4570060">
	<ele>2683.40</ele>
	<time>2023-08-09T06:23:45.000Z</time>
</trkpt>
<trkpt lat="46.1566690" lon="10.4570060">
	<ele>2683.60</ele>
	<time>2023-08-09T06:23:46.000Z</time>
</trkpt>
<trkpt lat="46.1566700" lon="10.4570060">
	<ele>2683.80</ele>
	<time>2023-08-09T06:23:47.000Z</time>
</trkpt>
<trkpt lat="46.1566700" lon="10.4570060">
	<ele>2683.80</ele>
	<time>2023-08-09T06:23:48.000Z</time>
</trkpt>
<trkpt lat="46.1566700" lon="10.4570060">
	<ele>2683.80</ele>
	<time>2023-08-09T06:23:49.000Z</time>
</trkpt>
<trkpt lat="46.1566700" lon="10.4570060">
	<ele>2683.60</ele>
	<time>2023-08-09T06:23:50.000Z</time>
</trkpt>
<trkpt lat="46.1566710" lon="10.4570060">
	<ele>2683.80</ele>
	<time>2023-08-09T06:23:51.000Z</time>
</trkpt>
<trkpt lat="46.1566710" lon="10.4570060">
	<ele>2683.80</ele>
	<time>2023-08-09T06:23:52.000Z</time>
</trkpt>
<trkpt lat="46.1566710" lon="10.4570050">
	<ele>2684.00</ele>
	<time>2023-08-09T06:23:53.000Z</time>
</trkpt>
<trkpt lat="46.1566720" lon="10.4570050">
	<ele>2684.20</ele>
	<time>2023-08-09T06:23:54.000Z</time>
</trkpt>
<trkpt lat="46.1566720" lon="10.4570060">
	<ele>2684.20</ele>
	<time>2023-08-09T06:23:55.000Z</time>
</trkpt>
<trkpt lat="46.1566720" lon="10.4570050">
	<ele>2684.40</ele>
	<time>2023-08-09T06:23:56.000Z</time>
</trkpt>
<trkpt lat="46.1566730" lon="10.4570050">
	<ele>2684.40</ele>
	<time>2023-08-09T06:23:57.000Z</time>
</trkpt>
<trkpt lat="46.1566730" lon="10.4570050">
	<ele>2684.20</ele>
	<time>2023-08-09T06:23:58.000Z</time>
</trkpt>
<trkpt lat="46.1566730" lon="10.4570050">
	<ele>2684.20</ele>
	<time>2023-08-09T06:23:59.000Z</time>
</trkpt>
<trkpt lat="46.1566730" lon="10.4570050">
	<ele>2684.20</ele>
	<time>2023-08-09T06:24:00.000Z</time>
</trkpt>
<trkpt lat="46.1566730" lon="10.4570050">
	<ele>2684.20</ele>
	<time>2023-08-09T06:24:01.000Z</time>
</trkpt>
<trkpt lat="46.1566740" lon="10.4570050">
	<ele>2684.20</ele>
	<time>2023-08-09T06:24:02.000Z</time>
</trkpt>
<trkpt lat="46.1566740" lon="10.4570050">
	<ele>2684.00</ele>
	<time>2023-08-09T06:24:03.000Z</time>
</trkpt>
<trkpt lat="46.1566740" lon="10.4570050">
	<ele>2684.00</ele>
	<time>2023-08-09T06:24:04.000Z</time>
</trkpt>
<trkpt lat="46.1566740" lon="10.4570050">
	<ele>2684.00</ele>
	<time>2023-08-09T06:24:05.000Z</time>
</trkpt>
<trkpt lat="46.1566750" lon="10.4570050">
	<ele>2684.00</ele>
	<time>2023-08-09T06:24:06.000Z</time>
</trkpt>
<trkpt lat="46.1566750" lon="10.4570050">
	<ele>2684.00</ele>
	<time>2023-08-09T06:24:07.000Z</time>
</trkpt>
<trkpt lat="46.1566750" lon="10.4570050">
	<ele>2684.00</ele>
	<time>2023-08-09T06:24:08.000Z</time>
</trkpt>
<trkpt lat="46.1566760" lon="10.4570050">
	<ele>2684.00</ele>
	<time>2023-08-09T06:24:09.000Z</time>
</trkpt>
<trkpt lat="46.1566760" lon="10.4570050">
	<ele>2684.00</ele>
	<time>2023-08-09T06:24:10.000Z</time>
</trkpt>
<trkpt lat="46.1566760" lon="10.4570050">
	<ele>2684.20</ele>
	<time>2023-08-09T06:24:11.000Z</time>
</trkpt>
<trkpt lat="46.1566760" lon="10.4570050">
	<ele>2684.60</ele>
	<time>2023-08-09T06:24:12.000Z</time>
</trkpt>
<trkpt lat="46.1566760" lon="10.4570050">
	<ele>2684.80</ele>
	<time>2023-08-09T06:24:13.000Z</time>
</trkpt>
<trkpt lat="46.1566770" lon="10.4570050">
	<ele>2685.20</ele>
	<time>2023-08-09T06:24:14.000Z</time>
</trkpt>
<trkpt lat="46.1566770" lon="10.4570050">
	<ele>2685.60</ele>
	<time>2023-08-09T06:24:15.000Z</time>
</trkpt>
<trkpt lat="46.1566770" lon="10.4570050">
	<ele>2685.60</ele>
	<time>2023-08-09T06:24:16.000Z</time>
</trkpt>
<trkpt lat="46.1566780" lon="10.4570040">
	<ele>2685.80</ele>
	<time>2023-08-09T06:24:17.000Z</time>
</trkpt>
<trkpt lat="46.1566780" lon="10.4570040">
	<ele>2685.80</ele>
	<time>2023-08-09T06:24:18.000Z</time>
</trkpt>
<trkpt lat="46.1566780" lon="10.4570040">
	<ele>2685.80</ele>
	<time>2023-08-09T06:24:19.000Z</time>
</trkpt>
<trkpt lat="46.1566780" lon="10.4570040">
	<ele>2685.60</ele>
	<time>2023-08-09T06:24:20.000Z</time>
</trkpt>
<trkpt lat="46.1566980" lon="10.4569950">
	<ele>2685.60</ele>
	<time>2023-08-09T06:24:21.000Z</time>
</trkpt>
<trkpt lat="46.1567240" lon="10.4569740">
	<ele>2685.60</ele>
	<time>2023-08-09T06:24:22.000Z</time>
</trkpt>
<trkpt lat="46.1567520" lon="10.4569530">
	<ele>2685.60</ele>
	<time>2023-08-09T06:24:23.000Z</time>
</trkpt>
<trkpt lat="46.1567760" lon="10.4569370">
	<ele>2685.60</ele>
	<time>2023-08-09T06:24:24.000Z</time>
</trkpt>
<trkpt lat="46.1568020" lon="10.4569240">
	<ele>2685.80</ele>
	<time>2023-08-09T06:24:25.000Z</time>
</trkpt>
<trkpt lat="46.1568250" lon="10.4569160">
	<ele>2686.20</ele>
	<time>2023-08-09T06:24:26.000Z</time>
</trkpt>
<trkpt lat="46.1568480" lon="10.4569070">
	<ele>2686.40</ele>
	<time>2023-08-09T06:24:27.000Z</time>
</trkpt>
<trkpt lat="46.1568710" lon="10.4568910">
	<ele>2686.60</ele>
	<time>2023-08-09T06:24:28.000Z</time>
</trkpt>
<trkpt lat="46.1568950" lon="10.4568820">
	<ele>2686.80</ele>
	<time>2023-08-09T06:24:29.000Z</time>
</trkpt>
<trkpt lat="46.1569190" lon="10.4568780">
	<ele>2687.00</ele>
	<time>2023-08-09T06:24:30.000Z</time>
</trkpt>
<trkpt lat="46.1569220" lon="10.4568780">
	<ele>2687.20</ele>
	<time>2023-08-09T06:24:31.000Z</time>
</trkpt>
<trkpt lat="46.1569280" lon="10.4568820">
	<ele>2687.60</ele>
	<time>2023-08-09T06:24:32.000Z</time>
</trkpt>
<trkpt lat="46.1569340" lon="10.4568860">
	<ele>2688.00</ele>
	<time>2023-08-09T06:24:33.000Z</time>
</trkpt>
<trkpt lat="46.1569370" lon="10.4568870">
	<ele>2688.40</ele>
	<time>2023-08-09T06:24:34.000Z</time>
</trkpt>
<trkpt lat="46.1569370" lon="10.4568860">
	<ele>2688.60</ele>
	<time>2023-08-09T06:24:35.000Z</time>
</trkpt>
<trkpt lat="46.1569380" lon="10.4568810">
	<ele>2688.80</ele>
	<time>2023-08-09T06:24:36.000Z</time>
</trkpt>
<trkpt lat="46.1569410" lon="10.4568800">
	<ele>2688.80</ele>
	<time>2023-08-09T06:24:37.000Z</time>
</trkpt>
<trkpt lat="46.1569440" lon="10.4568810">
	<ele>2689.00</ele>
	<time>2023-08-09T06:24:38.000Z</time>
</trkpt>
<trkpt lat="46.1569480" lon="10.4568810">
	<ele>2689.20</ele>
	<time>2023-08-09T06:24:39.000Z</time>
</trkpt>
<trkpt lat="46.1569520" lon="10.4568820">
	<ele>2689.20</ele>
	<time>2023-08-09T06:24:40.000Z</time>
</trkpt>
<trkpt lat="46.1569550" lon="10.4568830">
	<ele>2689.40</ele>
	<time>2023-08-09T06:24:41.000Z</time>
</trkpt>
<trkpt lat="46.1569530" lon="10.4568880">
	<ele>2689.40</ele>
	<time>2023-08-09T06:24:42.000Z</time>
</trkpt>
<trkpt lat="46.1569560" lon="10.4568880">
	<ele>2689.40</ele>
	<time>2023-08-09T06:24:43.000Z</time>
</trkpt>
<trkpt lat="46.1569630" lon="10.4568860">
	<ele>2689.80</ele>
	<time>2023-08-09T06:24:44.000Z</time>
</trkpt>
<trkpt lat="46.1569680" lon="10.4568850">
	<ele>2690.00</ele>
	<time>2023-08-09T06:24:45.000Z</time>
</trkpt>
<trkpt lat="46.1569690" lon="10.4568810">
	<ele>2690.00</ele>
	<time>2023-08-09T06:24:46.000Z</time>
</trkpt>
<trkpt lat="46.1569680" lon="10.4568750">
	<ele>2690.20</ele>
	<time>2023-08-09T06:24:47.000Z</time>
</trkpt>
<trkpt lat="46.1569740" lon="10.4568700">
	<ele>2690.20</ele>
	<time>2023-08-09T06:24:48.000Z</time>
</trkpt>
<trkpt lat="46.1569780" lon="10.4568680">
	<ele>2690.20</ele>
	<time>2023-08-09T06:24:49.000Z</time>
</trkpt>
<trkpt lat="46.1569840" lon="10.4568680">
	<ele>2690.40</ele>
	<time>2023-08-09T06:24:50.000Z</time>
</trkpt>
<trkpt lat="46.1569910" lon="10.4568700">
	<ele>2690.40</ele>
	<time>2023-08-09T06:24:51.000Z</time>
</trkpt>
<trkpt lat="46.1569980" lon="10.4568690">
	<ele>2690.40</ele>
	<time>2023-08-09T06:24:52.000Z</time>
</trkpt>
<trkpt lat="46.1570030" lon="10.4568670">
	<ele>2690.60</ele>
	<time>2023-08-09T06:24:53.000Z</time>
</trkpt>
<trkpt lat="46.1570060" lon="10.4568660">
	<ele>2690.60</ele>
	<time>2023-08-09T06:24:54.000Z</time>
</trkpt>
<trkpt lat="46.1570090" lon="10.4568660">
	<ele>2690.80</ele>
	<time>2023-08-09T06:24:55.000Z</time>
</trkpt>
<trkpt lat="46.1570110" lon="10.4568640">
	<ele>2690.80</ele>
	<time>2023-08-09T06:24:56.000Z</time>
</trkpt>
<trkpt lat="46.1570140" lon="10.4568580">
	<ele>2691.00</ele>
	<time>2023-08-09T06:24:57.000Z</time>
</trkpt>
<trkpt lat="46.1570180" lon="10.4568520">
	<ele>2690.80</ele>
	<time>2023-08-09T06:24:58.000Z</time>
</trkpt>
<trkpt lat="46.1570220" lon="10.4568460">
	<ele>2690.80</ele>
	<time>2023-08-09T06:24:59.000Z</time>
</trkpt>
<trkpt lat="46.1570290" lon="10.4568350">
	<ele>2690.80</ele>
	<time>2023-08-09T06:25:00.000Z</time>
</trkpt>
<trkpt lat="46.1570340" lon="10.4568240">
	<ele>2690.80</ele>
	<time>2023-08-09T06:25:01.000Z</time>
</trkpt>
<trkpt lat="46.1570360" lon="10.4568160">
	<ele>2690.80</ele>
	<time>2023-08-09T06:25:02.000Z</time>
</trkpt>
<trkpt lat="46.1570400" lon="10.4568070">
	<ele>2690.80</ele>
	<time>2023-08-09T06:25:03.000Z</time>
</trkpt>
<trkpt lat="46.1570490" lon="10.4568000">
	<ele>2690.80</ele>
	<time>2023-08-09T06:25:04.000Z</time>
</trkpt>
<trkpt lat="46.1570540" lon="10.4567980">
	<ele>2691.00</ele>
	<time>2023-08-09T06:25:05.000Z</time>
</trkpt>
<trkpt lat="46.1570620" lon="10.4567970">
	<ele>2691.00</ele>
	<time>2023-08-09T06:25:06.000Z</time>
</trkpt>
<trkpt lat="46.1570670" lon="10.4567990">
	<ele>2691.20</ele>
	<time>2023-08-09T06:25:07.000Z</time>
</trkpt>
<trkpt lat="46.1570710" lon="10.4568020">
	<ele>2691.40</ele>
	<time>2023-08-09T06:25:08.000Z</time>
</trkpt>
<trkpt lat="46.1570730" lon="10.4568040">
	<ele>2691.60</ele>
	<time>2023-08-09T06:25:09.000Z</time>
</trkpt>
<trkpt lat="46.1570760" lon="10.4568070">
	<ele>2691.80</ele>
	<time>2023-08-09T06:25:10.000Z</time>
</trkpt>
<trkpt lat="46.1570790" lon="10.4568080">
	<ele>2692.20</ele>
	<time>2023-08-09T06:25:11.000Z</time>
</trkpt>
<trkpt lat="46.1570820" lon="10.4568070">
	<ele>2692.60</ele>
	<time>2023-08-09T06:25:12.000Z</time>
</trkpt>
<trkpt lat="46.1570860" lon="10.4568040">
	<ele>2692.60</ele>
	<time>2023-08-09T06:25:13.000Z</time>
</trkpt>
<trkpt lat="46.1570870" lon="10.4568090">
	<ele>2692.80</ele>
	<time>2023-08-09T06:25:14.000Z</time>
</trkpt>
<trkpt lat="46.1570900" lon="10.4568120">
	<ele>2693.20</ele>
	<time>2023-08-09T06:25:15.000Z</time>
</trkpt>
<trkpt lat="46.1570920" lon="10.4568160">
	<ele>2693.40</ele>
	<time>2023-08-09T06:25:16.000Z</time>
</trkpt>
<trkpt lat="46.1570930" lon="10.4568190">
	<ele>2693.60</ele>
	<time>2023-08-09T06:25:17.000Z</time>
</trkpt>
<trkpt lat="46.1570930" lon="10.4568240">
	<ele>2694.00</ele>
	<time>2023-08-09T06:25:18.000Z</time>
</trkpt>
<trkpt lat="46.1570960" lon="10.4568310">
	<ele>2694.20</ele>
	<time>2023-08-09T06:25:19.000Z</time>
</trkpt>
<trkpt lat="46.1570950" lon="10.4568380">
	<ele>2694.40</ele>
	<time>2023-08-09T06:25:20.000Z</time>
</trkpt>
<trkpt lat="46.1570980" lon="10.4568420">
	<ele>2694.00</ele>
	<time>2023-08-09T06:25:21.000Z</time>
</trkpt>
<trkpt lat="46.1571000" lon="10.4568460">
	<ele>2693.80</ele>
	<time>2023-08-09T06:25:22.000Z</time>
</trkpt>
<trkpt lat="46.1571000" lon="10.4568460">
	<ele>2693.60</ele>
	<time>2023-08-09T06:25:23.000Z</time>
</trkpt>
<trkpt lat="46.1571000" lon="10.4568460">
	<ele>2693.60</ele>
	<time>2023-08-09T06:25:24.000Z</time>
</trkpt>
<trkpt lat="46.1571000" lon="10.4568460">
	<ele>2693.40</ele>
	<time>2023-08-09T06:25:25.000Z</time>
</trkpt>
<trkpt lat="46.1571000" lon="10.4568460">
	<ele>2693.40</ele>
	<time>2023-08-09T06:25:26.000Z</time>
</trkpt>
<trkpt lat="46.1571000" lon="10.4568460">
	<ele>2693.60</ele>
	<time>2023-08-09T06:25:27.000Z</time>
</trkpt>
<trkpt lat="46.1571000" lon="10.4568460">
	<ele>2693.60</ele>
	<time>2023-08-09T06:25:28.000Z</time>
</trkpt>
<trkpt lat="46.1571000" lon="10.4568460">
	<ele>2693.60</ele>
	<time>2023-08-09T06:25:29.000Z</time>
</trkpt>
<trkpt lat="46.1571000" lon="10.4568460">
	<ele>2694.00</ele>
	<time>2023-08-09T06:25:30.000Z</time>
</trkpt>
<trkpt lat="46.1571000" lon="10.4568460">
	<ele>2694.40</ele>
	<time>2023-08-09T06:25:31.000Z</time>
</trkpt>
<trkpt lat="46.1571000" lon="10.4568460">
	<ele>2694.40</ele>
	<time>2023-08-09T06:25:32.000Z</time>
</trkpt>
<trkpt lat="46.1571000" lon="10.4568460">
	<ele>2694.60</ele>
	<time>2023-08-09T06:25:33.000Z</time>
</trkpt>
<trkpt lat="46.1571000" lon="10.4568460">
	<ele>2694.60</ele>
	<time>2023-08-09T06:25:34.000Z</time>
</trkpt>
<trkpt lat="46.1571000" lon="10.4568460">
	<ele>2694.80</ele>
	<time>2023-08-09T06:25:35.000Z</time>
</trkpt>
<trkpt lat="46.1570980" lon="10.4568500">
	<ele>2694.80</ele>
	<time>2023-08-09T06:25:36.000Z</time>
</trkpt>
<trkpt lat="46.1570870" lon="10.4568630">
	<ele>2694.80</ele>
	<time>2023-08-09T06:25:37.000Z</time>
</trkpt>
<trkpt lat="46.1570800" lon="10.4568760">
	<ele>2694.40</ele>
	<time>2023-08-09T06:25:38.000Z</time>
</trkpt>
<trkpt lat="46.1570740" lon="10.4568840">
	<ele>2694.20</ele>
	<time>2023-08-09T06:25:39.000Z</time>
</trkpt>
<trkpt lat="46.1570680" lon="10.4568970">
	<ele>2694.20</ele>
	<time>2023-08-09T06:25:40.000Z</time>
</trkpt>
<trkpt lat="46.1570620" lon="10.4569070">
	<ele>2694.20</ele>
	<time>2023-08-09T06:25:41.000Z</time>
</trkpt>
<trkpt lat="46.1570560" lon="10.4569210">
	<ele>2694.20</ele>
	<time>2023-08-09T06:25:42.000Z</time>
</trkpt>
<trkpt lat="46.1570510" lon="10.4569360">
	<ele>2694.60</ele>
	<time>2023-08-09T06:25:43.000Z</time>
</trkpt>
<trkpt lat="46.1570470" lon="10.4569510">
	<ele>2694.80</ele>
	<time>2023-08-09T06:25:44.000Z</time>
</trkpt>
<trkpt lat="46.1570480" lon="10.4569660">
	<ele>2694.80</ele>
	<time>2023-08-09T06:25:45.000Z</time>
</trkpt>
<trkpt lat="46.1570490" lon="10.4569730">
	<ele>2695.00</ele>
	<time>2023-08-09T06:25:46.000Z</time>
</trkpt>
<trkpt lat="46.1570470" lon="10.4569750">
	<ele>2695.00</ele>
	<time>2023-08-09T06:25:47.000Z</time>
</trkpt>
<trkpt lat="46.1570460" lon="10.4569740">
	<ele>2695.00</ele>
	<time>2023-08-09T06:25:48.000Z</time>
</trkpt>
<trkpt lat="46.1570460" lon="10.4569740">
	<ele>2695.00</ele>
	<time>2023-08-09T06:25:49.000Z</time>
</trkpt>
<trkpt lat="46.1570460" lon="10.4569740">
	<ele>2694.80</ele>
	<time>2023-08-09T06:25:50.000Z</time>
</trkpt>
<trkpt lat="46.1570470" lon="10.4569750">
	<ele>2694.80</ele>
	<time>2023-08-09T06:25:51.000Z</time>
</trkpt>
<trkpt lat="46.1570470" lon="10.4569750">
	<ele>2694.80</ele>
	<time>2023-08-09T06:25:52.000Z</time>
</trkpt>
<trkpt lat="46.1570480" lon="10.4569750">
	<ele>2694.80</ele>
	<time>2023-08-09T06:25:53.000Z</time>
</trkpt>
<trkpt lat="46.1570490" lon="10.4569780">
	<ele>2694.80</ele>
	<time>2023-08-09T06:25:54.000Z</time>
</trkpt>
<trkpt lat="46.1570490" lon="10.4569800">
	<ele>2694.80</ele>
	<time>2023-08-09T06:25:55.000Z</time>
</trkpt>
<trkpt lat="46.1570480" lon="10.4569820">
	<ele>2694.80</ele>
	<time>2023-08-09T06:25:56.000Z</time>
</trkpt>
<trkpt lat="46.1570470" lon="10.4569830">
	<ele>2695.00</ele>
	<time>2023-08-09T06:25:57.000Z</time>
</trkpt>
<trkpt lat="46.1570460" lon="10.4569830">
	<ele>2695.00</ele>
	<time>2023-08-09T06:25:58.000Z</time>
</trkpt>
<trkpt lat="46.1570460" lon="10.4569830">
	<ele>2695.00</ele>
	<time>2023-08-09T06:25:59.000Z</time>
</trkpt>
<trkpt lat="46.1570460" lon="10.4569830">
	<ele>2695.00</ele>
	<time>2023-08-09T06:26:00.000Z</time>
</trkpt>
<trkpt lat="46.1570460" lon="10.4569830">
	<ele>2695.00</ele>
	<time>2023-08-09T06:26:01.000Z</time>
</trkpt>
<trkpt lat="46.1570460" lon="10.4569830">
	<ele>2695.00</ele>
	<time>2023-08-09T06:26:02.000Z</time>
</trkpt>
<trkpt lat="46.1570460" lon="10.4569830">
	<ele>2695.20</ele>
	<time>2023-08-09T06:26:03.000Z</time>
</trkpt>
<trkpt lat="46.1570460" lon="10.4569830">
	<ele>2695.40</ele>
	<time>2023-08-09T06:26:04.000Z</time>
</trkpt>
<trkpt lat="46.1570460" lon="10.4569830">
	<ele>2695.60</ele>
	<time>2023-08-09T06:26:05.000Z</time>
</trkpt>
<trkpt lat="46.1570460" lon="10.4569830">
	<ele>2695.80</ele>
	<time>2023-08-09T06:26:06.000Z</time>
</trkpt>
<trkpt lat="46.1570460" lon="10.4569830">
	<ele>2696.00</ele>
	<time>2023-08-09T06:26:07.000Z</time>
</trkpt>
<trkpt lat="46.1570470" lon="10.4569830">
	<ele>2696.20</ele>
	<time>2023-08-09T06:26:08.000Z</time>
</trkpt>
<trkpt lat="46.1570470" lon="10.4569830">
	<ele>2696.20</ele>
	<time>2023-08-09T06:26:09.000Z</time>
</trkpt>
<trkpt lat="46.1570470" lon="10.4569830">
	<ele>2696.40</ele>
	<time>2023-08-09T06:26:10.000Z</time>
</trkpt>
<trkpt lat="46.1570480" lon="10.4569830">
	<ele>2696.60</ele>
	<time>2023-08-09T06:26:11.000Z</time>
</trkpt>
<trkpt lat="46.1570480" lon="10.4569830">
	<ele>2696.80</ele>
	<time>2023-08-09T06:26:12.000Z</time>
</trkpt>
<trkpt lat="46.1570490" lon="10.4569830">
	<ele>2697.00</ele>
	<time>2023-08-09T06:26:13.000Z</time>
</trkpt>
<trkpt lat="46.1570490" lon="10.4569840">
	<ele>2697.20</ele>
	<time>2023-08-09T06:26:14.000Z</time>
</trkpt>
<trkpt lat="46.1570490" lon="10.4569840">
	<ele>2697.40</ele>
	<time>2023-08-09T06:26:15.000Z</time>
</trkpt>
<trkpt lat="46.1570510" lon="10.4569870">
	<ele>2697.40</ele>
	<time>2023-08-09T06:26:16.000Z</time>
</trkpt>
<trkpt lat="46.1570510" lon="10.4569930">
	<ele>2697.60</ele>
	<time>2023-08-09T06:26:17.000Z</time>
</trkpt>
<trkpt lat="46.1570510" lon="10.4569970">
	<ele>2697.80</ele>
	<time>2023-08-09T06:26:18.000Z</time>
</trkpt>
<trkpt lat="46.1570520" lon="10.4570010">
	<ele>2698.00</ele>
	<time>2023-08-09T06:26:19.000Z</time>
</trkpt>
<trkpt lat="46.1570520" lon="10.4570040">
	<ele>2698.20</ele>
	<time>2023-08-09T06:26:20.000Z</time>
</trkpt>
<trkpt lat="46.1570530" lon="10.4570080">
	<ele>2698.20</ele>
	<time>2023-08-09T06:26:21.000Z</time>
</trkpt>
<trkpt lat="46.1570540" lon="10.4570130">
	<ele>2698.40</ele>
	<time>2023-08-09T06:26:22.000Z</time>
</trkpt>
<trkpt lat="46.1570570" lon="10.4570180">
	<ele>2698.40</ele>
	<time>2023-08-09T06:26:23.000Z</time>
</trkpt>
<trkpt lat="46.1570610" lon="10.4570210">
	<ele>2698.60</ele>
	<time>2023-08-09T06:26:24.000Z</time>
</trkpt>
<trkpt lat="46.1570650" lon="10.4570220">
	<ele>2698.60</ele>
	<time>2023-08-09T06:26:25.000Z</time>
</trkpt>
<trkpt lat="46.1570680" lon="10.4570240">
	<ele>2698.80</ele>
	<time>2023-08-09T06:26:26.000Z</time>
</trkpt>
<trkpt lat="46.1570720" lon="10.4570250">
	<ele>2699.00</ele>
	<time>2023-08-09T06:26:27.000Z</time>
</trkpt>
<trkpt lat="46.1570770" lon="10.4570250">
	<ele>2699.20</ele>
	<time>2023-08-09T06:26:28.000Z</time>
</trkpt>
<trkpt lat="46.1570810" lon="10.4570260">
	<ele>2699.20</ele>
	<time>2023-08-09T06:26:29.000Z</time>
</trkpt>
<trkpt lat="46.1570840" lon="10.4570270">
	<ele>2699.40</ele>
	<time>2023-08-09T06:26:30.000Z</time>
</trkpt>
<trkpt lat="46.1570890" lon="10.4570300">
	<ele>2699.40</ele>
	<time>2023-08-09T06:26:31.000Z</time>
</trkpt>
<trkpt lat="46.1570900" lon="10.4570390">
	<ele>2699.40</ele>
	<time>2023-08-09T06:26:32.000Z</time>
</trkpt>
<trkpt lat="46.1570910" lon="10.4570470">
	<ele>2699.60</ele>
	<time>2023-08-09T06:26:33.000Z</time>
</trkpt>
<trkpt lat="46.1570910" lon="10.4570530">
	<ele>2699.80</ele>
	<time>2023-08-09T06:26:34.000Z</time>
</trkpt>
<trkpt lat="46.1570910" lon="10.4570590">
	<ele>2700.00</ele>
	<time>2023-08-09T06:26:35.000Z</time>
</trkpt>
<trkpt lat="46.1570910" lon="10.4570640">
	<ele>2700.20</ele>
	<time>2023-08-09T06:26:36.000Z</time>
</trkpt>
<trkpt lat="46.1570910" lon="10.4570680">
	<ele>2700.20</ele>
	<time>2023-08-09T06:26:37.000Z</time>
</trkpt>
<trkpt lat="46.1570920" lon="10.4570730">
	<ele>2700.20</ele>
	<time>2023-08-09T06:26:38.000Z</time>
</trkpt>
<trkpt lat="46.1570920" lon="10.4570740">
	<ele>2700.40</ele>
	<time>2023-08-09T06:26:39.000Z</time>
</trkpt>
<trkpt lat="46.1570940" lon="10.4570740">
	<ele>2700.40</ele>
	<time>2023-08-09T06:26:40.000Z</time>
</trkpt>
<trkpt lat="46.1570960" lon="10.4570740">
	<ele>2700.40</ele>
	<time>2023-08-09T06:26:41.000Z</time>
</trkpt>
<trkpt lat="46.1570970" lon="10.4570740">
	<ele>2700.80</ele>
	<time>2023-08-09T06:26:42.000Z</time>
</trkpt>
<trkpt lat="46.1571000" lon="10.4570750">
	<ele>2701.00</ele>
	<time>2023-08-09T06:26:43.000Z</time>
</trkpt>
<trkpt lat="46.1571020" lon="10.4570760">
	<ele>2701.00</ele>
	<time>2023-08-09T06:26:44.000Z</time>
</trkpt>
<trkpt lat="46.1571080" lon="10.4570780">
	<ele>2701.40</ele>
	<time>2023-08-09T06:26:45.000Z</time>
</trkpt>
<trkpt lat="46.1571150" lon="10.4570820">
	<ele>2701.60</ele>
	<time>2023-08-09T06:26:46.000Z</time>
</trkpt>
<trkpt lat="46.1571220" lon="10.4570850">
	<ele>2701.80</ele>
	<time>2023-08-09T06:26:47.000Z</time>
</trkpt>
<trkpt lat="46.1571320" lon="10.4570930">
	<ele>2701.80</ele>
	<time>2023-08-09T06:26:48.000Z</time>
</trkpt>
<trkpt lat="46.1571390" lon="10.4571020">
	<ele>2702.00</ele>
	<time>2023-08-09T06:26:49.000Z</time>
</trkpt>
<trkpt lat="46.1571420" lon="10.4571080">
	<ele>2702.00</ele>
	<time>2023-08-09T06:26:50.000Z</time>
</trkpt>
<trkpt lat="46.1571470" lon="10.4571150">
	<ele>2702.20</ele>
	<time>2023-08-09T06:26:51.000Z</time>
</trkpt>
<trkpt lat="46.1571540" lon="10.4571200">
	<ele>2702.20</ele>
	<time>2023-08-09T06:26:52.000Z</time>
</trkpt>
<trkpt lat="46.1571620" lon="10.4571230">
	<ele>2702.20</ele>
	<time>2023-08-09T06:26:53.000Z</time>
</trkpt>
<trkpt lat="46.1571700" lon="10.4571250">
	<ele>2702.20</ele>
	<time>2023-08-09T06:26:54.000Z</time>
</trkpt>
<trkpt lat="46.1571700" lon="10.4571200">
	<ele>2702.40</ele>
	<time>2023-08-09T06:26:55.000Z</time>
</trkpt>
<trkpt lat="46.1571730" lon="10.4571190">
	<ele>2702.60</ele>
	<time>2023-08-09T06:26:56.000Z</time>
</trkpt>
<trkpt lat="46.1571770" lon="10.4571180">
	<ele>2702.60</ele>
	<time>2023-08-09T06:26:57.000Z</time>
</trkpt>
<trkpt lat="46.1571800" lon="10.4571200">
	<ele>2702.80</ele>
	<time>2023-08-09T06:26:58.000Z</time>
</trkpt>
<trkpt lat="46.1571820" lon="10.4571290">
	<ele>2702.80</ele>
	<time>2023-08-09T06:26:59.000Z</time>
</trkpt>
<trkpt lat="46.1571830" lon="10.4571340">
	<ele>2703.00</ele>
	<time>2023-08-09T06:27:00.000Z</time>
</trkpt>
<trkpt lat="46.1571840" lon="10.4571370">
	<ele>2703.20</ele>
	<time>2023-08-09T06:27:01.000Z</time>
</trkpt>
<trkpt lat="46.1571840" lon="10.4571390">
	<ele>2703.40</ele>
	<time>2023-08-09T06:27:02.000Z</time>
</trkpt>
<trkpt lat="46.1571850" lon="10.4571420">
	<ele>2703.60</ele>
	<time>2023-08-09T06:27:03.000Z</time>
</trkpt>
<trkpt lat="46.1571890" lon="10.4571440">
	<ele>2703.60</ele>
	<time>2023-08-09T06:27:04.000Z</time>
</trkpt>
<trkpt lat="46.1571930" lon="10.4571450">
	<ele>2703.60</ele>
	<time>2023-08-09T06:27:05.000Z</time>
</trkpt>
<trkpt lat="46.1571950" lon="10.4571460">
	<ele>2703.80</ele>
	<time>2023-08-09T06:27:06.000Z</time>
</trkpt>
<trkpt lat="46.1571990" lon="10.4571460">
	<ele>2703.80</ele>
	<time>2023-08-09T06:27:07.000Z</time>
</trkpt>
<trkpt lat="46.1572000" lon="10.4571490">
	<ele>2704.00</ele>
	<time>2023-08-09T06:27:08.000Z</time>
</trkpt>
<trkpt lat="46.1572040" lon="10.4571480">
	<ele>2704.00</ele>
	<time>2023-08-09T06:27:09.000Z</time>
</trkpt>
<trkpt lat="46.1572070" lon="10.4571480">
	<ele>2704.20</ele>
	<time>2023-08-09T06:27:10.000Z</time>
</trkpt>
<trkpt lat="46.1572100" lon="10.4571530">
	<ele>2704.40</ele>
	<time>2023-08-09T06:27:11.000Z</time>
</trkpt>
<trkpt lat="46.1572120" lon="10.4571570">
	<ele>2704.40</ele>
	<time>2023-08-09T06:27:12.000Z</time>
</trkpt>
<trkpt lat="46.1572140" lon="10.4571590">
	<ele>2704.60</ele>
	<time>2023-08-09T06:27:13.000Z</time>
</trkpt>
<trkpt lat="46.1572150" lon="10.4571600">
	<ele>2704.60</ele>
	<time>2023-08-09T06:27:14.000Z</time>
</trkpt>
<trkpt lat="46.1572160" lon="10.4571620">
	<ele>2704.80</ele>
	<time>2023-08-09T06:27:15.000Z</time>
</trkpt>
<trkpt lat="46.1572180" lon="10.4571630">
	<ele>2705.00</ele>
	<time>2023-08-09T06:27:16.000Z</time>
</trkpt>
<trkpt lat="46.1572220" lon="10.4571590">
	<ele>2705.00</ele>
	<time>2023-08-09T06:27:17.000Z</time>
</trkpt>
<trkpt lat="46.1572260" lon="10.4571560">
	<ele>2705.00</ele>
	<time>2023-08-09T06:27:18.000Z</time>
</trkpt>
<trkpt lat="46.1572290" lon="10.4571530">
	<ele>2705.20</ele>
	<time>2023-08-09T06:27:19.000Z</time>
</trkpt>
<trkpt lat="46.1572330" lon="10.4571500">
	<ele>2705.20</ele>
	<time>2023-08-09T06:27:20.000Z</time>
</trkpt>
<trkpt lat="46.1572360" lon="10.4571470">
	<ele>2705.20</ele>
	<time>2023-08-09T06:27:21.000Z</time>
</trkpt>
<trkpt lat="46.1572390" lon="10.4571480">
	<ele>2705.40</ele>
	<time>2023-08-09T06:27:22.000Z</time>
</trkpt>
<trkpt lat="46.1572430" lon="10.4571510">
	<ele>2705.40</ele>
	<time>2023-08-09T06:27:23.000Z</time>
</trkpt>
<trkpt lat="46.1572470" lon="10.4571520">
	<ele>2705.60</ele>
	<time>2023-08-09T06:27:24.000Z</time>
</trkpt>
<trkpt lat="46.1572520" lon="10.4571550">
	<ele>2705.60</ele>
	<time>2023-08-09T06:27:25.000Z</time>
</trkpt>
<trkpt lat="46.1572550" lon="10.4571580">
	<ele>2705.80</ele>
	<time>2023-08-09T06:27:26.000Z</time>
</trkpt>
<trkpt lat="46.1572570" lon="10.4571590">
	<ele>2705.80</ele>
	<time>2023-08-09T06:27:27.000Z</time>
</trkpt>
<trkpt lat="46.1572590" lon="10.4571600">
	<ele>2706.00</ele>
	<time>2023-08-09T06:27:28.000Z</time>
</trkpt>
<trkpt lat="46.1572620" lon="10.4571590">
	<ele>2706.00</ele>
	<time>2023-08-09T06:27:29.000Z</time>
</trkpt>
<trkpt lat="46.1572640" lon="10.4571610">
	<ele>2706.20</ele>
	<time>2023-08-09T06:27:30.000Z</time>
</trkpt>
<trkpt lat="46.1572660" lon="10.4571630">
	<ele>2706.40</ele>
	<time>2023-08-09T06:27:31.000Z</time>
</trkpt>
<trkpt lat="46.1572690" lon="10.4571690">
	<ele>2706.40</ele>
	<time>2023-08-09T06:27:32.000Z</time>
</trkpt>
<trkpt lat="46.1572720" lon="10.4571690">
	<ele>2706.40</ele>
	<time>2023-08-09T06:27:33.000Z</time>
</trkpt>
<trkpt lat="46.1572750" lon="10.4571670">
	<ele>2706.60</ele>
	<time>2023-08-09T06:27:34.000Z</time>
</trkpt>
<trkpt lat="46.1572790" lon="10.4571640">
	<ele>2706.80</ele>
	<time>2023-08-09T06:27:35.000Z</time>
</trkpt>
<trkpt lat="46.1572810" lon="10.4571620">
	<ele>2706.80</ele>
	<time>2023-08-09T06:27:36.000Z</time>
</trkpt>
<trkpt lat="46.1572840" lon="10.4571610">
	<ele>2707.00</ele>
	<time>2023-08-09T06:27:37.000Z</time>
</trkpt>
<trkpt lat="46.1572870" lon="10.4571620">
	<ele>2707.00</ele>
	<time>2023-08-09T06:27:38.000Z</time>
</trkpt>
<trkpt lat="46.1572910" lon="10.4571630">
	<ele>2707.40</ele>
	<time>2023-08-09T06:27:39.000Z</time>
</trkpt>
<trkpt lat="46.1572920" lon="10.4571640">
	<ele>2707.80</ele>
	<time>2023-08-09T06:27:40.000Z</time>
</trkpt>
<trkpt lat="46.1572920" lon="10.4571650">
	<ele>2708.00</ele>
	<time>2023-08-09T06:27:41.000Z</time>
</trkpt>
<trkpt lat="46.1572920" lon="10.4571620">
	<ele>2708.00</ele>
	<time>2023-08-09T06:27:42.000Z</time>
</trkpt>
<trkpt lat="46.1572920" lon="10.4571620">
	<ele>2708.20</ele>
	<time>2023-08-09T06:27:43.000Z</time>
</trkpt>
<trkpt lat="46.1572920" lon="10.4571620">
	<ele>2708.20</ele>
	<time>2023-08-09T06:27:44.000Z</time>
</trkpt>
<trkpt lat="46.1572920" lon="10.4571620">
	<ele>2708.40</ele>
	<time>2023-08-09T06:27:45.000Z</time>
</trkpt>
<trkpt lat="46.1572920" lon="10.4571620">
	<ele>2708.60</ele>
	<time>2023-08-09T06:27:46.000Z</time>
</trkpt>
<trkpt lat="46.1572920" lon="10.4571620">
	<ele>2709.00</ele>
	<time>2023-08-09T06:27:47.000Z</time>
</trkpt>
<trkpt lat="46.1572920" lon="10.4571620">
	<ele>2709.20</ele>
	<time>2023-08-09T06:27:48.000Z</time>
</trkpt>
<trkpt lat="46.1572920" lon="10.4571620">
	<ele>2709.40</ele>
	<time>2023-08-09T06:27:49.000Z</time>
</trkpt>
<trkpt lat="46.1572920" lon="10.4571620">
	<ele>2709.40</ele>
	<time>2023-08-09T06:27:50.000Z</time>
</trkpt>
<trkpt lat="46.1572920" lon="10.4571620">
	<ele>2709.40</ele>
	<time>2023-08-09T06:27:51.000Z</time>
</trkpt>
<trkpt lat="46.1572920" lon="10.4571620">
	<ele>2709.60</ele>
	<time>2023-08-09T06:27:52.000Z</time>
</trkpt>
<trkpt lat="46.1572920" lon="10.4571620">
	<ele>2709.60</ele>
	<time>2023-08-09T06:27:53.000Z</time>
</trkpt>
<trkpt lat="46.1572920" lon="10.4571620">
	<ele>2709.60</ele>
	<time>2023-08-09T06:27:54.000Z</time>
</trkpt>
<trkpt lat="46.1572920" lon="10.4571620">
	<ele>2709.60</ele>
	<time>2023-08-09T06:27:55.000Z</time>
</trkpt>
<trkpt lat="46.1572920" lon="10.4571620">
	<ele>2709.60</ele>
	<time>2023-08-09T06:27:56.000Z</time>
</trkpt>
<trkpt lat="46.1572920" lon="10.4571610">
	<ele>2709.60</ele>
	<time>2023-08-09T06:27:57.000Z</time>
</trkpt>
<trkpt lat="46.1572950" lon="10.4571610">
	<ele>2709.80</ele>
	<time>2023-08-09T06:27:58.000Z</time>
</trkpt>
<trkpt lat="46.1572990" lon="10.4571560">
	<ele>2709.80</ele>
	<time>2023-08-09T06:27:59.000Z</time>
</trkpt>
<trkpt lat="46.1573010" lon="10.4571540">
	<ele>2710.00</ele>
	<time>2023-08-09T06:28:00.000Z</time>
</trkpt>
<trkpt lat="46.1573020" lon="10.4571520">
	<ele>2710.00</ele>
	<time>2023-08-09T06:28:01.000Z</time>
</trkpt>
<trkpt lat="46.1573030" lon="10.4571490">
	<ele>2710.20</ele>
	<time>2023-08-09T06:28:02.000Z</time>
</trkpt>
<trkpt lat="46.1573040" lon="10.4571450">
	<ele>2710.60</ele>
	<time>2023-08-09T06:28:03.000Z</time>
</trkpt>
<trkpt lat="46.1573040" lon="10.4571400">
	<ele>2710.60</ele>
	<time>2023-08-09T06:28:04.000Z</time>
</trkpt>
<trkpt lat="46.1573070" lon="10.4571360">
	<ele>2710.80</ele>
	<time>2023-08-09T06:28:05.000Z</time>
</trkpt>
<trkpt lat="46.1573110" lon="10.4571290">
	<ele>2710.80</ele>
	<time>2023-08-09T06:28:06.000Z</time>
</trkpt>
<trkpt lat="46.1573120" lon="10.4571240">
	<ele>2711.00</ele>
	<time>2023-08-09T06:28:07.000Z</time>
</trkpt>
<trkpt lat="46.1573130" lon="10.4571200">
	<ele>2711.20</ele>
	<time>2023-08-09T06:28:08.000Z</time>
</trkpt>
<trkpt lat="46.1573130" lon="10.4571160">
	<ele>2711.40</ele>
	<time>2023-08-09T06:28:09.000Z</time>
</trkpt>
<trkpt lat="46.1573180" lon="10.4571140">
	<ele>2711.40</ele>
	<time>2023-08-09T06:28:10.000Z</time>
</trkpt>
<trkpt lat="46.1573250" lon="10.4571210">
	<ele>2711.40</ele>
	<time>2023-08-09T06:28:11.000Z</time>
</trkpt>
<trkpt lat="46.1573310" lon="10.4571330">
	<ele>2711.40</ele>
	<time>2023-08-09T06:28:12.000Z</time>
</trkpt>
<trkpt lat="46.1573380" lon="10.4571420">
	<ele>2711.40</ele>
	<time>2023-08-09T06:28:13.000Z</time>
</trkpt>
<trkpt lat="46.1573440" lon="10.4571530">
	<ele>2711.60</ele>
	<time>2023-08-09T06:28:14.000Z</time>
</trkpt>
<trkpt lat="46.1573490" lon="10.4571620">
	<ele>2711.60</ele>
	<time>2023-08-09T06:28:15.000Z</time>
</trkpt>
<trkpt lat="46.1573530" lon="10.4571660">
	<ele>2711.60</ele>
	<time>2023-08-09T06:28:16.000Z</time>
</trkpt>
<trkpt lat="46.1573600" lon="10.4571680">
	<ele>2711.40</ele>
	<time>2023-08-09T06:28:17.000Z</time>
</trkpt>
<trkpt lat="46.1573640" lon="10.4571670">
	<ele>2711.60</ele>
	<time>2023-08-09T06:28:18.000Z</time>
</trkpt>
<trkpt lat="46.1573680" lon="10.4571720">
	<ele>2711.80</ele>
	<time>2023-08-09T06:28:19.000Z</time>
</trkpt>
<trkpt lat="46.1573680" lon="10.4571800">
	<ele>2711.80</ele>
	<time>2023-08-09T06:28:20.000Z</time>
</trkpt>
<trkpt lat="46.1573720" lon="10.4571900">
	<ele>2711.80</ele>
	<time>2023-08-09T06:28:21.000Z</time>
</trkpt>
<trkpt lat="46.1573770" lon="10.4571940">
	<ele>2712.00</ele>
	<time>2023-08-09T06:28:22.000Z</time>
</trkpt>
<trkpt lat="46.1573800" lon="10.4571960">
	<ele>2712.00</ele>
	<time>2023-08-09T06:28:23.000Z</time>
</trkpt>
<trkpt lat="46.1573830" lon="10.4571980">
	<ele>2712.00</ele>
	<time>2023-08-09T06:28:24.000Z</time>
</trkpt>
<trkpt lat="46.1573880" lon="10.4571980">
	<ele>2712.00</ele>
	<time>2023-08-09T06:28:25.000Z</time>
</trkpt>
<trkpt lat="46.1573930" lon="10.4571990">
	<ele>2712.20</ele>
	<time>2023-08-09T06:28:26.000Z</time>
</trkpt>
<trkpt lat="46.1573970" lon="10.4572000">
	<ele>2712.40</ele>
	<time>2023-08-09T06:28:27.000Z</time>
</trkpt>
<trkpt lat="46.1574020" lon="10.4572020">
	<ele>2712.40</ele>
	<time>2023-08-09T06:28:28.000Z</time>
</trkpt>
<trkpt lat="46.1574070" lon="10.4572070">
	<ele>2712.60</ele>
	<time>2023-08-09T06:28:29.000Z</time>
</trkpt>
<trkpt lat="46.1574120" lon="10.4572080">
	<ele>2713.00</ele>
	<time>2023-08-09T06:28:30.000Z</time>
</trkpt>
<trkpt lat="46.1574180" lon="10.4572060">
	<ele>2713.20</ele>
	<time>2023-08-09T06:28:31.000Z</time>
</trkpt>
<trkpt lat="46.1574220" lon="10.4572050">
	<ele>2713.40</ele>
	<time>2023-08-09T06:28:32.000Z</time>
</trkpt>
<trkpt lat="46.1574270" lon="10.4572040">
	<ele>2713.60</ele>
	<time>2023-08-09T06:28:33.000Z</time>
</trkpt>
<trkpt lat="46.1574340" lon="10.4572030">
	<ele>2713.60</ele>
	<time>2023-08-09T06:28:34.000Z</time>
</trkpt>
<trkpt lat="46.1574390" lon="10.4572030">
	<ele>2713.60</ele>
	<time>2023-08-09T06:28:35.000Z</time>
</trkpt>
<trkpt lat="46.1574440" lon="10.4572020">
	<ele>2713.60</ele>
	<time>2023-08-09T06:28:36.000Z</time>
</trkpt>
<trkpt lat="46.1574480" lon="10.4572000">
	<ele>2713.80</ele>
	<time>2023-08-09T06:28:37.000Z</time>
</trkpt>
<trkpt lat="46.1574520" lon="10.4571990">
	<ele>2713.80</ele>
	<time>2023-08-09T06:28:38.000Z</time>
</trkpt>
<trkpt lat="46.1574580" lon="10.4571970">
	<ele>2713.80</ele>
	<time>2023-08-09T06:28:39.000Z</time>
</trkpt>
<trkpt lat="46.1574610" lon="10.4571990">
	<ele>2714.00</ele>
	<time>2023-08-09T06:28:40.000Z</time>
</trkpt>
<trkpt lat="46.1574680" lon="10.4572010">
	<ele>2714.00</ele>
	<time>2023-08-09T06:28:41.000Z</time>
</trkpt>
<trkpt lat="46.1574710" lon="10.4572030">
	<ele>2714.40</ele>
	<time>2023-08-09T06:28:42.000Z</time>
</trkpt>
<trkpt lat="46.1574760" lon="10.4572060">
	<ele>2714.60</ele>
	<time>2023-08-09T06:28:43.000Z</time>
</trkpt>
<trkpt lat="46.1574780" lon="10.4572070">
	<ele>2714.80</ele>
	<time>2023-08-09T06:28:44.000Z</time>
</trkpt>
<trkpt lat="46.1574800" lon="10.4572080">
	<ele>2715.00</ele>
	<time>2023-08-09T06:28:45.000Z</time>
</trkpt>
<trkpt lat="46.1574820" lon="10.4572070">
	<ele>2715.00</ele>
	<time>2023-08-09T06:28:46.000Z</time>
</trkpt>
<trkpt lat="46.1574860" lon="10.4572080">
	<ele>2715.20</ele>
	<time>2023-08-09T06:28:47.000Z</time>
</trkpt>
<trkpt lat="46.1574910" lon="10.4572040">
	<ele>2715.20</ele>
	<time>2023-08-09T06:28:48.000Z</time>
</trkpt>
<trkpt lat="46.1574940" lon="10.4572000">
	<ele>2715.40</ele>
	<time>2023-08-09T06:28:49.000Z</time>
</trkpt>
<trkpt lat="46.1574970" lon="10.4571950">
	<ele>2715.20</ele>
	<time>2023-08-09T06:28:50.000Z</time>
</trkpt>
<trkpt lat="46.1575010" lon="10.4571890">
	<ele>2715.40</ele>
	<time>2023-08-09T06:28:51.000Z</time>
</trkpt>
<trkpt lat="46.1575070" lon="10.4571850">
	<ele>2715.40</ele>
	<time>2023-08-09T06:28:52.000Z</time>
</trkpt>
<trkpt lat="46.1575160" lon="10.4571810">
	<ele>2715.60</ele>
	<time>2023-08-09T06:28:53.000Z</time>
</trkpt>
<trkpt lat="46.1575240" lon="10.4571780">
	<ele>2715.60</ele>
	<time>2023-08-09T06:28:54.000Z</time>
</trkpt>
<trkpt lat="46.1575270" lon="10.4571730">
	<ele>2715.80</ele>
	<time>2023-08-09T06:28:55.000Z</time>
</trkpt>
<trkpt lat="46.1575300" lon="10.4571690">
	<ele>2715.80</ele>
	<time>2023-08-09T06:28:56.000Z</time>
</trkpt>
<trkpt lat="46.1575360" lon="10.4571620">
	<ele>2716.00</ele>
	<time>2023-08-09T06:28:57.000Z</time>
</trkpt>
<trkpt lat="46.1575400" lon="10.4571570">
	<ele>2716.20</ele>
	<time>2023-08-09T06:28:58.000Z</time>
</trkpt>
<trkpt lat="46.1575420" lon="10.4571530">
	<ele>2716.20</ele>
	<time>2023-08-09T06:28:59.000Z</time>
</trkpt>
<trkpt lat="46.1575440" lon="10.4571510">
	<ele>2716.40</ele>
	<time>2023-08-09T06:29:00.000Z</time>
</trkpt>
<trkpt lat="46.1575500" lon="10.4571480">
	<ele>2716.60</ele>
	<time>2023-08-09T06:29:01.000Z</time>
</trkpt>
<trkpt lat="46.1575530" lon="10.4571450">
	<ele>2716.60</ele>
	<time>2023-08-09T06:29:02.000Z</time>
</trkpt>
<trkpt lat="46.1575550" lon="10.4571410">
	<ele>2716.80</ele>
	<time>2023-08-09T06:29:03.000Z</time>
</trkpt>
<trkpt lat="46.1575550" lon="10.4571370">
	<ele>2716.80</ele>
	<time>2023-08-09T06:29:04.000Z</time>
</trkpt>
<trkpt lat="46.1575590" lon="10.4571290">
	<ele>2717.00</ele>
	<time>2023-08-09T06:29:05.000Z</time>
</trkpt>
<trkpt lat="46.1575620" lon="10.4571220">
	<ele>2717.00</ele>
	<time>2023-08-09T06:29:06.000Z</time>
</trkpt>
<trkpt lat="46.1575660" lon="10.4571150">
	<ele>2717.00</ele>
	<time>2023-08-09T06:29:07.000Z</time>
</trkpt>
<trkpt lat="46.1575730" lon="10.4571080">
	<ele>2717.00</ele>
	<time>2023-08-09T06:29:08.000Z</time>
</trkpt>
<trkpt lat="46.1575810" lon="10.4571000">
	<ele>2717.00</ele>
	<time>2023-08-09T06:29:09.000Z</time>
</trkpt>
<trkpt lat="46.1575840" lon="10.4570940">
	<ele>2717.00</ele>
	<time>2023-08-09T06:29:10.000Z</time>
</trkpt>
<trkpt lat="46.1575890" lon="10.4570810">
	<ele>2717.00</ele>
	<time>2023-08-09T06:29:11.000Z</time>
</trkpt>
<trkpt lat="46.1575920" lon="10.4570710">
	<ele>2717.00</ele>
	<time>2023-08-09T06:29:12.000Z</time>
</trkpt>
<trkpt lat="46.1575970" lon="10.4570600">
	<ele>2717.00</ele>
	<time>2023-08-09T06:29:13.000Z</time>
</trkpt>
<trkpt lat="46.1576030" lon="10.4570550">
	<ele>2717.20</ele>
	<time>2023-08-09T06:29:14.000Z</time>
</trkpt>
<trkpt lat="46.1576080" lon="10.4570500">
	<ele>2717.20</ele>
	<time>2023-08-09T06:29:15.000Z</time>
</trkpt>
<trkpt lat="46.1576140" lon="10.4570460">
	<ele>2717.20</ele>
	<time>2023-08-09T06:29:16.000Z</time>
</trkpt>
<trkpt lat="46.1576170" lon="10.4570410">
	<ele>2717.20</ele>
	<time>2023-08-09T06:29:17.000Z</time>
</trkpt>
<trkpt lat="46.1576200" lon="10.4570450">
	<ele>2717.40</ele>
	<time>2023-08-09T06:29:18.000Z</time>
</trkpt>
<trkpt lat="46.1576250" lon="10.4570420">
	<ele>2717.60</ele>
	<time>2023-08-09T06:29:19.000Z</time>
</trkpt>
<trkpt lat="46.1576320" lon="10.4570430">
	<ele>2718.00</ele>
	<time>2023-08-09T06:29:20.000Z</time>
</trkpt>
<trkpt lat="46.1576360" lon="10.4570450">
	<ele>2718.20</ele>
	<time>2023-08-09T06:29:21.000Z</time>
</trkpt>
<trkpt lat="46.1576420" lon="10.4570530">
	<ele>2718.40</ele>
	<time>2023-08-09T06:29:22.000Z</time>
</trkpt>
<trkpt lat="46.1576490" lon="10.4570600">
	<ele>2718.40</ele>
	<time>2023-08-09T06:29:23.000Z</time>
</trkpt>
<trkpt lat="46.1576510" lon="10.4570630">
	<ele>2718.60</ele>
	<time>2023-08-09T06:29:24.000Z</time>
</trkpt>
<trkpt lat="46.1576510" lon="10.4570610">
	<ele>2718.60</ele>
	<time>2023-08-09T06:29:25.000Z</time>
</trkpt>
<trkpt lat="46.1576510" lon="10.4570600">
	<ele>2718.60</ele>
	<time>2023-08-09T06:29:26.000Z</time>
</trkpt>
<trkpt lat="46.1576510" lon="10.4570610">
	<ele>2718.60</ele>
	<time>2023-08-09T06:29:27.000Z</time>
</trkpt>
<trkpt lat="46.1576510" lon="10.4570640">
	<ele>2718.60</ele>
	<time>2023-08-09T06:29:28.000Z</time>
</trkpt>
<trkpt lat="46.1576510" lon="10.4570650">
	<ele>2718.60</ele>
	<time>2023-08-09T06:29:29.000Z</time>
</trkpt>
<trkpt lat="46.1576500" lon="10.4570660">
	<ele>2718.80</ele>
	<time>2023-08-09T06:29:30.000Z</time>
</trkpt>
<trkpt lat="46.1576500" lon="10.4570660">
	<ele>2718.80</ele>
	<time>2023-08-09T06:29:31.000Z</time>
</trkpt>
<trkpt lat="46.1576500" lon="10.4570660">
	<ele>2719.00</ele>
	<time>2023-08-09T06:29:32.000Z</time>
</trkpt>
<trkpt lat="46.1576500" lon="10.4570660">
	<ele>2719.20</ele>
	<time>2023-08-09T06:29:33.000Z</time>
</trkpt>
<trkpt lat="46.1576500" lon="10.4570660">
	<ele>2719.40</ele>
	<time>2023-08-09T06:29:34.000Z</time>
</trkpt>
<trkpt lat="46.1576500" lon="10.4570660">
	<ele>2719.60</ele>
	<time>2023-08-09T06:29:35.000Z</time>
</trkpt>
<trkpt lat="46.1576500" lon="10.4570660">
	<ele>2719.60</ele>
	<time>2023-08-09T06:29:36.000Z</time>
</trkpt>
<trkpt lat="46.1576500" lon="10.4570660">
	<ele>2719.60</ele>
	<time>2023-08-09T06:29:37.000Z</time>
</trkpt>
<trkpt lat="46.1576500" lon="10.4570660">
	<ele>2719.80</ele>
	<time>2023-08-09T06:29:38.000Z</time>
</trkpt>
<trkpt lat="46.1576500" lon="10.4570660">
	<ele>2719.80</ele>
	<time>2023-08-09T06:29:39.000Z</time>
</trkpt>
<trkpt lat="46.1576500" lon="10.4570660">
	<ele>2719.60</ele>
	<time>2023-08-09T06:29:40.000Z</time>
</trkpt>
<trkpt lat="46.1576500" lon="10.4570660">
	<ele>2719.40</ele>
	<time>2023-08-09T06:29:41.000Z</time>
</trkpt>
<trkpt lat="46.1576500" lon="10.4570660">
	<ele>2719.20</ele>
	<time>2023-08-09T06:29:42.000Z</time>
</trkpt>
<trkpt lat="46.1576500" lon="10.4570650">
	<ele>2719.20</ele>
	<time>2023-08-09T06:29:43.000Z</time>
</trkpt>
<trkpt lat="46.1576500" lon="10.4570650">
	<ele>2719.20</ele>
	<time>2023-08-09T06:29:44.000Z</time>
</trkpt>
<trkpt lat="46.1576500" lon="10.4570650">
	<ele>2719.20</ele>
	<time>2023-08-09T06:29:45.000Z</time>
</trkpt>
<trkpt lat="46.1576500" lon="10.4570640">
	<ele>2719.20</ele>
	<time>2023-08-09T06:29:46.000Z</time>
</trkpt>
<trkpt lat="46.1576500" lon="10.4570640">
	<ele>2719.20</ele>
	<time>2023-08-09T06:29:47.000Z</time>
</trkpt>
<trkpt lat="46.1576500" lon="10.4570640">
	<ele>2719.40</ele>
	<time>2023-08-09T06:29:48.000Z</time>
</trkpt>
<trkpt lat="46.1576500" lon="10.4570640">
	<ele>2719.40</ele>
	<time>2023-08-09T06:29:49.000Z</time>
</trkpt>
<trkpt lat="46.1576490" lon="10.4570640">
	<ele>2719.60</ele>
	<time>2023-08-09T06:29:50.000Z</time>
</trkpt>
<trkpt lat="46.1576490" lon="10.4570630">
	<ele>2719.60</ele>
	<time>2023-08-09T06:29:51.000Z</time>
</trkpt>
<trkpt lat="46.1576480" lon="10.4570630">
	<ele>2719.40</ele>
	<time>2023-08-09T06:29:52.000Z</time>
</trkpt>
<trkpt lat="46.1576480" lon="10.4570630">
	<ele>2719.20</ele>
	<time>2023-08-09T06:29:53.000Z</time>
</trkpt>
<trkpt lat="46.1576470" lon="10.4570640">
	<ele>2719.20</ele>
	<time>2023-08-09T06:29:54.000Z</time>
</trkpt>
<trkpt lat="46.1576470" lon="10.4570640">
	<ele>2719.20</ele>
	<time>2023-08-09T06:29:55.000Z</time>
</trkpt>
<trkpt lat="46.1576470" lon="10.4570640">
	<ele>2719.00</ele>
	<time>2023-08-09T06:29:56.000Z</time>
</trkpt>
<trkpt lat="46.1576470" lon="10.4570640">
	<ele>2719.00</ele>
	<time>2023-08-09T06:29:57.000Z</time>
</trkpt>
<trkpt lat="46.1576470" lon="10.4570640">
	<ele>2719.00</ele>
	<time>2023-08-09T06:29:58.000Z</time>
</trkpt>
<trkpt lat="46.1576470" lon="10.4570640">
	<ele>2719.00</ele>
	<time>2023-08-09T06:29:59.000Z</time>
</trkpt>
<trkpt lat="46.1576460" lon="10.4570640">
	<ele>2719.00</ele>
	<time>2023-08-09T06:30:00.000Z</time>
</trkpt>
<trkpt lat="46.1576460" lon="10.4570640">
	<ele>2719.20</ele>
	<time>2023-08-09T06:30:01.000Z</time>
</trkpt>
<trkpt lat="46.1576460" lon="10.4570640">
	<ele>2719.20</ele>
	<time>2023-08-09T06:30:02.000Z</time>
</trkpt>
<trkpt lat="46.1576450" lon="10.4570640">
	<ele>2719.20</ele>
	<time>2023-08-09T06:30:03.000Z</time>
</trkpt>
<trkpt lat="46.1576450" lon="10.4570640">
	<ele>2719.20</ele>
	<time>2023-08-09T06:30:04.000Z</time>
</trkpt>
<trkpt lat="46.1576450" lon="10.4570640">
	<ele>2719.20</ele>
	<time>2023-08-09T06:30:05.000Z</time>
</trkpt>
<trkpt lat="46.1576450" lon="10.4570640">
	<ele>2719.20</ele>
	<time>2023-08-09T06:30:06.000Z</time>
</trkpt>
<trkpt lat="46.1576450" lon="10.4570680">
	<ele>2719.00</ele>
	<time>2023-08-09T06:30:07.000Z</time>
</trkpt>
<trkpt lat="46.1576450" lon="10.4570680">
	<ele>2719.00</ele>
	<time>2023-08-09T06:30:08.000Z</time>
</trkpt>
<trkpt lat="46.1576450" lon="10.4570680">
	<ele>2719.00</ele>
	<time>2023-08-09T06:30:09.000Z</time>
</trkpt>
<trkpt lat="46.1576450" lon="10.4570690">
	<ele>2719.20</ele>
	<time>2023-08-09T06:30:10.000Z</time>
</trkpt>
<trkpt lat="46.1576450" lon="10.4570690">
	<ele>2719.20</ele>
	<time>2023-08-09T06:30:11.000Z</time>
</trkpt>
<trkpt lat="46.1576450" lon="10.4570700">
	<ele>2719.40</ele>
	<time>2023-08-09T06:30:12.000Z</time>
</trkpt>
<trkpt lat="46.1576450" lon="10.4570710">
	<ele>2719.40</ele>
	<time>2023-08-09T06:30:13.000Z</time>
</trkpt>
<trkpt lat="46.1576450" lon="10.4570720">
	<ele>2719.60</ele>
	<time>2023-08-09T06:30:14.000Z</time>
</trkpt>
<trkpt lat="46.1576450" lon="10.4570730">
	<ele>2719.80</ele>
	<time>2023-08-09T06:30:15.000Z</time>
</trkpt>
<trkpt lat="46.1576450" lon="10.4570730">
	<ele>2719.80</ele>
	<time>2023-08-09T06:30:16.000Z</time>
</trkpt>
<trkpt lat="46.1576450" lon="10.4570730">
	<ele>2720.00</ele>
	<time>2023-08-09T06:30:17.000Z</time>
</trkpt>
<trkpt lat="46.1576450" lon="10.4570760">
	<ele>2720.20</ele>
	<time>2023-08-09T06:30:18.000Z</time>
</trkpt>
<trkpt lat="46.1576470" lon="10.4570820">
	<ele>2720.20</ele>
	<time>2023-08-09T06:30:19.000Z</time>
</trkpt>
<trkpt lat="46.1576510" lon="10.4570890">
	<ele>2720.00</ele>
	<time>2023-08-09T06:30:20.000Z</time>
</trkpt>
<trkpt lat="46.1576550" lon="10.4570930">
	<ele>2720.00</ele>
	<time>2023-08-09T06:30:21.000Z</time>
</trkpt>
<trkpt lat="46.1576600" lon="10.4571010">
	<ele>2720.00</ele>
	<time>2023-08-09T06:30:22.000Z</time>
</trkpt>
<trkpt lat="46.1576640" lon="10.4571080">
	<ele>2720.20</ele>
	<time>2023-08-09T06:30:23.000Z</time>
</trkpt>
<trkpt lat="46.1576670" lon="10.4571160">
	<ele>2720.20</ele>
	<time>2023-08-09T06:30:24.000Z</time>
</trkpt>
<trkpt lat="46.1576700" lon="10.4571200">
	<ele>2720.40</ele>
	<time>2023-08-09T06:30:25.000Z</time>
</trkpt>
<trkpt lat="46.1576720" lon="10.4571270">
	<ele>2720.40</ele>
	<time>2023-08-09T06:30:26.000Z</time>
</trkpt>
<trkpt lat="46.1576750" lon="10.4571320">
	<ele>2720.60</ele>
	<time>2023-08-09T06:30:27.000Z</time>
</trkpt>
<trkpt lat="46.1576790" lon="10.4571350">
	<ele>2720.60</ele>
	<time>2023-08-09T06:30:28.000Z</time>
</trkpt>
<trkpt lat="46.1576820" lon="10.4571400">
	<ele>2720.60</ele>
	<time>2023-08-09T06:30:29.000Z</time>
</trkpt>
<trkpt lat="46.1576890" lon="10.4571440">
	<ele>2720.80</ele>
	<time>2023-08-09T06:30:30.000Z</time>
</trkpt>
<trkpt lat="46.1576940" lon="10.4571460">
	<ele>2720.80</ele>
	<time>2023-08-09T06:30:31.000Z</time>
</trkpt>
<trkpt lat="46.1576980" lon="10.4571470">
	<ele>2720.80</ele>
	<time>2023-08-09T06:30:32.000Z</time>
</trkpt>
<trkpt lat="46.1577030" lon="10.4571480">
	<ele>2721.00</ele>
	<time>2023-08-09T06:30:33.000Z</time>
</trkpt>
<trkpt lat="46.1577090" lon="10.4571490">
	<ele>2721.00</ele>
	<time>2023-08-09T06:30:34.000Z</time>
</trkpt>
<trkpt lat="46.1577150" lon="10.4571500">
	<ele>2721.20</ele>
	<time>2023-08-09T06:30:35.000Z</time>
</trkpt>
<trkpt lat="46.1577220" lon="10.4571510">
	<ele>2721.20</ele>
	<time>2023-08-09T06:30:36.000Z</time>
</trkpt>
<trkpt lat="46.1577270" lon="10.4571550">
	<ele>2721.20</ele>
	<time>2023-08-09T06:30:37.000Z</time>
</trkpt>
<trkpt lat="46.1577330" lon="10.4571580">
	<ele>2721.40</ele>
	<time>2023-08-09T06:30:38.000Z</time>
</trkpt>
<trkpt lat="46.1577360" lon="10.4571610">
	<ele>2721.60</ele>
	<time>2023-08-09T06:30:39.000Z</time>
</trkpt>
<trkpt lat="46.1577400" lon="10.4571650">
	<ele>2721.80</ele>
	<time>2023-08-09T06:30:40.000Z</time>
</trkpt>
<trkpt lat="46.1577420" lon="10.4571680">
	<ele>2722.00</ele>
	<time>2023-08-09T06:30:41.000Z</time>
</trkpt>
<trkpt lat="46.1577460" lon="10.4571700">
	<ele>2722.00</ele>
	<time>2023-08-09T06:30:42.000Z</time>
</trkpt>
<trkpt lat="46.1577510" lon="10.4571750">
	<ele>2722.20</ele>
	<time>2023-08-09T06:30:43.000Z</time>
</trkpt>
<trkpt lat="46.1577560" lon="10.4571800">
	<ele>2722.20</ele>
	<time>2023-08-09T06:30:44.000Z</time>
</trkpt>
<trkpt lat="46.1577610" lon="10.4571850">
	<ele>2722.20</ele>
	<time>2023-08-09T06:30:45.000Z</time>
</trkpt>
<trkpt lat="46.1577650" lon="10.4571920">
	<ele>2722.40</ele>
	<time>2023-08-09T06:30:46.000Z</time>
</trkpt>
<trkpt lat="46.1577700" lon="10.4571990">
	<ele>2722.40</ele>
	<time>2023-08-09T06:30:47.000Z</time>
</trkpt>
<trkpt lat="46.1577720" lon="10.4572050">
	<ele>2722.40</ele>
	<time>2023-08-09T06:30:48.000Z</time>
</trkpt>
<trkpt lat="46.1577730" lon="10.4572100">
	<ele>2722.60</ele>
	<time>2023-08-09T06:30:49.000Z</time>
</trkpt>
<trkpt lat="46.1577740" lon="10.4572170">
	<ele>2722.60</ele>
	<time>2023-08-09T06:30:50.000Z</time>
</trkpt>
<trkpt lat="46.1577750" lon="10.4572250">
	<ele>2722.60</ele>
	<time>2023-08-09T06:30:51.000Z</time>
</trkpt>
<trkpt lat="46.1577760" lon="10.4572300">
	<ele>2722.60</ele>
	<time>2023-08-09T06:30:52.000Z</time>
</trkpt>
<trkpt lat="46.1577770" lon="10.4572340">
	<ele>2722.60</ele>
	<time>2023-08-09T06:30:53.000Z</time>
</trkpt>
<trkpt lat="46.1577780" lon="10.4572390">
	<ele>2722.80</ele>
	<time>2023-08-09T06:30:54.000Z</time>
</trkpt>
<trkpt lat="46.1577790" lon="10.4572430">
	<ele>2722.80</ele>
	<time>2023-08-09T06:30:55.000Z</time>
</trkpt>
<trkpt lat="46.1577800" lon="10.4572470">
	<ele>2723.00</ele>
	<time>2023-08-09T06:30:56.000Z</time>
</trkpt>
<trkpt lat="46.1577810" lon="10.4572500">
	<ele>2723.20</ele>
	<time>2023-08-09T06:30:57.000Z</time>
</trkpt>
<trkpt lat="46.1577820" lon="10.4572530">
	<ele>2723.40</ele>
	<time>2023-08-09T06:30:58.000Z</time>
</trkpt>
<trkpt lat="46.1577840" lon="10.4572560">
	<ele>2723.40</ele>
	<time>2023-08-09T06:30:59.000Z</time>
</trkpt>
<trkpt lat="46.1577850" lon="10.4572590">
	<ele>2723.60</ele>
	<time>2023-08-09T06:31:00.000Z</time>
</trkpt>
<trkpt lat="46.1577860" lon="10.4572630">
	<ele>2723.60</ele>
	<time>2023-08-09T06:31:01.000Z</time>
</trkpt>
<trkpt lat="46.1577880" lon="10.4572670">
	<ele>2723.80</ele>
	<time>2023-08-09T06:31:02.000Z</time>
</trkpt>
<trkpt lat="46.1577880" lon="10.4572690">
	<ele>2723.80</ele>
	<time>2023-08-09T06:31:03.000Z</time>
</trkpt>
<trkpt lat="46.1577880" lon="10.4572730">
	<ele>2724.00</ele>
	<time>2023-08-09T06:31:04.000Z</time>
</trkpt>
<trkpt lat="46.1577880" lon="10.4572790">
	<ele>2724.00</ele>
	<time>2023-08-09T06:31:05.000Z</time>
</trkpt>
<trkpt lat="46.1577880" lon="10.4572870">
	<ele>2724.00</ele>
	<time>2023-08-09T06:31:06.000Z</time>
</trkpt>
<trkpt lat="46.1577890" lon="10.4572920">
	<ele>2724.20</ele>
	<time>2023-08-09T06:31:07.000Z</time>
</trkpt>
<trkpt lat="46.1577890" lon="10.4572960">
	<ele>2724.20</ele>
	<time>2023-08-09T06:31:08.000Z</time>
</trkpt>
<trkpt lat="46.1577890" lon="10.4573000">
	<ele>2724.40</ele>
	<time>2023-08-09T06:31:09.000Z</time>
</trkpt>
<trkpt lat="46.1577890" lon="10.4573040">
	<ele>2724.40</ele>
	<time>2023-08-09T06:31:10.000Z</time>
</trkpt>
<trkpt lat="46.1577890" lon="10.4573080">
	<ele>2724.40</ele>
	<time>2023-08-09T06:31:11.000Z</time>
</trkpt>
<trkpt lat="46.1577890" lon="10.4573160">
	<ele>2724.40</ele>
	<time>2023-08-09T06:31:12.000Z</time>
</trkpt>
<trkpt lat="46.1577890" lon="10.4573240">
	<ele>2724.40</ele>
	<time>2023-08-09T06:31:13.000Z</time>
</trkpt>
<trkpt lat="46.1577890" lon="10.4573320">
	<ele>2724.40</ele>
	<time>2023-08-09T06:31:14.000Z</time>
</trkpt>
<trkpt lat="46.1577890" lon="10.4573420">
	<ele>2724.40</ele>
	<time>2023-08-09T06:31:15.000Z</time>
</trkpt>
<trkpt lat="46.1577880" lon="10.4573510">
	<ele>2724.60</ele>
	<time>2023-08-09T06:31:16.000Z</time>
</trkpt>
<trkpt lat="46.1577870" lon="10.4573590">
	<ele>2724.80</ele>
	<time>2023-08-09T06:31:17.000Z</time>
</trkpt>
<trkpt lat="46.1577850" lon="10.4573670">
	<ele>2725.00</ele>
	<time>2023-08-09T06:31:18.000Z</time>
</trkpt>
<trkpt lat="46.1577800" lon="10.4573750">
	<ele>2725.20</ele>
	<time>2023-08-09T06:31:19.000Z</time>
</trkpt>
<trkpt lat="46.1577770" lon="10.4573810">
	<ele>2725.40</ele>
	<time>2023-08-09T06:31:20.000Z</time>
</trkpt>
<trkpt lat="46.1577740" lon="10.4573880">
	<ele>2725.40</ele>
	<time>2023-08-09T06:31:21.000Z</time>
</trkpt>
<trkpt lat="46.1577700" lon="10.4573960">
	<ele>2725.40</ele>
	<time>2023-08-09T06:31:22.000Z</time>
</trkpt>
<trkpt lat="46.1577670" lon="10.4574050">
	<ele>2725.60</ele>
	<time>2023-08-09T06:31:23.000Z</time>
</trkpt>
<trkpt lat="46.1577630" lon="10.4574110">
	<ele>2725.60</ele>
	<time>2023-08-09T06:31:24.000Z</time>
</trkpt>
<trkpt lat="46.1577610" lon="10.4574160">
	<ele>2725.60</ele>
	<time>2023-08-09T06:31:25.000Z</time>
</trkpt>
<trkpt lat="46.1577570" lon="10.4574210">
	<ele>2725.80</ele>
	<time>2023-08-09T06:31:26.000Z</time>
</trkpt>
<trkpt lat="46.1577530" lon="10.4574260">
	<ele>2726.00</ele>
	<time>2023-08-09T06:31:27.000Z</time>
</trkpt>
<trkpt lat="46.1577490" lon="10.4574320">
	<ele>2726.20</ele>
	<time>2023-08-09T06:31:28.000Z</time>
</trkpt>
<trkpt lat="46.1577450" lon="10.4574400">
	<ele>2726.40</ele>
	<time>2023-08-09T06:31:29.000Z</time>
</trkpt>
<trkpt lat="46.1577400" lon="10.4574490">
	<ele>2726.60</ele>
	<time>2023-08-09T06:31:30.000Z</time>
</trkpt>
<trkpt lat="46.1577350" lon="10.4574560">
	<ele>2726.60</ele>
	<time>2023-08-09T06:31:31.000Z</time>
</trkpt>
<trkpt lat="46.1577310" lon="10.4574630">
	<ele>2726.80</ele>
	<time>2023-08-09T06:31:32.000Z</time>
</trkpt>
<trkpt lat="46.1577280" lon="10.4574700">
	<ele>2726.80</ele>
	<time>2023-08-09T06:31:33.000Z</time>
</trkpt>
<trkpt lat="46.1577260" lon="10.4574770">
	<ele>2727.20</ele>
	<time>2023-08-09T06:31:34.000Z</time>
</trkpt>
<trkpt lat="46.1577240" lon="10.4574840">
	<ele>2727.40</ele>
	<time>2023-08-09T06:31:35.000Z</time>
</trkpt>
<trkpt lat="46.1577220" lon="10.4574930">
	<ele>2727.40</ele>
	<time>2023-08-09T06:31:36.000Z</time>
</trkpt>
<trkpt lat="46.1577190" lon="10.4575020">
	<ele>2727.60</ele>
	<time>2023-08-09T06:31:37.000Z</time>
</trkpt>
<trkpt lat="46.1577170" lon="10.4575110">
	<ele>2727.60</ele>
	<time>2023-08-09T06:31:38.000Z</time>
</trkpt>
<trkpt lat="46.1577140" lon="10.4575190">
	<ele>2727.40</ele>
	<time>2023-08-09T06:31:39.000Z</time>
</trkpt>
<trkpt lat="46.1577100" lon="10.4575270">
	<ele>2727.40</ele>
	<time>2023-08-09T06:31:40.000Z</time>
</trkpt>
<trkpt lat="46.1577060" lon="10.4575350">
	<ele>2727.40</ele>
	<time>2023-08-09T06:31:41.000Z</time>
</trkpt>
<trkpt lat="46.1577010" lon="10.4575430">
	<ele>2727.40</ele>
	<time>2023-08-09T06:31:42.000Z</time>
</trkpt>
<trkpt lat="46.1576960" lon="10.4575490">
	<ele>2727.60</ele>
	<time>2023-08-09T06:31:43.000Z</time>
</trkpt>
<trkpt lat="46.1576900" lon="10.4575550">
	<ele>2728.00</ele>
	<time>2023-08-09T06:31:44.000Z</time>
</trkpt>
<trkpt lat="46.1576840" lon="10.4575600">
	<ele>2728.20</ele>
	<time>2023-08-09T06:31:45.000Z</time>
</trkpt>
<trkpt lat="46.1576800" lon="10.4575640">
	<ele>2728.40</ele>
	<time>2023-08-09T06:31:46.000Z</time>
</trkpt>
<trkpt lat="46.1576750" lon="10.4575690">
	<ele>2728.40</ele>
	<time>2023-08-09T06:31:47.000Z</time>
</trkpt>
<trkpt lat="46.1576700" lon="10.4575760">
	<ele>2728.60</ele>
	<time>2023-08-09T06:31:48.000Z</time>
</trkpt>
<trkpt lat="46.1576650" lon="10.4575820">
	<ele>2728.60</ele>
	<time>2023-08-09T06:31:49.000Z</time>
</trkpt>
<trkpt lat="46.1576600" lon="10.4575880">
	<ele>2728.60</ele>
	<time>2023-08-09T06:31:50.000Z</time>
</trkpt>
<trkpt lat="46.1576560" lon="10.4575940">
	<ele>2728.60</ele>
	<time>2023-08-09T06:31:51.000Z</time>
</trkpt>
<trkpt lat="46.1576520" lon="10.4576000">
	<ele>2728.40</ele>
	<time>2023-08-09T06:31:52.000Z</time>
</trkpt>
<trkpt lat="46.1576500" lon="10.4576050">
	<ele>2728.40</ele>
	<time>2023-08-09T06:31:53.000Z</time>
</trkpt>
<trkpt lat="46.1576480" lon="10.4576100">
	<ele>2728.40</ele>
	<time>2023-08-09T06:31:54.000Z</time>
</trkpt>
<trkpt lat="46.1576460" lon="10.4576160">
	<ele>2728.20</ele>
	<time>2023-08-09T06:31:55.000Z</time>
</trkpt>
<trkpt lat="46.1576460" lon="10.4576210">
	<ele>2728.20</ele>
	<time>2023-08-09T06:31:56.000Z</time>
</trkpt>
<trkpt lat="46.1576450" lon="10.4576270">
	<ele>2728.00</ele>
	<time>2023-08-09T06:31:57.000Z</time>
</trkpt>
<trkpt lat="46.1576450" lon="10.4576330">
	<ele>2728.00</ele>
	<time>2023-08-09T06:31:58.000Z</time>
</trkpt>
<trkpt lat="46.1576440" lon="10.4576380">
	<ele>2728.00</ele>
	<time>2023-08-09T06:31:59.000Z</time>
</trkpt>
<trkpt lat="46.1576440" lon="10.4576440">
	<ele>2728.00</ele>
	<time>2023-08-09T06:32:00.000Z</time>
</trkpt>
<trkpt lat="46.1576440" lon="10.4576500">
	<ele>2728.20</ele>
	<time>2023-08-09T06:32:01.000Z</time>
</trkpt>
<trkpt lat="46.1576440" lon="10.4576560">
	<ele>2728.40</ele>
	<time>2023-08-09T06:32:02.000Z</time>
</trkpt>
<trkpt lat="46.1576440" lon="10.4576610">
	<ele>2728.40</ele>
	<time>2023-08-09T06:32:03.000Z</time>
</trkpt>
<trkpt lat="46.1576440" lon="10.4576650">
	<ele>2728.60</ele>
	<time>2023-08-09T06:32:04.000Z</time>
</trkpt>
<trkpt lat="46.1576440" lon="10.4576690">
	<ele>2728.80</ele>
	<time>2023-08-09T06:32:05.000Z</time>
</trkpt>
<trkpt lat="46.1576440" lon="10.4576710">
	<ele>2729.00</ele>
	<time>2023-08-09T06:32:06.000Z</time>
</trkpt>
<trkpt lat="46.1576440" lon="10.4576740">
	<ele>2729.00</ele>
	<time>2023-08-09T06:32:07.000Z</time>
</trkpt>
<trkpt lat="46.1576470" lon="10.4576760">
	<ele>2729.00</ele>
	<time>2023-08-09T06:32:08.000Z</time>
</trkpt>
<trkpt lat="46.1576490" lon="10.4576790">
	<ele>2729.00</ele>
	<time>2023-08-09T06:32:09.000Z</time>
</trkpt>
<trkpt lat="46.1576520" lon="10.4576810">
	<ele>2729.00</ele>
	<time>2023-08-09T06:32:10.000Z</time>
</trkpt>
<trkpt lat="46.1576530" lon="10.4576840">
	<ele>2729.00</ele>
	<time>2023-08-09T06:32:11.000Z</time>
</trkpt>
<trkpt lat="46.1576550" lon="10.4576860">
	<ele>2728.80</ele>
	<time>2023-08-09T06:32:12.000Z</time>
</trkpt>
<trkpt lat="46.1576560" lon="10.4576870">
	<ele>2728.80</ele>
	<time>2023-08-09T06:32:13.000Z</time>
</trkpt>
<trkpt lat="46.1576560" lon="10.4576890">
	<ele>2728.80</ele>
	<time>2023-08-09T06:32:14.000Z</time>
</trkpt>
<trkpt lat="46.1576570" lon="10.4576900">
	<ele>2728.60</ele>
	<time>2023-08-09T06:32:15.000Z</time>
</trkpt>
<trkpt lat="46.1576580" lon="10.4576900">
	<ele>2728.60</ele>
	<time>2023-08-09T06:32:16.000Z</time>
</trkpt>
<trkpt lat="46.1576580" lon="10.4576910">
	<ele>2728.60</ele>
	<time>2023-08-09T06:32:17.000Z</time>
</trkpt>
<trkpt lat="46.1576580" lon="10.4576910">
	<ele>2728.40</ele>
	<time>2023-08-09T06:32:18.000Z</time>
</trkpt>
<trkpt lat="46.1576590" lon="10.4576920">
	<ele>2728.40</ele>
	<time>2023-08-09T06:32:19.000Z</time>
</trkpt>
<trkpt lat="46.1576590" lon="10.4576920">
	<ele>2728.40</ele>
	<time>2023-08-09T06:32:20.000Z</time>
</trkpt>
<trkpt lat="46.1576590" lon="10.4576920">
	<ele>2728.40</ele>
	<time>2023-08-09T06:32:21.000Z</time>
</trkpt>
<trkpt lat="46.1576590" lon="10.4576930">
	<ele>2728.40</ele>
	<time>2023-08-09T06:32:22.000Z</time>
</trkpt>
<trkpt lat="46.1576590" lon="10.4576930">
	<ele>2728.40</ele>
	<time>2023-08-09T06:32:23.000Z</time>
</trkpt>
<trkpt lat="46.1576590" lon="10.4576930">
	<ele>2728.20</ele>
	<time>2023-08-09T06:32:24.000Z</time>
</trkpt>
<trkpt lat="46.1576590" lon="10.4576930">
	<ele>2728.20</ele>
	<time>2023-08-09T06:32:25.000Z</time>
</trkpt>
<trkpt lat="46.1576590" lon="10.4576930">
	<ele>2728.20</ele>
	<time>2023-08-09T06:32:26.000Z</time>
</trkpt>
<trkpt lat="46.1576590" lon="10.4576930">
	<ele>2728.00</ele>
	<time>2023-08-09T06:32:27.000Z</time>
</trkpt>
<trkpt lat="46.1576590" lon="10.4576930">
	<ele>2728.00</ele>
	<time>2023-08-09T06:32:28.000Z</time>
</trkpt>
<trkpt lat="46.1576590" lon="10.4576930">
	<ele>2728.00</ele>
	<time>2023-08-09T06:32:29.000Z</time>
</trkpt>
<trkpt lat="46.1576580" lon="10.4576930">
	<ele>2728.00</ele>
	<time>2023-08-09T06:32:30.000Z</time>
</trkpt>
<trkpt lat="46.1576580" lon="10.4576930">
	<ele>2728.00</ele>
	<time>2023-08-09T06:32:31.000Z</time>
</trkpt>
<trkpt lat="46.1576580" lon="10.4576930">
	<ele>2728.00</ele>
	<time>2023-08-09T06:32:32.000Z</time>
</trkpt>
<trkpt lat="46.1576580" lon="10.4576930">
	<ele>2728.00</ele>
	<time>2023-08-09T06:32:33.000Z</time>
</trkpt>
<trkpt lat="46.1576570" lon="10.4576930">
	<ele>2728.00</ele>
	<time>2023-08-09T06:32:34.000Z</time>
</trkpt>
<trkpt lat="46.1576570" lon="10.4576930">
	<ele>2728.00</ele>
	<time>2023-08-09T06:32:35.000Z</time>
</trkpt>
<trkpt lat="46.1576570" lon="10.4576930">
	<ele>2728.00</ele>
	<time>2023-08-09T06:32:36.000Z</time>
</trkpt>
<trkpt lat="46.1576570" lon="10.4576930">
	<ele>2728.20</ele>
	<time>2023-08-09T06:32:37.000Z</time>
</trkpt>
<trkpt lat="46.1576560" lon="10.4576930">
	<ele>2728.20</ele>
	<time>2023-08-09T06:32:38.000Z</time>
</trkpt>
<trkpt lat="46.1576560" lon="10.4576930">
	<ele>2728.20</ele>
	<time>2023-08-09T06:32:39.000Z</time>
</trkpt>
<trkpt lat="46.1576550" lon="10.4576920">
	<ele>2728.20</ele>
	<time>2023-08-09T06:32:40.000Z</time>
</trkpt>
<trkpt lat="46.1576550" lon="10.4576920">
	<ele>2728.20</ele>
	<time>2023-08-09T06:32:41.000Z</time>
</trkpt>
<trkpt lat="46.1576540" lon="10.4576920">
	<ele>2728.20</ele>
	<time>2023-08-09T06:32:42.000Z</time>
</trkpt>
<trkpt lat="46.1576540" lon="10.4576920">
	<ele>2728.20</ele>
	<time>2023-08-09T06:32:43.000Z</time>
</trkpt>
<trkpt lat="46.1576540" lon="10.4576920">
	<ele>2728.20</ele>
	<time>2023-08-09T06:32:44.000Z</time>
</trkpt>
<trkpt lat="46.1576530" lon="10.4576910">
	<ele>2728.20</ele>
	<time>2023-08-09T06:32:45.000Z</time>
</trkpt>
<trkpt lat="46.1576530" lon="10.4576910">
	<ele>2728.20</ele>
	<time>2023-08-09T06:32:46.000Z</time>
</trkpt>
<trkpt lat="46.1576530" lon="10.4576910">
	<ele>2728.20</ele>
	<time>2023-08-09T06:32:47.000Z</time>
</trkpt>
<trkpt lat="46.1576530" lon="10.4576910">
	<ele>2728.00</ele>
	<time>2023-08-09T06:32:48.000Z</time>
</trkpt>
<trkpt lat="46.1576530" lon="10.4576910">
	<ele>2728.00</ele>
	<time>2023-08-09T06:32:49.000Z</time>
</trkpt>
<trkpt lat="46.1576520" lon="10.4576910">
	<ele>2728.00</ele>
	<time>2023-08-09T06:32:50.000Z</time>
</trkpt>
<trkpt lat="46.1576520" lon="10.4576910">
	<ele>2728.20</ele>
	<time>2023-08-09T06:32:51.000Z</time>
</trkpt>
<trkpt lat="46.1576520" lon="10.4576910">
	<ele>2728.20</ele>
	<time>2023-08-09T06:32:52.000Z</time>
</trkpt>
<trkpt lat="46.1576520" lon="10.4576910">
	<ele>2728.20</ele>
	<time>2023-08-09T06:32:53.000Z</time>
</trkpt>
<trkpt lat="46.1576520" lon="10.4576910">
	<ele>2728.20</ele>
	<time>2023-08-09T06:32:54.000Z</time>
</trkpt>
<trkpt lat="46.1576520" lon="10.4576910">
	<ele>2728.20</ele>
	<time>2023-08-09T06:32:55.000Z</time>
</trkpt>
<trkpt lat="46.1576520" lon="10.4576910">
	<ele>2728.20</ele>
	<time>2023-08-09T06:32:56.000Z</time>
</trkpt>
<trkpt lat="46.1576520" lon="10.4576910">
	<ele>2728.20</ele>
	<time>2023-08-09T06:32:57.000Z</time>
</trkpt>
<trkpt lat="46.1576530" lon="10.4576910">
	<ele>2728.20</ele>
	<time>2023-08-09T06:32:58.000Z</time>
</trkpt>
<trkpt lat="46.1576530" lon="10.4576910">
	<ele>2728.40</ele>
	<time>2023-08-09T06:32:59.000Z</time>
</trkpt>
<trkpt lat="46.1576530" lon="10.4576900">
	<ele>2728.40</ele>
	<time>2023-08-09T06:33:00.000Z</time>
</trkpt>
<trkpt lat="46.1576530" lon="10.4576900">
	<ele>2728.40</ele>
	<time>2023-08-09T06:33:01.000Z</time>
</trkpt>
<trkpt lat="46.1576530" lon="10.4576900">
	<ele>2728.40</ele>
	<time>2023-08-09T06:33:02.000Z</time>
</trkpt>
<trkpt lat="46.1576530" lon="10.4576900">
	<ele>2728.40</ele>
	<time>2023-08-09T06:33:03.000Z</time>
</trkpt>
<trkpt lat="46.1576530" lon="10.4576910">
	<ele>2728.40</ele>
	<time>2023-08-09T06:33:04.000Z</time>
</trkpt>
<trkpt lat="46.1576530" lon="10.4576910">
	<ele>2728.40</ele>
	<time>2023-08-09T06:33:05.000Z</time>
</trkpt>
<trkpt lat="46.1576530" lon="10.4576910">
	<ele>2728.40</ele>
	<time>2023-08-09T06:33:06.000Z</time>
</trkpt>
<trkpt lat="46.1576530" lon="10.4576910">
	<ele>2728.40</ele>
	<time>2023-08-09T06:33:07.000Z</time>
</trkpt>
<trkpt lat="46.1576530" lon="10.4576910">
	<ele>2728.40</ele>
	<time>2023-08-09T06:33:08.000Z</time>
</trkpt>
<trkpt lat="46.1576530" lon="10.4576910">
	<ele>2728.40</ele>
	<time>2023-08-09T06:33:09.000Z</time>
</trkpt>
<trkpt lat="46.1576530" lon="10.4576910">
	<ele>2728.40</ele>
	<time>2023-08-09T06:33:10.000Z</time>
</trkpt>
<trkpt lat="46.1576530" lon="10.4576910">
	<ele>2728.40</ele>
	<time>2023-08-09T06:33:11.000Z</time>
</trkpt>
<trkpt lat="46.1576530" lon="10.4576910">
	<ele>2728.40</ele>
	<time>2023-08-09T06:33:12.000Z</time>
</trkpt>
<trkpt lat="46.1576530" lon="10.4576910">
	<ele>2728.40</ele>
	<time>2023-08-09T06:33:13.000Z</time>
</trkpt>
<trkpt lat="46.1576530" lon="10.4576910">
	<ele>2728.40</ele>
	<time>2023-08-09T06:33:14.000Z</time>
</trkpt>
<trkpt lat="46.1576540" lon="10.4576900">
	<ele>2728.40</ele>
	<time>2023-08-09T06:33:15.000Z</time>
</trkpt>
<trkpt lat="46.1576540" lon="10.4576900">
	<ele>2728.40</ele>
	<time>2023-08-09T06:33:16.000Z</time>
</trkpt>
<trkpt lat="46.1576540" lon="10.4576900">
	<ele>2728.40</ele>
	<time>2023-08-09T06:33:17.000Z</time>
</trkpt>
<trkpt lat="46.1576540" lon="10.4576900">
	<ele>2728.40</ele>
	<time>2023-08-09T06:33:18.000Z</time>
</trkpt>
<trkpt lat="46.1576540" lon="10.4576900">
	<ele>2728.40</ele>
	<time>2023-08-09T06:33:19.000Z</time>
</trkpt>
<trkpt lat="46.1576540" lon="10.4576900">
	<ele>2728.40</ele>
	<time>2023-08-09T06:33:20.000Z</time>
</trkpt>
<trkpt lat="46.1576540" lon="10.4576900">
	<ele>2728.40</ele>
	<time>2023-08-09T06:33:21.000Z</time>
</trkpt>
<trkpt lat="46.1576540" lon="10.4576900">
	<ele>2728.40</ele>
	<time>2023-08-09T06:33:22.000Z</time>
</trkpt>
<trkpt lat="46.1576540" lon="10.4576900">
	<ele>2728.40</ele>
	<time>2023-08-09T06:33:23.000Z</time>
</trkpt>
<trkpt lat="46.1576540" lon="10.4576900">
	<ele>2728.40</ele>
	<time>2023-08-09T06:33:24.000Z</time>
</trkpt>
<trkpt lat="46.1576540" lon="10.4576900">
	<ele>2728.40</ele>
	<time>2023-08-09T06:33:25.000Z</time>
</trkpt>
<trkpt lat="46.1576540" lon="10.4576900">
	<ele>2728.20</ele>
	<time>2023-08-09T06:33:26.000Z</time>
</trkpt>
<trkpt lat="46.1576540" lon="10.4576900">
	<ele>2728.20</ele>
	<time>2023-08-09T06:33:27.000Z</time>
</trkpt>
<trkpt lat="46.1576540" lon="10.4576900">
	<ele>2728.20</ele>
	<time>2023-08-09T06:33:28.000Z</time>
</trkpt>
<trkpt lat="46.1576540" lon="10.4576900">
	<ele>2728.20</ele>
	<time>2023-08-09T06:33:29.000Z</time>
</trkpt>
<trkpt lat="46.1576540" lon="10.4576900">
	<ele>2728.20</ele>
	<time>2023-08-09T06:33:30.000Z</time>
</trkpt>
<trkpt lat="46.1576540" lon="10.4576900">
	<ele>2728.20</ele>
	<time>2023-08-09T06:33:31.000Z</time>
</trkpt>
<trkpt lat="46.1576540" lon="10.4576900">
	<ele>2728.20</ele>
	<time>2023-08-09T06:33:32.000Z</time>
</trkpt>
<trkpt lat="46.1576540" lon="10.4576900">
	<ele>2728.40</ele>
	<time>2023-08-09T06:33:33.000Z</time>
</trkpt>
<trkpt lat="46.1576550" lon="10.4576900">
	<ele>2728.40</ele>
	<time>2023-08-09T06:33:34.000Z</time>
</trkpt>
<trkpt lat="46.1576550" lon="10.4576900">
	<ele>2728.40</ele>
	<time>2023-08-09T06:33:35.000Z</time>
</trkpt>
<trkpt lat="46.1576550" lon="10.4576900">
	<ele>2728.40</ele>
	<time>2023-08-09T06:33:36.000Z</time>
</trkpt>
<trkpt lat="46.1576550" lon="10.4576900">
	<ele>2728.20</ele>
	<time>2023-08-09T06:33:37.000Z</time>
</trkpt>
<trkpt lat="46.1576550" lon="10.4576900">
	<ele>2728.20</ele>
	<time>2023-08-09T06:33:38.000Z</time>
</trkpt>
<trkpt lat="46.1576540" lon="10.4576900">
	<ele>2728.20</ele>
	<time>2023-08-09T06:33:39.000Z</time>
</trkpt>
<trkpt lat="46.1576540" lon="10.4576910">
	<ele>2728.20</ele>
	<time>2023-08-09T06:33:40.000Z</time>
</trkpt>
<trkpt lat="46.1576540" lon="10.4576910">
	<ele>2728.20</ele>
	<time>2023-08-09T06:33:41.000Z</time>
</trkpt>
<trkpt lat="46.1576550" lon="10.4576910">
	<ele>2728.20</ele>
	<time>2023-08-09T06:33:42.000Z</time>
</trkpt>
<trkpt lat="46.1576550" lon="10.4576910">
	<ele>2728.20</ele>
	<time>2023-08-09T06:33:43.000Z</time>
</trkpt>
<trkpt lat="46.1576550" lon="10.4576910">
	<ele>2728.20</ele>
	<time>2023-08-09T06:33:44.000Z</time>
</trkpt>
<trkpt lat="46.1576550" lon="10.4576910">
	<ele>2727.80</ele>
	<time>2023-08-09T06:33:45.000Z</time>
</trkpt>
<trkpt lat="46.1576550" lon="10.4576910">
	<ele>2727.80</ele>
	<time>2023-08-09T06:33:46.000Z</time>
</trkpt>
<trkpt lat="46.1576550" lon="10.4576910">
	<ele>2727.80</ele>
	<time>2023-08-09T06:33:47.000Z</time>
</trkpt>
<trkpt lat="46.1576550" lon="10.4576910">
	<ele>2727.80</ele>
	<time>2023-08-09T06:33:48.000Z</time>
</trkpt>
<trkpt lat="46.1576550" lon="10.4576910">
	<ele>2727.80</ele>
	<time>2023-08-09T06:33:49.000Z</time>
</trkpt>
<trkpt lat="46.1576550" lon="10.4576900">
	<ele>2727.80</ele>
	<time>2023-08-09T06:33:50.000Z</time>
</trkpt>
<trkpt lat="46.1576550" lon="10.4576900">
	<ele>2727.80</ele>
	<time>2023-08-09T06:33:51.000Z</time>
</trkpt>
<trkpt lat="46.1576550" lon="10.4576910">
	<ele>2727.80</ele>
	<time>2023-08-09T06:33:52.000Z</time>
</trkpt>
<trkpt lat="46.1576550" lon="10.4576910">
	<ele>2727.80</ele>
	<time>2023-08-09T06:33:53.000Z</time>
</trkpt>
<trkpt lat="46.1576550" lon="10.4576900">
	<ele>2727.80</ele>
	<time>2023-08-09T06:33:54.000Z</time>
</trkpt>
<trkpt lat="46.1576550" lon="10.4576900">
	<ele>2727.80</ele>
	<time>2023-08-09T06:33:55.000Z</time>
</trkpt>
<trkpt lat="46.1576550" lon="10.4576900">
	<ele>2727.80</ele>
	<time>2023-08-09T06:33:56.000Z</time>
</trkpt>
<trkpt lat="46.1576550" lon="10.4576900">
	<ele>2727.80</ele>
	<time>2023-08-09T06:33:57.000Z</time>
</trkpt>
<trkpt lat="46.1576550" lon="10.4576900">
	<ele>2727.80</ele>
	<time>2023-08-09T06:33:58.000Z</time>
</trkpt>
<trkpt lat="46.1576550" lon="10.4576910">
	<ele>2727.80</ele>
	<time>2023-08-09T06:33:59.000Z</time>
</trkpt>
<trkpt lat="46.1576550" lon="10.4576910">
	<ele>2727.80</ele>
	<time>2023-08-09T06:34:00.000Z</time>
</trkpt>
<trkpt lat="46.1576550" lon="10.4576910">
	<ele>2727.80</ele>
	<time>2023-08-09T06:34:01.000Z</time>
</trkpt>
<trkpt lat="46.1576550" lon="10.4576910">
	<ele>2727.80</ele>
	<time>2023-08-09T06:34:02.000Z</time>
</trkpt>
<trkpt lat="46.1576550" lon="10.4576910">
	<ele>2727.80</ele>
	<time>2023-08-09T06:34:03.000Z</time>
</trkpt>
<trkpt lat="46.1576550" lon="10.4576910">
	<ele>2727.80</ele>
	<time>2023-08-09T06:34:04.000Z</time>
</trkpt>
<trkpt lat="46.1576550" lon="10.4576910">
	<ele>2727.80</ele>
	<time>2023-08-09T06:34:05.000Z</time>
</trkpt>
<trkpt lat="46.1576550" lon="10.4576910">
	<ele>2727.80</ele>
	<time>2023-08-09T06:34:06.000Z</time>
</trkpt>
<trkpt lat="46.1576550" lon="10.4576910">
	<ele>2727.80</ele>
	<time>2023-08-09T06:34:07.000Z</time>
</trkpt>
<trkpt lat="46.1576550" lon="10.4576910">
	<ele>2727.80</ele>
	<time>2023-08-09T06:34:08.000Z</time>
</trkpt>
<trkpt lat="46.1576550" lon="10.4576910">
	<ele>2727.80</ele>
	<time>2023-08-09T06:34:09.000Z</time>
</trkpt>
<trkpt lat="46.1576550" lon="10.4576910">
	<ele>2727.80</ele>
	<time>2023-08-09T06:34:10.000Z</time>
</trkpt>
<trkpt lat="46.1576550" lon="10.4576910">
	<ele>2727.80</ele>
	<time>2023-08-09T06:34:11.000Z</time>
</trkpt>
<trkpt lat="46.1576550" lon="10.4576910">
	<ele>2727.80</ele>
	<time>2023-08-09T06:34:12.000Z</time>
</trkpt>
<trkpt lat="46.1576550" lon="10.4576910">
	<ele>2727.80</ele>
	<time>2023-08-09T06:34:13.000Z</time>
</trkpt>
<trkpt lat="46.1576550" lon="10.4576910">
	<ele>2727.80</ele>
	<time>2023-08-09T06:34:14.000Z</time>
</trkpt>
<trkpt lat="46.1576550" lon="10.4576910">
	<ele>2727.80</ele>
	<time>2023-08-09T06:34:15.000Z</time>
</trkpt>
<trkpt lat="46.1576550" lon="10.4576920">
	<ele>2727.80</ele>
	<time>2023-08-09T06:34:16.000Z</time>
</trkpt>
<trkpt lat="46.1576550" lon="10.4576920">
	<ele>2727.80</ele>
	<time>2023-08-09T06:34:17.000Z</time>
</trkpt>
<trkpt lat="46.1576550" lon="10.4576920">
	<ele>2727.80</ele>
	<time>2023-08-09T06:34:18.000Z</time>
</trkpt>
<trkpt lat="46.1576550" lon="10.4576920">
	<ele>2727.80</ele>
	<time>2023-08-09T06:34:19.000Z</time>
</trkpt>
<trkpt lat="46.1576550" lon="10.4576920">
	<ele>2727.80</ele>
	<time>2023-08-09T06:34:20.000Z</time>
</trkpt>
<trkpt lat="46.1576550" lon="10.4576920">
	<ele>2727.80</ele>
	<time>2023-08-09T06:34:21.000Z</time>
</trkpt>
<trkpt lat="46.1576550" lon="10.4576920">
	<ele>2727.80</ele>
	<time>2023-08-09T06:34:22.000Z</time>
</trkpt>
<trkpt lat="46.1576550" lon="10.4576920">
	<ele>2727.80</ele>
	<time>2023-08-09T06:34:23.000Z</time>
</trkpt>
<trkpt lat="46.1576550" lon="10.4576920">
	<ele>2727.80</ele>
	<time>2023-08-09T06:34:24.000Z</time>
</trkpt>
<trkpt lat="46.1576560" lon="10.4576920">
	<ele>2727.80</ele>
	<time>2023-08-09T06:34:25.000Z</time>
</trkpt>
<trkpt lat="46.1576560" lon="10.4576920">
	<ele>2727.80</ele>
	<time>2023-08-09T06:34:26.000Z</time>
</trkpt>
<trkpt lat="46.1576560" lon="10.4576920">
	<ele>2727.80</ele>
	<time>2023-08-09T06:34:27.000Z</time>
</trkpt>
<trkpt lat="46.1576560" lon="10.4576930">
	<ele>2727.80</ele>
	<time>2023-08-09T06:34:28.000Z</time>
</trkpt>
<trkpt lat="46.1576560" lon="10.4576930">
	<ele>2727.80</ele>
	<time>2023-08-09T06:34:29.000Z</time>
</trkpt>
<trkpt lat="46.1576560" lon="10.4576930">
	<ele>2727.80</ele>
	<time>2023-08-09T06:34:30.000Z</time>
</trkpt>
<trkpt lat="46.1576560" lon="10.4576930">
	<ele>2727.80</ele>
	<time>2023-08-09T06:34:31.000Z</time>
</trkpt>
<trkpt lat="46.1576560" lon="10.4576930">
	<ele>2727.80</ele>
	<time>2023-08-09T06:34:32.000Z</time>
</trkpt>
<trkpt lat="46.1576560" lon="10.4576930">
	<ele>2727.80</ele>
	<time>2023-08-09T06:34:33.000Z</time>
</trkpt>
<trkpt lat="46.1576560" lon="10.4576930">
	<ele>2727.80</ele>
	<time>2023-08-09T06:34:34.000Z</time>
</trkpt>
<trkpt lat="46.1576560" lon="10.4576940">
	<ele>2727.80</ele>
	<time>2023-08-09T06:34:35.000Z</time>
</trkpt>
<trkpt lat="46.1576560" lon="10.4576940">
	<ele>2727.80</ele>
	<time>2023-08-09T06:34:36.000Z</time>
</trkpt>
<trkpt lat="46.1576560" lon="10.4576940">
	<ele>2727.80</ele>
	<time>2023-08-09T06:34:37.000Z</time>
</trkpt>
<trkpt lat="46.1576570" lon="10.4576940">
	<ele>2727.80</ele>
	<time>2023-08-09T06:34:38.000Z</time>
</trkpt>
<trkpt lat="46.1576570" lon="10.4576940">
	<ele>2727.80</ele>
	<time>2023-08-09T06:34:39.000Z</time>
</trkpt>
<trkpt lat="46.1576570" lon="10.4576950">
	<ele>2727.80</ele>
	<time>2023-08-09T06:34:40.000Z</time>
</trkpt>
<trkpt lat="46.1576570" lon="10.4576950">
	<ele>2727.80</ele>
	<time>2023-08-09T06:34:41.000Z</time>
</trkpt>
<trkpt lat="46.1576570" lon="10.4576950">
	<ele>2727.80</ele>
	<time>2023-08-09T06:34:42.000Z</time>
</trkpt>
<trkpt lat="46.1576570" lon="10.4576950">
	<ele>2727.80</ele>
	<time>2023-08-09T06:34:43.000Z</time>
</trkpt>
<trkpt lat="46.1576570" lon="10.4576960">
	<ele>2727.80</ele>
	<time>2023-08-09T06:34:44.000Z</time>
</trkpt>
<trkpt lat="46.1576570" lon="10.4576960">
	<ele>2727.80</ele>
	<time>2023-08-09T06:34:45.000Z</time>
</trkpt>
<trkpt lat="46.1576570" lon="10.4576960">
	<ele>2731.80</ele>
	<time>2023-08-09T06:34:46.000Z</time>
</trkpt>
<trkpt lat="46.1576570" lon="10.4576970">
	<ele>2731.80</ele>
	<time>2023-08-09T06:34:47.000Z</time>
</trkpt>
<trkpt lat="46.1576570" lon="10.4576970">
	<ele>2731.80</ele>
	<time>2023-08-09T06:34:48.000Z</time>
</trkpt>
<trkpt lat="46.1576570" lon="10.4576970">
	<ele>2731.80</ele>
	<time>2023-08-09T06:34:49.000Z</time>
</trkpt>
<trkpt lat="46.1576570" lon="10.4576980">
	<ele>2731.80</ele>
	<time>2023-08-09T06:34:50.000Z</time>
</trkpt>
<trkpt lat="46.1576570" lon="10.4576980">
	<ele>2732.20</ele>
	<time>2023-08-09T06:34:51.000Z</time>
</trkpt>
<trkpt lat="46.1576570" lon="10.4576980">
	<ele>2732.40</ele>
	<time>2023-08-09T06:34:52.000Z</time>
</trkpt>
<trkpt lat="46.1576570" lon="10.4576990">
	<ele>2732.60</ele>
	<time>2023-08-09T06:34:53.000Z</time>
</trkpt>
<trkpt lat="46.1576570" lon="10.4576990">
	<ele>2732.80</ele>
	<time>2023-08-09T06:34:54.000Z</time>
</trkpt>
<trkpt lat="46.1576570" lon="10.4576990">
	<ele>2732.80</ele>
	<time>2023-08-09T06:34:55.000Z</time>
</trkpt>
<trkpt lat="46.1576570" lon="10.4577000">
	<ele>2732.80</ele>
	<time>2023-08-09T06:34:56.000Z</time>
</trkpt>
<trkpt lat="46.1576570" lon="10.4577000">
	<ele>2733.00</ele>
	<time>2023-08-09T06:34:57.000Z</time>
</trkpt>
<trkpt lat="46.1576570" lon="10.4577000">
	<ele>2733.00</ele>
	<time>2023-08-09T06:34:58.000Z</time>
</trkpt>
<trkpt lat="46.1576570" lon="10.4577010">
	<ele>2733.20</ele>
	<time>2023-08-09T06:34:59.000Z</time>
</trkpt>
<trkpt lat="46.1576570" lon="10.4577010">
	<ele>2733.40</ele>
	<time>2023-08-09T06:35:00.000Z</time>
</trkpt>
<trkpt lat="46.1576570" lon="10.4577020">
	<ele>2733.60</ele>
	<time>2023-08-09T06:35:01.000Z</time>
</trkpt>
<trkpt lat="46.1576570" lon="10.4577020">
	<ele>2733.60</ele>
	<time>2023-08-09T06:35:02.000Z</time>
</trkpt>
<trkpt lat="46.1576570" lon="10.4577020">
	<ele>2733.80</ele>
	<time>2023-08-09T06:35:03.000Z</time>
</trkpt>
<trkpt lat="46.1576570" lon="10.4577030">
	<ele>2733.80</ele>
	<time>2023-08-09T06:35:04.000Z</time>
</trkpt>
<trkpt lat="46.1576570" lon="10.4577030">
	<ele>2734.00</ele>
	<time>2023-08-09T06:35:05.000Z</time>
</trkpt>
<trkpt lat="46.1576570" lon="10.4577040">
	<ele>2734.00</ele>
	<time>2023-08-09T06:35:06.000Z</time>
</trkpt>
<trkpt lat="46.1576570" lon="10.4577040">
	<ele>2734.00</ele>
	<time>2023-08-09T06:35:07.000Z</time>
</trkpt>
<trkpt lat="46.1576570" lon="10.4577040">
	<ele>2734.00</ele>
	<time>2023-08-09T06:35:08.000Z</time>
</trkpt>
<trkpt lat="46.1576570" lon="10.4577050">
	<ele>2734.20</ele>
	<time>2023-08-09T06:35:09.000Z</time>
</trkpt>
<trkpt lat="46.1576570" lon="10.4577050">
	<ele>2734.20</ele>
	<time>2023-08-09T06:35:10.000Z</time>
</trkpt>
<trkpt lat="46.1576570" lon="10.4577050">
	<ele>2734.20</ele>
	<time>2023-08-09T06:35:11.000Z</time>
</trkpt>
<trkpt lat="46.1576570" lon="10.4577060">
	<ele>2734.20</ele>
	<time>2023-08-09T06:35:12.000Z</time>
</trkpt>
<trkpt lat="46.1576570" lon="10.4577060">
	<ele>2734.40</ele>
	<time>2023-08-09T06:35:13.000Z</time>
</trkpt>
<trkpt lat="46.1576570" lon="10.4577060">
	<ele>2734.40</ele>
	<time>2023-08-09T06:35:14.000Z</time>
</trkpt>
<trkpt lat="46.1576570" lon="10.4577060">
	<ele>2734.60</ele>
	<time>2023-08-09T06:35:15.000Z</time>
</trkpt>
<trkpt lat="46.1576570" lon="10.4577070">
	<ele>2734.60</ele>
	<time>2023-08-09T06:35:16.000Z</time>
</trkpt>
<trkpt lat="46.1576570" lon="10.4577070">
	<ele>2734.60</ele>
	<time>2023-08-09T06:35:17.000Z</time>
</trkpt>
<trkpt lat="46.1576570" lon="10.4577070">
	<ele>2734.80</ele>
	<time>2023-08-09T06:35:18.000Z</time>
</trkpt>
<trkpt lat="46.1576570" lon="10.4577080">
	<ele>2734.80</ele>
	<time>2023-08-09T06:35:19.000Z</time>
</trkpt>
<trkpt lat="46.1576570" lon="10.4577080">
	<ele>2735.00</ele>
	<time>2023-08-09T06:35:20.000Z</time>
</trkpt>
<trkpt lat="46.1576570" lon="10.4577090">
	<ele>2735.20</ele>
	<time>2023-08-09T06:35:21.000Z</time>
</trkpt>
<trkpt lat="46.1576570" lon="10.4577090">
	<ele>2735.20</ele>
	<time>2023-08-09T06:35:22.000Z</time>
</trkpt>
<trkpt lat="46.1576580" lon="10.4577090">
	<ele>2735.40</ele>
	<time>2023-08-09T06:35:23.000Z</time>
</trkpt>
<trkpt lat="46.1576580" lon="10.4577090">
	<ele>2735.40</ele>
	<time>2023-08-09T06:35:24.000Z</time>
</trkpt>
<trkpt lat="46.1576580" lon="10.4577100">
	<ele>2735.40</ele>
	<time>2023-08-09T06:35:25.000Z</time>
</trkpt>
<trkpt lat="46.1576580" lon="10.4577100">
	<ele>2735.40</ele>
	<time>2023-08-09T06:35:26.000Z</time>
</trkpt>
<trkpt lat="46.1576580" lon="10.4577100">
	<ele>2735.40</ele>
	<time>2023-08-09T06:35:27.000Z</time>
</trkpt>
<trkpt lat="46.1576580" lon="10.4577100">
	<ele>2735.40</ele>
	<time>2023-08-09T06:35:28.000Z</time>
</trkpt>
<trkpt lat="46.1576580" lon="10.4577100">
	<ele>2735.40</ele>
	<time>2023-08-09T06:35:29.000Z</time>
</trkpt>
<trkpt lat="46.1576590" lon="10.4577110">
	<ele>2735.40</ele>
	<time>2023-08-09T06:35:30.000Z</time>
</trkpt>
<trkpt lat="46.1576590" lon="10.4577110">
	<ele>2735.60</ele>
	<time>2023-08-09T06:35:31.000Z</time>
</trkpt>
<trkpt lat="46.1576590" lon="10.4577110">
	<ele>2735.60</ele>
	<time>2023-08-09T06:35:32.000Z</time>
</trkpt>
<trkpt lat="46.1576590" lon="10.4577120">
	<ele>2735.80</ele>
	<time>2023-08-09T06:35:33.000Z</time>
</trkpt>
<trkpt lat="46.1576590" lon="10.4577120">
	<ele>2735.80</ele>
	<time>2023-08-09T06:35:34.000Z</time>
</trkpt>
<trkpt lat="46.1576590" lon="10.4577120">
	<ele>2735.80</ele>
	<time>2023-08-09T06:35:35.000Z</time>
</trkpt>
<trkpt lat="46.1576600" lon="10.4577120">
	<ele>2736.00</ele>
	<time>2023-08-09T06:35:36.000Z</time>
</trkpt>
<trkpt lat="46.1576600" lon="10.4577120">
	<ele>2736.00</ele>
	<time>2023-08-09T06:35:37.000Z</time>
</trkpt>
<trkpt lat="46.1576600" lon="10.4577130">
	<ele>2736.00</ele>
	<time>2023-08-09T06:35:38.000Z</time>
</trkpt>
<trkpt lat="46.1576600" lon="10.4577130">
	<ele>2736.20</ele>
	<time>2023-08-09T06:35:39.000Z</time>
</trkpt>
<trkpt lat="46.1576600" lon="10.4577130">
	<ele>2736.20</ele>
	<time>2023-08-09T06:35:40.000Z</time>
</trkpt>
<trkpt lat="46.1576600" lon="10.4577130">
	<ele>2736.60</ele>
	<time>2023-08-09T06:35:41.000Z</time>
</trkpt>
<trkpt lat="46.1576610" lon="10.4577140">
	<ele>2736.80</ele>
	<time>2023-08-09T06:35:42.000Z</time>
</trkpt>
<trkpt lat="46.1576610" lon="10.4577140">
	<ele>2737.00</ele>
	<time>2023-08-09T06:35:43.000Z</time>
</trkpt>
<trkpt lat="46.1576610" lon="10.4577140">
	<ele>2737.00</ele>
	<time>2023-08-09T06:35:44.000Z</time>
</trkpt>
<trkpt lat="46.1576610" lon="10.4577140">
	<ele>2737.20</ele>
	<time>2023-08-09T06:35:45.000Z</time>
</trkpt>
<trkpt lat="46.1576610" lon="10.4577140">
	<ele>2737.60</ele>
	<time>2023-08-09T06:35:46.000Z</time>
</trkpt>
<trkpt lat="46.1576620" lon="10.4577140">
	<ele>2737.80</ele>
	<time>2023-08-09T06:35:47.000Z</time>
</trkpt>
<trkpt lat="46.1576620" lon="10.4577150">
	<ele>2738.00</ele>
	<time>2023-08-09T06:35:48.000Z</time>
</trkpt>
<trkpt lat="46.1576620" lon="10.4577150">
	<ele>2738.20</ele>
	<time>2023-08-09T06:35:49.000Z</time>
</trkpt>
<trkpt lat="46.1576620" lon="10.4577150">
	<ele>2738.20</ele>
	<time>2023-08-09T06:35:50.000Z</time>
</trkpt>
<trkpt lat="46.1576630" lon="10.4577150">
	<ele>2738.20</ele>
	<time>2023-08-09T06:35:51.000Z</time>
</trkpt>
<trkpt lat="46.1576630" lon="10.4577150">
	<ele>2738.40</ele>
	<time>2023-08-09T06:35:52.000Z</time>
</trkpt>
<trkpt lat="46.1576630" lon="10.4577160">
	<ele>2738.40</ele>
	<time>2023-08-09T06:35:53.000Z</time>
</trkpt>
<trkpt lat="46.1576630" lon="10.4577160">
	<ele>2738.60</ele>
	<time>2023-08-09T06:35:54.000Z</time>
</trkpt>
<trkpt lat="46.1576640" lon="10.4577160">
	<ele>2738.80</ele>
	<time>2023-08-09T06:35:55.000Z</time>
</trkpt>
<trkpt lat="46.1576640" lon="10.4577160">
	<ele>2739.40</ele>
	<time>2023-08-09T06:35:56.000Z</time>
</trkpt>
<trkpt lat="46.1576640" lon="10.4577160">
	<ele>2739.80</ele>
	<time>2023-08-09T06:35:57.000Z</time>
</trkpt>
<trkpt lat="46.1576640" lon="10.4577160">
	<ele>2740.00</ele>
	<time>2023-08-09T06:35:58.000Z</time>
</trkpt>
<trkpt lat="46.1576650" lon="10.4577160">
	<ele>2740.00</ele>
	<time>2023-08-09T06:35:59.000Z</time>
</trkpt>
<trkpt lat="46.1576650" lon="10.4577170">
	<ele>2740.20</ele>
	<time>2023-08-09T06:36:00.000Z</time>
</trkpt>
<trkpt lat="46.1576650" lon="10.4577170">
	<ele>2740.20</ele>
	<time>2023-08-09T06:36:01.000Z</time>
</trkpt>
<trkpt lat="46.1576650" lon="10.4577170">
	<ele>2740.20</ele>
	<time>2023-08-09T06:36:02.000Z</time>
</trkpt>
<trkpt lat="46.1576660" lon="10.4577170">
	<ele>2740.20</ele>
	<time>2023-08-09T06:36:03.000Z</time>
</trkpt>
<trkpt lat="46.1576660" lon="10.4577180">
	<ele>2740.40</ele>
	<time>2023-08-09T06:36:04.000Z</time>
</trkpt>
<trkpt lat="46.1576660" lon="10.4577180">
	<ele>2740.40</ele>
	<time>2023-08-09T06:36:05.000Z</time>
</trkpt>
<trkpt lat="46.1576660" lon="10.4577180">
	<ele>2740.60</ele>
	<time>2023-08-09T06:36:06.000Z</time>
</trkpt>
<trkpt lat="46.1576670" lon="10.4577180">
	<ele>2740.60</ele>
	<time>2023-08-09T06:36:07.000Z</time>
</trkpt>
<trkpt lat="46.1576670" lon="10.4577180">
	<ele>2741.00</ele>
	<time>2023-08-09T06:36:08.000Z</time>
</trkpt>
<trkpt lat="46.1576670" lon="10.4577190">
	<ele>2741.20</ele>
	<time>2023-08-09T06:36:09.000Z</time>
</trkpt>
<trkpt lat="46.1576680" lon="10.4577190">
	<ele>2741.20</ele>
	<time>2023-08-09T06:36:10.000Z</time>
</trkpt>
<trkpt lat="46.1576680" lon="10.4577190">
	<ele>2741.40</ele>
	<time>2023-08-09T06:36:11.000Z</time>
</trkpt>
<trkpt lat="46.1576680" lon="10.4577190">
	<ele>2741.40</ele>
	<time>2023-08-09T06:36:12.000Z</time>
</trkpt>
<trkpt lat="46.1576680" lon="10.4577200">
	<ele>2741.40</ele>
	<time>2023-08-09T06:36:13.000Z</time>
</trkpt>
<trkpt lat="46.1576690" lon="10.4577200">
	<ele>2741.40</ele>
	<time>2023-08-09T06:36:14.000Z</time>
</trkpt>
<trkpt lat="46.1576690" lon="10.4577200">
	<ele>2741.40</ele>
	<time>2023-08-09T06:36:15.000Z</time>
</trkpt>
<trkpt lat="46.1576690" lon="10.4577200">
	<ele>2741.40</ele>
	<time>2023-08-09T06:36:16.000Z</time>
</trkpt>
<trkpt lat="46.1576700" lon="10.4577200">
	<ele>2741.60</ele>
	<time>2023-08-09T06:36:17.000Z</time>
</trkpt>
<trkpt lat="46.1576700" lon="10.4577210">
	<ele>2741.80</ele>
	<time>2023-08-09T06:36:18.000Z</time>
</trkpt>
<trkpt lat="46.1576700" lon="10.4577210">
	<ele>2741.80</ele>
	<time>2023-08-09T06:36:19.000Z</time>
</trkpt>
<trkpt lat="46.1576710" lon="10.4577210">
	<ele>2742.00</ele>
	<time>2023-08-09T06:36:20.000Z</time>
</trkpt>
<trkpt lat="46.1576710" lon="10.4577210">
	<ele>2742.20</ele>
	<time>2023-08-09T06:36:21.000Z</time>
</trkpt>
<trkpt lat="46.1576720" lon="10.4577210">
	<ele>2742.40</ele>
	<time>2023-08-09T06:36:22.000Z</time>
</trkpt>
<trkpt lat="46.1576720" lon="10.4577220">
	<ele>2742.40</ele>
	<time>2023-08-09T06:36:23.000Z</time>
</trkpt>
<trkpt lat="46.1576720" lon="10.4577220">
	<ele>2742.60</ele>
	<time>2023-08-09T06:36:24.000Z</time>
</trkpt>
<trkpt lat="46.1576730" lon="10.4577220">
	<ele>2742.60</ele>
	<time>2023-08-09T06:36:25.000Z</time>
</trkpt>
<trkpt lat="46.1576730" lon="10.4577220">
	<ele>2742.80</ele>
	<time>2023-08-09T06:36:26.000Z</time>
</trkpt>
<trkpt lat="46.1576730" lon="10.4577230">
	<ele>2743.20</ele>
	<time>2023-08-09T06:36:27.000Z</time>
</trkpt>
<trkpt lat="46.1576740" lon="10.4577230">
	<ele>2743.20</ele>
	<time>2023-08-09T06:36:28.000Z</time>
</trkpt>
<trkpt lat="46.1576740" lon="10.4577230">
	<ele>2743.60</ele>
	<time>2023-08-09T06:36:29.000Z</time>
</trkpt>
<trkpt lat="46.1576750" lon="10.4577230">
	<ele>2743.80</ele>
	<time>2023-08-09T06:36:30.000Z</time>
</trkpt>
<trkpt lat="46.1576750" lon="10.4577240">
	<ele>2744.00</ele>
	<time>2023-08-09T06:36:31.000Z</time>
</trkpt>
<trkpt lat="46.1576750" lon="10.4577240">
	<ele>2744.20</ele>
	<time>2023-08-09T06:36:32.000Z</time>
</trkpt>
<trkpt lat="46.1576760" lon="10.4577240">
	<ele>2744.40</ele>
	<time>2023-08-09T06:36:33.000Z</time>
</trkpt>
<trkpt lat="46.1576760" lon="10.4577240">
	<ele>2744.40</ele>
	<time>2023-08-09T06:36:34.000Z</time>
</trkpt>
<trkpt lat="46.1576770" lon="10.4577250">
	<ele>2744.40</ele>
	<time>2023-08-09T06:36:35.000Z</time>
</trkpt>
<trkpt lat="46.1576770" lon="10.4577250">
	<ele>2744.40</ele>
	<time>2023-08-09T06:36:36.000Z</time>
</trkpt>
<trkpt lat="46.1576770" lon="10.4577250">
	<ele>2744.60</ele>
	<time>2023-08-09T06:36:37.000Z</time>
</trkpt>
<trkpt lat="46.1576780" lon="10.4577260">
	<ele>2744.80</ele>
	<time>2023-08-09T06:36:38.000Z</time>
</trkpt>
<trkpt lat="46.1576780" lon="10.4577260">
	<ele>2745.00</ele>
	<time>2023-08-09T06:36:39.000Z</time>
</trkpt>
<trkpt lat="46.1576780" lon="10.4577260">
	<ele>2745.20</ele>
	<time>2023-08-09T06:36:40.000Z</time>
</trkpt>
<trkpt lat="46.1576790" lon="10.4577260">
	<ele>2745.20</ele>
	<time>2023-08-09T06:36:41.000Z</time>
</trkpt>
<trkpt lat="46.1576790" lon="10.4577270">
	<ele>2745.20</ele>
	<time>2023-08-09T06:36:42.000Z</time>
</trkpt>
<trkpt lat="46.1576800" lon="10.4577270">
	<ele>2745.40</ele>
	<time>2023-08-09T06:36:43.000Z</time>
</trkpt>
<trkpt lat="46.1576800" lon="10.4577270">
	<ele>2745.60</ele>
	<time>2023-08-09T06:36:44.000Z</time>
</trkpt>
<trkpt lat="46.1576810" lon="10.4577270">
	<ele>2745.60</ele>
	<time>2023-08-09T06:36:45.000Z</time>
</trkpt>
<trkpt lat="46.1576810" lon="10.4577280">
	<ele>2745.80</ele>
	<time>2023-08-09T06:36:46.000Z</time>
</trkpt>
<trkpt lat="46.1576810" lon="10.4577280">
	<ele>2746.00</ele>
	<time>2023-08-09T06:36:47.000Z</time>
</trkpt>
<trkpt lat="46.1576820" lon="10.4577280">
	<ele>2746.00</ele>
	<time>2023-08-09T06:36:48.000Z</time>
</trkpt>
<trkpt lat="46.1576820" lon="10.4577280">
	<ele>2746.20</ele>
	<time>2023-08-09T06:36:49.000Z</time>
</trkpt>
<trkpt lat="46.1576830" lon="10.4577290">
	<ele>2746.40</ele>
	<time>2023-08-09T06:36:50.000Z</time>
</trkpt>
<trkpt lat="46.1576830" lon="10.4577290">
	<ele>2746.60</ele>
	<time>2023-08-09T06:36:51.000Z</time>
</trkpt>
<trkpt lat="46.1576840" lon="10.4577290">
	<ele>2746.80</ele>
	<time>2023-08-09T06:36:52.000Z</time>
</trkpt>
<trkpt lat="46.1576840" lon="10.4577290">
	<ele>2746.80</ele>
	<time>2023-08-09T06:36:53.000Z</time>
</trkpt>
<trkpt lat="46.1576840" lon="10.4577300">
	<ele>2746.80</ele>
	<time>2023-08-09T06:36:54.000Z</time>
</trkpt>
<trkpt lat="46.1576850" lon="10.4577300">
	<ele>2747.00</ele>
	<time>2023-08-09T06:36:55.000Z</time>
</trkpt>
<trkpt lat="46.1576850" lon="10.4577300">
	<ele>2747.00</ele>
	<time>2023-08-09T06:36:56.000Z</time>
</trkpt>
<trkpt lat="46.1576860" lon="10.4577300">
	<ele>2747.20</ele>
	<time>2023-08-09T06:36:57.000Z</time>
</trkpt>
<trkpt lat="46.1576860" lon="10.4577310">
	<ele>2747.20</ele>
	<time>2023-08-09T06:36:58.000Z</time>
</trkpt>
<trkpt lat="46.1576870" lon="10.4577310">
	<ele>2747.20</ele>
	<time>2023-08-09T06:36:59.000Z</time>
</trkpt>
<trkpt lat="46.1576870" lon="10.4577310">
	<ele>2747.40</ele>
	<time>2023-08-09T06:37:00.000Z</time>
</trkpt>
<trkpt lat="46.1576880" lon="10.4577320">
	<ele>2747.40</ele>
	<time>2023-08-09T06:37:01.000Z</time>
</trkpt>
<trkpt lat="46.1576880" lon="10.4577320">
	<ele>2747.60</ele>
	<time>2023-08-09T06:37:02.000Z</time>
</trkpt>
<trkpt lat="46.1576890" lon="10.4577320">
	<ele>2747.80</ele>
	<time>2023-08-09T06:37:03.000Z</time>
</trkpt>
<trkpt lat="46.1576890" lon="10.4577320">
	<ele>2748.00</ele>
	<time>2023-08-09T06:37:04.000Z</time>
</trkpt>
<trkpt lat="46.1576900" lon="10.4577320">
	<ele>2748.20</ele>
	<time>2023-08-09T06:37:05.000Z</time>
</trkpt>
<trkpt lat="46.1576900" lon="10.4577330">
	<ele>2748.20</ele>
	<time>2023-08-09T06:37:06.000Z</time>
</trkpt>
<trkpt lat="46.1576910" lon="10.4577330">
	<ele>2748.20</ele>
	<time>2023-08-09T06:37:07.000Z</time>
</trkpt>
<trkpt lat="46.1576910" lon="10.4577330">
	<ele>2748.20</ele>
	<time>2023-08-09T06:37:08.000Z</time>
</trkpt>
<trkpt lat="46.1576920" lon="10.4577330">
	<ele>2748.20</ele>
	<time>2023-08-09T06:37:09.000Z</time>
</trkpt>
<trkpt lat="46.1576920" lon="10.4577330">
	<ele>2748.40</ele>
	<time>2023-08-09T06:37:10.000Z</time>
</trkpt>
<trkpt lat="46.1576930" lon="10.4577330">
	<ele>2748.80</ele>
	<time>2023-08-09T06:37:11.000Z</time>
</trkpt>
<trkpt lat="46.1576930" lon="10.4577340">
	<ele>2749.00</ele>
	<time>2023-08-09T06:37:12.000Z</time>
</trkpt>
<trkpt lat="46.1576940" lon="10.4577340">
	<ele>2749.20</ele>
	<time>2023-08-09T06:37:13.000Z</time>
</trkpt>
<trkpt lat="46.1576940" lon="10.4577340">
	<ele>2749.40</ele>
	<time>2023-08-09T06:37:14.000Z</time>
</trkpt>
<trkpt lat="46.1576950" lon="10.4577340">
	<ele>2749.60</ele>
	<time>2023-08-09T06:37:15.000Z</time>
</trkpt>
<trkpt lat="46.1576950" lon="10.4577340">
	<ele>2750.00</ele>
	<time>2023-08-09T06:37:16.000Z</time>
</trkpt>
<trkpt lat="46.1576960" lon="10.4577350">
	<ele>2750.20</ele>
	<time>2023-08-09T06:37:17.000Z</time>
</trkpt>
<trkpt lat="46.1576960" lon="10.4577350">
	<ele>2750.40</ele>
	<time>2023-08-09T06:37:18.000Z</time>
</trkpt>
<trkpt lat="46.1576970" lon="10.4577350">
	<ele>2750.60</ele>
	<time>2023-08-09T06:37:19.000Z</time>
</trkpt>
<trkpt lat="46.1576970" lon="10.4577350">
	<ele>2750.60</ele>
	<time>2023-08-09T06:37:20.000Z</time>
</trkpt>
<trkpt lat="46.1576980" lon="10.4577360">
	<ele>2750.60</ele>
	<time>2023-08-09T06:37:21.000Z</time>
</trkpt>
<trkpt lat="46.1576980" lon="10.4577360">
	<ele>2750.80</ele>
	<time>2023-08-09T06:37:22.000Z</time>
</trkpt>
<trkpt lat="46.1576990" lon="10.4577360">
	<ele>2750.80</ele>
	<time>2023-08-09T06:37:23.000Z</time>
</trkpt>
<trkpt lat="46.1576990" lon="10.4577360">
	<ele>2751.00</ele>
	<time>2023-08-09T06:37:24.000Z</time>
</trkpt>
<trkpt lat="46.1577000" lon="10.4577360">
	<ele>2751.00</ele>
	<time>2023-08-09T06:37:25.000Z</time>
</trkpt>
<trkpt lat="46.1577010" lon="10.4577370">
	<ele>2751.20</ele>
	<time>2023-08-09T06:37:26.000Z</time>
</trkpt>
<trkpt lat="46.1577010" lon="10.4577370">
	<ele>2751.40</ele>
	<time>2023-08-09T06:37:27.000Z</time>
</trkpt>
<trkpt lat="46.1577020" lon="10.4577370">
	<ele>2751.40</ele>
	<time>2023-08-09T06:37:28.000Z</time>
</trkpt>
<trkpt lat="46.1577020" lon="10.4577370">
	<ele>2751.60</ele>
	<time>2023-08-09T06:37:29.000Z</time>
</trkpt>
<trkpt lat="46.1577030" lon="10.4577370">
	<ele>2751.60</ele>
	<time>2023-08-09T06:37:30.000Z</time>
</trkpt>
<trkpt lat="46.1577030" lon="10.4577380">
	<ele>2751.80</ele>
	<time>2023-08-09T06:37:31.000Z</time>
</trkpt>
<trkpt lat="46.1577040" lon="10.4577380">
	<ele>2752.00</ele>
	<time>2023-08-09T06:37:32.000Z</time>
</trkpt>
<trkpt lat="46.1577040" lon="10.4577380">
	<ele>2752.20</ele>
	<time>2023-08-09T06:37:33.000Z</time>
</trkpt>
<trkpt lat="46.1577050" lon="10.4577380">
	<ele>2752.40</ele>
	<time>2023-08-09T06:37:34.000Z</time>
</trkpt>
<trkpt lat="46.1577050" lon="10.4577380">
	<ele>2752.40</ele>
	<time>2023-08-09T06:37:35.000Z</time>
</trkpt>
<trkpt lat="46.1577060" lon="10.4577380">
	<ele>2752.60</ele>
	<time>2023-08-09T06:37:36.000Z</time>
</trkpt>
<trkpt lat="46.1577070" lon="10.4577390">
	<ele>2752.60</ele>
	<time>2023-08-09T06:37:37.000Z</time>
</trkpt>
<trkpt lat="46.1577070" lon="10.4577390">
	<ele>2752.80</ele>
	<time>2023-08-09T06:37:38.000Z</time>
</trkpt>
<trkpt lat="46.1577080" lon="10.4577390">
	<ele>2752.80</ele>
	<time>2023-08-09T06:37:39.000Z</time>
</trkpt>
<trkpt lat="46.1577080" lon="10.4577390">
	<ele>2753.40</ele>
	<time>2023-08-09T06:37:40.000Z</time>
</trkpt>
<trkpt lat="46.1577090" lon="10.4577390">
	<ele>2753.60</ele>
	<time>2023-08-09T06:37:41.000Z</time>
</trkpt>
<trkpt lat="46.1577090" lon="10.4577400">
	<ele>2753.80</ele>
	<time>2023-08-09T06:37:42.000Z</time>
</trkpt>
<trkpt lat="46.1577100" lon="10.4577400">
	<ele>2753.80</ele>
	<time>2023-08-09T06:37:43.000Z</time>
</trkpt>
<trkpt lat="46.1577110" lon="10.4577400">
	<ele>2754.00</ele>
	<time>2023-08-09T06:37:44.000Z</time>
</trkpt>
<trkpt lat="46.1577110" lon="10.4577400">
	<ele>2754.00</ele>
	<time>2023-08-09T06:37:45.000Z</time>
</trkpt>
<trkpt lat="46.1577120" lon="10.4577400">
	<ele>2754.00</ele>
	<time>2023-08-09T06:37:46.000Z</time>
</trkpt>
<trkpt lat="46.1577120" lon="10.4577410">
	<ele>2754.00</ele>
	<time>2023-08-09T06:37:47.000Z</time>
</trkpt>
<trkpt lat="46.1577130" lon="10.4577410">
	<ele>2754.00</ele>
	<time>2023-08-09T06:37:48.000Z</time>
</trkpt>
<trkpt lat="46.1577130" lon="10.4577410">
	<ele>2754.20</ele>
	<time>2023-08-09T06:37:49.000Z</time>
</trkpt>
<trkpt lat="46.1577140" lon="10.4577410">
	<ele>2754.40</ele>
	<time>2023-08-09T06:37:50.000Z</time>
</trkpt>
<trkpt lat="46.1577140" lon="10.4577410">
	<ele>2754.40</ele>
	<time>2023-08-09T06:37:51.000Z</time>
</trkpt>
<trkpt lat="46.1577150" lon="10.4577420">
	<ele>2754.40</ele>
	<time>2023-08-09T06:37:52.000Z</time>
</trkpt>
<trkpt lat="46.1577160" lon="10.4577420">
	<ele>2754.60</ele>
	<time>2023-08-09T06:37:53.000Z</time>
</trkpt>
<trkpt lat="46.1577160" lon="10.4577420">
	<ele>2754.60</ele>
	<time>2023-08-09T06:37:54.000Z</time>
</trkpt>
<trkpt lat="46.1577170" lon="10.4577420">
	<ele>2754.60</ele>
	<time>2023-08-09T06:37:55.000Z</time>
</trkpt>
<trkpt lat="46.1577170" lon="10.4577430">
	<ele>2754.60</ele>
	<time>2023-08-09T06:37:56.000Z</time>
</trkpt>
<trkpt lat="46.1577180" lon="10.4577430">
	<ele>2754.80</ele>
	<time>2023-08-09T06:37:57.000Z</time>
</trkpt>
<trkpt lat="46.1577180" lon="10.4577430">
	<ele>2754.80</ele>
	<time>2023-08-09T06:37:58.000Z</time>
</trkpt>
<trkpt lat="46.1577190" lon="10.4577430">
	<ele>2754.80</ele>
	<time>2023-08-09T06:37:59.000Z</time>
</trkpt>
<trkpt lat="46.1577200" lon="10.4577430">
	<ele>2754.80</ele>
	<time>2023-08-09T06:38:00.000Z</time>
</trkpt>
<trkpt lat="46.1577200" lon="10.4577440">
	<ele>2754.80</ele>
	<time>2023-08-09T06:38:01.000Z</time>
</trkpt>
<trkpt lat="46.1577210" lon="10.4577440">
	<ele>2755.20</ele>
	<time>2023-08-09T06:38:02.000Z</time>
</trkpt>
<trkpt lat="46.1577210" lon="10.4577440">
	<ele>2755.20</ele>
	<time>2023-08-09T06:38:03.000Z</time>
</trkpt>
<trkpt lat="46.1577220" lon="10.4577450">
	<ele>2755.40</ele>
	<time>2023-08-09T06:38:04.000Z</time>
</trkpt>
<trkpt lat="46.1577230" lon="10.4577450">
	<ele>2755.60</ele>
	<time>2023-08-09T06:38:05.000Z</time>
</trkpt>
<trkpt lat="46.1577230" lon="10.4577450">
	<ele>2755.60</ele>
	<time>2023-08-09T06:38:06.000Z</time>
</trkpt>
<trkpt lat="46.1577240" lon="10.4577450">
	<ele>2755.60</ele>
	<time>2023-08-09T06:38:07.000Z</time>
</trkpt>
<trkpt lat="46.1577240" lon="10.4577450">
	<ele>2755.60</ele>
	<time>2023-08-09T06:38:08.000Z</time>
</trkpt>
<trkpt lat="46.1577250" lon="10.4577450">
	<ele>2755.80</ele>
	<time>2023-08-09T06:38:09.000Z</time>
</trkpt>
<trkpt lat="46.1577260" lon="10.4577460">
	<ele>2755.80</ele>
	<time>2023-08-09T06:38:10.000Z</time>
</trkpt>
<trkpt lat="46.1577260" lon="10.4577460">
	<ele>2755.80</ele>
	<time>2023-08-09T06:38:11.000Z</time>
</trkpt>
<trkpt lat="46.1577270" lon="10.4577460">
	<ele>2756.00</ele>
	<time>2023-08-09T06:38:12.000Z</time>
</trkpt>
<trkpt lat="46.1577280" lon="10.4577460">
	<ele>2756.20</ele>
	<time>2023-08-09T06:38:13.000Z</time>
</trkpt>
<trkpt lat="46.1577280" lon="10.4577460">
	<ele>2756.20</ele>
	<time>2023-08-09T06:38:14.000Z</time>
</trkpt>
<trkpt lat="46.1577290" lon="10.4577460">
	<ele>2756.60</ele>
	<time>2023-08-09T06:38:15.000Z</time>
</trkpt>
<trkpt lat="46.1577300" lon="10.4577470">
	<ele>2756.80</ele>
	<time>2023-08-09T06:38:16.000Z</time>
</trkpt>
<trkpt lat="46.1577300" lon="10.4577470">
	<ele>2757.00</ele>
	<time>2023-08-09T06:38:17.000Z</time>
</trkpt>
<trkpt lat="46.1577310" lon="10.4577470">
	<ele>2757.20</ele>
	<time>2023-08-09T06:38:18.000Z</time>
</trkpt>
<trkpt lat="46.1577320" lon="10.4577470">
	<ele>2757.20</ele>
	<time>2023-08-09T06:38:19.000Z</time>
</trkpt>
<trkpt lat="46.1577320" lon="10.4577470">
	<ele>2757.40</ele>
	<time>2023-08-09T06:38:20.000Z</time>
</trkpt>
<trkpt lat="46.1577330" lon="10.4577470">
	<ele>2757.40</ele>
	<time>2023-08-09T06:38:21.000Z</time>
</trkpt>
<trkpt lat="46.1577340" lon="10.4577480">
	<ele>2757.40</ele>
	<time>2023-08-09T06:38:22.000Z</time>
</trkpt>
<trkpt lat="46.1577340" lon="10.4577480">
	<ele>2757.60</ele>
	<time>2023-08-09T06:38:23.000Z</time>
</trkpt>
<trkpt lat="46.1577350" lon="10.4577480">
	<ele>2757.60</ele>
	<time>2023-08-09T06:38:24.000Z</time>
</trkpt>
<trkpt lat="46.1577360" lon="10.4577480">
	<ele>2757.80</ele>
	<time>2023-08-09T06:38:25.000Z</time>
</trkpt>
<trkpt lat="46.1577370" lon="10.4577480">
	<ele>2757.80</ele>
	<time>2023-08-09T06:38:26.000Z</time>
</trkpt>
<trkpt lat="46.1577370" lon="10.4577480">
	<ele>2758.20</ele>
	<time>2023-08-09T06:38:27.000Z</time>
</trkpt>
<trkpt lat="46.1577380" lon="10.4577490">
	<ele>2758.20</ele>
	<time>2023-08-09T06:38:28.000Z</time>
</trkpt>
<trkpt lat="46.1577390" lon="10.4577490">
	<ele>2758.40</ele>
	<time>2023-08-09T06:38:29.000Z</time>
</trkpt>
<trkpt lat="46.1577390" lon="10.4577490">
	<ele>2758.40</ele>
	<time>2023-08-09T06:38:30.000Z</time>
</trkpt>
<trkpt lat="46.1577400" lon="10.4577490">
	<ele>2758.80</ele>
	<time>2023-08-09T06:38:31.000Z</time>
</trkpt>
<trkpt lat="46.1577410" lon="10.4577490">
	<ele>2759.00</ele>
	<time>2023-08-09T06:38:32.000Z</time>
</trkpt>
<trkpt lat="46.1577420" lon="10.4577490">
	<ele>2759.60</ele>
	<time>2023-08-09T06:38:33.000Z</time>
</trkpt>
<trkpt lat="46.1577420" lon="10.4577500">
	<ele>2759.80</ele>
	<time>2023-08-09T06:38:34.000Z</time>
</trkpt>
<trkpt lat="46.1577430" lon="10.4577500">
	<ele>2760.00</ele>
	<time>2023-08-09T06:38:35.000Z</time>
</trkpt>
<trkpt lat="46.1577440" lon="10.4577500">
	<ele>2760.00</ele>
	<time>2023-08-09T06:38:36.000Z</time>
</trkpt>
<trkpt lat="46.1577440" lon="10.4577500">
	<ele>2760.20</ele>
	<time>2023-08-09T06:38:37.000Z</time>
</trkpt>
<trkpt lat="46.1577450" lon="10.4577500">
	<ele>2760.40</ele>
	<time>2023-08-09T06:38:38.000Z</time>
</trkpt>
<trkpt lat="46.1577460" lon="10.4577500">
	<ele>2760.60</ele>
	<time>2023-08-09T06:38:39.000Z</time>
</trkpt>
<trkpt lat="46.1577470" lon="10.4577500">
	<ele>2760.60</ele>
	<time>2023-08-09T06:38:40.000Z</time>
</trkpt>
<trkpt lat="46.1577470" lon="10.4577500">
	<ele>2760.80</ele>
	<time>2023-08-09T06:38:41.000Z</time>
</trkpt>
<trkpt lat="46.1577480" lon="10.4577510">
	<ele>2760.80</ele>
	<time>2023-08-09T06:38:42.000Z</time>
</trkpt>
<trkpt lat="46.1577490" lon="10.4577510">
	<ele>2760.80</ele>
	<time>2023-08-09T06:38:43.000Z</time>
</trkpt>
<trkpt lat="46.1577500" lon="10.4577510">
	<ele>2761.00</ele>
	<time>2023-08-09T06:38:44.000Z</time>
</trkpt>
<trkpt lat="46.1577500" lon="10.4577510">
	<ele>2761.00</ele>
	<time>2023-08-09T06:38:45.000Z</time>
</trkpt>
<trkpt lat="46.1577510" lon="10.4577510">
	<ele>2761.00</ele>
	<time>2023-08-09T06:38:46.000Z</time>
</trkpt>
<trkpt lat="46.1577520" lon="10.4577510">
	<ele>2761.20</ele>
	<time>2023-08-09T06:38:47.000Z</time>
</trkpt>
<trkpt lat="46.1577520" lon="10.4577510">
	<ele>2761.40</ele>
	<time>2023-08-09T06:38:48.000Z</time>
</trkpt>
<trkpt lat="46.1577530" lon="10.4577510">
	<ele>2761.60</ele>
	<time>2023-08-09T06:38:49.000Z</time>
</trkpt>
<trkpt lat="46.1577540" lon="10.4577520">
	<ele>2761.80</ele>
	<time>2023-08-09T06:38:50.000Z</time>
</trkpt>
<trkpt lat="46.1577550" lon="10.4577520">
	<ele>2762.00</ele>
	<time>2023-08-09T06:38:51.000Z</time>
</trkpt>
<trkpt lat="46.1577550" lon="10.4577520">
	<ele>2762.00</ele>
	<time>2023-08-09T06:38:52.000Z</time>
</trkpt>
<trkpt lat="46.1577560" lon="10.4577520">
	<ele>2762.00</ele>
	<time>2023-08-09T06:38:53.000Z</time>
</trkpt>
<trkpt lat="46.1577570" lon="10.4577520">
	<ele>2762.20</ele>
	<time>2023-08-09T06:38:54.000Z</time>
</trkpt>
<trkpt lat="46.1577570" lon="10.4577520">
	<ele>2762.20</ele>
	<time>2023-08-09T06:38:55.000Z</time>
</trkpt>
<trkpt lat="46.1577580" lon="10.4577520">
	<ele>2762.20</ele>
	<time>2023-08-09T06:38:56.000Z</time>
</trkpt>
<trkpt lat="46.1577590" lon="10.4577530">
	<ele>2762.20</ele>
	<time>2023-08-09T06:38:57.000Z</time>
</trkpt>
<trkpt lat="46.1577590" lon="10.4577530">
	<ele>2762.20</ele>
	<time>2023-08-09T06:38:58.000Z</time>
</trkpt>
<trkpt lat="46.1577600" lon="10.4577530">
	<ele>2762.20</ele>
	<time>2023-08-09T06:38:59.000Z</time>
</trkpt>
<trkpt lat="46.1577610" lon="10.4577530">
	<ele>2762.20</ele>
	<time>2023-08-09T06:39:00.000Z</time>
</trkpt>
<trkpt lat="46.1577610" lon="10.4577530">
	<ele>2762.20</ele>
	<time>2023-08-09T06:39:01.000Z</time>
</trkpt>
<trkpt lat="46.1577620" lon="10.4577540">
	<ele>2762.40</ele>
	<time>2023-08-09T06:39:02.000Z</time>
</trkpt>
<trkpt lat="46.1577630" lon="10.4577540">
	<ele>2762.40</ele>
	<time>2023-08-09T06:39:03.000Z</time>
</trkpt>
<trkpt lat="46.1577630" lon="10.4577540">
	<ele>2762.60</ele>
	<time>2023-08-09T06:39:04.000Z</time>
</trkpt>
<trkpt lat="46.1577640" lon="10.4577540">
	<ele>2762.60</ele>
	<time>2023-08-09T06:39:05.000Z</time>
</trkpt>
<trkpt lat="46.1577650" lon="10.4577540">
	<ele>2762.80</ele>
	<time>2023-08-09T06:39:06.000Z</time>
</trkpt>
<trkpt lat="46.1577650" lon="10.4577550">
	<ele>2762.80</ele>
	<time>2023-08-09T06:39:07.000Z</time>
</trkpt>
<trkpt lat="46.1577660" lon="10.4577550">
	<ele>2763.00</ele>
	<time>2023-08-09T06:39:08.000Z</time>
</trkpt>
<trkpt lat="46.1577670" lon="10.4577550">
	<ele>2763.00</ele>
	<time>2023-08-09T06:39:09.000Z</time>
</trkpt>
<trkpt lat="46.1577670" lon="10.4577550">
	<ele>2763.20</ele>
	<time>2023-08-09T06:39:10.000Z</time>
</trkpt>
<trkpt lat="46.1577680" lon="10.4577560">
	<ele>2763.20</ele>
	<time>2023-08-09T06:39:11.000Z</time>
</trkpt>
<trkpt lat="46.1577690" lon="10.4577560">
	<ele>2763.20</ele>
	<time>2023-08-09T06:39:12.000Z</time>
</trkpt>
<trkpt lat="46.1577690" lon="10.4577560">
	<ele>2763.20</ele>
	<time>2023-08-09T06:39:13.000Z</time>
</trkpt>
<trkpt lat="46.1577700" lon="10.4577560">
	<ele>2763.20</ele>
	<time>2023-08-09T06:39:14.000Z</time>
</trkpt>
<trkpt lat="46.1577710" lon="10.4577570">
	<ele>2763.60</ele>
	<time>2023-08-09T06:39:15.000Z</time>
</trkpt>
<trkpt lat="46.1577710" lon="10.4577570">
	<ele>2763.80</ele>
	<time>2023-08-09T06:39:16.000Z</time>
</trkpt>
<trkpt lat="46.1577720" lon="10.4577570">
	<ele>2764.00</ele>
	<time>2023-08-09T06:39:17.000Z</time>
</trkpt>
<trkpt lat="46.1577730" lon="10.4577570">
	<ele>2764.20</ele>
	<time>2023-08-09T06:39:18.000Z</time>
</trkpt>
<trkpt lat="46.1577730" lon="10.4577580">
	<ele>2764.40</ele>
	<time>2023-08-09T06:39:19.000Z</time>
</trkpt>
<trkpt lat="46.1577740" lon="10.4577580">
	<ele>2764.60</ele>
	<time>2023-08-09T06:39:20.000Z</time>
</trkpt>
<trkpt lat="46.1577740" lon="10.4577580">
	<ele>2764.60</ele>
	<time>2023-08-09T06:39:21.000Z</time>
</trkpt>
<trkpt lat="46.1577750" lon="10.4577580">
	<ele>2764.80</ele>
	<time>2023-08-09T06:39:22.000Z</time>
</trkpt>
<trkpt lat="46.1577760" lon="10.4577590">
	<ele>2765.00</ele>
	<time>2023-08-09T06:39:23.000Z</time>
</trkpt>
<trkpt lat="46.1577760" lon="10.4577590">
	<ele>2765.20</ele>
	<time>2023-08-09T06:39:24.000Z</time>
</trkpt>
<trkpt lat="46.1577770" lon="10.4577590">
	<ele>2765.20</ele>
	<time>2023-08-09T06:39:25.000Z</time>
</trkpt>
<trkpt lat="46.1577780" lon="10.4577590">
	<ele>2765.40</ele>
	<time>2023-08-09T06:39:26.000Z</time>
</trkpt>
<trkpt lat="46.1577780" lon="10.4577600">
	<ele>2765.60</ele>
	<time>2023-08-09T06:39:27.000Z</time>
</trkpt>
<trkpt lat="46.1577790" lon="10.4577600">
	<ele>2765.60</ele>
	<time>2023-08-09T06:39:28.000Z</time>
</trkpt>
<trkpt lat="46.1577790" lon="10.4577600">
	<ele>2765.80</ele>
	<time>2023-08-09T06:39:29.000Z</time>
</trkpt>
<trkpt lat="46.1577800" lon="10.4577610">
	<ele>2766.00</ele>
	<time>2023-08-09T06:39:30.000Z</time>
</trkpt>
<trkpt lat="46.1577810" lon="10.4577610">
	<ele>2766.00</ele>
	<time>2023-08-09T06:39:31.000Z</time>
</trkpt>
<trkpt lat="46.1577810" lon="10.4577610">
	<ele>2766.20</ele>
	<time>2023-08-09T06:39:32.000Z</time>
</trkpt>
<trkpt lat="46.1577820" lon="10.4577620">
	<ele>2766.20</ele>
	<time>2023-08-09T06:39:33.000Z</time>
</trkpt>
<trkpt lat="46.1577830" lon="10.4577620">
	<ele>2766.40</ele>
	<time>2023-08-09T06:39:34.000Z</time>
</trkpt>
<trkpt lat="46.1577830" lon="10.4577620">
	<ele>2766.60</ele>
	<time>2023-08-09T06:39:35.000Z</time>
</trkpt>
<trkpt lat="46.1577840" lon="10.4577630">
	<ele>2766.60</ele>
	<time>2023-08-09T06:39:36.000Z</time>
</trkpt>
<trkpt lat="46.1577850" lon="10.4577630">
	<ele>2766.80</ele>
	<time>2023-08-09T06:39:37.000Z</time>
</trkpt>
<trkpt lat="46.1577850" lon="10.4577630">
	<ele>2767.00</ele>
	<time>2023-08-09T06:39:38.000Z</time>
</trkpt>
<trkpt lat="46.1577860" lon="10.4577640">
	<ele>2767.20</ele>
	<time>2023-08-09T06:39:39.000Z</time>
</trkpt>
<trkpt lat="46.1577870" lon="10.4577640">
	<ele>2767.20</ele>
	<time>2023-08-09T06:39:40.000Z</time>
</trkpt>
<trkpt lat="46.1577870" lon="10.4577640">
	<ele>2767.20</ele>
	<time>2023-08-09T06:39:41.000Z</time>
</trkpt>
<trkpt lat="46.1577880" lon="10.4577650">
	<ele>2767.40</ele>
	<time>2023-08-09T06:39:42.000Z</time>
</trkpt>
<trkpt lat="46.1577880" lon="10.4577650">
	<ele>2767.40</ele>
	<time>2023-08-09T06:39:43.000Z</time>
</trkpt>
<trkpt lat="46.1577890" lon="10.4577650">
	<ele>2767.40</ele>
	<time>2023-08-09T06:39:44.000Z</time>
</trkpt>
<trkpt lat="46.1577900" lon="10.4577660">
	<ele>2767.60</ele>
	<time>2023-08-09T06:39:45.000Z</time>
</trkpt>
<trkpt lat="46.1577900" lon="10.4577660">
	<ele>2767.60</ele>
	<time>2023-08-09T06:39:46.000Z</time>
</trkpt>
<trkpt lat="46.1577910" lon="10.4577660">
	<ele>2768.00</ele>
	<time>2023-08-09T06:39:47.000Z</time>
</trkpt>
<trkpt lat="46.1577920" lon="10.4577670">
	<ele>2768.20</ele>
	<time>2023-08-09T06:39:48.000Z</time>
</trkpt>
<trkpt lat="46.1577920" lon="10.4577670">
	<ele>2768.40</ele>
	<time>2023-08-09T06:39:49.000Z</time>
</trkpt>
<trkpt lat="46.1577930" lon="10.4577670">
	<ele>2768.40</ele>
	<time>2023-08-09T06:39:50.000Z</time>
</trkpt>
<trkpt lat="46.1577940" lon="10.4577670">
	<ele>2768.60</ele>
	<time>2023-08-09T06:39:51.000Z</time>
</trkpt>
<trkpt lat="46.1577940" lon="10.4577680">
	<ele>2768.60</ele>
	<time>2023-08-09T06:39:52.000Z</time>
</trkpt>
<trkpt lat="46.1577950" lon="10.4577680">
	<ele>2768.60</ele>
	<time>2023-08-09T06:39:53.000Z</time>
</trkpt>
<trkpt lat="46.1577960" lon="10.4577680">
	<ele>2768.80</ele>
	<time>2023-08-09T06:39:54.000Z</time>
</trkpt>
<trkpt lat="46.1577960" lon="10.4577690">
	<ele>2769.00</ele>
	<time>2023-08-09T06:39:55.000Z</time>
</trkpt>
<trkpt lat="46.1577970" lon="10.4577690">
	<ele>2769.20</ele>
	<time>2023-08-09T06:39:56.000Z</time>
</trkpt>
<trkpt lat="46.1577970" lon="10.4577690">
	<ele>2769.40</ele>
	<time>2023-08-09T06:39:57.000Z</time>
</trkpt>
<trkpt lat="46.1577980" lon="10.4577700">
	<ele>2769.60</ele>
	<time>2023-08-09T06:39:58.000Z</time>
</trkpt>
<trkpt lat="46.1577990" lon="10.4577700">
	<ele>2769.60</ele>
	<time>2023-08-09T06:39:59.000Z</time>
</trkpt>
<trkpt lat="46.1577990" lon="10.4577700">
	<ele>2769.80</ele>
	<time>2023-08-09T06:40:00.000Z</time>
</trkpt>
<trkpt lat="46.1578000" lon="10.4577700">
	<ele>2769.80</ele>
	<time>2023-08-09T06:40:01.000Z</time>
</trkpt>
<trkpt lat="46.1578010" lon="10.4577710">
	<ele>2770.20</ele>
	<time>2023-08-09T06:40:02.000Z</time>
</trkpt>
<trkpt lat="46.1578010" lon="10.4577710">
	<ele>2770.40</ele>
	<time>2023-08-09T06:40:03.000Z</time>
</trkpt>
<trkpt lat="46.1578020" lon="10.4577710">
	<ele>2770.60</ele>
	<time>2023-08-09T06:40:04.000Z</time>
</trkpt>
<trkpt lat="46.1578030" lon="10.4577720">
	<ele>2770.60</ele>
	<time>2023-08-09T06:40:05.000Z</time>
</trkpt>
<trkpt lat="46.1578040" lon="10.4577720">
	<ele>2770.80</ele>
	<time>2023-08-09T06:40:06.000Z</time>
</trkpt>
<trkpt lat="46.1578040" lon="10.4577720">
	<ele>2771.20</ele>
	<time>2023-08-09T06:40:07.000Z</time>
</trkpt>
<trkpt lat="46.1578050" lon="10.4577730">
	<ele>2771.00</ele>
	<time>2023-08-09T06:40:08.000Z</time>
</trkpt>
<trkpt lat="46.1578050" lon="10.4577730">
	<ele>2771.40</ele>
	<time>2023-08-09T06:40:09.000Z</time>
</trkpt>
<trkpt lat="46.1578060" lon="10.4577730">
	<ele>2771.40</ele>
	<time>2023-08-09T06:40:10.000Z</time>
</trkpt>
<trkpt lat="46.1578070" lon="10.4577740">
	<ele>2771.60</ele>
	<time>2023-08-09T06:40:11.000Z</time>
</trkpt>
<trkpt lat="46.1578070" lon="10.4577740">
	<ele>2771.60</ele>
	<time>2023-08-09T06:40:12.000Z</time>
</trkpt>
<trkpt lat="46.1578080" lon="10.4577740">
	<ele>2771.60</ele>
	<time>2023-08-09T06:40:13.000Z</time>
</trkpt>
<trkpt lat="46.1578090" lon="10.4577740">
	<ele>2771.80</ele>
	<time>2023-08-09T06:40:14.000Z</time>
</trkpt>
<trkpt lat="46.1578090" lon="10.4577750">
	<ele>2771.80</ele>
	<time>2023-08-09T06:40:15.000Z</time>
</trkpt>
<trkpt lat="46.1578100" lon="10.4577750">
	<ele>2771.80</ele>
	<time>2023-08-09T06:40:16.000Z</time>
</trkpt>
<trkpt lat="46.1578110" lon="10.4577750">
	<ele>2772.20</ele>
	<time>2023-08-09T06:40:17.000Z</time>
</trkpt>
<trkpt lat="46.1578110" lon="10.4577760">
	<ele>2772.40</ele>
	<time>2023-08-09T06:40:18.000Z</time>
</trkpt>
<trkpt lat="46.1578120" lon="10.4577760">
	<ele>2772.60</ele>
	<time>2023-08-09T06:40:19.000Z</time>
</trkpt>
<trkpt lat="46.1578130" lon="10.4577770">
	<ele>2772.60</ele>
	<time>2023-08-09T06:40:20.000Z</time>
</trkpt>
<trkpt lat="46.1578130" lon="10.4577770">
	<ele>2772.60</ele>
	<time>2023-08-09T06:40:21.000Z</time>
</trkpt>
<trkpt lat="46.1578140" lon="10.4577770">
	<ele>2772.60</ele>
	<time>2023-08-09T06:40:22.000Z</time>
</trkpt>
<trkpt lat="46.1578150" lon="10.4577780">
	<ele>2772.60</ele>
	<time>2023-08-09T06:40:23.000Z</time>
</trkpt>
<trkpt lat="46.1578160" lon="10.4577780">
	<ele>2772.80</ele>
	<time>2023-08-09T06:40:24.000Z</time>
</trkpt>
<trkpt lat="46.1578160" lon="10.4577780">
	<ele>2772.80</ele>
	<time>2023-08-09T06:40:25.000Z</time>
</trkpt>
<trkpt lat="46.1578170" lon="10.4577780">
	<ele>2773.00</ele>
	<time>2023-08-09T06:40:26.000Z</time>
</trkpt>
<trkpt lat="46.1578180" lon="10.4577790">
	<ele>2773.40</ele>
	<time>2023-08-09T06:40:27.000Z</time>
</trkpt>
<trkpt lat="46.1578180" lon="10.4577790">
	<ele>2773.60</ele>
	<time>2023-08-09T06:40:28.000Z</time>
</trkpt>
<trkpt lat="46.1578190" lon="10.4577790">
	<ele>2773.60</ele>
	<time>2023-08-09T06:40:29.000Z</time>
</trkpt>
<trkpt lat="46.1578200" lon="10.4577800">
	<ele>2773.60</ele>
	<time>2023-08-09T06:40:30.000Z</time>
</trkpt>
<trkpt lat="46.1578200" lon="10.4577800">
	<ele>2773.80</ele>
	<time>2023-08-09T06:40:31.000Z</time>
</trkpt>
<trkpt lat="46.1578210" lon="10.4577800">
	<ele>2773.80</ele>
	<time>2023-08-09T06:40:32.000Z</time>
</trkpt>
<trkpt lat="46.1578220" lon="10.4577800">
	<ele>2773.80</ele>
	<time>2023-08-09T06:40:33.000Z</time>
</trkpt>
<trkpt lat="46.1578220" lon="10.4577810">
	<ele>2773.80</ele>
	<time>2023-08-09T06:40:34.000Z</time>
</trkpt>
<trkpt lat="46.1578230" lon="10.4577810">
	<ele>2773.80</ele>
	<time>2023-08-09T06:40:35.000Z</time>
</trkpt>
<trkpt lat="46.1578240" lon="10.4577810">
	<ele>2774.00</ele>
	<time>2023-08-09T06:40:36.000Z</time>
</trkpt>
<trkpt lat="46.1578240" lon="10.4577820">
	<ele>2774.20</ele>
	<time>2023-08-09T06:40:37.000Z</time>
</trkpt>
<trkpt lat="46.1578250" lon="10.4577820">
	<ele>2774.40</ele>
	<time>2023-08-09T06:40:38.000Z</time>
</trkpt>
<trkpt lat="46.1578260" lon="10.4577820">
	<ele>2774.40</ele>
	<time>2023-08-09T06:40:39.000Z</time>
</trkpt>
<trkpt lat="46.1578260" lon="10.4577820">
	<ele>2774.40</ele>
	<time>2023-08-09T06:40:40.000Z</time>
</trkpt>
<trkpt lat="46.1578270" lon="10.4577830">
	<ele>2774.40</ele>
	<time>2023-08-09T06:40:41.000Z</time>
</trkpt>
<trkpt lat="46.1578280" lon="10.4577830">
	<ele>2774.40</ele>
	<time>2023-08-09T06:40:42.000Z</time>
</trkpt>
<trkpt lat="46.1578280" lon="10.4577830">
	<ele>2774.20</ele>
	<time>2023-08-09T06:40:43.000Z</time>
</trkpt>
<trkpt lat="46.1578290" lon="10.4577840">
	<ele>2774.20</ele>
	<time>2023-08-09T06:40:44.000Z</time>
</trkpt>
<trkpt lat="46.1578300" lon="10.4577840">
	<ele>2774.00</ele>
	<time>2023-08-09T06:40:45.000Z</time>
</trkpt>
<trkpt lat="46.1578300" lon="10.4577840">
	<ele>2774.00</ele>
	<time>2023-08-09T06:40:46.000Z</time>
</trkpt>
<trkpt lat="46.1578310" lon="10.4577840">
	<ele>2774.00</ele>
	<time>2023-08-09T06:40:47.000Z</time>
</trkpt>
<trkpt lat="46.1578320" lon="10.4577850">
	<ele>2774.00</ele>
	<time>2023-08-09T06:40:48.000Z</time>
</trkpt>
<trkpt lat="46.1578330" lon="10.4577850">
	<ele>2774.00</ele>
	<time>2023-08-09T06:40:49.000Z</time>
</trkpt>
<trkpt lat="46.1578330" lon="10.4577850">
	<ele>2774.00</ele>
	<time>2023-08-09T06:40:50.000Z</time>
</trkpt>
<trkpt lat="46.1578340" lon="10.4577850">
	<ele>2774.00</ele>
	<time>2023-08-09T06:40:51.000Z</time>
</trkpt>
<trkpt lat="46.1578340" lon="10.4577860">
	<ele>2774.00</ele>
	<time>2023-08-09T06:40:52.000Z</time>
</trkpt>
<trkpt lat="46.1578350" lon="10.4577860">
	<ele>2774.00</ele>
	<time>2023-08-09T06:40:53.000Z</time>
</trkpt>
<trkpt lat="46.1578360" lon="10.4577860">
	<ele>2774.00</ele>
	<time>2023-08-09T06:40:54.000Z</time>
</trkpt>
<trkpt lat="46.1578360" lon="10.4577860">
	<ele>2774.00</ele>
	<time>2023-08-09T06:40:55.000Z</time>
</trkpt>
<trkpt lat="46.1578370" lon="10.4577870">
	<ele>2773.80</ele>
	<time>2023-08-09T06:40:56.000Z</time>
</trkpt>
<trkpt lat="46.1578380" lon="10.4577870">
	<ele>2773.80</ele>
	<time>2023-08-09T06:40:57.000Z</time>
</trkpt>
<trkpt lat="46.1578390" lon="10.4577880">
	<ele>2773.80</ele>
	<time>2023-08-09T06:40:58.000Z</time>
</trkpt>
<trkpt lat="46.1578390" lon="10.4577880">
	<ele>2773.80</ele>
	<time>2023-08-09T06:40:59.000Z</time>
</trkpt>
<trkpt lat="46.1578400" lon="10.4577880">
	<ele>2773.60</ele>
	<time>2023-08-09T06:41:00.000Z</time>
</trkpt>
<trkpt lat="46.1578400" lon="10.4577880">
	<ele>2773.40</ele>
	<time>2023-08-09T06:41:01.000Z</time>
</trkpt>
<trkpt lat="46.1578410" lon="10.4577890">
	<ele>2773.20</ele>
	<time>2023-08-09T06:41:02.000Z</time>
</trkpt>
<trkpt lat="46.1578420" lon="10.4577890">
	<ele>2773.00</ele>
	<time>2023-08-09T06:41:03.000Z</time>
</trkpt>
<trkpt lat="46.1578420" lon="10.4577890">
	<ele>2773.00</ele>
	<time>2023-08-09T06:41:04.000Z</time>
</trkpt>
<trkpt lat="46.1578430" lon="10.4577900">
	<ele>2773.00</ele>
	<time>2023-08-09T06:41:05.000Z</time>
</trkpt>
<trkpt lat="46.1578440" lon="10.4577900">
	<ele>2773.00</ele>
	<time>2023-08-09T06:41:06.000Z</time>
</trkpt>
<trkpt lat="46.1578440" lon="10.4577900">
	<ele>2773.00</ele>
	<time>2023-08-09T06:41:07.000Z</time>
</trkpt>
<trkpt lat="46.1578450" lon="10.4577900">
	<ele>2773.00</ele>
	<time>2023-08-09T06:41:08.000Z</time>
</trkpt>
<trkpt lat="46.1578460" lon="10.4577900">
	<ele>2773.00</ele>
	<time>2023-08-09T06:41:09.000Z</time>
</trkpt>
<trkpt lat="46.1578460" lon="10.4577910">
	<ele>2773.20</ele>
	<time>2023-08-09T06:41:10.000Z</time>
</trkpt>
<trkpt lat="46.1579200" lon="10.4578180">
	<ele>2773.40</ele>
	<time>2023-08-09T06:41:11.000Z</time>
</trkpt>
<trkpt lat="46.1580030" lon="10.4578470">
	<ele>2773.60</ele>
	<time>2023-08-09T06:41:12.000Z</time>
</trkpt>
<trkpt lat="46.1580820" lon="10.4578730">
	<ele>2773.60</ele>
	<time>2023-08-09T06:41:13.000Z</time>
</trkpt>
<trkpt lat="46.1581610" lon="10.4578950">
	<ele>2773.80</ele>
	<time>2023-08-09T06:41:14.000Z</time>
</trkpt>
<trkpt lat="46.1582410" lon="10.4579200">
	<ele>2773.80</ele>
	<time>2023-08-09T06:41:15.000Z</time>
</trkpt>
<trkpt lat="46.1583220" lon="10.4579470">
	<ele>2773.80</ele>
	<time>2023-08-09T06:41:16.000Z</time>
</trkpt>
<trkpt lat="46.1584010" lon="10.4579740">
	<ele>2774.00</ele>
	<time>2023-08-09T06:41:17.000Z</time>
</trkpt>
<trkpt lat="46.1584810" lon="10.4579950">
	<ele>2774.00</ele>
	<time>2023-08-09T06:41:18.000Z</time>
</trkpt>
<trkpt lat="46.1585580" lon="10.4580180">
	<ele>2774.20</ele>
	<time>2023-08-09T06:41:19.000Z</time>
</trkpt>
<trkpt lat="46.1586340" lon="10.4580420">
	<ele>2774.20</ele>
	<time>2023-08-09T06:41:20.000Z</time>
</trkpt>
<trkpt lat="46.1586370" lon="10.4580350">
	<ele>2774.20</ele>
	<time>2023-08-09T06:41:21.000Z</time>
</trkpt>
<trkpt lat="46.1586430" lon="10.4580270">
	<ele>2774.40</ele>
	<time>2023-08-09T06:41:22.000Z</time>
</trkpt>
<trkpt lat="46.1586460" lon="10.4580230">
	<ele>2774.40</ele>
	<time>2023-08-09T06:41:23.000Z</time>
</trkpt>
<trkpt lat="46.1586470" lon="10.4580180">
	<ele>2774.40</ele>
	<time>2023-08-09T06:41:24.000Z</time>
</trkpt>
<trkpt lat="46.1586530" lon="10.4580100">
	<ele>2774.60</ele>
	<time>2023-08-09T06:41:25.000Z</time>
</trkpt>
<trkpt lat="46.1586590" lon="10.4580040">
	<ele>2774.80</ele>
	<time>2023-08-09T06:41:26.000Z</time>
</trkpt>
<trkpt lat="46.1586630" lon="10.4579990">
	<ele>2775.00</ele>
	<time>2023-08-09T06:41:27.000Z</time>
</trkpt>
<trkpt lat="46.1586660" lon="10.4579960">
	<ele>2775.00</ele>
	<time>2023-08-09T06:41:28.000Z</time>
</trkpt>
<trkpt lat="46.1586710" lon="10.4579910">
	<ele>2775.20</ele>
	<time>2023-08-09T06:41:29.000Z</time>
</trkpt>
<trkpt lat="46.1586740" lon="10.4579870">
	<ele>2775.40</ele>
	<time>2023-08-09T06:41:30.000Z</time>
</trkpt>
<trkpt lat="46.1586800" lon="10.4579830">
	<ele>2775.20</ele>
	<time>2023-08-09T06:41:31.000Z</time>
</trkpt>
<trkpt lat="46.1586820" lon="10.4579800">
	<ele>2775.20</ele>
	<time>2023-08-09T06:41:32.000Z</time>
</trkpt>
<trkpt lat="46.1586830" lon="10.4579760">
	<ele>2775.00</ele>
	<time>2023-08-09T06:41:33.000Z</time>
</trkpt>
<trkpt lat="46.1586860" lon="10.4579670">
	<ele>2775.00</ele>
	<time>2023-08-09T06:41:34.000Z</time>
</trkpt>
<trkpt lat="46.1586910" lon="10.4579610">
	<ele>2775.00</ele>
	<time>2023-08-09T06:41:35.000Z</time>
</trkpt>
<trkpt lat="46.1586940" lon="10.4579570">
	<ele>2775.00</ele>
	<time>2023-08-09T06:41:36.000Z</time>
</trkpt>
<trkpt lat="46.1586950" lon="10.4579500">
	<ele>2775.00</ele>
	<time>2023-08-09T06:41:37.000Z</time>
</trkpt>
<trkpt lat="46.1586980" lon="10.4579470">
	<ele>2775.00</ele>
	<time>2023-08-09T06:41:38.000Z</time>
</trkpt>
<trkpt lat="46.1586990" lon="10.4579450">
	<ele>2775.00</ele>
	<time>2023-08-09T06:41:39.000Z</time>
</trkpt>
<trkpt lat="46.1587030" lon="10.4579410">
	<ele>2775.00</ele>
	<time>2023-08-09T06:41:40.000Z</time>
</trkpt>
<trkpt lat="46.1587040" lon="10.4579330">
	<ele>2775.00</ele>
	<time>2023-08-09T06:41:41.000Z</time>
</trkpt>
<trkpt lat="46.1587090" lon="10.4579270">
	<ele>2775.00</ele>
	<time>2023-08-09T06:41:42.000Z</time>
</trkpt>
<trkpt lat="46.1587130" lon="10.4579230">
	<ele>2775.00</ele>
	<time>2023-08-09T06:41:43.000Z</time>
</trkpt>
<trkpt lat="46.1587170" lon="10.4579210">
	<ele>2775.00</ele>
	<time>2023-08-09T06:41:44.000Z</time>
</trkpt>
<trkpt lat="46.1587210" lon="10.4579200">
	<ele>2775.00</ele>
	<time>2023-08-09T06:41:45.000Z</time>
</trkpt>
<trkpt lat="46.1587240" lon="10.4579220">
	<ele>2775.20</ele>
	<time>2023-08-09T06:41:46.000Z</time>
</trkpt>
<trkpt lat="46.1587260" lon="10.4579230">
	<ele>2775.20</ele>
	<time>2023-08-09T06:41:47.000Z</time>
</trkpt>
<trkpt lat="46.1587280" lon="10.4579230">
	<ele>2775.20</ele>
	<time>2023-08-09T06:41:48.000Z</time>
</trkpt>
<trkpt lat="46.1587290" lon="10.4579220">
	<ele>2775.20</ele>
	<time>2023-08-09T06:41:49.000Z</time>
</trkpt>
<trkpt lat="46.1587300" lon="10.4579120">
	<ele>2775.20</ele>
	<time>2023-08-09T06:41:50.000Z</time>
</trkpt>
<trkpt lat="46.1587320" lon="10.4579050">
	<ele>2775.20</ele>
	<time>2023-08-09T06:41:51.000Z</time>
</trkpt>
<trkpt lat="46.1587390" lon="10.4578980">
	<ele>2775.20</ele>
	<time>2023-08-09T06:41:52.000Z</time>
</trkpt>
<trkpt lat="46.1587440" lon="10.4578920">
	<ele>2775.20</ele>
	<time>2023-08-09T06:41:53.000Z</time>
</trkpt>
<trkpt lat="46.1587490" lon="10.4578950">
	<ele>2775.40</ele>
	<time>2023-08-09T06:41:54.000Z</time>
</trkpt>
<trkpt lat="46.1587540" lon="10.4578980">
	<ele>2775.40</ele>
	<time>2023-08-09T06:41:55.000Z</time>
</trkpt>
<trkpt lat="46.1587560" lon="10.4578990">
	<ele>2775.60</ele>
	<time>2023-08-09T06:41:56.000Z</time>
</trkpt>
<trkpt lat="46.1587570" lon="10.4578960">
	<ele>2775.60</ele>
	<time>2023-08-09T06:41:57.000Z</time>
</trkpt>
<trkpt lat="46.1587630" lon="10.4578930">
	<ele>2775.60</ele>
	<time>2023-08-09T06:41:58.000Z</time>
</trkpt>
<trkpt lat="46.1587700" lon="10.4578900">
	<ele>2775.80</ele>
	<time>2023-08-09T06:41:59.000Z</time>
</trkpt>
<trkpt lat="46.1587740" lon="10.4578870">
	<ele>2775.80</ele>
	<time>2023-08-09T06:42:00.000Z</time>
</trkpt>
<trkpt lat="46.1587790" lon="10.4578860">
	<ele>2776.00</ele>
	<time>2023-08-09T06:42:01.000Z</time>
</trkpt>
<trkpt lat="46.1587820" lon="10.4578870">
	<ele>2776.20</ele>
	<time>2023-08-09T06:42:02.000Z</time>
</trkpt>
<trkpt lat="46.1587860" lon="10.4578880">
	<ele>2776.20</ele>
	<time>2023-08-09T06:42:03.000Z</time>
</trkpt>
<trkpt lat="46.1587870" lon="10.4578880">
	<ele>2776.40</ele>
	<time>2023-08-09T06:42:04.000Z</time>
</trkpt>
<trkpt lat="46.1587850" lon="10.4578790">
	<ele>2776.40</ele>
	<time>2023-08-09T06:42:05.000Z</time>
</trkpt>
<trkpt lat="46.1587860" lon="10.4578760">
	<ele>2776.60</ele>
	<time>2023-08-09T06:42:06.000Z</time>
</trkpt>
<trkpt lat="46.1587880" lon="10.4578780">
	<ele>2776.80</ele>
	<time>2023-08-09T06:42:07.000Z</time>
</trkpt>
<trkpt lat="46.1587900" lon="10.4578800">
	<ele>2777.00</ele>
	<time>2023-08-09T06:42:08.000Z</time>
</trkpt>
<trkpt lat="46.1587910" lon="10.4578830">
	<ele>2777.20</ele>
	<time>2023-08-09T06:42:09.000Z</time>
</trkpt>
<trkpt lat="46.1587930" lon="10.4578850">
	<ele>2777.60</ele>
	<time>2023-08-09T06:42:10.000Z</time>
</trkpt>
<trkpt lat="46.1587950" lon="10.4578850">
	<ele>2777.80</ele>
	<time>2023-08-09T06:42:11.000Z</time>
</trkpt>
<trkpt lat="46.1587970" lon="10.4578840">
	<ele>2777.80</ele>
	<time>2023-08-09T06:42:12.000Z</time>
</trkpt>
<trkpt lat="46.1587980" lon="10.4578830">
	<ele>2778.00</ele>
	<time>2023-08-09T06:42:13.000Z</time>
</trkpt>
<trkpt lat="46.1587990" lon="10.4578820">
	<ele>2778.00</ele>
	<time>2023-08-09T06:42:14.000Z</time>
</trkpt>
<trkpt lat="46.1588010" lon="10.4578800">
	<ele>2778.00</ele>
	<time>2023-08-09T06:42:15.000Z</time>
</trkpt>
<trkpt lat="46.1588040" lon="10.4578770">
	<ele>2778.20</ele>
	<time>2023-08-09T06:42:16.000Z</time>
</trkpt>
<trkpt lat="46.1588090" lon="10.4578780">
	<ele>2778.20</ele>
	<time>2023-08-09T06:42:17.000Z</time>
</trkpt>
<trkpt lat="46.1588110" lon="10.4578790">
	<ele>2778.40</ele>
	<time>2023-08-09T06:42:18.000Z</time>
</trkpt>
<trkpt lat="46.1588130" lon="10.4578790">
	<ele>2778.80</ele>
	<time>2023-08-09T06:42:19.000Z</time>
</trkpt>
<trkpt lat="46.1588120" lon="10.4578780">
	<ele>2779.00</ele>
	<time>2023-08-09T06:42:20.000Z</time>
</trkpt>
<trkpt lat="46.1588120" lon="10.4578780">
	<ele>2779.00</ele>
	<time>2023-08-09T06:42:21.000Z</time>
</trkpt>
<trkpt lat="46.1588120" lon="10.4578780">
	<ele>2779.20</ele>
	<time>2023-08-09T06:42:22.000Z</time>
</trkpt>
<trkpt lat="46.1588120" lon="10.4578780">
	<ele>2779.20</ele>
	<time>2023-08-09T06:42:23.000Z</time>
</trkpt>
<trkpt lat="46.1588120" lon="10.4578780">
	<ele>2779.20</ele>
	<time>2023-08-09T06:42:24.000Z</time>
</trkpt>
<trkpt lat="46.1588120" lon="10.4578780">
	<ele>2779.40</ele>
	<time>2023-08-09T06:42:25.000Z</time>
</trkpt>
<trkpt lat="46.1588120" lon="10.4578780">
	<ele>2779.40</ele>
	<time>2023-08-09T06:42:26.000Z</time>
</trkpt>
<trkpt lat="46.1588120" lon="10.4578780">
	<ele>2779.60</ele>
	<time>2023-08-09T06:42:27.000Z</time>
</trkpt>
<trkpt lat="46.1588120" lon="10.4578780">
	<ele>2779.60</ele>
	<time>2023-08-09T06:42:28.000Z</time>
</trkpt>
<trkpt lat="46.1588120" lon="10.4578780">
	<ele>2779.60</ele>
	<time>2023-08-09T06:42:29.000Z</time>
</trkpt>
<trkpt lat="46.1588120" lon="10.4578780">
	<ele>2779.60</ele>
	<time>2023-08-09T06:42:30.000Z</time>
</trkpt>
<trkpt lat="46.1588120" lon="10.4578780">
	<ele>2779.80</ele>
	<time>2023-08-09T06:42:31.000Z</time>
</trkpt>
<trkpt lat="46.1588120" lon="10.4578780">
	<ele>2780.00</ele>
	<time>2023-08-09T06:42:32.000Z</time>
</trkpt>
<trkpt lat="46.1588120" lon="10.4578780">
	<ele>2780.20</ele>
	<time>2023-08-09T06:42:33.000Z</time>
</trkpt>
<trkpt lat="46.1588120" lon="10.4578780">
	<ele>2780.40</ele>
	<time>2023-08-09T06:42:34.000Z</time>
</trkpt>
<trkpt lat="46.1588130" lon="10.4578780">
	<ele>2780.60</ele>
	<time>2023-08-09T06:42:35.000Z</time>
</trkpt>
<trkpt lat="46.1588140" lon="10.4578780">
	<ele>2780.80</ele>
	<time>2023-08-09T06:42:36.000Z</time>
</trkpt>
<trkpt lat="46.1588160" lon="10.4578780">
	<ele>2781.00</ele>
	<time>2023-08-09T06:42:37.000Z</time>
</trkpt>
<trkpt lat="46.1588190" lon="10.4578780">
	<ele>2781.00</ele>
	<time>2023-08-09T06:42:38.000Z</time>
</trkpt>
<trkpt lat="46.1588210" lon="10.4578780">
	<ele>2781.20</ele>
	<time>2023-08-09T06:42:39.000Z</time>
</trkpt>
<trkpt lat="46.1588230" lon="10.4578780">
	<ele>2781.20</ele>
	<time>2023-08-09T06:42:40.000Z</time>
</trkpt>
<trkpt lat="46.1588240" lon="10.4578750">
	<ele>2781.20</ele>
	<time>2023-08-09T06:42:41.000Z</time>
</trkpt>
<trkpt lat="46.1588260" lon="10.4578730">
	<ele>2781.40</ele>
	<time>2023-08-09T06:42:42.000Z</time>
</trkpt>
<trkpt lat="46.1588290" lon="10.4578710">
	<ele>2781.40</ele>
	<time>2023-08-09T06:42:43.000Z</time>
</trkpt>
<trkpt lat="46.1588330" lon="10.4578700">
	<ele>2781.60</ele>
	<time>2023-08-09T06:42:44.000Z</time>
</trkpt>
<trkpt lat="46.1588350" lon="10.4578690">
	<ele>2781.80</ele>
	<time>2023-08-09T06:42:45.000Z</time>
</trkpt>
<trkpt lat="46.1588380" lon="10.4578670">
	<ele>2782.00</ele>
	<time>2023-08-09T06:42:46.000Z</time>
</trkpt>
<trkpt lat="46.1588410" lon="10.4578630">
	<ele>2782.20</ele>
	<time>2023-08-09T06:42:47.000Z</time>
</trkpt>
<trkpt lat="46.1588450" lon="10.4578610">
	<ele>2782.20</ele>
	<time>2023-08-09T06:42:48.000Z</time>
</trkpt>
<trkpt lat="46.1588470" lon="10.4578580">
	<ele>2782.40</ele>
	<time>2023-08-09T06:42:49.000Z</time>
</trkpt>
<trkpt lat="46.1588510" lon="10.4578530">
	<ele>2782.60</ele>
	<time>2023-08-09T06:42:50.000Z</time>
</trkpt>
<trkpt lat="46.1588550" lon="10.4578480">
	<ele>2782.80</ele>
	<time>2023-08-09T06:42:51.000Z</time>
</trkpt>
<trkpt lat="46.1588590" lon="10.4578440">
	<ele>2783.20</ele>
	<time>2023-08-09T06:42:52.000Z</time>
</trkpt>
<trkpt lat="46.1588600" lon="10.4578420">
	<ele>2783.60</ele>
	<time>2023-08-09T06:42:53.000Z</time>
</trkpt>
<trkpt lat="46.1588610" lon="10.4578400">
	<ele>2783.80</ele>
	<time>2023-08-09T06:42:54.000Z</time>
</trkpt>
<trkpt lat="46.1588640" lon="10.4578350">
	<ele>2783.80</ele>
	<time>2023-08-09T06:42:55.000Z</time>
</trkpt>
<trkpt lat="46.1588690" lon="10.4578300">
	<ele>2784.00</ele>
	<time>2023-08-09T06:42:56.000Z</time>
</trkpt>
<trkpt lat="46.1588720" lon="10.4578270">
	<ele>2784.00</ele>
	<time>2023-08-09T06:42:57.000Z</time>
</trkpt>
<trkpt lat="46.1588740" lon="10.4578260">
	<ele>2784.20</ele>
	<time>2023-08-09T06:42:58.000Z</time>
</trkpt>
<trkpt lat="46.1588770" lon="10.4578260">
	<ele>2784.20</ele>
	<time>2023-08-09T06:42:59.000Z</time>
</trkpt>
<trkpt lat="46.1588800" lon="10.4578260">
	<ele>2784.40</ele>
	<time>2023-08-09T06:43:00.000Z</time>
</trkpt>
<trkpt lat="46.1588840" lon="10.4578250">
	<ele>2784.60</ele>
	<time>2023-08-09T06:43:01.000Z</time>
</trkpt>
<trkpt lat="46.1588900" lon="10.4578240">
	<ele>2784.60</ele>
	<time>2023-08-09T06:43:02.000Z</time>
</trkpt>
<trkpt lat="46.1588930" lon="10.4578230">
	<ele>2784.80</ele>
	<time>2023-08-09T06:43:03.000Z</time>
</trkpt>
<trkpt lat="46.1588940" lon="10.4578220">
	<ele>2784.80</ele>
	<time>2023-08-09T06:43:04.000Z</time>
</trkpt>
<trkpt lat="46.1588980" lon="10.4578210">
	<ele>2785.00</ele>
	<time>2023-08-09T06:43:05.000Z</time>
</trkpt>
<trkpt lat="46.1588990" lon="10.4578210">
	<ele>2785.00</ele>
	<time>2023-08-09T06:43:06.000Z</time>
</trkpt>
<trkpt lat="46.1589010" lon="10.4578200">
	<ele>2785.20</ele>
	<time>2023-08-09T06:43:07.000Z</time>
</trkpt>
<trkpt lat="46.1589030" lon="10.4578200">
	<ele>2785.20</ele>
	<time>2023-08-09T06:43:08.000Z</time>
</trkpt>
<trkpt lat="46.1589070" lon="10.4578200">
	<ele>2785.40</ele>
	<time>2023-08-09T06:43:09.000Z</time>
</trkpt>
<trkpt lat="46.1589090" lon="10.4578200">
	<ele>2785.40</ele>
	<time>2023-08-09T06:43:10.000Z</time>
</trkpt>
<trkpt lat="46.1589100" lon="10.4578200">
	<ele>2785.60</ele>
	<time>2023-08-09T06:43:11.000Z</time>
</trkpt>
<trkpt lat="46.1589100" lon="10.4578200">
	<ele>2785.60</ele>
	<time>2023-08-09T06:43:12.000Z</time>
</trkpt>
<trkpt lat="46.1589110" lon="10.4578200">
	<ele>2785.60</ele>
	<time>2023-08-09T06:43:13.000Z</time>
</trkpt>
<trkpt lat="46.1589110" lon="10.4578200">
	<ele>2785.60</ele>
	<time>2023-08-09T06:43:14.000Z</time>
</trkpt>
<trkpt lat="46.1589130" lon="10.4578200">
	<ele>2785.80</ele>
	<time>2023-08-09T06:43:15.000Z</time>
</trkpt>
<trkpt lat="46.1589140" lon="10.4578200">
	<ele>2786.20</ele>
	<time>2023-08-09T06:43:16.000Z</time>
</trkpt>
<trkpt lat="46.1589150" lon="10.4578200">
	<ele>2786.40</ele>
	<time>2023-08-09T06:43:17.000Z</time>
</trkpt>
<trkpt lat="46.1589170" lon="10.4578200">
	<ele>2786.40</ele>
	<time>2023-08-09T06:43:18.000Z</time>
</trkpt>
<trkpt lat="46.1589200" lon="10.4578200">
	<ele>2786.60</ele>
	<time>2023-08-09T06:43:19.000Z</time>
</trkpt>
<trkpt lat="46.1589230" lon="10.4578200">
	<ele>2786.60</ele>
	<time>2023-08-09T06:43:20.000Z</time>
</trkpt>
<trkpt lat="46.1589240" lon="10.4578210">
	<ele>2786.60</ele>
	<time>2023-08-09T06:43:21.000Z</time>
</trkpt>
<trkpt lat="46.1589250" lon="10.4578210">
	<ele>2786.80</ele>
	<time>2023-08-09T06:43:22.000Z</time>
</trkpt>
<trkpt lat="46.1589260" lon="10.4578210">
	<ele>2787.00</ele>
	<time>2023-08-09T06:43:23.000Z</time>
</trkpt>
<trkpt lat="46.1589270" lon="10.4578240">
	<ele>2787.20</ele>
	<time>2023-08-09T06:43:24.000Z</time>
</trkpt>
<trkpt lat="46.1589280" lon="10.4578270">
	<ele>2787.40</ele>
	<time>2023-08-09T06:43:25.000Z</time>
</trkpt>
<trkpt lat="46.1589280" lon="10.4578290">
	<ele>2787.40</ele>
	<time>2023-08-09T06:43:26.000Z</time>
</trkpt>
<trkpt lat="46.1589290" lon="10.4578310">
	<ele>2787.60</ele>
	<time>2023-08-09T06:43:27.000Z</time>
</trkpt>
<trkpt lat="46.1589290" lon="10.4578330">
	<ele>2787.60</ele>
	<time>2023-08-09T06:43:28.000Z</time>
</trkpt>
<trkpt lat="46.1589300" lon="10.4578350">
	<ele>2787.80</ele>
	<time>2023-08-09T06:43:29.000Z</time>
</trkpt>
<trkpt lat="46.1589300" lon="10.4578380">
	<ele>2787.80</ele>
	<time>2023-08-09T06:43:30.000Z</time>
</trkpt>
<trkpt lat="46.1589300" lon="10.4578400">
	<ele>2788.00</ele>
	<time>2023-08-09T06:43:31.000Z</time>
</trkpt>
<trkpt lat="46.1589310" lon="10.4578420">
	<ele>2788.00</ele>
	<time>2023-08-09T06:43:32.000Z</time>
</trkpt>
<trkpt lat="46.1589310" lon="10.4578440">
	<ele>2788.00</ele>
	<time>2023-08-09T06:43:33.000Z</time>
</trkpt>
<trkpt lat="46.1589340" lon="10.4578460">
	<ele>2788.00</ele>
	<time>2023-08-09T06:43:34.000Z</time>
</trkpt>
<trkpt lat="46.1589370" lon="10.4578480">
	<ele>2788.20</ele>
	<time>2023-08-09T06:43:35.000Z</time>
</trkpt>
<trkpt lat="46.1589400" lon="10.4578510">
	<ele>2788.20</ele>
	<time>2023-08-09T06:43:36.000Z</time>
</trkpt>
<trkpt lat="46.1589420" lon="10.4578540">
	<ele>2788.20</ele>
	<time>2023-08-09T06:43:37.000Z</time>
</trkpt>
<trkpt lat="46.1589440" lon="10.4578600">
	<ele>2788.60</ele>
	<time>2023-08-09T06:43:38.000Z</time>
</trkpt>
<trkpt lat="46.1589440" lon="10.4578620">
	<ele>2788.80</ele>
	<time>2023-08-09T06:43:39.000Z</time>
</trkpt>
<trkpt lat="46.1589450" lon="10.4578660">
	<ele>2789.00</ele>
	<time>2023-08-09T06:43:40.000Z</time>
</trkpt>
<trkpt lat="46.1589450" lon="10.4578700">
	<ele>2789.40</ele>
	<time>2023-08-09T06:43:41.000Z</time>
</trkpt>
<trkpt lat="46.1589460" lon="10.4578750">
	<ele>2789.60</ele>
	<time>2023-08-09T06:43:42.000Z</time>
</trkpt>
<trkpt lat="46.1589460" lon="10.4578780">
	<ele>2789.80</ele>
	<time>2023-08-09T06:43:43.000Z</time>
</trkpt>
<trkpt lat="46.1589490" lon="10.4578800">
	<ele>2789.80</ele>
	<time>2023-08-09T06:43:44.000Z</time>
</trkpt>
<trkpt lat="46.1589500" lon="10.4578810">
	<ele>2789.60</ele>
	<time>2023-08-09T06:43:45.000Z</time>
</trkpt>
<trkpt lat="46.1589510" lon="10.4578810">
	<ele>2789.60</ele>
	<time>2023-08-09T06:43:46.000Z</time>
</trkpt>
<trkpt lat="46.1589530" lon="10.4578820">
	<ele>2789.60</ele>
	<time>2023-08-09T06:43:47.000Z</time>
</trkpt>
<trkpt lat="46.1589540" lon="10.4578820">
	<ele>2789.60</ele>
	<time>2023-08-09T06:43:48.000Z</time>
</trkpt>
<trkpt lat="46.1589550" lon="10.4578820">
	<ele>2789.60</ele>
	<time>2023-08-09T06:43:49.000Z</time>
</trkpt>
<trkpt lat="46.1589570" lon="10.4578820">
	<ele>2789.80</ele>
	<time>2023-08-09T06:43:50.000Z</time>
</trkpt>
<trkpt lat="46.1589580" lon="10.4578820">
	<ele>2790.00</ele>
	<time>2023-08-09T06:43:51.000Z</time>
</trkpt>
<trkpt lat="46.1589600" lon="10.4578820">
	<ele>2790.40</ele>
	<time>2023-08-09T06:43:52.000Z</time>
</trkpt>
<trkpt lat="46.1589630" lon="10.4578820">
	<ele>2790.80</ele>
	<time>2023-08-09T06:43:53.000Z</time>
</trkpt>
<trkpt lat="46.1589650" lon="10.4578820">
	<ele>2791.00</ele>
	<time>2023-08-09T06:43:54.000Z</time>
</trkpt>
<trkpt lat="46.1589680" lon="10.4578820">
	<ele>2791.00</ele>
	<time>2023-08-09T06:43:55.000Z</time>
</trkpt>
<trkpt lat="46.1589700" lon="10.4578820">
	<ele>2791.20</ele>
	<time>2023-08-09T06:43:56.000Z</time>
</trkpt>
<trkpt lat="46.1589720" lon="10.4578820">
	<ele>2791.20</ele>
	<time>2023-08-09T06:43:57.000Z</time>
</trkpt>
<trkpt lat="46.1589730" lon="10.4578820">
	<ele>2791.40</ele>
	<time>2023-08-09T06:43:58.000Z</time>
</trkpt>
<trkpt lat="46.1589730" lon="10.4578810">
	<ele>2791.60</ele>
	<time>2023-08-09T06:43:59.000Z</time>
</trkpt>
<trkpt lat="46.1589740" lon="10.4578790">
	<ele>2791.80</ele>
	<time>2023-08-09T06:44:00.000Z</time>
</trkpt>
<trkpt lat="46.1589740" lon="10.4578770">
	<ele>2791.80</ele>
	<time>2023-08-09T06:44:01.000Z</time>
</trkpt>
<trkpt lat="46.1589760" lon="10.4578770">
	<ele>2791.80</ele>
	<time>2023-08-09T06:44:02.000Z</time>
</trkpt>
<trkpt lat="46.1589770" lon="10.4578760">
	<ele>2791.80</ele>
	<time>2023-08-09T06:44:03.000Z</time>
</trkpt>
<trkpt lat="46.1589790" lon="10.4578760">
	<ele>2791.80</ele>
	<time>2023-08-09T06:44:04.000Z</time>
</trkpt>
<trkpt lat="46.1589820" lon="10.4578760">
	<ele>2792.00</ele>
	<time>2023-08-09T06:44:05.000Z</time>
</trkpt>
<trkpt lat="46.1589840" lon="10.4578760">
	<ele>2792.20</ele>
	<time>2023-08-09T06:44:06.000Z</time>
</trkpt>
<trkpt lat="46.1589860" lon="10.4578760">
	<ele>2792.20</ele>
	<time>2023-08-09T06:44:07.000Z</time>
</trkpt>
<trkpt lat="46.1589880" lon="10.4578760">
	<ele>2792.20</ele>
	<time>2023-08-09T06:44:08.000Z</time>
</trkpt>
<trkpt lat="46.1589900" lon="10.4578760">
	<ele>2792.40</ele>
	<time>2023-08-09T06:44:09.000Z</time>
</trkpt>
<trkpt lat="46.1589920" lon="10.4578760">
	<ele>2792.40</ele>
	<time>2023-08-09T06:44:10.000Z</time>
</trkpt>
<trkpt lat="46.1589950" lon="10.4578760">
	<ele>2792.40</ele>
	<time>2023-08-09T06:44:11.000Z</time>
</trkpt>
<trkpt lat="46.1589980" lon="10.4578760">
	<ele>2792.60</ele>
	<time>2023-08-09T06:44:12.000Z</time>
</trkpt>
<trkpt lat="46.1589990" lon="10.4578760">
	<ele>2792.80</ele>
	<time>2023-08-09T06:44:13.000Z</time>
</trkpt>
<trkpt lat="46.1590030" lon="10.4578760">
	<ele>2793.20</ele>
	<time>2023-08-09T06:44:14.000Z</time>
</trkpt>
<trkpt lat="46.1590060" lon="10.4578760">
	<ele>2793.40</ele>
	<time>2023-08-09T06:44:15.000Z</time>
</trkpt>
<trkpt lat="46.1590080" lon="10.4578770">
	<ele>2793.40</ele>
	<time>2023-08-09T06:44:16.000Z</time>
</trkpt>
<trkpt lat="46.1590100" lon="10.4578780">
	<ele>2793.60</ele>
	<time>2023-08-09T06:44:17.000Z</time>
</trkpt>
<trkpt lat="46.1590120" lon="10.4578790">
	<ele>2793.60</ele>
	<time>2023-08-09T06:44:18.000Z</time>
</trkpt>
<trkpt lat="46.1590130" lon="10.4578800">
	<ele>2793.60</ele>
	<time>2023-08-09T06:44:19.000Z</time>
</trkpt>
<trkpt lat="46.1590140" lon="10.4578810">
	<ele>2793.60</ele>
	<time>2023-08-09T06:44:20.000Z</time>
</trkpt>
<trkpt lat="46.1590160" lon="10.4578820">
	<ele>2793.60</ele>
	<time>2023-08-09T06:44:21.000Z</time>
</trkpt>
<trkpt lat="46.1590190" lon="10.4578820">
	<ele>2793.80</ele>
	<time>2023-08-09T06:44:22.000Z</time>
</trkpt>
<trkpt lat="46.1590220" lon="10.4578830">
	<ele>2794.00</ele>
	<time>2023-08-09T06:44:23.000Z</time>
</trkpt>
<trkpt lat="46.1590240" lon="10.4578830">
	<ele>2794.20</ele>
	<time>2023-08-09T06:44:24.000Z</time>
</trkpt>
<trkpt lat="46.1590260" lon="10.4578830">
	<ele>2794.20</ele>
	<time>2023-08-09T06:44:25.000Z</time>
</trkpt>
<trkpt lat="46.1590290" lon="10.4578830">
	<ele>2794.20</ele>
	<time>2023-08-09T06:44:26.000Z</time>
</trkpt>
<trkpt lat="46.1590320" lon="10.4578830">
	<ele>2794.40</ele>
	<time>2023-08-09T06:44:27.000Z</time>
</trkpt>
<trkpt lat="46.1590340" lon="10.4578830">
	<ele>2794.60</ele>
	<time>2023-08-09T06:44:28.000Z</time>
</trkpt>
<trkpt lat="46.1590360" lon="10.4578840">
	<ele>2795.00</ele>
	<time>2023-08-09T06:44:29.000Z</time>
</trkpt>
<trkpt lat="46.1590380" lon="10.4578840">
	<ele>2795.00</ele>
	<time>2023-08-09T06:44:30.000Z</time>
</trkpt>
<trkpt lat="46.1590390" lon="10.4578840">
	<ele>2795.20</ele>
	<time>2023-08-09T06:44:31.000Z</time>
</trkpt>
<trkpt lat="46.1590410" lon="10.4578840">
	<ele>2795.40</ele>
	<time>2023-08-09T06:44:32.000Z</time>
</trkpt>
<trkpt lat="46.1590420" lon="10.4578840">
	<ele>2795.60</ele>
	<time>2023-08-09T06:44:33.000Z</time>
</trkpt>
<trkpt lat="46.1590420" lon="10.4578840">
	<ele>2795.60</ele>
	<time>2023-08-09T06:44:34.000Z</time>
</trkpt>
<trkpt lat="46.1590430" lon="10.4578840">
	<ele>2795.80</ele>
	<time>2023-08-09T06:44:35.000Z</time>
</trkpt>
<trkpt lat="46.1590450" lon="10.4578840">
	<ele>2795.80</ele>
	<time>2023-08-09T06:44:36.000Z</time>
</trkpt>
<trkpt lat="46.1590470" lon="10.4578840">
	<ele>2795.80</ele>
	<time>2023-08-09T06:44:37.000Z</time>
</trkpt>
<trkpt lat="46.1590490" lon="10.4578840">
	<ele>2795.80</ele>
	<time>2023-08-09T06:44:38.000Z</time>
</trkpt>
<trkpt lat="46.1590510" lon="10.4578840">
	<ele>2796.00</ele>
	<time>2023-08-09T06:44:39.000Z</time>
</trkpt>
<trkpt lat="46.1590520" lon="10.4578840">
	<ele>2796.00</ele>
	<time>2023-08-09T06:44:40.000Z</time>
</trkpt>
<trkpt lat="46.1590540" lon="10.4578840">
	<ele>2796.20</ele>
	<time>2023-08-09T06:44:41.000Z</time>
</trkpt>
<trkpt lat="46.1590560" lon="10.4578840">
	<ele>2796.20</ele>
	<time>2023-08-09T06:44:42.000Z</time>
</trkpt>
<trkpt lat="46.1590580" lon="10.4578830">
	<ele>2796.40</ele>
	<time>2023-08-09T06:44:43.000Z</time>
</trkpt>
<trkpt lat="46.1590600" lon="10.4578830">
	<ele>2796.60</ele>
	<time>2023-08-09T06:44:44.000Z</time>
</trkpt>
<trkpt lat="46.1590610" lon="10.4578830">
	<ele>2796.60</ele>
	<time>2023-08-09T06:44:45.000Z</time>
</trkpt>
<trkpt lat="46.1590630" lon="10.4578830">
	<ele>2797.00</ele>
	<time>2023-08-09T06:44:46.000Z</time>
</trkpt>
<trkpt lat="46.1590640" lon="10.4578830">
	<ele>2797.00</ele>
	<time>2023-08-09T06:44:47.000Z</time>
</trkpt>
<trkpt lat="46.1590650" lon="10.4578820">
	<ele>2797.20</ele>
	<time>2023-08-09T06:44:48.000Z</time>
</trkpt>
<trkpt lat="46.1590660" lon="10.4578820">
	<ele>2797.40</ele>
	<time>2023-08-09T06:44:49.000Z</time>
</trkpt>
<trkpt lat="46.1590670" lon="10.4578820">
	<ele>2797.60</ele>
	<time>2023-08-09T06:44:50.000Z</time>
</trkpt>
<trkpt lat="46.1590680" lon="10.4578820">
	<ele>2797.60</ele>
	<time>2023-08-09T06:44:51.000Z</time>
</trkpt>
<trkpt lat="46.1590690" lon="10.4578810">
	<ele>2797.80</ele>
	<time>2023-08-09T06:44:52.000Z</time>
</trkpt>
<trkpt lat="46.1590700" lon="10.4578800">
	<ele>2797.80</ele>
	<time>2023-08-09T06:44:53.000Z</time>
</trkpt>
<trkpt lat="46.1590720" lon="10.4578790">
	<ele>2798.00</ele>
	<time>2023-08-09T06:44:54.000Z</time>
</trkpt>
<trkpt lat="46.1590740" lon="10.4578780">
	<ele>2798.00</ele>
	<time>2023-08-09T06:44:55.000Z</time>
</trkpt>
<trkpt lat="46.1590760" lon="10.4578770">
	<ele>2798.20</ele>
	<time>2023-08-09T06:44:56.000Z</time>
</trkpt>
<trkpt lat="46.1590770" lon="10.4578760">
	<ele>2798.20</ele>
	<time>2023-08-09T06:44:57.000Z</time>
</trkpt>
<trkpt lat="46.1590780" lon="10.4578750">
	<ele>2798.40</ele>
	<time>2023-08-09T06:44:58.000Z</time>
</trkpt>
<trkpt lat="46.1590790" lon="10.4578730">
	<ele>2798.60</ele>
	<time>2023-08-09T06:44:59.000Z</time>
</trkpt>
<trkpt lat="46.1590810" lon="10.4578720">
	<ele>2798.60</ele>
	<time>2023-08-09T06:45:00.000Z</time>
</trkpt>
<trkpt lat="46.1590820" lon="10.4578710">
	<ele>2798.60</ele>
	<time>2023-08-09T06:45:01.000Z</time>
</trkpt>
<trkpt lat="46.1590830" lon="10.4578710">
	<ele>2798.80</ele>
	<time>2023-08-09T06:45:02.000Z</time>
</trkpt>
<trkpt lat="46.1590850" lon="10.4578700">
	<ele>2798.80</ele>
	<time>2023-08-09T06:45:03.000Z</time>
</trkpt>
<trkpt lat="46.1590860" lon="10.4578690">
	<ele>2798.80</ele>
	<time>2023-08-09T06:45:04.000Z</time>
</trkpt>
<trkpt lat="46.1590880" lon="10.4578690">
	<ele>2798.80</ele>
	<time>2023-08-09T06:45:05.000Z</time>
</trkpt>
<trkpt lat="46.1590900" lon="10.4578680">
	<ele>2798.80</ele>
	<time>2023-08-09T06:45:06.000Z</time>
</trkpt>
<trkpt lat="46.1590920" lon="10.4578680">
	<ele>2799.00</ele>
	<time>2023-08-09T06:45:07.000Z</time>
</trkpt>
<trkpt lat="46.1590940" lon="10.4578680">
	<ele>2799.20</ele>
	<time>2023-08-09T06:45:08.000Z</time>
</trkpt>
<trkpt lat="46.1590960" lon="10.4578670">
	<ele>2799.40</ele>
	<time>2023-08-09T06:45:09.000Z</time>
</trkpt>
<trkpt lat="46.1590980" lon="10.4578670">
	<ele>2799.60</ele>
	<time>2023-08-09T06:45:10.000Z</time>
</trkpt>
<trkpt lat="46.1591000" lon="10.4578670">
	<ele>2799.80</ele>
	<time>2023-08-09T06:45:11.000Z</time>
</trkpt>
<trkpt lat="46.1591010" lon="10.4578670">
	<ele>2800.00</ele>
	<time>2023-08-09T06:45:12.000Z</time>
</trkpt>
<trkpt lat="46.1591030" lon="10.4578660">
	<ele>2800.00</ele>
	<time>2023-08-09T06:45:13.000Z</time>
</trkpt>
<trkpt lat="46.1591050" lon="10.4578660">
	<ele>2800.20</ele>
	<time>2023-08-09T06:45:14.000Z</time>
</trkpt>
<trkpt lat="46.1591060" lon="10.4578660">
	<ele>2800.40</ele>
	<time>2023-08-09T06:45:15.000Z</time>
</trkpt>
<trkpt lat="46.1591080" lon="10.4578660">
	<ele>2800.60</ele>
	<time>2023-08-09T06:45:16.000Z</time>
</trkpt>
<trkpt lat="46.1591090" lon="10.4578650">
	<ele>2800.60</ele>
	<time>2023-08-09T06:45:17.000Z</time>
</trkpt>
<trkpt lat="46.1591100" lon="10.4578650">
	<ele>2800.80</ele>
	<time>2023-08-09T06:45:18.000Z</time>
</trkpt>
<trkpt lat="46.1591120" lon="10.4578650">
	<ele>2801.00</ele>
	<time>2023-08-09T06:45:19.000Z</time>
</trkpt>
<trkpt lat="46.1591130" lon="10.4578650">
	<ele>2801.00</ele>
	<time>2023-08-09T06:45:20.000Z</time>
</trkpt>
<trkpt lat="46.1591150" lon="10.4578650">
	<ele>2801.00</ele>
	<time>2023-08-09T06:45:21.000Z</time>
</trkpt>
<trkpt lat="46.1591160" lon="10.4578650">
	<ele>2801.00</ele>
	<time>2023-08-09T06:45:22.000Z</time>
</trkpt>
<trkpt lat="46.1591180" lon="10.4578650">
	<ele>2801.20</ele>
	<time>2023-08-09T06:45:23.000Z</time>
</trkpt>
<trkpt lat="46.1591190" lon="10.4578650">
	<ele>2801.20</ele>
	<time>2023-08-09T06:45:24.000Z</time>
</trkpt>
<trkpt lat="46.1591210" lon="10.4578650">
	<ele>2801.20</ele>
	<time>2023-08-09T06:45:25.000Z</time>
</trkpt>
<trkpt lat="46.1591220" lon="10.4578660">
	<ele>2801.40</ele>
	<time>2023-08-09T06:45:26.000Z</time>
</trkpt>
<trkpt lat="46.1591230" lon="10.4578660">
	<ele>2801.60</ele>
	<time>2023-08-09T06:45:27.000Z</time>
</trkpt>
<trkpt lat="46.1591240" lon="10.4578660">
	<ele>2801.80</ele>
	<time>2023-08-09T06:45:28.000Z</time>
</trkpt>
<trkpt lat="46.1591250" lon="10.4578660">
	<ele>2802.00</ele>
	<time>2023-08-09T06:45:29.000Z</time>
</trkpt>
<trkpt lat="46.1591260" lon="10.4578660">
	<ele>2802.00</ele>
	<time>2023-08-09T06:45:30.000Z</time>
</trkpt>
<trkpt lat="46.1591270" lon="10.4578660">
	<ele>2802.20</ele>
	<time>2023-08-09T06:45:31.000Z</time>
</trkpt>
<trkpt lat="46.1591270" lon="10.4578660">
	<ele>2802.40</ele>
	<time>2023-08-09T06:45:32.000Z</time>
</trkpt>
<trkpt lat="46.1591280" lon="10.4578660">
	<ele>2802.40</ele>
	<time>2023-08-09T06:45:33.000Z</time>
</trkpt>
<trkpt lat="46.1591280" lon="10.4578660">
	<ele>2802.40</ele>
	<time>2023-08-09T06:45:34.000Z</time>
</trkpt>
<trkpt lat="46.1591290" lon="10.4578660">
	<ele>2802.60</ele>
	<time>2023-08-09T06:45:35.000Z</time>
</trkpt>
<trkpt lat="46.1591290" lon="10.4578660">
	<ele>2802.60</ele>
	<time>2023-08-09T06:45:36.000Z</time>
</trkpt>
<trkpt lat="46.1591290" lon="10.4578660">
	<ele>2802.60</ele>
	<time>2023-08-09T06:45:37.000Z</time>
</trkpt>
<trkpt lat="46.1591290" lon="10.4578660">
	<ele>2802.60</ele>
	<time>2023-08-09T06:45:38.000Z</time>
</trkpt>
<trkpt lat="46.1591290" lon="10.4578660">
	<ele>2802.60</ele>
	<time>2023-08-09T06:45:39.000Z</time>
</trkpt>
<trkpt lat="46.1591290" lon="10.4578670">
	<ele>2802.60</ele>
	<time>2023-08-09T06:45:40.000Z</time>
</trkpt>
<trkpt lat="46.1591290" lon="10.4578670">
	<ele>2802.40</ele>
	<time>2023-08-09T06:45:41.000Z</time>
</trkpt>
<trkpt lat="46.1591290" lon="10.4578670">
	<ele>2802.40</ele>
	<time>2023-08-09T06:45:42.000Z</time>
</trkpt>
<trkpt lat="46.1591290" lon="10.4578670">
	<ele>2802.20</ele>
	<time>2023-08-09T06:45:43.000Z</time>
</trkpt>
<trkpt lat="46.1591290" lon="10.4578660">
	<ele>2802.20</ele>
	<time>2023-08-09T06:45:44.000Z</time>
</trkpt>
<trkpt lat="46.1591290" lon="10.4578670">
	<ele>2802.20</ele>
	<time>2023-08-09T06:45:45.000Z</time>
</trkpt>
<trkpt lat="46.1591290" lon="10.4578670">
	<ele>2802.20</ele>
	<time>2023-08-09T06:45:46.000Z</time>
</trkpt>
<trkpt lat="46.1591290" lon="10.4578670">
	<ele>2802.20</ele>
	<time>2023-08-09T06:45:47.000Z</time>
</trkpt>
<trkpt lat="46.1591290" lon="10.4578670">
	<ele>2802.00</ele>
	<time>2023-08-09T06:45:48.000Z</time>
</trkpt>
<trkpt lat="46.1591290" lon="10.4578670">
	<ele>2801.80</ele>
	<time>2023-08-09T06:45:49.000Z</time>
</trkpt>
<trkpt lat="46.1591290" lon="10.4578670">
	<ele>2801.40</ele>
	<time>2023-08-09T06:45:50.000Z</time>
</trkpt>
<trkpt lat="46.1591290" lon="10.4578670">
	<ele>2801.20</ele>
	<time>2023-08-09T06:45:51.000Z</time>
</trkpt>
<trkpt lat="46.1591300" lon="10.4578670">
	<ele>2801.00</ele>
	<time>2023-08-09T06:45:52.000Z</time>
</trkpt>
<trkpt lat="46.1591300" lon="10.4578670">
	<ele>2800.80</ele>
	<time>2023-08-09T06:45:53.000Z</time>
</trkpt>
<trkpt lat="46.1591300" lon="10.4578670">
	<ele>2800.80</ele>
	<time>2023-08-09T06:45:54.000Z</time>
</trkpt>
<trkpt lat="46.1591300" lon="10.4578670">
	<ele>2800.80</ele>
	<time>2023-08-09T06:45:55.000Z</time>
</trkpt>
<trkpt lat="46.1591300" lon="10.4578670">
	<ele>2800.80</ele>
	<time>2023-08-09T06:45:56.000Z</time>
</trkpt>
<trkpt lat="46.1591300" lon="10.4578670">
	<ele>2800.80</ele>
	<time>2023-08-09T06:45:57.000Z</time>
</trkpt>
<trkpt lat="46.1591300" lon="10.4578670">
	<ele>2801.00</ele>
	<time>2023-08-09T06:45:58.000Z</time>
</trkpt>
<trkpt lat="46.1591300" lon="10.4578670">
	<ele>2801.00</ele>
	<time>2023-08-09T06:45:59.000Z</time>
</trkpt>
<trkpt lat="46.1591300" lon="10.4578670">
	<ele>2801.20</ele>
	<time>2023-08-09T06:46:00.000Z</time>
</trkpt>
<trkpt lat="46.1591300" lon="10.4578680">
	<ele>2801.20</ele>
	<time>2023-08-09T06:46:01.000Z</time>
</trkpt>
<trkpt lat="46.1591300" lon="10.4578680">
	<ele>2801.40</ele>
	<time>2023-08-09T06:46:02.000Z</time>
</trkpt>
<trkpt lat="46.1591300" lon="10.4578680">
	<ele>2801.40</ele>
	<time>2023-08-09T06:46:03.000Z</time>
</trkpt>
<trkpt lat="46.1591300" lon="10.4578680">
	<ele>2801.60</ele>
	<time>2023-08-09T06:46:04.000Z</time>
</trkpt>
<trkpt lat="46.1591300" lon="10.4578680">
	<ele>2801.60</ele>
	<time>2023-08-09T06:46:05.000Z</time>
</trkpt>
<trkpt lat="46.1591290" lon="10.4578680">
	<ele>2801.60</ele>
	<time>2023-08-09T06:46:06.000Z</time>
</trkpt>
<trkpt lat="46.1591290" lon="10.4578680">
	<ele>2801.60</ele>
	<time>2023-08-09T06:46:07.000Z</time>
</trkpt>
<trkpt lat="46.1591290" lon="10.4578680">
	<ele>2801.60</ele>
	<time>2023-08-09T06:46:08.000Z</time>
</trkpt>
<trkpt lat="46.1591290" lon="10.4578680">
	<ele>2801.60</ele>
	<time>2023-08-09T06:46:09.000Z</time>
</trkpt>
<trkpt lat="46.1591290" lon="10.4578690">
	<ele>2801.40</ele>
	<time>2023-08-09T06:46:10.000Z</time>
</trkpt>
<trkpt lat="46.1591290" lon="10.4578680">
	<ele>2801.40</ele>
	<time>2023-08-09T06:46:11.000Z</time>
</trkpt>
<trkpt lat="46.1591290" lon="10.4578690">
	<ele>2801.20</ele>
	<time>2023-08-09T06:46:12.000Z</time>
</trkpt>
<trkpt lat="46.1591290" lon="10.4578690">
	<ele>2801.20</ele>
	<time>2023-08-09T06:46:13.000Z</time>
</trkpt>
<trkpt lat="46.1591290" lon="10.4578690">
	<ele>2801.20</ele>
	<time>2023-08-09T06:46:14.000Z</time>
</trkpt>
<trkpt lat="46.1591290" lon="10.4578690">
	<ele>2801.20</ele>
	<time>2023-08-09T06:46:15.000Z</time>
</trkpt>
<trkpt lat="46.1591290" lon="10.4578690">
	<ele>2801.20</ele>
	<time>2023-08-09T06:46:16.000Z</time>
</trkpt>
<trkpt lat="46.1591290" lon="10.4578690">
	<ele>2801.20</ele>
	<time>2023-08-09T06:46:17.000Z</time>
</trkpt>
<trkpt lat="46.1591290" lon="10.4578690">
	<ele>2801.20</ele>
	<time>2023-08-09T06:46:18.000Z</time>
</trkpt>
<trkpt lat="46.1591290" lon="10.4578690">
	<ele>2801.20</ele>
	<time>2023-08-09T06:46:19.000Z</time>
</trkpt>
<trkpt lat="46.1591290" lon="10.4578690">
	<ele>2801.40</ele>
	<time>2023-08-09T06:46:20.000Z</time>
</trkpt>
<trkpt lat="46.1591280" lon="10.4578690">
	<ele>2801.60</ele>
	<time>2023-08-09T06:46:21.000Z</time>
</trkpt>
<trkpt lat="46.1591290" lon="10.4578690">
	<ele>2801.80</ele>
	<time>2023-08-09T06:46:22.000Z</time>
</trkpt>
<trkpt lat="46.1591290" lon="10.4578690">
	<ele>2801.80</ele>
	<time>2023-08-09T06:46:23.000Z</time>
</trkpt>
<trkpt lat="46.1591290" lon="10.4578690">
	<ele>2802.00</ele>
	<time>2023-08-09T06:46:24.000Z</time>
</trkpt>
<trkpt lat="46.1591290" lon="10.4578690">
	<ele>2802.20</ele>
	<time>2023-08-09T06:46:25.000Z</time>
</trkpt>
<trkpt lat="46.1591290" lon="10.4578700">
	<ele>2802.40</ele>
	<time>2023-08-09T06:46:26.000Z</time>
</trkpt>
<trkpt lat="46.1591290" lon="10.4578700">
	<ele>2802.60</ele>
	<time>2023-08-09T06:46:27.000Z</time>
</trkpt>
<trkpt lat="46.1591290" lon="10.4578700">
	<ele>2802.60</ele>
	<time>2023-08-09T06:46:28.000Z</time>
</trkpt>
<trkpt lat="46.1591290" lon="10.4578700">
	<ele>2802.60</ele>
	<time>2023-08-09T06:46:29.000Z</time>
</trkpt>
<trkpt lat="46.1591290" lon="10.4578700">
	<ele>2802.80</ele>
	<time>2023-08-09T06:46:30.000Z</time>
</trkpt>
<trkpt lat="46.1591290" lon="10.4578700">
	<ele>2803.00</ele>
	<time>2023-08-09T06:46:31.000Z</time>
</trkpt>
<trkpt lat="46.1591290" lon="10.4578700">
	<ele>2803.00</ele>
	<time>2023-08-09T06:46:32.000Z</time>
</trkpt>
<trkpt lat="46.1591290" lon="10.4578700">
	<ele>2803.00</ele>
	<time>2023-08-09T06:46:33.000Z</time>
</trkpt>
<trkpt lat="46.1591290" lon="10.4578700">
	<ele>2803.00</ele>
	<time>2023-08-09T06:46:34.000Z</time>
</trkpt>
<trkpt lat="46.1591290" lon="10.4578700">
	<ele>2803.00</ele>
	<time>2023-08-09T06:46:35.000Z</time>
</trkpt>
<trkpt lat="46.1591290" lon="10.4578700">
	<ele>2803.00</ele>
	<time>2023-08-09T06:46:36.000Z</time>
</trkpt>
<trkpt lat="46.1591290" lon="10.4578700">
	<ele>2802.80</ele>
	<time>2023-08-09T06:46:37.000Z</time>
</trkpt>
<trkpt lat="46.1591290" lon="10.4578700">
	<ele>2802.60</ele>
	<time>2023-08-09T06:46:38.000Z</time>
</trkpt>
<trkpt lat="46.1591290" lon="10.4578700">
	<ele>2802.60</ele>
	<time>2023-08-09T06:46:39.000Z</time>
</trkpt>
<trkpt lat="46.1591290" lon="10.4578700">
	<ele>2802.60</ele>
	<time>2023-08-09T06:46:40.000Z</time>
</trkpt>
<trkpt lat="46.1591290" lon="10.4578700">
	<ele>2802.40</ele>
	<time>2023-08-09T06:46:41.000Z</time>
</trkpt>
<trkpt lat="46.1591290" lon="10.4578700">
	<ele>2802.40</ele>
	<time>2023-08-09T06:46:42.000Z</time>
</trkpt>
<trkpt lat="46.1591290" lon="10.4578700">
	<ele>2802.40</ele>
	<time>2023-08-09T06:46:43.000Z</time>
</trkpt>
<trkpt lat="46.1591290" lon="10.4578700">
	<ele>2802.40</ele>
	<time>2023-08-09T06:46:44.000Z</time>
</trkpt>
<trkpt lat="46.1591290" lon="10.4578700">
	<ele>2802.40</ele>
	<time>2023-08-09T06:46:45.000Z</time>
</trkpt>
<trkpt lat="46.1591290" lon="10.4578710">
	<ele>2802.40</ele>
	<time>2023-08-09T06:46:46.000Z</time>
</trkpt>
<trkpt lat="46.1591290" lon="10.4578710">
	<ele>2802.40</ele>
	<time>2023-08-09T06:46:47.000Z</time>
</trkpt>
<trkpt lat="46.1591290" lon="10.4578710">
	<ele>2802.60</ele>
	<time>2023-08-09T06:46:48.000Z</time>
</trkpt>
<trkpt lat="46.1591290" lon="10.4578710">
	<ele>2802.60</ele>
	<time>2023-08-09T06:46:49.000Z</time>
</trkpt>
<trkpt lat="46.1591290" lon="10.4578710">
	<ele>2802.80</ele>
	<time>2023-08-09T06:46:50.000Z</time>
</trkpt>
<trkpt lat="46.1591290" lon="10.4578710">
	<ele>2803.00</ele>
	<time>2023-08-09T06:46:51.000Z</time>
</trkpt>
<trkpt lat="46.1591290" lon="10.4578710">
	<ele>2803.00</ele>
	<time>2023-08-09T06:46:52.000Z</time>
</trkpt>
<trkpt lat="46.1591290" lon="10.4578710">
	<ele>2803.20</ele>
	<time>2023-08-09T06:46:53.000Z</time>
</trkpt>
<trkpt lat="46.1591290" lon="10.4578710">
	<ele>2803.40</ele>
	<time>2023-08-09T06:46:54.000Z</time>
</trkpt>
<trkpt lat="46.1591290" lon="10.4578710">
	<ele>2803.40</ele>
	<time>2023-08-09T06:46:55.000Z</time>
</trkpt>
<trkpt lat="46.1591290" lon="10.4578710">
	<ele>2803.60</ele>
	<time>2023-08-09T06:46:56.000Z</time>
</trkpt>
<trkpt lat="46.1591290" lon="10.4578710">
	<ele>2803.80</ele>
	<time>2023-08-09T06:46:57.000Z</time>
</trkpt>
<trkpt lat="46.1591290" lon="10.4578710">
	<ele>2803.80</ele>
	<time>2023-08-09T06:46:58.000Z</time>
</trkpt>
<trkpt lat="46.1591290" lon="10.4578710">
	<ele>2804.20</ele>
	<time>2023-08-09T06:46:59.000Z</time>
</trkpt>
<trkpt lat="46.1591290" lon="10.4578720">
	<ele>2804.40</ele>
	<time>2023-08-09T06:47:00.000Z</time>
</trkpt>
<trkpt lat="46.1591290" lon="10.4578720">
	<ele>2804.60</ele>
	<time>2023-08-09T06:47:01.000Z</time>
</trkpt>
<trkpt lat="46.1591290" lon="10.4578720">
	<ele>2804.80</ele>
	<time>2023-08-09T06:47:02.000Z</time>
</trkpt>
<trkpt lat="46.1591290" lon="10.4578720">
	<ele>2805.00</ele>
	<time>2023-08-09T06:47:03.000Z</time>
</trkpt>
<trkpt lat="46.1591290" lon="10.4578720">
	<ele>2805.00</ele>
	<time>2023-08-09T06:47:04.000Z</time>
</trkpt>
<trkpt lat="46.1591290" lon="10.4578720">
	<ele>2805.20</ele>
	<time>2023-08-09T06:47:05.000Z</time>
</trkpt>
<trkpt lat="46.1591290" lon="10.4578720">
	<ele>2805.20</ele>
	<time>2023-08-09T06:47:06.000Z</time>
</trkpt>
<trkpt lat="46.1591290" lon="10.4578730">
	<ele>2805.20</ele>
	<time>2023-08-09T06:47:07.000Z</time>
</trkpt>
<trkpt lat="46.1591290" lon="10.4578730">
	<ele>2805.20</ele>
	<time>2023-08-09T06:47:08.000Z</time>
</trkpt>
<trkpt lat="46.1591290" lon="10.4578730">
	<ele>2805.40</ele>
	<time>2023-08-09T06:47:09.000Z</time>
</trkpt>
<trkpt lat="46.1591290" lon="10.4578730">
	<ele>2805.40</ele>
	<time>2023-08-09T06:47:10.000Z</time>
</trkpt>
<trkpt lat="46.1591290" lon="10.4578730">
	<ele>2805.60</ele>
	<time>2023-08-09T06:47:11.000Z</time>
</trkpt>
<trkpt lat="46.1591290" lon="10.4578740">
	<ele>2805.60</ele>
	<time>2023-08-09T06:47:12.000Z</time>
</trkpt>
<trkpt lat="46.1591300" lon="10.4578740">
	<ele>2805.80</ele>
	<time>2023-08-09T06:47:13.000Z</time>
</trkpt>
<trkpt lat="46.1591300" lon="10.4578740">
	<ele>2806.00</ele>
	<time>2023-08-09T06:47:14.000Z</time>
</trkpt>
<trkpt lat="46.1591300" lon="10.4578740">
	<ele>2806.20</ele>
	<time>2023-08-09T06:47:15.000Z</time>
</trkpt>
<trkpt lat="46.1591300" lon="10.4578750">
	<ele>2806.40</ele>
	<time>2023-08-09T06:47:16.000Z</time>
</trkpt>
<trkpt lat="46.1591300" lon="10.4578750">
	<ele>2806.60</ele>
	<time>2023-08-09T06:47:17.000Z</time>
</trkpt>
<trkpt lat="46.1591300" lon="10.4578750">
	<ele>2806.80</ele>
	<time>2023-08-09T06:47:18.000Z</time>
</trkpt>
<trkpt lat="46.1591300" lon="10.4578750">
	<ele>2806.80</ele>
	<time>2023-08-09T06:47:19.000Z</time>
</trkpt>
<trkpt lat="46.1591300" lon="10.4578750">
	<ele>2806.80</ele>
	<time>2023-08-09T06:47:20.000Z</time>
</trkpt>
<trkpt lat="46.1591300" lon="10.4578760">
	<ele>2806.80</ele>
	<time>2023-08-09T06:47:21.000Z</time>
</trkpt>
<trkpt lat="46.1591300" lon="10.4578760">
	<ele>2806.80</ele>
	<time>2023-08-09T06:47:22.000Z</time>
</trkpt>
<trkpt lat="46.1591300" lon="10.4578760">
	<ele>2807.20</ele>
	<time>2023-08-09T06:47:23.000Z</time>
</trkpt>
<trkpt lat="46.1591300" lon="10.4578760">
	<ele>2807.20</ele>
	<time>2023-08-09T06:47:24.000Z</time>
</trkpt>
<trkpt lat="46.1591300" lon="10.4578770">
	<ele>2807.40</ele>
	<time>2023-08-09T06:47:25.000Z</time>
</trkpt>
<trkpt lat="46.1591300" lon="10.4578770">
	<ele>2807.60</ele>
	<time>2023-08-09T06:47:26.000Z</time>
</trkpt>
<trkpt lat="46.1591300" lon="10.4578770">
	<ele>2807.80</ele>
	<time>2023-08-09T06:47:27.000Z</time>
</trkpt>
<trkpt lat="46.1591300" lon="10.4578770">
	<ele>2808.00</ele>
	<time>2023-08-09T06:47:28.000Z</time>
</trkpt>
<trkpt lat="46.1591300" lon="10.4578770">
	<ele>2808.00</ele>
	<time>2023-08-09T06:47:29.000Z</time>
</trkpt>
<trkpt lat="46.1591300" lon="10.4578780">
	<ele>2808.00</ele>
	<time>2023-08-09T06:47:30.000Z</time>
</trkpt>
<trkpt lat="46.1591300" lon="10.4578780">
	<ele>2808.00</ele>
	<time>2023-08-09T06:47:31.000Z</time>
</trkpt>
<trkpt lat="46.1591300" lon="10.4578780">
	<ele>2808.00</ele>
	<time>2023-08-09T06:47:32.000Z</time>
</trkpt>
<trkpt lat="46.1591300" lon="10.4578780">
	<ele>2808.00</ele>
	<time>2023-08-09T06:47:33.000Z</time>
</trkpt>
<trkpt lat="46.1591300" lon="10.4578790">
	<ele>2808.00</ele>
	<time>2023-08-09T06:47:34.000Z</time>
</trkpt>
<trkpt lat="46.1591300" lon="10.4578790">
	<ele>2808.00</ele>
	<time>2023-08-09T06:47:35.000Z</time>
</trkpt>
<trkpt lat="46.1591300" lon="10.4578790">
	<ele>2807.80</ele>
	<time>2023-08-09T06:47:36.000Z</time>
</trkpt>
<trkpt lat="46.1591300" lon="10.4578800">
	<ele>2807.80</ele>
	<time>2023-08-09T06:47:37.000Z</time>
</trkpt>
<trkpt lat="46.1591310" lon="10.4578800">
	<ele>2807.80</ele>
	<time>2023-08-09T06:47:38.000Z</time>
</trkpt>
<trkpt lat="46.1591310" lon="10.4578800">
	<ele>2807.60</ele>
	<time>2023-08-09T06:47:39.000Z</time>
</trkpt>
<trkpt lat="46.1591310" lon="10.4578800">
	<ele>2807.80</ele>
	<time>2023-08-09T06:47:40.000Z</time>
</trkpt>
<trkpt lat="46.1591310" lon="10.4578810">
	<ele>2808.00</ele>
	<time>2023-08-09T06:47:41.000Z</time>
</trkpt>
<trkpt lat="46.1591310" lon="10.4578810">
	<ele>2808.20</ele>
	<time>2023-08-09T06:47:42.000Z</time>
</trkpt>
<trkpt lat="46.1591310" lon="10.4578810">
	<ele>2808.60</ele>
	<time>2023-08-09T06:47:43.000Z</time>
</trkpt>
<trkpt lat="46.1591310" lon="10.4578810">
	<ele>2808.80</ele>
	<time>2023-08-09T06:47:44.000Z</time>
</trkpt>
<trkpt lat="46.1591310" lon="10.4578820">
	<ele>2808.80</ele>
	<time>2023-08-09T06:47:45.000Z</time>
</trkpt>
<trkpt lat="46.1591310" lon="10.4578820">
	<ele>2809.00</ele>
	<time>2023-08-09T06:47:46.000Z</time>
</trkpt>
<trkpt lat="46.1591310" lon="10.4578820">
	<ele>2809.00</ele>
	<time>2023-08-09T06:47:47.000Z</time>
</trkpt>
<trkpt lat="46.1591310" lon="10.4578820">
	<ele>2809.00</ele>
	<time>2023-08-09T06:47:48.000Z</time>
</trkpt>
<trkpt lat="46.1591310" lon="10.4578830">
	<ele>2809.00</ele>
	<time>2023-08-09T06:47:49.000Z</time>
</trkpt>
<trkpt lat="46.1591310" lon="10.4578830">
	<ele>2809.00</ele>
	<time>2023-08-09T06:47:50.000Z</time>
</trkpt>
<trkpt lat="46.1591310" lon="10.4578830">
	<ele>2809.00</ele>
	<time>2023-08-09T06:47:51.000Z</time>
</trkpt>
<trkpt lat="46.1591310" lon="10.4578830">
	<ele>2809.20</ele>
	<time>2023-08-09T06:47:52.000Z</time>
</trkpt>
<trkpt lat="46.1591310" lon="10.4578840">
	<ele>2809.40</ele>
	<time>2023-08-09T06:47:53.000Z</time>
</trkpt>
<trkpt lat="46.1591310" lon="10.4578840">
	<ele>2809.60</ele>
	<time>2023-08-09T06:47:54.000Z</time>
</trkpt>
<trkpt lat="46.1591310" lon="10.4578840">
	<ele>2809.80</ele>
	<time>2023-08-09T06:47:55.000Z</time>
</trkpt>
<trkpt lat="46.1591310" lon="10.4578850">
	<ele>2810.00</ele>
	<time>2023-08-09T06:47:56.000Z</time>
</trkpt>
<trkpt lat="46.1591310" lon="10.4578850">
	<ele>2810.20</ele>
	<time>2023-08-09T06:47:57.000Z</time>
</trkpt>
<trkpt lat="46.1591380" lon="10.4579020">
	<ele>2810.20</ele>
	<time>2023-08-09T06:47:58.000Z</time>
</trkpt>
<trkpt lat="46.1591450" lon="10.4579170">
	<ele>2810.20</ele>
	<time>2023-08-09T06:47:59.000Z</time>
</trkpt>
<trkpt lat="46.1591540" lon="10.4579290">
	<ele>2810.20</ele>
	<time>2023-08-09T06:48:00.000Z</time>
</trkpt>
<trkpt lat="46.1591630" lon="10.4579420">
	<ele>2810.20</ele>
	<time>2023-08-09T06:48:01.000Z</time>
</trkpt>
<trkpt lat="46.1591720" lon="10.4579540">
	<ele>2810.40</ele>
	<time>2023-08-09T06:48:02.000Z</time>
</trkpt>
<trkpt lat="46.1591810" lon="10.4579680">
	<ele>2810.60</ele>
	<time>2023-08-09T06:48:03.000Z</time>
</trkpt>
<trkpt lat="46.1591910" lon="10.4579830">
	<ele>2810.80</ele>
	<time>2023-08-09T06:48:04.000Z</time>
</trkpt>
<trkpt lat="46.1592010" lon="10.4579960">
	<ele>2811.00</ele>
	<time>2023-08-09T06:48:05.000Z</time>
</trkpt>
<trkpt lat="46.1592120" lon="10.4580170">
	<ele>2811.20</ele>
	<time>2023-08-09T06:48:06.000Z</time>
</trkpt>
<trkpt lat="46.1592230" lon="10.4580310">
	<ele>2811.40</ele>
	<time>2023-08-09T06:48:07.000Z</time>
</trkpt>
<trkpt lat="46.1592260" lon="10.4580280">
	<ele>2811.80</ele>
	<time>2023-08-09T06:48:08.000Z</time>
</trkpt>
<trkpt lat="46.1592290" lon="10.4580230">
	<ele>2812.40</ele>
	<time>2023-08-09T06:48:09.000Z</time>
</trkpt>
<trkpt lat="46.1592320" lon="10.4580190">
	<ele>2812.80</ele>
	<time>2023-08-09T06:48:10.000Z</time>
</trkpt>
<trkpt lat="46.1592350" lon="10.4580160">
	<ele>2813.00</ele>
	<time>2023-08-09T06:48:11.000Z</time>
</trkpt>
<trkpt lat="46.1592400" lon="10.4580170">
	<ele>2813.00</ele>
	<time>2023-08-09T06:48:12.000Z</time>
</trkpt>
<trkpt lat="46.1592430" lon="10.4580170">
	<ele>2813.20</ele>
	<time>2023-08-09T06:48:13.000Z</time>
</trkpt>
<trkpt lat="46.1592460" lon="10.4580160">
	<ele>2813.20</ele>
	<time>2023-08-09T06:48:14.000Z</time>
</trkpt>
<trkpt lat="46.1592480" lon="10.4580150">
	<ele>2813.40</ele>
	<time>2023-08-09T06:48:15.000Z</time>
</trkpt>
<trkpt lat="46.1592470" lon="10.4580130">
	<ele>2813.40</ele>
	<time>2023-08-09T06:48:16.000Z</time>
</trkpt>
<trkpt lat="46.1592470" lon="10.4580090">
	<ele>2813.60</ele>
	<time>2023-08-09T06:48:17.000Z</time>
</trkpt>
<trkpt lat="46.1592480" lon="10.4580050">
	<ele>2813.80</ele>
	<time>2023-08-09T06:48:18.000Z</time>
</trkpt>
<trkpt lat="46.1592500" lon="10.4580030">
	<ele>2814.20</ele>
	<time>2023-08-09T06:48:19.000Z</time>
</trkpt>
<trkpt lat="46.1592530" lon="10.4580010">
	<ele>2814.20</ele>
	<time>2023-08-09T06:48:20.000Z</time>
</trkpt>
<trkpt lat="46.1592570" lon="10.4580020">
	<ele>2814.40</ele>
	<time>2023-08-09T06:48:21.000Z</time>
</trkpt>
<trkpt lat="46.1592600" lon="10.4580030">
	<ele>2814.60</ele>
	<time>2023-08-09T06:48:22.000Z</time>
</trkpt>
<trkpt lat="46.1592610" lon="10.4580020">
	<ele>2814.60</ele>
	<time>2023-08-09T06:48:23.000Z</time>
</trkpt>
<trkpt lat="46.1592630" lon="10.4580000">
	<ele>2814.60</ele>
	<time>2023-08-09T06:48:24.000Z</time>
</trkpt>
<trkpt lat="46.1592660" lon="10.4579940">
	<ele>2814.60</ele>
	<time>2023-08-09T06:48:25.000Z</time>
</trkpt>
<trkpt lat="46.1592690" lon="10.4579910">
	<ele>2814.80</ele>
	<time>2023-08-09T06:48:26.000Z</time>
</trkpt>
<trkpt lat="46.1592710" lon="10.4579890">
	<ele>2815.00</ele>
	<time>2023-08-09T06:48:27.000Z</time>
</trkpt>
<trkpt lat="46.1592730" lon="10.4579860">
	<ele>2815.00</ele>
	<time>2023-08-09T06:48:28.000Z</time>
</trkpt>
<trkpt lat="46.1592760" lon="10.4579840">
	<ele>2815.00</ele>
	<time>2023-08-09T06:48:29.000Z</time>
</trkpt>
<trkpt lat="46.1592780" lon="10.4579810">
	<ele>2815.00</ele>
	<time>2023-08-09T06:48:30.000Z</time>
</trkpt>
<trkpt lat="46.1592810" lon="10.4579780">
	<ele>2815.20</ele>
	<time>2023-08-09T06:48:31.000Z</time>
</trkpt>
<trkpt lat="46.1592840" lon="10.4579700">
	<ele>2815.20</ele>
	<time>2023-08-09T06:48:32.000Z</time>
</trkpt>
<trkpt lat="46.1592840" lon="10.4579650">
	<ele>2815.40</ele>
	<time>2023-08-09T06:48:33.000Z</time>
</trkpt>
<trkpt lat="46.1592880" lon="10.4579620">
	<ele>2815.40</ele>
	<time>2023-08-09T06:48:34.000Z</time>
</trkpt>
<trkpt lat="46.1592920" lon="10.4579590">
	<ele>2815.60</ele>
	<time>2023-08-09T06:48:35.000Z</time>
</trkpt>
<trkpt lat="46.1592950" lon="10.4579590">
	<ele>2815.80</ele>
	<time>2023-08-09T06:48:36.000Z</time>
</trkpt>
<trkpt lat="46.1592970" lon="10.4579580">
	<ele>2816.00</ele>
	<time>2023-08-09T06:48:37.000Z</time>
</trkpt>
<trkpt lat="46.1593010" lon="10.4579570">
	<ele>2816.00</ele>
	<time>2023-08-09T06:48:38.000Z</time>
</trkpt>
<trkpt lat="46.1593040" lon="10.4579560">
	<ele>2816.20</ele>
	<time>2023-08-09T06:48:39.000Z</time>
</trkpt>
<trkpt lat="46.1593060" lon="10.4579530">
	<ele>2816.20</ele>
	<time>2023-08-09T06:48:40.000Z</time>
</trkpt>
<trkpt lat="46.1593090" lon="10.4579500">
	<ele>2816.20</ele>
	<time>2023-08-09T06:48:41.000Z</time>
</trkpt>
<trkpt lat="46.1593120" lon="10.4579450">
	<ele>2816.40</ele>
	<time>2023-08-09T06:48:42.000Z</time>
</trkpt>
<trkpt lat="46.1593160" lon="10.4579430">
	<ele>2816.60</ele>
	<time>2023-08-09T06:48:43.000Z</time>
</trkpt>
<trkpt lat="46.1593180" lon="10.4579430">
	<ele>2816.80</ele>
	<time>2023-08-09T06:48:44.000Z</time>
</trkpt>
<trkpt lat="46.1593200" lon="10.4579430">
	<ele>2816.80</ele>
	<time>2023-08-09T06:48:45.000Z</time>
</trkpt>
<trkpt lat="46.1593210" lon="10.4579410">
	<ele>2817.00</ele>
	<time>2023-08-09T06:48:46.000Z</time>
</trkpt>
<trkpt lat="46.1593200" lon="10.4579390">
	<ele>2817.00</ele>
	<time>2023-08-09T06:48:47.000Z</time>
</trkpt>
<trkpt lat="46.1593210" lon="10.4579380">
	<ele>2816.80</ele>
	<time>2023-08-09T06:48:48.000Z</time>
</trkpt>
<trkpt lat="46.1593210" lon="10.4579320">
	<ele>2816.40</ele>
	<time>2023-08-09T06:48:49.000Z</time>
</trkpt>
<trkpt lat="46.1593220" lon="10.4579250">
	<ele>2816.40</ele>
	<time>2023-08-09T06:48:50.000Z</time>
</trkpt>
<trkpt lat="46.1593240" lon="10.4579200">
	<ele>2816.20</ele>
	<time>2023-08-09T06:48:51.000Z</time>
</trkpt>
<trkpt lat="46.1593240" lon="10.4579160">
	<ele>2816.40</ele>
	<time>2023-08-09T06:48:52.000Z</time>
</trkpt>
<trkpt lat="46.1593240" lon="10.4579120">
	<ele>2817.40</ele>
	<time>2023-08-09T06:48:53.000Z</time>
</trkpt>
<trkpt lat="46.1593260" lon="10.4579050">
	<ele>2818.00</ele>
	<time>2023-08-09T06:48:54.000Z</time>
</trkpt>
<trkpt lat="46.1593290" lon="10.4579010">
	<ele>2818.60</ele>
	<time>2023-08-09T06:48:55.000Z</time>
</trkpt>
<trkpt lat="46.1593320" lon="10.4578980">
	<ele>2818.80</ele>
	<time>2023-08-09T06:48:56.000Z</time>
</trkpt>
<trkpt lat="46.1593330" lon="10.4578950">
	<ele>2819.20</ele>
	<time>2023-08-09T06:48:57.000Z</time>
</trkpt>
<trkpt lat="46.1593340" lon="10.4578950">
	<ele>2819.40</ele>
	<time>2023-08-09T06:48:58.000Z</time>
</trkpt>
<trkpt lat="46.1593360" lon="10.4578960">
	<ele>2819.60</ele>
	<time>2023-08-09T06:48:59.000Z</time>
</trkpt>
<trkpt lat="46.1593390" lon="10.4578970">
	<ele>2819.60</ele>
	<time>2023-08-09T06:49:00.000Z</time>
</trkpt>
<trkpt lat="46.1593410" lon="10.4578960">
	<ele>2819.80</ele>
	<time>2023-08-09T06:49:01.000Z</time>
</trkpt>
<trkpt lat="46.1593430" lon="10.4578940">
	<ele>2819.80</ele>
	<time>2023-08-09T06:49:02.000Z</time>
</trkpt>
<trkpt lat="46.1593450" lon="10.4578940">
	<ele>2820.00</ele>
	<time>2023-08-09T06:49:03.000Z</time>
</trkpt>
<trkpt lat="46.1593470" lon="10.4578930">
	<ele>2820.00</ele>
	<time>2023-08-09T06:49:04.000Z</time>
</trkpt>
<trkpt lat="46.1593480" lon="10.4578910">
	<ele>2820.20</ele>
	<time>2023-08-09T06:49:05.000Z</time>
</trkpt>
<trkpt lat="46.1593510" lon="10.4578840">
	<ele>2820.40</ele>
	<time>2023-08-09T06:49:06.000Z</time>
</trkpt>
<trkpt lat="46.1593530" lon="10.4578810">
	<ele>2820.40</ele>
	<time>2023-08-09T06:49:07.000Z</time>
</trkpt>
<trkpt lat="46.1593550" lon="10.4578810">
	<ele>2820.40</ele>
	<time>2023-08-09T06:49:08.000Z</time>
</trkpt>
<trkpt lat="46.1593570" lon="10.4578800">
	<ele>2820.60</ele>
	<time>2023-08-09T06:49:09.000Z</time>
</trkpt>
<trkpt lat="46.1593580" lon="10.4578770">
	<ele>2820.60</ele>
	<time>2023-08-09T06:49:10.000Z</time>
</trkpt>
<trkpt lat="46.1593590" lon="10.4578740">
	<ele>2820.60</ele>
	<time>2023-08-09T06:49:11.000Z</time>
</trkpt>
<trkpt lat="46.1593610" lon="10.4578730">
	<ele>2821.00</ele>
	<time>2023-08-09T06:49:12.000Z</time>
</trkpt>
<trkpt lat="46.1593670" lon="10.4578690">
	<ele>2821.20</ele>
	<time>2023-08-09T06:49:13.000Z</time>
</trkpt>
<trkpt lat="46.1593690" lon="10.4578660">
	<ele>2821.40</ele>
	<time>2023-08-09T06:49:14.000Z</time>
</trkpt>
<trkpt lat="46.1593700" lon="10.4578630">
	<ele>2821.60</ele>
	<time>2023-08-09T06:49:15.000Z</time>
</trkpt>
<trkpt lat="46.1593720" lon="10.4578600">
	<ele>2821.80</ele>
	<time>2023-08-09T06:49:16.000Z</time>
</trkpt>
<trkpt lat="46.1593730" lon="10.4578540">
	<ele>2822.00</ele>
	<time>2023-08-09T06:49:17.000Z</time>
</trkpt>
<trkpt lat="46.1593750" lon="10.4578520">
	<ele>2822.40</ele>
	<time>2023-08-09T06:49:18.000Z</time>
</trkpt>
<trkpt lat="46.1593760" lon="10.4578500">
	<ele>2822.80</ele>
	<time>2023-08-09T06:49:19.000Z</time>
</trkpt>
<trkpt lat="46.1593770" lon="10.4578480">
	<ele>2823.00</ele>
	<time>2023-08-09T06:49:20.000Z</time>
</trkpt>
<trkpt lat="46.1593810" lon="10.4578480">
	<ele>2823.20</ele>
	<time>2023-08-09T06:49:21.000Z</time>
</trkpt>
<trkpt lat="46.1593830" lon="10.4578480">
	<ele>2823.20</ele>
	<time>2023-08-09T06:49:22.000Z</time>
</trkpt>
<trkpt lat="46.1593870" lon="10.4578470">
	<ele>2823.40</ele>
	<time>2023-08-09T06:49:23.000Z</time>
</trkpt>
<trkpt lat="46.1593900" lon="10.4578460">
	<ele>2823.40</ele>
	<time>2023-08-09T06:49:24.000Z</time>
</trkpt>
<trkpt lat="46.1593920" lon="10.4578440">
	<ele>2823.60</ele>
	<time>2023-08-09T06:49:25.000Z</time>
</trkpt>
<trkpt lat="46.1593930" lon="10.4578420">
	<ele>2823.60</ele>
	<time>2023-08-09T06:49:26.000Z</time>
</trkpt>
<trkpt lat="46.1593940" lon="10.4578390">
	<ele>2823.60</ele>
	<time>2023-08-09T06:49:27.000Z</time>
</trkpt>
<trkpt lat="46.1593920" lon="10.4578320">
	<ele>2823.60</ele>
	<time>2023-08-09T06:49:28.000Z</time>
</trkpt>
<trkpt lat="46.1593940" lon="10.4578260">
	<ele>2823.60</ele>
	<time>2023-08-09T06:49:29.000Z</time>
</trkpt>
<trkpt lat="46.1593960" lon="10.4578220">
	<ele>2823.60</ele>
	<time>2023-08-09T06:49:30.000Z</time>
</trkpt>
<trkpt lat="46.1594000" lon="10.4578180">
	<ele>2823.60</ele>
	<time>2023-08-09T06:49:31.000Z</time>
</trkpt>
<trkpt lat="46.1594020" lon="10.4578150">
	<ele>2823.60</ele>
	<time>2023-08-09T06:49:32.000Z</time>
</trkpt>
<trkpt lat="46.1594050" lon="10.4578140">
	<ele>2823.60</ele>
	<time>2023-08-09T06:49:33.000Z</time>
</trkpt>
<trkpt lat="46.1594080" lon="10.4578130">
	<ele>2823.60</ele>
	<time>2023-08-09T06:49:34.000Z</time>
</trkpt>
<trkpt lat="46.1594130" lon="10.4578150">
	<ele>2823.80</ele>
	<time>2023-08-09T06:49:35.000Z</time>
</trkpt>
<trkpt lat="46.1594150" lon="10.4578140">
	<ele>2823.80</ele>
	<time>2023-08-09T06:49:36.000Z</time>
</trkpt>
<trkpt lat="46.1594160" lon="10.4578130">
	<ele>2824.00</ele>
	<time>2023-08-09T06:49:37.000Z</time>
</trkpt>
<trkpt lat="46.1594160" lon="10.4578130">
	<ele>2824.00</ele>
	<time>2023-08-09T06:49:38.000Z</time>
</trkpt>
<trkpt lat="46.1594160" lon="10.4578130">
	<ele>2824.00</ele>
	<time>2023-08-09T06:49:39.000Z</time>
</trkpt>
<trkpt lat="46.1594160" lon="10.4578130">
	<ele>2824.20</ele>
	<time>2023-08-09T06:49:40.000Z</time>
</trkpt>
<trkpt lat="46.1594160" lon="10.4578130">
	<ele>2824.40</ele>
	<time>2023-08-09T06:49:41.000Z</time>
</trkpt>
<trkpt lat="46.1594160" lon="10.4578130">
	<ele>2824.60</ele>
	<time>2023-08-09T06:49:42.000Z</time>
</trkpt>
<trkpt lat="46.1594160" lon="10.4578130">
	<ele>2824.80</ele>
	<time>2023-08-09T06:49:43.000Z</time>
</trkpt>
<trkpt lat="46.1594160" lon="10.4578130">
	<ele>2824.80</ele>
	<time>2023-08-09T06:49:44.000Z</time>
</trkpt>
<trkpt lat="46.1594160" lon="10.4578130">
	<ele>2825.00</ele>
	<time>2023-08-09T06:49:45.000Z</time>
</trkpt>
<trkpt lat="46.1594160" lon="10.4578130">
	<ele>2825.00</ele>
	<time>2023-08-09T06:49:46.000Z</time>
</trkpt>
<trkpt lat="46.1594160" lon="10.4578130">
	<ele>2825.00</ele>
	<time>2023-08-09T06:49:47.000Z</time>
</trkpt>
<trkpt lat="46.1594160" lon="10.4578130">
	<ele>2825.20</ele>
	<time>2023-08-09T06:49:48.000Z</time>
</trkpt>
<trkpt lat="46.1594160" lon="10.4578130">
	<ele>2825.40</ele>
	<time>2023-08-09T06:49:49.000Z</time>
</trkpt>
<trkpt lat="46.1594160" lon="10.4578130">
	<ele>2825.60</ele>
	<time>2023-08-09T06:49:50.000Z</time>
</trkpt>
<trkpt lat="46.1594160" lon="10.4578130">
	<ele>2825.60</ele>
	<time>2023-08-09T06:49:51.000Z</time>
</trkpt>
<trkpt lat="46.1594160" lon="10.4578130">
	<ele>2825.80</ele>
	<time>2023-08-09T06:49:52.000Z</time>
</trkpt>
<trkpt lat="46.1594160" lon="10.4578130">
	<ele>2826.00</ele>
	<time>2023-08-09T06:49:53.000Z</time>
</trkpt>
<trkpt lat="46.1594180" lon="10.4578100">
	<ele>2826.00</ele>
	<time>2023-08-09T06:49:54.000Z</time>
</trkpt>
<trkpt lat="46.1594200" lon="10.4578070">
	<ele>2826.20</ele>
	<time>2023-08-09T06:49:55.000Z</time>
</trkpt>
<trkpt lat="46.1594210" lon="10.4578010">
	<ele>2826.20</ele>
	<time>2023-08-09T06:49:56.000Z</time>
</trkpt>
<trkpt lat="46.1594220" lon="10.4577960">
	<ele>2826.40</ele>
	<time>2023-08-09T06:49:57.000Z</time>
</trkpt>
<trkpt lat="46.1594240" lon="10.4577940">
	<ele>2826.40</ele>
	<time>2023-08-09T06:49:58.000Z</time>
</trkpt>
<trkpt lat="46.1594250" lon="10.4577940">
	<ele>2826.40</ele>
	<time>2023-08-09T06:49:59.000Z</time>
</trkpt>
<trkpt lat="46.1594290" lon="10.4577930">
	<ele>2826.60</ele>
	<time>2023-08-09T06:50:00.000Z</time>
</trkpt>
<trkpt lat="46.1594310" lon="10.4577930">
	<ele>2826.60</ele>
	<time>2023-08-09T06:50:01.000Z</time>
</trkpt>
<trkpt lat="46.1594340" lon="10.4577910">
	<ele>2826.80</ele>
	<time>2023-08-09T06:50:02.000Z</time>
</trkpt>
<trkpt lat="46.1594370" lon="10.4577910">
	<ele>2826.80</ele>
	<time>2023-08-09T06:50:03.000Z</time>
</trkpt>
<trkpt lat="46.1594400" lon="10.4577900">
	<ele>2826.80</ele>
	<time>2023-08-09T06:50:04.000Z</time>
</trkpt>
<trkpt lat="46.1594410" lon="10.4577890">
	<ele>2826.80</ele>
	<time>2023-08-09T06:50:05.000Z</time>
</trkpt>
<trkpt lat="46.1594440" lon="10.4577890">
	<ele>2827.00</ele>
	<time>2023-08-09T06:50:06.000Z</time>
</trkpt>
<trkpt lat="46.1594480" lon="10.4577890">
	<ele>2827.20</ele>
	<time>2023-08-09T06:50:07.000Z</time>
</trkpt>
<trkpt lat="46.1594500" lon="10.4577890">
	<ele>2827.20</ele>
	<time>2023-08-09T06:50:08.000Z</time>
</trkpt>
<trkpt lat="46.1594540" lon="10.4577880">
	<ele>2827.20</ele>
	<time>2023-08-09T06:50:09.000Z</time>
</trkpt>
<trkpt lat="46.1594570" lon="10.4577880">
	<ele>2827.40</ele>
	<time>2023-08-09T06:50:10.000Z</time>
</trkpt>
<trkpt lat="46.1594590" lon="10.4577870">
	<ele>2827.00</ele>
	<time>2023-08-09T06:50:11.000Z</time>
</trkpt>
<trkpt lat="46.1594620" lon="10.4577850">
	<ele>2826.80</ele>
	<time>2023-08-09T06:50:12.000Z</time>
</trkpt>
<trkpt lat="46.1594650" lon="10.4577820">
	<ele>2826.80</ele>
	<time>2023-08-09T06:50:13.000Z</time>
</trkpt>
<trkpt lat="46.1594670" lon="10.4577800">
	<ele>2826.80</ele>
	<time>2023-08-09T06:50:14.000Z</time>
</trkpt>
<trkpt lat="46.1594680" lon="10.4577790">
	<ele>2826.80</ele>
	<time>2023-08-09T06:50:15.000Z</time>
</trkpt>
<trkpt lat="46.1594700" lon="10.4577780">
	<ele>2826.80</ele>
	<time>2023-08-09T06:50:16.000Z</time>
</trkpt>
<trkpt lat="46.1594740" lon="10.4577780">
	<ele>2826.80</ele>
	<time>2023-08-09T06:50:17.000Z</time>
</trkpt>
<trkpt lat="46.1594780" lon="10.4577770">
	<ele>2826.80</ele>
	<time>2023-08-09T06:50:18.000Z</time>
</trkpt>
<trkpt lat="46.1594820" lon="10.4577770">
	<ele>2827.00</ele>
	<time>2023-08-09T06:50:19.000Z</time>
</trkpt>
<trkpt lat="46.1594850" lon="10.4577740">
	<ele>2827.00</ele>
	<time>2023-08-09T06:50:20.000Z</time>
</trkpt>
<trkpt lat="46.1594880" lon="10.4577700">
	<ele>2827.20</ele>
	<time>2023-08-09T06:50:21.000Z</time>
</trkpt>
<trkpt lat="46.1594910" lon="10.4577680">
	<ele>2827.40</ele>
	<time>2023-08-09T06:50:22.000Z</time>
</trkpt>
<trkpt lat="46.1594960" lon="10.4577630">
	<ele>2827.60</ele>
	<time>2023-08-09T06:50:23.000Z</time>
</trkpt>
<trkpt lat="46.1595010" lon="10.4577620">
	<ele>2827.60</ele>
	<time>2023-08-09T06:50:24.000Z</time>
</trkpt>
<trkpt lat="46.1595020" lon="10.4577610">
	<ele>2827.60</ele>
	<time>2023-08-09T06:50:25.000Z</time>
</trkpt>
<trkpt lat="46.1595020" lon="10.4577610">
	<ele>2827.60</ele>
	<time>2023-08-09T06:50:26.000Z</time>
</trkpt>
<trkpt lat="46.1595020" lon="10.4577610">
	<ele>2827.60</ele>
	<time>2023-08-09T06:50:27.000Z</time>
</trkpt>
<trkpt lat="46.1595020" lon="10.4577610">
	<ele>2827.60</ele>
	<time>2023-08-09T06:50:28.000Z</time>
</trkpt>
<trkpt lat="46.1595020" lon="10.4577610">
	<ele>2827.60</ele>
	<time>2023-08-09T06:50:29.000Z</time>
</trkpt>
<trkpt lat="46.1595020" lon="10.4577610">
	<ele>2827.60</ele>
	<time>2023-08-09T06:50:30.000Z</time>
</trkpt>
<trkpt lat="46.1595020" lon="10.4577610">
	<ele>2827.60</ele>
	<time>2023-08-09T06:50:31.000Z</time>
</trkpt>
<trkpt lat="46.1595020" lon="10.4577610">
	<ele>2827.60</ele>
	<time>2023-08-09T06:50:32.000Z</time>
</trkpt>
<trkpt lat="46.1595020" lon="10.4577600">
	<ele>2827.60</ele>
	<time>2023-08-09T06:50:33.000Z</time>
</trkpt>
<trkpt lat="46.1595020" lon="10.4577600">
	<ele>2827.60</ele>
	<time>2023-08-09T06:50:34.000Z</time>
</trkpt>
<trkpt lat="46.1595020" lon="10.4577590">
	<ele>2827.40</ele>
	<time>2023-08-09T06:50:35.000Z</time>
</trkpt>
<trkpt lat="46.1595020" lon="10.4577590">
	<ele>2827.40</ele>
	<time>2023-08-09T06:50:36.000Z</time>
</trkpt>
<trkpt lat="46.1595020" lon="10.4577590">
	<ele>2827.20</ele>
	<time>2023-08-09T06:50:37.000Z</time>
</trkpt>
<trkpt lat="46.1595020" lon="10.4577580">
	<ele>2827.00</ele>
	<time>2023-08-09T06:50:38.000Z</time>
</trkpt>
<trkpt lat="46.1595010" lon="10.4577580">
	<ele>2826.80</ele>
	<time>2023-08-09T06:50:39.000Z</time>
</trkpt>
<trkpt lat="46.1595010" lon="10.4577570">
	<ele>2826.80</ele>
	<time>2023-08-09T06:50:40.000Z</time>
</trkpt>
<trkpt lat="46.1595000" lon="10.4577570">
	<ele>2826.80</ele>
	<time>2023-08-09T06:50:41.000Z</time>
</trkpt>
<trkpt lat="46.1594990" lon="10.4577570">
	<ele>2826.80</ele>
	<time>2023-08-09T06:50:42.000Z</time>
</trkpt>
<trkpt lat="46.1594980" lon="10.4577570">
	<ele>2827.00</ele>
	<time>2023-08-09T06:50:43.000Z</time>
</trkpt>
<trkpt lat="46.1594970" lon="10.4577570">
	<ele>2827.00</ele>
	<time>2023-08-09T06:50:44.000Z</time>
</trkpt>
<trkpt lat="46.1594970" lon="10.4577570">
	<ele>2827.20</ele>
	<time>2023-08-09T06:50:45.000Z</time>
</trkpt>
<trkpt lat="46.1594970" lon="10.4577570">
	<ele>2827.00</ele>
	<time>2023-08-09T06:50:46.000Z</time>
</trkpt>
<trkpt lat="46.1594970" lon="10.4577570">
	<ele>2827.00</ele>
	<time>2023-08-09T06:50:47.000Z</time>
</trkpt>
<trkpt lat="46.1594970" lon="10.4577570">
	<ele>2826.80</ele>
	<time>2023-08-09T06:50:48.000Z</time>
</trkpt>
<trkpt lat="46.1594970" lon="10.4577570">
	<ele>2826.80</ele>
	<time>2023-08-09T06:50:49.000Z</time>
</trkpt>
<trkpt lat="46.1594970" lon="10.4577550">
	<ele>2826.80</ele>
	<time>2023-08-09T06:50:50.000Z</time>
</trkpt>
<trkpt lat="46.1594970" lon="10.4577520">
	<ele>2826.80</ele>
	<time>2023-08-09T06:50:51.000Z</time>
</trkpt>
<trkpt lat="46.1594960" lon="10.4577500">
	<ele>2826.80</ele>
	<time>2023-08-09T06:50:52.000Z</time>
</trkpt>
<trkpt lat="46.1594960" lon="10.4577470">
	<ele>2826.80</ele>
	<time>2023-08-09T06:50:53.000Z</time>
</trkpt>
<trkpt lat="46.1594960" lon="10.4577450">
	<ele>2826.80</ele>
	<time>2023-08-09T06:50:54.000Z</time>
</trkpt>
<trkpt lat="46.1594960" lon="10.4577440">
	<ele>2826.60</ele>
	<time>2023-08-09T06:50:55.000Z</time>
</trkpt>
<trkpt lat="46.1594960" lon="10.4577420">
	<ele>2826.60</ele>
	<time>2023-08-09T06:50:56.000Z</time>
</trkpt>
<trkpt lat="46.1594950" lon="10.4577410">
	<ele>2826.60</ele>
	<time>2023-08-09T06:50:57.000Z</time>
</trkpt>
<trkpt lat="46.1594950" lon="10.4577410">
	<ele>2826.60</ele>
	<time>2023-08-09T06:50:58.000Z</time>
</trkpt>
<trkpt lat="46.1594950" lon="10.4577400">
	<ele>2826.60</ele>
	<time>2023-08-09T06:50:59.000Z</time>
</trkpt>
<trkpt lat="46.1594950" lon="10.4577390">
	<ele>2826.60</ele>
	<time>2023-08-09T06:51:00.000Z</time>
</trkpt>
<trkpt lat="46.1594950" lon="10.4577390">
	<ele>2826.60</ele>
	<time>2023-08-09T06:51:01.000Z</time>
</trkpt>
<trkpt lat="46.1594950" lon="10.4577390">
	<ele>2826.40</ele>
	<time>2023-08-09T06:51:02.000Z</time>
</trkpt>
<trkpt lat="46.1594950" lon="10.4577390">
	<ele>2826.40</ele>
	<time>2023-08-09T06:51:03.000Z</time>
</trkpt>
<trkpt lat="46.1594950" lon="10.4577390">
	<ele>2826.40</ele>
	<time>2023-08-09T06:51:04.000Z</time>
</trkpt>
<trkpt lat="46.1594950" lon="10.4577390">
	<ele>2826.40</ele>
	<time>2023-08-09T06:51:05.000Z</time>
</trkpt>
<trkpt lat="46.1594950" lon="10.4577390">
	<ele>2826.40</ele>
	<time>2023-08-09T06:51:06.000Z</time>
</trkpt>
<trkpt lat="46.1594950" lon="10.4577390">
	<ele>2826.40</ele>
	<time>2023-08-09T06:51:07.000Z</time>
</trkpt>
<trkpt lat="46.1594950" lon="10.4577390">
	<ele>2826.40</ele>
	<time>2023-08-09T06:51:08.000Z</time>
</trkpt>
<trkpt lat="46.1594940" lon="10.4577390">
	<ele>2826.40</ele>
	<time>2023-08-09T06:51:09.000Z</time>
</trkpt>
<trkpt lat="46.1594940" lon="10.4577390">
	<ele>2826.40</ele>
	<time>2023-08-09T06:51:10.000Z</time>
</trkpt>
<trkpt lat="46.1594940" lon="10.4577390">
	<ele>2826.40</ele>
	<time>2023-08-09T06:51:11.000Z</time>
</trkpt>
<trkpt lat="46.1594940" lon="10.4577390">
	<ele>2826.40</ele>
	<time>2023-08-09T06:51:12.000Z</time>
</trkpt>
<trkpt lat="46.1594930" lon="10.4577390">
	<ele>2826.40</ele>
	<time>2023-08-09T06:51:13.000Z</time>
</trkpt>
<trkpt lat="46.1594930" lon="10.4577400">
	<ele>2826.40</ele>
	<time>2023-08-09T06:51:14.000Z</time>
</trkpt>
<trkpt lat="46.1594920" lon="10.4577410">
	<ele>2826.40</ele>
	<time>2023-08-09T06:51:15.000Z</time>
</trkpt>
<trkpt lat="46.1594920" lon="10.4577410">
	<ele>2826.40</ele>
	<time>2023-08-09T06:51:16.000Z</time>
</trkpt>
<trkpt lat="46.1594920" lon="10.4577410">
	<ele>2826.40</ele>
	<time>2023-08-09T06:51:17.000Z</time>
</trkpt>
<trkpt lat="46.1594910" lon="10.4577420">
	<ele>2826.40</ele>
	<time>2023-08-09T06:51:18.000Z</time>
</trkpt>
<trkpt lat="46.1594910" lon="10.4577430">
	<ele>2826.40</ele>
	<time>2023-08-09T06:51:19.000Z</time>
</trkpt>
<trkpt lat="46.1594900" lon="10.4577430">
	<ele>2826.40</ele>
	<time>2023-08-09T06:51:20.000Z</time>
</trkpt>
<trkpt lat="46.1594900" lon="10.4577440">
	<ele>2826.40</ele>
	<time>2023-08-09T06:51:21.000Z</time>
</trkpt>
<trkpt lat="46.1594900" lon="10.4577450">
	<ele>2826.40</ele>
	<time>2023-08-09T06:51:22.000Z</time>
</trkpt>
<trkpt lat="46.1594900" lon="10.4577450">
	<ele>2826.40</ele>
	<time>2023-08-09T06:51:23.000Z</time>
</trkpt>
<trkpt lat="46.1594900" lon="10.4577460">
	<ele>2826.40</ele>
	<time>2023-08-09T06:51:24.000Z</time>
</trkpt>
<trkpt lat="46.1594900" lon="10.4577460">
	<ele>2826.40</ele>
	<time>2023-08-09T06:51:25.000Z</time>
</trkpt>
<trkpt lat="46.1594900" lon="10.4577460">
	<ele>2826.40</ele>
	<time>2023-08-09T06:51:26.000Z</time>
</trkpt>
<trkpt lat="46.1594900" lon="10.4577470">
	<ele>2826.40</ele>
	<time>2023-08-09T06:51:27.000Z</time>
</trkpt>
<trkpt lat="46.1594900" lon="10.4577480">
	<ele>2826.40</ele>
	<time>2023-08-09T06:51:28.000Z</time>
</trkpt>
<trkpt lat="46.1594900" lon="10.4577490">
	<ele>2826.40</ele>
	<time>2023-08-09T06:51:29.000Z</time>
</trkpt>
<trkpt lat="46.1594900" lon="10.4577490">
	<ele>2826.40</ele>
	<time>2023-08-09T06:51:30.000Z</time>
</trkpt>
<trkpt lat="46.1594900" lon="10.4577500">
	<ele>2826.40</ele>
	<time>2023-08-09T06:51:31.000Z</time>
</trkpt>
<trkpt lat="46.1594900" lon="10.4577500">
	<ele>2826.40</ele>
	<time>2023-08-09T06:51:32.000Z</time>
</trkpt>
<trkpt lat="46.1594900" lon="10.4577510">
	<ele>2826.40</ele>
	<time>2023-08-09T06:51:33.000Z</time>
</trkpt>
<trkpt lat="46.1594900" lon="10.4577510">
	<ele>2826.40</ele>
	<time>2023-08-09T06:51:34.000Z</time>
</trkpt>
<trkpt lat="46.1594900" lon="10.4577510">
	<ele>2826.40</ele>
	<time>2023-08-09T06:51:35.000Z</time>
</trkpt>
<trkpt lat="46.1594910" lon="10.4577510">
	<ele>2826.40</ele>
	<time>2023-08-09T06:51:36.000Z</time>
</trkpt>
<trkpt lat="46.1594910" lon="10.4577510">
	<ele>2826.40</ele>
	<time>2023-08-09T06:51:37.000Z</time>
</trkpt>
<trkpt lat="46.1594920" lon="10.4577510">
	<ele>2826.40</ele>
	<time>2023-08-09T06:51:38.000Z</time>
</trkpt>
<trkpt lat="46.1594940" lon="10.4577510">
	<ele>2826.40</ele>
	<time>2023-08-09T06:51:39.000Z</time>
</trkpt>
<trkpt lat="46.1594950" lon="10.4577510">
	<ele>2826.40</ele>
	<time>2023-08-09T06:51:40.000Z</time>
</trkpt>
<trkpt lat="46.1594950" lon="10.4577510">
	<ele>2826.40</ele>
	<time>2023-08-09T06:51:41.000Z</time>
</trkpt>
<trkpt lat="46.1594960" lon="10.4577510">
	<ele>2826.40</ele>
	<time>2023-08-09T06:51:42.000Z</time>
</trkpt>
<trkpt lat="46.1594960" lon="10.4577510">
	<ele>2826.40</ele>
	<time>2023-08-09T06:51:43.000Z</time>
</trkpt>
<trkpt lat="46.1594960" lon="10.4577510">
	<ele>2826.40</ele>
	<time>2023-08-09T06:51:44.000Z</time>
</trkpt>
<trkpt lat="46.1594960" lon="10.4577500">
	<ele>2826.40</ele>
	<time>2023-08-09T06:51:45.000Z</time>
</trkpt>
<trkpt lat="46.1594960" lon="10.4577500">
	<ele>2826.40</ele>
	<time>2023-08-09T06:51:46.000Z</time>
</trkpt>
<trkpt lat="46.1594960" lon="10.4577500">
	<ele>2826.40</ele>
	<time>2023-08-09T06:51:47.000Z</time>
</trkpt>
<trkpt lat="46.1594970" lon="10.4577500">
	<ele>2826.40</ele>
	<time>2023-08-09T06:51:48.000Z</time>
</trkpt>
<trkpt lat="46.1594970" lon="10.4577500">
	<ele>2826.40</ele>
	<time>2023-08-09T06:51:49.000Z</time>
</trkpt>
<trkpt lat="46.1594970" lon="10.4577490">
	<ele>2826.40</ele>
	<time>2023-08-09T06:51:50.000Z</time>
</trkpt>
<trkpt lat="46.1594970" lon="10.4577490">
	<ele>2826.40</ele>
	<time>2023-08-09T06:51:51.000Z</time>
</trkpt>
<trkpt lat="46.1594970" lon="10.4577480">
	<ele>2826.40</ele>
	<time>2023-08-09T06:51:52.000Z</time>
</trkpt>
<trkpt lat="46.1594970" lon="10.4577470">
	<ele>2826.40</ele>
	<time>2023-08-09T06:51:53.000Z</time>
</trkpt>
<trkpt lat="46.1594980" lon="10.4577470">
	<ele>2826.40</ele>
	<time>2023-08-09T06:51:54.000Z</time>
</trkpt>
<trkpt lat="46.1594980" lon="10.4577470">
	<ele>2826.40</ele>
	<time>2023-08-09T06:51:55.000Z</time>
</trkpt>
<trkpt lat="46.1594990" lon="10.4577460">
	<ele>2826.40</ele>
	<time>2023-08-09T06:51:56.000Z</time>
</trkpt>
<trkpt lat="46.1595000" lon="10.4577460">
	<ele>2826.40</ele>
	<time>2023-08-09T06:51:57.000Z</time>
</trkpt>
<trkpt lat="46.1595010" lon="10.4577450">
	<ele>2826.40</ele>
	<time>2023-08-09T06:51:58.000Z</time>
</trkpt>
<trkpt lat="46.1595020" lon="10.4577440">
	<ele>2826.40</ele>
	<time>2023-08-09T06:51:59.000Z</time>
</trkpt>
<trkpt lat="46.1595020" lon="10.4577430">
	<ele>2826.40</ele>
	<time>2023-08-09T06:52:00.000Z</time>
</trkpt>
<trkpt lat="46.1595030" lon="10.4577420">
	<ele>2826.40</ele>
	<time>2023-08-09T06:52:01.000Z</time>
</trkpt>
<trkpt lat="46.1595030" lon="10.4577420">
	<ele>2826.40</ele>
	<time>2023-08-09T06:52:02.000Z</time>
</trkpt>
<trkpt lat="46.1595040" lon="10.4577420">
	<ele>2826.40</ele>
	<time>2023-08-09T06:52:03.000Z</time>
</trkpt>
<trkpt lat="46.1595040" lon="10.4577410">
	<ele>2826.40</ele>
	<time>2023-08-09T06:52:04.000Z</time>
</trkpt>
<trkpt lat="46.1595040" lon="10.4577410">
	<ele>2826.40</ele>
	<time>2023-08-09T06:52:05.000Z</time>
</trkpt>
<trkpt lat="46.1595040" lon="10.4577410">
	<ele>2826.40</ele>
	<time>2023-08-09T06:52:06.000Z</time>
</trkpt>
<trkpt lat="46.1595040" lon="10.4577410">
	<ele>2826.40</ele>
	<time>2023-08-09T06:52:07.000Z</time>
</trkpt>
<trkpt lat="46.1595040" lon="10.4577410">
	<ele>2826.40</ele>
	<time>2023-08-09T06:52:08.000Z</time>
</trkpt>
<trkpt lat="46.1595040" lon="10.4577410">
	<ele>2826.40</ele>
	<time>2023-08-09T06:52:09.000Z</time>
</trkpt>
<trkpt lat="46.1595040" lon="10.4577400">
	<ele>2826.40</ele>
	<time>2023-08-09T06:52:10.000Z</time>
</trkpt>
<trkpt lat="46.1595050" lon="10.4577400">
	<ele>2826.40</ele>
	<time>2023-08-09T06:52:11.000Z</time>
</trkpt>
<trkpt lat="46.1595050" lon="10.4577400">
	<ele>2826.40</ele>
	<time>2023-08-09T06:52:12.000Z</time>
</trkpt>
<trkpt lat="46.1595050" lon="10.4577400">
	<ele>2826.40</ele>
	<time>2023-08-09T06:52:13.000Z</time>
</trkpt>
<trkpt lat="46.1595050" lon="10.4577400">
	<ele>2826.40</ele>
	<time>2023-08-09T06:52:14.000Z</time>
</trkpt>
<trkpt lat="46.1595050" lon="10.4577400">
	<ele>2826.40</ele>
	<time>2023-08-09T06:52:15.000Z</time>
</trkpt>
<trkpt lat="46.1595050" lon="10.4577400">
	<ele>2826.40</ele>
	<time>2023-08-09T06:52:16.000Z</time>
</trkpt>
<trkpt lat="46.1595050" lon="10.4577410">
	<ele>2826.40</ele>
	<time>2023-08-09T06:52:17.000Z</time>
</trkpt>
<trkpt lat="46.1595050" lon="10.4577410">
	<ele>2826.40</ele>
	<time>2023-08-09T06:52:18.000Z</time>
</trkpt>
<trkpt lat="46.1595050" lon="10.4577410">
	<ele>2826.40</ele>
	<time>2023-08-09T06:52:19.000Z</time>
</trkpt>
<trkpt lat="46.1595050" lon="10.4577410">
	<ele>2826.40</ele>
	<time>2023-08-09T06:52:20.000Z</time>
</trkpt>
<trkpt lat="46.1595050" lon="10.4577410">
	<ele>2826.40</ele>
	<time>2023-08-09T06:52:21.000Z</time>
</trkpt>
<trkpt lat="46.1595050" lon="10.4577410">
	<ele>2826.40</ele>
	<time>2023-08-09T06:52:22.000Z</time>
</trkpt>
<trkpt lat="46.1595050" lon="10.4577410">
	<ele>2826.40</ele>
	<time>2023-08-09T06:52:23.000Z</time>
</trkpt>
<trkpt lat="46.1595050" lon="10.4577410">
	<ele>2826.40</ele>
	<time>2023-08-09T06:52:24.000Z</time>
</trkpt>
<trkpt lat="46.1595040" lon="10.4577410">
	<ele>2826.40</ele>
	<time>2023-08-09T06:52:25.000Z</time>
</trkpt>
<trkpt lat="46.1595040" lon="10.4577410">
	<ele>2826.40</ele>
	<time>2023-08-09T06:52:26.000Z</time>
</trkpt>
<trkpt lat="46.1595040" lon="10.4577410">
	<ele>2826.40</ele>
	<time>2023-08-09T06:52:27.000Z</time>
</trkpt>
<trkpt lat="46.1595030" lon="10.4577410">
	<ele>2826.40</ele>
	<time>2023-08-09T06:52:28.000Z</time>
</trkpt>
<trkpt lat="46.1595020" lon="10.4577410">
	<ele>2826.40</ele>
	<time>2023-08-09T06:52:29.000Z</time>
</trkpt>
<trkpt lat="46.1595010" lon="10.4577410">
	<ele>2826.40</ele>
	<time>2023-08-09T06:52:30.000Z</time>
</trkpt>
<trkpt lat="46.1595000" lon="10.4577420">
	<ele>2826.40</ele>
	<time>2023-08-09T06:52:31.000Z</time>
</trkpt>
<trkpt lat="46.1594990" lon="10.4577420">
	<ele>2826.40</ele>
	<time>2023-08-09T06:52:32.000Z</time>
</trkpt>
<trkpt lat="46.1594990" lon="10.4577420">
	<ele>2826.40</ele>
	<time>2023-08-09T06:52:33.000Z</time>
</trkpt>
<trkpt lat="46.1594980" lon="10.4577420">
	<ele>2826.40</ele>
	<time>2023-08-09T06:52:34.000Z</time>
</trkpt>
<trkpt lat="46.1594980" lon="10.4577420">
	<ele>2826.40</ele>
	<time>2023-08-09T06:52:35.000Z</time>
</trkpt>
<trkpt lat="46.1594970" lon="10.4577420">
	<ele>2826.40</ele>
	<time>2023-08-09T06:52:36.000Z</time>
</trkpt>
<trkpt lat="46.1594970" lon="10.4577420">
	<ele>2826.40</ele>
	<time>2023-08-09T06:52:37.000Z</time>
</trkpt>
<trkpt lat="46.1594970" lon="10.4577420">
	<ele>2826.40</ele>
	<time>2023-08-09T06:52:38.000Z</time>
</trkpt>
<trkpt lat="46.1594970" lon="10.4577420">
	<ele>2826.40</ele>
	<time>2023-08-09T06:52:39.000Z</time>
</trkpt>
<trkpt lat="46.1594960" lon="10.4577420">
	<ele>2826.40</ele>
	<time>2023-08-09T06:52:40.000Z</time>
</trkpt>
<trkpt lat="46.1594960" lon="10.4577420">
	<ele>2826.40</ele>
	<time>2023-08-09T06:52:41.000Z</time>
</trkpt>
<trkpt lat="46.1594960" lon="10.4577430">
	<ele>2826.40</ele>
	<time>2023-08-09T06:52:42.000Z</time>
</trkpt>
<trkpt lat="46.1594960" lon="10.4577430">
	<ele>2826.40</ele>
	<time>2023-08-09T06:52:43.000Z</time>
</trkpt>
<trkpt lat="46.1594950" lon="10.4577430">
	<ele>2826.40</ele>
	<time>2023-08-09T06:52:44.000Z</time>
</trkpt>
<trkpt lat="46.1594950" lon="10.4577430">
	<ele>2826.40</ele>
	<time>2023-08-09T06:52:45.000Z</time>
</trkpt>
<trkpt lat="46.1594940" lon="10.4577430">
	<ele>2826.40</ele>
	<time>2023-08-09T06:52:46.000Z</time>
</trkpt>
<trkpt lat="46.1594940" lon="10.4577430">
	<ele>2826.40</ele>
	<time>2023-08-09T06:52:47.000Z</time>
</trkpt>
<trkpt lat="46.1594930" lon="10.4577430">
	<ele>2826.40</ele>
	<time>2023-08-09T06:52:48.000Z</time>
</trkpt>
<trkpt lat="46.1594920" lon="10.4577430">
	<ele>2826.40</ele>
	<time>2023-08-09T06:52:49.000Z</time>
</trkpt>
<trkpt lat="46.1594920" lon="10.4577430">
	<ele>2826.40</ele>
	<time>2023-08-09T06:52:50.000Z</time>
</trkpt>
<trkpt lat="46.1594910" lon="10.4577430">
	<ele>2826.40</ele>
	<time>2023-08-09T06:52:51.000Z</time>
</trkpt>
<trkpt lat="46.1594900" lon="10.4577430">
	<ele>2826.40</ele>
	<time>2023-08-09T06:52:52.000Z</time>
</trkpt>
<trkpt lat="46.1594900" lon="10.4577430">
	<ele>2826.40</ele>
	<time>2023-08-09T06:52:53.000Z</time>
</trkpt>
<trkpt lat="46.1594900" lon="10.4577430">
	<ele>2826.40</ele>
	<time>2023-08-09T06:52:54.000Z</time>
</trkpt>
<trkpt lat="46.1594890" lon="10.4577430">
	<ele>2826.40</ele>
	<time>2023-08-09T06:52:55.000Z</time>
</trkpt>
<trkpt lat="46.1594890" lon="10.4577430">
	<ele>2826.40</ele>
	<time>2023-08-09T06:52:56.000Z</time>
</trkpt>
<trkpt lat="46.1594890" lon="10.4577430">
	<ele>2826.40</ele>
	<time>2023-08-09T06:52:57.000Z</time>
</trkpt>
<trkpt lat="46.1594890" lon="10.4577430">
	<ele>2826.40</ele>
	<time>2023-08-09T06:52:58.000Z</time>
</trkpt>
<trkpt lat="46.1594890" lon="10.4577430">
	<ele>2826.40</ele>
	<time>2023-08-09T06:52:59.000Z</time>
</trkpt>
<trkpt lat="46.1594890" lon="10.4577430">
	<ele>2826.40</ele>
	<time>2023-08-09T06:53:00.000Z</time>
</trkpt>
<trkpt lat="46.1594890" lon="10.4577430">
	<ele>2826.40</ele>
	<time>2023-08-09T06:53:01.000Z</time>
</trkpt>
<trkpt lat="46.1594890" lon="10.4577430">
	<ele>2826.40</ele>
	<time>2023-08-09T06:53:02.000Z</time>
</trkpt>
<trkpt lat="46.1594890" lon="10.4577430">
	<ele>2826.40</ele>
	<time>2023-08-09T06:53:03.000Z</time>
</trkpt>
<trkpt lat="46.1594890" lon="10.4577430">
	<ele>2826.40</ele>
	<time>2023-08-09T06:53:04.000Z</time>
</trkpt>
<trkpt lat="46.1594890" lon="10.4577430">
	<ele>2826.40</ele>
	<time>2023-08-09T06:53:05.000Z</time>
</trkpt>
<trkpt lat="46.1594890" lon="10.4577430">
	<ele>2826.40</ele>
	<time>2023-08-09T06:53:06.000Z</time>
</trkpt>
<trkpt lat="46.1594890" lon="10.4577430">
	<ele>2826.40</ele>
	<time>2023-08-09T06:53:07.000Z</time>
</trkpt>
<trkpt lat="46.1594890" lon="10.4577430">
	<ele>2826.40</ele>
	<time>2023-08-09T06:53:08.000Z</time>
</trkpt>
<trkpt lat="46.1594890" lon="10.4577430">
	<ele>2826.40</ele>
	<time>2023-08-09T06:53:09.000Z</time>
</trkpt>
<trkpt lat="46.1594890" lon="10.4577430">
	<ele>2826.40</ele>
	<time>2023-08-09T06:53:10.000Z</time>
</trkpt>
<trkpt lat="46.1594880" lon="10.4577430">
	<ele>2826.40</ele>
	<time>2023-08-09T06:53:11.000Z</time>
</trkpt>
<trkpt lat="46.1594880" lon="10.4577430">
	<ele>2826.40</ele>
	<time>2023-08-09T06:53:12.000Z</time>
</trkpt>
<trkpt lat="46.1594880" lon="10.4577420">
	<ele>2826.40</ele>
	<time>2023-08-09T06:53:13.000Z</time>
</trkpt>
<trkpt lat="46.1594880" lon="10.4577420">
	<ele>2826.40</ele>
	<time>2023-08-09T06:53:14.000Z</time>
</trkpt>
<trkpt lat="46.1594880" lon="10.4577420">
	<ele>2826.40</ele>
	<time>2023-08-09T06:53:15.000Z</time>
</trkpt>
<trkpt lat="46.1594880" lon="10.4577420">
	<ele>2826.40</ele>
	<time>2023-08-09T06:53:16.000Z</time>
</trkpt>
<trkpt lat="46.1594880" lon="10.4577420">
	<ele>2826.40</ele>
	<time>2023-08-09T06:53:17.000Z</time>
</trkpt>
<trkpt lat="46.1594880" lon="10.4577420">
	<ele>2826.40</ele>
	<time>2023-08-09T06:53:18.000Z</time>
</trkpt>
<trkpt lat="46.1594880" lon="10.4577420">
	<ele>2826.40</ele>
	<time>2023-08-09T06:53:19.000Z</time>
</trkpt>
<trkpt lat="46.1594880" lon="10.4577420">
	<ele>2826.40</ele>
	<time>2023-08-09T06:53:20.000Z</time>
</trkpt>
<trkpt lat="46.1594880" lon="10.4577420">
	<ele>2826.40</ele>
	<time>2023-08-09T06:53:21.000Z</time>
</trkpt>
<trkpt lat="46.1594880" lon="10.4577420">
	<ele>2826.40</ele>
	<time>2023-08-09T06:53:22.000Z</time>
</trkpt>
<trkpt lat="46.1594880" lon="10.4577420">
	<ele>2826.40</ele>
	<time>2023-08-09T06:53:23.000Z</time>
</trkpt>
<trkpt lat="46.1594880" lon="10.4577420">
	<ele>2826.40</ele>
	<time>2023-08-09T06:53:24.000Z</time>
</trkpt>
<trkpt lat="46.1594880" lon="10.4577420">
	<ele>2826.40</ele>
	<time>2023-08-09T06:53:25.000Z</time>
</trkpt>
<trkpt lat="46.1594880" lon="10.4577420">
	<ele>2826.40</ele>
	<time>2023-08-09T06:53:26.000Z</time>
</trkpt>
<trkpt lat="46.1594880" lon="10.4577420">
	<ele>2826.40</ele>
	<time>2023-08-09T06:53:27.000Z</time>
</trkpt>
<trkpt lat="46.1594880" lon="10.4577420">
	<ele>2826.40</ele>
	<time>2023-08-09T06:53:28.000Z</time>
</trkpt>
<trkpt lat="46.1594880" lon="10.4577420">
	<ele>2826.40</ele>
	<time>2023-08-09T06:53:29.000Z</time>
</trkpt>
<trkpt lat="46.1594880" lon="10.4577420">
	<ele>2826.40</ele>
	<time>2023-08-09T06:53:30.000Z</time>
</trkpt>
<trkpt lat="46.1594880" lon="10.4577420">
	<ele>2826.40</ele>
	<time>2023-08-09T06:53:31.000Z</time>
</trkpt>
<trkpt lat="46.1594880" lon="10.4577420">
	<ele>2826.40</ele>
	<time>2023-08-09T06:53:32.000Z</time>
</trkpt>
<trkpt lat="46.1594880" lon="10.4577420">
	<ele>2826.40</ele>
	<time>2023-08-09T06:53:33.000Z</time>
</trkpt>
<trkpt lat="46.1594880" lon="10.4577420">
	<ele>2826.40</ele>
	<time>2023-08-09T06:53:34.000Z</time>
</trkpt>
<trkpt lat="46.1594880" lon="10.4577420">
	<ele>2826.40</ele>
	<time>2023-08-09T06:53:35.000Z</time>
</trkpt>
<trkpt lat="46.1594880" lon="10.4577420">
	<ele>2826.40</ele>
	<time>2023-08-09T06:53:36.000Z</time>
</trkpt>
<trkpt lat="46.1594880" lon="10.4577420">
	<ele>2826.40</ele>
	<time>2023-08-09T06:53:37.000Z</time>
</trkpt>
<trkpt lat="46.1594880" lon="10.4577420">
	<ele>2826.40</ele>
	<time>2023-08-09T06:53:38.000Z</time>
</trkpt>
<trkpt lat="46.1594880" lon="10.4577420">
	<ele>2826.40</ele>
	<time>2023-08-09T06:53:39.000Z</time>
</trkpt>
<trkpt lat="46.1594880" lon="10.4577420">
	<ele>2826.40</ele>
	<time>2023-08-09T06:53:40.000Z</time>
</trkpt>
<trkpt lat="46.1594880" lon="10.4577420">
	<ele>2826.40</ele>
	<time>2023-08-09T06:53:41.000Z</time>
</trkpt>
<trkpt lat="46.1594880" lon="10.4577420">
	<ele>2826.40</ele>
	<time>2023-08-09T06:53:42.000Z</time>
</trkpt>
<trkpt lat="46.1594880" lon="10.4577420">
	<ele>2826.40</ele>
	<time>2023-08-09T06:53:43.000Z</time>
</trkpt>
<trkpt lat="46.1594880" lon="10.4577420">
	<ele>2826.40</ele>
	<time>2023-08-09T06:53:44.000Z</time>
</trkpt>
<trkpt lat="46.1594870" lon="10.4577420">
	<ele>2826.40</ele>
	<time>2023-08-09T06:53:45.000Z</time>
</trkpt>
<trkpt lat="46.1594870" lon="10.4577420">
	<ele>2826.40</ele>
	<time>2023-08-09T06:53:46.000Z</time>
</trkpt>
<trkpt lat="46.1594870" lon="10.4577420">
	<ele>2826.40</ele>
	<time>2023-08-09T06:53:47.000Z</time>
</trkpt>
<trkpt lat="46.1594870" lon="10.4577420">
	<ele>2826.40</ele>
	<time>2023-08-09T06:53:48.000Z</time>
</trkpt>
<trkpt lat="46.1594870" lon="10.4577420">
	<ele>2826.40</ele>
	<time>2023-08-09T06:53:49.000Z</time>
</trkpt>
<trkpt lat="46.1594870" lon="10.4577420">
	<ele>2826.40</ele>
	<time>2023-08-09T06:53:50.000Z</time>
</trkpt>
<trkpt lat="46.1594870" lon="10.4577420">
	<ele>2826.40</ele>
	<time>2023-08-09T06:53:51.000Z</time>
</trkpt>
<trkpt lat="46.1594870" lon="10.4577420">
	<ele>2826.40</ele>
	<time>2023-08-09T06:53:52.000Z</time>
</trkpt>
<trkpt lat="46.1594870" lon="10.4577420">
	<ele>2826.40</ele>
	<time>2023-08-09T06:53:53.000Z</time>
</trkpt>
<trkpt lat="46.1594870" lon="10.4577420">
	<ele>2826.40</ele>
	<time>2023-08-09T06:53:54.000Z</time>
</trkpt>
<trkpt lat="46.1594870" lon="10.4577420">
	<ele>2826.40</ele>
	<time>2023-08-09T06:53:55.000Z</time>
</trkpt>
<trkpt lat="46.1594870" lon="10.4577420">
	<ele>2826.40</ele>
	<time>2023-08-09T06:53:56.000Z</time>
</trkpt>
<trkpt lat="46.1594870" lon="10.4577420">
	<ele>2826.40</ele>
	<time>2023-08-09T06:53:57.000Z</time>
</trkpt>
<trkpt lat="46.1594870" lon="10.4577420">
	<ele>2826.40</ele>
	<time>2023-08-09T06:53:58.000Z</time>
</trkpt>
<trkpt lat="46.1594870" lon="10.4577420">
	<ele>2826.40</ele>
	<time>2023-08-09T06:53:59.000Z</time>
</trkpt>
<trkpt lat="46.1594870" lon="10.4577420">
	<ele>2826.40</ele>
	<time>2023-08-09T06:54:00.000Z</time>
</trkpt>
<trkpt lat="46.1594870" lon="10.4577420">
	<ele>2826.40</ele>
	<time>2023-08-09T06:54:01.000Z</time>
</trkpt>
<trkpt lat="46.1594870" lon="10.4577420">
	<ele>2826.40</ele>
	<time>2023-08-09T06:54:02.000Z</time>
</trkpt>
<trkpt lat="46.1594870" lon="10.4577420">
	<ele>2826.40</ele>
	<time>2023-08-09T06:54:03.000Z</time>
</trkpt>
<trkpt lat="46.1594870" lon="10.4577420">
	<ele>2826.40</ele>
	<time>2023-08-09T06:54:04.000Z</time>
</trkpt>
<trkpt lat="46.1594870" lon="10.4577420">
	<ele>2826.40</ele>
	<time>2023-08-09T06:54:05.000Z</time>
</trkpt>
<trkpt lat="46.1594870" lon="10.4577420">
	<ele>2826.40</ele>
	<time>2023-08-09T06:54:06.000Z</time>
</trkpt>
<trkpt lat="46.1594870" lon="10.4577420">
	<ele>2826.40</ele>
	<time>2023-08-09T06:54:07.000Z</time>
</trkpt>
<trkpt lat="46.1594870" lon="10.4577420">
	<ele>2826.40</ele>
	<time>2023-08-09T06:54:08.000Z</time>
</trkpt>
<trkpt lat="46.1594870" lon="10.4577420">
	<ele>2826.40</ele>
	<time>2023-08-09T06:54:09.000Z</time>
</trkpt>
<trkpt lat="46.1594870" lon="10.4577420">
	<ele>2826.40</ele>
	<time>2023-08-09T06:54:10.000Z</time>
</trkpt>
<trkpt lat="46.1594870" lon="10.4577420">
	<ele>2826.40</ele>
	<time>2023-08-09T06:54:11.000Z</time>
</trkpt>
<trkpt lat="46.1594870" lon="10.4577420">
	<ele>2826.40</ele>
	<time>2023-08-09T06:54:12.000Z</time>
</trkpt>
<trkpt lat="46.1594860" lon="10.4577420">
	<ele>2826.40</ele>
	<time>2023-08-09T06:54:13.000Z</time>
</trkpt>
<trkpt lat="46.1594860" lon="10.4577420">
	<ele>2826.40</ele>
	<time>2023-08-09T06:54:14.000Z</time>
</trkpt>
<trkpt lat="46.1594860" lon="10.4577420">
	<ele>2826.40</ele>
	<time>2023-08-09T06:54:15.000Z</time>
</trkpt>
<trkpt lat="46.1594860" lon="10.4577420">
	<ele>2826.40</ele>
	<time>2023-08-09T06:54:16.000Z</time>
</trkpt>
<trkpt lat="46.1594860" lon="10.4577420">
	<ele>2826.40</ele>
	<time>2023-08-09T06:54:17.000Z</time>
</trkpt>
<trkpt lat="46.1594860" lon="10.4577420">
	<ele>2826.40</ele>
	<time>2023-08-09T06:54:18.000Z</time>
</trkpt>
<trkpt lat="46.1594860" lon="10.4577420">
	<ele>2826.40</ele>
	<time>2023-08-09T06:54:19.000Z</time>
</trkpt>
<trkpt lat="46.1594860" lon="10.4577420">
	<ele>2826.40</ele>
	<time>2023-08-09T06:54:20.000Z</time>
</trkpt>
<trkpt lat="46.1594860" lon="10.4577420">
	<ele>2826.40</ele>
	<time>2023-08-09T06:54:21.000Z</time>
</trkpt>
<trkpt lat="46.1594860" lon="10.4577420">
	<ele>2826.40</ele>
	<time>2023-08-09T06:54:22.000Z</time>
</trkpt>
<trkpt lat="46.1594860" lon="10.4577420">
	<ele>2826.40</ele>
	<time>2023-08-09T06:54:23.000Z</time>
</trkpt>
<trkpt lat="46.1594860" lon="10.4577420">
	<ele>2826.40</ele>
	<time>2023-08-09T06:54:24.000Z</time>
</trkpt>
<trkpt lat="46.1594860" lon="10.4577420">
	<ele>2826.40</ele>
	<time>2023-08-09T06:54:25.000Z</time>
</trkpt>
<trkpt lat="46.1594860" lon="10.4577420">
	<ele>2826.40</ele>
	<time>2023-08-09T06:54:26.000Z</time>
</trkpt>
<trkpt lat="46.1594860" lon="10.4577420">
	<ele>2826.40</ele>
	<time>2023-08-09T06:54:27.000Z</time>
</trkpt>
<trkpt lat="46.1594860" lon="10.4577420">
	<ele>2826.40</ele>
	<time>2023-08-09T06:54:28.000Z</time>
</trkpt>
<trkpt lat="46.1594860" lon="10.4577420">
	<ele>2826.40</ele>
	<time>2023-08-09T06:54:29.000Z</time>
</trkpt>
<trkpt lat="46.1594860" lon="10.4577420">
	<ele>2826.40</ele>
	<time>2023-08-09T06:54:30.000Z</time>
</trkpt>
<trkpt lat="46.1594860" lon="10.4577420">
	<ele>2826.40</ele>
	<time>2023-08-09T06:54:31.000Z</time>
</trkpt>
<trkpt lat="46.1594860" lon="10.4577420">
	<ele>2826.40</ele>
	<time>2023-08-09T06:54:32.000Z</time>
</trkpt>
<trkpt lat="46.1594860" lon="10.4577420">
	<ele>2826.40</ele>
	<time>2023-08-09T06:54:33.000Z</time>
</trkpt>
<trkpt lat="46.1594860" lon="10.4577410">
	<ele>2826.40</ele>
	<time>2023-08-09T06:54:34.000Z</time>
</trkpt>
<trkpt lat="46.1594860" lon="10.4577410">
	<ele>2826.40</ele>
	<time>2023-08-09T06:54:35.000Z</time>
</trkpt>
<trkpt lat="46.1594860" lon="10.4577410">
	<ele>2826.40</ele>
	<time>2023-08-09T06:54:36.000Z</time>
</trkpt>
<trkpt lat="46.1594860" lon="10.4577410">
	<ele>2826.40</ele>
	<time>2023-08-09T06:54:37.000Z</time>
</trkpt>
<trkpt lat="46.1594860" lon="10.4577410">
	<ele>2826.40</ele>
	<time>2023-08-09T06:54:38.000Z</time>
</trkpt>
<trkpt lat="46.1594860" lon="10.4577420">
	<ele>2826.40</ele>
	<time>2023-08-09T06:54:39.000Z</time>
</trkpt>
<trkpt lat="46.1594860" lon="10.4577420">
	<ele>2826.40</ele>
	<time>2023-08-09T06:54:40.000Z</time>
</trkpt>
<trkpt lat="46.1594860" lon="10.4577420">
	<ele>2826.40</ele>
	<time>2023-08-09T06:54:41.000Z</time>
</trkpt>
<trkpt lat="46.1594860" lon="10.4577410">
	<ele>2826.40</ele>
	<time>2023-08-09T06:54:42.000Z</time>
</trkpt>
<trkpt lat="46.1594860" lon="10.4577410">
	<ele>2826.40</ele>
	<time>2023-08-09T06:54:43.000Z</time>
</trkpt>
<trkpt lat="46.1594860" lon="10.4577410">
	<ele>2826.40</ele>
	<time>2023-08-09T06:54:44.000Z</time>
</trkpt>
<trkpt lat="46.1594860" lon="10.4577410">
	<ele>2826.40</ele>
	<time>2023-08-09T06:54:45.000Z</time>
</trkpt>
<trkpt lat="46.1594860" lon="10.4577410">
	<ele>2826.40</ele>
	<time>2023-08-09T06:54:46.000Z</time>
</trkpt>
<trkpt lat="46.1594860" lon="10.4577410">
	<ele>2826.40</ele>
	<time>2023-08-09T06:54:47.000Z</time>
</trkpt>
<trkpt lat="46.1594860" lon="10.4577410">
	<ele>2826.40</ele>
	<time>2023-08-09T06:54:48.000Z</time>
</trkpt>
<trkpt lat="46.1594850" lon="10.4577410">
	<ele>2826.40</ele>
	<time>2023-08-09T06:54:49.000Z</time>
</trkpt>
<trkpt lat="46.1594850" lon="10.4577410">
	<ele>2826.40</ele>
	<time>2023-08-09T06:54:50.000Z</time>
</trkpt>
<trkpt lat="46.1594850" lon="10.4577410">
	<ele>2826.40</ele>
	<time>2023-08-09T06:54:51.000Z</time>
</trkpt>
<trkpt lat="46.1594850" lon="10.4577410">
	<ele>2826.40</ele>
	<time>2023-08-09T06:54:52.000Z</time>
</trkpt>
<trkpt lat="46.1594850" lon="10.4577410">
	<ele>2826.40</ele>
	<time>2023-08-09T06:54:53.000Z</time>
</trkpt>
<trkpt lat="46.1594850" lon="10.4577410">
	<ele>2826.40</ele>
	<time>2023-08-09T06:54:54.000Z</time>
</trkpt>
<trkpt lat="46.1594850" lon="10.4577410">
	<ele>2826.40</ele>
	<time>2023-08-09T06:54:55.000Z</time>
</trkpt>
<trkpt lat="46.1594850" lon="10.4577410">
	<ele>2826.40</ele>
	<time>2023-08-09T06:54:56.000Z</time>
</trkpt>
<trkpt lat="46.1594850" lon="10.4577410">
	<ele>2826.40</ele>
	<time>2023-08-09T06:54:57.000Z</time>
</trkpt>
<trkpt lat="46.1594850" lon="10.4577410">
	<ele>2826.40</ele>
	<time>2023-08-09T06:54:58.000Z</time>
</trkpt>
<trkpt lat="46.1594850" lon="10.4577410">
	<ele>2826.40</ele>
	<time>2023-08-09T06:54:59.000Z</time>
</trkpt>
<trkpt lat="46.1594850" lon="10.4577410">
	<ele>2826.40</ele>
	<time>2023-08-09T06:55:00.000Z</time>
</trkpt>
<trkpt lat="46.1594850" lon="10.4577410">
	<ele>2826.40</ele>
	<time>2023-08-09T06:55:01.000Z</time>
</trkpt>
<trkpt lat="46.1594850" lon="10.4577410">
	<ele>2826.40</ele>
	<time>2023-08-09T06:55:02.000Z</time>
</trkpt>
<trkpt lat="46.1594850" lon="10.4577410">
	<ele>2826.40</ele>
	<time>2023-08-09T06:55:03.000Z</time>
</trkpt>
<trkpt lat="46.1594850" lon="10.4577410">
	<ele>2826.40</ele>
	<time>2023-08-09T06:55:04.000Z</time>
</trkpt>
<trkpt lat="46.1594850" lon="10.4577410">
	<ele>2826.40</ele>
	<time>2023-08-09T06:55:05.000Z</time>
</trkpt>
<trkpt lat="46.1594850" lon="10.4577410">
	<ele>2826.40</ele>
	<time>2023-08-09T06:55:06.000Z</time>
</trkpt>
<trkpt lat="46.1594850" lon="10.4577410">
	<ele>2826.40</ele>
	<time>2023-08-09T06:55:07.000Z</time>
</trkpt>
<trkpt lat="46.1594850" lon="10.4577410">
	<ele>2826.40</ele>
	<time>2023-08-09T06:55:08.000Z</time>
</trkpt>
<trkpt lat="46.1594850" lon="10.4577410">
	<ele>2826.40</ele>
	<time>2023-08-09T06:55:09.000Z</time>
</trkpt>
<trkpt lat="46.1594850" lon="10.4577410">
	<ele>2826.40</ele>
	<time>2023-08-09T06:55:10.000Z</time>
</trkpt>
<trkpt lat="46.1594850" lon="10.4577410">
	<ele>2826.40</ele>
	<time>2023-08-09T06:55:11.000Z</time>
</trkpt>
<trkpt lat="46.1594850" lon="10.4577410">
	<ele>2826.40</ele>
	<time>2023-08-09T06:55:12.000Z</time>
</trkpt>
<trkpt lat="46.1594850" lon="10.4577410">
	<ele>2826.40</ele>
	<time>2023-08-09T06:55:13.000Z</time>
</trkpt>
<trkpt lat="46.1594850" lon="10.4577410">
	<ele>2826.40</ele>
	<time>2023-08-09T06:55:14.000Z</time>
</trkpt>
<trkpt lat="46.1594850" lon="10.4577410">
	<ele>2826.40</ele>
	<time>2023-08-09T06:55:15.000Z</time>
</trkpt>
<trkpt lat="46.1594850" lon="10.4577410">
	<ele>2826.40</ele>
	<time>2023-08-09T06:55:16.000Z</time>
</trkpt>
<trkpt lat="46.1594850" lon="10.4577410">
	<ele>2826.40</ele>
	<time>2023-08-09T06:55:17.000Z</time>
</trkpt>
<trkpt lat="46.1594850" lon="10.4577410">
	<ele>2826.40</ele>
	<time>2023-08-09T06:55:18.000Z</time>
</trkpt>
<trkpt lat="46.1594850" lon="10.4577410">
	<ele>2826.40</ele>
	<time>2023-08-09T06:55:19.000Z</time>
</trkpt>
<trkpt lat="46.1594850" lon="10.4577410">
	<ele>2826.40</ele>
	<time>2023-08-09T06:55:20.000Z</time>
</trkpt>
<trkpt lat="46.1594850" lon="10.4577410">
	<ele>2826.40</ele>
	<time>2023-08-09T06:55:21.000Z</time>
</trkpt>
<trkpt lat="46.1594850" lon="10.4577410">
	<ele>2826.40</ele>
	<time>2023-08-09T06:55:22.000Z</time>
</trkpt>
<trkpt lat="46.1594850" lon="10.4577410">
	<ele>2826.40</ele>
	<time>2023-08-09T06:55:23.000Z</time>
</trkpt>
<trkpt lat="46.1594850" lon="10.4577410">
	<ele>2826.40</ele>
	<time>2023-08-09T06:55:24.000Z</time>
</trkpt>
<trkpt lat="46.1594850" lon="10.4577410">
	<ele>2826.40</ele>
	<time>2023-08-09T06:55:25.000Z</time>
</trkpt>
<trkpt lat="46.1594850" lon="10.4577410">
	<ele>2826.40</ele>
	<time>2023-08-09T06:55:26.000Z</time>
</trkpt>
<trkpt lat="46.1594850" lon="10.4577410">
	<ele>2826.40</ele>
	<time>2023-08-09T06:55:27.000Z</time>
</trkpt>
<trkpt lat="46.1594850" lon="10.4577410">
	<ele>2826.40</ele>
	<time>2023-08-09T06:55:28.000Z</time>
</trkpt>
<trkpt lat="46.1594850" lon="10.4577410">
	<ele>2826.40</ele>
	<time>2023-08-09T06:55:29.000Z</time>
</trkpt>
<trkpt lat="46.1594850" lon="10.4577410">
	<ele>2826.40</ele>
	<time>2023-08-09T06:55:30.000Z</time>
</trkpt>
<trkpt lat="46.1594850" lon="10.4577410">
	<ele>2826.40</ele>
	<time>2023-08-09T06:55:31.000Z</time>
</trkpt>
<trkpt lat="46.1594850" lon="10.4577410">
	<ele>2826.40</ele>
	<time>2023-08-09T06:55:32.000Z</time>
</trkpt>
<trkpt lat="46.1594840" lon="10.4577410">
	<ele>2826.40</ele>
	<time>2023-08-09T06:55:33.000Z</time>
</trkpt>
<trkpt lat="46.1594840" lon="10.4577410">
	<ele>2826.40</ele>
	<time>2023-08-09T06:55:34.000Z</time>
</trkpt>
<trkpt lat="46.1594840" lon="10.4577410">
	<ele>2826.40</ele>
	<time>2023-08-09T06:55:35.000Z</time>
</trkpt>
<trkpt lat="46.1594840" lon="10.4577400">
	<ele>2826.40</ele>
	<time>2023-08-09T06:55:36.000Z</time>
</trkpt>
<trkpt lat="46.1594840" lon="10.4577400">
	<ele>2826.40</ele>
	<time>2023-08-09T06:55:37.000Z</time>
</trkpt>
<trkpt lat="46.1594840" lon="10.4577400">
	<ele>2826.40</ele>
	<time>2023-08-09T06:55:38.000Z</time>
</trkpt>
<trkpt lat="46.1594840" lon="10.4577400">
	<ele>2826.40</ele>
	<time>2023-08-09T06:55:39.000Z</time>
</trkpt>
<trkpt lat="46.1594840" lon="10.4577400">
	<ele>2826.40</ele>
	<time>2023-08-09T06:55:40.000Z</time>
</trkpt>
<trkpt lat="46.1594840" lon="10.4577400">
	<ele>2826.40</ele>
	<time>2023-08-09T06:55:41.000Z</time>
</trkpt>
<trkpt lat="46.1594840" lon="10.4577400">
	<ele>2826.40</ele>
	<time>2023-08-09T06:55:42.000Z</time>
</trkpt>
<trkpt lat="46.1594840" lon="10.4577400">
	<ele>2826.40</ele>
	<time>2023-08-09T06:55:43.000Z</time>
</trkpt>
<trkpt lat="46.1594840" lon="10.4577400">
	<ele>2826.40</ele>
	<time>2023-08-09T06:55:44.000Z</time>
</trkpt>
<trkpt lat="46.1594840" lon="10.4577400">
	<ele>2826.40</ele>
	<time>2023-08-09T06:55:45.000Z</time>
</trkpt>
<trkpt lat="46.1594840" lon="10.4577400">
	<ele>2826.40</ele>
	<time>2023-08-09T06:55:46.000Z</time>
</trkpt>
<trkpt lat="46.1594840" lon="10.4577400">
	<ele>2826.40</ele>
	<time>2023-08-09T06:55:47.000Z</time>
</trkpt>
<trkpt lat="46.1594840" lon="10.4577400">
	<ele>2826.40</ele>
	<time>2023-08-09T06:55:48.000Z</time>
</trkpt>
<trkpt lat="46.1594840" lon="10.4577400">
	<ele>2826.40</ele>
	<time>2023-08-09T06:55:49.000Z</time>
</trkpt>
<trkpt lat="46.1594840" lon="10.4577400">
	<ele>2826.40</ele>
	<time>2023-08-09T06:55:50.000Z</time>
</trkpt>
<trkpt lat="46.1594840" lon="10.4577400">
	<ele>2826.40</ele>
	<time>2023-08-09T06:55:51.000Z</time>
</trkpt>
<trkpt lat="46.1594840" lon="10.4577400">
	<ele>2826.40</ele>
	<time>2023-08-09T06:55:52.000Z</time>
</trkpt>
<trkpt lat="46.1594840" lon="10.4577400">
	<ele>2826.40</ele>
	<time>2023-08-09T06:55:53.000Z</time>
</trkpt>
<trkpt lat="46.1594840" lon="10.4577400">
	<ele>2826.40</ele>
	<time>2023-08-09T06:55:54.000Z</time>
</trkpt>
<trkpt lat="46.1594840" lon="10.4577400">
	<ele>2826.40</ele>
	<time>2023-08-09T06:55:55.000Z</time>
</trkpt>
<trkpt lat="46.1594840" lon="10.4577400">
	<ele>2826.40</ele>
	<time>2023-08-09T06:55:56.000Z</time>
</trkpt>
<trkpt lat="46.1594840" lon="10.4577400">
	<ele>2826.40</ele>
	<time>2023-08-09T06:55:57.000Z</time>
</trkpt>
<trkpt lat="46.1594840" lon="10.4577400">
	<ele>2826.40</ele>
	<time>2023-08-09T06:55:58.000Z</time>
</trkpt>
<trkpt lat="46.1594840" lon="10.4577400">
	<ele>2826.40</ele>
	<time>2023-08-09T06:55:59.000Z</time>
</trkpt>
<trkpt lat="46.1594840" lon="10.4577400">
	<ele>2826.40</ele>
	<time>2023-08-09T06:56:00.000Z</time>
</trkpt>
<trkpt lat="46.1594840" lon="10.4577400">
	<ele>2826.40</ele>
	<time>2023-08-09T06:56:01.000Z</time>
</trkpt>
<trkpt lat="46.1594840" lon="10.4577400">
	<ele>2826.40</ele>
	<time>2023-08-09T06:56:02.000Z</time>
</trkpt>
<trkpt lat="46.1594840" lon="10.4577400">
	<ele>2826.40</ele>
	<time>2023-08-09T06:56:03.000Z</time>
</trkpt>
<trkpt lat="46.1594840" lon="10.4577400">
	<ele>2826.40</ele>
	<time>2023-08-09T06:56:04.000Z</time>
</trkpt>
<trkpt lat="46.1594840" lon="10.4577400">
	<ele>2826.40</ele>
	<time>2023-08-09T06:56:05.000Z</time>
</trkpt>
<trkpt lat="46.1594830" lon="10.4577400">
	<ele>2826.40</ele>
	<time>2023-08-09T06:56:06.000Z</time>
</trkpt>
<trkpt lat="46.1594830" lon="10.4577400">
	<ele>2826.40</ele>
	<time>2023-08-09T06:56:07.000Z</time>
</trkpt>
<trkpt lat="46.1594830" lon="10.4577400">
	<ele>2826.40</ele>
	<time>2023-08-09T06:56:08.000Z</time>
</trkpt>
<trkpt lat="46.1594830" lon="10.4577400">
	<ele>2826.40</ele>
	<time>2023-08-09T06:56:09.000Z</time>
</trkpt>
<trkpt lat="46.1594830" lon="10.4577400">
	<ele>2826.40</ele>
	<time>2023-08-09T06:56:10.000Z</time>
</trkpt>
<trkpt lat="46.1594830" lon="10.4577400">
	<ele>2826.40</ele>
	<time>2023-08-09T06:56:11.000Z</time>
</trkpt>
<trkpt lat="46.1594830" lon="10.4577400">
	<ele>2826.40</ele>
	<time>2023-08-09T06:56:12.000Z</time>
</trkpt>
<trkpt lat="46.1594830" lon="10.4577400">
	<ele>2826.40</ele>
	<time>2023-08-09T06:56:13.000Z</time>
</trkpt>
<trkpt lat="46.1594830" lon="10.4577400">
	<ele>2826.40</ele>
	<time>2023-08-09T06:56:14.000Z</time>
</trkpt>
<trkpt lat="46.1594830" lon="10.4577400">
	<ele>2826.40</ele>
	<time>2023-08-09T06:56:15.000Z</time>
</trkpt>
<trkpt lat="46.1594830" lon="10.4577400">
	<ele>2826.40</ele>
	<time>2023-08-09T06:56:16.000Z</time>
</trkpt>
<trkpt lat="46.1594830" lon="10.4577400">
	<ele>2826.40</ele>
	<time>2023-08-09T06:56:17.000Z</time>
</trkpt>
<trkpt lat="46.1594830" lon="10.4577400">
	<ele>2826.40</ele>
	<time>2023-08-09T06:56:18.000Z</time>
</trkpt>
<trkpt lat="46.1594830" lon="10.4577400">
	<ele>2826.40</ele>
	<time>2023-08-09T06:56:19.000Z</time>
</trkpt>
<trkpt lat="46.1594830" lon="10.4577400">
	<ele>2826.40</ele>
	<time>2023-08-09T06:56:20.000Z</time>
</trkpt>
<trkpt lat="46.1594830" lon="10.4577400">
	<ele>2826.40</ele>
	<time>2023-08-09T06:56:21.000Z</time>
</trkpt>
<trkpt lat="46.1594830" lon="10.4577400">
	<ele>2826.40</ele>
	<time>2023-08-09T06:56:22.000Z</time>
</trkpt>
<trkpt lat="46.1594830" lon="10.4577400">
	<ele>2826.40</ele>
	<time>2023-08-09T06:56:23.000Z</time>
</trkpt>
<trkpt lat="46.1594830" lon="10.4577400">
	<ele>2826.40</ele>
	<time>2023-08-09T06:56:24.000Z</time>
</trkpt>
<trkpt lat="46.1594830" lon="10.4577400">
	<ele>2826.40</ele>
	<time>2023-08-09T06:56:25.000Z</time>
</trkpt>
<trkpt lat="46.1594830" lon="10.4577400">
	<ele>2826.40</ele>
	<time>2023-08-09T06:56:26.000Z</time>
</trkpt>
<trkpt lat="46.1594830" lon="10.4577400">
	<ele>2826.40</ele>
	<time>2023-08-09T06:56:27.000Z</time>
</trkpt>
<trkpt lat="46.1594830" lon="10.4577400">
	<ele>2826.40</ele>
	<time>2023-08-09T06:56:28.000Z</time>
</trkpt>
<trkpt lat="46.1594830" lon="10.4577400">
	<ele>2826.40</ele>
	<time>2023-08-09T06:56:29.000Z</time>
</trkpt>
<trkpt lat="46.1594830" lon="10.4577400">
	<ele>2826.40</ele>
	<time>2023-08-09T06:56:30.000Z</time>
</trkpt>
<trkpt lat="46.1594830" lon="10.4577400">
	<ele>2826.40</ele>
	<time>2023-08-09T06:56:31.000Z</time>
</trkpt>
<trkpt lat="46.1594830" lon="10.4577400">
	<ele>2826.40</ele>
	<time>2023-08-09T06:56:32.000Z</time>
</trkpt>
<trkpt lat="46.1594830" lon="10.4577400">
	<ele>2826.40</ele>
	<time>2023-08-09T06:56:33.000Z</time>
</trkpt>
<trkpt lat="46.1594830" lon="10.4577400">
	<ele>2826.40</ele>
	<time>2023-08-09T06:56:34.000Z</time>
</trkpt>
<trkpt lat="46.1594830" lon="10.4577400">
	<ele>2826.40</ele>
	<time>2023-08-09T06:56:35.000Z</time>
</trkpt>
<trkpt lat="46.1594830" lon="10.4577400">
	<ele>2826.40</ele>
	<time>2023-08-09T06:56:36.000Z</time>
</trkpt>
<trkpt lat="46.1594830" lon="10.4577400">
	<ele>2826.40</ele>
	<time>2023-08-09T06:56:37.000Z</time>
</trkpt>
<trkpt lat="46.1594830" lon="10.4577400">
	<ele>2826.40</ele>
	<time>2023-08-09T06:56:38.000Z</time>
</trkpt>
<trkpt lat="46.1594830" lon="10.4577400">
	<ele>2826.40</ele>
	<time>2023-08-09T06:56:39.000Z</time>
</trkpt>
<trkpt lat="46.1594830" lon="10.4577400">
	<ele>2826.40</ele>
	<time>2023-08-09T06:56:40.000Z</time>
</trkpt>
<trkpt lat="46.1594830" lon="10.4577400">
	<ele>2826.40</ele>
	<time>2023-08-09T06:56:41.000Z</time>
</trkpt>
<trkpt lat="46.1594830" lon="10.4577400">
	<ele>2826.40</ele>
	<time>2023-08-09T06:56:42.000Z</time>
</trkpt>
<trkpt lat="46.1594830" lon="10.4577400">
	<ele>2826.40</ele>
	<time>2023-08-09T06:56:43.000Z</time>
</trkpt>
<trkpt lat="46.1594830" lon="10.4577400">
	<ele>2826.40</ele>
	<time>2023-08-09T06:56:44.000Z</time>
</trkpt>
<trkpt lat="46.1594830" lon="10.4577400">
	<ele>2826.40</ele>
	<time>2023-08-09T06:56:45.000Z</time>
</trkpt>
<trkpt lat="46.1594830" lon="10.4577400">
	<ele>2826.40</ele>
	<time>2023-08-09T06:56:46.000Z</time>
</trkpt>
<trkpt lat="46.1594830" lon="10.4577400">
	<ele>2826.40</ele>
	<time>2023-08-09T06:56:47.000Z</time>
</trkpt>
<trkpt lat="46.1594830" lon="10.4577400">
	<ele>2826.40</ele>
	<time>2023-08-09T06:56:48.000Z</time>
</trkpt>
<trkpt lat="46.1594830" lon="10.4577400">
	<ele>2826.40</ele>
	<time>2023-08-09T06:56:49.000Z</time>
</trkpt>
<trkpt lat="46.1594830" lon="10.4577400">
	<ele>2826.40</ele>
	<time>2023-08-09T06:56:50.000Z</time>
</trkpt>
<trkpt lat="46.1594830" lon="10.4577400">
	<ele>2826.40</ele>
	<time>2023-08-09T06:56:51.000Z</time>
</trkpt>
<trkpt lat="46.1594830" lon="10.4577400">
	<ele>2826.40</ele>
	<time>2023-08-09T06:56:52.000Z</time>
</trkpt>
<trkpt lat="46.1594830" lon="10.4577400">
	<ele>2826.40</ele>
	<time>2023-08-09T06:56:53.000Z</time>
</trkpt>
<trkpt lat="46.1594830" lon="10.4577390">
	<ele>2826.40</ele>
	<time>2023-08-09T06:56:54.000Z</time>
</trkpt>
<trkpt lat="46.1594830" lon="10.4577390">
	<ele>2826.40</ele>
	<time>2023-08-09T06:56:55.000Z</time>
</trkpt>
<trkpt lat="46.1594830" lon="10.4577390">
	<ele>2826.40</ele>
	<time>2023-08-09T06:56:56.000Z</time>
</trkpt>
<trkpt lat="46.1594830" lon="10.4577390">
	<ele>2826.40</ele>
	<time>2023-08-09T06:56:57.000Z</time>
</trkpt>
<trkpt lat="46.1594830" lon="10.4577390">
	<ele>2826.40</ele>
	<time>2023-08-09T06:56:58.000Z</time>
</trkpt>
<trkpt lat="46.1594830" lon="10.4577390">
	<ele>2826.40</ele>
	<time>2023-08-09T06:56:59.000Z</time>
</trkpt>
<trkpt lat="46.1594830" lon="10.4577390">
	<ele>2826.40</ele>
	<time>2023-08-09T06:57:00.000Z</time>
</trkpt>
<trkpt lat="46.1594830" lon="10.4577390">
	<ele>2826.40</ele>
	<time>2023-08-09T06:57:01.000Z</time>
</trkpt>
<trkpt lat="46.1594830" lon="10.4577390">
	<ele>2826.40</ele>
	<time>2023-08-09T06:57:02.000Z</time>
</trkpt>
<trkpt lat="46.1594830" lon="10.4577390">
	<ele>2826.40</ele>
	<time>2023-08-09T06:57:03.000Z</time>
</trkpt>
<trkpt lat="46.1594830" lon="10.4577390">
	<ele>2826.40</ele>
	<time>2023-08-09T06:57:04.000Z</time>
</trkpt>
<trkpt lat="46.1594830" lon="10.4577390">
	<ele>2826.40</ele>
	<time>2023-08-09T06:57:05.000Z</time>
</trkpt>
<trkpt lat="46.1594830" lon="10.4577390">
	<ele>2826.40</ele>
	<time>2023-08-09T06:57:06.000Z</time>
</trkpt>
<trkpt lat="46.1594830" lon="10.4577390">
	<ele>2826.40</ele>
	<time>2023-08-09T06:57:07.000Z</time>
</trkpt>
<trkpt lat="46.1594830" lon="10.4577390">
	<ele>2826.40</ele>
	<time>2023-08-09T06:57:08.000Z</time>
</trkpt>
<trkpt lat="46.1594830" lon="10.4577390">
	<ele>2826.40</ele>
	<time>2023-08-09T06:57:09.000Z</time>
</trkpt>
<trkpt lat="46.1594830" lon="10.4577390">
	<ele>2826.40</ele>
	<time>2023-08-09T06:57:10.000Z</time>
</trkpt>
<trkpt lat="46.1594830" lon="10.4577390">
	<ele>2826.40</ele>
	<time>2023-08-09T06:57:11.000Z</time>
</trkpt>
<trkpt lat="46.1594830" lon="10.4577390">
	<ele>2826.40</ele>
	<time>2023-08-09T06:57:12.000Z</time>
</trkpt>
<trkpt lat="46.1594830" lon="10.4577390">
	<ele>2826.40</ele>
	<time>2023-08-09T06:57:13.000Z</time>
</trkpt>
<trkpt lat="46.1594830" lon="10.4577390">
	<ele>2826.40</ele>
	<time>2023-08-09T06:57:14.000Z</time>
</trkpt>
<trkpt lat="46.1594830" lon="10.4577390">
	<ele>2826.40</ele>
	<time>2023-08-09T06:57:15.000Z</time>
</trkpt>
<trkpt lat="46.1594830" lon="10.4577390">
	<ele>2826.40</ele>
	<time>2023-08-09T06:57:16.000Z</time>
</trkpt>
<trkpt lat="46.1594830" lon="10.4577390">
	<ele>2826.40</ele>
	<time>2023-08-09T06:57:17.000Z</time>
</trkpt>
<trkpt lat="46.1594830" lon="10.4577390">
	<ele>2826.40</ele>
	<time>2023-08-09T06:57:18.000Z</time>
</trkpt>
<trkpt lat="46.1594830" lon="10.4577390">
	<ele>2826.40</ele>
	<time>2023-08-09T06:57:19.000Z</time>
</trkpt>
<trkpt lat="46.1594830" lon="10.4577390">
	<ele>2826.40</ele>
	<time>2023-08-09T06:57:20.000Z</time>
</trkpt>
<trkpt lat="46.1594830" lon="10.4577390">
	<ele>2826.40</ele>
	<time>2023-08-09T06:57:21.000Z</time>
</trkpt>
<trkpt lat="46.1594830" lon="10.4577380">
	<ele>2826.40</ele>
	<time>2023-08-09T06:57:22.000Z</time>
</trkpt>
<trkpt lat="46.1594830" lon="10.4577380">
	<ele>2826.40</ele>
	<time>2023-08-09T06:57:23.000Z</time>
</trkpt>
<trkpt lat="46.1594830" lon="10.4577380">
	<ele>2826.40</ele>
	<time>2023-08-09T06:57:24.000Z</time>
</trkpt>
<trkpt lat="46.1594830" lon="10.4577380">
	<ele>2826.40</ele>
	<time>2023-08-09T06:57:25.000Z</time>
</trkpt>
<trkpt lat="46.1594830" lon="10.4577380">
	<ele>2826.40</ele>
	<time>2023-08-09T06:57:26.000Z</time>
</trkpt>
<trkpt lat="46.1594830" lon="10.4577380">
	<ele>2826.40</ele>
	<time>2023-08-09T06:57:27.000Z</time>
</trkpt>
<trkpt lat="46.1594830" lon="10.4577380">
	<ele>2826.40</ele>
	<time>2023-08-09T06:57:28.000Z</time>
</trkpt>
<trkpt lat="46.1594830" lon="10.4577380">
	<ele>2826.40</ele>
	<time>2023-08-09T06:57:29.000Z</time>
</trkpt>
<trkpt lat="46.1594830" lon="10.4577380">
	<ele>2826.40</ele>
	<time>2023-08-09T06:57:30.000Z</time>
</trkpt>
<trkpt lat="46.1594830" lon="10.4577380">
	<ele>2826.40</ele>
	<time>2023-08-09T06:57:31.000Z</time>
</trkpt>
<trkpt lat="46.1594830" lon="10.4577380">
	<ele>2826.40</ele>
	<time>2023-08-09T06:57:32.000Z</time>
</trkpt>
<trkpt lat="46.1594830" lon="10.4577380">
	<ele>2826.40</ele>
	<time>2023-08-09T06:57:33.000Z</time>
</trkpt>
<trkpt lat="46.1594830" lon="10.4577380">
	<ele>2826.40</ele>
	<time>2023-08-09T06:57:34.000Z</time>
</trkpt>
<trkpt lat="46.1594830" lon="10.4577380">
	<ele>2826.40</ele>
	<time>2023-08-09T06:57:35.000Z</time>
</trkpt>
<trkpt lat="46.1594830" lon="10.4577380">
	<ele>2826.40</ele>
	<time>2023-08-09T06:57:36.000Z</time>
</trkpt>
<trkpt lat="46.1594830" lon="10.4577370">
	<ele>2826.40</ele>
	<time>2023-08-09T06:57:37.000Z</time>
</trkpt>
<trkpt lat="46.1594830" lon="10.4577370">
	<ele>2826.40</ele>
	<time>2023-08-09T06:57:38.000Z</time>
</trkpt>
<trkpt lat="46.1594830" lon="10.4577370">
	<ele>2826.40</ele>
	<time>2023-08-09T06:57:39.000Z</time>
</trkpt>
<trkpt lat="46.1594830" lon="10.4577370">
	<ele>2826.40</ele>
	<time>2023-08-09T06:57:40.000Z</time>
</trkpt>
<trkpt lat="46.1594830" lon="10.4577370">
	<ele>2826.40</ele>
	<time>2023-08-09T06:57:41.000Z</time>
</trkpt>
<trkpt lat="46.1594830" lon="10.4577370">
	<ele>2826.40</ele>
	<time>2023-08-09T06:57:42.000Z</time>
</trkpt>
<trkpt lat="46.1594830" lon="10.4577370">
	<ele>2826.40</ele>
	<time>2023-08-09T06:57:43.000Z</time>
</trkpt>
<trkpt lat="46.1594830" lon="10.4577370">
	<ele>2826.40</ele>
	<time>2023-08-09T06:57:44.000Z</time>
</trkpt>
<trkpt lat="46.1594830" lon="10.4577370">
	<ele>2826.40</ele>
	<time>2023-08-09T06:57:45.000Z</time>
</trkpt>
<trkpt lat="46.1594830" lon="10.4577370">
	<ele>2826.40</ele>
	<time>2023-08-09T06:57:46.000Z</time>
</trkpt>
<trkpt lat="46.1594830" lon="10.4577370">
	<ele>2826.40</ele>
	<time>2023-08-09T06:57:47.000Z</time>
</trkpt>
<trkpt lat="46.1594830" lon="10.4577370">
	<ele>2826.40</ele>
	<time>2023-08-09T06:57:48.000Z</time>
</trkpt>
<trkpt lat="46.1594830" lon="10.4577370">
	<ele>2826.40</ele>
	<time>2023-08-09T06:57:49.000Z</time>
</trkpt>
<trkpt lat="46.1594830" lon="10.4577370">
	<ele>2826.40</ele>
	<time>2023-08-09T06:57:50.000Z</time>
</trkpt>
<trkpt lat="46.1594830" lon="10.4577360">
	<ele>2826.40</ele>
	<time>2023-08-09T06:57:51.000Z</time>
</trkpt>
<trkpt lat="46.1594830" lon="10.4577360">
	<ele>2826.40</ele>
	<time>2023-08-09T06:57:52.000Z</time>
</trkpt>
<trkpt lat="46.1594830" lon="10.4577360">
	<ele>2826.40</ele>
	<time>2023-08-09T06:57:53.000Z</time>
</trkpt>
<trkpt lat="46.1594830" lon="10.4577360">
	<ele>2826.40</ele>
	<time>2023-08-09T06:57:54.000Z</time>
</trkpt>
<trkpt lat="46.1594830" lon="10.4577360">
	<ele>2826.40</ele>
	<time>2023-08-09T06:57:55.000Z</time>
</trkpt>
<trkpt lat="46.1594830" lon="10.4577360">
	<ele>2826.40</ele>
	<time>2023-08-09T06:57:56.000Z</time>
</trkpt>
<trkpt lat="46.1594830" lon="10.4577360">
	<ele>2826.40</ele>
	<time>2023-08-09T06:57:57.000Z</time>
</trkpt>
<trkpt lat="46.1594830" lon="10.4577360">
	<ele>2826.40</ele>
	<time>2023-08-09T06:57:58.000Z</time>
</trkpt>
<trkpt lat="46.1594830" lon="10.4577360">
	<ele>2826.40</ele>
	<time>2023-08-09T06:57:59.000Z</time>
</trkpt>
<trkpt lat="46.1594830" lon="10.4577360">
	<ele>2826.40</ele>
	<time>2023-08-09T06:58:00.000Z</time>
</trkpt>
<trkpt lat="46.1594830" lon="10.4577360">
	<ele>2826.40</ele>
	<time>2023-08-09T06:58:01.000Z</time>
</trkpt>
<trkpt lat="46.1594830" lon="10.4577360">
	<ele>2826.40</ele>
	<time>2023-08-09T06:58:02.000Z</time>
</trkpt>
<trkpt lat="46.1594830" lon="10.4577360">
	<ele>2826.40</ele>
	<time>2023-08-09T06:58:03.000Z</time>
</trkpt>
<trkpt lat="46.1594830" lon="10.4577360">
	<ele>2826.40</ele>
	<time>2023-08-09T06:58:04.000Z</time>
</trkpt>
<trkpt lat="46.1594830" lon="10.4577350">
	<ele>2826.40</ele>
	<time>2023-08-09T06:58:05.000Z</time>
</trkpt>
<trkpt lat="46.1594830" lon="10.4577350">
	<ele>2826.40</ele>
	<time>2023-08-09T06:58:06.000Z</time>
</trkpt>
<trkpt lat="46.1594830" lon="10.4577350">
	<ele>2826.40</ele>
	<time>2023-08-09T06:58:07.000Z</time>
</trkpt>
<trkpt lat="46.1594830" lon="10.4577350">
	<ele>2826.40</ele>
	<time>2023-08-09T06:58:08.000Z</time>
</trkpt>
<trkpt lat="46.1594830" lon="10.4577350">
	<ele>2826.40</ele>
	<time>2023-08-09T06:58:09.000Z</time>
</trkpt>
<trkpt lat="46.1594830" lon="10.4577350">
	<ele>2826.40</ele>
	<time>2023-08-09T06:58:10.000Z</time>
</trkpt>
<trkpt lat="46.1594830" lon="10.4577350">
	<ele>2826.40</ele>
	<time>2023-08-09T06:58:11.000Z</time>
</trkpt>
<trkpt lat="46.1594830" lon="10.4577350">
	<ele>2826.40</ele>
	<time>2023-08-09T06:58:12.000Z</time>
</trkpt>
<trkpt lat="46.1594830" lon="10.4577350">
	<ele>2826.40</ele>
	<time>2023-08-09T06:58:13.000Z</time>
</trkpt>
<trkpt lat="46.1594830" lon="10.4577350">
	<ele>2826.40</ele>
	<time>2023-08-09T06:58:14.000Z</time>
</trkpt>
<trkpt lat="46.1594830" lon="10.4577350">
	<ele>2826.40</ele>
	<time>2023-08-09T06:58:15.000Z</time>
</trkpt>
<trkpt lat="46.1594830" lon="10.4577350">
	<ele>2826.40</ele>
	<time>2023-08-09T06:58:16.000Z</time>
</trkpt>
<trkpt lat="46.1594830" lon="10.4577350">
	<ele>2826.40</ele>
	<time>2023-08-09T06:58:17.000Z</time>
</trkpt>
<trkpt lat="46.1594830" lon="10.4577340">
	<ele>2826.40</ele>
	<time>2023-08-09T06:58:18.000Z</time>
</trkpt>
<trkpt lat="46.1594830" lon="10.4577340">
	<ele>2826.40</ele>
	<time>2023-08-09T06:58:19.000Z</time>
</trkpt>
<trkpt lat="46.1594830" lon="10.4577340">
	<ele>2826.40</ele>
	<time>2023-08-09T06:58:20.000Z</time>
</trkpt>
<trkpt lat="46.1594830" lon="10.4577340">
	<ele>2826.40</ele>
	<time>2023-08-09T06:58:21.000Z</time>
</trkpt>
<trkpt lat="46.1594830" lon="10.4577340">
	<ele>2826.40</ele>
	<time>2023-08-09T06:58:22.000Z</time>
</trkpt>
<trkpt lat="46.1594830" lon="10.4577340">
	<ele>2826.40</ele>
	<time>2023-08-09T06:58:23.000Z</time>
</trkpt>
<trkpt lat="46.1594830" lon="10.4577340">
	<ele>2826.40</ele>
	<time>2023-08-09T06:58:24.000Z</time>
</trkpt>
<trkpt lat="46.1594830" lon="10.4577340">
	<ele>2826.40</ele>
	<time>2023-08-09T06:58:25.000Z</time>
</trkpt>
<trkpt lat="46.1594830" lon="10.4577340">
	<ele>2826.40</ele>
	<time>2023-08-09T06:58:26.000Z</time>
</trkpt>
<trkpt lat="46.1594830" lon="10.4577340">
	<ele>2826.40</ele>
	<time>2023-08-09T06:58:27.000Z</time>
</trkpt>
<trkpt lat="46.1594830" lon="10.4577340">
	<ele>2826.40</ele>
	<time>2023-08-09T06:58:28.000Z</time>
</trkpt>
<trkpt lat="46.1594830" lon="10.4577340">
	<ele>2826.40</ele>
	<time>2023-08-09T06:58:29.000Z</time>
</trkpt>
<trkpt lat="46.1594830" lon="10.4577330">
	<ele>2826.40</ele>
	<time>2023-08-09T06:58:30.000Z</time>
</trkpt>
<trkpt lat="46.1594830" lon="10.4577330">
	<ele>2826.40</ele>
	<time>2023-08-09T06:58:31.000Z</time>
</trkpt>
<trkpt lat="46.1594830" lon="10.4577330">
	<ele>2826.40</ele>
	<time>2023-08-09T06:58:32.000Z</time>
</trkpt>
<trkpt lat="46.1594830" lon="10.4577330">
	<ele>2826.40</ele>
	<time>2023-08-09T06:58:33.000Z</time>
</trkpt>
<trkpt lat="46.1594830" lon="10.4577330">
	<ele>2826.40</ele>
	<time>2023-08-09T06:58:34.000Z</time>
</trkpt>
<trkpt lat="46.1594830" lon="10.4577330">
	<ele>2826.40</ele>
	<time>2023-08-09T06:58:35.000Z</time>
</trkpt>
<trkpt lat="46.1594830" lon="10.4577330">
	<ele>2826.40</ele>
	<time>2023-08-09T06:58:36.000Z</time>
</trkpt>
<trkpt lat="46.1594840" lon="10.4577330">
	<ele>2826.40</ele>
	<time>2023-08-09T06:58:37.000Z</time>
</trkpt>
<trkpt lat="46.1594840" lon="10.4577330">
	<ele>2826.40</ele>
	<time>2023-08-09T06:58:38.000Z</time>
</trkpt>
<trkpt lat="46.1594840" lon="10.4577330">
	<ele>2826.40</ele>
	<time>2023-08-09T06:58:39.000Z</time>
</trkpt>
<trkpt lat="46.1594840" lon="10.4577330">
	<ele>2826.40</ele>
	<time>2023-08-09T06:58:40.000Z</time>
</trkpt>
<trkpt lat="46.1594840" lon="10.4577330">
	<ele>2826.40</ele>
	<time>2023-08-09T06:58:41.000Z</time>
</trkpt>
<trkpt lat="46.1594840" lon="10.4577330">
	<ele>2826.40</ele>
	<time>2023-08-09T06:58:42.000Z</time>
</trkpt>
<trkpt lat="46.1594840" lon="10.4577330">
	<ele>2826.40</ele>
	<time>2023-08-09T06:58:43.000Z</time>
</trkpt>
<trkpt lat="46.1594840" lon="10.4577330">
	<ele>2826.40</ele>
	<time>2023-08-09T06:58:44.000Z</time>
</trkpt>
<trkpt lat="46.1594840" lon="10.4577330">
	<ele>2826.40</ele>
	<time>2023-08-09T06:58:45.000Z</time>
</trkpt>
<trkpt lat="46.1594840" lon="10.4577330">
	<ele>2826.40</ele>
	<time>2023-08-09T06:58:46.000Z</time>
</trkpt>
<trkpt lat="46.1594840" lon="10.4577330">
	<ele>2826.40</ele>
	<time>2023-08-09T06:58:47.000Z</time>
</trkpt>
<trkpt lat="46.1594840" lon="10.4577330">
	<ele>2826.40</ele>
	<time>2023-08-09T06:58:48.000Z</time>
</trkpt>
<trkpt lat="46.1594840" lon="10.4577330">
	<ele>2826.40</ele>
	<time>2023-08-09T06:58:49.000Z</time>
</trkpt>
<trkpt lat="46.1594840" lon="10.4577330">
	<ele>2826.40</ele>
	<time>2023-08-09T06:58:50.000Z</time>
</trkpt>
<trkpt lat="46.1594840" lon="10.4577330">
	<ele>2826.40</ele>
	<time>2023-08-09T06:58:51.000Z</time>
</trkpt>
<trkpt lat="46.1594840" lon="10.4577330">
	<ele>2826.40</ele>
	<time>2023-08-09T06:58:52.000Z</time>
</trkpt>
<trkpt lat="46.1594840" lon="10.4577330">
	<ele>2826.40</ele>
	<time>2023-08-09T06:58:53.000Z</time>
</trkpt>
<trkpt lat="46.1594840" lon="10.4577320">
	<ele>2826.40</ele>
	<time>2023-08-09T06:58:54.000Z</time>
</trkpt>
<trkpt lat="46.1594840" lon="10.4577320">
	<ele>2826.40</ele>
	<time>2023-08-09T06:58:55.000Z</time>
</trkpt>
<trkpt lat="46.1594840" lon="10.4577320">
	<ele>2826.40</ele>
	<time>2023-08-09T06:58:56.000Z</time>
</trkpt>
<trkpt lat="46.1594840" lon="10.4577320">
	<ele>2826.40</ele>
	<time>2023-08-09T06:58:57.000Z</time>
</trkpt>
<trkpt lat="46.1594840" lon="10.4577320">
	<ele>2826.40</ele>
	<time>2023-08-09T06:58:58.000Z</time>
</trkpt>
<trkpt lat="46.1594840" lon="10.4577320">
	<ele>2826.40</ele>
	<time>2023-08-09T06:58:59.000Z</time>
</trkpt>
<trkpt lat="46.1594840" lon="10.4577320">
	<ele>2826.40</ele>
	<time>2023-08-09T06:59:00.000Z</time>
</trkpt>
<trkpt lat="46.1594840" lon="10.4577320">
	<ele>2826.40</ele>
	<time>2023-08-09T06:59:01.000Z</time>
</trkpt>
<trkpt lat="46.1594840" lon="10.4577320">
	<ele>2826.40</ele>
	<time>2023-08-09T06:59:02.000Z</time>
</trkpt>
<trkpt lat="46.1594840" lon="10.4577320">
	<ele>2826.40</ele>
	<time>2023-08-09T06:59:03.000Z</time>
</trkpt>
<trkpt lat="46.1594840" lon="10.4577320">
	<ele>2826.40</ele>
	<time>2023-08-09T06:59:04.000Z</time>
</trkpt>
<trkpt lat="46.1594840" lon="10.4577320">
	<ele>2826.40</ele>
	<time>2023-08-09T06:59:05.000Z</time>
</trkpt>
<trkpt lat="46.1594840" lon="10.4577320">
	<ele>2826.40</ele>
	<time>2023-08-09T06:59:06.000Z</time>
</trkpt>
<trkpt lat="46.1594840" lon="10.4577320">
	<ele>2826.40</ele>
	<time>2023-08-09T06:59:07.000Z</time>
</trkpt>
<trkpt lat="46.1594840" lon="10.4577320">
	<ele>2826.40</ele>
	<time>2023-08-09T06:59:08.000Z</time>
</trkpt>
<trkpt lat="46.1594840" lon="10.4577320">
	<ele>2826.40</ele>
	<time>2023-08-09T06:59:09.000Z</time>
</trkpt>
<trkpt lat="46.1594840" lon="10.4577320">
	<ele>2826.40</ele>
	<time>2023-08-09T06:59:10.000Z</time>
</trkpt>
<trkpt lat="46.1594840" lon="10.4577320">
	<ele>2826.40</ele>
	<time>2023-08-09T06:59:11.000Z</time>
</trkpt>
<trkpt lat="46.1594840" lon="10.4577320">
	<ele>2826.40</ele>
	<time>2023-08-09T06:59:12.000Z</time>
</trkpt>
<trkpt lat="46.1594840" lon="10.4577320">
	<ele>2826.40</ele>
	<time>2023-08-09T06:59:13.000Z</time>
</trkpt>
<trkpt lat="46.1594840" lon="10.4577320">
	<ele>2826.40</ele>
	<time>2023-08-09T06:59:14.000Z</time>
</trkpt>
<trkpt lat="46.1594840" lon="10.4577320">
	<ele>2826.40</ele>
	<time>2023-08-09T06:59:15.000Z</time>
</trkpt>
<trkpt lat="46.1594840" lon="10.4577320">
	<ele>2826.40</ele>
	<time>2023-08-09T06:59:16.000Z</time>
</trkpt>
<trkpt lat="46.1594840" lon="10.4577320">
	<ele>2826.40</ele>
	<time>2023-08-09T06:59:17.000Z</time>
</trkpt>
<trkpt lat="46.1594840" lon="10.4577310">
	<ele>2826.40</ele>
	<time>2023-08-09T06:59:18.000Z</time>
</trkpt>
<trkpt lat="46.1594840" lon="10.4577310">
	<ele>2826.40</ele>
	<time>2023-08-09T06:59:19.000Z</time>
</trkpt>
<trkpt lat="46.1594840" lon="10.4577310">
	<ele>2826.40</ele>
	<time>2023-08-09T06:59:20.000Z</time>
</trkpt>
<trkpt lat="46.1594840" lon="10.4577310">
	<ele>2826.40</ele>
	<time>2023-08-09T06:59:21.000Z</time>
</trkpt>
<trkpt lat="46.1594840" lon="10.4577310">
	<ele>2826.40</ele>
	<time>2023-08-09T06:59:22.000Z</time>
</trkpt>
<trkpt lat="46.1594840" lon="10.4577310">
	<ele>2826.40</ele>
	<time>2023-08-09T06:59:23.000Z</time>
</trkpt>
<trkpt lat="46.1594840" lon="10.4577310">
	<ele>2826.40</ele>
	<time>2023-08-09T06:59:24.000Z</time>
</trkpt>
<trkpt lat="46.1594840" lon="10.4577310">
	<ele>2826.40</ele>
	<time>2023-08-09T06:59:25.000Z</time>
</trkpt>
<trkpt lat="46.1594840" lon="10.4577310">
	<ele>2826.40</ele>
	<time>2023-08-09T06:59:26.000Z</time>
</trkpt>
<trkpt lat="46.1594840" lon="10.4577310">
	<ele>2826.40</ele>
	<time>2023-08-09T06:59:27.000Z</time>
</trkpt>
<trkpt lat="46.1594840" lon="10.4577310">
	<ele>2826.40</ele>
	<time>2023-08-09T06:59:28.000Z</time>
</trkpt>
<trkpt lat="46.1594840" lon="10.4577310">
	<ele>2826.40</ele>
	<time>2023-08-09T06:59:29.000Z</time>
</trkpt>
<trkpt lat="46.1594840" lon="10.4577310">
	<ele>2826.40</ele>
	<time>2023-08-09T06:59:30.000Z</time>
</trkpt>
<trkpt lat="46.1594840" lon="10.4577310">
	<ele>2826.40</ele>
	<time>2023-08-09T06:59:31.000Z</time>
</trkpt>
<trkpt lat="46.1594840" lon="10.4577310">
	<ele>2826.40</ele>
	<time>2023-08-09T06:59:32.000Z</time>
</trkpt>
<trkpt lat="46.1594840" lon="10.4577310">
	<ele>2826.40</ele>
	<time>2023-08-09T06:59:33.000Z</time>
</trkpt>
<trkpt lat="46.1594840" lon="10.4577310">
	<ele>2826.40</ele>
	<time>2023-08-09T06:59:34.000Z</time>
</trkpt>
<trkpt lat="46.1594840" lon="10.4577310">
	<ele>2826.40</ele>
	<time>2023-08-09T06:59:35.000Z</time>
</trkpt>
<trkpt lat="46.1594840" lon="10.4577310">
	<ele>2826.40</ele>
	<time>2023-08-09T06:59:36.000Z</time>
</trkpt>
<trkpt lat="46.1594840" lon="10.4577300">
	<ele>2826.40</ele>
	<time>2023-08-09T06:59:37.000Z</time>
</trkpt>
<trkpt lat="46.1594840" lon="10.4577300">
	<ele>2826.40</ele>
	<time>2023-08-09T06:59:38.000Z</time>
</trkpt>
<trkpt lat="46.1594840" lon="10.4577300">
	<ele>2826.40</ele>
	<time>2023-08-09T06:59:39.000Z</time>
</trkpt>
<trkpt lat="46.1594840" lon="10.4577300">
	<ele>2826.40</ele>
	<time>2023-08-09T06:59:40.000Z</time>
</trkpt>
<trkpt lat="46.1594840" lon="10.4577300">
	<ele>2826.40</ele>
	<time>2023-08-09T06:59:41.000Z</time>
</trkpt>
<trkpt lat="46.1594850" lon="10.4577300">
	<ele>2826.40</ele>
	<time>2023-08-09T06:59:42.000Z</time>
</trkpt>
<trkpt lat="46.1594850" lon="10.4577300">
	<ele>2826.40</ele>
	<time>2023-08-09T06:59:43.000Z</time>
</trkpt>
<trkpt lat="46.1594850" lon="10.4577300">
	<ele>2826.40</ele>
	<time>2023-08-09T06:59:44.000Z</time>
</trkpt>
<trkpt lat="46.1594850" lon="10.4577300">
	<ele>2826.40</ele>
	<time>2023-08-09T06:59:45.000Z</time>
</trkpt>
<trkpt lat="46.1594850" lon="10.4577300">
	<ele>2826.40</ele>
	<time>2023-08-09T06:59:46.000Z</time>
</trkpt>
<trkpt lat="46.1594850" lon="10.4577300">
	<ele>2826.40</ele>
	<time>2023-08-09T06:59:47.000Z</time>
</trkpt>
<trkpt lat="46.1594850" lon="10.4577300">
	<ele>2826.40</ele>
	<time>2023-08-09T06:59:48.000Z</time>
</trkpt>
<trkpt lat="46.1594850" lon="10.4577300">
	<ele>2826.40</ele>
	<time>2023-08-09T06:59:49.000Z</time>
</trkpt>
<trkpt lat="46.1594850" lon="10.4577300">
	<ele>2826.40</ele>
	<time>2023-08-09T06:59:50.000Z</time>
</trkpt>
<trkpt lat="46.1594850" lon="10.4577300">
	<ele>2826.40</ele>
	<time>2023-08-09T06:59:51.000Z</time>
</trkpt>
<trkpt lat="46.1594850" lon="10.4577300">
	<ele>2826.40</ele>
	<time>2023-08-09T06:59:52.000Z</time>
</trkpt>
<trkpt lat="46.1594850" lon="10.4577300">
	<ele>2826.40</ele>
	<time>2023-08-09T06:59:53.000Z</time>
</trkpt>
<trkpt lat="46.1594850" lon="10.4577300">
	<ele>2826.40</ele>
	<time>2023-08-09T06:59:54.000Z</time>
</trkpt>
<trkpt lat="46.1594850" lon="10.4577300">
	<ele>2826.40</ele>
	<time>2023-08-09T06:59:55.000Z</time>
</trkpt>
<trkpt lat="46.1594850" lon="10.4577300">
	<ele>2826.40</ele>
	<time>2023-08-09T06:59:56.000Z</time>
</trkpt>
<trkpt lat="46.1594850" lon="10.4577300">
	<ele>2826.40</ele>
	<time>2023-08-09T06:59:57.000Z</time>
</trkpt>
<trkpt lat="46.1594850" lon="10.4577300">
	<ele>2826.40</ele>
	<time>2023-08-09T06:59:58.000Z</time>
</trkpt>
<trkpt lat="46.1594850" lon="10.4577300">
	<ele>2826.40</ele>
	<time>2023-08-09T06:59:59.000Z</time>
</trkpt>
<trkpt lat="46.1594850" lon="10.4577300">
	<ele>2826.40</ele>
	<time>2023-08-09T07:00:00.000Z</time>
</trkpt>
<trkpt lat="46.1594850" lon="10.4577300">
	<ele>2826.40</ele>
	<time>2023-08-09T07:00:01.000Z</time>
</trkpt>
<trkpt lat="46.1594850" lon="10.4577300">
	<ele>2826.40</ele>
	<time>2023-08-09T07:00:02.000Z</time>
</trkpt>
<trkpt lat="46.1594850" lon="10.4577300">
	<ele>2826.40</ele>
	<time>2023-08-09T07:00:03.000Z</time>
</trkpt>
<trkpt lat="46.1594850" lon="10.4577300">
	<ele>2826.40</ele>
	<time>2023-08-09T07:00:04.000Z</time>
</trkpt>
<trkpt lat="46.1594850" lon="10.4577300">
	<ele>2826.40</ele>
	<time>2023-08-09T07:00:05.000Z</time>
</trkpt>
<trkpt lat="46.1594850" lon="10.4577300">
	<ele>2826.40</ele>
	<time>2023-08-09T07:00:06.000Z</time>
</trkpt>
<trkpt lat="46.1594850" lon="10.4577300">
	<ele>2826.40</ele>
	<time>2023-08-09T07:00:07.000Z</time>
</trkpt>
<trkpt lat="46.1594850" lon="10.4577300">
	<ele>2826.40</ele>
	<time>2023-08-09T07:00:08.000Z</time>
</trkpt>
<trkpt lat="46.1594850" lon="10.4577300">
	<ele>2826.40</ele>
	<time>2023-08-09T07:00:09.000Z</time>
</trkpt>
<trkpt lat="46.1594850" lon="10.4577300">
	<ele>2826.40</ele>
	<time>2023-08-09T07:00:10.000Z</time>
</trkpt>
<trkpt lat="46.1594850" lon="10.4577300">
	<ele>2823.20</ele>
	<time>2023-08-09T07:00:11.000Z</time>
</trkpt>
<trkpt lat="46.1594850" lon="10.4577300">
	<ele>2823.20</ele>
	<time>2023-08-09T07:00:12.000Z</time>
</trkpt>
<trkpt lat="46.1594850" lon="10.4577300">
	<ele>2823.20</ele>
	<time>2023-08-09T07:00:13.000Z</time>
</trkpt>
<trkpt lat="46.1594850" lon="10.4577300">
	<ele>2823.20</ele>
	<time>2023-08-09T07:00:14.000Z</time>
</trkpt>
<trkpt lat="46.1594860" lon="10.4577290">
	<ele>2823.00</ele>
	<time>2023-08-09T07:00:15.000Z</time>
</trkpt>
<trkpt lat="46.1594860" lon="10.4577290">
	<ele>2823.00</ele>
	<time>2023-08-09T07:00:16.000Z</time>
</trkpt>
<trkpt lat="46.1594860" lon="10.4577290">
	<ele>2823.00</ele>
	<time>2023-08-09T07:00:17.000Z</time>
</trkpt>
<trkpt lat="46.1594860" lon="10.4577290">
	<ele>2822.80</ele>
	<time>2023-08-09T07:00:18.000Z</time>
</trkpt>
<trkpt lat="46.1594860" lon="10.4577290">
	<ele>2822.60</ele>
	<time>2023-08-09T07:00:19.000Z</time>
</trkpt>
<trkpt lat="46.1594860" lon="10.4577290">
	<ele>2822.40</ele>
	<time>2023-08-09T07:00:20.000Z</time>
</trkpt>
<trkpt lat="46.1594860" lon="10.4577290">
	<ele>2822.40</ele>
	<time>2023-08-09T07:00:21.000Z</time>
</trkpt>
<trkpt lat="46.1594860" lon="10.4577290">
	<ele>2822.40</ele>
	<time>2023-08-09T07:00:22.000Z</time>
</trkpt>
<trkpt lat="46.1594860" lon="10.4577290">
	<ele>2822.20</ele>
	<time>2023-08-09T07:00:23.000Z</time>
</trkpt>
<trkpt lat="46.1594860" lon="10.4577290">
	<ele>2822.00</ele>
	<time>2023-08-09T07:00:24.000Z</time>
</trkpt>
<trkpt lat="46.1594860" lon="10.4577290">
	<ele>2821.80</ele>
	<time>2023-08-09T07:00:25.000Z</time>
</trkpt>
<trkpt lat="46.1594860" lon="10.4577290">
	<ele>2821.60</ele>
	<time>2023-08-09T07:00:26.000Z</time>
</trkpt>
<trkpt lat="46.1594860" lon="10.4577290">
	<ele>2821.40</ele>
	<time>2023-08-09T07:00:27.000Z</time>
</trkpt>
<trkpt lat="46.1594860" lon="10.4577290">
	<ele>2821.40</ele>
	<time>2023-08-09T07:00:28.000Z</time>
</trkpt>
<trkpt lat="46.1594860" lon="10.4577290">
	<ele>2821.20</ele>
	<time>2023-08-09T07:00:29.000Z</time>
</trkpt>
<trkpt lat="46.1594860" lon="10.4577290">
	<ele>2821.20</ele>
	<time>2023-08-09T07:00:30.000Z</time>
</trkpt>
<trkpt lat="46.1594860" lon="10.4577290">
	<ele>2821.20</ele>
	<time>2023-08-09T07:00:31.000Z</time>
</trkpt>
<trkpt lat="46.1594870" lon="10.4577290">
	<ele>2821.00</ele>
	<time>2023-08-09T07:00:32.000Z</time>
</trkpt>
<trkpt lat="46.1594870" lon="10.4577290">
	<ele>2820.80</ele>
	<time>2023-08-09T07:00:33.000Z</time>
</trkpt>
<trkpt lat="46.1594870" lon="10.4577290">
	<ele>2820.60</ele>
	<time>2023-08-09T07:00:34.000Z</time>
</trkpt>
<trkpt lat="46.1594870" lon="10.4577290">
	<ele>2820.40</ele>
	<time>2023-08-09T07:00:35.000Z</time>
</trkpt>
<trkpt lat="46.1594870" lon="10.4577290">
	<ele>2820.40</ele>
	<time>2023-08-09T07:00:36.000Z</time>
</trkpt>
<trkpt lat="46.1594870" lon="10.4577290">
	<ele>2820.20</ele>
	<time>2023-08-09T07:00:37.000Z</time>
</trkpt>
<trkpt lat="46.1594870" lon="10.4577290">
	<ele>2820.20</ele>
	<time>2023-08-09T07:00:38.000Z</time>
</trkpt>
<trkpt lat="46.1594870" lon="10.4577290">
	<ele>2820.20</ele>
	<time>2023-08-09T07:00:39.000Z</time>
</trkpt>
<trkpt lat="46.1594870" lon="10.4577290">
	<ele>2820.20</ele>
	<time>2023-08-09T07:00:40.000Z</time>
</trkpt>
<trkpt lat="46.1594870" lon="10.4577290">
	<ele>2820.20</ele>
	<time>2023-08-09T07:00:41.000Z</time>
</trkpt>
<trkpt lat="46.1594870" lon="10.4577280">
	<ele>2820.20</ele>
	<time>2023-08-09T07:00:42.000Z</time>
</trkpt>
<trkpt lat="46.1594870" lon="10.4577280">
	<ele>2820.20</ele>
	<time>2023-08-09T07:00:43.000Z</time>
</trkpt>
<trkpt lat="46.1594870" lon="10.4577280">
	<ele>2820.40</ele>
	<time>2023-08-09T07:00:44.000Z</time>
</trkpt>
<trkpt lat="46.1594870" lon="10.4577280">
	<ele>2820.40</ele>
	<time>2023-08-09T07:00:45.000Z</time>
</trkpt>
<trkpt lat="46.1594870" lon="10.4577280">
	<ele>2820.60</ele>
	<time>2023-08-09T07:00:46.000Z</time>
</trkpt>
<trkpt lat="46.1594870" lon="10.4577280">
	<ele>2820.60</ele>
	<time>2023-08-09T07:00:47.000Z</time>
</trkpt>
<trkpt lat="46.1594880" lon="10.4577280">
	<ele>2820.60</ele>
	<time>2023-08-09T07:00:48.000Z</time>
</trkpt>
<trkpt lat="46.1594880" lon="10.4577280">
	<ele>2820.60</ele>
	<time>2023-08-09T07:00:49.000Z</time>
</trkpt>
<trkpt lat="46.1594880" lon="10.4577280">
	<ele>2820.60</ele>
	<time>2023-08-09T07:00:50.000Z</time>
</trkpt>
<trkpt lat="46.1594880" lon="10.4577280">
	<ele>2820.60</ele>
	<time>2023-08-09T07:00:51.000Z</time>
</trkpt>
<trkpt lat="46.1594880" lon="10.4577280">
	<ele>2820.60</ele>
	<time>2023-08-09T07:00:52.000Z</time>
</trkpt>
<trkpt lat="46.1594880" lon="10.4577280">
	<ele>2820.60</ele>
	<time>2023-08-09T07:00:53.000Z</time>
</trkpt>
<trkpt lat="46.1594880" lon="10.4577280">
	<ele>2820.40</ele>
	<time>2023-08-09T07:00:54.000Z</time>
</trkpt>
<trkpt lat="46.1594880" lon="10.4577280">
	<ele>2820.20</ele>
	<time>2023-08-09T07:00:55.000Z</time>
</trkpt>
<trkpt lat="46.1594880" lon="10.4577280">
	<ele>2820.20</ele>
	<time>2023-08-09T07:00:56.000Z</time>
</trkpt>
<trkpt lat="46.1594880" lon="10.4577280">
	<ele>2820.00</ele>
	<time>2023-08-09T07:00:57.000Z</time>
</trkpt>
<trkpt lat="46.1594880" lon="10.4577280">
	<ele>2820.00</ele>
	<time>2023-08-09T07:00:58.000Z</time>
</trkpt>
<trkpt lat="46.1594880" lon="10.4577280">
	<ele>2819.80</ele>
	<time>2023-08-09T07:00:59.000Z</time>
</trkpt>
<trkpt lat="46.1594890" lon="10.4577280">
	<ele>2819.80</ele>
	<time>2023-08-09T07:01:00.000Z</time>
</trkpt>
<trkpt lat="46.1594890" lon="10.4577280">
	<ele>2819.80</ele>
	<time>2023-08-09T07:01:01.000Z</time>
</trkpt>
<trkpt lat="46.1594890" lon="10.4577280">
	<ele>2819.80</ele>
	<time>2023-08-09T07:01:02.000Z</time>
</trkpt>
<trkpt lat="46.1594890" lon="10.4577280">
	<ele>2819.80</ele>
	<time>2023-08-09T07:01:03.000Z</time>
</trkpt>
<trkpt lat="46.1594890" lon="10.4577280">
	<ele>2819.60</ele>
	<time>2023-08-09T07:01:04.000Z</time>
</trkpt>
<trkpt lat="46.1594890" lon="10.4577270">
	<ele>2819.40</ele>
	<time>2023-08-09T07:01:05.000Z</time>
</trkpt>
<trkpt lat="46.1594890" lon="10.4577270">
	<ele>2819.40</ele>
	<time>2023-08-09T07:01:06.000Z</time>
</trkpt>
<trkpt lat="46.1594890" lon="10.4577270">
	<ele>2819.40</ele>
	<time>2023-08-09T07:01:07.000Z</time>
</trkpt>
<trkpt lat="46.1594890" lon="10.4577270">
	<ele>2819.20</ele>
	<time>2023-08-09T07:01:08.000Z</time>
</trkpt>
<trkpt lat="46.1594990" lon="10.4577210">
	<ele>2819.00</ele>
	<time>2023-08-09T07:01:09.000Z</time>
</trkpt>
<trkpt lat="46.1595100" lon="10.4577150">
	<ele>2818.80</ele>
	<time>2023-08-09T07:01:10.000Z</time>
</trkpt>
<trkpt lat="46.1595220" lon="10.4577060">
	<ele>2818.80</ele>
	<time>2023-08-09T07:01:11.000Z</time>
</trkpt>
<trkpt lat="46.1595330" lon="10.4576970">
	<ele>2818.80</ele>
	<time>2023-08-09T07:01:12.000Z</time>
</trkpt>
<trkpt lat="46.1595440" lon="10.4576870">
	<ele>2818.60</ele>
	<time>2023-08-09T07:01:13.000Z</time>
</trkpt>
<trkpt lat="46.1595560" lon="10.4576720">
	<ele>2818.60</ele>
	<time>2023-08-09T07:01:14.000Z</time>
</trkpt>
<trkpt lat="46.1595680" lon="10.4576620">
	<ele>2818.60</ele>
	<time>2023-08-09T07:01:15.000Z</time>
</trkpt>
<trkpt lat="46.1595790" lon="10.4576530">
	<ele>2818.60</ele>
	<time>2023-08-09T07:01:16.000Z</time>
</trkpt>
<trkpt lat="46.1595890" lon="10.4576430">
	<ele>2818.60</ele>
	<time>2023-08-09T07:01:17.000Z</time>
</trkpt>
<trkpt lat="46.1595990" lon="10.4576350">
	<ele>2818.60</ele>
	<time>2023-08-09T07:01:18.000Z</time>
</trkpt>
<trkpt lat="46.1596040" lon="10.4576380">
	<ele>2818.40</ele>
	<time>2023-08-09T07:01:19.000Z</time>
</trkpt>
<trkpt lat="46.1596060" lon="10.4576380">
	<ele>2818.20</ele>
	<time>2023-08-09T07:01:20.000Z</time>
</trkpt>
<trkpt lat="46.1596080" lon="10.4576380">
	<ele>2818.20</ele>
	<time>2023-08-09T07:01:21.000Z</time>
</trkpt>
<trkpt lat="46.1596090" lon="10.4576350">
	<ele>2818.00</ele>
	<time>2023-08-09T07:01:22.000Z</time>
</trkpt>
<trkpt lat="46.1596080" lon="10.4576310">
	<ele>2817.80</ele>
	<time>2023-08-09T07:01:23.000Z</time>
</trkpt>
<trkpt lat="46.1596090" lon="10.4576280">
	<ele>2817.80</ele>
	<time>2023-08-09T07:01:24.000Z</time>
</trkpt>
<trkpt lat="46.1596110" lon="10.4576220">
	<ele>2817.80</ele>
	<time>2023-08-09T07:01:25.000Z</time>
</trkpt>
<trkpt lat="46.1596140" lon="10.4576190">
	<ele>2817.60</ele>
	<time>2023-08-09T07:01:26.000Z</time>
</trkpt>
<trkpt lat="46.1596180" lon="10.4576190">
	<ele>2817.60</ele>
	<time>2023-08-09T07:01:27.000Z</time>
</trkpt>
<trkpt lat="46.1596230" lon="10.4576190">
	<ele>2817.60</ele>
	<time>2023-08-09T07:01:28.000Z</time>
</trkpt>
<trkpt lat="46.1596270" lon="10.4576190">
	<ele>2817.40</ele>
	<time>2023-08-09T07:01:29.000Z</time>
</trkpt>
<trkpt lat="46.1596290" lon="10.4576160">
	<ele>2817.40</ele>
	<time>2023-08-09T07:01:30.000Z</time>
</trkpt>
<trkpt lat="46.1596290" lon="10.4576140">
	<ele>2817.40</ele>
	<time>2023-08-09T07:01:31.000Z</time>
</trkpt>
<trkpt lat="46.1596300" lon="10.4576100">
	<ele>2817.40</ele>
	<time>2023-08-09T07:01:32.000Z</time>
</trkpt>
<trkpt lat="46.1596340" lon="10.4576080">
	<ele>2817.40</ele>
	<time>2023-08-09T07:01:33.000Z</time>
</trkpt>
<trkpt lat="46.1596360" lon="10.4576070">
	<ele>2817.20</ele>
	<time>2023-08-09T07:01:34.000Z</time>
</trkpt>
<trkpt lat="46.1596370" lon="10.4576070">
	<ele>2817.20</ele>
	<time>2023-08-09T07:01:35.000Z</time>
</trkpt>
<trkpt lat="46.1596430" lon="10.4576040">
	<ele>2817.00</ele>
	<time>2023-08-09T07:01:36.000Z</time>
</trkpt>
<trkpt lat="46.1596460" lon="10.4576020">
	<ele>2817.00</ele>
	<time>2023-08-09T07:01:37.000Z</time>
</trkpt>
<trkpt lat="46.1596490" lon="10.4576010">
	<ele>2817.00</ele>
	<time>2023-08-09T07:01:38.000Z</time>
</trkpt>
<trkpt lat="46.1596520" lon="10.4576000">
	<ele>2816.80</ele>
	<time>2023-08-09T07:01:39.000Z</time>
</trkpt>
<trkpt lat="46.1596550" lon="10.4575980">
	<ele>2816.80</ele>
	<time>2023-08-09T07:01:40.000Z</time>
</trkpt>
<trkpt lat="46.1596560" lon="10.4575950">
	<ele>2816.80</ele>
	<time>2023-08-09T07:01:41.000Z</time>
</trkpt>
<trkpt lat="46.1596560" lon="10.4575930">
	<ele>2816.80</ele>
	<time>2023-08-09T07:01:42.000Z</time>
</trkpt>
<trkpt lat="46.1596560" lon="10.4575920">
	<ele>2816.80</ele>
	<time>2023-08-09T07:01:43.000Z</time>
</trkpt>
<trkpt lat="46.1596560" lon="10.4575920">
	<ele>2816.80</ele>
	<time>2023-08-09T07:01:44.000Z</time>
</trkpt>
<trkpt lat="46.1596560" lon="10.4575920">
	<ele>2816.80</ele>
	<time>2023-08-09T07:01:45.000Z</time>
</trkpt>
<trkpt lat="46.1596560" lon="10.4575920">
	<ele>2816.60</ele>
	<time>2023-08-09T07:01:46.000Z</time>
</trkpt>
<trkpt lat="46.1596560" lon="10.4575920">
	<ele>2816.60</ele>
	<time>2023-08-09T07:01:47.000Z</time>
</trkpt>
<trkpt lat="46.1596560" lon="10.4575920">
	<ele>2816.40</ele>
	<time>2023-08-09T07:01:48.000Z</time>
</trkpt>
<trkpt lat="46.1596560" lon="10.4575920">
	<ele>2816.40</ele>
	<time>2023-08-09T07:01:49.000Z</time>
</trkpt>
<trkpt lat="46.1596560" lon="10.4575920">
	<ele>2816.20</ele>
	<time>2023-08-09T07:01:50.000Z</time>
</trkpt>
<trkpt lat="46.1596560" lon="10.4575920">
	<ele>2816.20</ele>
	<time>2023-08-09T07:01:51.000Z</time>
</trkpt>
<trkpt lat="46.1596560" lon="10.4575920">
	<ele>2816.20</ele>
	<time>2023-08-09T07:01:52.000Z</time>
</trkpt>
<trkpt lat="46.1596560" lon="10.4575920">
	<ele>2816.20</ele>
	<time>2023-08-09T07:01:53.000Z</time>
</trkpt>
<trkpt lat="46.1596560" lon="10.4575920">
	<ele>2816.00</ele>
	<time>2023-08-09T07:01:54.000Z</time>
</trkpt>
<trkpt lat="46.1596560" lon="10.4575920">
	<ele>2816.00</ele>
	<time>2023-08-09T07:01:55.000Z</time>
</trkpt>
<trkpt lat="46.1596560" lon="10.4575920">
	<ele>2816.00</ele>
	<time>2023-08-09T07:01:56.000Z</time>
</trkpt>
<trkpt lat="46.1596560" lon="10.4575920">
	<ele>2815.80</ele>
	<time>2023-08-09T07:01:57.000Z</time>
</trkpt>
<trkpt lat="46.1596560" lon="10.4575920">
	<ele>2815.80</ele>
	<time>2023-08-09T07:01:58.000Z</time>
</trkpt>
<trkpt lat="46.1596580" lon="10.4575900">
	<ele>2815.80</ele>
	<time>2023-08-09T07:01:59.000Z</time>
</trkpt>
<trkpt lat="46.1596580" lon="10.4575900">
	<ele>2816.00</ele>
	<time>2023-08-09T07:02:00.000Z</time>
</trkpt>
<trkpt lat="46.1596590" lon="10.4575890">
	<ele>2816.00</ele>
	<time>2023-08-09T07:02:01.000Z</time>
</trkpt>
<trkpt lat="46.1596610" lon="10.4575880">
	<ele>2816.00</ele>
	<time>2023-08-09T07:02:02.000Z</time>
</trkpt>
<trkpt lat="46.1596620" lon="10.4575860">
	<ele>2816.00</ele>
	<time>2023-08-09T07:02:03.000Z</time>
</trkpt>
<trkpt lat="46.1596650" lon="10.4575850">
	<ele>2816.00</ele>
	<time>2023-08-09T07:02:04.000Z</time>
</trkpt>
<trkpt lat="46.1596660" lon="10.4575850">
	<ele>2816.00</ele>
	<time>2023-08-09T07:02:05.000Z</time>
</trkpt>
<trkpt lat="46.1596720" lon="10.4575840">
	<ele>2816.00</ele>
	<time>2023-08-09T07:02:06.000Z</time>
</trkpt>
<trkpt lat="46.1596760" lon="10.4575810">
	<ele>2816.00</ele>
	<time>2023-08-09T07:02:07.000Z</time>
</trkpt>
<trkpt lat="46.1596780" lon="10.4575770">
	<ele>2816.00</ele>
	<time>2023-08-09T07:02:08.000Z</time>
</trkpt>
<trkpt lat="46.1596810" lon="10.4575750">
	<ele>2816.00</ele>
	<time>2023-08-09T07:02:09.000Z</time>
</trkpt>
<trkpt lat="46.1596830" lon="10.4575730">
	<ele>2815.80</ele>
	<time>2023-08-09T07:02:10.000Z</time>
</trkpt>
<trkpt lat="46.1596830" lon="10.4575730">
	<ele>2815.80</ele>
	<time>2023-08-09T07:02:11.000Z</time>
</trkpt>
<trkpt lat="46.1596840" lon="10.4575730">
	<ele>2815.80</ele>
	<time>2023-08-09T07:02:12.000Z</time>
</trkpt>
<trkpt lat="46.1596840" lon="10.4575730">
	<ele>2815.80</ele>
	<time>2023-08-09T07:02:13.000Z</time>
</trkpt>
<trkpt lat="46.1596840" lon="10.4575730">
	<ele>2815.80</ele>
	<time>2023-08-09T07:02:14.000Z</time>
</trkpt>
<trkpt lat="46.1596850" lon="10.4575720">
	<ele>2815.80</ele>
	<time>2023-08-09T07:02:15.000Z</time>
</trkpt>
<trkpt lat="46.1596850" lon="10.4575720">
	<ele>2815.80</ele>
	<time>2023-08-09T07:02:16.000Z</time>
</trkpt>
<trkpt lat="46.1596850" lon="10.4575710">
	<ele>2815.80</ele>
	<time>2023-08-09T07:02:17.000Z</time>
</trkpt>
<trkpt lat="46.1596850" lon="10.4575710">
	<ele>2815.80</ele>
	<time>2023-08-09T07:02:18.000Z</time>
</trkpt>
<trkpt lat="46.1596860" lon="10.4575700">
	<ele>2815.80</ele>
	<time>2023-08-09T07:02:19.000Z</time>
</trkpt>
<trkpt lat="46.1596870" lon="10.4575700">
	<ele>2815.60</ele>
	<time>2023-08-09T07:02:20.000Z</time>
</trkpt>
<trkpt lat="46.1596870" lon="10.4575690">
	<ele>2815.60</ele>
	<time>2023-08-09T07:02:21.000Z</time>
</trkpt>
<trkpt lat="46.1596880" lon="10.4575690">
	<ele>2815.40</ele>
	<time>2023-08-09T07:02:22.000Z</time>
</trkpt>
<trkpt lat="46.1596880" lon="10.4575680">
	<ele>2815.40</ele>
	<time>2023-08-09T07:02:23.000Z</time>
</trkpt>
<trkpt lat="46.1596880" lon="10.4575680">
	<ele>2815.00</ele>
	<time>2023-08-09T07:02:24.000Z</time>
</trkpt>
<trkpt lat="46.1596880" lon="10.4575680">
	<ele>2814.80</ele>
	<time>2023-08-09T07:02:25.000Z</time>
</trkpt>
<trkpt lat="46.1596890" lon="10.4575680">
	<ele>2814.60</ele>
	<time>2023-08-09T07:02:26.000Z</time>
</trkpt>
<trkpt lat="46.1596890" lon="10.4575680">
	<ele>2814.60</ele>
	<time>2023-08-09T07:02:27.000Z</time>
</trkpt>
<trkpt lat="46.1596890" lon="10.4575680">
	<ele>2814.40</ele>
	<time>2023-08-09T07:02:28.000Z</time>
</trkpt>
<trkpt lat="46.1596900" lon="10.4575680">
	<ele>2814.20</ele>
	<time>2023-08-09T07:02:29.000Z</time>
</trkpt>
<trkpt lat="46.1596900" lon="10.4575670">
	<ele>2814.20</ele>
	<time>2023-08-09T07:02:30.000Z</time>
</trkpt>
<trkpt lat="46.1596910" lon="10.4575660">
	<ele>2814.20</ele>
	<time>2023-08-09T07:02:31.000Z</time>
</trkpt>
<trkpt lat="46.1596930" lon="10.4575660">
	<ele>2814.00</ele>
	<time>2023-08-09T07:02:32.000Z</time>
</trkpt>
<trkpt lat="46.1596950" lon="10.4575650">
	<ele>2814.00</ele>
	<time>2023-08-09T07:02:33.000Z</time>
</trkpt>
<trkpt lat="46.1596960" lon="10.4575650">
	<ele>2814.00</ele>
	<time>2023-08-09T07:02:34.000Z</time>
</trkpt>
<trkpt lat="46.1596970" lon="10.4575650">
	<ele>2814.00</ele>
	<time>2023-08-09T07:02:35.000Z</time>
</trkpt>
<trkpt lat="46.1596980" lon="10.4575650">
	<ele>2813.80</ele>
	<time>2023-08-09T07:02:36.000Z</time>
</trkpt>
<trkpt lat="46.1597000" lon="10.4575640">
	<ele>2813.60</ele>
	<time>2023-08-09T07:02:37.000Z</time>
</trkpt>
<trkpt lat="46.1597040" lon="10.4575640">
	<ele>2813.60</ele>
	<time>2023-08-09T07:02:38.000Z</time>
</trkpt>
<trkpt lat="46.1597060" lon="10.4575640">
	<ele>2813.60</ele>
	<time>2023-08-09T07:02:39.000Z</time>
</trkpt>
<trkpt lat="46.1597060" lon="10.4575640">
	<ele>2813.40</ele>
	<time>2023-08-09T07:02:40.000Z</time>
</trkpt>
<trkpt lat="46.1597070" lon="10.4575640">
	<ele>2813.00</ele>
	<time>2023-08-09T07:02:41.000Z</time>
</trkpt>
<trkpt lat="46.1597080" lon="10.4575640">
	<ele>2812.80</ele>
	<time>2023-08-09T07:02:42.000Z</time>
</trkpt>
<trkpt lat="46.1597090" lon="10.4575640">
	<ele>2812.80</ele>
	<time>2023-08-09T07:02:43.000Z</time>
</trkpt>
<trkpt lat="46.1597090" lon="10.4575640">
	<ele>2812.40</ele>
	<time>2023-08-09T07:02:44.000Z</time>
</trkpt>
<trkpt lat="46.1597090" lon="10.4575640">
	<ele>2812.40</ele>
	<time>2023-08-09T07:02:45.000Z</time>
</trkpt>
<trkpt lat="46.1597100" lon="10.4575640">
	<ele>2812.20</ele>
	<time>2023-08-09T07:02:46.000Z</time>
</trkpt>
<trkpt lat="46.1597100" lon="10.4575640">
	<ele>2812.20</ele>
	<time>2023-08-09T07:02:47.000Z</time>
</trkpt>
<trkpt lat="46.1597110" lon="10.4575640">
	<ele>2812.20</ele>
	<time>2023-08-09T07:02:48.000Z</time>
</trkpt>
<trkpt lat="46.1597110" lon="10.4575630">
	<ele>2812.20</ele>
	<time>2023-08-09T07:02:49.000Z</time>
</trkpt>
<trkpt lat="46.1597120" lon="10.4575630">
	<ele>2812.20</ele>
	<time>2023-08-09T07:02:50.000Z</time>
</trkpt>
<trkpt lat="46.1597120" lon="10.4575630">
	<ele>2812.20</ele>
	<time>2023-08-09T07:02:51.000Z</time>
</trkpt>
<trkpt lat="46.1597120" lon="10.4575630">
	<ele>2812.00</ele>
	<time>2023-08-09T07:02:52.000Z</time>
</trkpt>
<trkpt lat="46.1597150" lon="10.4575630">
	<ele>2812.00</ele>
	<time>2023-08-09T07:02:53.000Z</time>
</trkpt>
<trkpt lat="46.1597170" lon="10.4575630">
	<ele>2811.80</ele>
	<time>2023-08-09T07:02:54.000Z</time>
</trkpt>
<trkpt lat="46.1597200" lon="10.4575630">
	<ele>2811.60</ele>
	<time>2023-08-09T07:02:55.000Z</time>
</trkpt>
<trkpt lat="46.1597220" lon="10.4575620">
	<ele>2811.60</ele>
	<time>2023-08-09T07:02:56.000Z</time>
</trkpt>
<trkpt lat="46.1597250" lon="10.4575620">
	<ele>2811.40</ele>
	<time>2023-08-09T07:02:57.000Z</time>
</trkpt>
<trkpt lat="46.1597300" lon="10.4575620">
	<ele>2811.20</ele>
	<time>2023-08-09T07:02:58.000Z</time>
</trkpt>
<trkpt lat="46.1597340" lon="10.4575620">
	<ele>2811.00</ele>
	<time>2023-08-09T07:02:59.000Z</time>
</trkpt>
<trkpt lat="46.1597370" lon="10.4575620">
	<ele>2811.00</ele>
	<time>2023-08-09T07:03:00.000Z</time>
</trkpt>
<trkpt lat="46.1597400" lon="10.4575620">
	<ele>2810.80</ele>
	<time>2023-08-09T07:03:01.000Z</time>
</trkpt>
<trkpt lat="46.1597440" lon="10.4575620">
	<ele>2810.80</ele>
	<time>2023-08-09T07:03:02.000Z</time>
</trkpt>
<trkpt lat="46.1597480" lon="10.4575620">
	<ele>2810.60</ele>
	<time>2023-08-09T07:03:03.000Z</time>
</trkpt>
<trkpt lat="46.1597500" lon="10.4575620">
	<ele>2810.60</ele>
	<time>2023-08-09T07:03:04.000Z</time>
</trkpt>
<trkpt lat="46.1597520" lon="10.4575630">
	<ele>2810.60</ele>
	<time>2023-08-09T07:03:05.000Z</time>
</trkpt>
<trkpt lat="46.1597540" lon="10.4575630">
	<ele>2810.60</ele>
	<time>2023-08-09T07:03:06.000Z</time>
</trkpt>
<trkpt lat="46.1597550" lon="10.4575630">
	<ele>2810.60</ele>
	<time>2023-08-09T07:03:07.000Z</time>
</trkpt>
<trkpt lat="46.1597580" lon="10.4575630">
	<ele>2810.60</ele>
	<time>2023-08-09T07:03:08.000Z</time>
</trkpt>
<trkpt lat="46.1597600" lon="10.4575640">
	<ele>2810.40</ele>
	<time>2023-08-09T07:03:09.000Z</time>
</trkpt>
<trkpt lat="46.1597650" lon="10.4575640">
	<ele>2810.40</ele>
	<time>2023-08-09T07:03:10.000Z</time>
</trkpt>
<trkpt lat="46.1597700" lon="10.4575650">
	<ele>2810.40</ele>
	<time>2023-08-09T07:03:11.000Z</time>
</trkpt>
<trkpt lat="46.1597730" lon="10.4575650">
	<ele>2810.40</ele>
	<time>2023-08-09T07:03:12.000Z</time>
</trkpt>
<trkpt lat="46.1597760" lon="10.4575650">
	<ele>2810.20</ele>
	<time>2023-08-09T07:03:13.000Z</time>
</trkpt>
<trkpt lat="46.1597780" lon="10.4575670">
	<ele>2810.20</ele>
	<time>2023-08-09T07:03:14.000Z</time>
</trkpt>
<trkpt lat="46.1597780" lon="10.4575700">
	<ele>2810.00</ele>
	<time>2023-08-09T07:03:15.000Z</time>
</trkpt>
<trkpt lat="46.1597790" lon="10.4575750">
	<ele>2810.00</ele>
	<time>2023-08-09T07:03:16.000Z</time>
</trkpt>
<trkpt lat="46.1597800" lon="10.4575810">
	<ele>2810.00</ele>
	<time>2023-08-09T07:03:17.000Z</time>
</trkpt>
<trkpt lat="46.1597800" lon="10.4575860">
	<ele>2809.80</ele>
	<time>2023-08-09T07:03:18.000Z</time>
</trkpt>
<trkpt lat="46.1597810" lon="10.4575900">
	<ele>2809.80</ele>
	<time>2023-08-09T07:03:19.000Z</time>
</trkpt>
<trkpt lat="46.1597810" lon="10.4575940">
	<ele>2809.80</ele>
	<time>2023-08-09T07:03:20.000Z</time>
</trkpt>
<trkpt lat="46.1597820" lon="10.4575980">
	<ele>2809.80</ele>
	<time>2023-08-09T07:03:21.000Z</time>
</trkpt>
<trkpt lat="46.1597820" lon="10.4576010">
	<ele>2809.60</ele>
	<time>2023-08-09T07:03:22.000Z</time>
</trkpt>
<trkpt lat="46.1597830" lon="10.4576040">
	<ele>2809.60</ele>
	<time>2023-08-09T07:03:23.000Z</time>
</trkpt>
<trkpt lat="46.1597830" lon="10.4576060">
	<ele>2809.40</ele>
	<time>2023-08-09T07:03:24.000Z</time>
</trkpt>
<trkpt lat="46.1597830" lon="10.4576090">
	<ele>2809.20</ele>
	<time>2023-08-09T07:03:25.000Z</time>
</trkpt>
<trkpt lat="46.1597830" lon="10.4576130">
	<ele>2809.00</ele>
	<time>2023-08-09T07:03:26.000Z</time>
</trkpt>
<trkpt lat="46.1597830" lon="10.4576170">
	<ele>2808.80</ele>
	<time>2023-08-09T07:03:27.000Z</time>
</trkpt>
<trkpt lat="46.1597830" lon="10.4576190">
	<ele>2808.80</ele>
	<time>2023-08-09T07:03:28.000Z</time>
</trkpt>
<trkpt lat="46.1597830" lon="10.4576210">
	<ele>2808.60</ele>
	<time>2023-08-09T07:03:29.000Z</time>
</trkpt>
<trkpt lat="46.1597830" lon="10.4576210">
	<ele>2808.60</ele>
	<time>2023-08-09T07:03:30.000Z</time>
</trkpt>
<trkpt lat="46.1597830" lon="10.4576220">
	<ele>2808.60</ele>
	<time>2023-08-09T07:03:31.000Z</time>
</trkpt>
<trkpt lat="46.1597830" lon="10.4576230">
	<ele>2808.60</ele>
	<time>2023-08-09T07:03:32.000Z</time>
</trkpt>
<trkpt lat="46.1597830" lon="10.4576260">
	<ele>2808.40</ele>
	<time>2023-08-09T07:03:33.000Z</time>
</trkpt>
<trkpt lat="46.1597830" lon="10.4576290">
	<ele>2808.40</ele>
	<time>2023-08-09T07:03:34.000Z</time>
</trkpt>
<trkpt lat="46.1597830" lon="10.4576330">
	<ele>2808.40</ele>
	<time>2023-08-09T07:03:35.000Z</time>
</trkpt>
<trkpt lat="46.1597820" lon="10.4576360">
	<ele>2808.40</ele>
	<time>2023-08-09T07:03:36.000Z</time>
</trkpt>
<trkpt lat="46.1597810" lon="10.4576380">
	<ele>2808.40</ele>
	<time>2023-08-09T07:03:37.000Z</time>
</trkpt>
<trkpt lat="46.1597810" lon="10.4576400">
	<ele>2808.40</ele>
	<time>2023-08-09T07:03:38.000Z</time>
</trkpt>
<trkpt lat="46.1597800" lon="10.4576410">
	<ele>2808.40</ele>
	<time>2023-08-09T07:03:39.000Z</time>
</trkpt>
<trkpt lat="46.1597800" lon="10.4576410">
	<ele>2808.00</ele>
	<time>2023-08-09T07:03:40.000Z</time>
</trkpt>
<trkpt lat="46.1597800" lon="10.4576420">
	<ele>2807.80</ele>
	<time>2023-08-09T07:03:41.000Z</time>
</trkpt>
<trkpt lat="46.1597790" lon="10.4576420">
	<ele>2807.60</ele>
	<time>2023-08-09T07:03:42.000Z</time>
</trkpt>
<trkpt lat="46.1597790" lon="10.4576420">
	<ele>2807.60</ele>
	<time>2023-08-09T07:03:43.000Z</time>
</trkpt>
<trkpt lat="46.1597770" lon="10.4576430">
	<ele>2807.60</ele>
	<time>2023-08-09T07:03:44.000Z</time>
</trkpt>
<trkpt lat="46.1597740" lon="10.4576430">
	<ele>2807.40</ele>
	<time>2023-08-09T07:03:45.000Z</time>
</trkpt>
<trkpt lat="46.1597720" lon="10.4576430">
	<ele>2807.40</ele>
	<time>2023-08-09T07:03:46.000Z</time>
</trkpt>
<trkpt lat="46.1597690" lon="10.4576440">
	<ele>2807.20</ele>
	<time>2023-08-09T07:03:47.000Z</time>
</trkpt>
<trkpt lat="46.1597670" lon="10.4576440">
	<ele>2807.20</ele>
	<time>2023-08-09T07:03:48.000Z</time>
</trkpt>
<trkpt lat="46.1597640" lon="10.4576450">
	<ele>2807.00</ele>
	<time>2023-08-09T07:03:49.000Z</time>
</trkpt>
<trkpt lat="46.1597610" lon="10.4576460">
	<ele>2807.00</ele>
	<time>2023-08-09T07:03:50.000Z</time>
</trkpt>
<trkpt lat="46.1597590" lon="10.4576470">
	<ele>2807.00</ele>
	<time>2023-08-09T07:03:51.000Z</time>
</trkpt>
<trkpt lat="46.1597570" lon="10.4576500">
	<ele>2806.80</ele>
	<time>2023-08-09T07:03:52.000Z</time>
</trkpt>
<trkpt lat="46.1597550" lon="10.4576530">
	<ele>2806.60</ele>
	<time>2023-08-09T07:03:53.000Z</time>
</trkpt>
<trkpt lat="46.1597530" lon="10.4576550">
	<ele>2806.40</ele>
	<time>2023-08-09T07:03:54.000Z</time>
</trkpt>
<trkpt lat="46.1597520" lon="10.4576560">
	<ele>2806.20</ele>
	<time>2023-08-09T07:03:55.000Z</time>
</trkpt>
<trkpt lat="46.1597510" lon="10.4576570">
	<ele>2806.00</ele>
	<time>2023-08-09T07:03:56.000Z</time>
</trkpt>
<trkpt lat="46.1597510" lon="10.4576580">
	<ele>2806.00</ele>
	<time>2023-08-09T07:03:57.000Z</time>
</trkpt>
<trkpt lat="46.1597500" lon="10.4576580">
	<ele>2806.00</ele>
	<time>2023-08-09T07:03:58.000Z</time>
</trkpt>
<trkpt lat="46.1597500" lon="10.4576590">
	<ele>2806.00</ele>
	<time>2023-08-09T07:03:59.000Z</time>
</trkpt>
<trkpt lat="46.1597490" lon="10.4576590">
	<ele>2806.20</ele>
	<time>2023-08-09T07:04:00.000Z</time>
</trkpt>
<trkpt lat="46.1597480" lon="10.4576590">
	<ele>2806.20</ele>
	<time>2023-08-09T07:04:01.000Z</time>
</trkpt>
<trkpt lat="46.1597480" lon="10.4576600">
	<ele>2806.20</ele>
	<time>2023-08-09T07:04:02.000Z</time>
</trkpt>
<trkpt lat="46.1597470" lon="10.4576600">
	<ele>2806.00</ele>
	<time>2023-08-09T07:04:03.000Z</time>
</trkpt>
<trkpt lat="46.1597460" lon="10.4576610">
	<ele>2806.00</ele>
	<time>2023-08-09T07:04:04.000Z</time>
</trkpt>
<trkpt lat="46.1597460" lon="10.4576620">
	<ele>2806.00</ele>
	<time>2023-08-09T07:04:05.000Z</time>
</trkpt>
<trkpt lat="46.1597450" lon="10.4576630">
	<ele>2805.80</ele>
	<time>2023-08-09T07:04:06.000Z</time>
</trkpt>
<trkpt lat="46.1597440" lon="10.4576640">
	<ele>2805.80</ele>
	<time>2023-08-09T07:04:07.000Z</time>
</trkpt>
<trkpt lat="46.1597430" lon="10.4576640">
	<ele>2805.80</ele>
	<time>2023-08-09T07:04:08.000Z</time>
</trkpt>
<trkpt lat="46.1597430" lon="10.4576650">
	<ele>2805.80</ele>
	<time>2023-08-09T07:04:09.000Z</time>
</trkpt>
<trkpt lat="46.1597420" lon="10.4576650">
	<ele>2805.80</ele>
	<time>2023-08-09T07:04:10.000Z</time>
</trkpt>
<trkpt lat="46.1597420" lon="10.4576660">
	<ele>2805.80</ele>
	<time>2023-08-09T07:04:11.000Z</time>
</trkpt>
<trkpt lat="46.1597420" lon="10.4576660">
	<ele>2805.80</ele>
	<time>2023-08-09T07:04:12.000Z</time>
</trkpt>
<trkpt lat="46.1597410" lon="10.4576670">
	<ele>2805.80</ele>
	<time>2023-08-09T07:04:13.000Z</time>
</trkpt>
<trkpt lat="46.1597410" lon="10.4576680">
	<ele>2805.80</ele>
	<time>2023-08-09T07:04:14.000Z</time>
</trkpt>
<trkpt lat="46.1597410" lon="10.4576680">
	<ele>2805.60</ele>
	<time>2023-08-09T07:04:15.000Z</time>
</trkpt>
<trkpt lat="46.1597410" lon="10.4576690">
	<ele>2805.60</ele>
	<time>2023-08-09T07:04:16.000Z</time>
</trkpt>
<trkpt lat="46.1597410" lon="10.4576700">
	<ele>2805.60</ele>
	<time>2023-08-09T07:04:17.000Z</time>
</trkpt>
<trkpt lat="46.1597410" lon="10.4576710">
	<ele>2805.60</ele>
	<time>2023-08-09T07:04:18.000Z</time>
</trkpt>
<trkpt lat="46.1597410" lon="10.4576720">
	<ele>2805.40</ele>
	<time>2023-08-09T07:04:19.000Z</time>
</trkpt>
<trkpt lat="46.1597410" lon="10.4576730">
	<ele>2805.20</ele>
	<time>2023-08-09T07:04:20.000Z</time>
</trkpt>
<trkpt lat="46.1597410" lon="10.4576740">
	<ele>2805.20</ele>
	<time>2023-08-09T07:04:21.000Z</time>
</trkpt>
<trkpt lat="46.1597410" lon="10.4576750">
	<ele>2805.00</ele>
	<time>2023-08-09T07:04:22.000Z</time>
</trkpt>
<trkpt lat="46.1597410" lon="10.4576770">
	<ele>2805.00</ele>
	<time>2023-08-09T07:04:23.000Z</time>
</trkpt>
<trkpt lat="46.1597410" lon="10.4576800">
	<ele>2805.00</ele>
	<time>2023-08-09T07:04:24.000Z</time>
</trkpt>
<trkpt lat="46.1597410" lon="10.4576830">
	<ele>2804.80</ele>
	<time>2023-08-09T07:04:25.000Z</time>
</trkpt>
<trkpt lat="46.1597410" lon="10.4576860">
	<ele>2804.80</ele>
	<time>2023-08-09T07:04:26.000Z</time>
</trkpt>
<trkpt lat="46.1597410" lon="10.4576870">
	<ele>2804.80</ele>
	<time>2023-08-09T07:04:27.000Z</time>
</trkpt>
<trkpt lat="46.1597410" lon="10.4576890">
	<ele>2804.80</ele>
	<time>2023-08-09T07:04:28.000Z</time>
</trkpt>
<trkpt lat="46.1597410" lon="10.4576900">
	<ele>2804.80</ele>
	<time>2023-08-09T07:04:29.000Z</time>
</trkpt>
<trkpt lat="46.1597420" lon="10.4576910">
	<ele>2804.80</ele>
	<time>2023-08-09T07:04:30.000Z</time>
</trkpt>
<trkpt lat="46.1597420" lon="10.4576920">
	<ele>2804.80</ele>
	<time>2023-08-09T07:04:31.000Z</time>
</trkpt>
<trkpt lat="46.1597430" lon="10.4576940">
	<ele>2804.60</ele>
	<time>2023-08-09T07:04:32.000Z</time>
</trkpt>
<trkpt lat="46.1597430" lon="10.4576950">
	<ele>2804.40</ele>
	<time>2023-08-09T07:04:33.000Z</time>
</trkpt>
<trkpt lat="46.1597430" lon="10.4576950">
	<ele>2804.20</ele>
	<time>2023-08-09T07:04:34.000Z</time>
</trkpt>
<trkpt lat="46.1597440" lon="10.4576960">
	<ele>2804.20</ele>
	<time>2023-08-09T07:04:35.000Z</time>
</trkpt>
<trkpt lat="46.1597450" lon="10.4576970">
	<ele>2804.00</ele>
	<time>2023-08-09T07:04:36.000Z</time>
</trkpt>
<trkpt lat="46.1597450" lon="10.4576970">
	<ele>2804.00</ele>
	<time>2023-08-09T07:04:37.000Z</time>
</trkpt>
<trkpt lat="46.1597460" lon="10.4576980">
	<ele>2803.80</ele>
	<time>2023-08-09T07:04:38.000Z</time>
</trkpt>
<trkpt lat="46.1597470" lon="10.4576980">
	<ele>2803.80</ele>
	<time>2023-08-09T07:04:39.000Z</time>
</trkpt>
<trkpt lat="46.1597470" lon="10.4576990">
	<ele>2803.60</ele>
	<time>2023-08-09T07:04:40.000Z</time>
</trkpt>
<trkpt lat="46.1597480" lon="10.4576990">
	<ele>2803.40</ele>
	<time>2023-08-09T07:04:41.000Z</time>
</trkpt>
<trkpt lat="46.1597480" lon="10.4577000">
	<ele>2803.40</ele>
	<time>2023-08-09T07:04:42.000Z</time>
</trkpt>
<trkpt lat="46.1597480" lon="10.4577000">
	<ele>2803.20</ele>
	<time>2023-08-09T07:04:43.000Z</time>
</trkpt>
<trkpt lat="46.1597490" lon="10.4577010">
	<ele>2803.20</ele>
	<time>2023-08-09T07:04:44.000Z</time>
</trkpt>
<trkpt lat="46.1597500" lon="10.4577010">
	<ele>2803.20</ele>
	<time>2023-08-09T07:04:45.000Z</time>
</trkpt>
<trkpt lat="46.1597510" lon="10.4577020">
	<ele>2803.00</ele>
	<time>2023-08-09T07:04:46.000Z</time>
</trkpt>
<trkpt lat="46.1597520" lon="10.4577020">
	<ele>2803.00</ele>
	<time>2023-08-09T07:04:47.000Z</time>
</trkpt>
<trkpt lat="46.1597530" lon="10.4577020">
	<ele>2803.00</ele>
	<time>2023-08-09T07:04:48.000Z</time>
</trkpt>
<trkpt lat="46.1597540" lon="10.4577030">
	<ele>2803.00</ele>
	<time>2023-08-09T07:04:49.000Z</time>
</trkpt>
<trkpt lat="46.1597550" lon="10.4577030">
	<ele>2803.00</ele>
	<time>2023-08-09T07:04:50.000Z</time>
</trkpt>
<trkpt lat="46.1597550" lon="10.4577030">
	<ele>2802.80</ele>
	<time>2023-08-09T07:04:51.000Z</time>
</trkpt>
<trkpt lat="46.1597560" lon="10.4577040">
	<ele>2802.80</ele>
	<time>2023-08-09T07:04:52.000Z</time>
</trkpt>
<trkpt lat="46.1597570" lon="10.4577040">
	<ele>2802.80</ele>
	<time>2023-08-09T07:04:53.000Z</time>
</trkpt>
<trkpt lat="46.1597570" lon="10.4577040">
	<ele>2802.60</ele>
	<time>2023-08-09T07:04:54.000Z</time>
</trkpt>
<trkpt lat="46.1597580" lon="10.4577040">
	<ele>2802.40</ele>
	<time>2023-08-09T07:04:55.000Z</time>
</trkpt>
<trkpt lat="46.1597580" lon="10.4577040">
	<ele>2802.20</ele>
	<time>2023-08-09T07:04:56.000Z</time>
</trkpt>
<trkpt lat="46.1597580" lon="10.4577040">
	<ele>2802.00</ele>
	<time>2023-08-09T07:04:57.000Z</time>
</trkpt>
<trkpt lat="46.1597590" lon="10.4577040">
	<ele>2801.80</ele>
	<time>2023-08-09T07:04:58.000Z</time>
</trkpt>
<trkpt lat="46.1597590" lon="10.4577050">
	<ele>2801.80</ele>
	<time>2023-08-09T07:04:59.000Z</time>
</trkpt>
<trkpt lat="46.1597590" lon="10.4577050">
	<ele>2801.60</ele>
	<time>2023-08-09T07:05:00.000Z</time>
</trkpt>
<trkpt lat="46.1597590" lon="10.4577050">
	<ele>2801.60</ele>
	<time>2023-08-09T07:05:01.000Z</time>
</trkpt>
<trkpt lat="46.1597590" lon="10.4577050">
	<ele>2801.40</ele>
	<time>2023-08-09T07:05:02.000Z</time>
</trkpt>
<trkpt lat="46.1597590" lon="10.4577050">
	<ele>2801.20</ele>
	<time>2023-08-09T07:05:03.000Z</time>
</trkpt>
<trkpt lat="46.1597590" lon="10.4577050">
	<ele>2801.00</ele>
	<time>2023-08-09T07:05:04.000Z</time>
</trkpt>
<trkpt lat="46.1597590" lon="10.4577050">
	<ele>2800.80</ele>
	<time>2023-08-09T07:05:05.000Z</time>
</trkpt>
<trkpt lat="46.1597590" lon="10.4577050">
	<ele>2800.60</ele>
	<time>2023-08-09T07:05:06.000Z</time>
</trkpt>
<trkpt lat="46.1597600" lon="10.4577050">
	<ele>2800.40</ele>
	<time>2023-08-09T07:05:07.000Z</time>
</trkpt>
<trkpt lat="46.1597600" lon="10.4577050">
	<ele>2800.40</ele>
	<time>2023-08-09T07:05:08.000Z</time>
</trkpt>
<trkpt lat="46.1597600" lon="10.4577050">
	<ele>2800.40</ele>
	<time>2023-08-09T07:05:09.000Z</time>
</trkpt>
<trkpt lat="46.1597600" lon="10.4577050">
	<ele>2800.20</ele>
	<time>2023-08-09T07:05:10.000Z</time>
</trkpt>
<trkpt lat="46.1597600" lon="10.4577050">
	<ele>2800.20</ele>
	<time>2023-08-09T07:05:11.000Z</time>
</trkpt>
<trkpt lat="46.1597600" lon="10.4577050">
	<ele>2800.20</ele>
	<time>2023-08-09T07:05:12.000Z</time>
</trkpt>
<trkpt lat="46.1597660" lon="10.4577020">
	<ele>2800.20</ele>
	<time>2023-08-09T07:05:13.000Z</time>
</trkpt>
<trkpt lat="46.1597740" lon="10.4576970">
	<ele>2800.20</ele>
	<time>2023-08-09T07:05:14.000Z</time>
</trkpt>
<trkpt lat="46.1597870" lon="10.4576910">
	<ele>2800.00</ele>
	<time>2023-08-09T07:05:15.000Z</time>
</trkpt>
<trkpt lat="46.1597990" lon="10.4576820">
	<ele>2799.60</ele>
	<time>2023-08-09T07:05:16.000Z</time>
</trkpt>
<trkpt lat="46.1598080" lon="10.4576720">
	<ele>2799.40</ele>
	<time>2023-08-09T07:05:17.000Z</time>
</trkpt>
<trkpt lat="46.1598160" lon="10.4576640">
	<ele>2799.40</ele>
	<time>2023-08-09T07:05:18.000Z</time>
</trkpt>
<trkpt lat="46.1598300" lon="10.4576560">
	<ele>2799.20</ele>
	<time>2023-08-09T07:05:19.000Z</time>
</trkpt>
<trkpt lat="46.1598420" lon="10.4576490">
	<ele>2799.20</ele>
	<time>2023-08-09T07:05:20.000Z</time>
</trkpt>
<trkpt lat="46.1598500" lon="10.4576450">
	<ele>2799.20</ele>
	<time>2023-08-09T07:05:21.000Z</time>
</trkpt>
<trkpt lat="46.1598600" lon="10.4576370">
	<ele>2799.20</ele>
	<time>2023-08-09T07:05:22.000Z</time>
</trkpt>
<trkpt lat="46.1598570" lon="10.4576400">
	<ele>2799.00</ele>
	<time>2023-08-09T07:05:23.000Z</time>
</trkpt>
<trkpt lat="46.1598540" lon="10.4576340">
	<ele>2799.00</ele>
	<time>2023-08-09T07:05:24.000Z</time>
</trkpt>
<trkpt lat="46.1598520" lon="10.4576260">
	<ele>2798.80</ele>
	<time>2023-08-09T07:05:25.000Z</time>
</trkpt>
<trkpt lat="46.1598550" lon="10.4576190">
	<ele>2798.40</ele>
	<time>2023-08-09T07:05:26.000Z</time>
</trkpt>
<trkpt lat="46.1598570" lon="10.4576130">
	<ele>2798.20</ele>
	<time>2023-08-09T07:05:27.000Z</time>
</trkpt>
<trkpt lat="46.1598580" lon="10.4576050">
	<ele>2798.20</ele>
	<time>2023-08-09T07:05:28.000Z</time>
</trkpt>
<trkpt lat="46.1598630" lon="10.4575990">
	<ele>2798.00</ele>
	<time>2023-08-09T07:05:29.000Z</time>
</trkpt>
<trkpt lat="46.1598660" lon="10.4575860">
	<ele>2798.00</ele>
	<time>2023-08-09T07:05:30.000Z</time>
</trkpt>
<trkpt lat="46.1598640" lon="10.4575680">
	<ele>2797.80</ele>
	<time>2023-08-09T07:05:31.000Z</time>
</trkpt>
<trkpt lat="46.1598650" lon="10.4575580">
	<ele>2797.60</ele>
	<time>2023-08-09T07:05:32.000Z</time>
</trkpt>
<trkpt lat="46.1598630" lon="10.4575460">
	<ele>2797.60</ele>
	<time>2023-08-09T07:05:33.000Z</time>
</trkpt>
<trkpt lat="46.1598620" lon="10.4575400">
	<ele>2797.60</ele>
	<time>2023-08-09T07:05:34.000Z</time>
</trkpt>
<trkpt lat="46.1598600" lon="10.4575320">
	<ele>2797.60</ele>
	<time>2023-08-09T07:05:35.000Z</time>
</trkpt>
<trkpt lat="46.1598590" lon="10.4575260">
	<ele>2797.60</ele>
	<time>2023-08-09T07:05:36.000Z</time>
</trkpt>
<trkpt lat="46.1598560" lon="10.4575210">
	<ele>2797.80</ele>
	<time>2023-08-09T07:05:37.000Z</time>
</trkpt>
<trkpt lat="46.1598550" lon="10.4575110">
	<ele>2798.00</ele>
	<time>2023-08-09T07:05:38.000Z</time>
</trkpt>
<trkpt lat="46.1598530" lon="10.4575020">
	<ele>2798.20</ele>
	<time>2023-08-09T07:05:39.000Z</time>
</trkpt>
<trkpt lat="46.1598540" lon="10.4574940">
	<ele>2798.20</ele>
	<time>2023-08-09T07:05:40.000Z</time>
</trkpt>
<trkpt lat="46.1598540" lon="10.4574900">
	<ele>2798.20</ele>
	<time>2023-08-09T07:05:41.000Z</time>
</trkpt>
<trkpt lat="46.1598540" lon="10.4574860">
	<ele>2798.40</ele>
	<time>2023-08-09T07:05:42.000Z</time>
</trkpt>
<trkpt lat="46.1598550" lon="10.4574810">
	<ele>2798.40</ele>
	<time>2023-08-09T07:05:43.000Z</time>
</trkpt>
<trkpt lat="46.1598530" lon="10.4574690">
	<ele>2798.40</ele>
	<time>2023-08-09T07:05:44.000Z</time>
</trkpt>
<trkpt lat="46.1598550" lon="10.4574660">
	<ele>2798.40</ele>
	<time>2023-08-09T07:05:45.000Z</time>
</trkpt>
<trkpt lat="46.1598580" lon="10.4574610">
	<ele>2798.60</ele>
	<time>2023-08-09T07:05:46.000Z</time>
</trkpt>
<trkpt lat="46.1598620" lon="10.4574520">
	<ele>2798.80</ele>
	<time>2023-08-09T07:05:47.000Z</time>
</trkpt>
<trkpt lat="46.1598670" lon="10.4574430">
	<ele>2798.80</ele>
	<time>2023-08-09T07:05:48.000Z</time>
</trkpt>
<trkpt lat="46.1598680" lon="10.4574380">
	<ele>2798.80</ele>
	<time>2023-08-09T07:05:49.000Z</time>
</trkpt>
<trkpt lat="46.1598760" lon="10.4574310">
	<ele>2799.20</ele>
	<time>2023-08-09T07:05:50.000Z</time>
</trkpt>
<trkpt lat="46.1598760" lon="10.4574270">
	<ele>2799.40</ele>
	<time>2023-08-09T07:05:51.000Z</time>
</trkpt>
<trkpt lat="46.1598770" lon="10.4574230">
	<ele>2799.60</ele>
	<time>2023-08-09T07:05:52.000Z</time>
</trkpt>
<trkpt lat="46.1598780" lon="10.4574150">
	<ele>2799.80</ele>
	<time>2023-08-09T07:05:53.000Z</time>
</trkpt>
<trkpt lat="46.1598780" lon="10.4574100">
	<ele>2800.00</ele>
	<time>2023-08-09T07:05:54.000Z</time>
</trkpt>
<trkpt lat="46.1598770" lon="10.4574040">
	<ele>2800.00</ele>
	<time>2023-08-09T07:05:55.000Z</time>
</trkpt>
<trkpt lat="46.1598820" lon="10.4573970">
	<ele>2800.20</ele>
	<time>2023-08-09T07:05:56.000Z</time>
</trkpt>
<trkpt lat="46.1598820" lon="10.4573920">
	<ele>2800.20</ele>
	<time>2023-08-09T07:05:57.000Z</time>
</trkpt>
<trkpt lat="46.1598820" lon="10.4573890">
	<ele>2800.20</ele>
	<time>2023-08-09T07:05:58.000Z</time>
</trkpt>
<trkpt lat="46.1598820" lon="10.4573870">
	<ele>2800.40</ele>
	<time>2023-08-09T07:05:59.000Z</time>
</trkpt>
<trkpt lat="46.1598840" lon="10.4573850">
	<ele>2800.40</ele>
	<time>2023-08-09T07:06:00.000Z</time>
</trkpt>
<trkpt lat="46.1598800" lon="10.4573780">
	<ele>2800.40</ele>
	<time>2023-08-09T07:06:01.000Z</time>
</trkpt>
<trkpt lat="46.1598800" lon="10.4573760">
	<ele>2800.40</ele>
	<time>2023-08-09T07:06:02.000Z</time>
</trkpt>
<trkpt lat="46.1598800" lon="10.4573740">
	<ele>2800.60</ele>
	<time>2023-08-09T07:06:03.000Z</time>
</trkpt>
<trkpt lat="46.1598840" lon="10.4573620">
	<ele>2800.40</ele>
	<time>2023-08-09T07:06:04.000Z</time>
</trkpt>
<trkpt lat="46.1598850" lon="10.4573630">
	<ele>2800.40</ele>
	<time>2023-08-09T07:06:05.000Z</time>
</trkpt>
<trkpt lat="46.1598840" lon="10.4573610">
	<ele>2800.20</ele>
	<time>2023-08-09T07:06:06.000Z</time>
</trkpt>
<trkpt lat="46.1598840" lon="10.4573610">
	<ele>2800.20</ele>
	<time>2023-08-09T07:06:07.000Z</time>
</trkpt>
<trkpt lat="46.1598840" lon="10.4573610">
	<ele>2800.20</ele>
	<time>2023-08-09T07:06:08.000Z</time>
</trkpt>
<trkpt lat="46.1598840" lon="10.4573610">
	<ele>2800.20</ele>
	<time>2023-08-09T07:06:09.000Z</time>
</trkpt>
<trkpt lat="46.1598840" lon="10.4573610">
	<ele>2800.20</ele>
	<time>2023-08-09T07:06:10.000Z</time>
</trkpt>
<trkpt lat="46.1598840" lon="10.4573610">
	<ele>2800.20</ele>
	<time>2023-08-09T07:06:11.000Z</time>
</trkpt>
<trkpt lat="46.1598840" lon="10.4573610">
	<ele>2800.20</ele>
	<time>2023-08-09T07:06:12.000Z</time>
</trkpt>
<trkpt lat="46.1598840" lon="10.4573610">
	<ele>2800.20</ele>
	<time>2023-08-09T07:06:13.000Z</time>
</trkpt>
<trkpt lat="46.1598840" lon="10.4573610">
	<ele>2800.00</ele>
	<time>2023-08-09T07:06:14.000Z</time>
</trkpt>
<trkpt lat="46.1598840" lon="10.4573610">
	<ele>2800.00</ele>
	<time>2023-08-09T07:06:15.000Z</time>
</trkpt>
<trkpt lat="46.1598840" lon="10.4573610">
	<ele>2800.00</ele>
	<time>2023-08-09T07:06:16.000Z</time>
</trkpt>
<trkpt lat="46.1598840" lon="10.4573610">
	<ele>2799.60</ele>
	<time>2023-08-09T07:06:17.000Z</time>
</trkpt>
<trkpt lat="46.1598840" lon="10.4573610">
	<ele>2799.60</ele>
	<time>2023-08-09T07:06:18.000Z</time>
</trkpt>
<trkpt lat="46.1598840" lon="10.4573610">
	<ele>2799.60</ele>
	<time>2023-08-09T07:06:19.000Z</time>
</trkpt>
<trkpt lat="46.1598840" lon="10.4573610">
	<ele>2799.60</ele>
	<time>2023-08-09T07:06:20.000Z</time>
</trkpt>
<trkpt lat="46.1598850" lon="10.4573610">
	<ele>2799.60</ele>
	<time>2023-08-09T07:06:21.000Z</time>
</trkpt>
<trkpt lat="46.1598850" lon="10.4573610">
	<ele>2799.60</ele>
	<time>2023-08-09T07:06:22.000Z</time>
</trkpt>
<trkpt lat="46.1598850" lon="10.4573610">
	<ele>2799.60</ele>
	<time>2023-08-09T07:06:23.000Z</time>
</trkpt>
<trkpt lat="46.1598850" lon="10.4573600">
	<ele>2799.60</ele>
	<time>2023-08-09T07:06:24.000Z</time>
</trkpt>
<trkpt lat="46.1598860" lon="10.4573600">
	<ele>2799.60</ele>
	<time>2023-08-09T07:06:25.000Z</time>
</trkpt>
<trkpt lat="46.1598860" lon="10.4573600">
	<ele>2799.60</ele>
	<time>2023-08-09T07:06:26.000Z</time>
</trkpt>
<trkpt lat="46.1598860" lon="10.4573600">
	<ele>2799.60</ele>
	<time>2023-08-09T07:06:27.000Z</time>
</trkpt>
<trkpt lat="46.1598860" lon="10.4573600">
	<ele>2799.60</ele>
	<time>2023-08-09T07:06:28.000Z</time>
</trkpt>
<trkpt lat="46.1598860" lon="10.4573600">
	<ele>2799.60</ele>
	<time>2023-08-09T07:06:29.000Z</time>
</trkpt>
<trkpt lat="46.1598870" lon="10.4573600">
	<ele>2799.60</ele>
	<time>2023-08-09T07:06:30.000Z</time>
</trkpt>
<trkpt lat="46.1598870" lon="10.4573600">
	<ele>2799.60</ele>
	<time>2023-08-09T07:06:31.000Z</time>
</trkpt>
<trkpt lat="46.1598870" lon="10.4573590">
	<ele>2799.60</ele>
	<time>2023-08-09T07:06:32.000Z</time>
</trkpt>
<trkpt lat="46.1598880" lon="10.4573590">
	<ele>2799.60</ele>
	<time>2023-08-09T07:06:33.000Z</time>
</trkpt>
<trkpt lat="46.1598880" lon="10.4573590">
	<ele>2799.60</ele>
	<time>2023-08-09T07:06:34.000Z</time>
</trkpt>
<trkpt lat="46.1598880" lon="10.4573570">
	<ele>2799.60</ele>
	<time>2023-08-09T07:06:35.000Z</time>
</trkpt>
<trkpt lat="46.1598890" lon="10.4573540">
	<ele>2799.60</ele>
	<time>2023-08-09T07:06:36.000Z</time>
</trkpt>
<trkpt lat="46.1598900" lon="10.4573480">
	<ele>2799.60</ele>
	<time>2023-08-09T07:06:37.000Z</time>
</trkpt>
<trkpt lat="46.1598900" lon="10.4573450">
	<ele>2799.60</ele>
	<time>2023-08-09T07:06:38.000Z</time>
</trkpt>
<trkpt lat="46.1598900" lon="10.4573390">
	<ele>2799.60</ele>
	<time>2023-08-09T07:06:39.000Z</time>
</trkpt>
<trkpt lat="46.1598900" lon="10.4573350">
	<ele>2799.60</ele>
	<time>2023-08-09T07:06:40.000Z</time>
</trkpt>
<trkpt lat="46.1598910" lon="10.4573330">
	<ele>2799.60</ele>
	<time>2023-08-09T07:06:41.000Z</time>
</trkpt>
<trkpt lat="46.1598910" lon="10.4573250">
	<ele>2799.60</ele>
	<time>2023-08-09T07:06:42.000Z</time>
</trkpt>
<trkpt lat="46.1598910" lon="10.4573210">
	<ele>2799.60</ele>
	<time>2023-08-09T07:06:43.000Z</time>
</trkpt>
<trkpt lat="46.1598910" lon="10.4573190">
	<ele>2799.60</ele>
	<time>2023-08-09T07:06:44.000Z</time>
</trkpt>
<trkpt lat="46.1598910" lon="10.4573180">
	<ele>2799.60</ele>
	<time>2023-08-09T07:06:45.000Z</time>
</trkpt>
<trkpt lat="46.1598920" lon="10.4573160">
	<ele>2799.60</ele>
	<time>2023-08-09T07:06:46.000Z</time>
</trkpt>
<trkpt lat="46.1598920" lon="10.4573140">
	<ele>2799.60</ele>
	<time>2023-08-09T07:06:47.000Z</time>
</trkpt>
<trkpt lat="46.1598920" lon="10.4573100">
	<ele>2799.60</ele>
	<time>2023-08-09T07:06:48.000Z</time>
</trkpt>
<trkpt lat="46.1598920" lon="10.4573080">
	<ele>2799.60</ele>
	<time>2023-08-09T07:06:49.000Z</time>
</trkpt>
<trkpt lat="46.1598920" lon="10.4573080">
	<ele>2799.60</ele>
	<time>2023-08-09T07:06:50.000Z</time>
</trkpt>
<trkpt lat="46.1598930" lon="10.4573070">
	<ele>2799.60</ele>
	<time>2023-08-09T07:06:51.000Z</time>
</trkpt>
<trkpt lat="46.1598930" lon="10.4573070">
	<ele>2799.60</ele>
	<time>2023-08-09T07:06:52.000Z</time>
</trkpt>
<trkpt lat="46.1598930" lon="10.4573070">
	<ele>2799.60</ele>
	<time>2023-08-09T07:06:53.000Z</time>
</trkpt>
<trkpt lat="46.1598940" lon="10.4573070">
	<ele>2799.60</ele>
	<time>2023-08-09T07:06:54.000Z</time>
</trkpt>
<trkpt lat="46.1598950" lon="10.4573050">
	<ele>2799.60</ele>
	<time>2023-08-09T07:06:55.000Z</time>
</trkpt>
<trkpt lat="46.1598960" lon="10.4573030">
	<ele>2799.60</ele>
	<time>2023-08-09T07:06:56.000Z</time>
</trkpt>
<trkpt lat="46.1598970" lon="10.4573000">
	<ele>2799.60</ele>
	<time>2023-08-09T07:06:57.000Z</time>
</trkpt>
<trkpt lat="46.1598980" lon="10.4572990">
	<ele>2799.60</ele>
	<time>2023-08-09T07:06:58.000Z</time>
</trkpt>
<trkpt lat="46.1598990" lon="10.4572980">
	<ele>2799.60</ele>
	<time>2023-08-09T07:06:59.000Z</time>
</trkpt>
<trkpt lat="46.1599000" lon="10.4572960">
	<ele>2799.60</ele>
	<time>2023-08-09T07:07:00.000Z</time>
</trkpt>
<trkpt lat="46.1599000" lon="10.4572940">
	<ele>2799.60</ele>
	<time>2023-08-09T07:07:01.000Z</time>
</trkpt>
<trkpt lat="46.1599010" lon="10.4572920">
	<ele>2799.60</ele>
	<time>2023-08-09T07:07:02.000Z</time>
</trkpt>
<trkpt lat="46.1599010" lon="10.4572920">
	<ele>2799.60</ele>
	<time>2023-08-09T07:07:03.000Z</time>
</trkpt>
<trkpt lat="46.1599010" lon="10.4572910">
	<ele>2799.60</ele>
	<time>2023-08-09T07:07:04.000Z</time>
</trkpt>
<trkpt lat="46.1599010" lon="10.4572900">
	<ele>2799.60</ele>
	<time>2023-08-09T07:07:05.000Z</time>
</trkpt>
<trkpt lat="46.1599010" lon="10.4572870">
	<ele>2799.60</ele>
	<time>2023-08-09T07:07:06.000Z</time>
</trkpt>
<trkpt lat="46.1599010" lon="10.4572860">
	<ele>2799.60</ele>
	<time>2023-08-09T07:07:07.000Z</time>
</trkpt>
<trkpt lat="46.1599010" lon="10.4572840">
	<ele>2799.60</ele>
	<time>2023-08-09T07:07:08.000Z</time>
</trkpt>
<trkpt lat="46.1599020" lon="10.4572840">
	<ele>2799.60</ele>
	<time>2023-08-09T07:07:09.000Z</time>
</trkpt>
<trkpt lat="46.1599020" lon="10.4572830">
	<ele>2799.60</ele>
	<time>2023-08-09T07:07:10.000Z</time>
</trkpt>
<trkpt lat="46.1599030" lon="10.4572830">
	<ele>2799.60</ele>
	<time>2023-08-09T07:07:11.000Z</time>
</trkpt>
<trkpt lat="46.1599030" lon="10.4572830">
	<ele>2799.60</ele>
	<time>2023-08-09T07:07:12.000Z</time>
</trkpt>
<trkpt lat="46.1599030" lon="10.4572820">
	<ele>2799.60</ele>
	<time>2023-08-09T07:07:13.000Z</time>
</trkpt>
<trkpt lat="46.1599030" lon="10.4572810">
	<ele>2799.60</ele>
	<time>2023-08-09T07:07:14.000Z</time>
</trkpt>
<trkpt lat="46.1599030" lon="10.4572810">
	<ele>2799.60</ele>
	<time>2023-08-09T07:07:15.000Z</time>
</trkpt>
<trkpt lat="46.1599030" lon="10.4572810">
	<ele>2799.60</ele>
	<time>2023-08-09T07:07:16.000Z</time>
</trkpt>
<trkpt lat="46.1599030" lon="10.4572800">
	<ele>2799.60</ele>
	<time>2023-08-09T07:07:17.000Z</time>
</trkpt>
<trkpt lat="46.1599050" lon="10.4572750">
	<ele>2794.80</ele>
	<time>2023-08-09T07:07:18.000Z</time>
</trkpt>
<trkpt lat="46.1599100" lon="10.4572650">
	<ele>2794.80</ele>
	<time>2023-08-09T07:07:19.000Z</time>
</trkpt>
<trkpt lat="46.1599160" lon="10.4572540">
	<ele>2794.80</ele>
	<time>2023-08-09T07:07:20.000Z</time>
</trkpt>
<trkpt lat="46.1599190" lon="10.4572440">
	<ele>2794.80</ele>
	<time>2023-08-09T07:07:21.000Z</time>
</trkpt>
<trkpt lat="46.1599200" lon="10.4572350">
	<ele>2794.80</ele>
	<time>2023-08-09T07:07:22.000Z</time>
</trkpt>
<trkpt lat="46.1599290" lon="10.4572310">
	<ele>2794.80</ele>
	<time>2023-08-09T07:07:23.000Z</time>
</trkpt>
<trkpt lat="46.1599350" lon="10.4572270">
	<ele>2794.80</ele>
	<time>2023-08-09T07:07:24.000Z</time>
</trkpt>
<trkpt lat="46.1599470" lon="10.4572270">
	<ele>2795.00</ele>
	<time>2023-08-09T07:07:25.000Z</time>
</trkpt>
<trkpt lat="46.1599530" lon="10.4572210">
	<ele>2794.80</ele>
	<time>2023-08-09T07:07:26.000Z</time>
</trkpt>
<trkpt lat="46.1599520" lon="10.4572160">
	<ele>2794.80</ele>
	<time>2023-08-09T07:07:27.000Z</time>
</trkpt>
<trkpt lat="46.1599550" lon="10.4572180">
	<ele>2794.80</ele>
	<time>2023-08-09T07:07:28.000Z</time>
</trkpt>
<trkpt lat="46.1599580" lon="10.4572140">
	<ele>2794.60</ele>
	<time>2023-08-09T07:07:29.000Z</time>
</trkpt>
<trkpt lat="46.1599600" lon="10.4572100">
	<ele>2794.60</ele>
	<time>2023-08-09T07:07:30.000Z</time>
</trkpt>
<trkpt lat="46.1599620" lon="10.4572080">
	<ele>2794.40</ele>
	<time>2023-08-09T07:07:31.000Z</time>
</trkpt>
<trkpt lat="46.1599640" lon="10.4572050">
	<ele>2794.00</ele>
	<time>2023-08-09T07:07:32.000Z</time>
</trkpt>
<trkpt lat="46.1599650" lon="10.4572040">
	<ele>2794.00</ele>
	<time>2023-08-09T07:07:33.000Z</time>
</trkpt>
<trkpt lat="46.1599710" lon="10.4572010">
	<ele>2793.80</ele>
	<time>2023-08-09T07:07:34.000Z</time>
</trkpt>
<trkpt lat="46.1599760" lon="10.4571970">
	<ele>2793.60</ele>
	<time>2023-08-09T07:07:35.000Z</time>
</trkpt>
<trkpt lat="46.1599790" lon="10.4571930">
	<ele>2793.60</ele>
	<time>2023-08-09T07:07:36.000Z</time>
</trkpt>
<trkpt lat="46.1599820" lon="10.4571900">
	<ele>2793.60</ele>
	<time>2023-08-09T07:07:37.000Z</time>
</trkpt>
<trkpt lat="46.1599820" lon="10.4571870">
	<ele>2793.40</ele>
	<time>2023-08-09T07:07:38.000Z</time>
</trkpt>
<trkpt lat="46.1599820" lon="10.4571850">
	<ele>2793.40</ele>
	<time>2023-08-09T07:07:39.000Z</time>
</trkpt>
<trkpt lat="46.1599840" lon="10.4571830">
	<ele>2793.40</ele>
	<time>2023-08-09T07:07:40.000Z</time>
</trkpt>
<trkpt lat="46.1599890" lon="10.4571880">
	<ele>2793.20</ele>
	<time>2023-08-09T07:07:41.000Z</time>
</trkpt>
<trkpt lat="46.1599910" lon="10.4571890">
	<ele>2793.20</ele>
	<time>2023-08-09T07:07:42.000Z</time>
</trkpt>
<trkpt lat="46.1599930" lon="10.4571910">
	<ele>2793.00</ele>
	<time>2023-08-09T07:07:43.000Z</time>
</trkpt>
<trkpt lat="46.1599930" lon="10.4571940">
	<ele>2792.80</ele>
	<time>2023-08-09T07:07:44.000Z</time>
</trkpt>
<trkpt lat="46.1599980" lon="10.4572000">
	<ele>2792.60</ele>
	<time>2023-08-09T07:07:45.000Z</time>
</trkpt>
<trkpt lat="46.1599990" lon="10.4572040">
	<ele>2792.40</ele>
	<time>2023-08-09T07:07:46.000Z</time>
</trkpt>
<trkpt lat="46.1600010" lon="10.4572080">
	<ele>2792.00</ele>
	<time>2023-08-09T07:07:47.000Z</time>
</trkpt>
<trkpt lat="46.1600000" lon="10.4572060">
	<ele>2791.80</ele>
	<time>2023-08-09T07:07:48.000Z</time>
</trkpt>
<trkpt lat="46.1600030" lon="10.4572010">
	<ele>2791.80</ele>
	<time>2023-08-09T07:07:49.000Z</time>
</trkpt>
<trkpt lat="46.1600040" lon="10.4571970">
	<ele>2791.60</ele>
	<time>2023-08-09T07:07:50.000Z</time>
</trkpt>
<trkpt lat="46.1600020" lon="10.4571970">
	<ele>2791.60</ele>
	<time>2023-08-09T07:07:51.000Z</time>
</trkpt>
<trkpt lat="46.1600010" lon="10.4571960">
	<ele>2791.60</ele>
	<time>2023-08-09T07:07:52.000Z</time>
</trkpt>
<trkpt lat="46.1600030" lon="10.4571930">
	<ele>2791.40</ele>
	<time>2023-08-09T07:07:53.000Z</time>
</trkpt>
<trkpt lat="46.1600030" lon="10.4571860">
	<ele>2791.20</ele>
	<time>2023-08-09T07:07:54.000Z</time>
</trkpt>
<trkpt lat="46.1600030" lon="10.4571830">
	<ele>2791.20</ele>
	<time>2023-08-09T07:07:55.000Z</time>
</trkpt>
<trkpt lat="46.1600040" lon="10.4571800">
	<ele>2791.00</ele>
	<time>2023-08-09T07:07:56.000Z</time>
</trkpt>
<trkpt lat="46.1600030" lon="10.4571760">
	<ele>2791.00</ele>
	<time>2023-08-09T07:07:57.000Z</time>
</trkpt>
<trkpt lat="46.1600040" lon="10.4571740">
	<ele>2791.00</ele>
	<time>2023-08-09T07:07:58.000Z</time>
</trkpt>
<trkpt lat="46.1600030" lon="10.4571720">
	<ele>2790.80</ele>
	<time>2023-08-09T07:07:59.000Z</time>
</trkpt>
<trkpt lat="46.1600040" lon="10.4571740">
	<ele>2790.80</ele>
	<time>2023-08-09T07:08:00.000Z</time>
</trkpt>
<trkpt lat="46.1600050" lon="10.4571710">
	<ele>2790.60</ele>
	<time>2023-08-09T07:08:01.000Z</time>
</trkpt>
<trkpt lat="46.1600090" lon="10.4571700">
	<ele>2790.60</ele>
	<time>2023-08-09T07:08:02.000Z</time>
</trkpt>
<trkpt lat="46.1600130" lon="10.4571690">
	<ele>2790.60</ele>
	<time>2023-08-09T07:08:03.000Z</time>
</trkpt>
<trkpt lat="46.1600160" lon="10.4571700">
	<ele>2790.40</ele>
	<time>2023-08-09T07:08:04.000Z</time>
</trkpt>
<trkpt lat="46.1600120" lon="10.4571750">
	<ele>2790.20</ele>
	<time>2023-08-09T07:08:05.000Z</time>
</trkpt>
<trkpt lat="46.1600180" lon="10.4571780">
	<ele>2790.00</ele>
	<time>2023-08-09T07:08:06.000Z</time>
</trkpt>
<trkpt lat="46.1600180" lon="10.4571810">
	<ele>2789.80</ele>
	<time>2023-08-09T07:08:07.000Z</time>
</trkpt>
<trkpt lat="46.1600160" lon="10.4571900">
	<ele>2789.60</ele>
	<time>2023-08-09T07:08:08.000Z</time>
</trkpt>
<trkpt lat="46.1600110" lon="10.4571990">
	<ele>2789.60</ele>
	<time>2023-08-09T07:08:09.000Z</time>
</trkpt>
<trkpt lat="46.1600090" lon="10.4572090">
	<ele>2789.40</ele>
	<time>2023-08-09T07:08:10.000Z</time>
</trkpt>
<trkpt lat="46.1600050" lon="10.4572150">
	<ele>2789.40</ele>
	<time>2023-08-09T07:08:11.000Z</time>
</trkpt>
<trkpt lat="46.1600000" lon="10.4572190">
	<ele>2789.20</ele>
	<time>2023-08-09T07:08:12.000Z</time>
</trkpt>
<trkpt lat="46.1599980" lon="10.4572240">
	<ele>2789.20</ele>
	<time>2023-08-09T07:08:13.000Z</time>
</trkpt>
<trkpt lat="46.1599960" lon="10.4572300">
	<ele>2789.20</ele>
	<time>2023-08-09T07:08:14.000Z</time>
</trkpt>
<trkpt lat="46.1599940" lon="10.4572340">
	<ele>2789.00</ele>
	<time>2023-08-09T07:08:15.000Z</time>
</trkpt>
<trkpt lat="46.1599920" lon="10.4572380">
	<ele>2788.80</ele>
	<time>2023-08-09T07:08:16.000Z</time>
</trkpt>
<trkpt lat="46.1599910" lon="10.4572410">
	<ele>2788.60</ele>
	<time>2023-08-09T07:08:17.000Z</time>
</trkpt>
<trkpt lat="46.1599970" lon="10.4572440">
	<ele>2788.60</ele>
	<time>2023-08-09T07:08:18.000Z</time>
</trkpt>
<trkpt lat="46.1599990" lon="10.4572460">
	<ele>2788.40</ele>
	<time>2023-08-09T07:08:19.000Z</time>
</trkpt>
<trkpt lat="46.1599980" lon="10.4572490">
	<ele>2788.40</ele>
	<time>2023-08-09T07:08:20.000Z</time>
</trkpt>
<trkpt lat="46.1599970" lon="10.4572550">
	<ele>2788.40</ele>
	<time>2023-08-09T07:08:21.000Z</time>
</trkpt>
<trkpt lat="46.1599970" lon="10.4572590">
	<ele>2788.40</ele>
	<time>2023-08-09T07:08:22.000Z</time>
</trkpt>
<trkpt lat="46.1599960" lon="10.4572620">
	<ele>2788.20</ele>
	<time>2023-08-09T07:08:23.000Z</time>
</trkpt>
<trkpt lat="46.1600000" lon="10.4572680">
	<ele>2788.00</ele>
	<time>2023-08-09T07:08:24.000Z</time>
</trkpt>
<trkpt lat="46.1600030" lon="10.4572690">
	<ele>2787.80</ele>
	<time>2023-08-09T07:08:25.000Z</time>
</trkpt>
<trkpt lat="46.1600030" lon="10.4572720">
	<ele>2787.40</ele>
	<time>2023-08-09T07:08:26.000Z</time>
</trkpt>
<trkpt lat="46.1600030" lon="10.4572730">
	<ele>2787.40</ele>
	<time>2023-08-09T07:08:27.000Z</time>
</trkpt>
<trkpt lat="46.1600030" lon="10.4572780">
	<ele>2787.40</ele>
	<time>2023-08-09T07:08:28.000Z</time>
</trkpt>
<trkpt lat="46.1600070" lon="10.4572840">
	<ele>2787.20</ele>
	<time>2023-08-09T07:08:29.000Z</time>
</trkpt>
<trkpt lat="46.1600040" lon="10.4572890">
	<ele>2787.20</ele>
	<time>2023-08-09T07:08:30.000Z</time>
</trkpt>
<trkpt lat="46.1600020" lon="10.4572920">
	<ele>2787.00</ele>
	<time>2023-08-09T07:08:31.000Z</time>
</trkpt>
<trkpt lat="46.1600000" lon="10.4572960">
	<ele>2787.00</ele>
	<time>2023-08-09T07:08:32.000Z</time>
</trkpt>
<trkpt lat="46.1600000" lon="10.4573000">
	<ele>2786.80</ele>
	<time>2023-08-09T07:08:33.000Z</time>
</trkpt>
<trkpt lat="46.1599970" lon="10.4573060">
	<ele>2786.80</ele>
	<time>2023-08-09T07:08:34.000Z</time>
</trkpt>
<trkpt lat="46.1599980" lon="10.4573130">
	<ele>2786.40</ele>
	<time>2023-08-09T07:08:35.000Z</time>
</trkpt>
<trkpt lat="46.1599920" lon="10.4573170">
	<ele>2786.20</ele>
	<time>2023-08-09T07:08:36.000Z</time>
</trkpt>
<trkpt lat="46.1599860" lon="10.4573220">
	<ele>2786.20</ele>
	<time>2023-08-09T07:08:37.000Z</time>
</trkpt>
<trkpt lat="46.1599850" lon="10.4573250">
	<ele>2786.00</ele>
	<time>2023-08-09T07:08:38.000Z</time>
</trkpt>
<trkpt lat="46.1599820" lon="10.4573270">
	<ele>2786.00</ele>
	<time>2023-08-09T07:08:39.000Z</time>
</trkpt>
<trkpt lat="46.1599810" lon="10.4573330">
	<ele>2786.00</ele>
	<time>2023-08-09T07:08:40.000Z</time>
</trkpt>
<trkpt lat="46.1599760" lon="10.4573350">
	<ele>2785.80</ele>
	<time>2023-08-09T07:08:41.000Z</time>
</trkpt>
<trkpt lat="46.1599770" lon="10.4573400">
	<ele>2785.80</ele>
	<time>2023-08-09T07:08:42.000Z</time>
</trkpt>
<trkpt lat="46.1599750" lon="10.4573450">
	<ele>2785.60</ele>
	<time>2023-08-09T07:08:43.000Z</time>
</trkpt>
<trkpt lat="46.1599720" lon="10.4573490">
	<ele>2785.60</ele>
	<time>2023-08-09T07:08:44.000Z</time>
</trkpt>
<trkpt lat="46.1599730" lon="10.4573510">
	<ele>2785.40</ele>
	<time>2023-08-09T07:08:45.000Z</time>
</trkpt>
<trkpt lat="46.1599710" lon="10.4573530">
	<ele>2785.20</ele>
	<time>2023-08-09T07:08:46.000Z</time>
</trkpt>
<trkpt lat="46.1599680" lon="10.4573570">
	<ele>2785.00</ele>
	<time>2023-08-09T07:08:47.000Z</time>
</trkpt>
<trkpt lat="46.1599660" lon="10.4573590">
	<ele>2784.80</ele>
	<time>2023-08-09T07:08:48.000Z</time>
</trkpt>
<trkpt lat="46.1599670" lon="10.4573610">
	<ele>2784.60</ele>
	<time>2023-08-09T07:08:49.000Z</time>
</trkpt>
<trkpt lat="46.1599640" lon="10.4573640">
	<ele>2784.60</ele>
	<time>2023-08-09T07:08:50.000Z</time>
</trkpt>
<trkpt lat="46.1599670" lon="10.4573690">
	<ele>2784.40</ele>
	<time>2023-08-09T07:08:51.000Z</time>
</trkpt>
<trkpt lat="46.1599660" lon="10.4573700">
	<ele>2784.20</ele>
	<time>2023-08-09T07:08:52.000Z</time>
</trkpt>
<trkpt lat="46.1599670" lon="10.4573730">
	<ele>2784.20</ele>
	<time>2023-08-09T07:08:53.000Z</time>
</trkpt>
<trkpt lat="46.1599700" lon="10.4573730">
	<ele>2784.00</ele>
	<time>2023-08-09T07:08:54.000Z</time>
</trkpt>
<trkpt lat="46.1599700" lon="10.4573730">
	<ele>2783.80</ele>
	<time>2023-08-09T07:08:55.000Z</time>
</trkpt>
<trkpt lat="46.1599710" lon="10.4573730">
	<ele>2783.60</ele>
	<time>2023-08-09T07:08:56.000Z</time>
</trkpt>
<trkpt lat="46.1599710" lon="10.4573730">
	<ele>2783.60</ele>
	<time>2023-08-09T07:08:57.000Z</time>
</trkpt>
<trkpt lat="46.1599770" lon="10.4573780">
	<ele>2783.40</ele>
	<time>2023-08-09T07:08:58.000Z</time>
</trkpt>
<trkpt lat="46.1599790" lon="10.4573830">
	<ele>2783.20</ele>
	<time>2023-08-09T07:08:59.000Z</time>
</trkpt>
<trkpt lat="46.1599780" lon="10.4573860">
	<ele>2783.20</ele>
	<time>2023-08-09T07:09:00.000Z</time>
</trkpt>
<trkpt lat="46.1599770" lon="10.4573870">
	<ele>2783.20</ele>
	<time>2023-08-09T07:09:01.000Z</time>
</trkpt>
<trkpt lat="46.1599780" lon="10.4573890">
	<ele>2783.00</ele>
	<time>2023-08-09T07:09:02.000Z</time>
</trkpt>
<trkpt lat="46.1599770" lon="10.4573910">
	<ele>2783.00</ele>
	<time>2023-08-09T07:09:03.000Z</time>
</trkpt>
<trkpt lat="46.1599770" lon="10.4573930">
	<ele>2783.00</ele>
	<time>2023-08-09T07:09:04.000Z</time>
</trkpt>
<trkpt lat="46.1599760" lon="10.4573960">
	<ele>2782.80</ele>
	<time>2023-08-09T07:09:05.000Z</time>
</trkpt>
<trkpt lat="46.1599760" lon="10.4573960">
	<ele>2782.60</ele>
	<time>2023-08-09T07:09:06.000Z</time>
</trkpt>
<trkpt lat="46.1599770" lon="10.4573950">
	<ele>2782.40</ele>
	<time>2023-08-09T07:09:07.000Z</time>
</trkpt>
<trkpt lat="46.1599770" lon="10.4573970">
	<ele>2782.40</ele>
	<time>2023-08-09T07:09:08.000Z</time>
</trkpt>
<trkpt lat="46.1599740" lon="10.4573980">
	<ele>2782.20</ele>
	<time>2023-08-09T07:09:09.000Z</time>
</trkpt>
<trkpt lat="46.1599700" lon="10.4573940">
	<ele>2782.20</ele>
	<time>2023-08-09T07:09:10.000Z</time>
</trkpt>
<trkpt lat="46.1599680" lon="10.4573890">
	<ele>2782.20</ele>
	<time>2023-08-09T07:09:11.000Z</time>
</trkpt>
<trkpt lat="46.1599670" lon="10.4573870">
	<ele>2782.00</ele>
	<time>2023-08-09T07:09:12.000Z</time>
</trkpt>
<trkpt lat="46.1599690" lon="10.4573870">
	<ele>2782.00</ele>
	<time>2023-08-09T07:09:13.000Z</time>
</trkpt>
<trkpt lat="46.1599700" lon="10.4573870">
	<ele>2782.00</ele>
	<time>2023-08-09T07:09:14.000Z</time>
</trkpt>
<trkpt lat="46.1599720" lon="10.4573880">
	<ele>2781.80</ele>
	<time>2023-08-09T07:09:15.000Z</time>
</trkpt>
<trkpt lat="46.1599740" lon="10.4573920">
	<ele>2781.60</ele>
	<time>2023-08-09T07:09:16.000Z</time>
</trkpt>
<trkpt lat="46.1599700" lon="10.4573960">
	<ele>2781.40</ele>
	<time>2023-08-09T07:09:17.000Z</time>
</trkpt>
<trkpt lat="46.1599690" lon="10.4574010">
	<ele>2781.20</ele>
	<time>2023-08-09T07:09:18.000Z</time>
</trkpt>
<trkpt lat="46.1599680" lon="10.4574060">
	<ele>2781.00</ele>
	<time>2023-08-09T07:09:19.000Z</time>
</trkpt>
<trkpt lat="46.1599690" lon="10.4574100">
	<ele>2780.80</ele>
	<time>2023-08-09T07:09:20.000Z</time>
</trkpt>
<trkpt lat="46.1599640" lon="10.4574170">
	<ele>2780.60</ele>
	<time>2023-08-09T07:09:21.000Z</time>
</trkpt>
<trkpt lat="46.1599630" lon="10.4574250">
	<ele>2780.40</ele>
	<time>2023-08-09T07:09:22.000Z</time>
</trkpt>
<trkpt lat="46.1599650" lon="10.4574280">
	<ele>2780.40</ele>
	<time>2023-08-09T07:09:23.000Z</time>
</trkpt>
<trkpt lat="46.1599640" lon="10.4574310">
	<ele>2780.20</ele>
	<time>2023-08-09T07:09:24.000Z</time>
</trkpt>
<trkpt lat="46.1599670" lon="10.4574340">
	<ele>2780.00</ele>
	<time>2023-08-09T07:09:25.000Z</time>
</trkpt>
<trkpt lat="46.1599680" lon="10.4574330">
	<ele>2779.60</ele>
	<time>2023-08-09T07:09:26.000Z</time>
</trkpt>
<trkpt lat="46.1599690" lon="10.4574330">
	<ele>2779.60</ele>
	<time>2023-08-09T07:09:27.000Z</time>
</trkpt>
<trkpt lat="46.1599710" lon="10.4574340">
	<ele>2779.40</ele>
	<time>2023-08-09T07:09:28.000Z</time>
</trkpt>
<trkpt lat="46.1599810" lon="10.4574430">
	<ele>2779.40</ele>
	<time>2023-08-09T07:09:29.000Z</time>
</trkpt>
<trkpt lat="46.1599900" lon="10.4574450">
	<ele>2779.20</ele>
	<time>2023-08-09T07:09:30.000Z</time>
</trkpt>
<trkpt lat="46.1599930" lon="10.4574450">
	<ele>2779.20</ele>
	<time>2023-08-09T07:09:31.000Z</time>
</trkpt>
<trkpt lat="46.1599950" lon="10.4574460">
	<ele>2779.00</ele>
	<time>2023-08-09T07:09:32.000Z</time>
</trkpt>
<trkpt lat="46.1599960" lon="10.4574430">
	<ele>2778.80</ele>
	<time>2023-08-09T07:09:33.000Z</time>
</trkpt>
<trkpt lat="46.1599960" lon="10.4574420">
	<ele>2778.80</ele>
	<time>2023-08-09T07:09:34.000Z</time>
</trkpt>
<trkpt lat="46.1599930" lon="10.4574420">
	<ele>2778.60</ele>
	<time>2023-08-09T07:09:35.000Z</time>
</trkpt>
<trkpt lat="46.1599970" lon="10.4574440">
	<ele>2778.60</ele>
	<time>2023-08-09T07:09:36.000Z</time>
</trkpt>
<trkpt lat="46.1599990" lon="10.4574460">
	<ele>2778.40</ele>
	<time>2023-08-09T07:09:37.000Z</time>
</trkpt>
<trkpt lat="46.1599990" lon="10.4574480">
	<ele>2778.40</ele>
	<time>2023-08-09T07:09:38.000Z</time>
</trkpt>
<trkpt lat="46.1600050" lon="10.4574520">
	<ele>2778.20</ele>
	<time>2023-08-09T07:09:39.000Z</time>
</trkpt>
<trkpt lat="46.1600040" lon="10.4574560">
	<ele>2778.00</ele>
	<time>2023-08-09T07:09:40.000Z</time>
</trkpt>
<trkpt lat="46.1600040" lon="10.4574600">
	<ele>2778.00</ele>
	<time>2023-08-09T07:09:41.000Z</time>
</trkpt>
<trkpt lat="46.1600050" lon="10.4574630">
	<ele>2777.80</ele>
	<time>2023-08-09T07:09:42.000Z</time>
</trkpt>
<trkpt lat="46.1600060" lon="10.4574670">
	<ele>2777.60</ele>
	<time>2023-08-09T07:09:43.000Z</time>
</trkpt>
<trkpt lat="46.1600020" lon="10.4574710">
	<ele>2777.40</ele>
	<time>2023-08-09T07:09:44.000Z</time>
</trkpt>
<trkpt lat="46.1600000" lon="10.4574770">
	<ele>2777.20</ele>
	<time>2023-08-09T07:09:45.000Z</time>
</trkpt>
<trkpt lat="46.1599970" lon="10.4574810">
	<ele>2777.00</ele>
	<time>2023-08-09T07:09:46.000Z</time>
</trkpt>
<trkpt lat="46.1599960" lon="10.4574840">
	<ele>2776.60</ele>
	<time>2023-08-09T07:09:47.000Z</time>
</trkpt>
<trkpt lat="46.1599940" lon="10.4574920">
	<ele>2776.40</ele>
	<time>2023-08-09T07:09:48.000Z</time>
</trkpt>
<trkpt lat="46.1599910" lon="10.4574990">
	<ele>2776.20</ele>
	<time>2023-08-09T07:09:49.000Z</time>
</trkpt>
<trkpt lat="46.1599890" lon="10.4575050">
	<ele>2776.00</ele>
	<time>2023-08-09T07:09:50.000Z</time>
</trkpt>
<trkpt lat="46.1599900" lon="10.4575100">
	<ele>2775.80</ele>
	<time>2023-08-09T07:09:51.000Z</time>
</trkpt>
<trkpt lat="46.1599910" lon="10.4575150">
	<ele>2775.80</ele>
	<time>2023-08-09T07:09:52.000Z</time>
</trkpt>
<trkpt lat="46.1599960" lon="10.4575220">
	<ele>2775.60</ele>
	<time>2023-08-09T07:09:53.000Z</time>
</trkpt>
<trkpt lat="46.1599990" lon="10.4575270">
	<ele>2775.60</ele>
	<time>2023-08-09T07:09:54.000Z</time>
</trkpt>
<trkpt lat="46.1600050" lon="10.4575300">
	<ele>2775.40</ele>
	<time>2023-08-09T07:09:55.000Z</time>
</trkpt>
<trkpt lat="46.1600050" lon="10.4575330">
	<ele>2775.40</ele>
	<time>2023-08-09T07:09:56.000Z</time>
</trkpt>
<trkpt lat="46.1600070" lon="10.4575340">
	<ele>2775.20</ele>
	<time>2023-08-09T07:09:57.000Z</time>
</trkpt>
<trkpt lat="46.1600090" lon="10.4575370">
	<ele>2775.20</ele>
	<time>2023-08-09T07:09:58.000Z</time>
</trkpt>
<trkpt lat="46.1600170" lon="10.4575370">
	<ele>2775.20</ele>
	<time>2023-08-09T07:09:59.000Z</time>
</trkpt>
<trkpt lat="46.1600150" lon="10.4575370">
	<ele>2775.00</ele>
	<time>2023-08-09T07:10:00.000Z</time>
</trkpt>
<trkpt lat="46.1600160" lon="10.4575380">
	<ele>2774.80</ele>
	<time>2023-08-09T07:10:01.000Z</time>
</trkpt>
<trkpt lat="46.1600160" lon="10.4575400">
	<ele>2774.60</ele>
	<time>2023-08-09T07:10:02.000Z</time>
</trkpt>
<trkpt lat="46.1600170" lon="10.4575410">
	<ele>2774.20</ele>
	<time>2023-08-09T07:10:03.000Z</time>
</trkpt>
<trkpt lat="46.1600170" lon="10.4575410">
	<ele>2774.00</ele>
	<time>2023-08-09T07:10:04.000Z</time>
</trkpt>
<trkpt lat="46.1600170" lon="10.4575410">
	<ele>2773.80</ele>
	<time>2023-08-09T07:10:05.000Z</time>
</trkpt>
<trkpt lat="46.1600170" lon="10.4575410">
	<ele>2773.60</ele>
	<time>2023-08-09T07:10:06.000Z</time>
</trkpt>
<trkpt lat="46.1600170" lon="10.4575410">
	<ele>2773.60</ele>
	<time>2023-08-09T07:10:07.000Z</time>
</trkpt>
<trkpt lat="46.1600170" lon="10.4575410">
	<ele>2773.40</ele>
	<time>2023-08-09T07:10:08.000Z</time>
</trkpt>
<trkpt lat="46.1600170" lon="10.4575410">
	<ele>2773.20</ele>
	<time>2023-08-09T07:10:09.000Z</time>
</trkpt>
<trkpt lat="46.1600170" lon="10.4575410">
	<ele>2773.20</ele>
	<time>2023-08-09T07:10:10.000Z</time>
</trkpt>
<trkpt lat="46.1600170" lon="10.4575410">
	<ele>2773.20</ele>
	<time>2023-08-09T07:10:11.000Z</time>
</trkpt>
<trkpt lat="46.1600170" lon="10.4575410">
	<ele>2773.20</ele>
	<time>2023-08-09T07:10:12.000Z</time>
</trkpt>
<trkpt lat="46.1600170" lon="10.4575410">
	<ele>2773.00</ele>
	<time>2023-08-09T07:10:13.000Z</time>
</trkpt>
<trkpt lat="46.1600170" lon="10.4575410">
	<ele>2772.80</ele>
	<time>2023-08-09T07:10:14.000Z</time>
</trkpt>
<trkpt lat="46.1600170" lon="10.4575410">
	<ele>2772.80</ele>
	<time>2023-08-09T07:10:15.000Z</time>
</trkpt>
<trkpt lat="46.1600170" lon="10.4575410">
	<ele>2772.80</ele>
	<time>2023-08-09T07:10:16.000Z</time>
</trkpt>
<trkpt lat="46.1600170" lon="10.4575410">
	<ele>2772.80</ele>
	<time>2023-08-09T07:10:17.000Z</time>
</trkpt>
<trkpt lat="46.1600170" lon="10.4575410">
	<ele>2772.60</ele>
	<time>2023-08-09T07:10:18.000Z</time>
</trkpt>
<trkpt lat="46.1600170" lon="10.4575480">
	<ele>2772.60</ele>
	<time>2023-08-09T07:10:19.000Z</time>
</trkpt>
<trkpt lat="46.1600170" lon="10.4575500">
	<ele>2772.60</ele>
	<time>2023-08-09T07:10:20.000Z</time>
</trkpt>
<trkpt lat="46.1600180" lon="10.4575500">
	<ele>2772.60</ele>
	<time>2023-08-09T07:10:21.000Z</time>
</trkpt>
<trkpt lat="46.1600180" lon="10.4575510">
	<ele>2772.60</ele>
	<time>2023-08-09T07:10:22.000Z</time>
</trkpt>
<trkpt lat="46.1600200" lon="10.4575550">
	<ele>2772.40</ele>
	<time>2023-08-09T07:10:23.000Z</time>
</trkpt>
<trkpt lat="46.1600220" lon="10.4575590">
	<ele>2772.00</ele>
	<time>2023-08-09T07:10:24.000Z</time>
</trkpt>
<trkpt lat="46.1600240" lon="10.4575640">
	<ele>2771.80</ele>
	<time>2023-08-09T07:10:25.000Z</time>
</trkpt>
<trkpt lat="46.1600290" lon="10.4575740">
	<ele>2771.60</ele>
	<time>2023-08-09T07:10:26.000Z</time>
</trkpt>
<trkpt lat="46.1600340" lon="10.4575790">
	<ele>2771.40</ele>
	<time>2023-08-09T07:10:27.000Z</time>
</trkpt>
<trkpt lat="46.1600410" lon="10.4575910">
	<ele>2771.20</ele>
	<time>2023-08-09T07:10:28.000Z</time>
</trkpt>
<trkpt lat="46.1600460" lon="10.4576000">
	<ele>2771.00</ele>
	<time>2023-08-09T07:10:29.000Z</time>
</trkpt>
<trkpt lat="46.1600480" lon="10.4576060">
	<ele>2770.80</ele>
	<time>2023-08-09T07:10:30.000Z</time>
</trkpt>
<trkpt lat="46.1600530" lon="10.4576130">
	<ele>2770.80</ele>
	<time>2023-08-09T07:10:31.000Z</time>
</trkpt>
<trkpt lat="46.1600560" lon="10.4576190">
	<ele>2770.60</ele>
	<time>2023-08-09T07:10:32.000Z</time>
</trkpt>
<trkpt lat="46.1600490" lon="10.4576200">
	<ele>2770.60</ele>
	<time>2023-08-09T07:10:33.000Z</time>
</trkpt>
<trkpt lat="46.1600440" lon="10.4576230">
	<ele>2770.60</ele>
	<time>2023-08-09T07:10:34.000Z</time>
</trkpt>
<trkpt lat="46.1600430" lon="10.4576250">
	<ele>2770.40</ele>
	<time>2023-08-09T07:10:35.000Z</time>
</trkpt>
<trkpt lat="46.1600430" lon="10.4576270">
	<ele>2770.40</ele>
	<time>2023-08-09T07:10:36.000Z</time>
</trkpt>
<trkpt lat="46.1600430" lon="10.4576280">
	<ele>2770.20</ele>
	<time>2023-08-09T07:10:37.000Z</time>
</trkpt>
<trkpt lat="46.1600410" lon="10.4576300">
	<ele>2770.00</ele>
	<time>2023-08-09T07:10:38.000Z</time>
</trkpt>
<trkpt lat="46.1600420" lon="10.4576350">
	<ele>2769.80</ele>
	<time>2023-08-09T07:10:39.000Z</time>
</trkpt>
<trkpt lat="46.1600410" lon="10.4576380">
	<ele>2769.80</ele>
	<time>2023-08-09T07:10:40.000Z</time>
</trkpt>
<trkpt lat="46.1600360" lon="10.4576380">
	<ele>2769.80</ele>
	<time>2023-08-09T07:10:41.000Z</time>
</trkpt>
<trkpt lat="46.1600330" lon="10.4576390">
	<ele>2769.60</ele>
	<time>2023-08-09T07:10:42.000Z</time>
</trkpt>
<trkpt lat="46.1600300" lon="10.4576390">
	<ele>2769.60</ele>
	<time>2023-08-09T07:10:43.000Z</time>
</trkpt>
<trkpt lat="46.1600300" lon="10.4576390">
	<ele>2769.40</ele>
	<time>2023-08-09T07:10:44.000Z</time>
</trkpt>
<trkpt lat="46.1600300" lon="10.4576400">
	<ele>2769.40</ele>
	<time>2023-08-09T07:10:45.000Z</time>
</trkpt>
<trkpt lat="46.1600310" lon="10.4576450">
	<ele>2769.20</ele>
	<time>2023-08-09T07:10:46.000Z</time>
</trkpt>
<trkpt lat="46.1600330" lon="10.4576520">
	<ele>2769.20</ele>
	<time>2023-08-09T07:10:47.000Z</time>
</trkpt>
<trkpt lat="46.1600350" lon="10.4576540">
	<ele>2769.00</ele>
	<time>2023-08-09T07:10:48.000Z</time>
</trkpt>
<trkpt lat="46.1600360" lon="10.4576560">
	<ele>2768.80</ele>
	<time>2023-08-09T07:10:49.000Z</time>
</trkpt>
<trkpt lat="46.1600360" lon="10.4576570">
	<ele>2768.80</ele>
	<time>2023-08-09T07:10:50.000Z</time>
</trkpt>
<trkpt lat="46.1600360" lon="10.4576570">
	<ele>2768.60</ele>
	<time>2023-08-09T07:10:51.000Z</time>
</trkpt>
<trkpt lat="46.1600360" lon="10.4576570">
	<ele>2768.40</ele>
	<time>2023-08-09T07:10:52.000Z</time>
</trkpt>
<trkpt lat="46.1600360" lon="10.4576570">
	<ele>2768.40</ele>
	<time>2023-08-09T07:10:53.000Z</time>
</trkpt>
<trkpt lat="46.1600360" lon="10.4576570">
	<ele>2768.20</ele>
	<time>2023-08-09T07:10:54.000Z</time>
</trkpt>
<trkpt lat="46.1600360" lon="10.4576570">
	<ele>2768.20</ele>
	<time>2023-08-09T07:10:55.000Z</time>
</trkpt>
<trkpt lat="46.1600360" lon="10.4576570">
	<ele>2768.20</ele>
	<time>2023-08-09T07:10:56.000Z</time>
</trkpt>
<trkpt lat="46.1600360" lon="10.4576570">
	<ele>2768.20</ele>
	<time>2023-08-09T07:10:57.000Z</time>
</trkpt>
<trkpt lat="46.1600360" lon="10.4576570">
	<ele>2768.20</ele>
	<time>2023-08-09T07:10:58.000Z</time>
</trkpt>
<trkpt lat="46.1600360" lon="10.4576570">
	<ele>2768.00</ele>
	<time>2023-08-09T07:10:59.000Z</time>
</trkpt>
<trkpt lat="46.1600360" lon="10.4576570">
	<ele>2768.00</ele>
	<time>2023-08-09T07:11:00.000Z</time>
</trkpt>
<trkpt lat="46.1600360" lon="10.4576570">
	<ele>2767.80</ele>
	<time>2023-08-09T07:11:01.000Z</time>
</trkpt>
<trkpt lat="46.1600360" lon="10.4576570">
	<ele>2767.60</ele>
	<time>2023-08-09T07:11:02.000Z</time>
</trkpt>
<trkpt lat="46.1600360" lon="10.4576570">
	<ele>2767.40</ele>
	<time>2023-08-09T07:11:03.000Z</time>
</trkpt>
<trkpt lat="46.1600360" lon="10.4576570">
	<ele>2767.20</ele>
	<time>2023-08-09T07:11:04.000Z</time>
</trkpt>
<trkpt lat="46.1600360" lon="10.4576570">
	<ele>2767.20</ele>
	<time>2023-08-09T07:11:05.000Z</time>
</trkpt>
<trkpt lat="46.1600360" lon="10.4576580">
	<ele>2767.00</ele>
	<time>2023-08-09T07:11:06.000Z</time>
</trkpt>
<trkpt lat="46.1600360" lon="10.4576580">
	<ele>2767.00</ele>
	<time>2023-08-09T07:11:07.000Z</time>
</trkpt>
<trkpt lat="46.1600360" lon="10.4576590">
	<ele>2767.00</ele>
	<time>2023-08-09T07:11:08.000Z</time>
</trkpt>
<trkpt lat="46.1600360" lon="10.4576590">
	<ele>2767.00</ele>
	<time>2023-08-09T07:11:09.000Z</time>
</trkpt>
<trkpt lat="46.1600360" lon="10.4576610">
	<ele>2767.00</ele>
	<time>2023-08-09T07:11:10.000Z</time>
</trkpt>
<trkpt lat="46.1600360" lon="10.4576650">
	<ele>2767.00</ele>
	<time>2023-08-09T07:11:11.000Z</time>
</trkpt>
<trkpt lat="46.1600360" lon="10.4576660">
	<ele>2766.80</ele>
	<time>2023-08-09T07:11:12.000Z</time>
</trkpt>
<trkpt lat="46.1600360" lon="10.4576680">
	<ele>2766.80</ele>
	<time>2023-08-09T07:11:13.000Z</time>
</trkpt>
<trkpt lat="46.1600360" lon="10.4576690">
	<ele>2766.80</ele>
	<time>2023-08-09T07:11:14.000Z</time>
</trkpt>
<trkpt lat="46.1600360" lon="10.4576700">
	<ele>2766.80</ele>
	<time>2023-08-09T07:11:15.000Z</time>
</trkpt>
<trkpt lat="46.1600360" lon="10.4576710">
	<ele>2766.80</ele>
	<time>2023-08-09T07:11:16.000Z</time>
</trkpt>
<trkpt lat="46.1600360" lon="10.4576710">
	<ele>2766.80</ele>
	<time>2023-08-09T07:11:17.000Z</time>
</trkpt>
<trkpt lat="46.1600360" lon="10.4576740">
	<ele>2766.60</ele>
	<time>2023-08-09T07:11:18.000Z</time>
</trkpt>
<trkpt lat="46.1600360" lon="10.4576740">
	<ele>2766.40</ele>
	<time>2023-08-09T07:11:19.000Z</time>
</trkpt>
<trkpt lat="46.1600360" lon="10.4576770">
	<ele>2766.20</ele>
	<time>2023-08-09T07:11:20.000Z</time>
</trkpt>
<trkpt lat="46.1600360" lon="10.4576780">
	<ele>2766.00</ele>
	<time>2023-08-09T07:11:21.000Z</time>
</trkpt>
<trkpt lat="46.1600360" lon="10.4576790">
	<ele>2765.80</ele>
	<time>2023-08-09T07:11:22.000Z</time>
</trkpt>
<trkpt lat="46.1600370" lon="10.4576790">
	<ele>2765.80</ele>
	<time>2023-08-09T07:11:23.000Z</time>
</trkpt>
<trkpt lat="46.1600380" lon="10.4576820">
	<ele>2765.80</ele>
	<time>2023-08-09T07:11:24.000Z</time>
</trkpt>
<trkpt lat="46.1600380" lon="10.4576820">
	<ele>2765.60</ele>
	<time>2023-08-09T07:11:25.000Z</time>
</trkpt>
<trkpt lat="46.1600380" lon="10.4576830">
	<ele>2765.40</ele>
	<time>2023-08-09T07:11:26.000Z</time>
</trkpt>
<trkpt lat="46.1600380" lon="10.4576840">
	<ele>2765.40</ele>
	<time>2023-08-09T07:11:27.000Z</time>
</trkpt>
<trkpt lat="46.1600380" lon="10.4576870">
	<ele>2765.20</ele>
	<time>2023-08-09T07:11:28.000Z</time>
</trkpt>
<trkpt lat="46.1600380" lon="10.4576910">
	<ele>2765.00</ele>
	<time>2023-08-09T07:11:29.000Z</time>
</trkpt>
<trkpt lat="46.1600380" lon="10.4576930">
	<ele>2765.00</ele>
	<time>2023-08-09T07:11:30.000Z</time>
</trkpt>
<trkpt lat="46.1600380" lon="10.4576990">
	<ele>2764.80</ele>
	<time>2023-08-09T07:11:31.000Z</time>
</trkpt>
<trkpt lat="46.1600400" lon="10.4577000">
	<ele>2764.80</ele>
	<time>2023-08-09T07:11:32.000Z</time>
</trkpt>
<trkpt lat="46.1600410" lon="10.4577020">
	<ele>2764.60</ele>
	<time>2023-08-09T07:11:33.000Z</time>
</trkpt>
<trkpt lat="46.1600440" lon="10.4577030">
	<ele>2764.60</ele>
	<time>2023-08-09T07:11:34.000Z</time>
</trkpt>
<trkpt lat="46.1600450" lon="10.4577040">
	<ele>2764.60</ele>
	<time>2023-08-09T07:11:35.000Z</time>
</trkpt>
<trkpt lat="46.1600450" lon="10.4577050">
	<ele>2764.60</ele>
	<time>2023-08-09T07:11:36.000Z</time>
</trkpt>
<trkpt lat="46.1600450" lon="10.4577070">
	<ele>2764.60</ele>
	<time>2023-08-09T07:11:37.000Z</time>
</trkpt>
<trkpt lat="46.1600450" lon="10.4577090">
	<ele>2764.60</ele>
	<time>2023-08-09T07:11:38.000Z</time>
</trkpt>
<trkpt lat="46.1600450" lon="10.4577130">
	<ele>2764.60</ele>
	<time>2023-08-09T07:11:39.000Z</time>
</trkpt>
<trkpt lat="46.1600450" lon="10.4577150">
	<ele>2764.40</ele>
	<time>2023-08-09T07:11:40.000Z</time>
</trkpt>
<trkpt lat="46.1600450" lon="10.4577160">
	<ele>2764.40</ele>
	<time>2023-08-09T07:11:41.000Z</time>
</trkpt>
<trkpt lat="46.1600450" lon="10.4577170">
	<ele>2764.20</ele>
	<time>2023-08-09T07:11:42.000Z</time>
</trkpt>
<trkpt lat="46.1600460" lon="10.4577180">
	<ele>2764.20</ele>
	<time>2023-08-09T07:11:43.000Z</time>
</trkpt>
<trkpt lat="46.1600460" lon="10.4577180">
	<ele>2764.20</ele>
	<time>2023-08-09T07:11:44.000Z</time>
</trkpt>
<trkpt lat="46.1600470" lon="10.4577190">
	<ele>2764.00</ele>
	<time>2023-08-09T07:11:45.000Z</time>
</trkpt>
<trkpt lat="46.1600470" lon="10.4577200">
	<ele>2764.00</ele>
	<time>2023-08-09T07:11:46.000Z</time>
</trkpt>
<trkpt lat="46.1600480" lon="10.4577210">
	<ele>2764.00</ele>
	<time>2023-08-09T07:11:47.000Z</time>
</trkpt>
<trkpt lat="46.1600480" lon="10.4577210">
	<ele>2763.80</ele>
	<time>2023-08-09T07:11:48.000Z</time>
</trkpt>
<trkpt lat="46.1600480" lon="10.4577220">
	<ele>2763.60</ele>
	<time>2023-08-09T07:11:49.000Z</time>
</trkpt>
<trkpt lat="46.1600490" lon="10.4577220">
	<ele>2763.40</ele>
	<time>2023-08-09T07:11:50.000Z</time>
</trkpt>
<trkpt lat="46.1600490" lon="10.4577230">
	<ele>2763.40</ele>
	<time>2023-08-09T07:11:51.000Z</time>
</trkpt>
<trkpt lat="46.1600490" lon="10.4577240">
	<ele>2763.20</ele>
	<time>2023-08-09T07:11:52.000Z</time>
</trkpt>
<trkpt lat="46.1600490" lon="10.4577250">
	<ele>2763.20</ele>
	<time>2023-08-09T07:11:53.000Z</time>
</trkpt>
<trkpt lat="46.1600490" lon="10.4577250">
	<ele>2763.00</ele>
	<time>2023-08-09T07:11:54.000Z</time>
</trkpt>
<trkpt lat="46.1600480" lon="10.4577260">
	<ele>2762.80</ele>
	<time>2023-08-09T07:11:55.000Z</time>
</trkpt>
<trkpt lat="46.1600470" lon="10.4577290">
	<ele>2762.80</ele>
	<time>2023-08-09T07:11:56.000Z</time>
</trkpt>
<trkpt lat="46.1600470" lon="10.4577310">
	<ele>2762.60</ele>
	<time>2023-08-09T07:11:57.000Z</time>
</trkpt>
<trkpt lat="46.1600460" lon="10.4577320">
	<ele>2762.40</ele>
	<time>2023-08-09T07:11:58.000Z</time>
</trkpt>
<trkpt lat="46.1600460" lon="10.4577320">
	<ele>2762.40</ele>
	<time>2023-08-09T07:11:59.000Z</time>
</trkpt>
<trkpt lat="46.1600460" lon="10.4577340">
	<ele>2762.20</ele>
	<time>2023-08-09T07:12:00.000Z</time>
</trkpt>
<trkpt lat="46.1600460" lon="10.4577400">
	<ele>2762.00</ele>
	<time>2023-08-09T07:12:01.000Z</time>
</trkpt>
<trkpt lat="46.1600470" lon="10.4577430">
	<ele>2761.80</ele>
	<time>2023-08-09T07:12:02.000Z</time>
</trkpt>
<trkpt lat="46.1600480" lon="10.4577480">
	<ele>2761.60</ele>
	<time>2023-08-09T07:12:03.000Z</time>
</trkpt>
<trkpt lat="46.1600480" lon="10.4577520">
	<ele>2761.60</ele>
	<time>2023-08-09T07:12:04.000Z</time>
</trkpt>
<trkpt lat="46.1600490" lon="10.4577580">
	<ele>2761.60</ele>
	<time>2023-08-09T07:12:05.000Z</time>
</trkpt>
<trkpt lat="46.1600490" lon="10.4577620">
	<ele>2761.40</ele>
	<time>2023-08-09T07:12:06.000Z</time>
</trkpt>
<trkpt lat="46.1600500" lon="10.4577660">
	<ele>2761.20</ele>
	<time>2023-08-09T07:12:07.000Z</time>
</trkpt>
<trkpt lat="46.1600500" lon="10.4577700">
	<ele>2761.20</ele>
	<time>2023-08-09T07:12:08.000Z</time>
</trkpt>
<trkpt lat="46.1600500" lon="10.4577740">
	<ele>2761.00</ele>
	<time>2023-08-09T07:12:09.000Z</time>
</trkpt>
<trkpt lat="46.1600510" lon="10.4577790">
	<ele>2761.00</ele>
	<time>2023-08-09T07:12:10.000Z</time>
</trkpt>
<trkpt lat="46.1600520" lon="10.4577830">
	<ele>2761.00</ele>
	<time>2023-08-09T07:12:11.000Z</time>
</trkpt>
<trkpt lat="46.1600520" lon="10.4577870">
	<ele>2760.60</ele>
	<time>2023-08-09T07:12:12.000Z</time>
</trkpt>
<trkpt lat="46.1600520" lon="10.4577900">
	<ele>2760.60</ele>
	<time>2023-08-09T07:12:13.000Z</time>
</trkpt>
<trkpt lat="46.1600530" lon="10.4577940">
	<ele>2760.40</ele>
	<time>2023-08-09T07:12:14.000Z</time>
</trkpt>
<trkpt lat="46.1600530" lon="10.4577960">
	<ele>2760.20</ele>
	<time>2023-08-09T07:12:15.000Z</time>
</trkpt>
<trkpt lat="46.1600520" lon="10.4578000">
	<ele>2760.20</ele>
	<time>2023-08-09T07:12:16.000Z</time>
</trkpt>
<trkpt lat="46.1600460" lon="10.4578130">
	<ele>2760.00</ele>
	<time>2023-08-09T07:12:17.000Z</time>
</trkpt>
<trkpt lat="46.1600460" lon="10.4578240">
	<ele>2759.80</ele>
	<time>2023-08-09T07:12:18.000Z</time>
</trkpt>
<trkpt lat="46.1600460" lon="10.4578320">
	<ele>2759.80</ele>
	<time>2023-08-09T07:12:19.000Z</time>
</trkpt>
<trkpt lat="46.1600450" lon="10.4578410">
	<ele>2759.80</ele>
	<time>2023-08-09T07:12:20.000Z</time>
</trkpt>
<trkpt lat="46.1600430" lon="10.4578490">
	<ele>2759.80</ele>
	<time>2023-08-09T07:12:21.000Z</time>
</trkpt>
<trkpt lat="46.1600410" lon="10.4578560">
	<ele>2759.60</ele>
	<time>2023-08-09T07:12:22.000Z</time>
</trkpt>
<trkpt lat="46.1600400" lon="10.4578610">
	<ele>2759.40</ele>
	<time>2023-08-09T07:12:23.000Z</time>
</trkpt>
<trkpt lat="46.1600370" lon="10.4578650">
	<ele>2759.20</ele>
	<time>2023-08-09T07:12:24.000Z</time>
</trkpt>
<trkpt lat="46.1600370" lon="10.4578710">
	<ele>2759.20</ele>
	<time>2023-08-09T07:12:25.000Z</time>
</trkpt>
<trkpt lat="46.1600400" lon="10.4578690">
	<ele>2759.00</ele>
	<time>2023-08-09T07:12:26.000Z</time>
</trkpt>
<trkpt lat="46.1600410" lon="10.4578680">
	<ele>2759.00</ele>
	<time>2023-08-09T07:12:27.000Z</time>
</trkpt>
<trkpt lat="46.1600420" lon="10.4578680">
	<ele>2759.40</ele>
	<time>2023-08-09T07:12:28.000Z</time>
</trkpt>
<trkpt lat="46.1600420" lon="10.4578680">
	<ele>2759.40</ele>
	<time>2023-08-09T07:12:29.000Z</time>
</trkpt>
<trkpt lat="46.1600420" lon="10.4578680">
	<ele>2759.60</ele>
	<time>2023-08-09T07:12:30.000Z</time>
</trkpt>
<trkpt lat="46.1600420" lon="10.4578680">
	<ele>2759.60</ele>
	<time>2023-08-09T07:12:31.000Z</time>
</trkpt>
<trkpt lat="46.1600420" lon="10.4578680">
	<ele>2759.80</ele>
	<time>2023-08-09T07:12:32.000Z</time>
</trkpt>
<trkpt lat="46.1600420" lon="10.4578680">
	<ele>2759.80</ele>
	<time>2023-08-09T07:12:33.000Z</time>
</trkpt>
<trkpt lat="46.1600420" lon="10.4578680">
	<ele>2759.80</ele>
	<time>2023-08-09T07:12:34.000Z</time>
</trkpt>
<trkpt lat="46.1600420" lon="10.4578680">
	<ele>2759.80</ele>
	<time>2023-08-09T07:12:35.000Z</time>
</trkpt>
<trkpt lat="46.1600420" lon="10.4578680">
	<ele>2759.80</ele>
	<time>2023-08-09T07:12:36.000Z</time>
</trkpt>
<trkpt lat="46.1600420" lon="10.4578680">
	<ele>2759.80</ele>
	<time>2023-08-09T07:12:37.000Z</time>
</trkpt>
<trkpt lat="46.1600420" lon="10.4578680">
	<ele>2759.80</ele>
	<time>2023-08-09T07:12:38.000Z</time>
</trkpt>
<trkpt lat="46.1600420" lon="10.4578680">
	<ele>2759.80</ele>
	<time>2023-08-09T07:12:39.000Z</time>
</trkpt>
<trkpt lat="46.1600420" lon="10.4578680">
	<ele>2759.80</ele>
	<time>2023-08-09T07:12:40.000Z</time>
</trkpt>
<trkpt lat="46.1600420" lon="10.4578680">
	<ele>2759.80</ele>
	<time>2023-08-09T07:12:41.000Z</time>
</trkpt>
<trkpt lat="46.1600420" lon="10.4578680">
	<ele>2759.80</ele>
	<time>2023-08-09T07:12:42.000Z</time>
</trkpt>
<trkpt lat="46.1600420" lon="10.4578680">
	<ele>2759.80</ele>
	<time>2023-08-09T07:12:43.000Z</time>
</trkpt>
<trkpt lat="46.1600420" lon="10.4578680">
	<ele>2759.80</ele>
	<time>2023-08-09T07:12:44.000Z</time>
</trkpt>
<trkpt lat="46.1600430" lon="10.4578680">
	<ele>2759.80</ele>
	<time>2023-08-09T07:12:45.000Z</time>
</trkpt>
<trkpt lat="46.1600440" lon="10.4578680">
	<ele>2759.80</ele>
	<time>2023-08-09T07:12:46.000Z</time>
</trkpt>
<trkpt lat="46.1600450" lon="10.4578680">
	<ele>2759.80</ele>
	<time>2023-08-09T07:12:47.000Z</time>
</trkpt>
<trkpt lat="46.1600450" lon="10.4578680">
	<ele>2759.80</ele>
	<time>2023-08-09T07:12:48.000Z</time>
</trkpt>
<trkpt lat="46.1600450" lon="10.4578680">
	<ele>2759.80</ele>
	<time>2023-08-09T07:12:49.000Z</time>
</trkpt>
<trkpt lat="46.1600450" lon="10.4578680">
	<ele>2759.80</ele>
	<time>2023-08-09T07:12:50.000Z</time>
</trkpt>
<trkpt lat="46.1600460" lon="10.4578690">
	<ele>2759.80</ele>
	<time>2023-08-09T07:12:51.000Z</time>
</trkpt>
<trkpt lat="46.1600460" lon="10.4578690">
	<ele>2759.80</ele>
	<time>2023-08-09T07:12:52.000Z</time>
</trkpt>
<trkpt lat="46.1600460" lon="10.4578690">
	<ele>2759.80</ele>
	<time>2023-08-09T07:12:53.000Z</time>
</trkpt>
<trkpt lat="46.1600460" lon="10.4578690">
	<ele>2759.80</ele>
	<time>2023-08-09T07:12:54.000Z</time>
</trkpt>
<trkpt lat="46.1600460" lon="10.4578690">
	<ele>2759.80</ele>
	<time>2023-08-09T07:12:55.000Z</time>
</trkpt>
<trkpt lat="46.1600470" lon="10.4578680">
	<ele>2759.60</ele>
	<time>2023-08-09T07:12:56.000Z</time>
</trkpt>
<trkpt lat="46.1600470" lon="10.4578680">
	<ele>2759.40</ele>
	<time>2023-08-09T07:12:57.000Z</time>
</trkpt>
<trkpt lat="46.1600470" lon="10.4578680">
	<ele>2759.40</ele>
	<time>2023-08-09T07:12:58.000Z</time>
</trkpt>
<trkpt lat="46.1600470" lon="10.4578680">
	<ele>2759.20</ele>
	<time>2023-08-09T07:12:59.000Z</time>
</trkpt>
<trkpt lat="46.1600470" lon="10.4578680">
	<ele>2759.40</ele>
	<time>2023-08-09T07:13:00.000Z</time>
</trkpt>
<trkpt lat="46.1600470" lon="10.4578680">
	<ele>2759.40</ele>
	<time>2023-08-09T07:13:01.000Z</time>
</trkpt>
<trkpt lat="46.1600470" lon="10.4578680">
	<ele>2759.60</ele>
	<time>2023-08-09T07:13:02.000Z</time>
</trkpt>
<trkpt lat="46.1600470" lon="10.4578690">
	<ele>2759.60</ele>
	<time>2023-08-09T07:13:03.000Z</time>
</trkpt>
<trkpt lat="46.1600470" lon="10.4578690">
	<ele>2759.80</ele>
	<time>2023-08-09T07:13:04.000Z</time>
</trkpt>
<trkpt lat="46.1600470" lon="10.4578690">
	<ele>2760.00</ele>
	<time>2023-08-09T07:13:05.000Z</time>
</trkpt>
<trkpt lat="46.1600480" lon="10.4578690">
	<ele>2759.80</ele>
	<time>2023-08-09T07:13:06.000Z</time>
</trkpt>
<trkpt lat="46.1600480" lon="10.4578690">
	<ele>2759.80</ele>
	<time>2023-08-09T07:13:07.000Z</time>
</trkpt>
<trkpt lat="46.1600480" lon="10.4578690">
	<ele>2759.80</ele>
	<time>2023-08-09T07:13:08.000Z</time>
</trkpt>
<trkpt lat="46.1600480" lon="10.4578690">
	<ele>2759.80</ele>
	<time>2023-08-09T07:13:09.000Z</time>
</trkpt>
<trkpt lat="46.1600480" lon="10.4578690">
	<ele>2759.80</ele>
	<time>2023-08-09T07:13:10.000Z</time>
</trkpt>
<trkpt lat="46.1600500" lon="10.4578690">
	<ele>2759.60</ele>
	<time>2023-08-09T07:13:11.000Z</time>
</trkpt>
<trkpt lat="46.1600550" lon="10.4578690">
	<ele>2759.60</ele>
	<time>2023-08-09T07:13:12.000Z</time>
</trkpt>
<trkpt lat="46.1600580" lon="10.4578690">
	<ele>2759.40</ele>
	<time>2023-08-09T07:13:13.000Z</time>
</trkpt>
<trkpt lat="46.1600600" lon="10.4578690">
	<ele>2759.40</ele>
	<time>2023-08-09T07:13:14.000Z</time>
</trkpt>
<trkpt lat="46.1600600" lon="10.4578690">
	<ele>2759.20</ele>
	<time>2023-08-09T07:13:15.000Z</time>
</trkpt>
<trkpt lat="46.1600600" lon="10.4578690">
	<ele>2759.20</ele>
	<time>2023-08-09T07:13:16.000Z</time>
</trkpt>
<trkpt lat="46.1600600" lon="10.4578690">
	<ele>2759.20</ele>
	<time>2023-08-09T07:13:17.000Z</time>
</trkpt>
<trkpt lat="46.1600600" lon="10.4578690">
	<ele>2759.20</ele>
	<time>2023-08-09T07:13:18.000Z</time>
</trkpt>
<trkpt lat="46.1600600" lon="10.4578690">
	<ele>2759.20</ele>
	<time>2023-08-09T07:13:19.000Z</time>
</trkpt>
<trkpt lat="46.1600610" lon="10.4578690">
	<ele>2759.00</ele>
	<time>2023-08-09T07:13:20.000Z</time>
</trkpt>
<trkpt lat="46.1600610" lon="10.4578690">
	<ele>2759.00</ele>
	<time>2023-08-09T07:13:21.000Z</time>
</trkpt>
<trkpt lat="46.1600610" lon="10.4578690">
	<ele>2759.00</ele>
	<time>2023-08-09T07:13:22.000Z</time>
</trkpt>
<trkpt lat="46.1600610" lon="10.4578700">
	<ele>2759.00</ele>
	<time>2023-08-09T07:13:23.000Z</time>
</trkpt>
<trkpt lat="46.1600610" lon="10.4578700">
	<ele>2758.80</ele>
	<time>2023-08-09T07:13:24.000Z</time>
</trkpt>
<trkpt lat="46.1600610" lon="10.4578710">
	<ele>2758.80</ele>
	<time>2023-08-09T07:13:25.000Z</time>
</trkpt>
<trkpt lat="46.1600620" lon="10.4578710">
	<ele>2758.80</ele>
	<time>2023-08-09T07:13:26.000Z</time>
</trkpt>
<trkpt lat="46.1600620" lon="10.4578710">
	<ele>2758.80</ele>
	<time>2023-08-09T07:13:27.000Z</time>
</trkpt>
<trkpt lat="46.1600620" lon="10.4578710">
	<ele>2758.80</ele>
	<time>2023-08-09T07:13:28.000Z</time>
</trkpt>
<trkpt lat="46.1600620" lon="10.4578710">
	<ele>2758.80</ele>
	<time>2023-08-09T07:13:29.000Z</time>
</trkpt>
<trkpt lat="46.1600630" lon="10.4578710">
	<ele>2758.80</ele>
	<time>2023-08-09T07:13:30.000Z</time>
</trkpt>
<trkpt lat="46.1600640" lon="10.4578720">
	<ele>2758.80</ele>
	<time>2023-08-09T07:13:31.000Z</time>
</trkpt>
<trkpt lat="46.1600640" lon="10.4578730">
	<ele>2758.80</ele>
	<time>2023-08-09T07:13:32.000Z</time>
</trkpt>
<trkpt lat="46.1600640" lon="10.4578740">
	<ele>2758.80</ele>
	<time>2023-08-09T07:13:33.000Z</time>
</trkpt>
<trkpt lat="46.1600660" lon="10.4578740">
	<ele>2758.80</ele>
	<time>2023-08-09T07:13:34.000Z</time>
</trkpt>
<trkpt lat="46.1600660" lon="10.4578740">
	<ele>2758.80</ele>
	<time>2023-08-09T07:13:35.000Z</time>
</trkpt>
<trkpt lat="46.1600660" lon="10.4578740">
	<ele>2758.80</ele>
	<time>2023-08-09T07:13:36.000Z</time>
</trkpt>
<trkpt lat="46.1600670" lon="10.4578750">
	<ele>2758.80</ele>
	<time>2023-08-09T07:13:37.000Z</time>
</trkpt>
<trkpt lat="46.1600670" lon="10.4578760">
	<ele>2758.80</ele>
	<time>2023-08-09T07:13:38.000Z</time>
</trkpt>
<trkpt lat="46.1600670" lon="10.4578810">
	<ele>2758.80</ele>
	<time>2023-08-09T07:13:39.000Z</time>
</trkpt>
<trkpt lat="46.1600680" lon="10.4578840">
	<ele>2758.80</ele>
	<time>2023-08-09T07:13:40.000Z</time>
</trkpt>
<trkpt lat="46.1600690" lon="10.4578850">
	<ele>2758.80</ele>
	<time>2023-08-09T07:13:41.000Z</time>
</trkpt>
<trkpt lat="46.1600690" lon="10.4578870">
	<ele>2758.80</ele>
	<time>2023-08-09T07:13:42.000Z</time>
</trkpt>
<trkpt lat="46.1600700" lon="10.4578900">
	<ele>2758.80</ele>
	<time>2023-08-09T07:13:43.000Z</time>
</trkpt>
<trkpt lat="46.1600700" lon="10.4578930">
	<ele>2758.80</ele>
	<time>2023-08-09T07:13:44.000Z</time>
</trkpt>
<trkpt lat="46.1600710" lon="10.4578950">
	<ele>2758.80</ele>
	<time>2023-08-09T07:13:45.000Z</time>
</trkpt>
<trkpt lat="46.1600720" lon="10.4578960">
	<ele>2758.80</ele>
	<time>2023-08-09T07:13:46.000Z</time>
</trkpt>
<trkpt lat="46.1600720" lon="10.4578980">
	<ele>2758.80</ele>
	<time>2023-08-09T07:13:47.000Z</time>
</trkpt>
<trkpt lat="46.1600730" lon="10.4579020">
	<ele>2758.80</ele>
	<time>2023-08-09T07:13:48.000Z</time>
</trkpt>
<trkpt lat="46.1600740" lon="10.4579050">
	<ele>2758.80</ele>
	<time>2023-08-09T07:13:49.000Z</time>
</trkpt>
<trkpt lat="46.1600750" lon="10.4579080">
	<ele>2758.80</ele>
	<time>2023-08-09T07:13:50.000Z</time>
</trkpt>
<trkpt lat="46.1600760" lon="10.4579120">
	<ele>2758.80</ele>
	<time>2023-08-09T07:13:51.000Z</time>
</trkpt>
<trkpt lat="46.1600780" lon="10.4579160">
	<ele>2758.80</ele>
	<time>2023-08-09T07:13:52.000Z</time>
</trkpt>
<trkpt lat="46.1600780" lon="10.4579190">
	<ele>2758.80</ele>
	<time>2023-08-09T07:13:53.000Z</time>
</trkpt>
<trkpt lat="46.1600790" lon="10.4579220">
	<ele>2758.80</ele>
	<time>2023-08-09T07:13:54.000Z</time>
</trkpt>
<trkpt lat="46.1600790" lon="10.4579240">
	<ele>2758.80</ele>
	<time>2023-08-09T07:13:55.000Z</time>
</trkpt>
<trkpt lat="46.1600790" lon="10.4579270">
	<ele>2758.80</ele>
	<time>2023-08-09T07:13:56.000Z</time>
</trkpt>
<trkpt lat="46.1600790" lon="10.4579300">
	<ele>2758.80</ele>
	<time>2023-08-09T07:13:57.000Z</time>
</trkpt>
<trkpt lat="46.1600830" lon="10.4579340">
	<ele>2758.80</ele>
	<time>2023-08-09T07:13:58.000Z</time>
</trkpt>
<trkpt lat="46.1600870" lon="10.4579380">
	<ele>2758.80</ele>
	<time>2023-08-09T07:13:59.000Z</time>
</trkpt>
<trkpt lat="46.1600890" lon="10.4579420">
	<ele>2758.80</ele>
	<time>2023-08-09T07:14:00.000Z</time>
</trkpt>
<trkpt lat="46.1600910" lon="10.4579460">
	<ele>2758.80</ele>
	<time>2023-08-09T07:14:01.000Z</time>
</trkpt>
<trkpt lat="46.1600930" lon="10.4579490">
	<ele>2758.80</ele>
	<time>2023-08-09T07:14:02.000Z</time>
</trkpt>
<trkpt lat="46.1600960" lon="10.4579530">
	<ele>2758.80</ele>
	<time>2023-08-09T07:14:03.000Z</time>
</trkpt>
<trkpt lat="46.1600990" lon="10.4579580">
	<ele>2758.80</ele>
	<time>2023-08-09T07:14:04.000Z</time>
</trkpt>
<trkpt lat="46.1601020" lon="10.4579630">
	<ele>2758.80</ele>
	<time>2023-08-09T07:14:05.000Z</time>
</trkpt>
<trkpt lat="46.1601050" lon="10.4579680">
	<ele>2758.80</ele>
	<time>2023-08-09T07:14:06.000Z</time>
</trkpt>
<trkpt lat="46.1601070" lon="10.4579710">
	<ele>2758.80</ele>
	<time>2023-08-09T07:14:07.000Z</time>
</trkpt>
<trkpt lat="46.1601110" lon="10.4579730">
	<ele>2758.80</ele>
	<time>2023-08-09T07:14:08.000Z</time>
</trkpt>
<trkpt lat="46.1601130" lon="10.4579740">
	<ele>2758.80</ele>
	<time>2023-08-09T07:14:09.000Z</time>
</trkpt>
<trkpt lat="46.1601150" lon="10.4579750">
	<ele>2758.80</ele>
	<time>2023-08-09T07:14:10.000Z</time>
</trkpt>
<trkpt lat="46.1601170" lon="10.4579750">
	<ele>2758.80</ele>
	<time>2023-08-09T07:14:11.000Z</time>
</trkpt>
<trkpt lat="46.1601190" lon="10.4579750">
	<ele>2758.80</ele>
	<time>2023-08-09T07:14:12.000Z</time>
</trkpt>
<trkpt lat="46.1601200" lon="10.4579760">
	<ele>2758.80</ele>
	<time>2023-08-09T07:14:13.000Z</time>
</trkpt>
<trkpt lat="46.1601210" lon="10.4579760">
	<ele>2758.80</ele>
	<time>2023-08-09T07:14:14.000Z</time>
</trkpt>
<trkpt lat="46.1601210" lon="10.4579770">
	<ele>2758.80</ele>
	<time>2023-08-09T07:14:15.000Z</time>
</trkpt>
<trkpt lat="46.1601240" lon="10.4579780">
	<ele>2758.80</ele>
	<time>2023-08-09T07:14:16.000Z</time>
</trkpt>
<trkpt lat="46.1601260" lon="10.4579810">
	<ele>2758.80</ele>
	<time>2023-08-09T07:14:17.000Z</time>
</trkpt>
<trkpt lat="46.1601300" lon="10.4579830">
	<ele>2758.80</ele>
	<time>2023-08-09T07:14:18.000Z</time>
</trkpt>
<trkpt lat="46.1601320" lon="10.4579840">
	<ele>2758.80</ele>
	<time>2023-08-09T07:14:19.000Z</time>
</trkpt>
<trkpt lat="46.1601340" lon="10.4579850">
	<ele>2758.80</ele>
	<time>2023-08-09T07:14:20.000Z</time>
</trkpt>
<trkpt lat="46.1601360" lon="10.4579860">
	<ele>2758.80</ele>
	<time>2023-08-09T07:14:21.000Z</time>
</trkpt>
<trkpt lat="46.1601370" lon="10.4579870">
	<ele>2758.80</ele>
	<time>2023-08-09T07:14:22.000Z</time>
</trkpt>
<trkpt lat="46.1601390" lon="10.4579880">
	<ele>2758.80</ele>
	<time>2023-08-09T07:14:23.000Z</time>
</trkpt>
<trkpt lat="46.1601410" lon="10.4579880">
	<ele>2758.80</ele>
	<time>2023-08-09T07:14:24.000Z</time>
</trkpt>
<trkpt lat="46.1601450" lon="10.4579890">
	<ele>2750.40</ele>
	<time>2023-08-09T07:14:25.000Z</time>
</trkpt>
<trkpt lat="46.1601480" lon="10.4579900">
	<ele>2750.40</ele>
	<time>2023-08-09T07:14:26.000Z</time>
</trkpt>
<trkpt lat="46.1601500" lon="10.4579910">
	<ele>2750.40</ele>
	<time>2023-08-09T07:14:27.000Z</time>
</trkpt>
<trkpt lat="46.1601530" lon="10.4579910">
	<ele>2750.40</ele>
	<time>2023-08-09T07:14:28.000Z</time>
</trkpt>
<trkpt lat="46.1601550" lon="10.4579930">
	<ele>2750.20</ele>
	<time>2023-08-09T07:14:29.000Z</time>
</trkpt>
<trkpt lat="46.1601580" lon="10.4579950">
	<ele>2750.00</ele>
	<time>2023-08-09T07:14:30.000Z</time>
</trkpt>
<trkpt lat="46.1601600" lon="10.4579990">
	<ele>2749.80</ele>
	<time>2023-08-09T07:14:31.000Z</time>
</trkpt>
<trkpt lat="46.1601620" lon="10.4580030">
	<ele>2749.60</ele>
	<time>2023-08-09T07:14:32.000Z</time>
</trkpt>
<trkpt lat="46.1601630" lon="10.4580060">
	<ele>2749.40</ele>
	<time>2023-08-09T07:14:33.000Z</time>
</trkpt>
<trkpt lat="46.1601640" lon="10.4580080">
	<ele>2749.20</ele>
	<time>2023-08-09T07:14:34.000Z</time>
</trkpt>
<trkpt lat="46.1601660" lon="10.4580110">
	<ele>2749.00</ele>
	<time>2023-08-09T07:14:35.000Z</time>
</trkpt>
<trkpt lat="46.1601680" lon="10.4580150">
	<ele>2749.00</ele>
	<time>2023-08-09T07:14:36.000Z</time>
</trkpt>
<trkpt lat="46.1601710" lon="10.4580180">
	<ele>2748.80</ele>
	<time>2023-08-09T07:14:37.000Z</time>
</trkpt>
<trkpt lat="46.1601730" lon="10.4580200">
	<ele>2748.60</ele>
	<time>2023-08-09T07:14:38.000Z</time>
</trkpt>
<trkpt lat="46.1601750" lon="10.4580220">
	<ele>2748.40</ele>
	<time>2023-08-09T07:14:39.000Z</time>
</trkpt>
<trkpt lat="46.1601770" lon="10.4580250">
	<ele>2748.40</ele>
	<time>2023-08-09T07:14:40.000Z</time>
</trkpt>
<trkpt lat="46.1601790" lon="10.4580280">
	<ele>2748.20</ele>
	<time>2023-08-09T07:14:41.000Z</time>
</trkpt>
<trkpt lat="46.1601800" lon="10.4580310">
	<ele>2748.20</ele>
	<time>2023-08-09T07:14:42.000Z</time>
</trkpt>
<trkpt lat="46.1601810" lon="10.4580340">
	<ele>2748.20</ele>
	<time>2023-08-09T07:14:43.000Z</time>
</trkpt>
<trkpt lat="46.1601810" lon="10.4580370">
	<ele>2748.20</ele>
	<time>2023-08-09T07:14:44.000Z</time>
</trkpt>
<trkpt lat="46.1601810" lon="10.4580410">
	<ele>2748.00</ele>
	<time>2023-08-09T07:14:45.000Z</time>
</trkpt>
<trkpt lat="46.1601810" lon="10.4580450">
	<ele>2747.80</ele>
	<time>2023-08-09T07:14:46.000Z</time>
</trkpt>
<trkpt lat="46.1601820" lon="10.4580500">
	<ele>2747.60</ele>
	<time>2023-08-09T07:14:47.000Z</time>
</trkpt>
<trkpt lat="46.1601820" lon="10.4580560">
	<ele>2747.60</ele>
	<time>2023-08-09T07:14:48.000Z</time>
</trkpt>
<trkpt lat="46.1601820" lon="10.4580630">
	<ele>2747.60</ele>
	<time>2023-08-09T07:14:49.000Z</time>
</trkpt>
<trkpt lat="46.1601820" lon="10.4580690">
	<ele>2747.40</ele>
	<time>2023-08-09T07:14:50.000Z</time>
</trkpt>
<trkpt lat="46.1601820" lon="10.4580750">
	<ele>2747.40</ele>
	<time>2023-08-09T07:14:51.000Z</time>
</trkpt>
<trkpt lat="46.1601820" lon="10.4580800">
	<ele>2747.20</ele>
	<time>2023-08-09T07:14:52.000Z</time>
</trkpt>
<trkpt lat="46.1601820" lon="10.4580850">
	<ele>2747.20</ele>
	<time>2023-08-09T07:14:53.000Z</time>
</trkpt>
<trkpt lat="46.1601820" lon="10.4580900">
	<ele>2747.00</ele>
	<time>2023-08-09T07:14:54.000Z</time>
</trkpt>
<trkpt lat="46.1601820" lon="10.4580940">
	<ele>2747.00</ele>
	<time>2023-08-09T07:14:55.000Z</time>
</trkpt>
<trkpt lat="46.1601810" lon="10.4580990">
	<ele>2747.00</ele>
	<time>2023-08-09T07:14:56.000Z</time>
</trkpt>
<trkpt lat="46.1601790" lon="10.4581020">
	<ele>2747.00</ele>
	<time>2023-08-09T07:14:57.000Z</time>
</trkpt>
<trkpt lat="46.1601770" lon="10.4581050">
	<ele>2747.00</ele>
	<time>2023-08-09T07:14:58.000Z</time>
</trkpt>
<trkpt lat="46.1601740" lon="10.4581080">
	<ele>2746.80</ele>
	<time>2023-08-09T07:14:59.000Z</time>
</trkpt>
<trkpt lat="46.1601710" lon="10.4581090">
	<ele>2746.80</ele>
	<time>2023-08-09T07:15:00.000Z</time>
</trkpt>
<trkpt lat="46.1601680" lon="10.4581110">
	<ele>2746.60</ele>
	<time>2023-08-09T07:15:01.000Z</time>
</trkpt>
<trkpt lat="46.1601650" lon="10.4581130">
	<ele>2746.40</ele>
	<time>2023-08-09T07:15:02.000Z</time>
</trkpt>
<trkpt lat="46.1601630" lon="10.4581150">
	<ele>2746.40</ele>
	<time>2023-08-09T07:15:03.000Z</time>
</trkpt>
<trkpt lat="46.1601610" lon="10.4581170">
	<ele>2746.20</ele>
	<time>2023-08-09T07:15:04.000Z</time>
</trkpt>
<trkpt lat="46.1601600" lon="10.4581190">
	<ele>2746.20</ele>
	<time>2023-08-09T07:15:05.000Z</time>
</trkpt>
<trkpt lat="46.1601580" lon="10.4581230">
	<ele>2746.00</ele>
	<time>2023-08-09T07:15:06.000Z</time>
</trkpt>
<trkpt lat="46.1601570" lon="10.4581260">
	<ele>2746.00</ele>
	<time>2023-08-09T07:15:07.000Z</time>
</trkpt>
<trkpt lat="46.1601570" lon="10.4581300">
	<ele>2746.00</ele>
	<time>2023-08-09T07:15:08.000Z</time>
</trkpt>
<trkpt lat="46.1601560" lon="10.4581330">
	<ele>2745.80</ele>
	<time>2023-08-09T07:15:09.000Z</time>
</trkpt>
<trkpt lat="46.1601560" lon="10.4581370">
	<ele>2745.80</ele>
	<time>2023-08-09T07:15:10.000Z</time>
</trkpt>
<trkpt lat="46.1601550" lon="10.4581400">
	<ele>2745.80</ele>
	<time>2023-08-09T07:15:11.000Z</time>
</trkpt>
<trkpt lat="46.1601550" lon="10.4581430">
	<ele>2745.80</ele>
	<time>2023-08-09T07:15:12.000Z</time>
</trkpt>
<trkpt lat="46.1601550" lon="10.4581460">
	<ele>2746.00</ele>
	<time>2023-08-09T07:15:13.000Z</time>
</trkpt>
<trkpt lat="46.1601550" lon="10.4581480">
	<ele>2746.00</ele>
	<time>2023-08-09T07:15:14.000Z</time>
</trkpt>
<trkpt lat="46.1601540" lon="10.4581500">
	<ele>2746.20</ele>
	<time>2023-08-09T07:15:15.000Z</time>
</trkpt>
<trkpt lat="46.1601540" lon="10.4581530">
	<ele>2746.20</ele>
	<time>2023-08-09T07:15:16.000Z</time>
</trkpt>
<trkpt lat="46.1601540" lon="10.4581560">
	<ele>2746.20</ele>
	<time>2023-08-09T07:15:17.000Z</time>
</trkpt>
<trkpt lat="46.1601540" lon="10.4581590">
	<ele>2746.20</ele>
	<time>2023-08-09T07:15:18.000Z</time>
</trkpt>
<trkpt lat="46.1601540" lon="10.4581610">
	<ele>2746.20</ele>
	<time>2023-08-09T07:15:19.000Z</time>
</trkpt>
<trkpt lat="46.1601530" lon="10.4581620">
	<ele>2746.20</ele>
	<time>2023-08-09T07:15:20.000Z</time>
</trkpt>
<trkpt lat="46.1601530" lon="10.4581640">
	<ele>2746.20</ele>
	<time>2023-08-09T07:15:21.000Z</time>
</trkpt>
<trkpt lat="46.1601530" lon="10.4581650">
	<ele>2746.00</ele>
	<time>2023-08-09T07:15:22.000Z</time>
</trkpt>
<trkpt lat="46.1601530" lon="10.4581660">
	<ele>2746.00</ele>
	<time>2023-08-09T07:15:23.000Z</time>
</trkpt>
<trkpt lat="46.1601520" lon="10.4581670">
	<ele>2746.00</ele>
	<time>2023-08-09T07:15:24.000Z</time>
</trkpt>
<trkpt lat="46.1601510" lon="10.4581670">
	<ele>2746.00</ele>
	<time>2023-08-09T07:15:25.000Z</time>
</trkpt>
<trkpt lat="46.1601500" lon="10.4581680">
	<ele>2746.00</ele>
	<time>2023-08-09T07:15:26.000Z</time>
</trkpt>
<trkpt lat="46.1601490" lon="10.4581680">
	<ele>2745.80</ele>
	<time>2023-08-09T07:15:27.000Z</time>
</trkpt>
<trkpt lat="46.1601490" lon="10.4581690">
	<ele>2745.60</ele>
	<time>2023-08-09T07:15:28.000Z</time>
</trkpt>
<trkpt lat="46.1601480" lon="10.4581690">
	<ele>2745.60</ele>
	<time>2023-08-09T07:15:29.000Z</time>
</trkpt>
<trkpt lat="46.1601480" lon="10.4581700">
	<ele>2745.60</ele>
	<time>2023-08-09T07:15:30.000Z</time>
</trkpt>
<trkpt lat="46.1601480" lon="10.4581700">
	<ele>2745.60</ele>
	<time>2023-08-09T07:15:31.000Z</time>
</trkpt>
<trkpt lat="46.1601470" lon="10.4581700">
	<ele>2745.60</ele>
	<time>2023-08-09T07:15:32.000Z</time>
</trkpt>
<trkpt lat="46.1601470" lon="10.4581700">
	<ele>2745.60</ele>
	<time>2023-08-09T07:15:33.000Z</time>
</trkpt>
<trkpt lat="46.1601470" lon="10.4581710">
	<ele>2745.40</ele>
	<time>2023-08-09T07:15:34.000Z</time>
</trkpt>
<trkpt lat="46.1601470" lon="10.4581710">
	<ele>2745.40</ele>
	<time>2023-08-09T07:15:35.000Z</time>
</trkpt>
<trkpt lat="46.1601460" lon="10.4581710">
	<ele>2745.20</ele>
	<time>2023-08-09T07:15:36.000Z</time>
</trkpt>
<trkpt lat="46.1601460" lon="10.4581710">
	<ele>2745.00</ele>
	<time>2023-08-09T07:15:37.000Z</time>
</trkpt>
<trkpt lat="46.1601460" lon="10.4581720">
	<ele>2744.80</ele>
	<time>2023-08-09T07:15:38.000Z</time>
</trkpt>
<trkpt lat="46.1601460" lon="10.4581720">
	<ele>2744.60</ele>
	<time>2023-08-09T07:15:39.000Z</time>
</trkpt>
<trkpt lat="46.1601460" lon="10.4581720">
	<ele>2744.60</ele>
	<time>2023-08-09T07:15:40.000Z</time>
</trkpt>
<trkpt lat="46.1601460" lon="10.4581720">
	<ele>2744.40</ele>
	<time>2023-08-09T07:15:41.000Z</time>
</trkpt>
<trkpt lat="46.1601460" lon="10.4581720">
	<ele>2744.40</ele>
	<time>2023-08-09T07:15:42.000Z</time>
</trkpt>
<trkpt lat="46.1601460" lon="10.4581730">
	<ele>2744.20</ele>
	<time>2023-08-09T07:15:43.000Z</time>
</trkpt>
<trkpt lat="46.1601460" lon="10.4581730">
	<ele>2744.20</ele>
	<time>2023-08-09T07:15:44.000Z</time>
</trkpt>
<trkpt lat="46.1601460" lon="10.4581730">
	<ele>2744.20</ele>
	<time>2023-08-09T07:15:45.000Z</time>
</trkpt>
<trkpt lat="46.1601460" lon="10.4581730">
	<ele>2744.00</ele>
	<time>2023-08-09T07:15:46.000Z</time>
</trkpt>
<trkpt lat="46.1601470" lon="10.4581740">
	<ele>2744.00</ele>
	<time>2023-08-09T07:15:47.000Z</time>
</trkpt>
<trkpt lat="46.1601470" lon="10.4581740">
	<ele>2744.00</ele>
	<time>2023-08-09T07:15:48.000Z</time>
</trkpt>
<trkpt lat="46.1601470" lon="10.4581740">
	<ele>2744.00</ele>
	<time>2023-08-09T07:15:49.000Z</time>
</trkpt>
<trkpt lat="46.1601470" lon="10.4581740">
	<ele>2743.80</ele>
	<time>2023-08-09T07:15:50.000Z</time>
</trkpt>
<trkpt lat="46.1601470" lon="10.4581740">
	<ele>2743.80</ele>
	<time>2023-08-09T07:15:51.000Z</time>
</trkpt>
<trkpt lat="46.1601470" lon="10.4581740">
	<ele>2743.80</ele>
	<time>2023-08-09T07:15:52.000Z</time>
</trkpt>
<trkpt lat="46.1601480" lon="10.4581740">
	<ele>2743.80</ele>
	<time>2023-08-09T07:15:53.000Z</time>
</trkpt>
<trkpt lat="46.1601480" lon="10.4581740">
	<ele>2743.80</ele>
	<time>2023-08-09T07:15:54.000Z</time>
</trkpt>
<trkpt lat="46.1601480" lon="10.4581740">
	<ele>2743.80</ele>
	<time>2023-08-09T07:15:55.000Z</time>
</trkpt>
<trkpt lat="46.1601480" lon="10.4581740">
	<ele>2743.80</ele>
	<time>2023-08-09T07:15:56.000Z</time>
</trkpt>
<trkpt lat="46.1601480" lon="10.4581750">
	<ele>2743.80</ele>
	<time>2023-08-09T07:15:57.000Z</time>
</trkpt>
<trkpt lat="46.1601480" lon="10.4581750">
	<ele>2743.60</ele>
	<time>2023-08-09T07:15:58.000Z</time>
</trkpt>
<trkpt lat="46.1601480" lon="10.4581750">
	<ele>2743.60</ele>
	<time>2023-08-09T07:15:59.000Z</time>
</trkpt>
<trkpt lat="46.1601480" lon="10.4581750">
	<ele>2743.60</ele>
	<time>2023-08-09T07:16:00.000Z</time>
</trkpt>
<trkpt lat="46.1601480" lon="10.4581750">
	<ele>2743.40</ele>
	<time>2023-08-09T07:16:01.000Z</time>
</trkpt>
<trkpt lat="46.1601480" lon="10.4581750">
	<ele>2743.40</ele>
	<time>2023-08-09T07:16:02.000Z</time>
</trkpt>
<trkpt lat="46.1601480" lon="10.4581750">
	<ele>2743.20</ele>
	<time>2023-08-09T07:16:03.000Z</time>
</trkpt>
<trkpt lat="46.1601480" lon="10.4581750">
	<ele>2743.20</ele>
	<time>2023-08-09T07:16:04.000Z</time>
</trkpt>
<trkpt lat="46.1601480" lon="10.4581750">
	<ele>2743.20</ele>
	<time>2023-08-09T07:16:05.000Z</time>
</trkpt>
<trkpt lat="46.1601480" lon="10.4581760">
	<ele>2743.00</ele>
	<time>2023-08-09T07:16:06.000Z</time>
</trkpt>
<trkpt lat="46.1601480" lon="10.4581760">
	<ele>2742.80</ele>
	<time>2023-08-09T07:16:07.000Z</time>
</trkpt>
<trkpt lat="46.1601480" lon="10.4581760">
	<ele>2742.60</ele>
	<time>2023-08-09T07:16:08.000Z</time>
</trkpt>
<trkpt lat="46.1601490" lon="10.4581760">
	<ele>2742.40</ele>
	<time>2023-08-09T07:16:09.000Z</time>
</trkpt>
<trkpt lat="46.1601490" lon="10.4581760">
	<ele>2742.20</ele>
	<time>2023-08-09T07:16:10.000Z</time>
</trkpt>
<trkpt lat="46.1601490" lon="10.4581760">
	<ele>2742.20</ele>
	<time>2023-08-09T07:16:11.000Z</time>
</trkpt>
<trkpt lat="46.1601490" lon="10.4581760">
	<ele>2742.20</ele>
	<time>2023-08-09T07:16:12.000Z</time>
</trkpt>
<trkpt lat="46.1601490" lon="10.4581760">
	<ele>2742.00</ele>
	<time>2023-08-09T07:16:13.000Z</time>
</trkpt>
<trkpt lat="46.1601490" lon="10.4581770">
	<ele>2741.80</ele>
	<time>2023-08-09T07:16:14.000Z</time>
</trkpt>
<trkpt lat="46.1601490" lon="10.4581770">
	<ele>2741.60</ele>
	<time>2023-08-09T07:16:15.000Z</time>
</trkpt>
<trkpt lat="46.1601490" lon="10.4581770">
	<ele>2741.40</ele>
	<time>2023-08-09T07:16:16.000Z</time>
</trkpt>
<trkpt lat="46.1601490" lon="10.4581770">
	<ele>2741.00</ele>
	<time>2023-08-09T07:16:17.000Z</time>
</trkpt>
<trkpt lat="46.1601500" lon="10.4581770">
	<ele>2740.80</ele>
	<time>2023-08-09T07:16:18.000Z</time>
</trkpt>
<trkpt lat="46.1601500" lon="10.4581770">
	<ele>2740.60</ele>
	<time>2023-08-09T07:16:19.000Z</time>
</trkpt>
<trkpt lat="46.1601500" lon="10.4581780">
	<ele>2740.40</ele>
	<time>2023-08-09T07:16:20.000Z</time>
</trkpt>
<trkpt lat="46.1601500" lon="10.4581780">
	<ele>2740.20</ele>
	<time>2023-08-09T07:16:21.000Z</time>
</trkpt>
<trkpt lat="46.1601500" lon="10.4581780">
	<ele>2740.00</ele>
	<time>2023-08-09T07:16:22.000Z</time>
</trkpt>
<trkpt lat="46.1601500" lon="10.4581780">
	<ele>2739.80</ele>
	<time>2023-08-09T07:16:23.000Z</time>
</trkpt>
<trkpt lat="46.1601500" lon="10.4581780">
	<ele>2739.80</ele>
	<time>2023-08-09T07:16:24.000Z</time>
</trkpt>
<trkpt lat="46.1601500" lon="10.4581790">
	<ele>2739.80</ele>
	<time>2023-08-09T07:16:25.000Z</time>
</trkpt>
<trkpt lat="46.1601500" lon="10.4581790">
	<ele>2739.60</ele>
	<time>2023-08-09T07:16:26.000Z</time>
</trkpt>
<trkpt lat="46.1601510" lon="10.4581790">
	<ele>2739.40</ele>
	<time>2023-08-09T07:16:27.000Z</time>
</trkpt>
<trkpt lat="46.1601510" lon="10.4581790">
	<ele>2739.20</ele>
	<time>2023-08-09T07:16:28.000Z</time>
</trkpt>
<trkpt lat="46.1601510" lon="10.4581800">
	<ele>2739.00</ele>
	<time>2023-08-09T07:16:29.000Z</time>
</trkpt>
<trkpt lat="46.1601510" lon="10.4581800">
	<ele>2739.00</ele>
	<time>2023-08-09T07:16:30.000Z</time>
</trkpt>
<trkpt lat="46.1601510" lon="10.4581800">
	<ele>2738.60</ele>
	<time>2023-08-09T07:16:31.000Z</time>
</trkpt>
<trkpt lat="46.1601510" lon="10.4581800">
	<ele>2738.40</ele>
	<time>2023-08-09T07:16:32.000Z</time>
</trkpt>
<trkpt lat="46.1601510" lon="10.4581800">
	<ele>2738.20</ele>
	<time>2023-08-09T07:16:33.000Z</time>
</trkpt>
<trkpt lat="46.1601510" lon="10.4581810">
	<ele>2738.20</ele>
	<time>2023-08-09T07:16:34.000Z</time>
</trkpt>
<trkpt lat="46.1601510" lon="10.4581810">
	<ele>2738.20</ele>
	<time>2023-08-09T07:16:35.000Z</time>
</trkpt>
<trkpt lat="46.1601520" lon="10.4581810">
	<ele>2738.20</ele>
	<time>2023-08-09T07:16:36.000Z</time>
</trkpt>
<trkpt lat="46.1601520" lon="10.4581810">
	<ele>2738.00</ele>
	<time>2023-08-09T07:16:37.000Z</time>
</trkpt>
<trkpt lat="46.1601520" lon="10.4581820">
	<ele>2738.00</ele>
	<time>2023-08-09T07:16:38.000Z</time>
</trkpt>
<trkpt lat="46.1601520" lon="10.4581820">
	<ele>2738.00</ele>
	<time>2023-08-09T07:16:39.000Z</time>
</trkpt>
<trkpt lat="46.1601520" lon="10.4581820">
	<ele>2738.00</ele>
	<time>2023-08-09T07:16:40.000Z</time>
</trkpt>
<trkpt lat="46.1601520" lon="10.4581830">
	<ele>2737.80</ele>
	<time>2023-08-09T07:16:41.000Z</time>
</trkpt>
<trkpt lat="46.1601520" lon="10.4581830">
	<ele>2737.60</ele>
	<time>2023-08-09T07:16:42.000Z</time>
</trkpt>
<trkpt lat="46.1601530" lon="10.4581830">
	<ele>2737.60</ele>
	<time>2023-08-09T07:16:43.000Z</time>
</trkpt>
<trkpt lat="46.1601530" lon="10.4581840">
	<ele>2737.40</ele>
	<time>2023-08-09T07:16:44.000Z</time>
</trkpt>
<trkpt lat="46.1601530" lon="10.4581840">
	<ele>2737.40</ele>
	<time>2023-08-09T07:16:45.000Z</time>
</trkpt>
<trkpt lat="46.1601530" lon="10.4581840">
	<ele>2737.40</ele>
	<time>2023-08-09T07:16:46.000Z</time>
</trkpt>
<trkpt lat="46.1601530" lon="10.4581850">
	<ele>2737.20</ele>
	<time>2023-08-09T07:16:47.000Z</time>
</trkpt>
<trkpt lat="46.1601530" lon="10.4581850">
	<ele>2737.00</ele>
	<time>2023-08-09T07:16:48.000Z</time>
</trkpt>
<trkpt lat="46.1601530" lon="10.4581850">
	<ele>2736.80</ele>
	<time>2023-08-09T07:16:49.000Z</time>
</trkpt>
<trkpt lat="46.1601530" lon="10.4581860">
	<ele>2736.80</ele>
	<time>2023-08-09T07:16:50.000Z</time>
</trkpt>
<trkpt lat="46.1601530" lon="10.4581860">
	<ele>2736.60</ele>
	<time>2023-08-09T07:16:51.000Z</time>
</trkpt>
<trkpt lat="46.1601530" lon="10.4581870">
	<ele>2736.60</ele>
	<time>2023-08-09T07:16:52.000Z</time>
</trkpt>
<trkpt lat="46.1601530" lon="10.4581870">
	<ele>2736.60</ele>
	<time>2023-08-09T07:16:53.000Z</time>
</trkpt>
<trkpt lat="46.1601540" lon="10.4581880">
	<ele>2736.40</ele>
	<time>2023-08-09T07:16:54.000Z</time>
</trkpt>
<trkpt lat="46.1601540" lon="10.4581880">
	<ele>2736.40</ele>
	<time>2023-08-09T07:16:55.000Z</time>
</trkpt>
<trkpt lat="46.1601540" lon="10.4581880">
	<ele>2736.20</ele>
	<time>2023-08-09T07:16:56.000Z</time>
</trkpt>
<trkpt lat="46.1601540" lon="10.4581890">
	<ele>2736.20</ele>
	<time>2023-08-09T07:16:57.000Z</time>
</trkpt>
<trkpt lat="46.1601540" lon="10.4581890">
	<ele>2736.20</ele>
	<time>2023-08-09T07:16:58.000Z</time>
</trkpt>
<trkpt lat="46.1601540" lon="10.4581890">
	<ele>2736.00</ele>
	<time>2023-08-09T07:16:59.000Z</time>
</trkpt>
<trkpt lat="46.1601550" lon="10.4581900">
	<ele>2736.00</ele>
	<time>2023-08-09T07:17:00.000Z</time>
</trkpt>
<trkpt lat="46.1601550" lon="10.4581900">
	<ele>2736.00</ele>
	<time>2023-08-09T07:17:01.000Z</time>
</trkpt>
<trkpt lat="46.1601550" lon="10.4581900">
	<ele>2736.00</ele>
	<time>2023-08-09T07:17:02.000Z</time>
</trkpt>
<trkpt lat="46.1601550" lon="10.4581910">
	<ele>2736.00</ele>
	<time>2023-08-09T07:17:03.000Z</time>
</trkpt>
<trkpt lat="46.1601550" lon="10.4581910">
	<ele>2736.00</ele>
	<time>2023-08-09T07:17:04.000Z</time>
</trkpt>
<trkpt lat="46.1601550" lon="10.4581910">
	<ele>2736.00</ele>
	<time>2023-08-09T07:17:05.000Z</time>
</trkpt>
<trkpt lat="46.1601550" lon="10.4581920">
	<ele>2736.00</ele>
	<time>2023-08-09T07:17:06.000Z</time>
</trkpt>
<trkpt lat="46.1601550" lon="10.4581920">
	<ele>2735.80</ele>
	<time>2023-08-09T07:17:07.000Z</time>
</trkpt>
<trkpt lat="46.1601550" lon="10.4581920">
	<ele>2735.80</ele>
	<time>2023-08-09T07:17:08.000Z</time>
</trkpt>
<trkpt lat="46.1601550" lon="10.4581930">
	<ele>2735.80</ele>
	<time>2023-08-09T07:17:09.000Z</time>
</trkpt>
<trkpt lat="46.1601560" lon="10.4581930">
	<ele>2735.60</ele>
	<time>2023-08-09T07:17:10.000Z</time>
</trkpt>
<trkpt lat="46.1601560" lon="10.4581940">
	<ele>2735.60</ele>
	<time>2023-08-09T07:17:11.000Z</time>
</trkpt>
<trkpt lat="46.1601560" lon="10.4581940">
	<ele>2735.60</ele>
	<time>2023-08-09T07:17:12.000Z</time>
</trkpt>
<trkpt lat="46.1601560" lon="10.4581950">
	<ele>2735.40</ele>
	<time>2023-08-09T07:17:13.000Z</time>
</trkpt>
<trkpt lat="46.1601560" lon="10.4581950">
	<ele>2735.20</ele>
	<time>2023-08-09T07:17:14.000Z</time>
</trkpt>
<trkpt lat="46.1601560" lon="10.4581950">
	<ele>2735.20</ele>
	<time>2023-08-09T07:17:15.000Z</time>
</trkpt>
<trkpt lat="46.1601560" lon="10.4581960">
	<ele>2735.00</ele>
	<time>2023-08-09T07:17:16.000Z</time>
</trkpt>
<trkpt lat="46.1601560" lon="10.4581960">
	<ele>2735.00</ele>
	<time>2023-08-09T07:17:17.000Z</time>
</trkpt>
<trkpt lat="46.1601560" lon="10.4581970">
	<ele>2734.80</ele>
	<time>2023-08-09T07:17:18.000Z</time>
</trkpt>
<trkpt lat="46.1601560" lon="10.4581970">
	<ele>2734.80</ele>
	<time>2023-08-09T07:17:19.000Z</time>
</trkpt>
<trkpt lat="46.1601560" lon="10.4581970">
	<ele>2734.80</ele>
	<time>2023-08-09T07:17:20.000Z</time>
</trkpt>
<trkpt lat="46.1601560" lon="10.4581980">
	<ele>2734.80</ele>
	<time>2023-08-09T07:17:21.000Z</time>
</trkpt>
<trkpt lat="46.1601560" lon="10.4581980">
	<ele>2734.80</ele>
	<time>2023-08-09T07:17:22.000Z</time>
</trkpt>
<trkpt lat="46.1601560" lon="10.4581990">
	<ele>2734.60</ele>
	<time>2023-08-09T07:17:23.000Z</time>
</trkpt>
<trkpt lat="46.1601560" lon="10.4581990">
	<ele>2734.40</ele>
	<time>2023-08-09T07:17:24.000Z</time>
</trkpt>
<trkpt lat="46.1601570" lon="10.4582000">
	<ele>2734.20</ele>
	<time>2023-08-09T07:17:25.000Z</time>
</trkpt>
<trkpt lat="46.1601570" lon="10.4582000">
	<ele>2734.00</ele>
	<time>2023-08-09T07:17:26.000Z</time>
</trkpt>
<trkpt lat="46.1601570" lon="10.4582010">
	<ele>2734.00</ele>
	<time>2023-08-09T07:17:27.000Z</time>
</trkpt>
<trkpt lat="46.1601570" lon="10.4582010">
	<ele>2734.00</ele>
	<time>2023-08-09T07:17:28.000Z</time>
</trkpt>
<trkpt lat="46.1601570" lon="10.4582020">
	<ele>2733.80</ele>
	<time>2023-08-09T07:17:29.000Z</time>
</trkpt>
<trkpt lat="46.1601570" lon="10.4582020">
	<ele>2733.80</ele>
	<time>2023-08-09T07:17:30.000Z</time>
</trkpt>
<trkpt lat="46.1601570" lon="10.4582020">
	<ele>2733.60</ele>
	<time>2023-08-09T07:17:31.000Z</time>
</trkpt>
<trkpt lat="46.1601570" lon="10.4582030">
	<ele>2733.60</ele>
	<time>2023-08-09T07:17:32.000Z</time>
</trkpt>
<trkpt lat="46.1601570" lon="10.4582030">
	<ele>2733.40</ele>
	<time>2023-08-09T07:17:33.000Z</time>
</trkpt>
<trkpt lat="46.1601570" lon="10.4582040">
	<ele>2733.40</ele>
	<time>2023-08-09T07:17:34.000Z</time>
</trkpt>
<trkpt lat="46.1601570" lon="10.4582040">
	<ele>2733.40</ele>
	<time>2023-08-09T07:17:35.000Z</time>
</trkpt>
<trkpt lat="46.1601570" lon="10.4582050">
	<ele>2733.20</ele>
	<time>2023-08-09T07:17:36.000Z</time>
</trkpt>
<trkpt lat="46.1601570" lon="10.4582050">
	<ele>2733.20</ele>
	<time>2023-08-09T07:17:37.000Z</time>
</trkpt>
<trkpt lat="46.1601570" lon="10.4582060">
	<ele>2733.00</ele>
	<time>2023-08-09T07:17:38.000Z</time>
</trkpt>
<trkpt lat="46.1601570" lon="10.4582060">
	<ele>2733.00</ele>
	<time>2023-08-09T07:17:39.000Z</time>
</trkpt>
<trkpt lat="46.1601570" lon="10.4582070">
	<ele>2732.80</ele>
	<time>2023-08-09T07:17:40.000Z</time>
</trkpt>
<trkpt lat="46.1601570" lon="10.4582070">
	<ele>2732.60</ele>
	<time>2023-08-09T07:17:41.000Z</time>
</trkpt>
<trkpt lat="46.1601570" lon="10.4582080">
	<ele>2732.60</ele>
	<time>2023-08-09T07:17:42.000Z</time>
</trkpt>
<trkpt lat="46.1601570" lon="10.4582080">
	<ele>2732.60</ele>
	<time>2023-08-09T07:17:43.000Z</time>
</trkpt>
<trkpt lat="46.1601570" lon="10.4582090">
	<ele>2732.40</ele>
	<time>2023-08-09T07:17:44.000Z</time>
</trkpt>
<trkpt lat="46.1601570" lon="10.4582090">
	<ele>2732.20</ele>
	<time>2023-08-09T07:17:45.000Z</time>
</trkpt>
<trkpt lat="46.1601570" lon="10.4582100">
	<ele>2732.00</ele>
	<time>2023-08-09T07:17:46.000Z</time>
</trkpt>
<trkpt lat="46.1601570" lon="10.4582100">
	<ele>2731.80</ele>
	<time>2023-08-09T07:17:47.000Z</time>
</trkpt>
<trkpt lat="46.1601570" lon="10.4582110">
	<ele>2731.80</ele>
	<time>2023-08-09T07:17:48.000Z</time>
</trkpt>
<trkpt lat="46.1601580" lon="10.4582110">
	<ele>2731.60</ele>
	<time>2023-08-09T07:17:49.000Z</time>
</trkpt>
<trkpt lat="46.1601580" lon="10.4582120">
	<ele>2731.60</ele>
	<time>2023-08-09T07:17:50.000Z</time>
</trkpt>
<trkpt lat="46.1601580" lon="10.4582120">
	<ele>2731.40</ele>
	<time>2023-08-09T07:17:51.000Z</time>
</trkpt>
<trkpt lat="46.1601580" lon="10.4582130">
	<ele>2731.40</ele>
	<time>2023-08-09T07:17:52.000Z</time>
</trkpt>
<trkpt lat="46.1601580" lon="10.4582130">
	<ele>2731.20</ele>
	<time>2023-08-09T07:17:53.000Z</time>
</trkpt>
<trkpt lat="46.1601580" lon="10.4582140">
	<ele>2731.00</ele>
	<time>2023-08-09T07:17:54.000Z</time>
</trkpt>
<trkpt lat="46.1601580" lon="10.4582140">
	<ele>2730.80</ele>
	<time>2023-08-09T07:17:55.000Z</time>
</trkpt>
<trkpt lat="46.1601580" lon="10.4582150">
	<ele>2730.80</ele>
	<time>2023-08-09T07:17:56.000Z</time>
</trkpt>
<trkpt lat="46.1601580" lon="10.4582150">
	<ele>2730.60</ele>
	<time>2023-08-09T07:17:57.000Z</time>
</trkpt>
<trkpt lat="46.1601590" lon="10.4582160">
	<ele>2730.40</ele>
	<time>2023-08-09T07:17:58.000Z</time>
</trkpt>
<trkpt lat="46.1601590" lon="10.4582160">
	<ele>2730.40</ele>
	<time>2023-08-09T07:17:59.000Z</time>
</trkpt>
<trkpt lat="46.1601590" lon="10.4582170">
	<ele>2730.20</ele>
	<time>2023-08-09T07:18:00.000Z</time>
</trkpt>
<trkpt lat="46.1601590" lon="10.4582170">
	<ele>2730.00</ele>
	<time>2023-08-09T07:18:01.000Z</time>
</trkpt>
<trkpt lat="46.1601590" lon="10.4582180">
	<ele>2730.00</ele>
	<time>2023-08-09T07:18:02.000Z</time>
</trkpt>
<trkpt lat="46.1601590" lon="10.4582180">
	<ele>2729.80</ele>
	<time>2023-08-09T07:18:03.000Z</time>
</trkpt>
<trkpt lat="46.1601590" lon="10.4582190">
	<ele>2729.40</ele>
	<time>2023-08-09T07:18:04.000Z</time>
</trkpt>
<trkpt lat="46.1601590" lon="10.4582190">
	<ele>2729.00</ele>
	<time>2023-08-09T07:18:05.000Z</time>
</trkpt>
<trkpt lat="46.1601590" lon="10.4582200">
	<ele>2728.80</ele>
	<time>2023-08-09T07:18:06.000Z</time>
</trkpt>
<trkpt lat="46.1601600" lon="10.4582200">
	<ele>2728.60</ele>
	<time>2023-08-09T07:18:07.000Z</time>
</trkpt>
<trkpt lat="46.1601600" lon="10.4582210">
	<ele>2728.60</ele>
	<time>2023-08-09T07:18:08.000Z</time>
</trkpt>
<trkpt lat="46.1601600" lon="10.4582220">
	<ele>2728.40</ele>
	<time>2023-08-09T07:18:09.000Z</time>
</trkpt>
<trkpt lat="46.1601600" lon="10.4582220">
	<ele>2728.20</ele>
	<time>2023-08-09T07:18:10.000Z</time>
</trkpt>
<trkpt lat="46.1601600" lon="10.4582230">
	<ele>2728.00</ele>
	<time>2023-08-09T07:18:11.000Z</time>
</trkpt>
<trkpt lat="46.1601600" lon="10.4582240">
	<ele>2727.80</ele>
	<time>2023-08-09T07:18:12.000Z</time>
</trkpt>
<trkpt lat="46.1601600" lon="10.4582240">
	<ele>2727.60</ele>
	<time>2023-08-09T07:18:13.000Z</time>
</trkpt>
<trkpt lat="46.1601600" lon="10.4582250">
	<ele>2727.60</ele>
	<time>2023-08-09T07:18:14.000Z</time>
</trkpt>
<trkpt lat="46.1601610" lon="10.4582250">
	<ele>2727.60</ele>
	<time>2023-08-09T07:18:15.000Z</time>
</trkpt>
<trkpt lat="46.1601610" lon="10.4582260">
	<ele>2727.80</ele>
	<time>2023-08-09T07:18:16.000Z</time>
</trkpt>
<trkpt lat="46.1601610" lon="10.4582270">
	<ele>2728.00</ele>
	<time>2023-08-09T07:18:17.000Z</time>
</trkpt>
<trkpt lat="46.1601610" lon="10.4582270">
	<ele>2728.00</ele>
	<time>2023-08-09T07:18:18.000Z</time>
</trkpt>
<trkpt lat="46.1601610" lon="10.4582280">
	<ele>2728.00</ele>
	<time>2023-08-09T07:18:19.000Z</time>
</trkpt>
<trkpt lat="46.1601610" lon="10.4582280">
	<ele>2727.80</ele>
	<time>2023-08-09T07:18:20.000Z</time>
</trkpt>
<trkpt lat="46.1601610" lon="10.4582290">
	<ele>2727.80</ele>
	<time>2023-08-09T07:18:21.000Z</time>
</trkpt>
<trkpt lat="46.1601610" lon="10.4582300">
	<ele>2727.40</ele>
	<time>2023-08-09T07:18:22.000Z</time>
</trkpt>
<trkpt lat="46.1601620" lon="10.4582300">
	<ele>2727.40</ele>
	<time>2023-08-09T07:18:23.000Z</time>
</trkpt>
<trkpt lat="46.1601620" lon="10.4582310">
	<ele>2727.20</ele>
	<time>2023-08-09T07:18:24.000Z</time>
</trkpt>
<trkpt lat="46.1601620" lon="10.4582320">
	<ele>2727.00</ele>
	<time>2023-08-09T07:18:25.000Z</time>
</trkpt>
<trkpt lat="46.1601620" lon="10.4582320">
	<ele>2726.80</ele>
	<time>2023-08-09T07:18:26.000Z</time>
</trkpt>
<trkpt lat="46.1601620" lon="10.4582330">
	<ele>2726.80</ele>
	<time>2023-08-09T07:18:27.000Z</time>
</trkpt>
<trkpt lat="46.1601620" lon="10.4582340">
	<ele>2726.60</ele>
	<time>2023-08-09T07:18:28.000Z</time>
</trkpt>
<trkpt lat="46.1601620" lon="10.4582340">
	<ele>2726.60</ele>
	<time>2023-08-09T07:18:29.000Z</time>
</trkpt>
<trkpt lat="46.1601630" lon="10.4582350">
	<ele>2726.40</ele>
	<time>2023-08-09T07:18:30.000Z</time>
</trkpt>
<trkpt lat="46.1601630" lon="10.4582350">
	<ele>2726.20</ele>
	<time>2023-08-09T07:18:31.000Z</time>
</trkpt>
<trkpt lat="46.1601630" lon="10.4582360">
	<ele>2726.00</ele>
	<time>2023-08-09T07:18:32.000Z</time>
</trkpt>
<trkpt lat="46.1601630" lon="10.4582370">
	<ele>2726.00</ele>
	<time>2023-08-09T07:18:33.000Z</time>
</trkpt>
<trkpt lat="46.1601630" lon="10.4582370">
	<ele>2725.80</ele>
	<time>2023-08-09T07:18:34.000Z</time>
</trkpt>
<trkpt lat="46.1601630" lon="10.4582380">
	<ele>2725.80</ele>
	<time>2023-08-09T07:18:35.000Z</time>
</trkpt>
<trkpt lat="46.1601630" lon="10.4582380">
	<ele>2725.80</ele>
	<time>2023-08-09T07:18:36.000Z</time>
</trkpt>
<trkpt lat="46.1601630" lon="10.4582390">
	<ele>2725.60</ele>
	<time>2023-08-09T07:18:37.000Z</time>
</trkpt>
<trkpt lat="46.1601630" lon="10.4582400">
	<ele>2725.60</ele>
	<time>2023-08-09T07:18:38.000Z</time>
</trkpt>
<trkpt lat="46.1601640" lon="10.4582400">
	<ele>2725.60</ele>
	<time>2023-08-09T07:18:39.000Z</time>
</trkpt>
<trkpt lat="46.1601640" lon="10.4582410">
	<ele>2725.60</ele>
	<time>2023-08-09T07:18:40.000Z</time>
</trkpt>
<trkpt lat="46.1601640" lon="10.4582410">
	<ele>2725.60</ele>
	<time>2023-08-09T07:18:41.000Z</time>
</trkpt>
<trkpt lat="46.1601640" lon="10.4582420">
	<ele>2725.00</ele>
	<time>2023-08-09T07:18:42.000Z</time>
</trkpt>
<trkpt lat="46.1601640" lon="10.4582430">
	<ele>2724.80</ele>
	<time>2023-08-09T07:18:43.000Z</time>
</trkpt>
<trkpt lat="46.1601640" lon="10.4582430">
	<ele>2724.60</ele>
	<time>2023-08-09T07:18:44.000Z</time>
</trkpt>
<trkpt lat="46.1601640" lon="10.4582440">
	<ele>2724.40</ele>
	<time>2023-08-09T07:18:45.000Z</time>
</trkpt>
<trkpt lat="46.1601640" lon="10.4582440">
	<ele>2724.40</ele>
	<time>2023-08-09T07:18:46.000Z</time>
</trkpt>
<trkpt lat="46.1601640" lon="10.4582450">
	<ele>2724.40</ele>
	<time>2023-08-09T07:18:47.000Z</time>
</trkpt>
<trkpt lat="46.1601650" lon="10.4582460">
	<ele>2724.40</ele>
	<time>2023-08-09T07:18:48.000Z</time>
</trkpt>
<trkpt lat="46.1601650" lon="10.4582460">
	<ele>2724.40</ele>
	<time>2023-08-09T07:18:49.000Z</time>
</trkpt>
<trkpt lat="46.1601650" lon="10.4582470">
	<ele>2724.40</ele>
	<time>2023-08-09T07:18:50.000Z</time>
</trkpt>
<trkpt lat="46.1601650" lon="10.4582480">
	<ele>2724.40</ele>
	<time>2023-08-09T07:18:51.000Z</time>
</trkpt>
<trkpt lat="46.1601650" lon="10.4582480">
	<ele>2724.40</ele>
	<time>2023-08-09T07:18:52.000Z</time>
</trkpt>
<trkpt lat="46.1601650" lon="10.4582490">
	<ele>2724.40</ele>
	<time>2023-08-09T07:18:53.000Z</time>
</trkpt>
<trkpt lat="46.1601650" lon="10.4582490">
	<ele>2724.20</ele>
	<time>2023-08-09T07:18:54.000Z</time>
</trkpt>
<trkpt lat="46.1601650" lon="10.4582500">
	<ele>2724.20</ele>
	<time>2023-08-09T07:18:55.000Z</time>
</trkpt>
<trkpt lat="46.1601650" lon="10.4582510">
	<ele>2724.20</ele>
	<time>2023-08-09T07:18:56.000Z</time>
</trkpt>
<trkpt lat="46.1601650" lon="10.4582510">
	<ele>2724.20</ele>
	<time>2023-08-09T07:18:57.000Z</time>
</trkpt>
<trkpt lat="46.1601660" lon="10.4582520">
	<ele>2724.00</ele>
	<time>2023-08-09T07:18:58.000Z</time>
</trkpt>
<trkpt lat="46.1601660" lon="10.4582520">
	<ele>2724.00</ele>
	<time>2023-08-09T07:18:59.000Z</time>
</trkpt>
<trkpt lat="46.1601660" lon="10.4582530">
	<ele>2724.00</ele>
	<time>2023-08-09T07:19:00.000Z</time>
</trkpt>
<trkpt lat="46.1601660" lon="10.4582540">
	<ele>2723.80</ele>
	<time>2023-08-09T07:19:01.000Z</time>
</trkpt>
<trkpt lat="46.1601660" lon="10.4582540">
	<ele>2723.60</ele>
	<time>2023-08-09T07:19:02.000Z</time>
</trkpt>
<trkpt lat="46.1601660" lon="10.4582550">
	<ele>2723.60</ele>
	<time>2023-08-09T07:19:03.000Z</time>
</trkpt>
<trkpt lat="46.1601660" lon="10.4582550">
	<ele>2723.40</ele>
	<time>2023-08-09T07:19:04.000Z</time>
</trkpt>
<trkpt lat="46.1601660" lon="10.4582560">
	<ele>2723.20</ele>
	<time>2023-08-09T07:19:05.000Z</time>
</trkpt>
<trkpt lat="46.1601660" lon="10.4582570">
	<ele>2723.00</ele>
	<time>2023-08-09T07:19:06.000Z</time>
</trkpt>
<trkpt lat="46.1601670" lon="10.4582580">
	<ele>2722.80</ele>
	<time>2023-08-09T07:19:07.000Z</time>
</trkpt>
<trkpt lat="46.1601670" lon="10.4582580">
	<ele>2722.60</ele>
	<time>2023-08-09T07:19:08.000Z</time>
</trkpt>
<trkpt lat="46.1601670" lon="10.4582590">
	<ele>2722.40</ele>
	<time>2023-08-09T07:19:09.000Z</time>
</trkpt>
<trkpt lat="46.1601670" lon="10.4582590">
	<ele>2722.20</ele>
	<time>2023-08-09T07:19:10.000Z</time>
</trkpt>
<trkpt lat="46.1601670" lon="10.4582600">
	<ele>2722.00</ele>
	<time>2023-08-09T07:19:11.000Z</time>
</trkpt>
<trkpt lat="46.1601670" lon="10.4582610">
	<ele>2721.80</ele>
	<time>2023-08-09T07:19:12.000Z</time>
</trkpt>
<trkpt lat="46.1601680" lon="10.4582610">
	<ele>2721.80</ele>
	<time>2023-08-09T07:19:13.000Z</time>
</trkpt>
<trkpt lat="46.1601680" lon="10.4582620">
	<ele>2721.80</ele>
	<time>2023-08-09T07:19:14.000Z</time>
</trkpt>
<trkpt lat="46.1601680" lon="10.4582620">
	<ele>2721.60</ele>
	<time>2023-08-09T07:19:15.000Z</time>
</trkpt>
<trkpt lat="46.1601680" lon="10.4582630">
	<ele>2721.60</ele>
	<time>2023-08-09T07:19:16.000Z</time>
</trkpt>
<trkpt lat="46.1601680" lon="10.4582640">
	<ele>2721.60</ele>
	<time>2023-08-09T07:19:17.000Z</time>
</trkpt>
<trkpt lat="46.1601680" lon="10.4582640">
	<ele>2721.40</ele>
	<time>2023-08-09T07:19:18.000Z</time>
</trkpt>
<trkpt lat="46.1601690" lon="10.4582650">
	<ele>2721.20</ele>
	<time>2023-08-09T07:19:19.000Z</time>
</trkpt>
<trkpt lat="46.1601690" lon="10.4582650">
	<ele>2721.20</ele>
	<time>2023-08-09T07:19:20.000Z</time>
</trkpt>
<trkpt lat="46.1601690" lon="10.4582660">
	<ele>2721.20</ele>
	<time>2023-08-09T07:19:21.000Z</time>
</trkpt>
<trkpt lat="46.1601690" lon="10.4582660">
	<ele>2721.20</ele>
	<time>2023-08-09T07:19:22.000Z</time>
</trkpt>
<trkpt lat="46.1601690" lon="10.4582670">
	<ele>2721.20</ele>
	<time>2023-08-09T07:19:23.000Z</time>
</trkpt>
<trkpt lat="46.1601690" lon="10.4582680">
	<ele>2721.20</ele>
	<time>2023-08-09T07:19:24.000Z</time>
</trkpt>
<trkpt lat="46.1601700" lon="10.4582680">
	<ele>2721.20</ele>
	<time>2023-08-09T07:19:25.000Z</time>
</trkpt>
<trkpt lat="46.1601700" lon="10.4582690">
	<ele>2721.20</ele>
	<time>2023-08-09T07:19:26.000Z</time>
</trkpt>
<trkpt lat="46.1601700" lon="10.4582690">
	<ele>2721.00</ele>
	<time>2023-08-09T07:19:27.000Z</time>
</trkpt>
<trkpt lat="46.1601700" lon="10.4582700">
	<ele>2721.00</ele>
	<time>2023-08-09T07:19:28.000Z</time>
</trkpt>
<trkpt lat="46.1601700" lon="10.4582710">
	<ele>2721.00</ele>
	<time>2023-08-09T07:19:29.000Z</time>
</trkpt>
<trkpt lat="46.1601710" lon="10.4582710">
	<ele>2721.00</ele>
	<time>2023-08-09T07:19:30.000Z</time>
</trkpt>
<trkpt lat="46.1601710" lon="10.4582720">
	<ele>2721.00</ele>
	<time>2023-08-09T07:19:31.000Z</time>
</trkpt>
<trkpt lat="46.1601710" lon="10.4582720">
	<ele>2720.80</ele>
	<time>2023-08-09T07:19:32.000Z</time>
</trkpt>
<trkpt lat="46.1601710" lon="10.4582730">
	<ele>2720.80</ele>
	<time>2023-08-09T07:19:33.000Z</time>
</trkpt>
<trkpt lat="46.1601710" lon="10.4582740">
	<ele>2720.80</ele>
	<time>2023-08-09T07:19:34.000Z</time>
</trkpt>
<trkpt lat="46.1601720" lon="10.4582740">
	<ele>2720.80</ele>
	<time>2023-08-09T07:19:35.000Z</time>
</trkpt>
<trkpt lat="46.1601720" lon="10.4582750">
	<ele>2721.00</ele>
	<time>2023-08-09T07:19:36.000Z</time>
</trkpt>
<trkpt lat="46.1601720" lon="10.4582750">
	<ele>2721.00</ele>
	<time>2023-08-09T07:19:37.000Z</time>
</trkpt>
<trkpt lat="46.1601720" lon="10.4582760">
	<ele>2721.00</ele>
	<time>2023-08-09T07:19:38.000Z</time>
</trkpt>
<trkpt lat="46.1601720" lon="10.4582770">
	<ele>2721.00</ele>
	<time>2023-08-09T07:19:39.000Z</time>
</trkpt>
<trkpt lat="46.1601730" lon="10.4582770">
	<ele>2721.00</ele>
	<time>2023-08-09T07:19:40.000Z</time>
</trkpt>
<trkpt lat="46.1601730" lon="10.4582780">
	<ele>2720.80</ele>
	<time>2023-08-09T07:19:41.000Z</time>
</trkpt>
<trkpt lat="46.1601730" lon="10.4582780">
	<ele>2720.60</ele>
	<time>2023-08-09T07:19:42.000Z</time>
</trkpt>
<trkpt lat="46.1601730" lon="10.4582790">
	<ele>2720.60</ele>
	<time>2023-08-09T07:19:43.000Z</time>
</trkpt>
<trkpt lat="46.1601740" lon="10.4582800">
	<ele>2720.60</ele>
	<time>2023-08-09T07:19:44.000Z</time>
</trkpt>
<trkpt lat="46.1601740" lon="10.4582800">
	<ele>2720.60</ele>
	<time>2023-08-09T07:19:45.000Z</time>
</trkpt>
<trkpt lat="46.1601740" lon="10.4582810">
	<ele>2720.40</ele>
	<time>2023-08-09T07:19:46.000Z</time>
</trkpt>
<trkpt lat="46.1601740" lon="10.4582820">
	<ele>2720.40</ele>
	<time>2023-08-09T07:19:47.000Z</time>
</trkpt>
<trkpt lat="46.1601740" lon="10.4582820">
	<ele>2720.40</ele>
	<time>2023-08-09T07:19:48.000Z</time>
</trkpt>
<trkpt lat="46.1601750" lon="10.4582820">
	<ele>2720.40</ele>
	<time>2023-08-09T07:19:49.000Z</time>
</trkpt>
<trkpt lat="46.1601750" lon="10.4582830">
	<ele>2720.40</ele>
	<time>2023-08-09T07:19:50.000Z</time>
</trkpt>
<trkpt lat="46.1601750" lon="10.4582830">
	<ele>2720.20</ele>
	<time>2023-08-09T07:19:51.000Z</time>
</trkpt>
<trkpt lat="46.1601750" lon="10.4582840">
	<ele>2720.20</ele>
	<time>2023-08-09T07:19:52.000Z</time>
</trkpt>
<trkpt lat="46.1601750" lon="10.4582850">
	<ele>2720.20</ele>
	<time>2023-08-09T07:19:53.000Z</time>
</trkpt>
<trkpt lat="46.1601750" lon="10.4582850">
	<ele>2720.20</ele>
	<time>2023-08-09T07:19:54.000Z</time>
</trkpt>
<trkpt lat="46.1601760" lon="10.4582860">
	<ele>2720.20</ele>
	<time>2023-08-09T07:19:55.000Z</time>
</trkpt>
<trkpt lat="46.1601760" lon="10.4582870">
	<ele>2720.00</ele>
	<time>2023-08-09T07:19:56.000Z</time>
</trkpt>
<trkpt lat="46.1601760" lon="10.4582870">
	<ele>2720.00</ele>
	<time>2023-08-09T07:19:57.000Z</time>
</trkpt>
<trkpt lat="46.1601760" lon="10.4582880">
	<ele>2719.80</ele>
	<time>2023-08-09T07:19:58.000Z</time>
</trkpt>
<trkpt lat="46.1601760" lon="10.4582880">
	<ele>2719.60</ele>
	<time>2023-08-09T07:19:59.000Z</time>
</trkpt>
<trkpt lat="46.1601770" lon="10.4582890">
	<ele>2719.40</ele>
	<time>2023-08-09T07:20:00.000Z</time>
</trkpt>
<trkpt lat="46.1601770" lon="10.4582890">
	<ele>2719.20</ele>
	<time>2023-08-09T07:20:01.000Z</time>
</trkpt>
<trkpt lat="46.1601770" lon="10.4582900">
	<ele>2719.00</ele>
	<time>2023-08-09T07:20:02.000Z</time>
</trkpt>
<trkpt lat="46.1601770" lon="10.4582900">
	<ele>2718.80</ele>
	<time>2023-08-09T07:20:03.000Z</time>
</trkpt>
<trkpt lat="46.1601780" lon="10.4582910">
	<ele>2718.80</ele>
	<time>2023-08-09T07:20:04.000Z</time>
</trkpt>
<trkpt lat="46.1601780" lon="10.4582920">
	<ele>2718.80</ele>
	<time>2023-08-09T07:20:05.000Z</time>
</trkpt>
<trkpt lat="46.1601780" lon="10.4582920">
	<ele>2718.80</ele>
	<time>2023-08-09T07:20:06.000Z</time>
</trkpt>
<trkpt lat="46.1601780" lon="10.4582930">
	<ele>2718.60</ele>
	<time>2023-08-09T07:20:07.000Z</time>
</trkpt>
<trkpt lat="46.1601780" lon="10.4582930">
	<ele>2718.60</ele>
	<time>2023-08-09T07:20:08.000Z</time>
</trkpt>
<trkpt lat="46.1601790" lon="10.4582940">
	<ele>2718.40</ele>
	<time>2023-08-09T07:20:09.000Z</time>
</trkpt>
<trkpt lat="46.1601790" lon="10.4582940">
	<ele>2718.20</ele>
	<time>2023-08-09T07:20:10.000Z</time>
</trkpt>
<trkpt lat="46.1601790" lon="10.4582950">
	<ele>2718.20</ele>
	<time>2023-08-09T07:20:11.000Z</time>
</trkpt>
<trkpt lat="46.1601800" lon="10.4582950">
	<ele>2718.20</ele>
	<time>2023-08-09T07:20:12.000Z</time>
</trkpt>
<trkpt lat="46.1601800" lon="10.4582960">
	<ele>2718.20</ele>
	<time>2023-08-09T07:20:13.000Z</time>
</trkpt>
<trkpt lat="46.1601800" lon="10.4582960">
	<ele>2718.20</ele>
	<time>2023-08-09T07:20:14.000Z</time>
</trkpt>
<trkpt lat="46.1601810" lon="10.4582970">
	<ele>2718.20</ele>
	<time>2023-08-09T07:20:15.000Z</time>
</trkpt>
<trkpt lat="46.1601810" lon="10.4582980">
	<ele>2718.20</ele>
	<time>2023-08-09T07:20:16.000Z</time>
</trkpt>
<trkpt lat="46.1601810" lon="10.4582980">
	<ele>2718.20</ele>
	<time>2023-08-09T07:20:17.000Z</time>
</trkpt>
<trkpt lat="46.1601810" lon="10.4582990">
	<ele>2718.20</ele>
	<time>2023-08-09T07:20:18.000Z</time>
</trkpt>
<trkpt lat="46.1601820" lon="10.4582990">
	<ele>2718.00</ele>
	<time>2023-08-09T07:20:19.000Z</time>
</trkpt>
<trkpt lat="46.1601820" lon="10.4583000">
	<ele>2718.00</ele>
	<time>2023-08-09T07:20:20.000Z</time>
</trkpt>
<trkpt lat="46.1601830" lon="10.4583000">
	<ele>2718.00</ele>
	<time>2023-08-09T07:20:21.000Z</time>
</trkpt>
<trkpt lat="46.1601830" lon="10.4583010">
	<ele>2718.00</ele>
	<time>2023-08-09T07:20:22.000Z</time>
</trkpt>
<trkpt lat="46.1601830" lon="10.4583020">
	<ele>2718.00</ele>
	<time>2023-08-09T07:20:23.000Z</time>
</trkpt>
<trkpt lat="46.1601830" lon="10.4583030">
	<ele>2718.00</ele>
	<time>2023-08-09T07:20:24.000Z</time>
</trkpt>
<trkpt lat="46.1601840" lon="10.4583030">
	<ele>2718.00</ele>
	<time>2023-08-09T07:20:25.000Z</time>
</trkpt>
<trkpt lat="46.1601840" lon="10.4583040">
	<ele>2718.00</ele>
	<time>2023-08-09T07:20:26.000Z</time>
</trkpt>
<trkpt lat="46.1601850" lon="10.4583040">
	<ele>2718.00</ele>
	<time>2023-08-09T07:20:27.000Z</time>
</trkpt>
<trkpt lat="46.1601850" lon="10.4583050">
	<ele>2718.00</ele>
	<time>2023-08-09T07:20:28.000Z</time>
</trkpt>
<trkpt lat="46.1601850" lon="10.4583060">
	<ele>2718.00</ele>
	<time>2023-08-09T07:20:29.000Z</time>
</trkpt>
<trkpt lat="46.1601850" lon="10.4583060">
	<ele>2717.60</ele>
	<time>2023-08-09T07:20:30.000Z</time>
</trkpt>
<trkpt lat="46.1601850" lon="10.4583070">
	<ele>2717.40</ele>
	<time>2023-08-09T07:20:31.000Z</time>
</trkpt>
<trkpt lat="46.1601860" lon="10.4583070">
	<ele>2717.40</ele>
	<time>2023-08-09T07:20:32.000Z</time>
</trkpt>
<trkpt lat="46.1601860" lon="10.4583080">
	<ele>2717.40</ele>
	<time>2023-08-09T07:20:33.000Z</time>
</trkpt>
<trkpt lat="46.1601860" lon="10.4583080">
	<ele>2717.20</ele>
	<time>2023-08-09T07:20:34.000Z</time>
</trkpt>
<trkpt lat="46.1601860" lon="10.4583090">
	<ele>2717.20</ele>
	<time>2023-08-09T07:20:35.000Z</time>
</trkpt>
<trkpt lat="46.1601870" lon="10.4583090">
	<ele>2717.00</ele>
	<time>2023-08-09T07:20:36.000Z</time>
</trkpt>
<trkpt lat="46.1601870" lon="10.4583100">
	<ele>2716.80</ele>
	<time>2023-08-09T07:20:37.000Z</time>
</trkpt>
<trkpt lat="46.1601870" lon="10.4583110">
	<ele>2716.80</ele>
	<time>2023-08-09T07:20:38.000Z</time>
</trkpt>
<trkpt lat="46.1601880" lon="10.4583110">
	<ele>2716.60</ele>
	<time>2023-08-09T07:20:39.000Z</time>
</trkpt>
<trkpt lat="46.1601880" lon="10.4583120">
	<ele>2716.60</ele>
	<time>2023-08-09T07:20:40.000Z</time>
</trkpt>
<trkpt lat="46.1601880" lon="10.4583120">
	<ele>2716.60</ele>
	<time>2023-08-09T07:20:41.000Z</time>
</trkpt>
<trkpt lat="46.1601880" lon="10.4583130">
	<ele>2716.60</ele>
	<time>2023-08-09T07:20:42.000Z</time>
</trkpt>
<trkpt lat="46.1601880" lon="10.4583140">
	<ele>2716.60</ele>
	<time>2023-08-09T07:20:43.000Z</time>
</trkpt>
<trkpt lat="46.1601890" lon="10.4583140">
	<ele>2716.80</ele>
	<time>2023-08-09T07:20:44.000Z</time>
</trkpt>
<trkpt lat="46.1601890" lon="10.4583150">
	<ele>2716.80</ele>
	<time>2023-08-09T07:20:45.000Z</time>
</trkpt>
<trkpt lat="46.1601890" lon="10.4583160">
	<ele>2716.80</ele>
	<time>2023-08-09T07:20:46.000Z</time>
</trkpt>
<trkpt lat="46.1601900" lon="10.4583160">
	<ele>2716.80</ele>
	<time>2023-08-09T07:20:47.000Z</time>
</trkpt>
<trkpt lat="46.1601900" lon="10.4583170">
	<ele>2716.60</ele>
	<time>2023-08-09T07:20:48.000Z</time>
</trkpt>
<trkpt lat="46.1601900" lon="10.4583170">
	<ele>2716.60</ele>
	<time>2023-08-09T07:20:49.000Z</time>
</trkpt>
<trkpt lat="46.1601900" lon="10.4583180">
	<ele>2716.40</ele>
	<time>2023-08-09T07:20:50.000Z</time>
</trkpt>
<trkpt lat="46.1601910" lon="10.4583180">
	<ele>2716.40</ele>
	<time>2023-08-09T07:20:51.000Z</time>
</trkpt>
<trkpt lat="46.1601910" lon="10.4583190">
	<ele>2716.40</ele>
	<time>2023-08-09T07:20:52.000Z</time>
</trkpt>
<trkpt lat="46.1601910" lon="10.4583190">
	<ele>2716.40</ele>
	<time>2023-08-09T07:20:53.000Z</time>
</trkpt>
<trkpt lat="46.1601920" lon="10.4583200">
	<ele>2716.40</ele>
	<time>2023-08-09T07:20:54.000Z</time>
</trkpt>
<trkpt lat="46.1601920" lon="10.4583210">
	<ele>2716.00</ele>
	<time>2023-08-09T07:20:55.000Z</time>
</trkpt>
<trkpt lat="46.1601920" lon="10.4583210">
	<ele>2715.80</ele>
	<time>2023-08-09T07:20:56.000Z</time>
</trkpt>
<trkpt lat="46.1601930" lon="10.4583220">
	<ele>2715.60</ele>
	<time>2023-08-09T07:20:57.000Z</time>
</trkpt>
<trkpt lat="46.1601930" lon="10.4583220">
	<ele>2715.40</ele>
	<time>2023-08-09T07:20:58.000Z</time>
</trkpt>
<trkpt lat="46.1601930" lon="10.4583230">
	<ele>2715.20</ele>
	<time>2023-08-09T07:20:59.000Z</time>
</trkpt>
<trkpt lat="46.1601940" lon="10.4583230">
	<ele>2715.20</ele>
	<time>2023-08-09T07:21:00.000Z</time>
</trkpt>
<trkpt lat="46.1601940" lon="10.4583240">
	<ele>2715.00</ele>
	<time>2023-08-09T07:21:01.000Z</time>
</trkpt>
<trkpt lat="46.1601940" lon="10.4583240">
	<ele>2715.00</ele>
	<time>2023-08-09T07:21:02.000Z</time>
</trkpt>
<trkpt lat="46.1601940" lon="10.4583250">
	<ele>2714.80</ele>
	<time>2023-08-09T07:21:03.000Z</time>
</trkpt>
<trkpt lat="46.1601950" lon="10.4583250">
	<ele>2714.80</ele>
	<time>2023-08-09T07:21:04.000Z</time>
</trkpt>
<trkpt lat="46.1601950" lon="10.4583260">
	<ele>2714.60</ele>
	<time>2023-08-09T07:21:05.000Z</time>
</trkpt>
<trkpt lat="46.1601950" lon="10.4583260">
	<ele>2714.60</ele>
	<time>2023-08-09T07:21:06.000Z</time>
</trkpt>
<trkpt lat="46.1601960" lon="10.4583270">
	<ele>2714.40</ele>
	<time>2023-08-09T07:21:07.000Z</time>
</trkpt>
<trkpt lat="46.1601960" lon="10.4583280">
	<ele>2714.40</ele>
	<time>2023-08-09T07:21:08.000Z</time>
</trkpt>
<trkpt lat="46.1601960" lon="10.4583280">
	<ele>2714.20</ele>
	<time>2023-08-09T07:21:09.000Z</time>
</trkpt>
<trkpt lat="46.1601970" lon="10.4583290">
	<ele>2714.20</ele>
	<time>2023-08-09T07:21:10.000Z</time>
</trkpt>
<trkpt lat="46.1601970" lon="10.4583290">
	<ele>2714.20</ele>
	<time>2023-08-09T07:21:11.000Z</time>
</trkpt>
<trkpt lat="46.1601970" lon="10.4583300">
	<ele>2714.00</ele>
	<time>2023-08-09T07:21:12.000Z</time>
</trkpt>
<trkpt lat="46.1601970" lon="10.4583300">
	<ele>2714.00</ele>
	<time>2023-08-09T07:21:13.000Z</time>
</trkpt>
<trkpt lat="46.1601980" lon="10.4583310">
	<ele>2714.00</ele>
	<time>2023-08-09T07:21:14.000Z</time>
</trkpt>
<trkpt lat="46.1601980" lon="10.4583310">
	<ele>2713.80</ele>
	<time>2023-08-09T07:21:15.000Z</time>
</trkpt>
<trkpt lat="46.1601980" lon="10.4583320">
	<ele>2713.60</ele>
	<time>2023-08-09T07:21:16.000Z</time>
</trkpt>
<trkpt lat="46.1601990" lon="10.4583330">
	<ele>2713.60</ele>
	<time>2023-08-09T07:21:17.000Z</time>
</trkpt>
<trkpt lat="46.1601990" lon="10.4583330">
	<ele>2713.60</ele>
	<time>2023-08-09T07:21:18.000Z</time>
</trkpt>
<trkpt lat="46.1601990" lon="10.4583340">
	<ele>2713.60</ele>
	<time>2023-08-09T07:21:19.000Z</time>
</trkpt>
<trkpt lat="46.1602000" lon="10.4583340">
	<ele>2713.40</ele>
	<time>2023-08-09T07:21:20.000Z</time>
</trkpt>
<trkpt lat="46.1602000" lon="10.4583350">
	<ele>2713.20</ele>
	<time>2023-08-09T07:21:21.000Z</time>
</trkpt>
<trkpt lat="46.1602000" lon="10.4583350">
	<ele>2713.20</ele>
	<time>2023-08-09T07:21:22.000Z</time>
</trkpt>
<trkpt lat="46.1602000" lon="10.4583360">
	<ele>2713.00</ele>
	<time>2023-08-09T07:21:23.000Z</time>
</trkpt>
<trkpt lat="46.1602010" lon="10.4583360">
	<ele>2713.00</ele>
	<time>2023-08-09T07:21:24.000Z</time>
</trkpt>
<trkpt lat="46.1602010" lon="10.4583370">
	<ele>2712.80</ele>
	<time>2023-08-09T07:21:25.000Z</time>
</trkpt>
<trkpt lat="46.1602010" lon="10.4583370">
	<ele>2712.60</ele>
	<time>2023-08-09T07:21:26.000Z</time>
</trkpt>
<trkpt lat="46.1602020" lon="10.4583380">
	<ele>2712.40</ele>
	<time>2023-08-09T07:21:27.000Z</time>
</trkpt>
<trkpt lat="46.1602020" lon="10.4583380">
	<ele>2712.40</ele>
	<time>2023-08-09T07:21:28.000Z</time>
</trkpt>
<trkpt lat="46.1602020" lon="10.4583390">
	<ele>2712.20</ele>
	<time>2023-08-09T07:21:29.000Z</time>
</trkpt>
<trkpt lat="46.1602020" lon="10.4583400">
	<ele>2712.20</ele>
	<time>2023-08-09T07:21:30.000Z</time>
</trkpt>
<trkpt lat="46.1602030" lon="10.4583400">
	<ele>2712.00</ele>
	<time>2023-08-09T07:21:31.000Z</time>
</trkpt>
<trkpt lat="46.1602030" lon="10.4583410">
	<ele>2711.80</ele>
	<time>2023-08-09T07:21:32.000Z</time>
</trkpt>
<trkpt lat="46.1602030" lon="10.4583410">
	<ele>2711.60</ele>
	<time>2023-08-09T07:21:33.000Z</time>
</trkpt>
<trkpt lat="46.1602040" lon="10.4583420">
	<ele>2711.60</ele>
	<time>2023-08-09T07:21:34.000Z</time>
</trkpt>
<trkpt lat="46.1602040" lon="10.4583420">
	<ele>2711.40</ele>
	<time>2023-08-09T07:21:35.000Z</time>
</trkpt>
<trkpt lat="46.1602040" lon="10.4583430">
	<ele>2711.20</ele>
	<time>2023-08-09T07:21:36.000Z</time>
</trkpt>
<trkpt lat="46.1602040" lon="10.4583440">
	<ele>2711.20</ele>
	<time>2023-08-09T07:21:37.000Z</time>
</trkpt>
<trkpt lat="46.1602050" lon="10.4583440">
	<ele>2711.00</ele>
	<time>2023-08-09T07:21:38.000Z</time>
</trkpt>
<trkpt lat="46.1602050" lon="10.4583450">
	<ele>2710.80</ele>
	<time>2023-08-09T07:21:39.000Z</time>
</trkpt>
<trkpt lat="46.1602050" lon="10.4583450">
	<ele>2710.80</ele>
	<time>2023-08-09T07:21:40.000Z</time>
</trkpt>
<trkpt lat="46.1602060" lon="10.4583460">
	<ele>2710.80</ele>
	<time>2023-08-09T07:21:41.000Z</time>
</trkpt>
<trkpt lat="46.1602060" lon="10.4583460">
	<ele>2710.80</ele>
	<time>2023-08-09T07:21:42.000Z</time>
</trkpt>
<trkpt lat="46.1602330" lon="10.4584000">
	<ele>2710.80</ele>
	<time>2023-08-09T07:21:43.000Z</time>
</trkpt>
<trkpt lat="46.1602640" lon="10.4584540">
	<ele>2710.80</ele>
	<time>2023-08-09T07:21:44.000Z</time>
</trkpt>
<trkpt lat="46.1602940" lon="10.4585060">
	<ele>2710.60</ele>
	<time>2023-08-09T07:21:45.000Z</time>
</trkpt>
<trkpt lat="46.1603240" lon="10.4585560">
	<ele>2710.60</ele>
	<time>2023-08-09T07:21:46.000Z</time>
</trkpt>
<trkpt lat="46.1603480" lon="10.4586060">
	<ele>2710.20</ele>
	<time>2023-08-09T07:21:47.000Z</time>
</trkpt>
<trkpt lat="46.1603760" lon="10.4586590">
	<ele>2710.00</ele>
	<time>2023-08-09T07:21:48.000Z</time>
</trkpt>
<trkpt lat="46.1604070" lon="10.4587160">
	<ele>2710.00</ele>
	<time>2023-08-09T07:21:49.000Z</time>
</trkpt>
<trkpt lat="46.1604350" lon="10.4587750">
	<ele>2709.80</ele>
	<time>2023-08-09T07:21:50.000Z</time>
</trkpt>
<trkpt lat="46.1604660" lon="10.4588380">
	<ele>2709.80</ele>
	<time>2023-08-09T07:21:51.000Z</time>
</trkpt>
<trkpt lat="46.1604960" lon="10.4588990">
	<ele>2709.60</ele>
	<time>2023-08-09T07:21:52.000Z</time>
</trkpt>
<trkpt lat="46.1604990" lon="10.4589020">
	<ele>2709.60</ele>
	<time>2023-08-09T07:21:53.000Z</time>
</trkpt>
<trkpt lat="46.1605010" lon="10.4589030">
	<ele>2709.60</ele>
	<time>2023-08-09T07:21:54.000Z</time>
</trkpt>
<trkpt lat="46.1605020" lon="10.4589040">
	<ele>2709.60</ele>
	<time>2023-08-09T07:21:55.000Z</time>
</trkpt>
<trkpt lat="46.1605020" lon="10.4589040">
	<ele>2709.40</ele>
	<time>2023-08-09T07:21:56.000Z</time>
</trkpt>
<trkpt lat="46.1605020" lon="10.4589040">
	<ele>2709.40</ele>
	<time>2023-08-09T07:21:57.000Z</time>
</trkpt>
<trkpt lat="46.1605020" lon="10.4589040">
	<ele>2709.20</ele>
	<time>2023-08-09T07:21:58.000Z</time>
</trkpt>
<trkpt lat="46.1605020" lon="10.4589040">
	<ele>2709.00</ele>
	<time>2023-08-09T07:21:59.000Z</time>
</trkpt>
<trkpt lat="46.1605020" lon="10.4589040">
	<ele>2709.00</ele>
	<time>2023-08-09T07:22:00.000Z</time>
</trkpt>
<trkpt lat="46.1605020" lon="10.4589040">
	<ele>2708.80</ele>
	<time>2023-08-09T07:22:01.000Z</time>
</trkpt>
<trkpt lat="46.1605020" lon="10.4589040">
	<ele>2708.80</ele>
	<time>2023-08-09T07:22:02.000Z</time>
</trkpt>
<trkpt lat="46.1605020" lon="10.4589040">
	<ele>2708.60</ele>
	<time>2023-08-09T07:22:03.000Z</time>
</trkpt>
<trkpt lat="46.1605020" lon="10.4589040">
	<ele>2708.60</ele>
	<time>2023-08-09T07:22:04.000Z</time>
</trkpt>
<trkpt lat="46.1605020" lon="10.4589040">
	<ele>2708.40</ele>
	<time>2023-08-09T07:22:05.000Z</time>
</trkpt>
<trkpt lat="46.1605020" lon="10.4589040">
	<ele>2708.00</ele>
	<time>2023-08-09T07:22:06.000Z</time>
</trkpt>
<trkpt lat="46.1605020" lon="10.4589040">
	<ele>2707.80</ele>
	<time>2023-08-09T07:22:07.000Z</time>
</trkpt>
<trkpt lat="46.1605020" lon="10.4589040">
	<ele>2707.40</ele>
	<time>2023-08-09T07:22:08.000Z</time>
</trkpt>
<trkpt lat="46.1605020" lon="10.4589040">
	<ele>2707.20</ele>
	<time>2023-08-09T07:22:09.000Z</time>
</trkpt>
<trkpt lat="46.1605020" lon="10.4589040">
	<ele>2707.00</ele>
	<time>2023-08-09T07:22:10.000Z</time>
</trkpt>
<trkpt lat="46.1605020" lon="10.4589060">
	<ele>2707.00</ele>
	<time>2023-08-09T07:22:11.000Z</time>
</trkpt>
<trkpt lat="46.1605050" lon="10.4589070">
	<ele>2706.80</ele>
	<time>2023-08-09T07:22:12.000Z</time>
</trkpt>
<trkpt lat="46.1605100" lon="10.4589070">
	<ele>2706.60</ele>
	<time>2023-08-09T07:22:13.000Z</time>
</trkpt>
<trkpt lat="46.1605130" lon="10.4589080">
	<ele>2706.60</ele>
	<time>2023-08-09T07:22:14.000Z</time>
</trkpt>
<trkpt lat="46.1605140" lon="10.4589090">
	<ele>2706.40</ele>
	<time>2023-08-09T07:22:15.000Z</time>
</trkpt>
<trkpt lat="46.1605150" lon="10.4589140">
	<ele>2706.40</ele>
	<time>2023-08-09T07:22:16.000Z</time>
</trkpt>
<trkpt lat="46.1605150" lon="10.4589180">
	<ele>2706.40</ele>
	<time>2023-08-09T07:22:17.000Z</time>
</trkpt>
<trkpt lat="46.1605190" lon="10.4589200">
	<ele>2706.20</ele>
	<time>2023-08-09T07:22:18.000Z</time>
</trkpt>
<trkpt lat="46.1605230" lon="10.4589220">
	<ele>2706.20</ele>
	<time>2023-08-09T07:22:19.000Z</time>
</trkpt>
<trkpt lat="46.1605260" lon="10.4589240">
	<ele>2706.20</ele>
	<time>2023-08-09T07:22:20.000Z</time>
</trkpt>
<trkpt lat="46.1605270" lon="10.4589260">
	<ele>2706.20</ele>
	<time>2023-08-09T07:22:21.000Z</time>
</trkpt>
<trkpt lat="46.1605270" lon="10.4589290">
	<ele>2706.20</ele>
	<time>2023-08-09T07:22:22.000Z</time>
</trkpt>
<trkpt lat="46.1605270" lon="10.4589320">
	<ele>2706.20</ele>
	<time>2023-08-09T07:22:23.000Z</time>
</trkpt>
<trkpt lat="46.1605270" lon="10.4589350">
	<ele>2706.00</ele>
	<time>2023-08-09T07:22:24.000Z</time>
</trkpt>
<trkpt lat="46.1605270" lon="10.4589370">
	<ele>2705.80</ele>
	<time>2023-08-09T07:22:25.000Z</time>
</trkpt>
<trkpt lat="46.1605270" lon="10.4589380">
	<ele>2705.80</ele>
	<time>2023-08-09T07:22:26.000Z</time>
</trkpt>
<trkpt lat="46.1605280" lon="10.4589390">
	<ele>2705.80</ele>
	<time>2023-08-09T07:22:27.000Z</time>
</trkpt>
<trkpt lat="46.1605280" lon="10.4589390">
	<ele>2705.60</ele>
	<time>2023-08-09T07:22:28.000Z</time>
</trkpt>
<trkpt lat="46.1605290" lon="10.4589400">
	<ele>2705.60</ele>
	<time>2023-08-09T07:22:29.000Z</time>
</trkpt>
<trkpt lat="46.1605290" lon="10.4589420">
	<ele>2705.60</ele>
	<time>2023-08-09T07:22:30.000Z</time>
</trkpt>
<trkpt lat="46.1605310" lon="10.4589450">
	<ele>2705.40</ele>
	<time>2023-08-09T07:22:31.000Z</time>
</trkpt>
<trkpt lat="46.1605310" lon="10.4589490">
	<ele>2705.20</ele>
	<time>2023-08-09T07:22:32.000Z</time>
</trkpt>
<trkpt lat="46.1605320" lon="10.4589500">
	<ele>2705.20</ele>
	<time>2023-08-09T07:22:33.000Z</time>
</trkpt>
<trkpt lat="46.1605320" lon="10.4589510">
	<ele>2705.00</ele>
	<time>2023-08-09T07:22:34.000Z</time>
</trkpt>
<trkpt lat="46.1605320" lon="10.4589520">
	<ele>2704.80</ele>
	<time>2023-08-09T07:22:35.000Z</time>
</trkpt>
<trkpt lat="46.1605340" lon="10.4589540">
	<ele>2704.60</ele>
	<time>2023-08-09T07:22:36.000Z</time>
</trkpt>
<trkpt lat="46.1605350" lon="10.4589590">
	<ele>2704.60</ele>
	<time>2023-08-09T07:22:37.000Z</time>
</trkpt>
<trkpt lat="46.1605350" lon="10.4589610">
	<ele>2704.40</ele>
	<time>2023-08-09T07:22:38.000Z</time>
</trkpt>
<trkpt lat="46.1605360" lon="10.4589610">
	<ele>2704.20</ele>
	<time>2023-08-09T07:22:39.000Z</time>
</trkpt>
<trkpt lat="46.1605370" lon="10.4589620">
	<ele>2704.00</ele>
	<time>2023-08-09T07:22:40.000Z</time>
</trkpt>
<trkpt lat="46.1605380" lon="10.4589620">
	<ele>2704.00</ele>
	<time>2023-08-09T07:22:41.000Z</time>
</trkpt>
<trkpt lat="46.1605380" lon="10.4589620">
	<ele>2703.80</ele>
	<time>2023-08-09T07:22:42.000Z</time>
</trkpt>
<trkpt lat="46.1605380" lon="10.4589620">
	<ele>2703.60</ele>
	<time>2023-08-09T07:22:43.000Z</time>
</trkpt>
<trkpt lat="46.1605400" lon="10.4589620">
	<ele>2703.40</ele>
	<time>2023-08-09T07:22:44.000Z</time>
</trkpt>
<trkpt lat="46.1605440" lon="10.4589630">
	<ele>2703.40</ele>
	<time>2023-08-09T07:22:45.000Z</time>
</trkpt>
<trkpt lat="46.1605470" lon="10.4589630">
	<ele>2703.20</ele>
	<time>2023-08-09T07:22:46.000Z</time>
</trkpt>
<trkpt lat="46.1605510" lon="10.4589630">
	<ele>2703.00</ele>
	<time>2023-08-09T07:22:47.000Z</time>
</trkpt>
<trkpt lat="46.1605560" lon="10.4589640">
	<ele>2703.00</ele>
	<time>2023-08-09T07:22:48.000Z</time>
</trkpt>
<trkpt lat="46.1605610" lon="10.4589640">
	<ele>2702.60</ele>
	<time>2023-08-09T07:22:49.000Z</time>
</trkpt>
<trkpt lat="46.1605640" lon="10.4589640">
	<ele>2702.60</ele>
	<time>2023-08-09T07:22:50.000Z</time>
</trkpt>
<trkpt lat="46.1605650" lon="10.4589640">
	<ele>2702.40</ele>
	<time>2023-08-09T07:22:51.000Z</time>
</trkpt>
<trkpt lat="46.1605660" lon="10.4589650">
	<ele>2702.40</ele>
	<time>2023-08-09T07:22:52.000Z</time>
</trkpt>
<trkpt lat="46.1605670" lon="10.4589650">
	<ele>2702.00</ele>
	<time>2023-08-09T07:22:53.000Z</time>
</trkpt>
<trkpt lat="46.1605680" lon="10.4589650">
	<ele>2701.80</ele>
	<time>2023-08-09T07:22:54.000Z</time>
</trkpt>
<trkpt lat="46.1605710" lon="10.4589650">
	<ele>2701.60</ele>
	<time>2023-08-09T07:22:55.000Z</time>
</trkpt>
<trkpt lat="46.1605780" lon="10.4589650">
	<ele>2701.40</ele>
	<time>2023-08-09T07:22:56.000Z</time>
</trkpt>
<trkpt lat="46.1605830" lon="10.4589650">
	<ele>2701.20</ele>
	<time>2023-08-09T07:22:57.000Z</time>
</trkpt>
<trkpt lat="46.1605860" lon="10.4589650">
	<ele>2701.20</ele>
	<time>2023-08-09T07:22:58.000Z</time>
</trkpt>
<trkpt lat="46.1605880" lon="10.4589660">
	<ele>2701.00</ele>
	<time>2023-08-09T07:22:59.000Z</time>
</trkpt>
<trkpt lat="46.1605880" lon="10.4589670">
	<ele>2701.00</ele>
	<time>2023-08-09T07:23:00.000Z</time>
</trkpt>
<trkpt lat="46.1605890" lon="10.4589690">
	<ele>2701.00</ele>
	<time>2023-08-09T07:23:01.000Z</time>
</trkpt>
<trkpt lat="46.1605900" lon="10.4589710">
	<ele>2700.80</ele>
	<time>2023-08-09T07:23:02.000Z</time>
</trkpt>
<trkpt lat="46.1605900" lon="10.4589730">
	<ele>2700.80</ele>
	<time>2023-08-09T07:23:03.000Z</time>
</trkpt>
<trkpt lat="46.1605900" lon="10.4589740">
	<ele>2700.60</ele>
	<time>2023-08-09T07:23:04.000Z</time>
</trkpt>
<trkpt lat="46.1605910" lon="10.4589750">
	<ele>2700.40</ele>
	<time>2023-08-09T07:23:05.000Z</time>
</trkpt>
<trkpt lat="46.1605920" lon="10.4589770">
	<ele>2700.20</ele>
	<time>2023-08-09T07:23:06.000Z</time>
</trkpt>
<trkpt lat="46.1605930" lon="10.4589780">
	<ele>2700.00</ele>
	<time>2023-08-09T07:23:07.000Z</time>
</trkpt>
<trkpt lat="46.1605940" lon="10.4589800">
	<ele>2700.00</ele>
	<time>2023-08-09T07:23:08.000Z</time>
</trkpt>
<trkpt lat="46.1605940" lon="10.4589820">
	<ele>2699.80</ele>
	<time>2023-08-09T07:23:09.000Z</time>
</trkpt>
<trkpt lat="46.1605950" lon="10.4589830">
	<ele>2699.80</ele>
	<time>2023-08-09T07:23:10.000Z</time>
</trkpt>
<trkpt lat="46.1605960" lon="10.4589830">
	<ele>2699.80</ele>
	<time>2023-08-09T07:23:11.000Z</time>
</trkpt>
<trkpt lat="46.1605960" lon="10.4589840">
	<ele>2699.80</ele>
	<time>2023-08-09T07:23:12.000Z</time>
</trkpt>
<trkpt lat="46.1605970" lon="10.4589870">
	<ele>2699.80</ele>
	<time>2023-08-09T07:23:13.000Z</time>
</trkpt>
<trkpt lat="46.1605970" lon="10.4589900">
	<ele>2699.80</ele>
	<time>2023-08-09T07:23:14.000Z</time>
</trkpt>
<trkpt lat="46.1605980" lon="10.4589920">
	<ele>2699.60</ele>
	<time>2023-08-09T07:23:15.000Z</time>
</trkpt>
<trkpt lat="46.1605980" lon="10.4589930">
	<ele>2699.60</ele>
	<time>2023-08-09T07:23:16.000Z</time>
</trkpt>
<trkpt lat="46.1605990" lon="10.4589940">
	<ele>2699.40</ele>
	<time>2023-08-09T07:23:17.000Z</time>
</trkpt>
<trkpt lat="46.1605990" lon="10.4589960">
	<ele>2699.40</ele>
	<time>2023-08-09T07:23:18.000Z</time>
</trkpt>
<trkpt lat="46.1605990" lon="10.4589990">
	<ele>2699.20</ele>
	<time>2023-08-09T07:23:19.000Z</time>
</trkpt>
<trkpt lat="46.1605990" lon="10.4590040">
	<ele>2699.20</ele>
	<time>2023-08-09T07:23:20.000Z</time>
</trkpt>
<trkpt lat="46.1605980" lon="10.4590080">
	<ele>2699.20</ele>
	<time>2023-08-09T07:23:21.000Z</time>
</trkpt>
<trkpt lat="46.1605970" lon="10.4590120">
	<ele>2699.20</ele>
	<time>2023-08-09T07:23:22.000Z</time>
</trkpt>
<trkpt lat="46.1605970" lon="10.4590140">
	<ele>2699.00</ele>
	<time>2023-08-09T07:23:23.000Z</time>
</trkpt>
<trkpt lat="46.1605970" lon="10.4590170">
	<ele>2698.80</ele>
	<time>2023-08-09T07:23:24.000Z</time>
</trkpt>
<trkpt lat="46.1605960" lon="10.4590230">
	<ele>2698.60</ele>
	<time>2023-08-09T07:23:25.000Z</time>
</trkpt>
<trkpt lat="46.1605950" lon="10.4590310">
	<ele>2698.20</ele>
	<time>2023-08-09T07:23:26.000Z</time>
</trkpt>
<trkpt lat="46.1605950" lon="10.4590390">
	<ele>2697.80</ele>
	<time>2023-08-09T07:23:27.000Z</time>
</trkpt>
<trkpt lat="46.1605940" lon="10.4590450">
	<ele>2697.40</ele>
	<time>2023-08-09T07:23:28.000Z</time>
</trkpt>
<trkpt lat="46.1605940" lon="10.4590510">
	<ele>2697.40</ele>
	<time>2023-08-09T07:23:29.000Z</time>
</trkpt>
<trkpt lat="46.1605940" lon="10.4590560">
	<ele>2697.00</ele>
	<time>2023-08-09T07:23:30.000Z</time>
</trkpt>
<trkpt lat="46.1605940" lon="10.4590590">
	<ele>2696.80</ele>
	<time>2023-08-09T07:23:31.000Z</time>
</trkpt>
<trkpt lat="46.1605940" lon="10.4590650">
	<ele>2696.60</ele>
	<time>2023-08-09T07:23:32.000Z</time>
</trkpt>
<trkpt lat="46.1605940" lon="10.4590720">
	<ele>2696.40</ele>
	<time>2023-08-09T07:23:33.000Z</time>
</trkpt>
<trkpt lat="46.1605920" lon="10.4590790">
	<ele>2696.20</ele>
	<time>2023-08-09T07:23:34.000Z</time>
</trkpt>
<trkpt lat="46.1605900" lon="10.4590830">
	<ele>2696.20</ele>
	<time>2023-08-09T07:23:35.000Z</time>
</trkpt>
<trkpt lat="46.1605870" lon="10.4590870">
	<ele>2696.20</ele>
	<time>2023-08-09T07:23:36.000Z</time>
</trkpt>
<trkpt lat="46.1605850" lon="10.4590900">
	<ele>2696.20</ele>
	<time>2023-08-09T07:23:37.000Z</time>
</trkpt>
<trkpt lat="46.1605830" lon="10.4590940">
	<ele>2696.20</ele>
	<time>2023-08-09T07:23:38.000Z</time>
</trkpt>
<trkpt lat="46.1605780" lon="10.4590990">
	<ele>2696.20</ele>
	<time>2023-08-09T07:23:39.000Z</time>
</trkpt>
<trkpt lat="46.1605730" lon="10.4591070">
	<ele>2696.20</ele>
	<time>2023-08-09T07:23:40.000Z</time>
</trkpt>
<trkpt lat="46.1605690" lon="10.4591170">
	<ele>2696.20</ele>
	<time>2023-08-09T07:23:41.000Z</time>
</trkpt>
<trkpt lat="46.1605650" lon="10.4591250">
	<ele>2696.00</ele>
	<time>2023-08-09T07:23:42.000Z</time>
</trkpt>
<trkpt lat="46.1605620" lon="10.4591330">
	<ele>2696.20</ele>
	<time>2023-08-09T07:23:43.000Z</time>
</trkpt>
<trkpt lat="46.1605600" lon="10.4591390">
	<ele>2696.20</ele>
	<time>2023-08-09T07:23:44.000Z</time>
</trkpt>
<trkpt lat="46.1605570" lon="10.4591450">
	<ele>2696.20</ele>
	<time>2023-08-09T07:23:45.000Z</time>
</trkpt>
<trkpt lat="46.1605550" lon="10.4591490">
	<ele>2696.20</ele>
	<time>2023-08-09T07:23:46.000Z</time>
</trkpt>
<trkpt lat="46.1605540" lon="10.4591510">
	<ele>2696.40</ele>
	<time>2023-08-09T07:23:47.000Z</time>
</trkpt>
<trkpt lat="46.1605520" lon="10.4591540">
	<ele>2696.60</ele>
	<time>2023-08-09T07:23:48.000Z</time>
</trkpt>
<trkpt lat="46.1605520" lon="10.4591570">
	<ele>2696.60</ele>
	<time>2023-08-09T07:23:49.000Z</time>
</trkpt>
<trkpt lat="46.1605510" lon="10.4591590">
	<ele>2696.80</ele>
	<time>2023-08-09T07:23:50.000Z</time>
</trkpt>
<trkpt lat="46.1605500" lon="10.4591640">
	<ele>2697.00</ele>
	<time>2023-08-09T07:23:51.000Z</time>
</trkpt>
<trkpt lat="46.1605500" lon="10.4591690">
	<ele>2697.00</ele>
	<time>2023-08-09T07:23:52.000Z</time>
</trkpt>
<trkpt lat="46.1605490" lon="10.4591720">
	<ele>2697.20</ele>
	<time>2023-08-09T07:23:53.000Z</time>
</trkpt>
<trkpt lat="46.1605490" lon="10.4591740">
	<ele>2697.20</ele>
	<time>2023-08-09T07:23:54.000Z</time>
</trkpt>
<trkpt lat="46.1605480" lon="10.4591760">
	<ele>2697.00</ele>
	<time>2023-08-09T07:23:55.000Z</time>
</trkpt>
<trkpt lat="46.1605480" lon="10.4591760">
	<ele>2697.00</ele>
	<time>2023-08-09T07:23:56.000Z</time>
</trkpt>
<trkpt lat="46.1605480" lon="10.4591770">
	<ele>2696.80</ele>
	<time>2023-08-09T07:23:57.000Z</time>
</trkpt>
<trkpt lat="46.1605470" lon="10.4591770">
	<ele>2696.80</ele>
	<time>2023-08-09T07:23:58.000Z</time>
</trkpt>
<trkpt lat="46.1605470" lon="10.4591780">
	<ele>2696.80</ele>
	<time>2023-08-09T07:23:59.000Z</time>
</trkpt>
<trkpt lat="46.1605470" lon="10.4591780">
	<ele>2696.60</ele>
	<time>2023-08-09T07:24:00.000Z</time>
</trkpt>
<trkpt lat="46.1605470" lon="10.4591780">
	<ele>2696.60</ele>
	<time>2023-08-09T07:24:01.000Z</time>
</trkpt>
<trkpt lat="46.1605460" lon="10.4591780">
	<ele>2696.60</ele>
	<time>2023-08-09T07:24:02.000Z</time>
</trkpt>
<trkpt lat="46.1605460" lon="10.4591780">
	<ele>2696.60</ele>
	<time>2023-08-09T07:24:03.000Z</time>
</trkpt>
<trkpt lat="46.1605460" lon="10.4591780">
	<ele>2696.40</ele>
	<time>2023-08-09T07:24:04.000Z</time>
</trkpt>
<trkpt lat="46.1605460" lon="10.4591780">
	<ele>2696.40</ele>
	<time>2023-08-09T07:24:05.000Z</time>
</trkpt>
<trkpt lat="46.1605460" lon="10.4591780">
	<ele>2696.40</ele>
	<time>2023-08-09T07:24:06.000Z</time>
</trkpt>
<trkpt lat="46.1605460" lon="10.4591780">
	<ele>2696.40</ele>
	<time>2023-08-09T07:24:07.000Z</time>
</trkpt>
<trkpt lat="46.1605460" lon="10.4591780">
	<ele>2696.20</ele>
	<time>2023-08-09T07:24:08.000Z</time>
</trkpt>
<trkpt lat="46.1605460" lon="10.4591780">
	<ele>2696.20</ele>
	<time>2023-08-09T07:24:09.000Z</time>
</trkpt>
<trkpt lat="46.1605460" lon="10.4591780">
	<ele>2696.00</ele>
	<time>2023-08-09T07:24:10.000Z</time>
</trkpt>
<trkpt lat="46.1605460" lon="10.4591780">
	<ele>2696.00</ele>
	<time>2023-08-09T07:24:11.000Z</time>
</trkpt>
<trkpt lat="46.1605460" lon="10.4591780">
	<ele>2696.00</ele>
	<time>2023-08-09T07:24:12.000Z</time>
</trkpt>
<trkpt lat="46.1605450" lon="10.4591780">
	<ele>2696.00</ele>
	<time>2023-08-09T07:24:13.000Z</time>
</trkpt>
<trkpt lat="46.1605440" lon="10.4591780">
	<ele>2696.00</ele>
	<time>2023-08-09T07:24:14.000Z</time>
</trkpt>
<trkpt lat="46.1605430" lon="10.4591770">
	<ele>2696.00</ele>
	<time>2023-08-09T07:24:15.000Z</time>
</trkpt>
<trkpt lat="46.1605420" lon="10.4591770">
	<ele>2696.20</ele>
	<time>2023-08-09T07:24:16.000Z</time>
</trkpt>
<trkpt lat="46.1605420" lon="10.4591760">
	<ele>2696.20</ele>
	<time>2023-08-09T07:24:17.000Z</time>
</trkpt>
<trkpt lat="46.1605420" lon="10.4591750">
	<ele>2696.20</ele>
	<time>2023-08-09T07:24:18.000Z</time>
</trkpt>
<trkpt lat="46.1605410" lon="10.4591750">
	<ele>2696.20</ele>
	<time>2023-08-09T07:24:19.000Z</time>
</trkpt>
<trkpt lat="46.1605410" lon="10.4591740">
	<ele>2696.20</ele>
	<time>2023-08-09T07:24:20.000Z</time>
</trkpt>
<trkpt lat="46.1605410" lon="10.4591720">
	<ele>2696.20</ele>
	<time>2023-08-09T07:24:21.000Z</time>
</trkpt>
<trkpt lat="46.1605400" lon="10.4591710">
	<ele>2696.20</ele>
	<time>2023-08-09T07:24:22.000Z</time>
</trkpt>
<trkpt lat="46.1605400" lon="10.4591700">
	<ele>2696.20</ele>
	<time>2023-08-09T07:24:23.000Z</time>
</trkpt>
<trkpt lat="46.1605390" lon="10.4591690">
	<ele>2696.20</ele>
	<time>2023-08-09T07:24:24.000Z</time>
</trkpt>
<trkpt lat="46.1605390" lon="10.4591690">
	<ele>2696.20</ele>
	<time>2023-08-09T07:24:25.000Z</time>
</trkpt>
<trkpt lat="46.1605380" lon="10.4591680">
	<ele>2696.20</ele>
	<time>2023-08-09T07:24:26.000Z</time>
</trkpt>
<trkpt lat="46.1605380" lon="10.4591670">
	<ele>2696.00</ele>
	<time>2023-08-09T07:24:27.000Z</time>
</trkpt>
<trkpt lat="46.1605380" lon="10.4591660">
	<ele>2696.00</ele>
	<time>2023-08-09T07:24:28.000Z</time>
</trkpt>
<trkpt lat="46.1605370" lon="10.4591660">
	<ele>2695.80</ele>
	<time>2023-08-09T07:24:29.000Z</time>
</trkpt>
<trkpt lat="46.1605370" lon="10.4591650">
	<ele>2695.80</ele>
	<time>2023-08-09T07:24:30.000Z</time>
</trkpt>
<trkpt lat="46.1605370" lon="10.4591650">
	<ele>2695.80</ele>
	<time>2023-08-09T07:24:31.000Z</time>
</trkpt>
<trkpt lat="46.1605370" lon="10.4591650">
	<ele>2696.00</ele>
	<time>2023-08-09T07:24:32.000Z</time>
</trkpt>
<trkpt lat="46.1605370" lon="10.4591640">
	<ele>2696.00</ele>
	<time>2023-08-09T07:24:33.000Z</time>
</trkpt>
<trkpt lat="46.1605370" lon="10.4591640">
	<ele>2696.00</ele>
	<time>2023-08-09T07:24:34.000Z</time>
</trkpt>
<trkpt lat="46.1605370" lon="10.4591640">
	<ele>2696.20</ele>
	<time>2023-08-09T07:24:35.000Z</time>
</trkpt>
<trkpt lat="46.1605370" lon="10.4591640">
	<ele>2696.20</ele>
	<time>2023-08-09T07:24:36.000Z</time>
</trkpt>
<trkpt lat="46.1605370" lon="10.4591640">
	<ele>2696.20</ele>
	<time>2023-08-09T07:24:37.000Z</time>
</trkpt>
<trkpt lat="46.1605370" lon="10.4591630">
	<ele>2696.20</ele>
	<time>2023-08-09T07:24:38.000Z</time>
</trkpt>
<trkpt lat="46.1605370" lon="10.4591630">
	<ele>2696.20</ele>
	<time>2023-08-09T07:24:39.000Z</time>
</trkpt>
<trkpt lat="46.1605370" lon="10.4591630">
	<ele>2696.20</ele>
	<time>2023-08-09T07:24:40.000Z</time>
</trkpt>
<trkpt lat="46.1605370" lon="10.4591630">
	<ele>2696.20</ele>
	<time>2023-08-09T07:24:41.000Z</time>
</trkpt>
<trkpt lat="46.1605370" lon="10.4591630">
	<ele>2696.20</ele>
	<time>2023-08-09T07:24:42.000Z</time>
</trkpt>
<trkpt lat="46.1605370" lon="10.4591630">
	<ele>2696.20</ele>
	<time>2023-08-09T07:24:43.000Z</time>
</trkpt>
<trkpt lat="46.1605370" lon="10.4591630">
	<ele>2696.20</ele>
	<time>2023-08-09T07:24:44.000Z</time>
</trkpt>
<trkpt lat="46.1605370" lon="10.4591630">
	<ele>2696.20</ele>
	<time>2023-08-09T07:24:45.000Z</time>
</trkpt>
<trkpt lat="46.1605380" lon="10.4591630">
	<ele>2696.20</ele>
	<time>2023-08-09T07:24:46.000Z</time>
</trkpt>
<trkpt lat="46.1605380" lon="10.4591630">
	<ele>2696.20</ele>
	<time>2023-08-09T07:24:47.000Z</time>
</trkpt>
<trkpt lat="46.1605380" lon="10.4591640">
	<ele>2696.20</ele>
	<time>2023-08-09T07:24:48.000Z</time>
</trkpt>
<trkpt lat="46.1605380" lon="10.4591640">
	<ele>2696.20</ele>
	<time>2023-08-09T07:24:49.000Z</time>
</trkpt>
<trkpt lat="46.1605390" lon="10.4591640">
	<ele>2696.20</ele>
	<time>2023-08-09T07:24:50.000Z</time>
</trkpt>
<trkpt lat="46.1605390" lon="10.4591640">
	<ele>2696.20</ele>
	<time>2023-08-09T07:24:51.000Z</time>
</trkpt>
<trkpt lat="46.1605390" lon="10.4591640">
	<ele>2696.20</ele>
	<time>2023-08-09T07:24:52.000Z</time>
</trkpt>
<trkpt lat="46.1605400" lon="10.4591640">
	<ele>2696.20</ele>
	<time>2023-08-09T07:24:53.000Z</time>
</trkpt>
<trkpt lat="46.1605400" lon="10.4591650">
	<ele>2696.20</ele>
	<time>2023-08-09T07:24:54.000Z</time>
</trkpt>
<trkpt lat="46.1605400" lon="10.4591650">
	<ele>2696.20</ele>
	<time>2023-08-09T07:24:55.000Z</time>
</trkpt>
<trkpt lat="46.1605410" lon="10.4591660">
	<ele>2696.20</ele>
	<time>2023-08-09T07:24:56.000Z</time>
</trkpt>
<trkpt lat="46.1605420" lon="10.4591660">
	<ele>2696.20</ele>
	<time>2023-08-09T07:24:57.000Z</time>
</trkpt>
<trkpt lat="46.1605420" lon="10.4591670">
	<ele>2696.20</ele>
	<time>2023-08-09T07:24:58.000Z</time>
</trkpt>
<trkpt lat="46.1605420" lon="10.4591670">
	<ele>2696.20</ele>
	<time>2023-08-09T07:24:59.000Z</time>
</trkpt>
<trkpt lat="46.1605430" lon="10.4591680">
	<ele>2696.20</ele>
	<time>2023-08-09T07:25:00.000Z</time>
</trkpt>
<trkpt lat="46.1605430" lon="10.4591690">
	<ele>2696.20</ele>
	<time>2023-08-09T07:25:01.000Z</time>
</trkpt>
<trkpt lat="46.1605430" lon="10.4591690">
	<ele>2696.20</ele>
	<time>2023-08-09T07:25:02.000Z</time>
</trkpt>
<trkpt lat="46.1605430" lon="10.4591700">
	<ele>2696.20</ele>
	<time>2023-08-09T07:25:03.000Z</time>
</trkpt>
<trkpt lat="46.1605440" lon="10.4591710">
	<ele>2696.20</ele>
	<time>2023-08-09T07:25:04.000Z</time>
</trkpt>
<trkpt lat="46.1605440" lon="10.4591720">
	<ele>2696.20</ele>
	<time>2023-08-09T07:25:05.000Z</time>
</trkpt>
<trkpt lat="46.1605490" lon="10.4591740">
	<ele>2696.20</ele>
	<time>2023-08-09T07:25:06.000Z</time>
</trkpt>
<trkpt lat="46.1605590" lon="10.4591740">
	<ele>2696.20</ele>
	<time>2023-08-09T07:25:07.000Z</time>
</trkpt>
<trkpt lat="46.1605700" lon="10.4591710">
	<ele>2696.20</ele>
	<time>2023-08-09T07:25:08.000Z</time>
</trkpt>
<trkpt lat="46.1605810" lon="10.4591710">
	<ele>2696.20</ele>
	<time>2023-08-09T07:25:09.000Z</time>
</trkpt>
<trkpt lat="46.1605930" lon="10.4591740">
	<ele>2696.20</ele>
	<time>2023-08-09T07:25:10.000Z</time>
</trkpt>
<trkpt lat="46.1606000" lon="10.4591810">
	<ele>2696.20</ele>
	<time>2023-08-09T07:25:11.000Z</time>
</trkpt>
<trkpt lat="46.1606060" lon="10.4591870">
	<ele>2696.20</ele>
	<time>2023-08-09T07:25:12.000Z</time>
</trkpt>
<trkpt lat="46.1606130" lon="10.4591920">
	<ele>2696.20</ele>
	<time>2023-08-09T07:25:13.000Z</time>
</trkpt>
<trkpt lat="46.1606220" lon="10.4591940">
	<ele>2696.20</ele>
	<time>2023-08-09T07:25:14.000Z</time>
</trkpt>
<trkpt lat="46.1606310" lon="10.4591970">
	<ele>2696.20</ele>
	<time>2023-08-09T07:25:15.000Z</time>
</trkpt>
<trkpt lat="46.1606330" lon="10.4592000">
	<ele>2696.20</ele>
	<time>2023-08-09T07:25:16.000Z</time>
</trkpt>
<trkpt lat="46.1606350" lon="10.4592030">
	<ele>2696.20</ele>
	<time>2023-08-09T07:25:17.000Z</time>
</trkpt>
<trkpt lat="46.1606400" lon="10.4592040">
	<ele>2696.20</ele>
	<time>2023-08-09T07:25:18.000Z</time>
</trkpt>
<trkpt lat="46.1606460" lon="10.4592090">
	<ele>2696.20</ele>
	<time>2023-08-09T07:25:19.000Z</time>
</trkpt>
<trkpt lat="46.1606520" lon="10.4592170">
	<ele>2696.20</ele>
	<time>2023-08-09T07:25:20.000Z</time>
</trkpt>
<trkpt lat="46.1606550" lon="10.4592200">
	<ele>2696.20</ele>
	<time>2023-08-09T07:25:21.000Z</time>
</trkpt>
<trkpt lat="46.1606560" lon="10.4592210">
	<ele>2696.20</ele>
	<time>2023-08-09T07:25:22.000Z</time>
</trkpt>
<trkpt lat="46.1606580" lon="10.4592240">
	<ele>2696.20</ele>
	<time>2023-08-09T07:25:23.000Z</time>
</trkpt>
<trkpt lat="46.1606640" lon="10.4592260">
	<ele>2696.20</ele>
	<time>2023-08-09T07:25:24.000Z</time>
</trkpt>
<trkpt lat="46.1606700" lon="10.4592310">
	<ele>2696.20</ele>
	<time>2023-08-09T07:25:25.000Z</time>
</trkpt>
<trkpt lat="46.1606720" lon="10.4592330">
	<ele>2696.20</ele>
	<time>2023-08-09T07:25:26.000Z</time>
</trkpt>
<trkpt lat="46.1606740" lon="10.4592350">
	<ele>2696.20</ele>
	<time>2023-08-09T07:25:27.000Z</time>
</trkpt>
<trkpt lat="46.1606760" lon="10.4592400">
	<ele>2696.20</ele>
	<time>2023-08-09T07:25:28.000Z</time>
</trkpt>
<trkpt lat="46.1606770" lon="10.4592490">
	<ele>2696.20</ele>
	<time>2023-08-09T07:25:29.000Z</time>
</trkpt>
<trkpt lat="46.1606820" lon="10.4592520">
	<ele>2696.20</ele>
	<time>2023-08-09T07:25:30.000Z</time>
</trkpt>
<trkpt lat="46.1606860" lon="10.4592530">
	<ele>2696.20</ele>
	<time>2023-08-09T07:25:31.000Z</time>
</trkpt>
<trkpt lat="46.1606900" lon="10.4592540">
	<ele>2696.20</ele>
	<time>2023-08-09T07:25:32.000Z</time>
</trkpt>
<trkpt lat="46.1606940" lon="10.4592530">
	<ele>2696.20</ele>
	<time>2023-08-09T07:25:33.000Z</time>
</trkpt>
<trkpt lat="46.1606970" lon="10.4592550">
	<ele>2696.20</ele>
	<time>2023-08-09T07:25:34.000Z</time>
</trkpt>
<trkpt lat="46.1607020" lon="10.4592560">
	<ele>2696.20</ele>
	<time>2023-08-09T07:25:35.000Z</time>
</trkpt>
<trkpt lat="46.1607050" lon="10.4592610">
	<ele>2688.20</ele>
	<time>2023-08-09T07:25:36.000Z</time>
</trkpt>
<trkpt lat="46.1607080" lon="10.4592660">
	<ele>2688.20</ele>
	<time>2023-08-09T07:25:37.000Z</time>
</trkpt>
<trkpt lat="46.1607120" lon="10.4592750">
	<ele>2688.20</ele>
	<time>2023-08-09T07:25:38.000Z</time>
</trkpt>
<trkpt lat="46.1607130" lon="10.4592820">
	<ele>2688.20</ele>
	<time>2023-08-09T07:25:39.000Z</time>
</trkpt>
<trkpt lat="46.1607170" lon="10.4592860">
	<ele>2688.20</ele>
	<time>2023-08-09T07:25:40.000Z</time>
</trkpt>
<trkpt lat="46.1607210" lon="10.4592930">
	<ele>2688.00</ele>
	<time>2023-08-09T07:25:41.000Z</time>
</trkpt>
<trkpt lat="46.1607230" lon="10.4592960">
	<ele>2687.80</ele>
	<time>2023-08-09T07:25:42.000Z</time>
</trkpt>
<trkpt lat="46.1607270" lon="10.4593040">
	<ele>2687.80</ele>
	<time>2023-08-09T07:25:43.000Z</time>
</trkpt>
<trkpt lat="46.1607280" lon="10.4593130">
	<ele>2687.60</ele>
	<time>2023-08-09T07:25:44.000Z</time>
</trkpt>
<trkpt lat="46.1607270" lon="10.4593200">
	<ele>2687.60</ele>
	<time>2023-08-09T07:25:45.000Z</time>
</trkpt>
<trkpt lat="46.1607270" lon="10.4593290">
	<ele>2687.40</ele>
	<time>2023-08-09T07:25:46.000Z</time>
</trkpt>
<trkpt lat="46.1607260" lon="10.4593350">
	<ele>2687.40</ele>
	<time>2023-08-09T07:25:47.000Z</time>
</trkpt>
<trkpt lat="46.1607230" lon="10.4593370">
	<ele>2687.20</ele>
	<time>2023-08-09T07:25:48.000Z</time>
</trkpt>
<trkpt lat="46.1607210" lon="10.4593370">
	<ele>2687.00</ele>
	<time>2023-08-09T07:25:49.000Z</time>
</trkpt>
<trkpt lat="46.1607200" lon="10.4593350">
	<ele>2687.00</ele>
	<time>2023-08-09T07:25:50.000Z</time>
</trkpt>
<trkpt lat="46.1607200" lon="10.4593360">
	<ele>2686.80</ele>
	<time>2023-08-09T07:25:51.000Z</time>
</trkpt>
<trkpt lat="46.1607170" lon="10.4593400">
	<ele>2686.80</ele>
	<time>2023-08-09T07:25:52.000Z</time>
</trkpt>
<trkpt lat="46.1607150" lon="10.4593430">
	<ele>2686.80</ele>
	<time>2023-08-09T07:25:53.000Z</time>
</trkpt>
<trkpt lat="46.1607120" lon="10.4593460">
	<ele>2686.60</ele>
	<time>2023-08-09T07:25:54.000Z</time>
</trkpt>
<trkpt lat="46.1607070" lon="10.4593550">
	<ele>2686.60</ele>
	<time>2023-08-09T07:25:55.000Z</time>
</trkpt>
<trkpt lat="46.1607040" lon="10.4593590">
	<ele>2686.60</ele>
	<time>2023-08-09T07:25:56.000Z</time>
</trkpt>
<trkpt lat="46.1606990" lon="10.4593620">
	<ele>2686.60</ele>
	<time>2023-08-09T07:25:57.000Z</time>
</trkpt>
<trkpt lat="46.1606960" lon="10.4593660">
	<ele>2686.60</ele>
	<time>2023-08-09T07:25:58.000Z</time>
</trkpt>
<trkpt lat="46.1606940" lon="10.4593690">
	<ele>2686.40</ele>
	<time>2023-08-09T07:25:59.000Z</time>
</trkpt>
<trkpt lat="46.1606920" lon="10.4593740">
	<ele>2686.20</ele>
	<time>2023-08-09T07:26:00.000Z</time>
</trkpt>
<trkpt lat="46.1606890" lon="10.4593740">
	<ele>2686.20</ele>
	<time>2023-08-09T07:26:01.000Z</time>
</trkpt>
<trkpt lat="46.1606870" lon="10.4593760">
	<ele>2686.00</ele>
	<time>2023-08-09T07:26:02.000Z</time>
</trkpt>
<trkpt lat="46.1606860" lon="10.4593770">
	<ele>2686.00</ele>
	<time>2023-08-09T07:26:03.000Z</time>
</trkpt>
<trkpt lat="46.1606860" lon="10.4593790">
	<ele>2686.00</ele>
	<time>2023-08-09T07:26:04.000Z</time>
</trkpt>
<trkpt lat="46.1606880" lon="10.4593770">
	<ele>2686.00</ele>
	<time>2023-08-09T07:26:05.000Z</time>
</trkpt>
<trkpt lat="46.1606890" lon="10.4593760">
	<ele>2685.80</ele>
	<time>2023-08-09T07:26:06.000Z</time>
</trkpt>
<trkpt lat="46.1606900" lon="10.4593740">
	<ele>2685.60</ele>
	<time>2023-08-09T07:26:07.000Z</time>
</trkpt>
<trkpt lat="46.1606950" lon="10.4593780">
	<ele>2685.60</ele>
	<time>2023-08-09T07:26:08.000Z</time>
</trkpt>
<trkpt lat="46.1606970" lon="10.4593810">
	<ele>2685.40</ele>
	<time>2023-08-09T07:26:09.000Z</time>
</trkpt>
<trkpt lat="46.1607030" lon="10.4593830">
	<ele>2685.20</ele>
	<time>2023-08-09T07:26:10.000Z</time>
</trkpt>
<trkpt lat="46.1607100" lon="10.4593830">
	<ele>2685.20</ele>
	<time>2023-08-09T07:26:11.000Z</time>
</trkpt>
<trkpt lat="46.1607140" lon="10.4593810">
	<ele>2685.00</ele>
	<time>2023-08-09T07:26:12.000Z</time>
</trkpt>
<trkpt lat="46.1607160" lon="10.4593790">
	<ele>2684.80</ele>
	<time>2023-08-09T07:26:13.000Z</time>
</trkpt>
<trkpt lat="46.1607180" lon="10.4593780">
	<ele>2684.60</ele>
	<time>2023-08-09T07:26:14.000Z</time>
</trkpt>
<trkpt lat="46.1607200" lon="10.4593780">
	<ele>2684.40</ele>
	<time>2023-08-09T07:26:15.000Z</time>
</trkpt>
<trkpt lat="46.1607270" lon="10.4593780">
	<ele>2684.20</ele>
	<time>2023-08-09T07:26:16.000Z</time>
</trkpt>
<trkpt lat="46.1607320" lon="10.4593770">
	<ele>2684.20</ele>
	<time>2023-08-09T07:26:17.000Z</time>
</trkpt>
<trkpt lat="46.1607340" lon="10.4593770">
	<ele>2684.00</ele>
	<time>2023-08-09T07:26:18.000Z</time>
</trkpt>
<trkpt lat="46.1607420" lon="10.4593750">
	<ele>2683.80</ele>
	<time>2023-08-09T07:26:19.000Z</time>
</trkpt>
<trkpt lat="46.1607480" lon="10.4593740">
	<ele>2683.80</ele>
	<time>2023-08-09T07:26:20.000Z</time>
</trkpt>
<trkpt lat="46.1607510" lon="10.4593700">
	<ele>2683.60</ele>
	<time>2023-08-09T07:26:21.000Z</time>
</trkpt>
<trkpt lat="46.1607530" lon="10.4593680">
	<ele>2683.60</ele>
	<time>2023-08-09T07:26:22.000Z</time>
</trkpt>
<trkpt lat="46.1607550" lon="10.4593660">
	<ele>2683.60</ele>
	<time>2023-08-09T07:26:23.000Z</time>
</trkpt>
<trkpt lat="46.1607620" lon="10.4593640">
	<ele>2683.60</ele>
	<time>2023-08-09T07:26:24.000Z</time>
</trkpt>
<trkpt lat="46.1607680" lon="10.4593630">
	<ele>2683.40</ele>
	<time>2023-08-09T07:26:25.000Z</time>
</trkpt>
<trkpt lat="46.1607750" lon="10.4593630">
	<ele>2683.40</ele>
	<time>2023-08-09T07:26:26.000Z</time>
</trkpt>
<trkpt lat="46.1607810" lon="10.4593650">
	<ele>2683.40</ele>
	<time>2023-08-09T07:26:27.000Z</time>
</trkpt>
<trkpt lat="46.1607840" lon="10.4593710">
	<ele>2683.40</ele>
	<time>2023-08-09T07:26:28.000Z</time>
</trkpt>
<trkpt lat="46.1607890" lon="10.4593720">
	<ele>2683.40</ele>
	<time>2023-08-09T07:26:29.000Z</time>
</trkpt>
<trkpt lat="46.1607960" lon="10.4593710">
	<ele>2683.40</ele>
	<time>2023-08-09T07:26:30.000Z</time>
</trkpt>
<trkpt lat="46.1608040" lon="10.4593710">
	<ele>2683.40</ele>
	<time>2023-08-09T07:26:31.000Z</time>
</trkpt>
<trkpt lat="46.1608130" lon="10.4593650">
	<ele>2683.40</ele>
	<time>2023-08-09T07:26:32.000Z</time>
</trkpt>
<trkpt lat="46.1608200" lon="10.4593610">
	<ele>2683.40</ele>
	<time>2023-08-09T07:26:33.000Z</time>
</trkpt>
<trkpt lat="46.1608260" lon="10.4593590">
	<ele>2683.20</ele>
	<time>2023-08-09T07:26:34.000Z</time>
</trkpt>
<trkpt lat="46.1608310" lon="10.4593610">
	<ele>2683.20</ele>
	<time>2023-08-09T07:26:35.000Z</time>
</trkpt>
<trkpt lat="46.1608380" lon="10.4593610">
	<ele>2683.20</ele>
	<time>2023-08-09T07:26:36.000Z</time>
</trkpt>
<trkpt lat="46.1608430" lon="10.4593690">
	<ele>2683.20</ele>
	<time>2023-08-09T07:26:37.000Z</time>
</trkpt>
<trkpt lat="46.1608490" lon="10.4593680">
	<ele>2683.00</ele>
	<time>2023-08-09T07:26:38.000Z</time>
</trkpt>
<trkpt lat="46.1608590" lon="10.4593690">
	<ele>2683.20</ele>
	<time>2023-08-09T07:26:39.000Z</time>
</trkpt>
<trkpt lat="46.1608680" lon="10.4593720">
	<ele>2683.00</ele>
	<time>2023-08-09T07:26:40.000Z</time>
</trkpt>
<trkpt lat="46.1608740" lon="10.4593710">
	<ele>2683.00</ele>
	<time>2023-08-09T07:26:41.000Z</time>
</trkpt>
<trkpt lat="46.1608790" lon="10.4593730">
	<ele>2683.00</ele>
	<time>2023-08-09T07:26:42.000Z</time>
</trkpt>
<trkpt lat="46.1608850" lon="10.4593730">
	<ele>2683.00</ele>
	<time>2023-08-09T07:26:43.000Z</time>
</trkpt>
<trkpt lat="46.1608900" lon="10.4593770">
	<ele>2683.00</ele>
	<time>2023-08-09T07:26:44.000Z</time>
</trkpt>
<trkpt lat="46.1609020" lon="10.4593810">
	<ele>2683.00</ele>
	<time>2023-08-09T07:26:45.000Z</time>
</trkpt>
<trkpt lat="46.1609120" lon="10.4593840">
	<ele>2682.80</ele>
	<time>2023-08-09T07:26:46.000Z</time>
</trkpt>
<trkpt lat="46.1609220" lon="10.4593820">
	<ele>2682.80</ele>
	<time>2023-08-09T07:26:47.000Z</time>
</trkpt>
<trkpt lat="46.1609260" lon="10.4593850">
	<ele>2682.80</ele>
	<time>2023-08-09T07:26:48.000Z</time>
</trkpt>
<trkpt lat="46.1609330" lon="10.4593880">
	<ele>2682.80</ele>
	<time>2023-08-09T07:26:49.000Z</time>
</trkpt>
<trkpt lat="46.1609430" lon="10.4593930">
	<ele>2682.80</ele>
	<time>2023-08-09T07:26:50.000Z</time>
</trkpt>
<trkpt lat="46.1609500" lon="10.4593960">
	<ele>2682.60</ele>
	<time>2023-08-09T07:26:51.000Z</time>
</trkpt>
<trkpt lat="46.1609550" lon="10.4594050">
	<ele>2682.60</ele>
	<time>2023-08-09T07:26:52.000Z</time>
</trkpt>
<trkpt lat="46.1609590" lon="10.4594110">
	<ele>2682.40</ele>
	<time>2023-08-09T07:26:53.000Z</time>
</trkpt>
<trkpt lat="46.1609660" lon="10.4594160">
	<ele>2682.40</ele>
	<time>2023-08-09T07:26:54.000Z</time>
</trkpt>
<trkpt lat="46.1609760" lon="10.4594200">
	<ele>2682.40</ele>
	<time>2023-08-09T07:26:55.000Z</time>
</trkpt>
<trkpt lat="46.1609860" lon="10.4594210">
	<ele>2682.20</ele>
	<time>2023-08-09T07:26:56.000Z</time>
</trkpt>
<trkpt lat="46.1609940" lon="10.4594250">
	<ele>2682.20</ele>
	<time>2023-08-09T07:26:57.000Z</time>
</trkpt>
<trkpt lat="46.1610010" lon="10.4594310">
	<ele>2682.20</ele>
	<time>2023-08-09T07:26:58.000Z</time>
</trkpt>
<trkpt lat="46.1610100" lon="10.4594310">
	<ele>2682.20</ele>
	<time>2023-08-09T07:26:59.000Z</time>
</trkpt>
<trkpt lat="46.1610180" lon="10.4594340">
	<ele>2682.00</ele>
	<time>2023-08-09T07:27:00.000Z</time>
</trkpt>
<trkpt lat="46.1610270" lon="10.4594390">
	<ele>2682.00</ele>
	<time>2023-08-09T07:27:01.000Z</time>
</trkpt>
<trkpt lat="46.1610370" lon="10.4594430">
	<ele>2682.00</ele>
	<time>2023-08-09T07:27:02.000Z</time>
</trkpt>
<trkpt lat="46.1610430" lon="10.4594470">
	<ele>2682.00</ele>
	<time>2023-08-09T07:27:03.000Z</time>
</trkpt>
<trkpt lat="46.1610490" lon="10.4594520">
	<ele>2681.80</ele>
	<time>2023-08-09T07:27:04.000Z</time>
</trkpt>
<trkpt lat="46.1610550" lon="10.4594580">
	<ele>2681.80</ele>
	<time>2023-08-09T07:27:05.000Z</time>
</trkpt>
<trkpt lat="46.1610630" lon="10.4594690">
	<ele>2681.60</ele>
	<time>2023-08-09T07:27:06.000Z</time>
</trkpt>
<trkpt lat="46.1610700" lon="10.4594740">
	<ele>2681.60</ele>
	<time>2023-08-09T07:27:07.000Z</time>
</trkpt>
<trkpt lat="46.1610740" lon="10.4594780">
	<ele>2681.40</ele>
	<time>2023-08-09T07:27:08.000Z</time>
</trkpt>
<trkpt lat="46.1610810" lon="10.4594800">
	<ele>2681.40</ele>
	<time>2023-08-09T07:27:09.000Z</time>
</trkpt>
<trkpt lat="46.1610860" lon="10.4594810">
	<ele>2681.40</ele>
	<time>2023-08-09T07:27:10.000Z</time>
</trkpt>
<trkpt lat="46.1610880" lon="10.4594860">
	<ele>2681.20</ele>
	<time>2023-08-09T07:27:11.000Z</time>
</trkpt>
<trkpt lat="46.1610900" lon="10.4594920">
	<ele>2681.00</ele>
	<time>2023-08-09T07:27:12.000Z</time>
</trkpt>
<trkpt lat="46.1610870" lon="10.4595020">
	<ele>2680.80</ele>
	<time>2023-08-09T07:27:13.000Z</time>
</trkpt>
<trkpt lat="46.1610890" lon="10.4595100">
	<ele>2680.80</ele>
	<time>2023-08-09T07:27:14.000Z</time>
</trkpt>
<trkpt lat="46.1610910" lon="10.4595160">
	<ele>2680.60</ele>
	<time>2023-08-09T07:27:15.000Z</time>
</trkpt>
<trkpt lat="46.1610900" lon="10.4595210">
	<ele>2680.20</ele>
	<time>2023-08-09T07:27:16.000Z</time>
</trkpt>
<trkpt lat="46.1610900" lon="10.4595280">
	<ele>2680.00</ele>
	<time>2023-08-09T07:27:17.000Z</time>
</trkpt>
<trkpt lat="46.1610940" lon="10.4595320">
	<ele>2679.80</ele>
	<time>2023-08-09T07:27:18.000Z</time>
</trkpt>
<trkpt lat="46.1610970" lon="10.4595360">
	<ele>2680.00</ele>
	<time>2023-08-09T07:27:19.000Z</time>
</trkpt>
<trkpt lat="46.1610990" lon="10.4595380">
	<ele>2680.00</ele>
	<time>2023-08-09T07:27:20.000Z</time>
</trkpt>
<trkpt lat="46.1611000" lon="10.4595390">
	<ele>2680.20</ele>
	<time>2023-08-09T07:27:21.000Z</time>
</trkpt>
<trkpt lat="46.1611010" lon="10.4595400">
	<ele>2680.20</ele>
	<time>2023-08-09T07:27:22.000Z</time>
</trkpt>
<trkpt lat="46.1611020" lon="10.4595410">
	<ele>2680.40</ele>
	<time>2023-08-09T07:27:23.000Z</time>
</trkpt>
<trkpt lat="46.1611020" lon="10.4595420">
	<ele>2680.60</ele>
	<time>2023-08-09T07:27:24.000Z</time>
</trkpt>
<trkpt lat="46.1611020" lon="10.4595420">
	<ele>2680.60</ele>
	<time>2023-08-09T07:27:25.000Z</time>
</trkpt>
<trkpt lat="46.1611010" lon="10.4595420">
	<ele>2680.60</ele>
	<time>2023-08-09T07:27:26.000Z</time>
</trkpt>
<trkpt lat="46.1611010" lon="10.4595420">
	<ele>2680.60</ele>
	<time>2023-08-09T07:27:27.000Z</time>
</trkpt>
<trkpt lat="46.1611010" lon="10.4595420">
	<ele>2680.60</ele>
	<time>2023-08-09T07:27:28.000Z</time>
</trkpt>
<trkpt lat="46.1611010" lon="10.4595420">
	<ele>2680.60</ele>
	<time>2023-08-09T07:27:29.000Z</time>
</trkpt>
<trkpt lat="46.1611010" lon="10.4595420">
	<ele>2680.60</ele>
	<time>2023-08-09T07:27:30.000Z</time>
</trkpt>
<trkpt lat="46.1611010" lon="10.4595420">
	<ele>2680.60</ele>
	<time>2023-08-09T07:27:31.000Z</time>
</trkpt>
<trkpt lat="46.1611010" lon="10.4595420">
	<ele>2680.60</ele>
	<time>2023-08-09T07:27:32.000Z</time>
</trkpt>
<trkpt lat="46.1611010" lon="10.4595420">
	<ele>2680.60</ele>
	<time>2023-08-09T07:27:33.000Z</time>
</trkpt>
<trkpt lat="46.1611010" lon="10.4595420">
	<ele>2680.60</ele>
	<time>2023-08-09T07:27:34.000Z</time>
</trkpt>
<trkpt lat="46.1611010" lon="10.4595420">
	<ele>2680.40</ele>
	<time>2023-08-09T07:27:35.000Z</time>
</trkpt>
<trkpt lat="46.1611010" lon="10.4595420">
	<ele>2680.00</ele>
	<time>2023-08-09T07:27:36.000Z</time>
</trkpt>
<trkpt lat="46.1611010" lon="10.4595420">
	<ele>2679.80</ele>
	<time>2023-08-09T07:27:37.000Z</time>
</trkpt>
<trkpt lat="46.1611010" lon="10.4595420">
	<ele>2679.60</ele>
	<time>2023-08-09T07:27:38.000Z</time>
</trkpt>
<trkpt lat="46.1611010" lon="10.4595420">
	<ele>2679.40</ele>
	<time>2023-08-09T07:27:39.000Z</time>
</trkpt>
<trkpt lat="46.1611010" lon="10.4595420">
	<ele>2679.20</ele>
	<time>2023-08-09T07:27:40.000Z</time>
</trkpt>
<trkpt lat="46.1611010" lon="10.4595420">
	<ele>2679.20</ele>
	<time>2023-08-09T07:27:41.000Z</time>
</trkpt>
<trkpt lat="46.1611010" lon="10.4595420">
	<ele>2679.00</ele>
	<time>2023-08-09T07:27:42.000Z</time>
</trkpt>
<trkpt lat="46.1611010" lon="10.4595420">
	<ele>2679.00</ele>
	<time>2023-08-09T07:27:43.000Z</time>
</trkpt>
<trkpt lat="46.1611010" lon="10.4595420">
	<ele>2678.60</ele>
	<time>2023-08-09T07:27:44.000Z</time>
</trkpt>
<trkpt lat="46.1611020" lon="10.4595420">
	<ele>2678.40</ele>
	<time>2023-08-09T07:27:45.000Z</time>
</trkpt>
<trkpt lat="46.1611020" lon="10.4595420">
	<ele>2678.00</ele>
	<time>2023-08-09T07:27:46.000Z</time>
</trkpt>
<trkpt lat="46.1611020" lon="10.4595430">
	<ele>2677.80</ele>
	<time>2023-08-09T07:27:47.000Z</time>
</trkpt>
<trkpt lat="46.1611020" lon="10.4595440">
	<ele>2677.40</ele>
	<time>2023-08-09T07:27:48.000Z</time>
</trkpt>
<trkpt lat="46.1611040" lon="10.4595440">
	<ele>2677.20</ele>
	<time>2023-08-09T07:27:49.000Z</time>
</trkpt>
<trkpt lat="46.1611050" lon="10.4595460">
	<ele>2677.00</ele>
	<time>2023-08-09T07:27:50.000Z</time>
</trkpt>
<trkpt lat="46.1611050" lon="10.4595490">
	<ele>2676.80</ele>
	<time>2023-08-09T07:27:51.000Z</time>
</trkpt>
<trkpt lat="46.1611050" lon="10.4595520">
	<ele>2676.60</ele>
	<time>2023-08-09T07:27:52.000Z</time>
</trkpt>
<trkpt lat="46.1611050" lon="10.4595550">
	<ele>2676.20</ele>
	<time>2023-08-09T07:27:53.000Z</time>
</trkpt>
<trkpt lat="46.1611060" lon="10.4595590">
	<ele>2676.00</ele>
	<time>2023-08-09T07:27:54.000Z</time>
</trkpt>
<trkpt lat="46.1611060" lon="10.4595630">
	<ele>2675.80</ele>
	<time>2023-08-09T07:27:55.000Z</time>
</trkpt>
<trkpt lat="46.1611060" lon="10.4595670">
	<ele>2675.80</ele>
	<time>2023-08-09T07:27:56.000Z</time>
</trkpt>
<trkpt lat="46.1611060" lon="10.4595720">
	<ele>2675.60</ele>
	<time>2023-08-09T07:27:57.000Z</time>
</trkpt>
<trkpt lat="46.1611060" lon="10.4595790">
	<ele>2675.40</ele>
	<time>2023-08-09T07:27:58.000Z</time>
</trkpt>
<trkpt lat="46.1611060" lon="10.4595850">
	<ele>2675.40</ele>
	<time>2023-08-09T07:27:59.000Z</time>
</trkpt>
<trkpt lat="46.1611070" lon="10.4595920">
	<ele>2675.20</ele>
	<time>2023-08-09T07:28:00.000Z</time>
</trkpt>
<trkpt lat="46.1611080" lon="10.4596010">
	<ele>2675.20</ele>
	<time>2023-08-09T07:28:01.000Z</time>
</trkpt>
<trkpt lat="46.1611090" lon="10.4596070">
	<ele>2675.20</ele>
	<time>2023-08-09T07:28:02.000Z</time>
</trkpt>
<trkpt lat="46.1611100" lon="10.4596140">
	<ele>2675.20</ele>
	<time>2023-08-09T07:28:03.000Z</time>
</trkpt>
<trkpt lat="46.1611140" lon="10.4596170">
	<ele>2675.00</ele>
	<time>2023-08-09T07:28:04.000Z</time>
</trkpt>
<trkpt lat="46.1611210" lon="10.4596220">
	<ele>2675.00</ele>
	<time>2023-08-09T07:28:05.000Z</time>
</trkpt>
<trkpt lat="46.1611270" lon="10.4596250">
	<ele>2674.80</ele>
	<time>2023-08-09T07:28:06.000Z</time>
</trkpt>
<trkpt lat="46.1611340" lon="10.4596270">
	<ele>2674.60</ele>
	<time>2023-08-09T07:28:07.000Z</time>
</trkpt>
<trkpt lat="46.1611390" lon="10.4596300">
	<ele>2674.40</ele>
	<time>2023-08-09T07:28:08.000Z</time>
</trkpt>
<trkpt lat="46.1611460" lon="10.4596360">
	<ele>2674.20</ele>
	<time>2023-08-09T07:28:09.000Z</time>
</trkpt>
<trkpt lat="46.1611490" lon="10.4596400">
	<ele>2674.00</ele>
	<time>2023-08-09T07:28:10.000Z</time>
</trkpt>
<trkpt lat="46.1611500" lon="10.4596420">
	<ele>2673.80</ele>
	<time>2023-08-09T07:28:11.000Z</time>
</trkpt>
<trkpt lat="46.1611510" lon="10.4596420">
	<ele>2673.60</ele>
	<time>2023-08-09T07:28:12.000Z</time>
</trkpt>
<trkpt lat="46.1611510" lon="10.4596430">
	<ele>2673.40</ele>
	<time>2023-08-09T07:28:13.000Z</time>
</trkpt>
<trkpt lat="46.1611510" lon="10.4596430">
	<ele>2673.20</ele>
	<time>2023-08-09T07:28:14.000Z</time>
</trkpt>
<trkpt lat="46.1611510" lon="10.4596440">
	<ele>2673.00</ele>
	<time>2023-08-09T07:28:15.000Z</time>
</trkpt>
<trkpt lat="46.1611510" lon="10.4596470">
	<ele>2672.80</ele>
	<time>2023-08-09T07:28:16.000Z</time>
</trkpt>
<trkpt lat="46.1611510" lon="10.4596590">
	<ele>2672.60</ele>
	<time>2023-08-09T07:28:17.000Z</time>
</trkpt>
<trkpt lat="46.1611470" lon="10.4596770">
	<ele>2672.40</ele>
	<time>2023-08-09T07:28:18.000Z</time>
</trkpt>
<trkpt lat="46.1611470" lon="10.4596940">
	<ele>2672.00</ele>
	<time>2023-08-09T07:28:19.000Z</time>
</trkpt>
<trkpt lat="46.1611500" lon="10.4597110">
	<ele>2671.60</ele>
	<time>2023-08-09T07:28:20.000Z</time>
</trkpt>
<trkpt lat="46.1611520" lon="10.4597280">
	<ele>2671.40</ele>
	<time>2023-08-09T07:28:21.000Z</time>
</trkpt>
<trkpt lat="46.1611530" lon="10.4597470">
	<ele>2671.20</ele>
	<time>2023-08-09T07:28:22.000Z</time>
</trkpt>
<trkpt lat="46.1611570" lon="10.4597670">
	<ele>2671.20</ele>
	<time>2023-08-09T07:28:23.000Z</time>
</trkpt>
<trkpt lat="46.1611590" lon="10.4597870">
	<ele>2670.80</ele>
	<time>2023-08-09T07:28:24.000Z</time>
</trkpt>
<trkpt lat="46.1611570" lon="10.4598060">
	<ele>2670.60</ele>
	<time>2023-08-09T07:28:25.000Z</time>
</trkpt>
<trkpt lat="46.1611550" lon="10.4598230">
	<ele>2670.40</ele>
	<time>2023-08-09T07:28:26.000Z</time>
</trkpt>
<trkpt lat="46.1611540" lon="10.4598310">
	<ele>2670.00</ele>
	<time>2023-08-09T07:28:27.000Z</time>
</trkpt>
<trkpt lat="46.1611560" lon="10.4598420">
	<ele>2669.60</ele>
	<time>2023-08-09T07:28:28.000Z</time>
</trkpt>
<trkpt lat="46.1611560" lon="10.4598510">
	<ele>2669.40</ele>
	<time>2023-08-09T07:28:29.000Z</time>
</trkpt>
<trkpt lat="46.1611570" lon="10.4598530">
	<ele>2669.20</ele>
	<time>2023-08-09T07:28:30.000Z</time>
</trkpt>
<trkpt lat="46.1611630" lon="10.4598490">
	<ele>2669.20</ele>
	<time>2023-08-09T07:28:31.000Z</time>
</trkpt>
<trkpt lat="46.1611690" lon="10.4598450">
	<ele>2669.00</ele>
	<time>2023-08-09T07:28:32.000Z</time>
</trkpt>
<trkpt lat="46.1611790" lon="10.4598410">
	<ele>2668.80</ele>
	<time>2023-08-09T07:28:33.000Z</time>
</trkpt>
<trkpt lat="46.1611840" lon="10.4598390">
	<ele>2668.80</ele>
	<time>2023-08-09T07:28:34.000Z</time>
</trkpt>
<trkpt lat="46.1611890" lon="10.4598450">
	<ele>2668.80</ele>
	<time>2023-08-09T07:28:35.000Z</time>
</trkpt>
<trkpt lat="46.1611920" lon="10.4598530">
	<ele>2668.60</ele>
	<time>2023-08-09T07:28:36.000Z</time>
</trkpt>
<trkpt lat="46.1611930" lon="10.4598570">
	<ele>2668.60</ele>
	<time>2023-08-09T07:28:37.000Z</time>
</trkpt>
<trkpt lat="46.1611950" lon="10.4598600">
	<ele>2668.40</ele>
	<time>2023-08-09T07:28:38.000Z</time>
</trkpt>
<trkpt lat="46.1611970" lon="10.4598620">
	<ele>2668.40</ele>
	<time>2023-08-09T07:28:39.000Z</time>
</trkpt>
<trkpt lat="46.1612070" lon="10.4598580">
	<ele>2668.40</ele>
	<time>2023-08-09T07:28:40.000Z</time>
</trkpt>
<trkpt lat="46.1612120" lon="10.4598560">
	<ele>2668.20</ele>
	<time>2023-08-09T07:28:41.000Z</time>
</trkpt>
<trkpt lat="46.1612190" lon="10.4598520">
	<ele>2668.20</ele>
	<time>2023-08-09T07:28:42.000Z</time>
</trkpt>
<trkpt lat="46.1612210" lon="10.4598500">
	<ele>2668.00</ele>
	<time>2023-08-09T07:28:43.000Z</time>
</trkpt>
<trkpt lat="46.1612260" lon="10.4598480">
	<ele>2668.00</ele>
	<time>2023-08-09T07:28:44.000Z</time>
</trkpt>
<trkpt lat="46.1612300" lon="10.4598500">
	<ele>2668.00</ele>
	<time>2023-08-09T07:28:45.000Z</time>
</trkpt>
<trkpt lat="46.1612340" lon="10.4598510">
	<ele>2667.60</ele>
	<time>2023-08-09T07:28:46.000Z</time>
</trkpt>
<trkpt lat="46.1612370" lon="10.4598520">
	<ele>2667.40</ele>
	<time>2023-08-09T07:28:47.000Z</time>
</trkpt>
<trkpt lat="46.1612410" lon="10.4598520">
	<ele>2667.40</ele>
	<time>2023-08-09T07:28:48.000Z</time>
</trkpt>
<trkpt lat="46.1612480" lon="10.4598520">
	<ele>2667.20</ele>
	<time>2023-08-09T07:28:49.000Z</time>
</trkpt>
<trkpt lat="46.1612530" lon="10.4598520">
	<ele>2667.20</ele>
	<time>2023-08-09T07:28:50.000Z</time>
</trkpt>
<trkpt lat="46.1612570" lon="10.4598470">
	<ele>2667.00</ele>
	<time>2023-08-09T07:28:51.000Z</time>
</trkpt>
<trkpt lat="46.1612610" lon="10.4598450">
	<ele>2666.80</ele>
	<time>2023-08-09T07:28:52.000Z</time>
</trkpt>
<trkpt lat="46.1612650" lon="10.4598420">
	<ele>2666.80</ele>
	<time>2023-08-09T07:28:53.000Z</time>
</trkpt>
<trkpt lat="46.1612670" lon="10.4598340">
	<ele>2666.60</ele>
	<time>2023-08-09T07:28:54.000Z</time>
</trkpt>
<trkpt lat="46.1612690" lon="10.4598300">
	<ele>2666.40</ele>
	<time>2023-08-09T07:28:55.000Z</time>
</trkpt>
<trkpt lat="46.1612710" lon="10.4598260">
	<ele>2666.00</ele>
	<time>2023-08-09T07:28:56.000Z</time>
</trkpt>
<trkpt lat="46.1612740" lon="10.4598230">
	<ele>2665.80</ele>
	<time>2023-08-09T07:28:57.000Z</time>
</trkpt>
<trkpt lat="46.1612780" lon="10.4598210">
	<ele>2665.80</ele>
	<time>2023-08-09T07:28:58.000Z</time>
</trkpt>
<trkpt lat="46.1612820" lon="10.4598240">
	<ele>2665.60</ele>
	<time>2023-08-09T07:28:59.000Z</time>
</trkpt>
<trkpt lat="46.1612850" lon="10.4598250">
	<ele>2665.60</ele>
	<time>2023-08-09T07:29:00.000Z</time>
</trkpt>
<trkpt lat="46.1612870" lon="10.4598250">
	<ele>2665.40</ele>
	<time>2023-08-09T07:29:01.000Z</time>
</trkpt>
<trkpt lat="46.1612950" lon="10.4598160">
	<ele>2665.20</ele>
	<time>2023-08-09T07:29:02.000Z</time>
</trkpt>
<trkpt lat="46.1613040" lon="10.4598160">
	<ele>2665.00</ele>
	<time>2023-08-09T07:29:03.000Z</time>
</trkpt>
<trkpt lat="46.1613090" lon="10.4598160">
	<ele>2664.80</ele>
	<time>2023-08-09T07:29:04.000Z</time>
</trkpt>
<trkpt lat="46.1613150" lon="10.4598190">
	<ele>2664.80</ele>
	<time>2023-08-09T07:29:05.000Z</time>
</trkpt>
<trkpt lat="46.1613230" lon="10.4598180">
	<ele>2664.80</ele>
	<time>2023-08-09T07:29:06.000Z</time>
</trkpt>
<trkpt lat="46.1613310" lon="10.4598220">
	<ele>2664.60</ele>
	<time>2023-08-09T07:29:07.000Z</time>
</trkpt>
<trkpt lat="46.1613320" lon="10.4598270">
	<ele>2664.60</ele>
	<time>2023-08-09T07:29:08.000Z</time>
</trkpt>
<trkpt lat="46.1613310" lon="10.4598320">
	<ele>2664.60</ele>
	<time>2023-08-09T07:29:09.000Z</time>
</trkpt>
<trkpt lat="46.1613290" lon="10.4598360">
	<ele>2664.40</ele>
	<time>2023-08-09T07:29:10.000Z</time>
</trkpt>
<trkpt lat="46.1613290" lon="10.4598440">
	<ele>2664.20</ele>
	<time>2023-08-09T07:29:11.000Z</time>
</trkpt>
<trkpt lat="46.1613270" lon="10.4598490">
	<ele>2664.20</ele>
	<time>2023-08-09T07:29:12.000Z</time>
</trkpt>
<trkpt lat="46.1613270" lon="10.4598560">
	<ele>2664.20</ele>
	<time>2023-08-09T07:29:13.000Z</time>
</trkpt>
<trkpt lat="46.1613290" lon="10.4598610">
	<ele>2664.20</ele>
	<time>2023-08-09T07:29:14.000Z</time>
</trkpt>
<trkpt lat="46.1613310" lon="10.4598670">
	<ele>2664.00</ele>
	<time>2023-08-09T07:29:15.000Z</time>
</trkpt>
<trkpt lat="46.1613330" lon="10.4598720">
	<ele>2664.00</ele>
	<time>2023-08-09T07:29:16.000Z</time>
</trkpt>
<trkpt lat="46.1613350" lon="10.4598750">
	<ele>2664.00</ele>
	<time>2023-08-09T07:29:17.000Z</time>
</trkpt>
<trkpt lat="46.1613380" lon="10.4598770">
	<ele>2664.20</ele>
	<time>2023-08-09T07:29:18.000Z</time>
</trkpt>
<trkpt lat="46.1613440" lon="10.4598800">
	<ele>2664.20</ele>
	<time>2023-08-09T07:29:19.000Z</time>
</trkpt>
<trkpt lat="46.1613490" lon="10.4598830">
	<ele>2664.20</ele>
	<time>2023-08-09T07:29:20.000Z</time>
</trkpt>
<trkpt lat="46.1613560" lon="10.4598870">
	<ele>2664.20</ele>
	<time>2023-08-09T07:29:21.000Z</time>
</trkpt>
<trkpt lat="46.1613630" lon="10.4598940">
	<ele>2664.20</ele>
	<time>2023-08-09T07:29:22.000Z</time>
</trkpt>
<trkpt lat="46.1613730" lon="10.4599010">
	<ele>2664.40</ele>
	<time>2023-08-09T07:29:23.000Z</time>
</trkpt>
<trkpt lat="46.1613770" lon="10.4599120">
	<ele>2664.20</ele>
	<time>2023-08-09T07:29:24.000Z</time>
</trkpt>
<trkpt lat="46.1613770" lon="10.4599120">
	<ele>2664.20</ele>
	<time>2023-08-09T07:29:25.000Z</time>
</trkpt>
<trkpt lat="46.1613740" lon="10.4599140">
	<ele>2664.00</ele>
	<time>2023-08-09T07:29:26.000Z</time>
</trkpt>
<trkpt lat="46.1613730" lon="10.4599160">
	<ele>2663.80</ele>
	<time>2023-08-09T07:29:27.000Z</time>
</trkpt>
<trkpt lat="46.1613720" lon="10.4599190">
	<ele>2663.40</ele>
	<time>2023-08-09T07:29:28.000Z</time>
</trkpt>
<trkpt lat="46.1613720" lon="10.4599220">
	<ele>2663.40</ele>
	<time>2023-08-09T07:29:29.000Z</time>
</trkpt>
<trkpt lat="46.1613720" lon="10.4599250">
	<ele>2663.20</ele>
	<time>2023-08-09T07:29:30.000Z</time>
</trkpt>
<trkpt lat="46.1613690" lon="10.4599330">
	<ele>2663.20</ele>
	<time>2023-08-09T07:29:31.000Z</time>
</trkpt>
<trkpt lat="46.1613610" lon="10.4599400">
	<ele>2663.20</ele>
	<time>2023-08-09T07:29:32.000Z</time>
</trkpt>
<trkpt lat="46.1613520" lon="10.4599510">
	<ele>2663.20</ele>
	<time>2023-08-09T07:29:33.000Z</time>
</trkpt>
<trkpt lat="46.1613480" lon="10.4599540">
	<ele>2663.20</ele>
	<time>2023-08-09T07:29:34.000Z</time>
</trkpt>
<trkpt lat="46.1613490" lon="10.4599540">
	<ele>2663.20</ele>
	<time>2023-08-09T07:29:35.000Z</time>
</trkpt>
<trkpt lat="46.1613490" lon="10.4599520">
	<ele>2663.20</ele>
	<time>2023-08-09T07:29:36.000Z</time>
</trkpt>
<trkpt lat="46.1613490" lon="10.4599520">
	<ele>2663.40</ele>
	<time>2023-08-09T07:29:37.000Z</time>
</trkpt>
<trkpt lat="46.1613490" lon="10.4599520">
	<ele>2663.40</ele>
	<time>2023-08-09T07:29:38.000Z</time>
</trkpt>
<trkpt lat="46.1613490" lon="10.4599520">
	<ele>2663.40</ele>
	<time>2023-08-09T07:29:39.000Z</time>
</trkpt>
<trkpt lat="46.1613490" lon="10.4599520">
	<ele>2663.40</ele>
	<time>2023-08-09T07:29:40.000Z</time>
</trkpt>
<trkpt lat="46.1613490" lon="10.4599520">
	<ele>2663.60</ele>
	<time>2023-08-09T07:29:41.000Z</time>
</trkpt>
<trkpt lat="46.1613490" lon="10.4599520">
	<ele>2663.60</ele>
	<time>2023-08-09T07:29:42.000Z</time>
</trkpt>
<trkpt lat="46.1613490" lon="10.4599520">
	<ele>2663.60</ele>
	<time>2023-08-09T07:29:43.000Z</time>
</trkpt>
<trkpt lat="46.1613490" lon="10.4599520">
	<ele>2663.60</ele>
	<time>2023-08-09T07:29:44.000Z</time>
</trkpt>
<trkpt lat="46.1613490" lon="10.4599520">
	<ele>2663.60</ele>
	<time>2023-08-09T07:29:45.000Z</time>
</trkpt>
<trkpt lat="46.1613490" lon="10.4599520">
	<ele>2663.40</ele>
	<time>2023-08-09T07:29:46.000Z</time>
</trkpt>
<trkpt lat="46.1613490" lon="10.4599520">
	<ele>2663.20</ele>
	<time>2023-08-09T07:29:47.000Z</time>
</trkpt>
<trkpt lat="46.1613490" lon="10.4599520">
	<ele>2663.00</ele>
	<time>2023-08-09T07:29:48.000Z</time>
</trkpt>
<trkpt lat="46.1613490" lon="10.4599520">
	<ele>2662.80</ele>
	<time>2023-08-09T07:29:49.000Z</time>
</trkpt>
<trkpt lat="46.1613490" lon="10.4599520">
	<ele>2662.80</ele>
	<time>2023-08-09T07:29:50.000Z</time>
</trkpt>
<trkpt lat="46.1613490" lon="10.4599520">
	<ele>2662.80</ele>
	<time>2023-08-09T07:29:51.000Z</time>
</trkpt>
<trkpt lat="46.1613490" lon="10.4599590">
	<ele>2662.60</ele>
	<time>2023-08-09T07:29:52.000Z</time>
</trkpt>
<trkpt lat="46.1613510" lon="10.4599700">
	<ele>2662.60</ele>
	<time>2023-08-09T07:29:53.000Z</time>
</trkpt>
<trkpt lat="46.1613520" lon="10.4599860">
	<ele>2662.60</ele>
	<time>2023-08-09T07:29:54.000Z</time>
</trkpt>
<trkpt lat="46.1613530" lon="10.4599970">
	<ele>2662.60</ele>
	<time>2023-08-09T07:29:55.000Z</time>
</trkpt>
<trkpt lat="46.1613550" lon="10.4600080">
	<ele>2662.40</ele>
	<time>2023-08-09T07:29:56.000Z</time>
</trkpt>
<trkpt lat="46.1613590" lon="10.4600250">
	<ele>2662.20</ele>
	<time>2023-08-09T07:29:57.000Z</time>
</trkpt>
<trkpt lat="46.1613640" lon="10.4600360">
	<ele>2662.00</ele>
	<time>2023-08-09T07:29:58.000Z</time>
</trkpt>
<trkpt lat="46.1613660" lon="10.4600500">
	<ele>2662.00</ele>
	<time>2023-08-09T07:29:59.000Z</time>
</trkpt>
<trkpt lat="46.1613690" lon="10.4600640">
	<ele>2661.80</ele>
	<time>2023-08-09T07:30:00.000Z</time>
</trkpt>
<trkpt lat="46.1613710" lon="10.4600740">
	<ele>2661.60</ele>
	<time>2023-08-09T07:30:01.000Z</time>
</trkpt>
<trkpt lat="46.1613740" lon="10.4600760">
	<ele>2661.40</ele>
	<time>2023-08-09T07:30:02.000Z</time>
</trkpt>
<trkpt lat="46.1613770" lon="10.4600820">
	<ele>2661.20</ele>
	<time>2023-08-09T07:30:03.000Z</time>
</trkpt>
<trkpt lat="46.1613810" lon="10.4600850">
	<ele>2661.00</ele>
	<time>2023-08-09T07:30:04.000Z</time>
</trkpt>
<trkpt lat="46.1613880" lon="10.4600880">
	<ele>2661.00</ele>
	<time>2023-08-09T07:30:05.000Z</time>
</trkpt>
<trkpt lat="46.1613920" lon="10.4600920">
	<ele>2660.80</ele>
	<time>2023-08-09T07:30:06.000Z</time>
</trkpt>
<trkpt lat="46.1613950" lon="10.4600960">
	<ele>2660.60</ele>
	<time>2023-08-09T07:30:07.000Z</time>
</trkpt>
<trkpt lat="46.1613970" lon="10.4600990">
	<ele>2660.60</ele>
	<time>2023-08-09T07:30:08.000Z</time>
</trkpt>
<trkpt lat="46.1613980" lon="10.4601030">
	<ele>2660.20</ele>
	<time>2023-08-09T07:30:09.000Z</time>
</trkpt>
<trkpt lat="46.1613980" lon="10.4601070">
	<ele>2660.00</ele>
	<time>2023-08-09T07:30:10.000Z</time>
</trkpt>
<trkpt lat="46.1613980" lon="10.4601100">
	<ele>2659.80</ele>
	<time>2023-08-09T07:30:11.000Z</time>
</trkpt>
<trkpt lat="46.1613980" lon="10.4601120">
	<ele>2659.60</ele>
	<time>2023-08-09T07:30:12.000Z</time>
</trkpt>
<trkpt lat="46.1613980" lon="10.4601130">
	<ele>2659.60</ele>
	<time>2023-08-09T07:30:13.000Z</time>
</trkpt>
<trkpt lat="46.1613970" lon="10.4601160">
	<ele>2659.40</ele>
	<time>2023-08-09T07:30:14.000Z</time>
</trkpt>
<trkpt lat="46.1613990" lon="10.4601230">
	<ele>2659.20</ele>
	<time>2023-08-09T07:30:15.000Z</time>
</trkpt>
<trkpt lat="46.1614000" lon="10.4601270">
	<ele>2659.20</ele>
	<time>2023-08-09T07:30:16.000Z</time>
</trkpt>
<trkpt lat="46.1614040" lon="10.4601270">
	<ele>2659.00</ele>
	<time>2023-08-09T07:30:17.000Z</time>
</trkpt>
<trkpt lat="46.1614110" lon="10.4601320">
	<ele>2658.60</ele>
	<time>2023-08-09T07:30:18.000Z</time>
</trkpt>
<trkpt lat="46.1614160" lon="10.4601350">
	<ele>2658.40</ele>
	<time>2023-08-09T07:30:19.000Z</time>
</trkpt>
<trkpt lat="46.1614210" lon="10.4601380">
	<ele>2658.00</ele>
	<time>2023-08-09T07:30:20.000Z</time>
</trkpt>
<trkpt lat="46.1614250" lon="10.4601450">
	<ele>2657.80</ele>
	<time>2023-08-09T07:30:21.000Z</time>
</trkpt>
<trkpt lat="46.1614280" lon="10.4601520">
	<ele>2657.60</ele>
	<time>2023-08-09T07:30:22.000Z</time>
</trkpt>
<trkpt lat="46.1614320" lon="10.4601610">
	<ele>2657.40</ele>
	<time>2023-08-09T07:30:23.000Z</time>
</trkpt>
<trkpt lat="46.1614390" lon="10.4601680">
	<ele>2657.40</ele>
	<time>2023-08-09T07:30:24.000Z</time>
</trkpt>
<trkpt lat="46.1614450" lon="10.4601770">
	<ele>2657.20</ele>
	<time>2023-08-09T07:30:25.000Z</time>
</trkpt>
<trkpt lat="46.1614490" lon="10.4601880">
	<ele>2657.00</ele>
	<time>2023-08-09T07:30:26.000Z</time>
</trkpt>
<trkpt lat="46.1614510" lon="10.4602000">
	<ele>2656.60</ele>
	<time>2023-08-09T07:30:27.000Z</time>
</trkpt>
<trkpt lat="46.1614530" lon="10.4602050">
	<ele>2656.40</ele>
	<time>2023-08-09T07:30:28.000Z</time>
</trkpt>
<trkpt lat="46.1614550" lon="10.4602120">
	<ele>2656.20</ele>
	<time>2023-08-09T07:30:29.000Z</time>
</trkpt>
<trkpt lat="46.1614600" lon="10.4602170">
	<ele>2656.20</ele>
	<time>2023-08-09T07:30:30.000Z</time>
</trkpt>
<trkpt lat="46.1614620" lon="10.4602200">
	<ele>2655.80</ele>
	<time>2023-08-09T07:30:31.000Z</time>
</trkpt>
<trkpt lat="46.1614670" lon="10.4602300">
	<ele>2655.60</ele>
	<time>2023-08-09T07:30:32.000Z</time>
</trkpt>
<trkpt lat="46.1614700" lon="10.4602360">
	<ele>2655.20</ele>
	<time>2023-08-09T07:30:33.000Z</time>
</trkpt>
<trkpt lat="46.1614720" lon="10.4602420">
	<ele>2655.00</ele>
	<time>2023-08-09T07:30:34.000Z</time>
</trkpt>
<trkpt lat="46.1614770" lon="10.4602510">
	<ele>2654.80</ele>
	<time>2023-08-09T07:30:35.000Z</time>
</trkpt>
<trkpt lat="46.1614800" lon="10.4602590">
	<ele>2654.80</ele>
	<time>2023-08-09T07:30:36.000Z</time>
</trkpt>
<trkpt lat="46.1614850" lon="10.4602720">
	<ele>2654.80</ele>
	<time>2023-08-09T07:30:37.000Z</time>
</trkpt>
<trkpt lat="46.1614880" lon="10.4602830">
	<ele>2654.60</ele>
	<time>2023-08-09T07:30:38.000Z</time>
</trkpt>
<trkpt lat="46.1614890" lon="10.4602920">
	<ele>2654.40</ele>
	<time>2023-08-09T07:30:39.000Z</time>
</trkpt>
<trkpt lat="46.1614940" lon="10.4602990">
	<ele>2654.20</ele>
	<time>2023-08-09T07:30:40.000Z</time>
</trkpt>
<trkpt lat="46.1615000" lon="10.4603070">
	<ele>2654.20</ele>
	<time>2023-08-09T07:30:41.000Z</time>
</trkpt>
<trkpt lat="46.1615040" lon="10.4603160">
	<ele>2654.00</ele>
	<time>2023-08-09T07:30:42.000Z</time>
</trkpt>
<trkpt lat="46.1615060" lon="10.4603290">
	<ele>2654.00</ele>
	<time>2023-08-09T07:30:43.000Z</time>
</trkpt>
<trkpt lat="46.1615080" lon="10.4603400">
	<ele>2653.80</ele>
	<time>2023-08-09T07:30:44.000Z</time>
</trkpt>
<trkpt lat="46.1615080" lon="10.4603530">
	<ele>2653.80</ele>
	<time>2023-08-09T07:30:45.000Z</time>
</trkpt>
<trkpt lat="46.1615070" lon="10.4603650">
	<ele>2653.40</ele>
	<time>2023-08-09T07:30:46.000Z</time>
</trkpt>
<trkpt lat="46.1615060" lon="10.4603750">
	<ele>2653.00</ele>
	<time>2023-08-09T07:30:47.000Z</time>
</trkpt>
<trkpt lat="46.1615070" lon="10.4603850">
	<ele>2652.40</ele>
	<time>2023-08-09T07:30:48.000Z</time>
</trkpt>
<trkpt lat="46.1615090" lon="10.4603960">
	<ele>2652.20</ele>
	<time>2023-08-09T07:30:49.000Z</time>
</trkpt>
<trkpt lat="46.1615120" lon="10.4604100">
	<ele>2652.20</ele>
	<time>2023-08-09T07:30:50.000Z</time>
</trkpt>
<trkpt lat="46.1615130" lon="10.4604200">
	<ele>2651.80</ele>
	<time>2023-08-09T07:30:51.000Z</time>
</trkpt>
<trkpt lat="46.1615110" lon="10.4604300">
	<ele>2651.60</ele>
	<time>2023-08-09T07:30:52.000Z</time>
</trkpt>
<trkpt lat="46.1615070" lon="10.4604420">
	<ele>2651.40</ele>
	<time>2023-08-09T07:30:53.000Z</time>
</trkpt>
<trkpt lat="46.1615040" lon="10.4604510">
	<ele>2651.40</ele>
	<time>2023-08-09T07:30:54.000Z</time>
</trkpt>
<trkpt lat="46.1615010" lon="10.4604560">
	<ele>2650.80</ele>
	<time>2023-08-09T07:30:55.000Z</time>
</trkpt>
<trkpt lat="46.1614990" lon="10.4604590">
	<ele>2650.40</ele>
	<time>2023-08-09T07:30:56.000Z</time>
</trkpt>
<trkpt lat="46.1614980" lon="10.4604600">
	<ele>2650.20</ele>
	<time>2023-08-09T07:30:57.000Z</time>
</trkpt>
<trkpt lat="46.1614970" lon="10.4604600">
	<ele>2650.00</ele>
	<time>2023-08-09T07:30:58.000Z</time>
</trkpt>
<trkpt lat="46.1614970" lon="10.4604590">
	<ele>2650.00</ele>
	<time>2023-08-09T07:30:59.000Z</time>
</trkpt>
<trkpt lat="46.1614960" lon="10.4604600">
	<ele>2650.00</ele>
	<time>2023-08-09T07:31:00.000Z</time>
</trkpt>
<trkpt lat="46.1614970" lon="10.4604610">
	<ele>2650.00</ele>
	<time>2023-08-09T07:31:01.000Z</time>
</trkpt>
<trkpt lat="46.1614970" lon="10.4604600">
	<ele>2650.00</ele>
	<time>2023-08-09T07:31:02.000Z</time>
</trkpt>
<trkpt lat="46.1614970" lon="10.4604600">
	<ele>2650.00</ele>
	<time>2023-08-09T07:31:03.000Z</time>
</trkpt>
<trkpt lat="46.1614970" lon="10.4604610">
	<ele>2650.20</ele>
	<time>2023-08-09T07:31:04.000Z</time>
</trkpt>
<trkpt lat="46.1614970" lon="10.4604610">
	<ele>2650.20</ele>
	<time>2023-08-09T07:31:05.000Z</time>
</trkpt>
<trkpt lat="46.1614970" lon="10.4604650">
	<ele>2650.20</ele>
	<time>2023-08-09T07:31:06.000Z</time>
</trkpt>
<trkpt lat="46.1614980" lon="10.4604680">
	<ele>2650.20</ele>
	<time>2023-08-09T07:31:07.000Z</time>
</trkpt>
<trkpt lat="46.1615010" lon="10.4604760">
	<ele>2650.20</ele>
	<time>2023-08-09T07:31:08.000Z</time>
</trkpt>
<trkpt lat="46.1615060" lon="10.4604840">
	<ele>2650.20</ele>
	<time>2023-08-09T07:31:09.000Z</time>
</trkpt>
<trkpt lat="46.1615110" lon="10.4604900">
	<ele>2650.20</ele>
	<time>2023-08-09T07:31:10.000Z</time>
</trkpt>
<trkpt lat="46.1615160" lon="10.4604980">
	<ele>2650.20</ele>
	<time>2023-08-09T07:31:11.000Z</time>
</trkpt>
<trkpt lat="46.1615170" lon="10.4605060">
	<ele>2650.00</ele>
	<time>2023-08-09T07:31:12.000Z</time>
</trkpt>
<trkpt lat="46.1615150" lon="10.4605100">
	<ele>2649.80</ele>
	<time>2023-08-09T07:31:13.000Z</time>
</trkpt>
<trkpt lat="46.1615150" lon="10.4605100">
	<ele>2649.80</ele>
	<time>2023-08-09T07:31:14.000Z</time>
</trkpt>
<trkpt lat="46.1615120" lon="10.4605130">
	<ele>2649.80</ele>
	<time>2023-08-09T07:31:15.000Z</time>
</trkpt>
<trkpt lat="46.1615100" lon="10.4605140">
	<ele>2649.60</ele>
	<time>2023-08-09T07:31:16.000Z</time>
</trkpt>
<trkpt lat="46.1615090" lon="10.4605140">
	<ele>2649.80</ele>
	<time>2023-08-09T07:31:17.000Z</time>
</trkpt>
<trkpt lat="46.1615090" lon="10.4605140">
	<ele>2650.00</ele>
	<time>2023-08-09T07:31:18.000Z</time>
</trkpt>
<trkpt lat="46.1615090" lon="10.4605140">
	<ele>2650.20</ele>
	<time>2023-08-09T07:31:19.000Z</time>
</trkpt>
<trkpt lat="46.1615090" lon="10.4605140">
	<ele>2650.20</ele>
	<time>2023-08-09T07:31:20.000Z</time>
</trkpt>
<trkpt lat="46.1615090" lon="10.4605140">
	<ele>2650.20</ele>
	<time>2023-08-09T07:31:21.000Z</time>
</trkpt>
<trkpt lat="46.1615090" lon="10.4605140">
	<ele>2650.20</ele>
	<time>2023-08-09T07:31:22.000Z</time>
</trkpt>
<trkpt lat="46.1615090" lon="10.4605140">
	<ele>2650.20</ele>
	<time>2023-08-09T07:31:23.000Z</time>
</trkpt>
<trkpt lat="46.1615090" lon="10.4605140">
	<ele>2650.00</ele>
	<time>2023-08-09T07:31:24.000Z</time>
</trkpt>
<trkpt lat="46.1615090" lon="10.4605140">
	<ele>2649.80</ele>
	<time>2023-08-09T07:31:25.000Z</time>
</trkpt>
<trkpt lat="46.1615090" lon="10.4605140">
	<ele>2649.80</ele>
	<time>2023-08-09T07:31:26.000Z</time>
</trkpt>
<trkpt lat="46.1615090" lon="10.4605140">
	<ele>2649.60</ele>
	<time>2023-08-09T07:31:27.000Z</time>
</trkpt>
<trkpt lat="46.1615090" lon="10.4605140">
	<ele>2649.60</ele>
	<time>2023-08-09T07:31:28.000Z</time>
</trkpt>
<trkpt lat="46.1615090" lon="10.4605140">
	<ele>2649.60</ele>
	<time>2023-08-09T07:31:29.000Z</time>
</trkpt>
<trkpt lat="46.1615100" lon="10.4605140">
	<ele>2649.60</ele>
	<time>2023-08-09T07:31:30.000Z</time>
</trkpt>
<trkpt lat="46.1615100" lon="10.4605140">
	<ele>2649.60</ele>
	<time>2023-08-09T07:31:31.000Z</time>
</trkpt>
<trkpt lat="46.1615110" lon="10.4605140">
	<ele>2649.60</ele>
	<time>2023-08-09T07:31:32.000Z</time>
</trkpt>
<trkpt lat="46.1615110" lon="10.4605140">
	<ele>2649.60</ele>
	<time>2023-08-09T07:31:33.000Z</time>
</trkpt>
<trkpt lat="46.1615110" lon="10.4605140">
	<ele>2649.60</ele>
	<time>2023-08-09T07:31:34.000Z</time>
</trkpt>
<trkpt lat="46.1615110" lon="10.4605140">
	<ele>2649.60</ele>
	<time>2023-08-09T07:31:35.000Z</time>
</trkpt>
<trkpt lat="46.1615110" lon="10.4605140">
	<ele>2649.60</ele>
	<time>2023-08-09T07:31:36.000Z</time>
</trkpt>
<trkpt lat="46.1615120" lon="10.4605140">
	<ele>2649.40</ele>
	<time>2023-08-09T07:31:37.000Z</time>
</trkpt>
<trkpt lat="46.1615120" lon="10.4605140">
	<ele>2649.20</ele>
	<time>2023-08-09T07:31:38.000Z</time>
</trkpt>
<trkpt lat="46.1615120" lon="10.4605150">
	<ele>2649.00</ele>
	<time>2023-08-09T07:31:39.000Z</time>
</trkpt>
<trkpt lat="46.1615150" lon="10.4605170">
	<ele>2648.80</ele>
	<time>2023-08-09T07:31:40.000Z</time>
</trkpt>
<trkpt lat="46.1615150" lon="10.4605200">
	<ele>2648.60</ele>
	<time>2023-08-09T07:31:41.000Z</time>
</trkpt>
<trkpt lat="46.1615150" lon="10.4605230">
	<ele>2648.40</ele>
	<time>2023-08-09T07:31:42.000Z</time>
</trkpt>
<trkpt lat="46.1615150" lon="10.4605250">
	<ele>2648.20</ele>
	<time>2023-08-09T07:31:43.000Z</time>
</trkpt>
<trkpt lat="46.1615170" lon="10.4605310">
	<ele>2648.00</ele>
	<time>2023-08-09T07:31:44.000Z</time>
</trkpt>
<trkpt lat="46.1615210" lon="10.4605410">
	<ele>2648.00</ele>
	<time>2023-08-09T07:31:45.000Z</time>
</trkpt>
<trkpt lat="46.1615250" lon="10.4605510">
	<ele>2648.00</ele>
	<time>2023-08-09T07:31:46.000Z</time>
</trkpt>
<trkpt lat="46.1615290" lon="10.4605590">
	<ele>2648.00</ele>
	<time>2023-08-09T07:31:47.000Z</time>
</trkpt>
<trkpt lat="46.1615320" lon="10.4605700">
	<ele>2647.80</ele>
	<time>2023-08-09T07:31:48.000Z</time>
</trkpt>
<trkpt lat="46.1615410" lon="10.4605720">
	<ele>2647.80</ele>
	<time>2023-08-09T07:31:49.000Z</time>
</trkpt>
<trkpt lat="46.1615560" lon="10.4605850">
	<ele>2647.80</ele>
	<time>2023-08-09T07:31:50.000Z</time>
</trkpt>
<trkpt lat="46.1615730" lon="10.4605950">
	<ele>2647.60</ele>
	<time>2023-08-09T07:31:51.000Z</time>
</trkpt>
<trkpt lat="46.1615870" lon="10.4606070">
	<ele>2647.20</ele>
	<time>2023-08-09T07:31:52.000Z</time>
</trkpt>
<trkpt lat="46.1615990" lon="10.4606150">
	<ele>2646.80</ele>
	<time>2023-08-09T07:31:53.000Z</time>
</trkpt>
<trkpt lat="46.1616140" lon="10.4606220">
	<ele>2646.60</ele>
	<time>2023-08-09T07:31:54.000Z</time>
</trkpt>
<trkpt lat="46.1616340" lon="10.4606230">
	<ele>2646.60</ele>
	<time>2023-08-09T07:31:55.000Z</time>
</trkpt>
<trkpt lat="46.1616550" lon="10.4606250">
	<ele>2646.40</ele>
	<time>2023-08-09T07:31:56.000Z</time>
</trkpt>
<trkpt lat="46.1616700" lon="10.4606200">
	<ele>2646.20</ele>
	<time>2023-08-09T07:31:57.000Z</time>
</trkpt>
<trkpt lat="46.1616800" lon="10.4606160">
	<ele>2646.20</ele>
	<time>2023-08-09T07:31:58.000Z</time>
</trkpt>
<trkpt lat="46.1616840" lon="10.4606160">
	<ele>2646.00</ele>
	<time>2023-08-09T07:31:59.000Z</time>
</trkpt>
<trkpt lat="46.1616900" lon="10.4606170">
	<ele>2646.00</ele>
	<time>2023-08-09T07:32:00.000Z</time>
</trkpt>
<trkpt lat="46.1616930" lon="10.4606250">
	<ele>2645.80</ele>
	<time>2023-08-09T07:32:01.000Z</time>
</trkpt>
<trkpt lat="46.1616970" lon="10.4606260">
	<ele>2645.60</ele>
	<time>2023-08-09T07:32:02.000Z</time>
</trkpt>
<trkpt lat="46.1617030" lon="10.4606330">
	<ele>2645.40</ele>
	<time>2023-08-09T07:32:03.000Z</time>
</trkpt>
<trkpt lat="46.1617080" lon="10.4606360">
	<ele>2645.40</ele>
	<time>2023-08-09T07:32:04.000Z</time>
</trkpt>
<trkpt lat="46.1617130" lon="10.4606390">
	<ele>2645.20</ele>
	<time>2023-08-09T07:32:05.000Z</time>
</trkpt>
<trkpt lat="46.1617200" lon="10.4606390">
	<ele>2645.20</ele>
	<time>2023-08-09T07:32:06.000Z</time>
</trkpt>
<trkpt lat="46.1617300" lon="10.4606360">
	<ele>2645.00</ele>
	<time>2023-08-09T07:32:07.000Z</time>
</trkpt>
<trkpt lat="46.1617390" lon="10.4606380">
	<ele>2644.80</ele>
	<time>2023-08-09T07:32:08.000Z</time>
</trkpt>
<trkpt lat="46.1617410" lon="10.4606380">
	<ele>2644.60</ele>
	<time>2023-08-09T07:32:09.000Z</time>
</trkpt>
<trkpt lat="46.1617420" lon="10.4606380">
	<ele>2644.20</ele>
	<time>2023-08-09T07:32:10.000Z</time>
</trkpt>
<trkpt lat="46.1617410" lon="10.4606400">
	<ele>2644.00</ele>
	<time>2023-08-09T07:32:11.000Z</time>
</trkpt>
<trkpt lat="46.1617410" lon="10.4606400">
	<ele>2644.00</ele>
	<time>2023-08-09T07:32:12.000Z</time>
</trkpt>
<trkpt lat="46.1617420" lon="10.4606450">
	<ele>2643.80</ele>
	<time>2023-08-09T07:32:13.000Z</time>
</trkpt>
<trkpt lat="46.1617490" lon="10.4606410">
	<ele>2643.80</ele>
	<time>2023-08-09T07:32:14.000Z</time>
</trkpt>
<trkpt lat="46.1617550" lon="10.4606440">
	<ele>2643.60</ele>
	<time>2023-08-09T07:32:15.000Z</time>
</trkpt>
<trkpt lat="46.1617580" lon="10.4606500">
	<ele>2643.60</ele>
	<time>2023-08-09T07:32:16.000Z</time>
</trkpt>
<trkpt lat="46.1617630" lon="10.4606480">
	<ele>2643.40</ele>
	<time>2023-08-09T07:32:17.000Z</time>
</trkpt>
<trkpt lat="46.1617700" lon="10.4606430">
	<ele>2643.40</ele>
	<time>2023-08-09T07:32:18.000Z</time>
</trkpt>
<trkpt lat="46.1617790" lon="10.4606410">
	<ele>2643.20</ele>
	<time>2023-08-09T07:32:19.000Z</time>
</trkpt>
<trkpt lat="46.1617880" lon="10.4606350">
	<ele>2643.20</ele>
	<time>2023-08-09T07:32:20.000Z</time>
</trkpt>
<trkpt lat="46.1617930" lon="10.4606370">
	<ele>2643.00</ele>
	<time>2023-08-09T07:32:21.000Z</time>
</trkpt>
<trkpt lat="46.1617960" lon="10.4606430">
	<ele>2642.80</ele>
	<time>2023-08-09T07:32:22.000Z</time>
</trkpt>
<trkpt lat="46.1618010" lon="10.4606460">
	<ele>2642.60</ele>
	<time>2023-08-09T07:32:23.000Z</time>
</trkpt>
<trkpt lat="46.1618060" lon="10.4606490">
	<ele>2642.40</ele>
	<time>2023-08-09T07:32:24.000Z</time>
</trkpt>
<trkpt lat="46.1618120" lon="10.4606510">
	<ele>2642.20</ele>
	<time>2023-08-09T07:32:25.000Z</time>
</trkpt>
<trkpt lat="46.1618180" lon="10.4606560">
	<ele>2642.00</ele>
	<time>2023-08-09T07:32:26.000Z</time>
</trkpt>
<trkpt lat="46.1618200" lon="10.4606600">
	<ele>2641.80</ele>
	<time>2023-08-09T07:32:27.000Z</time>
</trkpt>
<trkpt lat="46.1618220" lon="10.4606630">
	<ele>2641.60</ele>
	<time>2023-08-09T07:32:28.000Z</time>
</trkpt>
<trkpt lat="46.1618250" lon="10.4606650">
	<ele>2641.40</ele>
	<time>2023-08-09T07:32:29.000Z</time>
</trkpt>
<trkpt lat="46.1618290" lon="10.4606660">
	<ele>2641.20</ele>
	<time>2023-08-09T07:32:30.000Z</time>
</trkpt>
<trkpt lat="46.1618350" lon="10.4606680">
	<ele>2641.00</ele>
	<time>2023-08-09T07:32:31.000Z</time>
</trkpt>
<trkpt lat="46.1618400" lon="10.4606720">
	<ele>2641.00</ele>
	<time>2023-08-09T07:32:32.000Z</time>
</trkpt>
<trkpt lat="46.1618430" lon="10.4606750">
	<ele>2640.80</ele>
	<time>2023-08-09T07:32:33.000Z</time>
</trkpt>
<trkpt lat="46.1618470" lon="10.4606800">
	<ele>2640.60</ele>
	<time>2023-08-09T07:32:34.000Z</time>
</trkpt>
<trkpt lat="46.1618560" lon="10.4606840">
	<ele>2640.40</ele>
	<time>2023-08-09T07:32:35.000Z</time>
</trkpt>
<trkpt lat="46.1618610" lon="10.4606880">
	<ele>2640.20</ele>
	<time>2023-08-09T07:32:36.000Z</time>
</trkpt>
<trkpt lat="46.1618640" lon="10.4606910">
	<ele>2640.20</ele>
	<time>2023-08-09T07:32:37.000Z</time>
</trkpt>
<trkpt lat="46.1618660" lon="10.4606950">
	<ele>2640.00</ele>
	<time>2023-08-09T07:32:38.000Z</time>
</trkpt>
<trkpt lat="46.1618670" lon="10.4607000">
	<ele>2639.80</ele>
	<time>2023-08-09T07:32:39.000Z</time>
</trkpt>
<trkpt lat="46.1618680" lon="10.4607020">
	<ele>2639.60</ele>
	<time>2023-08-09T07:32:40.000Z</time>
</trkpt>
<trkpt lat="46.1618710" lon="10.4607050">
	<ele>2639.60</ele>
	<time>2023-08-09T07:32:41.000Z</time>
</trkpt>
<trkpt lat="46.1618770" lon="10.4607000">
	<ele>2639.40</ele>
	<time>2023-08-09T07:32:42.000Z</time>
</trkpt>
<trkpt lat="46.1618840" lon="10.4606980">
	<ele>2639.40</ele>
	<time>2023-08-09T07:32:43.000Z</time>
</trkpt>
<trkpt lat="46.1618910" lon="10.4606980">
	<ele>2639.20</ele>
	<time>2023-08-09T07:32:44.000Z</time>
</trkpt>
<trkpt lat="46.1618990" lon="10.4607000">
	<ele>2639.20</ele>
	<time>2023-08-09T07:32:45.000Z</time>
</trkpt>
<trkpt lat="46.1619050" lon="10.4607080">
	<ele>2639.00</ele>
	<time>2023-08-09T07:32:46.000Z</time>
</trkpt>
<trkpt lat="46.1619090" lon="10.4607180">
	<ele>2638.80</ele>
	<time>2023-08-09T07:32:47.000Z</time>
</trkpt>
<trkpt lat="46.1619130" lon="10.4607270">
	<ele>2638.80</ele>
	<time>2023-08-09T07:32:48.000Z</time>
</trkpt>
<trkpt lat="46.1619190" lon="10.4607300">
	<ele>2638.60</ele>
	<time>2023-08-09T07:32:49.000Z</time>
</trkpt>
<trkpt lat="46.1619220" lon="10.4607340">
	<ele>2638.60</ele>
	<time>2023-08-09T07:32:50.000Z</time>
</trkpt>
<trkpt lat="46.1619260" lon="10.4607420">
	<ele>2638.40</ele>
	<time>2023-08-09T07:32:51.000Z</time>
</trkpt>
<trkpt lat="46.1619300" lon="10.4607440">
	<ele>2638.20</ele>
	<time>2023-08-09T07:32:52.000Z</time>
</trkpt>
<trkpt lat="46.1619380" lon="10.4607420">
	<ele>2638.00</ele>
	<time>2023-08-09T07:32:53.000Z</time>
</trkpt>
<trkpt lat="46.1619470" lon="10.4607350">
	<ele>2638.00</ele>
	<time>2023-08-09T07:32:54.000Z</time>
</trkpt>
<trkpt lat="46.1619540" lon="10.4607330">
	<ele>2637.80</ele>
	<time>2023-08-09T07:32:55.000Z</time>
</trkpt>
<trkpt lat="46.1619600" lon="10.4607310">
	<ele>2637.60</ele>
	<time>2023-08-09T07:32:56.000Z</time>
</trkpt>
<trkpt lat="46.1619630" lon="10.4607310">
	<ele>2637.40</ele>
	<time>2023-08-09T07:32:57.000Z</time>
</trkpt>
<trkpt lat="46.1619650" lon="10.4607310">
	<ele>2637.40</ele>
	<time>2023-08-09T07:32:58.000Z</time>
</trkpt>
<trkpt lat="46.1619660" lon="10.4607310">
	<ele>2637.40</ele>
	<time>2023-08-09T07:32:59.000Z</time>
</trkpt>
<trkpt lat="46.1619670" lon="10.4607320">
	<ele>2637.20</ele>
	<time>2023-08-09T07:33:00.000Z</time>
</trkpt>
<trkpt lat="46.1619670" lon="10.4607320">
	<ele>2637.20</ele>
	<time>2023-08-09T07:33:01.000Z</time>
</trkpt>
<trkpt lat="46.1619670" lon="10.4607330">
	<ele>2637.20</ele>
	<time>2023-08-09T07:33:02.000Z</time>
</trkpt>
<trkpt lat="46.1619680" lon="10.4607330">
	<ele>2637.00</ele>
	<time>2023-08-09T07:33:03.000Z</time>
</trkpt>
<trkpt lat="46.1619680" lon="10.4607330">
	<ele>2637.00</ele>
	<time>2023-08-09T07:33:04.000Z</time>
</trkpt>
<trkpt lat="46.1619700" lon="10.4607340">
	<ele>2637.00</ele>
	<time>2023-08-09T07:33:05.000Z</time>
</trkpt>
<trkpt lat="46.1619720" lon="10.4607340">
	<ele>2637.00</ele>
	<time>2023-08-09T07:33:06.000Z</time>
</trkpt>
<trkpt lat="46.1619750" lon="10.4607340">
	<ele>2637.00</ele>
	<time>2023-08-09T07:33:07.000Z</time>
</trkpt>
<trkpt lat="46.1619770" lon="10.4607380">
	<ele>2637.00</ele>
	<time>2023-08-09T07:33:08.000Z</time>
</trkpt>
<trkpt lat="46.1619800" lon="10.4607440">
	<ele>2637.00</ele>
	<time>2023-08-09T07:33:09.000Z</time>
</trkpt>
<trkpt lat="46.1619830" lon="10.4607500">
	<ele>2636.80</ele>
	<time>2023-08-09T07:33:10.000Z</time>
</trkpt>
<trkpt lat="46.1619810" lon="10.4607590">
	<ele>2636.80</ele>
	<time>2023-08-09T07:33:11.000Z</time>
</trkpt>
<trkpt lat="46.1619810" lon="10.4607680">
	<ele>2636.60</ele>
	<time>2023-08-09T07:33:12.000Z</time>
</trkpt>
<trkpt lat="46.1619820" lon="10.4607740">
	<ele>2636.60</ele>
	<time>2023-08-09T07:33:13.000Z</time>
</trkpt>
<trkpt lat="46.1619810" lon="10.4607790">
	<ele>2636.40</ele>
	<time>2023-08-09T07:33:14.000Z</time>
</trkpt>
<trkpt lat="46.1619790" lon="10.4607830">
	<ele>2636.20</ele>
	<time>2023-08-09T07:33:15.000Z</time>
</trkpt>
<trkpt lat="46.1619790" lon="10.4607860">
	<ele>2636.00</ele>
	<time>2023-08-09T07:33:16.000Z</time>
</trkpt>
<trkpt lat="46.1619810" lon="10.4607890">
	<ele>2635.80</ele>
	<time>2023-08-09T07:33:17.000Z</time>
</trkpt>
<trkpt lat="46.1619820" lon="10.4607900">
	<ele>2635.60</ele>
	<time>2023-08-09T07:33:18.000Z</time>
</trkpt>
<trkpt lat="46.1619820" lon="10.4607900">
	<ele>2635.40</ele>
	<time>2023-08-09T07:33:19.000Z</time>
</trkpt>
<trkpt lat="46.1619820" lon="10.4607900">
	<ele>2635.40</ele>
	<time>2023-08-09T07:33:20.000Z</time>
</trkpt>
<trkpt lat="46.1619820" lon="10.4607900">
	<ele>2635.20</ele>
	<time>2023-08-09T07:33:21.000Z</time>
</trkpt>
<trkpt lat="46.1619820" lon="10.4607900">
	<ele>2635.40</ele>
	<time>2023-08-09T07:33:22.000Z</time>
</trkpt>
<trkpt lat="46.1619820" lon="10.4607900">
	<ele>2635.40</ele>
	<time>2023-08-09T07:33:23.000Z</time>
</trkpt>
<trkpt lat="46.1619820" lon="10.4607900">
	<ele>2635.40</ele>
	<time>2023-08-09T07:33:24.000Z</time>
</trkpt>
<trkpt lat="46.1619820" lon="10.4607900">
	<ele>2635.40</ele>
	<time>2023-08-09T07:33:25.000Z</time>
</trkpt>
<trkpt lat="46.1619820" lon="10.4607900">
	<ele>2635.20</ele>
	<time>2023-08-09T07:33:26.000Z</time>
</trkpt>
<trkpt lat="46.1619820" lon="10.4607900">
	<ele>2635.00</ele>
	<time>2023-08-09T07:33:27.000Z</time>
</trkpt>
<trkpt lat="46.1619820" lon="10.4607900">
	<ele>2635.00</ele>
	<time>2023-08-09T07:33:28.000Z</time>
</trkpt>
<trkpt lat="46.1619820" lon="10.4607900">
	<ele>2634.80</ele>
	<time>2023-08-09T07:33:29.000Z</time>
</trkpt>
<trkpt lat="46.1619820" lon="10.4607900">
	<ele>2634.60</ele>
	<time>2023-08-09T07:33:30.000Z</time>
</trkpt>
<trkpt lat="46.1619820" lon="10.4607900">
	<ele>2634.60</ele>
	<time>2023-08-09T07:33:31.000Z</time>
</trkpt>
<trkpt lat="46.1619820" lon="10.4607900">
	<ele>2634.40</ele>
	<time>2023-08-09T07:33:32.000Z</time>
</trkpt>
<trkpt lat="46.1619820" lon="10.4607900">
	<ele>2634.20</ele>
	<time>2023-08-09T07:33:33.000Z</time>
</trkpt>
<trkpt lat="46.1619820" lon="10.4607900">
	<ele>2634.20</ele>
	<time>2023-08-09T07:33:34.000Z</time>
</trkpt>
<trkpt lat="46.1619820" lon="10.4607900">
	<ele>2634.20</ele>
	<time>2023-08-09T07:33:35.000Z</time>
</trkpt>
<trkpt lat="46.1619820" lon="10.4607900">
	<ele>2634.00</ele>
	<time>2023-08-09T07:33:36.000Z</time>
</trkpt>
<trkpt lat="46.1619820" lon="10.4607900">
	<ele>2633.80</ele>
	<time>2023-08-09T07:33:37.000Z</time>
</trkpt>
<trkpt lat="46.1619820" lon="10.4607910">
	<ele>2633.60</ele>
	<time>2023-08-09T07:33:38.000Z</time>
</trkpt>
<trkpt lat="46.1619820" lon="10.4607950">
	<ele>2633.60</ele>
	<time>2023-08-09T07:33:39.000Z</time>
</trkpt>
<trkpt lat="46.1619830" lon="10.4607990">
	<ele>2633.40</ele>
	<time>2023-08-09T07:33:40.000Z</time>
</trkpt>
<trkpt lat="46.1619830" lon="10.4608040">
	<ele>2633.40</ele>
	<time>2023-08-09T07:33:41.000Z</time>
</trkpt>
<trkpt lat="46.1619830" lon="10.4608080">
	<ele>2633.40</ele>
	<time>2023-08-09T07:33:42.000Z</time>
</trkpt>
<trkpt lat="46.1619830" lon="10.4608120">
	<ele>2633.40</ele>
	<time>2023-08-09T07:33:43.000Z</time>
</trkpt>
<trkpt lat="46.1619830" lon="10.4608200">
	<ele>2633.20</ele>
	<time>2023-08-09T07:33:44.000Z</time>
</trkpt>
<trkpt lat="46.1619860" lon="10.4608240">
	<ele>2633.20</ele>
	<time>2023-08-09T07:33:45.000Z</time>
</trkpt>
<trkpt lat="46.1619890" lon="10.4608250">
	<ele>2633.00</ele>
	<time>2023-08-09T07:33:46.000Z</time>
</trkpt>
<trkpt lat="46.1619930" lon="10.4608280">
	<ele>2632.60</ele>
	<time>2023-08-09T07:33:47.000Z</time>
</trkpt>
<trkpt lat="46.1619940" lon="10.4608330">
	<ele>2632.40</ele>
	<time>2023-08-09T07:33:48.000Z</time>
</trkpt>
<trkpt lat="46.1619960" lon="10.4608430">
	<ele>2632.00</ele>
	<time>2023-08-09T07:33:49.000Z</time>
</trkpt>
<trkpt lat="46.1619990" lon="10.4608460">
	<ele>2631.80</ele>
	<time>2023-08-09T07:33:50.000Z</time>
</trkpt>
<trkpt lat="46.1620070" lon="10.4608480">
	<ele>2631.80</ele>
	<time>2023-08-09T07:33:51.000Z</time>
</trkpt>
<trkpt lat="46.1620240" lon="10.4608540">
	<ele>2631.60</ele>
	<time>2023-08-09T07:33:52.000Z</time>
</trkpt>
<trkpt lat="46.1620450" lon="10.4608600">
	<ele>2631.60</ele>
	<time>2023-08-09T07:33:53.000Z</time>
</trkpt>
<trkpt lat="46.1620650" lon="10.4608700">
	<ele>2631.40</ele>
	<time>2023-08-09T07:33:54.000Z</time>
</trkpt>
<trkpt lat="46.1620790" lon="10.4608780">
	<ele>2631.40</ele>
	<time>2023-08-09T07:33:55.000Z</time>
</trkpt>
<trkpt lat="46.1620900" lon="10.4608850">
	<ele>2631.40</ele>
	<time>2023-08-09T07:33:56.000Z</time>
</trkpt>
<trkpt lat="46.1621030" lon="10.4608890">
	<ele>2631.40</ele>
	<time>2023-08-09T07:33:57.000Z</time>
</trkpt>
<trkpt lat="46.1621140" lon="10.4608920">
	<ele>2631.40</ele>
	<time>2023-08-09T07:33:58.000Z</time>
</trkpt>
<trkpt lat="46.1621250" lon="10.4608950">
	<ele>2631.40</ele>
	<time>2023-08-09T07:33:59.000Z</time>
</trkpt>
<trkpt lat="46.1621390" lon="10.4608890">
	<ele>2631.20</ele>
	<time>2023-08-09T07:34:00.000Z</time>
</trkpt>
<trkpt lat="46.1621460" lon="10.4608800">
	<ele>2631.00</ele>
	<time>2023-08-09T07:34:01.000Z</time>
</trkpt>
<trkpt lat="46.1621540" lon="10.4608720">
	<ele>2630.80</ele>
	<time>2023-08-09T07:34:02.000Z</time>
</trkpt>
<trkpt lat="46.1621590" lon="10.4608730">
	<ele>2630.60</ele>
	<time>2023-08-09T07:34:03.000Z</time>
</trkpt>
<trkpt lat="46.1621630" lon="10.4608820">
	<ele>2630.40</ele>
	<time>2023-08-09T07:34:04.000Z</time>
</trkpt>
<trkpt lat="46.1621710" lon="10.4608880">
	<ele>2630.40</ele>
	<time>2023-08-09T07:34:05.000Z</time>
</trkpt>
<trkpt lat="46.1621840" lon="10.4608940">
	<ele>2630.20</ele>
	<time>2023-08-09T07:34:06.000Z</time>
</trkpt>
<trkpt lat="46.1621990" lon="10.4608910">
	<ele>2630.20</ele>
	<time>2023-08-09T07:34:07.000Z</time>
</trkpt>
<trkpt lat="46.1622070" lon="10.4608870">
	<ele>2630.00</ele>
	<time>2023-08-09T07:34:08.000Z</time>
</trkpt>
<trkpt lat="46.1622150" lon="10.4608830">
	<ele>2629.80</ele>
	<time>2023-08-09T07:34:09.000Z</time>
</trkpt>
<trkpt lat="46.1622210" lon="10.4608840">
	<ele>2629.80</ele>
	<time>2023-08-09T07:34:10.000Z</time>
</trkpt>
<trkpt lat="46.1622270" lon="10.4608810">
	<ele>2629.80</ele>
	<time>2023-08-09T07:34:11.000Z</time>
</trkpt>
<trkpt lat="46.1622320" lon="10.4608820">
	<ele>2629.80</ele>
	<time>2023-08-09T07:34:12.000Z</time>
</trkpt>
<trkpt lat="46.1622350" lon="10.4608880">
	<ele>2629.80</ele>
	<time>2023-08-09T07:34:13.000Z</time>
</trkpt>
<trkpt lat="46.1622440" lon="10.4608840">
	<ele>2629.80</ele>
	<time>2023-08-09T07:34:14.000Z</time>
</trkpt>
<trkpt lat="46.1622470" lon="10.4608890">
	<ele>2629.60</ele>
	<time>2023-08-09T07:34:15.000Z</time>
</trkpt>
<trkpt lat="46.1622510" lon="10.4608980">
	<ele>2629.60</ele>
	<time>2023-08-09T07:34:16.000Z</time>
</trkpt>
<trkpt lat="46.1622610" lon="10.4609010">
	<ele>2629.60</ele>
	<time>2023-08-09T07:34:17.000Z</time>
</trkpt>
<trkpt lat="46.1622670" lon="10.4609070">
	<ele>2629.40</ele>
	<time>2023-08-09T07:34:18.000Z</time>
</trkpt>
<trkpt lat="46.1622760" lon="10.4609140">
	<ele>2629.20</ele>
	<time>2023-08-09T07:34:19.000Z</time>
</trkpt>
<trkpt lat="46.1622820" lon="10.4609240">
	<ele>2629.20</ele>
	<time>2023-08-09T07:34:20.000Z</time>
</trkpt>
<trkpt lat="46.1622840" lon="10.4609290">
	<ele>2629.00</ele>
	<time>2023-08-09T07:34:21.000Z</time>
</trkpt>
<trkpt lat="46.1622860" lon="10.4609410">
	<ele>2629.00</ele>
	<time>2023-08-09T07:34:22.000Z</time>
</trkpt>
<trkpt lat="46.1622880" lon="10.4609550">
	<ele>2629.00</ele>
	<time>2023-08-09T07:34:23.000Z</time>
</trkpt>
<trkpt lat="46.1622910" lon="10.4609590">
	<ele>2629.00</ele>
	<time>2023-08-09T07:34:24.000Z</time>
</trkpt>
<trkpt lat="46.1622960" lon="10.4609580">
	<ele>2628.80</ele>
	<time>2023-08-09T07:34:25.000Z</time>
</trkpt>
<trkpt lat="46.1622990" lon="10.4609560">
	<ele>2628.80</ele>
	<time>2023-08-09T07:34:26.000Z</time>
</trkpt>
<trkpt lat="46.1623050" lon="10.4609540">
	<ele>2628.80</ele>
	<time>2023-08-09T07:34:27.000Z</time>
</trkpt>
<trkpt lat="46.1623080" lon="10.4609580">
	<ele>2628.60</ele>
	<time>2023-08-09T07:34:28.000Z</time>
</trkpt>
<trkpt lat="46.1623140" lon="10.4609620">
	<ele>2628.60</ele>
	<time>2023-08-09T07:34:29.000Z</time>
</trkpt>
<trkpt lat="46.1623200" lon="10.4609700">
	<ele>2628.60</ele>
	<time>2023-08-09T07:34:30.000Z</time>
</trkpt>
<trkpt lat="46.1623270" lon="10.4609770">
	<ele>2628.40</ele>
	<time>2023-08-09T07:34:31.000Z</time>
</trkpt>
<trkpt lat="46.1623360" lon="10.4609840">
	<ele>2628.40</ele>
	<time>2023-08-09T07:34:32.000Z</time>
</trkpt>
<trkpt lat="46.1623430" lon="10.4609910">
	<ele>2628.20</ele>
	<time>2023-08-09T07:34:33.000Z</time>
</trkpt>
<trkpt lat="46.1623480" lon="10.4609960">
	<ele>2628.00</ele>
	<time>2023-08-09T07:34:34.000Z</time>
</trkpt>
<trkpt lat="46.1623530" lon="10.4609980">
	<ele>2628.00</ele>
	<time>2023-08-09T07:34:35.000Z</time>
</trkpt>
<trkpt lat="46.1623600" lon="10.4610020">
	<ele>2628.00</ele>
	<time>2023-08-09T07:34:36.000Z</time>
</trkpt>
<trkpt lat="46.1623670" lon="10.4610050">
	<ele>2628.00</ele>
	<time>2023-08-09T07:34:37.000Z</time>
</trkpt>
<trkpt lat="46.1623750" lon="10.4610050">
	<ele>2628.00</ele>
	<time>2023-08-09T07:34:38.000Z</time>
</trkpt>
<trkpt lat="46.1623830" lon="10.4610100">
	<ele>2628.00</ele>
	<time>2023-08-09T07:34:39.000Z</time>
</trkpt>
<trkpt lat="46.1623900" lon="10.4610150">
	<ele>2627.80</ele>
	<time>2023-08-09T07:34:40.000Z</time>
</trkpt>
<trkpt lat="46.1623960" lon="10.4610180">
	<ele>2627.80</ele>
	<time>2023-08-09T07:34:41.000Z</time>
</trkpt>
<trkpt lat="46.1624030" lon="10.4610200">
	<ele>2627.60</ele>
	<time>2023-08-09T07:34:42.000Z</time>
</trkpt>
<trkpt lat="46.1624110" lon="10.4610200">
	<ele>2627.40</ele>
	<time>2023-08-09T07:34:43.000Z</time>
</trkpt>
<trkpt lat="46.1624170" lon="10.4610230">
	<ele>2627.40</ele>
	<time>2023-08-09T07:34:44.000Z</time>
</trkpt>
<trkpt lat="46.1624230" lon="10.4610270">
	<ele>2627.20</ele>
	<time>2023-08-09T07:34:45.000Z</time>
</trkpt>
<trkpt lat="46.1624260" lon="10.4610340">
	<ele>2627.00</ele>
	<time>2023-08-09T07:34:46.000Z</time>
</trkpt>
<trkpt lat="46.1624310" lon="10.4610440">
	<ele>2627.00</ele>
	<time>2023-08-09T07:34:47.000Z</time>
</trkpt>
<trkpt lat="46.1624360" lon="10.4610530">
	<ele>2626.80</ele>
	<time>2023-08-09T07:34:48.000Z</time>
</trkpt>
<trkpt lat="46.1624360" lon="10.4610650">
	<ele>2626.60</ele>
	<time>2023-08-09T07:34:49.000Z</time>
</trkpt>
<trkpt lat="46.1624370" lon="10.4610750">
	<ele>2626.60</ele>
	<time>2023-08-09T07:34:50.000Z</time>
</trkpt>
<trkpt lat="46.1624400" lon="10.4610840">
	<ele>2626.40</ele>
	<time>2023-08-09T07:34:51.000Z</time>
</trkpt>
<trkpt lat="46.1624470" lon="10.4610900">
	<ele>2626.20</ele>
	<time>2023-08-09T07:34:52.000Z</time>
</trkpt>
<trkpt lat="46.1624510" lon="10.4610970">
	<ele>2626.00</ele>
	<time>2023-08-09T07:34:53.000Z</time>
</trkpt>
<trkpt lat="46.1624580" lon="10.4611010">
	<ele>2625.80</ele>
	<time>2023-08-09T07:34:54.000Z</time>
</trkpt>
<trkpt lat="46.1624660" lon="10.4611060">
	<ele>2625.80</ele>
	<time>2023-08-09T07:34:55.000Z</time>
</trkpt>
<trkpt lat="46.1624710" lon="10.4611090">
	<ele>2625.60</ele>
	<time>2023-08-09T07:34:56.000Z</time>
</trkpt>
<trkpt lat="46.1624740" lon="10.4611150">
	<ele>2625.40</ele>
	<time>2023-08-09T07:34:57.000Z</time>
</trkpt>
<trkpt lat="46.1624770" lon="10.4611230">
	<ele>2625.40</ele>
	<time>2023-08-09T07:34:58.000Z</time>
</trkpt>
<trkpt lat="46.1624810" lon="10.4611290">
	<ele>2625.20</ele>
	<time>2023-08-09T07:34:59.000Z</time>
</trkpt>
<trkpt lat="46.1624840" lon="10.4611330">
	<ele>2624.80</ele>
	<time>2023-08-09T07:35:00.000Z</time>
</trkpt>
<trkpt lat="46.1624870" lon="10.4611380">
	<ele>2624.80</ele>
	<time>2023-08-09T07:35:01.000Z</time>
</trkpt>
<trkpt lat="46.1624900" lon="10.4611400">
	<ele>2624.40</ele>
	<time>2023-08-09T07:35:02.000Z</time>
</trkpt>
<trkpt lat="46.1624950" lon="10.4611450">
	<ele>2624.20</ele>
	<time>2023-08-09T07:35:03.000Z</time>
</trkpt>
<trkpt lat="46.1625040" lon="10.4611510">
	<ele>2624.20</ele>
	<time>2023-08-09T07:35:04.000Z</time>
</trkpt>
<trkpt lat="46.1625140" lon="10.4611550">
	<ele>2624.00</ele>
	<time>2023-08-09T07:35:05.000Z</time>
</trkpt>
<trkpt lat="46.1625220" lon="10.4611580">
	<ele>2624.00</ele>
	<time>2023-08-09T07:35:06.000Z</time>
</trkpt>
<trkpt lat="46.1625280" lon="10.4611620">
	<ele>2623.80</ele>
	<time>2023-08-09T07:35:07.000Z</time>
</trkpt>
<trkpt lat="46.1625310" lon="10.4611660">
	<ele>2623.60</ele>
	<time>2023-08-09T07:35:08.000Z</time>
</trkpt>
<trkpt lat="46.1625370" lon="10.4611670">
	<ele>2623.40</ele>
	<time>2023-08-09T07:35:09.000Z</time>
</trkpt>
<trkpt lat="46.1625400" lon="10.4611720">
	<ele>2623.40</ele>
	<time>2023-08-09T07:35:10.000Z</time>
</trkpt>
<trkpt lat="46.1625450" lon="10.4611760">
	<ele>2623.20</ele>
	<time>2023-08-09T07:35:11.000Z</time>
</trkpt>
<trkpt lat="46.1625510" lon="10.4611760">
	<ele>2623.00</ele>
	<time>2023-08-09T07:35:12.000Z</time>
</trkpt>
<trkpt lat="46.1625600" lon="10.4611720">
	<ele>2623.00</ele>
	<time>2023-08-09T07:35:13.000Z</time>
</trkpt>
<trkpt lat="46.1625720" lon="10.4611680">
	<ele>2623.00</ele>
	<time>2023-08-09T07:35:14.000Z</time>
</trkpt>
<trkpt lat="46.1625810" lon="10.4611710">
	<ele>2622.80</ele>
	<time>2023-08-09T07:35:15.000Z</time>
</trkpt>
<trkpt lat="46.1625860" lon="10.4611770">
	<ele>2622.80</ele>
	<time>2023-08-09T07:35:16.000Z</time>
</trkpt>
<trkpt lat="46.1625880" lon="10.4611820">
	<ele>2622.60</ele>
	<time>2023-08-09T07:35:17.000Z</time>
</trkpt>
<trkpt lat="46.1625890" lon="10.4611900">
	<ele>2622.20</ele>
	<time>2023-08-09T07:35:18.000Z</time>
</trkpt>
<trkpt lat="46.1625930" lon="10.4611970">
	<ele>2622.00</ele>
	<time>2023-08-09T07:35:19.000Z</time>
</trkpt>
<trkpt lat="46.1626020" lon="10.4612000">
	<ele>2621.80</ele>
	<time>2023-08-09T07:35:20.000Z</time>
</trkpt>
<trkpt lat="46.1626120" lon="10.4612000">
	<ele>2621.60</ele>
	<time>2023-08-09T07:35:21.000Z</time>
</trkpt>
<trkpt lat="46.1626220" lon="10.4612010">
	<ele>2621.40</ele>
	<time>2023-08-09T07:35:22.000Z</time>
</trkpt>
<trkpt lat="46.1626300" lon="10.4612040">
	<ele>2621.40</ele>
	<time>2023-08-09T07:35:23.000Z</time>
</trkpt>
<trkpt lat="46.1626370" lon="10.4612100">
	<ele>2621.40</ele>
	<time>2023-08-09T07:35:24.000Z</time>
</trkpt>
<trkpt lat="46.1626430" lon="10.4612100">
	<ele>2621.40</ele>
	<time>2023-08-09T07:35:25.000Z</time>
</trkpt>
<trkpt lat="46.1626500" lon="10.4612110">
	<ele>2621.20</ele>
	<time>2023-08-09T07:35:26.000Z</time>
</trkpt>
<trkpt lat="46.1626570" lon="10.4612130">
	<ele>2621.20</ele>
	<time>2023-08-09T07:35:27.000Z</time>
</trkpt>
<trkpt lat="46.1626650" lon="10.4612140">
	<ele>2621.20</ele>
	<time>2023-08-09T07:35:28.000Z</time>
</trkpt>
<trkpt lat="46.1626710" lon="10.4612190">
	<ele>2621.00</ele>
	<time>2023-08-09T07:35:29.000Z</time>
</trkpt>
<trkpt lat="46.1626780" lon="10.4612270">
	<ele>2621.00</ele>
	<time>2023-08-09T07:35:30.000Z</time>
</trkpt>
<trkpt lat="46.1626810" lon="10.4612360">
	<ele>2620.80</ele>
	<time>2023-08-09T07:35:31.000Z</time>
</trkpt>
<trkpt lat="46.1626870" lon="10.4612370">
	<ele>2620.60</ele>
	<time>2023-08-09T07:35:32.000Z</time>
</trkpt>
<trkpt lat="46.1626940" lon="10.4612400">
	<ele>2620.40</ele>
	<time>2023-08-09T07:35:33.000Z</time>
</trkpt>
<trkpt lat="46.1626990" lon="10.4612480">
	<ele>2620.20</ele>
	<time>2023-08-09T07:35:34.000Z</time>
</trkpt>
<trkpt lat="46.1627050" lon="10.4612490">
	<ele>2619.80</ele>
	<time>2023-08-09T07:35:35.000Z</time>
</trkpt>
<trkpt lat="46.1627130" lon="10.4612530">
	<ele>2619.60</ele>
	<time>2023-08-09T07:35:36.000Z</time>
</trkpt>
<trkpt lat="46.1627170" lon="10.4612590">
	<ele>2619.40</ele>
	<time>2023-08-09T07:35:37.000Z</time>
</trkpt>
<trkpt lat="46.1627230" lon="10.4612610">
	<ele>2619.40</ele>
	<time>2023-08-09T07:35:38.000Z</time>
</trkpt>
<trkpt lat="46.1627300" lon="10.4612620">
	<ele>2619.20</ele>
	<time>2023-08-09T07:35:39.000Z</time>
</trkpt>
<trkpt lat="46.1627360" lon="10.4612640">
	<ele>2619.00</ele>
	<time>2023-08-09T07:35:40.000Z</time>
</trkpt>
<trkpt lat="46.1627390" lon="10.4612660">
	<ele>2619.00</ele>
	<time>2023-08-09T07:35:41.000Z</time>
</trkpt>
<trkpt lat="46.1627410" lon="10.4612670">
	<ele>2618.80</ele>
	<time>2023-08-09T07:35:42.000Z</time>
</trkpt>
<trkpt lat="46.1627440" lon="10.4612680">
	<ele>2618.80</ele>
	<time>2023-08-09T07:35:43.000Z</time>
</trkpt>
<trkpt lat="46.1627480" lon="10.4612710">
	<ele>2618.80</ele>
	<time>2023-08-09T07:35:44.000Z</time>
</trkpt>
<trkpt lat="46.1627520" lon="10.4612740">
	<ele>2618.60</ele>
	<time>2023-08-09T07:35:45.000Z</time>
</trkpt>
<trkpt lat="46.1627570" lon="10.4612740">
	<ele>2618.60</ele>
	<time>2023-08-09T07:35:46.000Z</time>
</trkpt>
<trkpt lat="46.1627660" lon="10.4612710">
	<ele>2618.60</ele>
	<time>2023-08-09T07:35:47.000Z</time>
</trkpt>
<trkpt lat="46.1627730" lon="10.4612720">
	<ele>2618.60</ele>
	<time>2023-08-09T07:35:48.000Z</time>
</trkpt>
<trkpt lat="46.1627780" lon="10.4612760">
	<ele>2618.20</ele>
	<time>2023-08-09T07:35:49.000Z</time>
</trkpt>
<trkpt lat="46.1627870" lon="10.4612820">
	<ele>2618.00</ele>
	<time>2023-08-09T07:35:50.000Z</time>
</trkpt>
<trkpt lat="46.1627960" lon="10.4612870">
	<ele>2617.80</ele>
	<time>2023-08-09T07:35:51.000Z</time>
</trkpt>
<trkpt lat="46.1628020" lon="10.4612950">
	<ele>2617.60</ele>
	<time>2023-08-09T07:35:52.000Z</time>
</trkpt>
<trkpt lat="46.1628040" lon="10.4613030">
	<ele>2617.40</ele>
	<time>2023-08-09T07:35:53.000Z</time>
</trkpt>
<trkpt lat="46.1628040" lon="10.4613110">
	<ele>2617.20</ele>
	<time>2023-08-09T07:35:54.000Z</time>
</trkpt>
<trkpt lat="46.1628020" lon="10.4613210">
	<ele>2617.20</ele>
	<time>2023-08-09T07:35:55.000Z</time>
</trkpt>
<trkpt lat="46.1627970" lon="10.4613290">
	<ele>2617.00</ele>
	<time>2023-08-09T07:35:56.000Z</time>
</trkpt>
<trkpt lat="46.1627950" lon="10.4613340">
	<ele>2616.80</ele>
	<time>2023-08-09T07:35:57.000Z</time>
</trkpt>
<trkpt lat="46.1627950" lon="10.4613370">
	<ele>2616.40</ele>
	<time>2023-08-09T07:35:58.000Z</time>
</trkpt>
<trkpt lat="46.1627970" lon="10.4613400">
	<ele>2616.20</ele>
	<time>2023-08-09T07:35:59.000Z</time>
</trkpt>
<trkpt lat="46.1627990" lon="10.4613430">
	<ele>2616.20</ele>
	<time>2023-08-09T07:36:00.000Z</time>
</trkpt>
<trkpt lat="46.1628030" lon="10.4613430">
	<ele>2616.00</ele>
	<time>2023-08-09T07:36:01.000Z</time>
</trkpt>
<trkpt lat="46.1628070" lon="10.4613400">
	<ele>2615.80</ele>
	<time>2023-08-09T07:36:02.000Z</time>
</trkpt>
<trkpt lat="46.1628110" lon="10.4613400">
	<ele>2615.60</ele>
	<time>2023-08-09T07:36:03.000Z</time>
</trkpt>
<trkpt lat="46.1628160" lon="10.4613410">
	<ele>2615.40</ele>
	<time>2023-08-09T07:36:04.000Z</time>
</trkpt>
<trkpt lat="46.1628180" lon="10.4613470">
	<ele>2615.20</ele>
	<time>2023-08-09T07:36:05.000Z</time>
</trkpt>
<trkpt lat="46.1628180" lon="10.4613560">
	<ele>2615.20</ele>
	<time>2023-08-09T07:36:06.000Z</time>
</trkpt>
<trkpt lat="46.1628190" lon="10.4613660">
	<ele>2614.80</ele>
	<time>2023-08-09T07:36:07.000Z</time>
</trkpt>
<trkpt lat="46.1628210" lon="10.4613740">
	<ele>2614.60</ele>
	<time>2023-08-09T07:36:08.000Z</time>
</trkpt>
<trkpt lat="46.1628210" lon="10.4613810">
	<ele>2614.40</ele>
	<time>2023-08-09T07:36:09.000Z</time>
</trkpt>
<trkpt lat="46.1628230" lon="10.4613850">
	<ele>2614.00</ele>
	<time>2023-08-09T07:36:10.000Z</time>
</trkpt>
<trkpt lat="46.1628260" lon="10.4613850">
	<ele>2614.00</ele>
	<time>2023-08-09T07:36:11.000Z</time>
</trkpt>
<trkpt lat="46.1628330" lon="10.4613850">
	<ele>2613.80</ele>
	<time>2023-08-09T07:36:12.000Z</time>
</trkpt>
<trkpt lat="46.1628380" lon="10.4613860">
	<ele>2613.60</ele>
	<time>2023-08-09T07:36:13.000Z</time>
</trkpt>
<trkpt lat="46.1628410" lon="10.4613880">
	<ele>2613.40</ele>
	<time>2023-08-09T07:36:14.000Z</time>
</trkpt>
<trkpt lat="46.1628440" lon="10.4613900">
	<ele>2613.40</ele>
	<time>2023-08-09T07:36:15.000Z</time>
</trkpt>
<trkpt lat="46.1628460" lon="10.4613910">
	<ele>2613.20</ele>
	<time>2023-08-09T07:36:16.000Z</time>
</trkpt>
<trkpt lat="46.1628500" lon="10.4613910">
	<ele>2613.20</ele>
	<time>2023-08-09T07:36:17.000Z</time>
</trkpt>
<trkpt lat="46.1628590" lon="10.4613910">
	<ele>2613.20</ele>
	<time>2023-08-09T07:36:18.000Z</time>
</trkpt>
<trkpt lat="46.1628630" lon="10.4613920">
	<ele>2613.00</ele>
	<time>2023-08-09T07:36:19.000Z</time>
</trkpt>
<trkpt lat="46.1628660" lon="10.4613920">
	<ele>2613.00</ele>
	<time>2023-08-09T07:36:20.000Z</time>
</trkpt>
<trkpt lat="46.1628700" lon="10.4613930">
	<ele>2613.00</ele>
	<time>2023-08-09T07:36:21.000Z</time>
</trkpt>
<trkpt lat="46.1628700" lon="10.4614020">
	<ele>2612.80</ele>
	<time>2023-08-09T07:36:22.000Z</time>
</trkpt>
<trkpt lat="46.1628740" lon="10.4614060">
	<ele>2612.80</ele>
	<time>2023-08-09T07:36:23.000Z</time>
</trkpt>
<trkpt lat="46.1628790" lon="10.4614090">
	<ele>2612.60</ele>
	<time>2023-08-09T07:36:24.000Z</time>
</trkpt>
<trkpt lat="46.1628830" lon="10.4614120">
	<ele>2612.40</ele>
	<time>2023-08-09T07:36:25.000Z</time>
</trkpt>
<trkpt lat="46.1628870" lon="10.4614140">
	<ele>2612.20</ele>
	<time>2023-08-09T07:36:26.000Z</time>
</trkpt>
<trkpt lat="46.1628900" lon="10.4614180">
	<ele>2612.00</ele>
	<time>2023-08-09T07:36:27.000Z</time>
</trkpt>
<trkpt lat="46.1628930" lon="10.4614230">
	<ele>2612.00</ele>
	<time>2023-08-09T07:36:28.000Z</time>
</trkpt>
<trkpt lat="46.1628970" lon="10.4614280">
	<ele>2611.80</ele>
	<time>2023-08-09T07:36:29.000Z</time>
</trkpt>
<trkpt lat="46.1628990" lon="10.4614370">
	<ele>2611.80</ele>
	<time>2023-08-09T07:36:30.000Z</time>
</trkpt>
<trkpt lat="46.1629000" lon="10.4614410">
	<ele>2611.60</ele>
	<time>2023-08-09T07:36:31.000Z</time>
</trkpt>
<trkpt lat="46.1629040" lon="10.4614460">
	<ele>2611.40</ele>
	<time>2023-08-09T07:36:32.000Z</time>
</trkpt>
<trkpt lat="46.1629060" lon="10.4614480">
	<ele>2611.20</ele>
	<time>2023-08-09T07:36:33.000Z</time>
</trkpt>
<trkpt lat="46.1629040" lon="10.4614500">
	<ele>2611.20</ele>
	<time>2023-08-09T07:36:34.000Z</time>
</trkpt>
<trkpt lat="46.1629030" lon="10.4614540">
	<ele>2610.80</ele>
	<time>2023-08-09T07:36:35.000Z</time>
</trkpt>
<trkpt lat="46.1629050" lon="10.4614610">
	<ele>2610.60</ele>
	<time>2023-08-09T07:36:36.000Z</time>
</trkpt>
<trkpt lat="46.1629050" lon="10.4614660">
	<ele>2610.40</ele>
	<time>2023-08-09T07:36:37.000Z</time>
</trkpt>
<trkpt lat="46.1629060" lon="10.4614720">
	<ele>2610.20</ele>
	<time>2023-08-09T07:36:38.000Z</time>
</trkpt>
<trkpt lat="46.1629080" lon="10.4614770">
	<ele>2610.20</ele>
	<time>2023-08-09T07:36:39.000Z</time>
</trkpt>
<trkpt lat="46.1629110" lon="10.4614820">
	<ele>2609.80</ele>
	<time>2023-08-09T07:36:40.000Z</time>
</trkpt>
<trkpt lat="46.1629120" lon="10.4614900">
	<ele>2609.60</ele>
	<time>2023-08-09T07:36:41.000Z</time>
</trkpt>
<trkpt lat="46.1629140" lon="10.4614970">
	<ele>2609.40</ele>
	<time>2023-08-09T07:36:42.000Z</time>
</trkpt>
<trkpt lat="46.1629150" lon="10.4615040">
	<ele>2609.20</ele>
	<time>2023-08-09T07:36:43.000Z</time>
</trkpt>
<trkpt lat="46.1629140" lon="10.4615100">
	<ele>2609.00</ele>
	<time>2023-08-09T07:36:44.000Z</time>
</trkpt>
<trkpt lat="46.1629140" lon="10.4615160">
	<ele>2608.80</ele>
	<time>2023-08-09T07:36:45.000Z</time>
</trkpt>
<trkpt lat="46.1629170" lon="10.4615220">
	<ele>2608.80</ele>
	<time>2023-08-09T07:36:46.000Z</time>
</trkpt>
<trkpt lat="46.1629200" lon="10.4615280">
	<ele>2608.60</ele>
	<time>2023-08-09T07:36:47.000Z</time>
</trkpt>
<trkpt lat="46.1629250" lon="10.4615320">
	<ele>2608.40</ele>
	<time>2023-08-09T07:36:48.000Z</time>
</trkpt>
<trkpt lat="46.1629300" lon="10.4615350">
	<ele>2608.40</ele>
	<time>2023-08-09T07:36:49.000Z</time>
</trkpt>
<trkpt lat="46.1629370" lon="10.4615390">
	<ele>2608.20</ele>
	<time>2023-08-09T07:36:50.000Z</time>
</trkpt>
<trkpt lat="46.1629480" lon="10.4615430">
	<ele>2608.00</ele>
	<time>2023-08-09T07:36:51.000Z</time>
</trkpt>
<trkpt lat="46.1629570" lon="10.4615510">
	<ele>2607.80</ele>
	<time>2023-08-09T07:36:52.000Z</time>
</trkpt>
<trkpt lat="46.1629610" lon="10.4615570">
	<ele>2607.60</ele>
	<time>2023-08-09T07:36:53.000Z</time>
</trkpt>
<trkpt lat="46.1629650" lon="10.4615580">
	<ele>2607.40</ele>
	<time>2023-08-09T07:36:54.000Z</time>
</trkpt>
<trkpt lat="46.1629690" lon="10.4615640">
	<ele>2607.40</ele>
	<time>2023-08-09T07:36:55.000Z</time>
</trkpt>
<trkpt lat="46.1629700" lon="10.4615710">
	<ele>2607.20</ele>
	<time>2023-08-09T07:36:56.000Z</time>
</trkpt>
<trkpt lat="46.1629690" lon="10.4615750">
	<ele>2607.00</ele>
	<time>2023-08-09T07:36:57.000Z</time>
</trkpt>
<trkpt lat="46.1629700" lon="10.4615770">
	<ele>2607.00</ele>
	<time>2023-08-09T07:36:58.000Z</time>
</trkpt>
<trkpt lat="46.1629700" lon="10.4615790">
	<ele>2606.80</ele>
	<time>2023-08-09T07:36:59.000Z</time>
</trkpt>
<trkpt lat="46.1629690" lon="10.4615800">
	<ele>2606.80</ele>
	<time>2023-08-09T07:37:00.000Z</time>
</trkpt>
<trkpt lat="46.1629690" lon="10.4615810">
	<ele>2606.80</ele>
	<time>2023-08-09T07:37:01.000Z</time>
</trkpt>
<trkpt lat="46.1629750" lon="10.4615840">
	<ele>2606.60</ele>
	<time>2023-08-09T07:37:02.000Z</time>
</trkpt>
<trkpt lat="46.1629770" lon="10.4615890">
	<ele>2606.60</ele>
	<time>2023-08-09T07:37:03.000Z</time>
</trkpt>
<trkpt lat="46.1629760" lon="10.4615940">
	<ele>2606.40</ele>
	<time>2023-08-09T07:37:04.000Z</time>
</trkpt>
<trkpt lat="46.1629790" lon="10.4615980">
	<ele>2606.20</ele>
	<time>2023-08-09T07:37:05.000Z</time>
</trkpt>
<trkpt lat="46.1629860" lon="10.4616080">
	<ele>2605.80</ele>
	<time>2023-08-09T07:37:06.000Z</time>
</trkpt>
<trkpt lat="46.1629910" lon="10.4616170">
	<ele>2605.60</ele>
	<time>2023-08-09T07:37:07.000Z</time>
</trkpt>
<trkpt lat="46.1629960" lon="10.4616310">
	<ele>2605.60</ele>
	<time>2023-08-09T07:37:08.000Z</time>
</trkpt>
<trkpt lat="46.1629950" lon="10.4616440">
	<ele>2605.40</ele>
	<time>2023-08-09T07:37:09.000Z</time>
</trkpt>
<trkpt lat="46.1629910" lon="10.4616550">
	<ele>2605.20</ele>
	<time>2023-08-09T07:37:10.000Z</time>
</trkpt>
<trkpt lat="46.1629900" lon="10.4616640">
	<ele>2605.20</ele>
	<time>2023-08-09T07:37:11.000Z</time>
</trkpt>
<trkpt lat="46.1629890" lon="10.4616760">
	<ele>2605.00</ele>
	<time>2023-08-09T07:37:12.000Z</time>
</trkpt>
<trkpt lat="46.1629860" lon="10.4616870">
	<ele>2605.20</ele>
	<time>2023-08-09T07:37:13.000Z</time>
</trkpt>
<trkpt lat="46.1629800" lon="10.4616990">
	<ele>2605.20</ele>
	<time>2023-08-09T07:37:14.000Z</time>
</trkpt>
<trkpt lat="46.1629740" lon="10.4617060">
	<ele>2605.20</ele>
	<time>2023-08-09T07:37:15.000Z</time>
</trkpt>
<trkpt lat="46.1629680" lon="10.4617090">
	<ele>2605.20</ele>
	<time>2023-08-09T07:37:16.000Z</time>
</trkpt>
<trkpt lat="46.1629640" lon="10.4617090">
	<ele>2605.20</ele>
	<time>2023-08-09T07:37:17.000Z</time>
</trkpt>
<trkpt lat="46.1629610" lon="10.4617120">
	<ele>2605.20</ele>
	<time>2023-08-09T07:37:18.000Z</time>
</trkpt>
<trkpt lat="46.1629590" lon="10.4617150">
	<ele>2605.20</ele>
	<time>2023-08-09T07:37:19.000Z</time>
</trkpt>
<trkpt lat="46.1629590" lon="10.4617150">
	<ele>2605.40</ele>
	<time>2023-08-09T07:37:20.000Z</time>
</trkpt>
<trkpt lat="46.1629580" lon="10.4617160">
	<ele>2605.60</ele>
	<time>2023-08-09T07:37:21.000Z</time>
</trkpt>
<trkpt lat="46.1629570" lon="10.4617170">
	<ele>2605.60</ele>
	<time>2023-08-09T07:37:22.000Z</time>
</trkpt>
<trkpt lat="46.1629560" lon="10.4617170">
	<ele>2605.80</ele>
	<time>2023-08-09T07:37:23.000Z</time>
</trkpt>
<trkpt lat="46.1629550" lon="10.4617170">
	<ele>2605.80</ele>
	<time>2023-08-09T07:37:24.000Z</time>
</trkpt>
<trkpt lat="46.1629540" lon="10.4617160">
	<ele>2605.80</ele>
	<time>2023-08-09T07:37:25.000Z</time>
</trkpt>
<trkpt lat="46.1629540" lon="10.4617160">
	<ele>2605.80</ele>
	<time>2023-08-09T07:37:26.000Z</time>
</trkpt>
<trkpt lat="46.1629540" lon="10.4617160">
	<ele>2606.00</ele>
	<time>2023-08-09T07:37:27.000Z</time>
</trkpt>
<trkpt lat="46.1629540" lon="10.4617160">
	<ele>2606.00</ele>
	<time>2023-08-09T07:37:28.000Z</time>
</trkpt>
<trkpt lat="46.1629540" lon="10.4617160">
	<ele>2606.00</ele>
	<time>2023-08-09T07:37:29.000Z</time>
</trkpt>
<trkpt lat="46.1629540" lon="10.4617160">
	<ele>2606.00</ele>
	<time>2023-08-09T07:37:30.000Z</time>
</trkpt>
<trkpt lat="46.1629540" lon="10.4617160">
	<ele>2606.00</ele>
	<time>2023-08-09T07:37:31.000Z</time>
</trkpt>
<trkpt lat="46.1629540" lon="10.4617160">
	<ele>2606.00</ele>
	<time>2023-08-09T07:37:32.000Z</time>
</trkpt>
<trkpt lat="46.1629540" lon="10.4617160">
	<ele>2606.00</ele>
	<time>2023-08-09T07:37:33.000Z</time>
</trkpt>
<trkpt lat="46.1629540" lon="10.4617160">
	<ele>2606.00</ele>
	<time>2023-08-09T07:37:34.000Z</time>
</trkpt>
<trkpt lat="46.1629540" lon="10.4617160">
	<ele>2605.80</ele>
	<time>2023-08-09T07:37:35.000Z</time>
</trkpt>
<trkpt lat="46.1629540" lon="10.4617160">
	<ele>2605.80</ele>
	<time>2023-08-09T07:37:36.000Z</time>
</trkpt>
<trkpt lat="46.1629540" lon="10.4617160">
	<ele>2605.60</ele>
	<time>2023-08-09T07:37:37.000Z</time>
</trkpt>
<trkpt lat="46.1629540" lon="10.4617160">
	<ele>2605.40</ele>
	<time>2023-08-09T07:37:38.000Z</time>
</trkpt>
<trkpt lat="46.1629540" lon="10.4617160">
	<ele>2605.20</ele>
	<time>2023-08-09T07:37:39.000Z</time>
</trkpt>
<trkpt lat="46.1629540" lon="10.4617160">
	<ele>2605.20</ele>
	<time>2023-08-09T07:37:40.000Z</time>
</trkpt>
<trkpt lat="46.1629540" lon="10.4617160">
	<ele>2605.20</ele>
	<time>2023-08-09T07:37:41.000Z</time>
</trkpt>
<trkpt lat="46.1629540" lon="10.4617160">
	<ele>2605.20</ele>
	<time>2023-08-09T07:37:42.000Z</time>
</trkpt>
<trkpt lat="46.1629510" lon="10.4617180">
	<ele>2605.00</ele>
	<time>2023-08-09T07:37:43.000Z</time>
</trkpt>
<trkpt lat="46.1629470" lon="10.4617250">
	<ele>2605.00</ele>
	<time>2023-08-09T07:37:44.000Z</time>
</trkpt>
<trkpt lat="46.1629430" lon="10.4617350">
	<ele>2605.00</ele>
	<time>2023-08-09T07:37:45.000Z</time>
</trkpt>
<trkpt lat="46.1629390" lon="10.4617450">
	<ele>2604.80</ele>
	<time>2023-08-09T07:37:46.000Z</time>
</trkpt>
<trkpt lat="46.1629320" lon="10.4617550">
	<ele>2604.80</ele>
	<time>2023-08-09T07:37:47.000Z</time>
</trkpt>
<trkpt lat="46.1629260" lon="10.4617660">
	<ele>2604.60</ele>
	<time>2023-08-09T07:37:48.000Z</time>
</trkpt>
<trkpt lat="46.1629160" lon="10.4617750">
	<ele>2604.60</ele>
	<time>2023-08-09T07:37:49.000Z</time>
</trkpt>
<trkpt lat="46.1629060" lon="10.4617800">
	<ele>2604.60</ele>
	<time>2023-08-09T07:37:50.000Z</time>
</trkpt>
<trkpt lat="46.1628980" lon="10.4617820">
	<ele>2604.40</ele>
	<time>2023-08-09T07:37:51.000Z</time>
</trkpt>
<trkpt lat="46.1628930" lon="10.4617850">
	<ele>2604.40</ele>
	<time>2023-08-09T07:37:52.000Z</time>
</trkpt>
<trkpt lat="46.1628930" lon="10.4617880">
	<ele>2604.40</ele>
	<time>2023-08-09T07:37:53.000Z</time>
</trkpt>
<trkpt lat="46.1628940" lon="10.4617890">
	<ele>2604.40</ele>
	<time>2023-08-09T07:37:54.000Z</time>
</trkpt>
<trkpt lat="46.1628960" lon="10.4617870">
	<ele>2604.20</ele>
	<time>2023-08-09T07:37:55.000Z</time>
</trkpt>
<trkpt lat="46.1629000" lon="10.4617840">
	<ele>2604.20</ele>
	<time>2023-08-09T07:37:56.000Z</time>
</trkpt>
<trkpt lat="46.1629010" lon="10.4617830">
	<ele>2604.00</ele>
	<time>2023-08-09T07:37:57.000Z</time>
</trkpt>
<trkpt lat="46.1629010" lon="10.4617840">
	<ele>2604.00</ele>
	<time>2023-08-09T07:37:58.000Z</time>
</trkpt>
<trkpt lat="46.1629010" lon="10.4617850">
	<ele>2604.00</ele>
	<time>2023-08-09T07:37:59.000Z</time>
</trkpt>
<trkpt lat="46.1629010" lon="10.4617850">
	<ele>2603.80</ele>
	<time>2023-08-09T07:38:00.000Z</time>
</trkpt>
<trkpt lat="46.1629010" lon="10.4617850">
	<ele>2604.00</ele>
	<time>2023-08-09T07:38:01.000Z</time>
</trkpt>
<trkpt lat="46.1629010" lon="10.4617850">
	<ele>2604.00</ele>
	<time>2023-08-09T07:38:02.000Z</time>
</trkpt>
<trkpt lat="46.1629010" lon="10.4617850">
	<ele>2604.00</ele>
	<time>2023-08-09T07:38:03.000Z</time>
</trkpt>
<trkpt lat="46.1629010" lon="10.4617850">
	<ele>2604.00</ele>
	<time>2023-08-09T07:38:04.000Z</time>
</trkpt>
<trkpt lat="46.1629010" lon="10.4617850">
	<ele>2604.00</ele>
	<time>2023-08-09T07:38:05.000Z</time>
</trkpt>
<trkpt lat="46.1629010" lon="10.4617850">
	<ele>2604.00</ele>
	<time>2023-08-09T07:38:06.000Z</time>
</trkpt>
<trkpt lat="46.1629010" lon="10.4617850">
	<ele>2604.00</ele>
	<time>2023-08-09T07:38:07.000Z</time>
</trkpt>
<trkpt lat="46.1629010" lon="10.4617850">
	<ele>2604.00</ele>
	<time>2023-08-09T07:38:08.000Z</time>
</trkpt>
<trkpt lat="46.1629000" lon="10.4617850">
	<ele>2604.00</ele>
	<time>2023-08-09T07:38:09.000Z</time>
</trkpt>
<trkpt lat="46.1628990" lon="10.4617850">
	<ele>2604.00</ele>
	<time>2023-08-09T07:38:10.000Z</time>
</trkpt>
<trkpt lat="46.1628990" lon="10.4617850">
	<ele>2603.80</ele>
	<time>2023-08-09T07:38:11.000Z</time>
</trkpt>
<trkpt lat="46.1628990" lon="10.4617850">
	<ele>2603.60</ele>
	<time>2023-08-09T07:38:12.000Z</time>
</trkpt>
<trkpt lat="46.1628990" lon="10.4617850">
	<ele>2603.60</ele>
	<time>2023-08-09T07:38:13.000Z</time>
</trkpt>
<trkpt lat="46.1628980" lon="10.4617850">
	<ele>2603.40</ele>
	<time>2023-08-09T07:38:14.000Z</time>
</trkpt>
<trkpt lat="46.1628970" lon="10.4617850">
	<ele>2603.20</ele>
	<time>2023-08-09T07:38:15.000Z</time>
</trkpt>
<trkpt lat="46.1628970" lon="10.4617850">
	<ele>2603.20</ele>
	<time>2023-08-09T07:38:16.000Z</time>
</trkpt>
<trkpt lat="46.1628970" lon="10.4617850">
	<ele>2603.00</ele>
	<time>2023-08-09T07:38:17.000Z</time>
</trkpt>
<trkpt lat="46.1628910" lon="10.4617900">
	<ele>2602.80</ele>
	<time>2023-08-09T07:38:18.000Z</time>
</trkpt>
<trkpt lat="46.1628850" lon="10.4617990">
	<ele>2602.60</ele>
	<time>2023-08-09T07:38:19.000Z</time>
</trkpt>
<trkpt lat="46.1628770" lon="10.4618050">
	<ele>2602.40</ele>
	<time>2023-08-09T07:38:20.000Z</time>
</trkpt>
<trkpt lat="46.1628640" lon="10.4618130">
	<ele>2602.20</ele>
	<time>2023-08-09T07:38:21.000Z</time>
</trkpt>
<trkpt lat="46.1628510" lon="10.4618200">
	<ele>2602.00</ele>
	<time>2023-08-09T07:38:22.000Z</time>
</trkpt>
<trkpt lat="46.1628400" lon="10.4618290">
	<ele>2601.80</ele>
	<time>2023-08-09T07:38:23.000Z</time>
</trkpt>
<trkpt lat="46.1628320" lon="10.4618400">
	<ele>2601.80</ele>
	<time>2023-08-09T07:38:24.000Z</time>
</trkpt>
<trkpt lat="46.1628260" lon="10.4618510">
	<ele>2601.60</ele>
	<time>2023-08-09T07:38:25.000Z</time>
</trkpt>
<trkpt lat="46.1628210" lon="10.4618640">
	<ele>2601.20</ele>
	<time>2023-08-09T07:38:26.000Z</time>
</trkpt>
<trkpt lat="46.1628170" lon="10.4618780">
	<ele>2601.00</ele>
	<time>2023-08-09T07:38:27.000Z</time>
</trkpt>
<trkpt lat="46.1628180" lon="10.4618890">
	<ele>2600.60</ele>
	<time>2023-08-09T07:38:28.000Z</time>
</trkpt>
<trkpt lat="46.1628220" lon="10.4618990">
	<ele>2600.60</ele>
	<time>2023-08-09T07:38:29.000Z</time>
</trkpt>
<trkpt lat="46.1628190" lon="10.4619100">
	<ele>2600.40</ele>
	<time>2023-08-09T07:38:30.000Z</time>
</trkpt>
<trkpt lat="46.1628160" lon="10.4619160">
	<ele>2600.20</ele>
	<time>2023-08-09T07:38:31.000Z</time>
</trkpt>
<trkpt lat="46.1628150" lon="10.4619230">
	<ele>2600.00</ele>
	<time>2023-08-09T07:38:32.000Z</time>
</trkpt>
<trkpt lat="46.1628160" lon="10.4619310">
	<ele>2599.60</ele>
	<time>2023-08-09T07:38:33.000Z</time>
</trkpt>
<trkpt lat="46.1628190" lon="10.4619410">
	<ele>2599.20</ele>
	<time>2023-08-09T07:38:34.000Z</time>
</trkpt>
<trkpt lat="46.1628230" lon="10.4619470">
	<ele>2599.00</ele>
	<time>2023-08-09T07:38:35.000Z</time>
</trkpt>
<trkpt lat="46.1628270" lon="10.4619540">
	<ele>2598.80</ele>
	<time>2023-08-09T07:38:36.000Z</time>
</trkpt>
<trkpt lat="46.1628290" lon="10.4619690">
	<ele>2598.60</ele>
	<time>2023-08-09T07:38:37.000Z</time>
</trkpt>
<trkpt lat="46.1628290" lon="10.4619780">
	<ele>2598.60</ele>
	<time>2023-08-09T07:38:38.000Z</time>
</trkpt>
<trkpt lat="46.1628260" lon="10.4619850">
	<ele>2598.20</ele>
	<time>2023-08-09T07:38:39.000Z</time>
</trkpt>
<trkpt lat="46.1628210" lon="10.4619930">
	<ele>2598.00</ele>
	<time>2023-08-09T07:38:40.000Z</time>
</trkpt>
<trkpt lat="46.1628150" lon="10.4619960">
	<ele>2597.80</ele>
	<time>2023-08-09T07:38:41.000Z</time>
</trkpt>
<trkpt lat="46.1628060" lon="10.4620010">
	<ele>2597.80</ele>
	<time>2023-08-09T07:38:42.000Z</time>
</trkpt>
<trkpt lat="46.1627950" lon="10.4620190">
	<ele>2597.60</ele>
	<time>2023-08-09T07:38:43.000Z</time>
</trkpt>
<trkpt lat="46.1627850" lon="10.4620320">
	<ele>2597.60</ele>
	<time>2023-08-09T07:38:44.000Z</time>
</trkpt>
<trkpt lat="46.1627830" lon="10.4620420">
	<ele>2597.20</ele>
	<time>2023-08-09T07:38:45.000Z</time>
</trkpt>
<trkpt lat="46.1627850" lon="10.4620510">
	<ele>2596.80</ele>
	<time>2023-08-09T07:38:46.000Z</time>
</trkpt>
<trkpt lat="46.1627840" lon="10.4620610">
	<ele>2596.40</ele>
	<time>2023-08-09T07:38:47.000Z</time>
</trkpt>
<trkpt lat="46.1627850" lon="10.4620710">
	<ele>2595.80</ele>
	<time>2023-08-09T07:38:48.000Z</time>
</trkpt>
<trkpt lat="46.1627800" lon="10.4620840">
	<ele>2595.60</ele>
	<time>2023-08-09T07:38:49.000Z</time>
</trkpt>
<trkpt lat="46.1627790" lon="10.4620950">
	<ele>2595.40</ele>
	<time>2023-08-09T07:38:50.000Z</time>
</trkpt>
<trkpt lat="46.1627780" lon="10.4621050">
	<ele>2595.20</ele>
	<time>2023-08-09T07:38:51.000Z</time>
</trkpt>
<trkpt lat="46.1627780" lon="10.4621150">
	<ele>2595.00</ele>
	<time>2023-08-09T07:38:52.000Z</time>
</trkpt>
<trkpt lat="46.1627780" lon="10.4621260">
	<ele>2595.00</ele>
	<time>2023-08-09T07:38:53.000Z</time>
</trkpt>
<trkpt lat="46.1627770" lon="10.4621430">
	<ele>2594.80</ele>
	<time>2023-08-09T07:38:54.000Z</time>
</trkpt>
<trkpt lat="46.1627700" lon="10.4621560">
	<ele>2594.60</ele>
	<time>2023-08-09T07:38:55.000Z</time>
</trkpt>
<trkpt lat="46.1627640" lon="10.4621640">
	<ele>2594.40</ele>
	<time>2023-08-09T07:38:56.000Z</time>
</trkpt>
<trkpt lat="46.1627620" lon="10.4621720">
	<ele>2594.20</ele>
	<time>2023-08-09T07:38:57.000Z</time>
</trkpt>
<trkpt lat="46.1627650" lon="10.4621810">
	<ele>2594.20</ele>
	<time>2023-08-09T07:38:58.000Z</time>
</trkpt>
<trkpt lat="46.1627660" lon="10.4621890">
	<ele>2594.00</ele>
	<time>2023-08-09T07:38:59.000Z</time>
</trkpt>
<trkpt lat="46.1627670" lon="10.4621950">
	<ele>2594.00</ele>
	<time>2023-08-09T07:39:00.000Z</time>
</trkpt>
<trkpt lat="46.1627710" lon="10.4622030">
	<ele>2593.80</ele>
	<time>2023-08-09T07:39:01.000Z</time>
</trkpt>
<trkpt lat="46.1627740" lon="10.4622120">
	<ele>2593.60</ele>
	<time>2023-08-09T07:39:02.000Z</time>
</trkpt>
<trkpt lat="46.1627760" lon="10.4622210">
	<ele>2593.40</ele>
	<time>2023-08-09T07:39:03.000Z</time>
</trkpt>
<trkpt lat="46.1627750" lon="10.4622280">
	<ele>2593.20</ele>
	<time>2023-08-09T07:39:04.000Z</time>
</trkpt>
<trkpt lat="46.1627760" lon="10.4622340">
	<ele>2593.00</ele>
	<time>2023-08-09T07:39:05.000Z</time>
</trkpt>
<trkpt lat="46.1627760" lon="10.4622430">
	<ele>2592.80</ele>
	<time>2023-08-09T07:39:06.000Z</time>
</trkpt>
<trkpt lat="46.1627790" lon="10.4622500">
	<ele>2592.80</ele>
	<time>2023-08-09T07:39:07.000Z</time>
</trkpt>
<trkpt lat="46.1627870" lon="10.4622570">
	<ele>2592.40</ele>
	<time>2023-08-09T07:39:08.000Z</time>
</trkpt>
<trkpt lat="46.1627930" lon="10.4622640">
	<ele>2592.20</ele>
	<time>2023-08-09T07:39:09.000Z</time>
</trkpt>
<trkpt lat="46.1627960" lon="10.4622700">
	<ele>2591.80</ele>
	<time>2023-08-09T07:39:10.000Z</time>
</trkpt>
<trkpt lat="46.1627940" lon="10.4622780">
	<ele>2591.60</ele>
	<time>2023-08-09T07:39:11.000Z</time>
</trkpt>
<trkpt lat="46.1627910" lon="10.4622870">
	<ele>2591.40</ele>
	<time>2023-08-09T07:39:12.000Z</time>
</trkpt>
<trkpt lat="46.1627920" lon="10.4622950">
	<ele>2591.20</ele>
	<time>2023-08-09T07:39:13.000Z</time>
</trkpt>
<trkpt lat="46.1627920" lon="10.4623020">
	<ele>2591.00</ele>
	<time>2023-08-09T07:39:14.000Z</time>
</trkpt>
<trkpt lat="46.1627920" lon="10.4623070">
	<ele>2590.80</ele>
	<time>2023-08-09T07:39:15.000Z</time>
</trkpt>
<trkpt lat="46.1627940" lon="10.4623110">
	<ele>2590.60</ele>
	<time>2023-08-09T07:39:16.000Z</time>
</trkpt>
<trkpt lat="46.1627980" lon="10.4623160">
	<ele>2590.40</ele>
	<time>2023-08-09T07:39:17.000Z</time>
</trkpt>
<trkpt lat="46.1628020" lon="10.4623250">
	<ele>2590.20</ele>
	<time>2023-08-09T07:39:18.000Z</time>
</trkpt>
<trkpt lat="46.1628040" lon="10.4623340">
	<ele>2590.20</ele>
	<time>2023-08-09T07:39:19.000Z</time>
</trkpt>
<trkpt lat="46.1628070" lon="10.4623410">
	<ele>2590.00</ele>
	<time>2023-08-09T07:39:20.000Z</time>
</trkpt>
<trkpt lat="46.1628110" lon="10.4623490">
	<ele>2589.80</ele>
	<time>2023-08-09T07:39:21.000Z</time>
</trkpt>
<trkpt lat="46.1628110" lon="10.4623590">
	<ele>2589.60</ele>
	<time>2023-08-09T07:39:22.000Z</time>
</trkpt>
<trkpt lat="46.1628100" lon="10.4623660">
	<ele>2589.40</ele>
	<time>2023-08-09T07:39:23.000Z</time>
</trkpt>
<trkpt lat="46.1628090" lon="10.4623710">
	<ele>2589.40</ele>
	<time>2023-08-09T07:39:24.000Z</time>
</trkpt>
<trkpt lat="46.1628050" lon="10.4623760">
	<ele>2589.20</ele>
	<time>2023-08-09T07:39:25.000Z</time>
</trkpt>
<trkpt lat="46.1628050" lon="10.4623820">
	<ele>2588.80</ele>
	<time>2023-08-09T07:39:26.000Z</time>
</trkpt>
<trkpt lat="46.1628060" lon="10.4623900">
	<ele>2588.40</ele>
	<time>2023-08-09T07:39:27.000Z</time>
</trkpt>
<trkpt lat="46.1628040" lon="10.4623960">
	<ele>2588.20</ele>
	<time>2023-08-09T07:39:28.000Z</time>
</trkpt>
<trkpt lat="46.1627990" lon="10.4624030">
	<ele>2588.00</ele>
	<time>2023-08-09T07:39:29.000Z</time>
</trkpt>
<trkpt lat="46.1627950" lon="10.4624090">
	<ele>2588.00</ele>
	<time>2023-08-09T07:39:30.000Z</time>
</trkpt>
<trkpt lat="46.1627920" lon="10.4624120">
	<ele>2587.80</ele>
	<time>2023-08-09T07:39:31.000Z</time>
</trkpt>
<trkpt lat="46.1627910" lon="10.4624110">
	<ele>2587.80</ele>
	<time>2023-08-09T07:39:32.000Z</time>
</trkpt>
<trkpt lat="46.1627930" lon="10.4624090">
	<ele>2587.60</ele>
	<time>2023-08-09T07:39:33.000Z</time>
</trkpt>
<trkpt lat="46.1627970" lon="10.4624090">
	<ele>2587.60</ele>
	<time>2023-08-09T07:39:34.000Z</time>
</trkpt>
<trkpt lat="46.1627990" lon="10.4624110">
	<ele>2587.40</ele>
	<time>2023-08-09T07:39:35.000Z</time>
</trkpt>
<trkpt lat="46.1628000" lon="10.4624150">
	<ele>2587.20</ele>
	<time>2023-08-09T07:39:36.000Z</time>
</trkpt>
<trkpt lat="46.1628030" lon="10.4624170">
	<ele>2586.80</ele>
	<time>2023-08-09T07:39:37.000Z</time>
</trkpt>
<trkpt lat="46.1628050" lon="10.4624210">
	<ele>2586.60</ele>
	<time>2023-08-09T07:39:38.000Z</time>
</trkpt>
<trkpt lat="46.1628120" lon="10.4624210">
	<ele>2586.40</ele>
	<time>2023-08-09T07:39:39.000Z</time>
</trkpt>
<trkpt lat="46.1628190" lon="10.4624210">
	<ele>2586.20</ele>
	<time>2023-08-09T07:39:40.000Z</time>
</trkpt>
<trkpt lat="46.1628280" lon="10.4624240">
	<ele>2586.00</ele>
	<time>2023-08-09T07:39:41.000Z</time>
</trkpt>
<trkpt lat="46.1628420" lon="10.4624240">
	<ele>2585.80</ele>
	<time>2023-08-09T07:39:42.000Z</time>
</trkpt>
<trkpt lat="46.1628500" lon="10.4624260">
	<ele>2585.40</ele>
	<time>2023-08-09T07:39:43.000Z</time>
</trkpt>
<trkpt lat="46.1628500" lon="10.4624340">
	<ele>2585.20</ele>
	<time>2023-08-09T07:39:44.000Z</time>
</trkpt>
<trkpt lat="46.1628530" lon="10.4624420">
	<ele>2584.80</ele>
	<time>2023-08-09T07:39:45.000Z</time>
</trkpt>
<trkpt lat="46.1628510" lon="10.4624530">
	<ele>2584.60</ele>
	<time>2023-08-09T07:39:46.000Z</time>
</trkpt>
<trkpt lat="46.1628470" lon="10.4624620">
	<ele>2584.20</ele>
	<time>2023-08-09T07:39:47.000Z</time>
</trkpt>
<trkpt lat="46.1628440" lon="10.4624710">
	<ele>2584.00</ele>
	<time>2023-08-09T07:39:48.000Z</time>
</trkpt>
<trkpt lat="46.1628480" lon="10.4624780">
	<ele>2583.80</ele>
	<time>2023-08-09T07:39:49.000Z</time>
</trkpt>
<trkpt lat="46.1628520" lon="10.4624860">
	<ele>2583.60</ele>
	<time>2023-08-09T07:39:50.000Z</time>
</trkpt>
<trkpt lat="46.1628550" lon="10.4624930">
	<ele>2583.20</ele>
	<time>2023-08-09T07:39:51.000Z</time>
</trkpt>
<trkpt lat="46.1628570" lon="10.4625020">
	<ele>2583.20</ele>
	<time>2023-08-09T07:39:52.000Z</time>
</trkpt>
<trkpt lat="46.1628580" lon="10.4625100">
	<ele>2583.00</ele>
	<time>2023-08-09T07:39:53.000Z</time>
</trkpt>
<trkpt lat="46.1628570" lon="10.4625220">
	<ele>2582.60</ele>
	<time>2023-08-09T07:39:54.000Z</time>
</trkpt>
<trkpt lat="46.1628590" lon="10.4625340">
	<ele>2582.40</ele>
	<time>2023-08-09T07:39:55.000Z</time>
</trkpt>
<trkpt lat="46.1628630" lon="10.4625450">
	<ele>2582.20</ele>
	<time>2023-08-09T07:39:56.000Z</time>
</trkpt>
<trkpt lat="46.1628670" lon="10.4625550">
	<ele>2582.00</ele>
	<time>2023-08-09T07:39:57.000Z</time>
</trkpt>
<trkpt lat="46.1628650" lon="10.4625660">
	<ele>2581.80</ele>
	<time>2023-08-09T07:39:58.000Z</time>
</trkpt>
<trkpt lat="46.1628630" lon="10.4625730">
	<ele>2581.40</ele>
	<time>2023-08-09T07:39:59.000Z</time>
</trkpt>
<trkpt lat="46.1628620" lon="10.4625790">
	<ele>2581.20</ele>
	<time>2023-08-09T07:40:00.000Z</time>
</trkpt>
<trkpt lat="46.1628600" lon="10.4625850">
	<ele>2580.80</ele>
	<time>2023-08-09T07:40:01.000Z</time>
</trkpt>
<trkpt lat="46.1628590" lon="10.4625940">
	<ele>2580.60</ele>
	<time>2023-08-09T07:40:02.000Z</time>
</trkpt>
<trkpt lat="46.1628600" lon="10.4626020">
	<ele>2580.40</ele>
	<time>2023-08-09T07:40:03.000Z</time>
</trkpt>
<trkpt lat="46.1628630" lon="10.4626080">
	<ele>2580.40</ele>
	<time>2023-08-09T07:40:04.000Z</time>
</trkpt>
<trkpt lat="46.1628660" lon="10.4626150">
	<ele>2580.20</ele>
	<time>2023-08-09T07:40:05.000Z</time>
</trkpt>
<trkpt lat="46.1628670" lon="10.4626260">
	<ele>2580.00</ele>
	<time>2023-08-09T07:40:06.000Z</time>
</trkpt>
<trkpt lat="46.1628690" lon="10.4626350">
	<ele>2579.80</ele>
	<time>2023-08-09T07:40:07.000Z</time>
</trkpt>
<trkpt lat="46.1628680" lon="10.4626460">
	<ele>2579.60</ele>
	<time>2023-08-09T07:40:08.000Z</time>
</trkpt>
<trkpt lat="46.1628630" lon="10.4626550">
	<ele>2579.60</ele>
	<time>2023-08-09T07:40:09.000Z</time>
</trkpt>
<trkpt lat="46.1628630" lon="10.4626660">
	<ele>2579.40</ele>
	<time>2023-08-09T07:40:10.000Z</time>
</trkpt>
<trkpt lat="46.1628670" lon="10.4626760">
	<ele>2579.40</ele>
	<time>2023-08-09T07:40:11.000Z</time>
</trkpt>
<trkpt lat="46.1628740" lon="10.4626890">
	<ele>2579.40</ele>
	<time>2023-08-09T07:40:12.000Z</time>
</trkpt>
<trkpt lat="46.1628760" lon="10.4627010">
	<ele>2579.20</ele>
	<time>2023-08-09T07:40:13.000Z</time>
</trkpt>
<trkpt lat="46.1628740" lon="10.4627070">
	<ele>2579.00</ele>
	<time>2023-08-09T07:40:14.000Z</time>
</trkpt>
<trkpt lat="46.1628770" lon="10.4627120">
	<ele>2578.80</ele>
	<time>2023-08-09T07:40:15.000Z</time>
</trkpt>
<trkpt lat="46.1628760" lon="10.4627060">
	<ele>2578.60</ele>
	<time>2023-08-09T07:40:16.000Z</time>
</trkpt>
<trkpt lat="46.1628740" lon="10.4627110">
	<ele>2578.40</ele>
	<time>2023-08-09T07:40:17.000Z</time>
</trkpt>
<trkpt lat="46.1628750" lon="10.4627130">
	<ele>2578.40</ele>
	<time>2023-08-09T07:40:18.000Z</time>
</trkpt>
<trkpt lat="46.1628800" lon="10.4627120">
	<ele>2578.00</ele>
	<time>2023-08-09T07:40:19.000Z</time>
</trkpt>
<trkpt lat="46.1628880" lon="10.4627100">
	<ele>2577.80</ele>
	<time>2023-08-09T07:40:20.000Z</time>
</trkpt>
<trkpt lat="46.1628980" lon="10.4627080">
	<ele>2577.80</ele>
	<time>2023-08-09T07:40:21.000Z</time>
</trkpt>
<trkpt lat="46.1629050" lon="10.4627090">
	<ele>2577.60</ele>
	<time>2023-08-09T07:40:22.000Z</time>
</trkpt>
<trkpt lat="46.1629150" lon="10.4627100">
	<ele>2577.60</ele>
	<time>2023-08-09T07:40:23.000Z</time>
</trkpt>
<trkpt lat="46.1629260" lon="10.4627140">
	<ele>2577.60</ele>
	<time>2023-08-09T07:40:24.000Z</time>
</trkpt>
<trkpt lat="46.1629370" lon="10.4627200">
	<ele>2577.40</ele>
	<time>2023-08-09T07:40:25.000Z</time>
</trkpt>
<trkpt lat="46.1629480" lon="10.4627240">
	<ele>2577.40</ele>
	<time>2023-08-09T07:40:26.000Z</time>
</trkpt>
<trkpt lat="46.1629560" lon="10.4627300">
	<ele>2577.20</ele>
	<time>2023-08-09T07:40:27.000Z</time>
</trkpt>
<trkpt lat="46.1629640" lon="10.4627360">
	<ele>2577.20</ele>
	<time>2023-08-09T07:40:28.000Z</time>
</trkpt>
<trkpt lat="46.1629740" lon="10.4627440">
	<ele>2577.20</ele>
	<time>2023-08-09T07:40:29.000Z</time>
</trkpt>
<trkpt lat="46.1629840" lon="10.4627520">
	<ele>2577.20</ele>
	<time>2023-08-09T07:40:30.000Z</time>
</trkpt>
<trkpt lat="46.1629910" lon="10.4627600">
	<ele>2577.00</ele>
	<time>2023-08-09T07:40:31.000Z</time>
</trkpt>
<trkpt lat="46.1629960" lon="10.4627680">
	<ele>2577.00</ele>
	<time>2023-08-09T07:40:32.000Z</time>
</trkpt>
<trkpt lat="46.1629990" lon="10.4627750">
	<ele>2576.80</ele>
	<time>2023-08-09T07:40:33.000Z</time>
</trkpt>
<trkpt lat="46.1630030" lon="10.4627780">
	<ele>2576.60</ele>
	<time>2023-08-09T07:40:34.000Z</time>
</trkpt>
<trkpt lat="46.1630050" lon="10.4627810">
	<ele>2576.60</ele>
	<time>2023-08-09T07:40:35.000Z</time>
</trkpt>
<trkpt lat="46.1630120" lon="10.4627780">
	<ele>2576.40</ele>
	<time>2023-08-09T07:40:36.000Z</time>
</trkpt>
<trkpt lat="46.1630190" lon="10.4627750">
	<ele>2576.20</ele>
	<time>2023-08-09T07:40:37.000Z</time>
</trkpt>
<trkpt lat="46.1630250" lon="10.4627750">
	<ele>2576.00</ele>
	<time>2023-08-09T07:40:38.000Z</time>
</trkpt>
<trkpt lat="46.1630290" lon="10.4627770">
	<ele>2576.00</ele>
	<time>2023-08-09T07:40:39.000Z</time>
</trkpt>
<trkpt lat="46.1630320" lon="10.4627790">
	<ele>2575.80</ele>
	<time>2023-08-09T07:40:40.000Z</time>
</trkpt>
<trkpt lat="46.1630390" lon="10.4627810">
	<ele>2575.80</ele>
	<time>2023-08-09T07:40:41.000Z</time>
</trkpt>
<trkpt lat="46.1630430" lon="10.4627850">
	<ele>2575.60</ele>
	<time>2023-08-09T07:40:42.000Z</time>
</trkpt>
<trkpt lat="46.1630460" lon="10.4627890">
	<ele>2575.60</ele>
	<time>2023-08-09T07:40:43.000Z</time>
</trkpt>
<trkpt lat="46.1630490" lon="10.4627910">
	<ele>2575.40</ele>
	<time>2023-08-09T07:40:44.000Z</time>
</trkpt>
<trkpt lat="46.1630520" lon="10.4627920">
	<ele>2575.40</ele>
	<time>2023-08-09T07:40:45.000Z</time>
</trkpt>
<trkpt lat="46.1630590" lon="10.4627920">
	<ele>2575.20</ele>
	<time>2023-08-09T07:40:46.000Z</time>
</trkpt>
<trkpt lat="46.1630650" lon="10.4627910">
	<ele>2575.20</ele>
	<time>2023-08-09T07:40:47.000Z</time>
</trkpt>
<trkpt lat="46.1630720" lon="10.4627900">
	<ele>2575.20</ele>
	<time>2023-08-09T07:40:48.000Z</time>
</trkpt>
<trkpt lat="46.1630760" lon="10.4627900">
	<ele>2574.80</ele>
	<time>2023-08-09T07:40:49.000Z</time>
</trkpt>
<trkpt lat="46.1630770" lon="10.4627870">
	<ele>2574.60</ele>
	<time>2023-08-09T07:40:50.000Z</time>
</trkpt>
<trkpt lat="46.1630810" lon="10.4627850">
	<ele>2574.40</ele>
	<time>2023-08-09T07:40:51.000Z</time>
</trkpt>
<trkpt lat="46.1630860" lon="10.4627850">
	<ele>2574.00</ele>
	<time>2023-08-09T07:40:52.000Z</time>
</trkpt>
<trkpt lat="46.1630900" lon="10.4627860">
	<ele>2573.80</ele>
	<time>2023-08-09T07:40:53.000Z</time>
</trkpt>
<trkpt lat="46.1630920" lon="10.4627910">
	<ele>2573.40</ele>
	<time>2023-08-09T07:40:54.000Z</time>
</trkpt>
<trkpt lat="46.1630940" lon="10.4627930">
	<ele>2573.20</ele>
	<time>2023-08-09T07:40:55.000Z</time>
</trkpt>
<trkpt lat="46.1630970" lon="10.4627960">
	<ele>2573.00</ele>
	<time>2023-08-09T07:40:56.000Z</time>
</trkpt>
<trkpt lat="46.1630990" lon="10.4628000">
	<ele>2572.80</ele>
	<time>2023-08-09T07:40:57.000Z</time>
</trkpt>
<trkpt lat="46.1631020" lon="10.4628020">
	<ele>2572.60</ele>
	<time>2023-08-09T07:40:58.000Z</time>
</trkpt>
<trkpt lat="46.1631080" lon="10.4628030">
	<ele>2572.40</ele>
	<time>2023-08-09T07:40:59.000Z</time>
</trkpt>
<trkpt lat="46.1631120" lon="10.4628070">
	<ele>2572.20</ele>
	<time>2023-08-09T07:41:00.000Z</time>
</trkpt>
<trkpt lat="46.1631170" lon="10.4628110">
	<ele>2572.00</ele>
	<time>2023-08-09T07:41:01.000Z</time>
</trkpt>
<trkpt lat="46.1631210" lon="10.4628160">
	<ele>2571.60</ele>
	<time>2023-08-09T07:41:02.000Z</time>
</trkpt>
<trkpt lat="46.1631240" lon="10.4628200">
	<ele>2571.60</ele>
	<time>2023-08-09T07:41:03.000Z</time>
</trkpt>
<trkpt lat="46.1631290" lon="10.4628250">
	<ele>2571.40</ele>
	<time>2023-08-09T07:41:04.000Z</time>
</trkpt>
<trkpt lat="46.1631310" lon="10.4628320">
	<ele>2571.20</ele>
	<time>2023-08-09T07:41:05.000Z</time>
</trkpt>
<trkpt lat="46.1631330" lon="10.4628360">
	<ele>2571.00</ele>
	<time>2023-08-09T07:41:06.000Z</time>
</trkpt>
<trkpt lat="46.1631340" lon="10.4628400">
	<ele>2570.60</ele>
	<time>2023-08-09T07:41:07.000Z</time>
</trkpt>
<trkpt lat="46.1631330" lon="10.4628460">
	<ele>2570.40</ele>
	<time>2023-08-09T07:41:08.000Z</time>
</trkpt>
<trkpt lat="46.1631330" lon="10.4628500">
	<ele>2570.40</ele>
	<time>2023-08-09T07:41:09.000Z</time>
</trkpt>
<trkpt lat="46.1631350" lon="10.4628530">
	<ele>2570.20</ele>
	<time>2023-08-09T07:41:10.000Z</time>
</trkpt>
<trkpt lat="46.1631390" lon="10.4628580">
	<ele>2570.00</ele>
	<time>2023-08-09T07:41:11.000Z</time>
</trkpt>
<trkpt lat="46.1631420" lon="10.4628660">
	<ele>2569.80</ele>
	<time>2023-08-09T07:41:12.000Z</time>
</trkpt>
<trkpt lat="46.1631440" lon="10.4628720">
	<ele>2569.60</ele>
	<time>2023-08-09T07:41:13.000Z</time>
</trkpt>
<trkpt lat="46.1631470" lon="10.4628800">
	<ele>2569.60</ele>
	<time>2023-08-09T07:41:14.000Z</time>
</trkpt>
<trkpt lat="46.1631510" lon="10.4628860">
	<ele>2569.40</ele>
	<time>2023-08-09T07:41:15.000Z</time>
</trkpt>
<trkpt lat="46.1631550" lon="10.4628930">
	<ele>2569.20</ele>
	<time>2023-08-09T07:41:16.000Z</time>
</trkpt>
<trkpt lat="46.1631580" lon="10.4628980">
	<ele>2569.00</ele>
	<time>2023-08-09T07:41:17.000Z</time>
</trkpt>
<trkpt lat="46.1631620" lon="10.4629030">
	<ele>2568.60</ele>
	<time>2023-08-09T07:41:18.000Z</time>
</trkpt>
<trkpt lat="46.1631650" lon="10.4629090">
	<ele>2568.40</ele>
	<time>2023-08-09T07:41:19.000Z</time>
</trkpt>
<trkpt lat="46.1631670" lon="10.4629140">
	<ele>2568.20</ele>
	<time>2023-08-09T07:41:20.000Z</time>
</trkpt>
<trkpt lat="46.1631700" lon="10.4629180">
	<ele>2568.00</ele>
	<time>2023-08-09T07:41:21.000Z</time>
</trkpt>
<trkpt lat="46.1631730" lon="10.4629230">
	<ele>2567.80</ele>
	<time>2023-08-09T07:41:22.000Z</time>
</trkpt>
<trkpt lat="46.1631750" lon="10.4629290">
	<ele>2567.60</ele>
	<time>2023-08-09T07:41:23.000Z</time>
</trkpt>
<trkpt lat="46.1631760" lon="10.4629330">
	<ele>2567.40</ele>
	<time>2023-08-09T07:41:24.000Z</time>
</trkpt>
<trkpt lat="46.1631800" lon="10.4629340">
	<ele>2567.20</ele>
	<time>2023-08-09T07:41:25.000Z</time>
</trkpt>
<trkpt lat="46.1631840" lon="10.4629380">
	<ele>2567.00</ele>
	<time>2023-08-09T07:41:26.000Z</time>
</trkpt>
<trkpt lat="46.1631870" lon="10.4629430">
	<ele>2566.80</ele>
	<time>2023-08-09T07:41:27.000Z</time>
</trkpt>
<trkpt lat="46.1631900" lon="10.4629460">
	<ele>2566.60</ele>
	<time>2023-08-09T07:41:28.000Z</time>
</trkpt>
<trkpt lat="46.1631950" lon="10.4629480">
	<ele>2566.40</ele>
	<time>2023-08-09T07:41:29.000Z</time>
</trkpt>
<trkpt lat="46.1632000" lon="10.4629480">
	<ele>2566.20</ele>
	<time>2023-08-09T07:41:30.000Z</time>
</trkpt>
<trkpt lat="46.1632050" lon="10.4629480">
	<ele>2565.80</ele>
	<time>2023-08-09T07:41:31.000Z</time>
</trkpt>
<trkpt lat="46.1632090" lon="10.4629470">
	<ele>2565.40</ele>
	<time>2023-08-09T07:41:32.000Z</time>
</trkpt>
<trkpt lat="46.1632160" lon="10.4629450">
	<ele>2565.20</ele>
	<time>2023-08-09T07:41:33.000Z</time>
</trkpt>
<trkpt lat="46.1632230" lon="10.4629440">
	<ele>2565.00</ele>
	<time>2023-08-09T07:41:34.000Z</time>
</trkpt>
<trkpt lat="46.1632280" lon="10.4629430">
	<ele>2564.80</ele>
	<time>2023-08-09T07:41:35.000Z</time>
</trkpt>
<trkpt lat="46.1632360" lon="10.4629410">
	<ele>2564.60</ele>
	<time>2023-08-09T07:41:36.000Z</time>
</trkpt>
<trkpt lat="46.1632450" lon="10.4629420">
	<ele>2564.60</ele>
	<time>2023-08-09T07:41:37.000Z</time>
</trkpt>
<trkpt lat="46.1632530" lon="10.4629420">
	<ele>2564.40</ele>
	<time>2023-08-09T07:41:38.000Z</time>
</trkpt>
<trkpt lat="46.1632570" lon="10.4629450">
	<ele>2564.40</ele>
	<time>2023-08-09T07:41:39.000Z</time>
</trkpt>
<trkpt lat="46.1632610" lon="10.4629510">
	<ele>2564.20</ele>
	<time>2023-08-09T07:41:40.000Z</time>
</trkpt>
<trkpt lat="46.1632630" lon="10.4629590">
	<ele>2564.20</ele>
	<time>2023-08-09T07:41:41.000Z</time>
</trkpt>
<trkpt lat="46.1632660" lon="10.4629670">
	<ele>2564.00</ele>
	<time>2023-08-09T07:41:42.000Z</time>
</trkpt>
<trkpt lat="46.1632680" lon="10.4629730">
	<ele>2563.80</ele>
	<time>2023-08-09T07:41:43.000Z</time>
</trkpt>
<trkpt lat="46.1632690" lon="10.4629790">
	<ele>2563.80</ele>
	<time>2023-08-09T07:41:44.000Z</time>
</trkpt>
<trkpt lat="46.1632750" lon="10.4629840">
	<ele>2563.40</ele>
	<time>2023-08-09T07:41:45.000Z</time>
</trkpt>
<trkpt lat="46.1632800" lon="10.4629890">
	<ele>2563.40</ele>
	<time>2023-08-09T07:41:46.000Z</time>
</trkpt>
<trkpt lat="46.1632860" lon="10.4629950">
	<ele>2563.20</ele>
	<time>2023-08-09T07:41:47.000Z</time>
</trkpt>
<trkpt lat="46.1632920" lon="10.4630030">
	<ele>2563.20</ele>
	<time>2023-08-09T07:41:48.000Z</time>
</trkpt>
<trkpt lat="46.1633000" lon="10.4630050">
	<ele>2563.20</ele>
	<time>2023-08-09T07:41:49.000Z</time>
</trkpt>
<trkpt lat="46.1633060" lon="10.4630070">
	<ele>2563.00</ele>
	<time>2023-08-09T07:41:50.000Z</time>
</trkpt>
<trkpt lat="46.1633090" lon="10.4630150">
	<ele>2562.80</ele>
	<time>2023-08-09T07:41:51.000Z</time>
</trkpt>
<trkpt lat="46.1633150" lon="10.4630190">
	<ele>2562.60</ele>
	<time>2023-08-09T07:41:52.000Z</time>
</trkpt>
<trkpt lat="46.1633220" lon="10.4630250">
	<ele>2562.40</ele>
	<time>2023-08-09T07:41:53.000Z</time>
</trkpt>
<trkpt lat="46.1633300" lon="10.4630280">
	<ele>2562.40</ele>
	<time>2023-08-09T07:41:54.000Z</time>
</trkpt>
<trkpt lat="46.1633400" lon="10.4630300">
	<ele>2562.20</ele>
	<time>2023-08-09T07:41:55.000Z</time>
</trkpt>
<trkpt lat="46.1633450" lon="10.4630360">
	<ele>2562.00</ele>
	<time>2023-08-09T07:41:56.000Z</time>
</trkpt>
<trkpt lat="46.1633500" lon="10.4630400">
	<ele>2561.80</ele>
	<time>2023-08-09T07:41:57.000Z</time>
</trkpt>
<trkpt lat="46.1633560" lon="10.4630420">
	<ele>2561.60</ele>
	<time>2023-08-09T07:41:58.000Z</time>
</trkpt>
<trkpt lat="46.1633630" lon="10.4630450">
	<ele>2561.40</ele>
	<time>2023-08-09T07:41:59.000Z</time>
</trkpt>
<trkpt lat="46.1633710" lon="10.4630490">
	<ele>2561.40</ele>
	<time>2023-08-09T07:42:00.000Z</time>
</trkpt>
<trkpt lat="46.1633800" lon="10.4630520">
	<ele>2561.00</ele>
	<time>2023-08-09T07:42:01.000Z</time>
</trkpt>
<trkpt lat="46.1633870" lon="10.4630530">
	<ele>2561.00</ele>
	<time>2023-08-09T07:42:02.000Z</time>
</trkpt>
<trkpt lat="46.1633940" lon="10.4630540">
	<ele>2560.80</ele>
	<time>2023-08-09T07:42:03.000Z</time>
</trkpt>
<trkpt lat="46.1633990" lon="10.4630590">
	<ele>2560.60</ele>
	<time>2023-08-09T07:42:04.000Z</time>
</trkpt>
<trkpt lat="46.1634010" lon="10.4630640">
	<ele>2560.60</ele>
	<time>2023-08-09T07:42:05.000Z</time>
</trkpt>
<trkpt lat="46.1634070" lon="10.4630680">
	<ele>2560.40</ele>
	<time>2023-08-09T07:42:06.000Z</time>
</trkpt>
<trkpt lat="46.1634120" lon="10.4630750">
	<ele>2560.20</ele>
	<time>2023-08-09T07:42:07.000Z</time>
</trkpt>
<trkpt lat="46.1634170" lon="10.4630790">
	<ele>2560.00</ele>
	<time>2023-08-09T07:42:08.000Z</time>
</trkpt>
<trkpt lat="46.1634210" lon="10.4630850">
	<ele>2559.80</ele>
	<time>2023-08-09T07:42:09.000Z</time>
</trkpt>
<trkpt lat="46.1634200" lon="10.4630930">
	<ele>2559.60</ele>
	<time>2023-08-09T07:42:10.000Z</time>
</trkpt>
<trkpt lat="46.1634210" lon="10.4630980">
	<ele>2559.60</ele>
	<time>2023-08-09T07:42:11.000Z</time>
</trkpt>
<trkpt lat="46.1634210" lon="10.4631010">
	<ele>2559.20</ele>
	<time>2023-08-09T07:42:12.000Z</time>
</trkpt>
<trkpt lat="46.1634200" lon="10.4631020">
	<ele>2559.00</ele>
	<time>2023-08-09T07:42:13.000Z</time>
</trkpt>
<trkpt lat="46.1634200" lon="10.4631030">
	<ele>2558.80</ele>
	<time>2023-08-09T07:42:14.000Z</time>
</trkpt>
<trkpt lat="46.1634200" lon="10.4631030">
	<ele>2558.80</ele>
	<time>2023-08-09T07:42:15.000Z</time>
</trkpt>
<trkpt lat="46.1634210" lon="10.4631040">
	<ele>2558.60</ele>
	<time>2023-08-09T07:42:16.000Z</time>
</trkpt>
<trkpt lat="46.1634220" lon="10.4631060">
	<ele>2558.60</ele>
	<time>2023-08-09T07:42:17.000Z</time>
</trkpt>
<trkpt lat="46.1634260" lon="10.4631090">
	<ele>2558.40</ele>
	<time>2023-08-09T07:42:18.000Z</time>
</trkpt>
<trkpt lat="46.1634340" lon="10.4631120">
	<ele>2558.40</ele>
	<time>2023-08-09T07:42:19.000Z</time>
</trkpt>
<trkpt lat="46.1634400" lon="10.4631180">
	<ele>2558.20</ele>
	<time>2023-08-09T07:42:20.000Z</time>
</trkpt>
<trkpt lat="46.1634460" lon="10.4631220">
	<ele>2558.20</ele>
	<time>2023-08-09T07:42:21.000Z</time>
</trkpt>
<trkpt lat="46.1634540" lon="10.4631280">
	<ele>2558.20</ele>
	<time>2023-08-09T07:42:22.000Z</time>
</trkpt>
<trkpt lat="46.1634600" lon="10.4631350">
	<ele>2558.20</ele>
	<time>2023-08-09T07:42:23.000Z</time>
</trkpt>
<trkpt lat="46.1634650" lon="10.4631420">
	<ele>2558.00</ele>
	<time>2023-08-09T07:42:24.000Z</time>
</trkpt>
<trkpt lat="46.1634720" lon="10.4631470">
	<ele>2558.00</ele>
	<time>2023-08-09T07:42:25.000Z</time>
</trkpt>
<trkpt lat="46.1634790" lon="10.4631490">
	<ele>2557.80</ele>
	<time>2023-08-09T07:42:26.000Z</time>
</trkpt>
<trkpt lat="46.1634840" lon="10.4631530">
	<ele>2557.20</ele>
	<time>2023-08-09T07:42:27.000Z</time>
</trkpt>
<trkpt lat="46.1634870" lon="10.4631580">
	<ele>2556.60</ele>
	<time>2023-08-09T07:42:28.000Z</time>
</trkpt>
<trkpt lat="46.1634920" lon="10.4631610">
	<ele>2556.20</ele>
	<time>2023-08-09T07:42:29.000Z</time>
</trkpt>
<trkpt lat="46.1634970" lon="10.4631620">
	<ele>2556.00</ele>
	<time>2023-08-09T07:42:30.000Z</time>
</trkpt>
<trkpt lat="46.1635020" lon="10.4631650">
	<ele>2555.80</ele>
	<time>2023-08-09T07:42:31.000Z</time>
</trkpt>
<trkpt lat="46.1635060" lon="10.4631690">
	<ele>2555.60</ele>
	<time>2023-08-09T07:42:32.000Z</time>
</trkpt>
<trkpt lat="46.1635090" lon="10.4631740">
	<ele>2555.40</ele>
	<time>2023-08-09T07:42:33.000Z</time>
</trkpt>
<trkpt lat="46.1635130" lon="10.4631830">
	<ele>2555.40</ele>
	<time>2023-08-09T07:42:34.000Z</time>
</trkpt>
<trkpt lat="46.1635190" lon="10.4631880">
	<ele>2555.20</ele>
	<time>2023-08-09T07:42:35.000Z</time>
</trkpt>
<trkpt lat="46.1635250" lon="10.4631920">
	<ele>2555.00</ele>
	<time>2023-08-09T07:42:36.000Z</time>
</trkpt>
<trkpt lat="46.1635290" lon="10.4631950">
	<ele>2554.80</ele>
	<time>2023-08-09T07:42:37.000Z</time>
</trkpt>
<trkpt lat="46.1635320" lon="10.4631970">
	<ele>2554.60</ele>
	<time>2023-08-09T07:42:38.000Z</time>
</trkpt>
<trkpt lat="46.1635360" lon="10.4631980">
	<ele>2554.40</ele>
	<time>2023-08-09T07:42:39.000Z</time>
</trkpt>
<trkpt lat="46.1635400" lon="10.4631980">
	<ele>2554.40</ele>
	<time>2023-08-09T07:42:40.000Z</time>
</trkpt>
<trkpt lat="46.1635450" lon="10.4631980">
	<ele>2554.20</ele>
	<time>2023-08-09T07:42:41.000Z</time>
</trkpt>
<trkpt lat="46.1635510" lon="10.4631980">
	<ele>2554.00</ele>
	<time>2023-08-09T07:42:42.000Z</time>
</trkpt>
<trkpt lat="46.1635540" lon="10.4632010">
	<ele>2554.00</ele>
	<time>2023-08-09T07:42:43.000Z</time>
</trkpt>
<trkpt lat="46.1635580" lon="10.4632010">
	<ele>2553.80</ele>
	<time>2023-08-09T07:42:44.000Z</time>
</trkpt>
<trkpt lat="46.1635640" lon="10.4631990">
	<ele>2553.80</ele>
	<time>2023-08-09T07:42:45.000Z</time>
</trkpt>
<trkpt lat="46.1635690" lon="10.4632030">
	<ele>2553.60</ele>
	<time>2023-08-09T07:42:46.000Z</time>
</trkpt>
<trkpt lat="46.1635710" lon="10.4632080">
	<ele>2553.20</ele>
	<time>2023-08-09T07:42:47.000Z</time>
</trkpt>
<trkpt lat="46.1635760" lon="10.4632130">
	<ele>2552.80</ele>
	<time>2023-08-09T07:42:48.000Z</time>
</trkpt>
<trkpt lat="46.1635810" lon="10.4632200">
	<ele>2552.60</ele>
	<time>2023-08-09T07:42:49.000Z</time>
</trkpt>
<trkpt lat="46.1635860" lon="10.4632300">
	<ele>2552.40</ele>
	<time>2023-08-09T07:42:50.000Z</time>
</trkpt>
<trkpt lat="46.1635920" lon="10.4632370">
	<ele>2552.40</ele>
	<time>2023-08-09T07:42:51.000Z</time>
</trkpt>
<trkpt lat="46.1635940" lon="10.4632440">
	<ele>2552.20</ele>
	<time>2023-08-09T07:42:52.000Z</time>
</trkpt>
<trkpt lat="46.1635960" lon="10.4632510">
	<ele>2551.80</ele>
	<time>2023-08-09T07:42:53.000Z</time>
</trkpt>
<trkpt lat="46.1636000" lon="10.4632560">
	<ele>2551.40</ele>
	<time>2023-08-09T07:42:54.000Z</time>
</trkpt>
<trkpt lat="46.1636070" lon="10.4632580">
	<ele>2551.00</ele>
	<time>2023-08-09T07:42:55.000Z</time>
</trkpt>
<trkpt lat="46.1636140" lon="10.4632620">
	<ele>2550.80</ele>
	<time>2023-08-09T07:42:56.000Z</time>
</trkpt>
<trkpt lat="46.1636230" lon="10.4632630">
	<ele>2550.60</ele>
	<time>2023-08-09T07:42:57.000Z</time>
</trkpt>
<trkpt lat="46.1636330" lon="10.4632590">
	<ele>2550.60</ele>
	<time>2023-08-09T07:42:58.000Z</time>
</trkpt>
<trkpt lat="46.1636400" lon="10.4632530">
	<ele>2550.60</ele>
	<time>2023-08-09T07:42:59.000Z</time>
</trkpt>
<trkpt lat="46.1636500" lon="10.4632520">
	<ele>2550.60</ele>
	<time>2023-08-09T07:43:00.000Z</time>
</trkpt>
<trkpt lat="46.1636530" lon="10.4632510">
	<ele>2550.60</ele>
	<time>2023-08-09T07:43:01.000Z</time>
</trkpt>
<trkpt lat="46.1636580" lon="10.4632500">
	<ele>2550.60</ele>
	<time>2023-08-09T07:43:02.000Z</time>
</trkpt>
<trkpt lat="46.1636620" lon="10.4632490">
	<ele>2550.60</ele>
	<time>2023-08-09T07:43:03.000Z</time>
</trkpt>
<trkpt lat="46.1636650" lon="10.4632470">
	<ele>2550.40</ele>
	<time>2023-08-09T07:43:04.000Z</time>
</trkpt>
<trkpt lat="46.1636690" lon="10.4632420">
	<ele>2550.00</ele>
	<time>2023-08-09T07:43:05.000Z</time>
</trkpt>
<trkpt lat="46.1636740" lon="10.4632370">
	<ele>2549.80</ele>
	<time>2023-08-09T07:43:06.000Z</time>
</trkpt>
<trkpt lat="46.1636810" lon="10.4632310">
	<ele>2549.60</ele>
	<time>2023-08-09T07:43:07.000Z</time>
</trkpt>
<trkpt lat="46.1636890" lon="10.4632330">
	<ele>2549.40</ele>
	<time>2023-08-09T07:43:08.000Z</time>
</trkpt>
<trkpt lat="46.1636950" lon="10.4632360">
	<ele>2549.20</ele>
	<time>2023-08-09T07:43:09.000Z</time>
</trkpt>
<trkpt lat="46.1636990" lon="10.4632420">
	<ele>2549.00</ele>
	<time>2023-08-09T07:43:10.000Z</time>
</trkpt>
<trkpt lat="46.1637000" lon="10.4632480">
	<ele>2548.80</ele>
	<time>2023-08-09T07:43:11.000Z</time>
</trkpt>
<trkpt lat="46.1637040" lon="10.4632540">
	<ele>2548.60</ele>
	<time>2023-08-09T07:43:12.000Z</time>
</trkpt>
<trkpt lat="46.1637070" lon="10.4632600">
	<ele>2548.60</ele>
	<time>2023-08-09T07:43:13.000Z</time>
</trkpt>
<trkpt lat="46.1637080" lon="10.4632650">
	<ele>2548.40</ele>
	<time>2023-08-09T07:43:14.000Z</time>
</trkpt>
<trkpt lat="46.1637080" lon="10.4632670">
	<ele>2548.40</ele>
	<time>2023-08-09T07:43:15.000Z</time>
</trkpt>
<trkpt lat="46.1637100" lon="10.4632680">
	<ele>2548.20</ele>
	<time>2023-08-09T07:43:16.000Z</time>
</trkpt>
<trkpt lat="46.1637120" lon="10.4632710">
	<ele>2548.00</ele>
	<time>2023-08-09T07:43:17.000Z</time>
</trkpt>
<trkpt lat="46.1637140" lon="10.4632750">
	<ele>2548.00</ele>
	<time>2023-08-09T07:43:18.000Z</time>
</trkpt>
<trkpt lat="46.1637180" lon="10.4632800">
	<ele>2547.60</ele>
	<time>2023-08-09T07:43:19.000Z</time>
</trkpt>
<trkpt lat="46.1637200" lon="10.4632890">
	<ele>2547.40</ele>
	<time>2023-08-09T07:43:20.000Z</time>
</trkpt>
<trkpt lat="46.1637200" lon="10.4632960">
	<ele>2547.40</ele>
	<time>2023-08-09T07:43:21.000Z</time>
</trkpt>
<trkpt lat="46.1637210" lon="10.4633090">
	<ele>2547.20</ele>
	<time>2023-08-09T07:43:22.000Z</time>
</trkpt>
<trkpt lat="46.1637230" lon="10.4633160">
	<ele>2547.00</ele>
	<time>2023-08-09T07:43:23.000Z</time>
</trkpt>
<trkpt lat="46.1637250" lon="10.4633200">
	<ele>2546.80</ele>
	<time>2023-08-09T07:43:24.000Z</time>
</trkpt>
<trkpt lat="46.1637250" lon="10.4633240">
	<ele>2546.60</ele>
	<time>2023-08-09T07:43:25.000Z</time>
</trkpt>
<trkpt lat="46.1637210" lon="10.4633330">
	<ele>2546.40</ele>
	<time>2023-08-09T07:43:26.000Z</time>
</trkpt>
<trkpt lat="46.1637190" lon="10.4633430">
	<ele>2546.00</ele>
	<time>2023-08-09T07:43:27.000Z</time>
</trkpt>
<trkpt lat="46.1637180" lon="10.4633500">
	<ele>2545.80</ele>
	<time>2023-08-09T07:43:28.000Z</time>
</trkpt>
<trkpt lat="46.1637230" lon="10.4633580">
	<ele>2545.60</ele>
	<time>2023-08-09T07:43:29.000Z</time>
</trkpt>
<trkpt lat="46.1637210" lon="10.4633640">
	<ele>2545.40</ele>
	<time>2023-08-09T07:43:30.000Z</time>
</trkpt>
<trkpt lat="46.1637250" lon="10.4633690">
	<ele>2545.20</ele>
	<time>2023-08-09T07:43:31.000Z</time>
</trkpt>
<trkpt lat="46.1637270" lon="10.4633760">
	<ele>2545.00</ele>
	<time>2023-08-09T07:43:32.000Z</time>
</trkpt>
<trkpt lat="46.1637240" lon="10.4633830">
	<ele>2544.80</ele>
	<time>2023-08-09T07:43:33.000Z</time>
</trkpt>
<trkpt lat="46.1637220" lon="10.4633880">
	<ele>2544.60</ele>
	<time>2023-08-09T07:43:34.000Z</time>
</trkpt>
<trkpt lat="46.1637220" lon="10.4633900">
	<ele>2544.40</ele>
	<time>2023-08-09T07:43:35.000Z</time>
</trkpt>
<trkpt lat="46.1637270" lon="10.4633930">
	<ele>2544.40</ele>
	<time>2023-08-09T07:43:36.000Z</time>
</trkpt>
<trkpt lat="46.1637310" lon="10.4633960">
	<ele>2544.00</ele>
	<time>2023-08-09T07:43:37.000Z</time>
</trkpt>
<trkpt lat="46.1637340" lon="10.4633990">
	<ele>2543.80</ele>
	<time>2023-08-09T07:43:38.000Z</time>
</trkpt>
<trkpt lat="46.1637360" lon="10.4634040">
	<ele>2543.60</ele>
	<time>2023-08-09T07:43:39.000Z</time>
</trkpt>
<trkpt lat="46.1637360" lon="10.4634090">
	<ele>2543.60</ele>
	<time>2023-08-09T07:43:40.000Z</time>
</trkpt>
<trkpt lat="46.1637360" lon="10.4634130">
	<ele>2543.40</ele>
	<time>2023-08-09T07:43:41.000Z</time>
</trkpt>
<trkpt lat="46.1637370" lon="10.4634170">
	<ele>2543.40</ele>
	<time>2023-08-09T07:43:42.000Z</time>
</trkpt>
<trkpt lat="46.1637420" lon="10.4634170">
	<ele>2543.00</ele>
	<time>2023-08-09T07:43:43.000Z</time>
</trkpt>
<trkpt lat="46.1637470" lon="10.4634190">
	<ele>2542.60</ele>
	<time>2023-08-09T07:43:44.000Z</time>
</trkpt>
<trkpt lat="46.1637500" lon="10.4634230">
	<ele>2542.40</ele>
	<time>2023-08-09T07:43:45.000Z</time>
</trkpt>
<trkpt lat="46.1637520" lon="10.4634290">
	<ele>2542.20</ele>
	<time>2023-08-09T07:43:46.000Z</time>
</trkpt>
<trkpt lat="46.1637530" lon="10.4634330">
	<ele>2542.00</ele>
	<time>2023-08-09T07:43:47.000Z</time>
</trkpt>
<trkpt lat="46.1637570" lon="10.4634350">
	<ele>2541.80</ele>
	<time>2023-08-09T07:43:48.000Z</time>
</trkpt>
<trkpt lat="46.1637600" lon="10.4634390">
	<ele>2541.60</ele>
	<time>2023-08-09T07:43:49.000Z</time>
</trkpt>
<trkpt lat="46.1637620" lon="10.4634450">
	<ele>2541.20</ele>
	<time>2023-08-09T07:43:50.000Z</time>
</trkpt>
<trkpt lat="46.1637620" lon="10.4634520">
	<ele>2541.20</ele>
	<time>2023-08-09T07:43:51.000Z</time>
</trkpt>
<trkpt lat="46.1637640" lon="10.4634560">
	<ele>2541.00</ele>
	<time>2023-08-09T07:43:52.000Z</time>
</trkpt>
<trkpt lat="46.1637690" lon="10.4634590">
	<ele>2541.00</ele>
	<time>2023-08-09T07:43:53.000Z</time>
</trkpt>
<trkpt lat="46.1637750" lon="10.4634630">
	<ele>2540.80</ele>
	<time>2023-08-09T07:43:54.000Z</time>
</trkpt>
<trkpt lat="46.1637830" lon="10.4634640">
	<ele>2540.80</ele>
	<time>2023-08-09T07:43:55.000Z</time>
</trkpt>
<trkpt lat="46.1637920" lon="10.4634630">
	<ele>2540.60</ele>
	<time>2023-08-09T07:43:56.000Z</time>
</trkpt>
<trkpt lat="46.1638010" lon="10.4634630">
	<ele>2540.20</ele>
	<time>2023-08-09T07:43:57.000Z</time>
</trkpt>
<trkpt lat="46.1638120" lon="10.4634620">
	<ele>2540.00</ele>
	<time>2023-08-09T07:43:58.000Z</time>
</trkpt>
<trkpt lat="46.1638210" lon="10.4634580">
	<ele>2540.00</ele>
	<time>2023-08-09T07:43:59.000Z</time>
</trkpt>
<trkpt lat="46.1638290" lon="10.4634560">
	<ele>2539.80</ele>
	<time>2023-08-09T07:44:00.000Z</time>
</trkpt>
<trkpt lat="46.1638370" lon="10.4634510">
	<ele>2539.80</ele>
	<time>2023-08-09T07:44:01.000Z</time>
</trkpt>
<trkpt lat="46.1638480" lon="10.4634440">
	<ele>2539.60</ele>
	<time>2023-08-09T07:44:02.000Z</time>
</trkpt>
<trkpt lat="46.1638570" lon="10.4634430">
	<ele>2539.40</ele>
	<time>2023-08-09T07:44:03.000Z</time>
</trkpt>
<trkpt lat="46.1638670" lon="10.4634440">
	<ele>2539.20</ele>
	<time>2023-08-09T07:44:04.000Z</time>
</trkpt>
<trkpt lat="46.1638760" lon="10.4634460">
	<ele>2539.00</ele>
	<time>2023-08-09T07:44:05.000Z</time>
</trkpt>
<trkpt lat="46.1638870" lon="10.4634500">
	<ele>2539.00</ele>
	<time>2023-08-09T07:44:06.000Z</time>
</trkpt>
<trkpt lat="46.1639010" lon="10.4634530">
	<ele>2538.80</ele>
	<time>2023-08-09T07:44:07.000Z</time>
</trkpt>
<trkpt lat="46.1639130" lon="10.4634550">
	<ele>2538.80</ele>
	<time>2023-08-09T07:44:08.000Z</time>
</trkpt>
<trkpt lat="46.1639240" lon="10.4634570">
	<ele>2538.60</ele>
	<time>2023-08-09T07:44:09.000Z</time>
</trkpt>
<trkpt lat="46.1639340" lon="10.4634600">
	<ele>2538.40</ele>
	<time>2023-08-09T07:44:10.000Z</time>
</trkpt>
<trkpt lat="46.1639440" lon="10.4634610">
	<ele>2538.20</ele>
	<time>2023-08-09T07:44:11.000Z</time>
</trkpt>
<trkpt lat="46.1639560" lon="10.4634590">
	<ele>2538.00</ele>
	<time>2023-08-09T07:44:12.000Z</time>
</trkpt>
<trkpt lat="46.1639640" lon="10.4634590">
	<ele>2538.00</ele>
	<time>2023-08-09T07:44:13.000Z</time>
</trkpt>
<trkpt lat="46.1639730" lon="10.4634590">
	<ele>2537.80</ele>
	<time>2023-08-09T07:44:14.000Z</time>
</trkpt>
<trkpt lat="46.1639840" lon="10.4634610">
	<ele>2537.60</ele>
	<time>2023-08-09T07:44:15.000Z</time>
</trkpt>
<trkpt lat="46.1639980" lon="10.4634630">
	<ele>2537.60</ele>
	<time>2023-08-09T07:44:16.000Z</time>
</trkpt>
<trkpt lat="46.1640100" lon="10.4634660">
	<ele>2537.40</ele>
	<time>2023-08-09T07:44:17.000Z</time>
</trkpt>
<trkpt lat="46.1640230" lon="10.4634640">
	<ele>2537.20</ele>
	<time>2023-08-09T07:44:18.000Z</time>
</trkpt>
<trkpt lat="46.1640340" lon="10.4634610">
	<ele>2537.00</ele>
	<time>2023-08-09T07:44:19.000Z</time>
</trkpt>
<trkpt lat="46.1640460" lon="10.4634590">
	<ele>2536.80</ele>
	<time>2023-08-09T07:44:20.000Z</time>
</trkpt>
<trkpt lat="46.1640610" lon="10.4634540">
	<ele>2536.80</ele>
	<time>2023-08-09T07:44:21.000Z</time>
</trkpt>
<trkpt lat="46.1640740" lon="10.4634530">
	<ele>2536.60</ele>
	<time>2023-08-09T07:44:22.000Z</time>
</trkpt>
<trkpt lat="46.1640850" lon="10.4634510">
	<ele>2536.60</ele>
	<time>2023-08-09T07:44:23.000Z</time>
</trkpt>
<trkpt lat="46.1640960" lon="10.4634480">
	<ele>2536.60</ele>
	<time>2023-08-09T07:44:24.000Z</time>
</trkpt>
<trkpt lat="46.1641060" lon="10.4634470">
	<ele>2536.60</ele>
	<time>2023-08-09T07:44:25.000Z</time>
</trkpt>
<trkpt lat="46.1641180" lon="10.4634470">
	<ele>2536.60</ele>
	<time>2023-08-09T07:44:26.000Z</time>
</trkpt>
<trkpt lat="46.1641330" lon="10.4634460">
	<ele>2536.60</ele>
	<time>2023-08-09T07:44:27.000Z</time>
</trkpt>
<trkpt lat="46.1641430" lon="10.4634470">
	<ele>2536.80</ele>
	<time>2023-08-09T07:44:28.000Z</time>
</trkpt>
<trkpt lat="46.1641530" lon="10.4634510">
	<ele>2536.60</ele>
	<time>2023-08-09T07:44:29.000Z</time>
</trkpt>
<trkpt lat="46.1641630" lon="10.4634540">
	<ele>2536.80</ele>
	<time>2023-08-09T07:44:30.000Z</time>
</trkpt>
<trkpt lat="46.1641720" lon="10.4634560">
	<ele>2536.80</ele>
	<time>2023-08-09T07:44:31.000Z</time>
</trkpt>
<trkpt lat="46.1641820" lon="10.4634580">
	<ele>2536.80</ele>
	<time>2023-08-09T07:44:32.000Z</time>
</trkpt>
<trkpt lat="46.1641930" lon="10.4634610">
	<ele>2537.00</ele>
	<time>2023-08-09T07:44:33.000Z</time>
</trkpt>
<trkpt lat="46.1642010" lon="10.4634640">
	<ele>2537.00</ele>
	<time>2023-08-09T07:44:34.000Z</time>
</trkpt>
<trkpt lat="46.1642080" lon="10.4634650">
	<ele>2537.00</ele>
	<time>2023-08-09T07:44:35.000Z</time>
</trkpt>
<trkpt lat="46.1642150" lon="10.4634710">
	<ele>2537.20</ele>
	<time>2023-08-09T07:44:36.000Z</time>
</trkpt>
<trkpt lat="46.1642200" lon="10.4634770">
	<ele>2537.20</ele>
	<time>2023-08-09T07:44:37.000Z</time>
</trkpt>
<trkpt lat="46.1642260" lon="10.4634820">
	<ele>2537.00</ele>
	<time>2023-08-09T07:44:38.000Z</time>
</trkpt>
<trkpt lat="46.1642320" lon="10.4634870">
	<ele>2537.00</ele>
	<time>2023-08-09T07:44:39.000Z</time>
</trkpt>
<trkpt lat="46.1642360" lon="10.4634920">
	<ele>2536.80</ele>
	<time>2023-08-09T07:44:40.000Z</time>
</trkpt>
<trkpt lat="46.1642370" lon="10.4634970">
	<ele>2536.60</ele>
	<time>2023-08-09T07:44:41.000Z</time>
</trkpt>
<trkpt lat="46.1642430" lon="10.4634970">
	<ele>2536.40</ele>
	<time>2023-08-09T07:44:42.000Z</time>
</trkpt>
<trkpt lat="46.1642520" lon="10.4634980">
	<ele>2536.20</ele>
	<time>2023-08-09T07:44:43.000Z</time>
</trkpt>
<trkpt lat="46.1642600" lon="10.4635010">
	<ele>2536.20</ele>
	<time>2023-08-09T07:44:44.000Z</time>
</trkpt>
<trkpt lat="46.1642660" lon="10.4635050">
	<ele>2536.20</ele>
	<time>2023-08-09T07:44:45.000Z</time>
</trkpt>
<trkpt lat="46.1642720" lon="10.4635080">
	<ele>2536.00</ele>
	<time>2023-08-09T07:44:46.000Z</time>
</trkpt>
<trkpt lat="46.1642760" lon="10.4635110">
	<ele>2535.80</ele>
	<time>2023-08-09T07:44:47.000Z</time>
</trkpt>
<trkpt lat="46.1642790" lon="10.4635160">
	<ele>2535.40</ele>
	<time>2023-08-09T07:44:48.000Z</time>
</trkpt>
<trkpt lat="46.1642810" lon="10.4635200">
	<ele>2535.00</ele>
	<time>2023-08-09T07:44:49.000Z</time>
</trkpt>
<trkpt lat="46.1642860" lon="10.4635220">
	<ele>2534.80</ele>
	<time>2023-08-09T07:44:50.000Z</time>
</trkpt>
<trkpt lat="46.1642930" lon="10.4635250">
	<ele>2534.40</ele>
	<time>2023-08-09T07:44:51.000Z</time>
</trkpt>
<trkpt lat="46.1643000" lon="10.4635270">
	<ele>2534.20</ele>
	<time>2023-08-09T07:44:52.000Z</time>
</trkpt>
<trkpt lat="46.1643040" lon="10.4635290">
	<ele>2534.00</ele>
	<time>2023-08-09T07:44:53.000Z</time>
</trkpt>
<trkpt lat="46.1643100" lon="10.4635280">
	<ele>2533.80</ele>
	<time>2023-08-09T07:44:54.000Z</time>
</trkpt>
<trkpt lat="46.1643150" lon="10.4635300">
	<ele>2533.60</ele>
	<time>2023-08-09T07:44:55.000Z</time>
</trkpt>
<trkpt lat="46.1643190" lon="10.4635340">
	<ele>2533.60</ele>
	<time>2023-08-09T07:44:56.000Z</time>
</trkpt>
<trkpt lat="46.1643220" lon="10.4635340">
	<ele>2533.20</ele>
	<time>2023-08-09T07:44:57.000Z</time>
</trkpt>
<trkpt lat="46.1643240" lon="10.4635340">
	<ele>2533.00</ele>
	<time>2023-08-09T07:44:58.000Z</time>
</trkpt>
<trkpt lat="46.1643310" lon="10.4635270">
	<ele>2533.00</ele>
	<time>2023-08-09T07:44:59.000Z</time>
</trkpt>
<trkpt lat="46.1643390" lon="10.4635190">
	<ele>2533.00</ele>
	<time>2023-08-09T07:45:00.000Z</time>
</trkpt>
<trkpt lat="46.1643460" lon="10.4635130">
	<ele>2533.00</ele>
	<time>2023-08-09T07:45:01.000Z</time>
</trkpt>
<trkpt lat="46.1643540" lon="10.4635150">
	<ele>2532.80</ele>
	<time>2023-08-09T07:45:02.000Z</time>
</trkpt>
<trkpt lat="46.1643610" lon="10.4635200">
	<ele>2532.80</ele>
	<time>2023-08-09T07:45:03.000Z</time>
</trkpt>
<trkpt lat="46.1643660" lon="10.4635250">
	<ele>2532.60</ele>
	<time>2023-08-09T07:45:04.000Z</time>
</trkpt>
<trkpt lat="46.1643710" lon="10.4635310">
	<ele>2532.40</ele>
	<time>2023-08-09T07:45:05.000Z</time>
</trkpt>
<trkpt lat="46.1643760" lon="10.4635400">
	<ele>2532.20</ele>
	<time>2023-08-09T07:45:06.000Z</time>
</trkpt>
<trkpt lat="46.1643830" lon="10.4635470">
	<ele>2532.00</ele>
	<time>2023-08-09T07:45:07.000Z</time>
</trkpt>
<trkpt lat="46.1643900" lon="10.4635490">
	<ele>2531.80</ele>
	<time>2023-08-09T07:45:08.000Z</time>
</trkpt>
<trkpt lat="46.1643970" lon="10.4635480">
	<ele>2531.80</ele>
	<time>2023-08-09T07:45:09.000Z</time>
</trkpt>
<trkpt lat="46.1644030" lon="10.4635510">
	<ele>2531.60</ele>
	<time>2023-08-09T07:45:10.000Z</time>
</trkpt>
<trkpt lat="46.1644070" lon="10.4635510">
	<ele>2531.60</ele>
	<time>2023-08-09T07:45:11.000Z</time>
</trkpt>
<trkpt lat="46.1644120" lon="10.4635530">
	<ele>2531.40</ele>
	<time>2023-08-09T07:45:12.000Z</time>
</trkpt>
<trkpt lat="46.1644180" lon="10.4635560">
	<ele>2531.40</ele>
	<time>2023-08-09T07:45:13.000Z</time>
</trkpt>
<trkpt lat="46.1644210" lon="10.4635620">
	<ele>2531.20</ele>
	<time>2023-08-09T07:45:14.000Z</time>
</trkpt>
<trkpt lat="46.1644240" lon="10.4635650">
	<ele>2531.00</ele>
	<time>2023-08-09T07:45:15.000Z</time>
</trkpt>
<trkpt lat="46.1644280" lon="10.4635670">
	<ele>2530.80</ele>
	<time>2023-08-09T07:45:16.000Z</time>
</trkpt>
<trkpt lat="46.1644320" lon="10.4635710">
	<ele>2530.60</ele>
	<time>2023-08-09T07:45:17.000Z</time>
</trkpt>
<trkpt lat="46.1644360" lon="10.4635780">
	<ele>2530.20</ele>
	<time>2023-08-09T07:45:18.000Z</time>
</trkpt>
<trkpt lat="46.1644370" lon="10.4635850">
	<ele>2530.00</ele>
	<time>2023-08-09T07:45:19.000Z</time>
</trkpt>
<trkpt lat="46.1644370" lon="10.4635910">
	<ele>2529.80</ele>
	<time>2023-08-09T07:45:20.000Z</time>
</trkpt>
<trkpt lat="46.1644410" lon="10.4635970">
	<ele>2529.60</ele>
	<time>2023-08-09T07:45:21.000Z</time>
</trkpt>
<trkpt lat="46.1644430" lon="10.4636030">
	<ele>2529.40</ele>
	<time>2023-08-09T07:45:22.000Z</time>
</trkpt>
<trkpt lat="46.1644460" lon="10.4636060">
	<ele>2529.20</ele>
	<time>2023-08-09T07:45:23.000Z</time>
</trkpt>
<trkpt lat="46.1644470" lon="10.4636100">
	<ele>2529.00</ele>
	<time>2023-08-09T07:45:24.000Z</time>
</trkpt>
<trkpt lat="46.1644470" lon="10.4636180">
	<ele>2528.80</ele>
	<time>2023-08-09T07:45:25.000Z</time>
</trkpt>
<trkpt lat="46.1644490" lon="10.4636250">
	<ele>2528.60</ele>
	<time>2023-08-09T07:45:26.000Z</time>
</trkpt>
<trkpt lat="46.1644510" lon="10.4636350">
	<ele>2528.20</ele>
	<time>2023-08-09T07:45:27.000Z</time>
</trkpt>
<trkpt lat="46.1644550" lon="10.4636380">
	<ele>2528.00</ele>
	<time>2023-08-09T07:45:28.000Z</time>
</trkpt>
<trkpt lat="46.1644590" lon="10.4636400">
	<ele>2527.80</ele>
	<time>2023-08-09T07:45:29.000Z</time>
</trkpt>
<trkpt lat="46.1644640" lon="10.4636420">
	<ele>2527.60</ele>
	<time>2023-08-09T07:45:30.000Z</time>
</trkpt>
<trkpt lat="46.1644700" lon="10.4636360">
	<ele>2527.20</ele>
	<time>2023-08-09T07:45:31.000Z</time>
</trkpt>
<trkpt lat="46.1644770" lon="10.4636260">
	<ele>2526.80</ele>
	<time>2023-08-09T07:45:32.000Z</time>
</trkpt>
<trkpt lat="46.1644850" lon="10.4636180">
	<ele>2526.60</ele>
	<time>2023-08-09T07:45:33.000Z</time>
</trkpt>
<trkpt lat="46.1644930" lon="10.4636150">
	<ele>2526.40</ele>
	<time>2023-08-09T07:45:34.000Z</time>
</trkpt>
<trkpt lat="46.1645030" lon="10.4636160">
	<ele>2526.40</ele>
	<time>2023-08-09T07:45:35.000Z</time>
</trkpt>
<trkpt lat="46.1645130" lon="10.4636190">
	<ele>2526.20</ele>
	<time>2023-08-09T07:45:36.000Z</time>
</trkpt>
<trkpt lat="46.1645200" lon="10.4636210">
	<ele>2526.20</ele>
	<time>2023-08-09T07:45:37.000Z</time>
</trkpt>
<trkpt lat="46.1645260" lon="10.4636210">
	<ele>2526.00</ele>
	<time>2023-08-09T07:45:38.000Z</time>
</trkpt>
<trkpt lat="46.1645330" lon="10.4636210">
	<ele>2525.80</ele>
	<time>2023-08-09T07:45:39.000Z</time>
</trkpt>
<trkpt lat="46.1645400" lon="10.4636220">
	<ele>2525.60</ele>
	<time>2023-08-09T07:45:40.000Z</time>
</trkpt>
<trkpt lat="46.1645490" lon="10.4636240">
	<ele>2525.40</ele>
	<time>2023-08-09T07:45:41.000Z</time>
</trkpt>
<trkpt lat="46.1645590" lon="10.4636250">
	<ele>2525.20</ele>
	<time>2023-08-09T07:45:42.000Z</time>
</trkpt>
<trkpt lat="46.1645690" lon="10.4636260">
	<ele>2525.20</ele>
	<time>2023-08-09T07:45:43.000Z</time>
</trkpt>
<trkpt lat="46.1645810" lon="10.4636300">
	<ele>2525.00</ele>
	<time>2023-08-09T07:45:44.000Z</time>
</trkpt>
<trkpt lat="46.1645900" lon="10.4636280">
	<ele>2525.00</ele>
	<time>2023-08-09T07:45:45.000Z</time>
</trkpt>
<trkpt lat="46.1645980" lon="10.4636250">
	<ele>2525.00</ele>
	<time>2023-08-09T07:45:46.000Z</time>
</trkpt>
<trkpt lat="46.1646050" lon="10.4636180">
	<ele>2525.00</ele>
	<time>2023-08-09T07:45:47.000Z</time>
</trkpt>
<trkpt lat="46.1646120" lon="10.4636120">
	<ele>2525.00</ele>
	<time>2023-08-09T07:45:48.000Z</time>
</trkpt>
<trkpt lat="46.1646180" lon="10.4636090">
	<ele>2525.00</ele>
	<time>2023-08-09T07:45:49.000Z</time>
</trkpt>
<trkpt lat="46.1646240" lon="10.4636060">
	<ele>2525.00</ele>
	<time>2023-08-09T07:45:50.000Z</time>
</trkpt>
<trkpt lat="46.1646280" lon="10.4636040">
	<ele>2525.00</ele>
	<time>2023-08-09T07:45:51.000Z</time>
</trkpt>
<trkpt lat="46.1646340" lon="10.4636060">
	<ele>2525.00</ele>
	<time>2023-08-09T07:45:52.000Z</time>
</trkpt>
<trkpt lat="46.1646410" lon="10.4636120">
	<ele>2525.00</ele>
	<time>2023-08-09T07:45:53.000Z</time>
</trkpt>
<trkpt lat="46.1646490" lon="10.4636180">
	<ele>2525.00</ele>
	<time>2023-08-09T07:45:54.000Z</time>
</trkpt>
<trkpt lat="46.1646570" lon="10.4636230">
	<ele>2525.00</ele>
	<time>2023-08-09T07:45:55.000Z</time>
</trkpt>
<trkpt lat="46.1646630" lon="10.4636290">
	<ele>2525.00</ele>
	<time>2023-08-09T07:45:56.000Z</time>
</trkpt>
<trkpt lat="46.1646670" lon="10.4636360">
	<ele>2524.80</ele>
	<time>2023-08-09T07:45:57.000Z</time>
</trkpt>
<trkpt lat="46.1646720" lon="10.4636430">
	<ele>2524.60</ele>
	<time>2023-08-09T07:45:58.000Z</time>
</trkpt>
<trkpt lat="46.1646800" lon="10.4636460">
	<ele>2524.60</ele>
	<time>2023-08-09T07:45:59.000Z</time>
</trkpt>
<trkpt lat="46.1646910" lon="10.4636510">
	<ele>2524.20</ele>
	<time>2023-08-09T07:46:00.000Z</time>
</trkpt>
<trkpt lat="46.1647020" lon="10.4636540">
	<ele>2524.00</ele>
	<time>2023-08-09T07:46:01.000Z</time>
</trkpt>
<trkpt lat="46.1647140" lon="10.4636590">
	<ele>2523.80</ele>
	<time>2023-08-09T07:46:02.000Z</time>
</trkpt>
<trkpt lat="46.1647260" lon="10.4636640">
	<ele>2523.80</ele>
	<time>2023-08-09T07:46:03.000Z</time>
</trkpt>
<trkpt lat="46.1647370" lon="10.4636700">
	<ele>2523.60</ele>
	<time>2023-08-09T07:46:04.000Z</time>
</trkpt>
<trkpt lat="46.1647470" lon="10.4636720">
	<ele>2523.60</ele>
	<time>2023-08-09T07:46:05.000Z</time>
</trkpt>
<trkpt lat="46.1647570" lon="10.4636750">
	<ele>2523.40</ele>
	<time>2023-08-09T07:46:06.000Z</time>
</trkpt>
<trkpt lat="46.1647660" lon="10.4636770">
	<ele>2523.20</ele>
	<time>2023-08-09T07:46:07.000Z</time>
</trkpt>
<trkpt lat="46.1647730" lon="10.4636810">
	<ele>2523.20</ele>
	<time>2023-08-09T07:46:08.000Z</time>
</trkpt>
<trkpt lat="46.1647790" lon="10.4636850">
	<ele>2523.00</ele>
	<time>2023-08-09T07:46:09.000Z</time>
</trkpt>
<trkpt lat="46.1647830" lon="10.4636880">
	<ele>2522.80</ele>
	<time>2023-08-09T07:46:10.000Z</time>
</trkpt>
<trkpt lat="46.1647850" lon="10.4636910">
	<ele>2522.60</ele>
	<time>2023-08-09T07:46:11.000Z</time>
</trkpt>
<trkpt lat="46.1647900" lon="10.4636940">
	<ele>2522.60</ele>
	<time>2023-08-09T07:46:12.000Z</time>
</trkpt>
<trkpt lat="46.1647940" lon="10.4636980">
	<ele>2522.40</ele>
	<time>2023-08-09T07:46:13.000Z</time>
</trkpt>
<trkpt lat="46.1647970" lon="10.4637010">
	<ele>2522.20</ele>
	<time>2023-08-09T07:46:14.000Z</time>
</trkpt>
<trkpt lat="46.1648040" lon="10.4636980">
	<ele>2521.80</ele>
	<time>2023-08-09T07:46:15.000Z</time>
</trkpt>
<trkpt lat="46.1648100" lon="10.4636980">
	<ele>2521.60</ele>
	<time>2023-08-09T07:46:16.000Z</time>
</trkpt>
<trkpt lat="46.1648150" lon="10.4637010">
	<ele>2521.40</ele>
	<time>2023-08-09T07:46:17.000Z</time>
</trkpt>
<trkpt lat="46.1648190" lon="10.4637060">
	<ele>2521.20</ele>
	<time>2023-08-09T07:46:18.000Z</time>
</trkpt>
<trkpt lat="46.1648220" lon="10.4637100">
	<ele>2521.00</ele>
	<time>2023-08-09T07:46:19.000Z</time>
</trkpt>
<trkpt lat="46.1648280" lon="10.4637130">
	<ele>2520.60</ele>
	<time>2023-08-09T07:46:20.000Z</time>
</trkpt>
<trkpt lat="46.1648340" lon="10.4637170">
	<ele>2520.40</ele>
	<time>2023-08-09T07:46:21.000Z</time>
</trkpt>
<trkpt lat="46.1648400" lon="10.4637220">
	<ele>2520.20</ele>
	<time>2023-08-09T07:46:22.000Z</time>
</trkpt>
<trkpt lat="46.1648440" lon="10.4637280">
	<ele>2520.20</ele>
	<time>2023-08-09T07:46:23.000Z</time>
</trkpt>
<trkpt lat="46.1648500" lon="10.4637270">
	<ele>2520.00</ele>
	<time>2023-08-09T07:46:24.000Z</time>
</trkpt>
<trkpt lat="46.1648540" lon="10.4637250">
	<ele>2519.80</ele>
	<time>2023-08-09T07:46:25.000Z</time>
</trkpt>
<trkpt lat="46.1648610" lon="10.4637210">
	<ele>2519.80</ele>
	<time>2023-08-09T07:46:26.000Z</time>
</trkpt>
<trkpt lat="46.1648660" lon="10.4637210">
	<ele>2519.80</ele>
	<time>2023-08-09T07:46:27.000Z</time>
</trkpt>
<trkpt lat="46.1648680" lon="10.4637210">
	<ele>2519.60</ele>
	<time>2023-08-09T07:46:28.000Z</time>
</trkpt>
<trkpt lat="46.1648670" lon="10.4637210">
	<ele>2519.60</ele>
	<time>2023-08-09T07:46:29.000Z</time>
</trkpt>
<trkpt lat="46.1648730" lon="10.4637190">
	<ele>2519.20</ele>
	<time>2023-08-09T07:46:30.000Z</time>
</trkpt>
<trkpt lat="46.1648810" lon="10.4637220">
	<ele>2519.20</ele>
	<time>2023-08-09T07:46:31.000Z</time>
</trkpt>
<trkpt lat="46.1648880" lon="10.4637210">
	<ele>2519.20</ele>
	<time>2023-08-09T07:46:32.000Z</time>
</trkpt>
<trkpt lat="46.1648940" lon="10.4637220">
	<ele>2519.00</ele>
	<time>2023-08-09T07:46:33.000Z</time>
</trkpt>
<trkpt lat="46.1648990" lon="10.4637240">
	<ele>2518.80</ele>
	<time>2023-08-09T07:46:34.000Z</time>
</trkpt>
<trkpt lat="46.1649050" lon="10.4637240">
	<ele>2518.80</ele>
	<time>2023-08-09T07:46:35.000Z</time>
</trkpt>
<trkpt lat="46.1649140" lon="10.4637260">
	<ele>2518.60</ele>
	<time>2023-08-09T07:46:36.000Z</time>
</trkpt>
<trkpt lat="46.1649220" lon="10.4637290">
	<ele>2518.40</ele>
	<time>2023-08-09T07:46:37.000Z</time>
</trkpt>
<trkpt lat="46.1649300" lon="10.4637350">
	<ele>2518.20</ele>
	<time>2023-08-09T07:46:38.000Z</time>
</trkpt>
<trkpt lat="46.1649330" lon="10.4637450">
	<ele>2518.00</ele>
	<time>2023-08-09T07:46:39.000Z</time>
</trkpt>
<trkpt lat="46.1649360" lon="10.4637500">
	<ele>2517.80</ele>
	<time>2023-08-09T07:46:40.000Z</time>
</trkpt>
<trkpt lat="46.1649400" lon="10.4637540">
	<ele>2517.60</ele>
	<time>2023-08-09T07:46:41.000Z</time>
</trkpt>
<trkpt lat="46.1649440" lon="10.4637560">
	<ele>2517.40</ele>
	<time>2023-08-09T07:46:42.000Z</time>
</trkpt>
<trkpt lat="46.1649480" lon="10.4637650">
	<ele>2517.20</ele>
	<time>2023-08-09T07:46:43.000Z</time>
</trkpt>
<trkpt lat="46.1649480" lon="10.4637730">
	<ele>2516.80</ele>
	<time>2023-08-09T07:46:44.000Z</time>
</trkpt>
<trkpt lat="46.1649440" lon="10.4637760">
	<ele>2516.80</ele>
	<time>2023-08-09T07:46:45.000Z</time>
</trkpt>
<trkpt lat="46.1649420" lon="10.4637770">
	<ele>2516.60</ele>
	<time>2023-08-09T07:46:46.000Z</time>
</trkpt>
<trkpt lat="46.1649370" lon="10.4637780">
	<ele>2516.40</ele>
	<time>2023-08-09T07:46:47.000Z</time>
</trkpt>
<trkpt lat="46.1649370" lon="10.4637780">
	<ele>2516.20</ele>
	<time>2023-08-09T07:46:48.000Z</time>
</trkpt>
<trkpt lat="46.1649410" lon="10.4637810">
	<ele>2516.00</ele>
	<time>2023-08-09T07:46:49.000Z</time>
</trkpt>
<trkpt lat="46.1649460" lon="10.4637870">
	<ele>2515.80</ele>
	<time>2023-08-09T07:46:50.000Z</time>
</trkpt>
<trkpt lat="46.1649520" lon="10.4637940">
	<ele>2515.40</ele>
	<time>2023-08-09T07:46:51.000Z</time>
</trkpt>
<trkpt lat="46.1649560" lon="10.4638010">
	<ele>2515.20</ele>
	<time>2023-08-09T07:46:52.000Z</time>
</trkpt>
<trkpt lat="46.1649600" lon="10.4638070">
	<ele>2515.00</ele>
	<time>2023-08-09T07:46:53.000Z</time>
</trkpt>
<trkpt lat="46.1649660" lon="10.4638080">
	<ele>2514.80</ele>
	<time>2023-08-09T07:46:54.000Z</time>
</trkpt>
<trkpt lat="46.1649700" lon="10.4638090">
	<ele>2514.60</ele>
	<time>2023-08-09T07:46:55.000Z</time>
</trkpt>
<trkpt lat="46.1649820" lon="10.4638090">
	<ele>2514.60</ele>
	<time>2023-08-09T07:46:56.000Z</time>
</trkpt>
<trkpt lat="46.1649890" lon="10.4638100">
	<ele>2514.40</ele>
	<time>2023-08-09T07:46:57.000Z</time>
</trkpt>
<trkpt lat="46.1649990" lon="10.4638080">
	<ele>2514.20</ele>
	<time>2023-08-09T07:46:58.000Z</time>
</trkpt>
<trkpt lat="46.1650070" lon="10.4638070">
	<ele>2514.20</ele>
	<time>2023-08-09T07:46:59.000Z</time>
</trkpt>
<trkpt lat="46.1650140" lon="10.4638070">
	<ele>2514.00</ele>
	<time>2023-08-09T07:47:00.000Z</time>
</trkpt>
<trkpt lat="46.1650200" lon="10.4638050">
	<ele>2513.80</ele>
	<time>2023-08-09T07:47:01.000Z</time>
</trkpt>
<trkpt lat="46.1650230" lon="10.4638060">
	<ele>2513.80</ele>
	<time>2023-08-09T07:47:02.000Z</time>
</trkpt>
<trkpt lat="46.1650280" lon="10.4638050">
	<ele>2513.80</ele>
	<time>2023-08-09T07:47:03.000Z</time>
</trkpt>
<trkpt lat="46.1650350" lon="10.4638070">
	<ele>2513.80</ele>
	<time>2023-08-09T07:47:04.000Z</time>
</trkpt>
<trkpt lat="46.1650400" lon="10.4638090">
	<ele>2513.80</ele>
	<time>2023-08-09T07:47:05.000Z</time>
</trkpt>
<trkpt lat="46.1650430" lon="10.4638080">
	<ele>2513.80</ele>
	<time>2023-08-09T07:47:06.000Z</time>
</trkpt>
<trkpt lat="46.1650470" lon="10.4638080">
	<ele>2513.80</ele>
	<time>2023-08-09T07:47:07.000Z</time>
</trkpt>
<trkpt lat="46.1650530" lon="10.4638090">
	<ele>2513.80</ele>
	<time>2023-08-09T07:47:08.000Z</time>
</trkpt>
<trkpt lat="46.1650580" lon="10.4638080">
	<ele>2513.80</ele>
	<time>2023-08-09T07:47:09.000Z</time>
</trkpt>
<trkpt lat="46.1650620" lon="10.4638090">
	<ele>2513.80</ele>
	<time>2023-08-09T07:47:10.000Z</time>
</trkpt>
<trkpt lat="46.1650660" lon="10.4638120">
	<ele>2513.60</ele>
	<time>2023-08-09T07:47:11.000Z</time>
</trkpt>
<trkpt lat="46.1650690" lon="10.4638140">
	<ele>2513.60</ele>
	<time>2023-08-09T07:47:12.000Z</time>
</trkpt>
<trkpt lat="46.1650690" lon="10.4638160">
	<ele>2513.60</ele>
	<time>2023-08-09T07:47:13.000Z</time>
</trkpt>
<trkpt lat="46.1650680" lon="10.4638190">
	<ele>2513.40</ele>
	<time>2023-08-09T07:47:14.000Z</time>
</trkpt>
<trkpt lat="46.1650710" lon="10.4638230">
	<ele>2513.40</ele>
	<time>2023-08-09T07:47:15.000Z</time>
</trkpt>
<trkpt lat="46.1650750" lon="10.4638260">
	<ele>2513.20</ele>
	<time>2023-08-09T07:47:16.000Z</time>
</trkpt>
<trkpt lat="46.1650820" lon="10.4638310">
	<ele>2513.00</ele>
	<time>2023-08-09T07:47:17.000Z</time>
</trkpt>
<trkpt lat="46.1650880" lon="10.4638390">
	<ele>2513.00</ele>
	<time>2023-08-09T07:47:18.000Z</time>
</trkpt>
<trkpt lat="46.1650950" lon="10.4638480">
	<ele>2513.00</ele>
	<time>2023-08-09T07:47:19.000Z</time>
</trkpt>
<trkpt lat="46.1651000" lon="10.4638600">
	<ele>2513.00</ele>
	<time>2023-08-09T07:47:20.000Z</time>
</trkpt>
<trkpt lat="46.1651050" lon="10.4638690">
	<ele>2513.00</ele>
	<time>2023-08-09T07:47:21.000Z</time>
</trkpt>
<trkpt lat="46.1651130" lon="10.4638780">
	<ele>2512.80</ele>
	<time>2023-08-09T07:47:22.000Z</time>
</trkpt>
<trkpt lat="46.1651230" lon="10.4638850">
	<ele>2512.80</ele>
	<time>2023-08-09T07:47:23.000Z</time>
</trkpt>
<trkpt lat="46.1651310" lon="10.4638920">
	<ele>2512.80</ele>
	<time>2023-08-09T07:47:24.000Z</time>
</trkpt>
<trkpt lat="46.1651430" lon="10.4638980">
	<ele>2512.80</ele>
	<time>2023-08-09T07:47:25.000Z</time>
</trkpt>
<trkpt lat="46.1651520" lon="10.4639020">
	<ele>2512.80</ele>
	<time>2023-08-09T07:47:26.000Z</time>
</trkpt>
<trkpt lat="46.1651570" lon="10.4639050">
	<ele>2512.60</ele>
	<time>2023-08-09T07:47:27.000Z</time>
</trkpt>
<trkpt lat="46.1651620" lon="10.4639060">
	<ele>2512.60</ele>
	<time>2023-08-09T07:47:28.000Z</time>
</trkpt>
<trkpt lat="46.1651700" lon="10.4639080">
	<ele>2512.60</ele>
	<time>2023-08-09T07:47:29.000Z</time>
</trkpt>
<trkpt lat="46.1651770" lon="10.4639160">
	<ele>2512.40</ele>
	<time>2023-08-09T07:47:30.000Z</time>
</trkpt>
<trkpt lat="46.1651870" lon="10.4639210">
	<ele>2512.40</ele>
	<time>2023-08-09T07:47:31.000Z</time>
</trkpt>
<trkpt lat="46.1651980" lon="10.4639240">
	<ele>2512.20</ele>
	<time>2023-08-09T07:47:32.000Z</time>
</trkpt>
<trkpt lat="46.1652080" lon="10.4639270">
	<ele>2512.20</ele>
	<time>2023-08-09T07:47:33.000Z</time>
</trkpt>
<trkpt lat="46.1652200" lon="10.4639340">
	<ele>2512.00</ele>
	<time>2023-08-09T07:47:34.000Z</time>
</trkpt>
<trkpt lat="46.1652330" lon="10.4639420">
	<ele>2511.80</ele>
	<time>2023-08-09T07:47:35.000Z</time>
</trkpt>
<trkpt lat="46.1652420" lon="10.4639520">
	<ele>2511.60</ele>
	<time>2023-08-09T07:47:36.000Z</time>
</trkpt>
<trkpt lat="46.1652500" lon="10.4639580">
	<ele>2511.60</ele>
	<time>2023-08-09T07:47:37.000Z</time>
</trkpt>
<trkpt lat="46.1652560" lon="10.4639640">
	<ele>2511.40</ele>
	<time>2023-08-09T07:47:38.000Z</time>
</trkpt>
<trkpt lat="46.1652640" lon="10.4639710">
	<ele>2511.20</ele>
	<time>2023-08-09T07:47:39.000Z</time>
</trkpt>
<trkpt lat="46.1652690" lon="10.4639770">
	<ele>2511.00</ele>
	<time>2023-08-09T07:47:40.000Z</time>
</trkpt>
<trkpt lat="46.1652760" lon="10.4639780">
	<ele>2510.80</ele>
	<time>2023-08-09T07:47:41.000Z</time>
</trkpt>
<trkpt lat="46.1652830" lon="10.4639830">
	<ele>2510.80</ele>
	<time>2023-08-09T07:47:42.000Z</time>
</trkpt>
<trkpt lat="46.1652910" lon="10.4639900">
	<ele>2510.60</ele>
	<time>2023-08-09T07:47:43.000Z</time>
</trkpt>
<trkpt lat="46.1652980" lon="10.4639970">
	<ele>2510.60</ele>
	<time>2023-08-09T07:47:44.000Z</time>
</trkpt>
<trkpt lat="46.1653030" lon="10.4640050">
	<ele>2510.40</ele>
	<time>2023-08-09T07:47:45.000Z</time>
</trkpt>
<trkpt lat="46.1653100" lon="10.4640120">
	<ele>2510.20</ele>
	<time>2023-08-09T07:47:46.000Z</time>
</trkpt>
<trkpt lat="46.1653160" lon="10.4640190">
	<ele>2510.00</ele>
	<time>2023-08-09T07:47:47.000Z</time>
</trkpt>
<trkpt lat="46.1653200" lon="10.4640270">
	<ele>2509.80</ele>
	<time>2023-08-09T07:47:48.000Z</time>
</trkpt>
<trkpt lat="46.1653250" lon="10.4640310">
	<ele>2509.60</ele>
	<time>2023-08-09T07:47:49.000Z</time>
</trkpt>
<trkpt lat="46.1653290" lon="10.4640370">
	<ele>2509.40</ele>
	<time>2023-08-09T07:47:50.000Z</time>
</trkpt>
<trkpt lat="46.1653360" lon="10.4640430">
	<ele>2509.20</ele>
	<time>2023-08-09T07:47:51.000Z</time>
</trkpt>
<trkpt lat="46.1653440" lon="10.4640470">
	<ele>2509.00</ele>
	<time>2023-08-09T07:47:52.000Z</time>
</trkpt>
<trkpt lat="46.1653500" lon="10.4640530">
	<ele>2509.00</ele>
	<time>2023-08-09T07:47:53.000Z</time>
</trkpt>
<trkpt lat="46.1653550" lon="10.4640580">
	<ele>2508.80</ele>
	<time>2023-08-09T07:47:54.000Z</time>
</trkpt>
<trkpt lat="46.1653600" lon="10.4640610">
	<ele>2508.60</ele>
	<time>2023-08-09T07:47:55.000Z</time>
</trkpt>
<trkpt lat="46.1653670" lon="10.4640660">
	<ele>2508.60</ele>
	<time>2023-08-09T07:47:56.000Z</time>
</trkpt>
<trkpt lat="46.1653730" lon="10.4640710">
	<ele>2508.40</ele>
	<time>2023-08-09T07:47:57.000Z</time>
</trkpt>
<trkpt lat="46.1653790" lon="10.4640770">
	<ele>2508.40</ele>
	<time>2023-08-09T07:47:58.000Z</time>
</trkpt>
<trkpt lat="46.1653890" lon="10.4640820">
	<ele>2508.20</ele>
	<time>2023-08-09T07:47:59.000Z</time>
</trkpt>
<trkpt lat="46.1653990" lon="10.4640870">
	<ele>2508.20</ele>
	<time>2023-08-09T07:48:00.000Z</time>
</trkpt>
<trkpt lat="46.1654050" lon="10.4640900">
	<ele>2508.00</ele>
	<time>2023-08-09T07:48:01.000Z</time>
</trkpt>
<trkpt lat="46.1654080" lon="10.4640940">
	<ele>2507.60</ele>
	<time>2023-08-09T07:48:02.000Z</time>
</trkpt>
<trkpt lat="46.1654150" lon="10.4640980">
	<ele>2507.40</ele>
	<time>2023-08-09T07:48:03.000Z</time>
</trkpt>
<trkpt lat="46.1654190" lon="10.4641030">
	<ele>2507.20</ele>
	<time>2023-08-09T07:48:04.000Z</time>
</trkpt>
<trkpt lat="46.1654220" lon="10.4641090">
	<ele>2507.00</ele>
	<time>2023-08-09T07:48:05.000Z</time>
</trkpt>
<trkpt lat="46.1654250" lon="10.4641160">
	<ele>2506.80</ele>
	<time>2023-08-09T07:48:06.000Z</time>
</trkpt>
<trkpt lat="46.1654320" lon="10.4641200">
	<ele>2506.60</ele>
	<time>2023-08-09T07:48:07.000Z</time>
</trkpt>
<trkpt lat="46.1654370" lon="10.4641260">
	<ele>2506.40</ele>
	<time>2023-08-09T07:48:08.000Z</time>
</trkpt>
<trkpt lat="46.1654450" lon="10.4641310">
	<ele>2506.20</ele>
	<time>2023-08-09T07:48:09.000Z</time>
</trkpt>
<trkpt lat="46.1654490" lon="10.4641370">
	<ele>2506.00</ele>
	<time>2023-08-09T07:48:10.000Z</time>
</trkpt>
<trkpt lat="46.1654530" lon="10.4641430">
	<ele>2505.80</ele>
	<time>2023-08-09T07:48:11.000Z</time>
</trkpt>
<trkpt lat="46.1654580" lon="10.4641480">
	<ele>2505.60</ele>
	<time>2023-08-09T07:48:12.000Z</time>
</trkpt>
<trkpt lat="46.1654670" lon="10.4641520">
	<ele>2505.40</ele>
	<time>2023-08-09T07:48:13.000Z</time>
</trkpt>
<trkpt lat="46.1654770" lon="10.4641580">
	<ele>2505.20</ele>
	<time>2023-08-09T07:48:14.000Z</time>
</trkpt>
<trkpt lat="46.1654870" lon="10.4641650">
	<ele>2505.00</ele>
	<time>2023-08-09T07:48:15.000Z</time>
</trkpt>
<trkpt lat="46.1654950" lon="10.4641740">
	<ele>2505.00</ele>
	<time>2023-08-09T07:48:16.000Z</time>
</trkpt>
<trkpt lat="46.1655020" lon="10.4641820">
	<ele>2505.00</ele>
	<time>2023-08-09T07:48:17.000Z</time>
</trkpt>
<trkpt lat="46.1655070" lon="10.4641890">
	<ele>2504.80</ele>
	<time>2023-08-09T07:48:18.000Z</time>
</trkpt>
<trkpt lat="46.1655140" lon="10.4641940">
	<ele>2504.80</ele>
	<time>2023-08-09T07:48:19.000Z</time>
</trkpt>
<trkpt lat="46.1655190" lon="10.4642010">
	<ele>2504.60</ele>
	<time>2023-08-09T07:48:20.000Z</time>
</trkpt>
<trkpt lat="46.1655220" lon="10.4642060">
	<ele>2504.60</ele>
	<time>2023-08-09T07:48:21.000Z</time>
</trkpt>
<trkpt lat="46.1655260" lon="10.4642100">
	<ele>2504.60</ele>
	<time>2023-08-09T07:48:22.000Z</time>
</trkpt>
<trkpt lat="46.1655290" lon="10.4642150">
	<ele>2504.60</ele>
	<time>2023-08-09T07:48:23.000Z</time>
</trkpt>
<trkpt lat="46.1655350" lon="10.4642190">
	<ele>2504.40</ele>
	<time>2023-08-09T07:48:24.000Z</time>
</trkpt>
<trkpt lat="46.1655400" lon="10.4642240">
	<ele>2504.40</ele>
	<time>2023-08-09T07:48:25.000Z</time>
</trkpt>
<trkpt lat="46.1655430" lon="10.4642320">
	<ele>2504.40</ele>
	<time>2023-08-09T07:48:26.000Z</time>
</trkpt>
<trkpt lat="46.1655490" lon="10.4642390">
	<ele>2504.20</ele>
	<time>2023-08-09T07:48:27.000Z</time>
</trkpt>
<trkpt lat="46.1655520" lon="10.4642500">
	<ele>2504.00</ele>
	<time>2023-08-09T07:48:28.000Z</time>
</trkpt>
<trkpt lat="46.1655570" lon="10.4642580">
	<ele>2504.00</ele>
	<time>2023-08-09T07:48:29.000Z</time>
</trkpt>
<trkpt lat="46.1655620" lon="10.4642620">
	<ele>2504.00</ele>
	<time>2023-08-09T07:48:30.000Z</time>
</trkpt>
<trkpt lat="46.1655660" lon="10.4642660">
	<ele>2503.80</ele>
	<time>2023-08-09T07:48:31.000Z</time>
</trkpt>
<trkpt lat="46.1655720" lon="10.4642720">
	<ele>2503.60</ele>
	<time>2023-08-09T07:48:32.000Z</time>
</trkpt>
<trkpt lat="46.1655800" lon="10.4642770">
	<ele>2503.60</ele>
	<time>2023-08-09T07:48:33.000Z</time>
</trkpt>
<trkpt lat="46.1655860" lon="10.4642820">
	<ele>2503.40</ele>
	<time>2023-08-09T07:48:34.000Z</time>
</trkpt>
<trkpt lat="46.1655940" lon="10.4642870">
	<ele>2503.40</ele>
	<time>2023-08-09T07:48:35.000Z</time>
</trkpt>
<trkpt lat="46.1656040" lon="10.4642890">
	<ele>2503.40</ele>
	<time>2023-08-09T07:48:36.000Z</time>
</trkpt>
<trkpt lat="46.1656150" lon="10.4642910">
	<ele>2503.20</ele>
	<time>2023-08-09T07:48:37.000Z</time>
</trkpt>
<trkpt lat="46.1656280" lon="10.4642950">
	<ele>2503.00</ele>
	<time>2023-08-09T07:48:38.000Z</time>
</trkpt>
<trkpt lat="46.1656340" lon="10.4642990">
	<ele>2503.00</ele>
	<time>2023-08-09T07:48:39.000Z</time>
</trkpt>
<trkpt lat="46.1656400" lon="10.4643020">
	<ele>2503.00</ele>
	<time>2023-08-09T07:48:40.000Z</time>
</trkpt>
<trkpt lat="46.1656470" lon="10.4643040">
	<ele>2503.00</ele>
	<time>2023-08-09T07:48:41.000Z</time>
</trkpt>
<trkpt lat="46.1656550" lon="10.4643100">
	<ele>2503.00</ele>
	<time>2023-08-09T07:48:42.000Z</time>
</trkpt>
<trkpt lat="46.1656610" lon="10.4643140">
	<ele>2503.00</ele>
	<time>2023-08-09T07:48:43.000Z</time>
</trkpt>
<trkpt lat="46.1656700" lon="10.4643190">
	<ele>2503.00</ele>
	<time>2023-08-09T07:48:44.000Z</time>
</trkpt>
<trkpt lat="46.1656780" lon="10.4643270">
	<ele>2503.00</ele>
	<time>2023-08-09T07:48:45.000Z</time>
</trkpt>
<trkpt lat="46.1656840" lon="10.4643350">
	<ele>2503.00</ele>
	<time>2023-08-09T07:48:46.000Z</time>
</trkpt>
<trkpt lat="46.1656880" lon="10.4643440">
	<ele>2503.00</ele>
	<time>2023-08-09T07:48:47.000Z</time>
</trkpt>
<trkpt lat="46.1656920" lon="10.4643530">
	<ele>2503.00</ele>
	<time>2023-08-09T07:48:48.000Z</time>
</trkpt>
<trkpt lat="46.1656970" lon="10.4643620">
	<ele>2502.80</ele>
	<time>2023-08-09T07:48:49.000Z</time>
</trkpt>
<trkpt lat="46.1657020" lon="10.4643660">
	<ele>2502.80</ele>
	<time>2023-08-09T07:48:50.000Z</time>
</trkpt>
<trkpt lat="46.1657110" lon="10.4643690">
	<ele>2502.80</ele>
	<time>2023-08-09T07:48:51.000Z</time>
</trkpt>
<trkpt lat="46.1657180" lon="10.4643740">
	<ele>2502.60</ele>
	<time>2023-08-09T07:48:52.000Z</time>
</trkpt>
<trkpt lat="46.1657240" lon="10.4643800">
	<ele>2502.20</ele>
	<time>2023-08-09T07:48:53.000Z</time>
</trkpt>
<trkpt lat="46.1657280" lon="10.4643860">
	<ele>2502.00</ele>
	<time>2023-08-09T07:48:54.000Z</time>
</trkpt>
<trkpt lat="46.1657330" lon="10.4643930">
	<ele>2501.80</ele>
	<time>2023-08-09T07:48:55.000Z</time>
</trkpt>
<trkpt lat="46.1657380" lon="10.4644020">
	<ele>2501.40</ele>
	<time>2023-08-09T07:48:56.000Z</time>
</trkpt>
<trkpt lat="46.1657430" lon="10.4644090">
	<ele>2501.40</ele>
	<time>2023-08-09T07:48:57.000Z</time>
</trkpt>
<trkpt lat="46.1657520" lon="10.4644150">
	<ele>2501.20</ele>
	<time>2023-08-09T07:48:58.000Z</time>
</trkpt>
<trkpt lat="46.1657570" lon="10.4644190">
	<ele>2501.00</ele>
	<time>2023-08-09T07:48:59.000Z</time>
</trkpt>
<trkpt lat="46.1657660" lon="10.4644230">
	<ele>2500.80</ele>
	<time>2023-08-09T07:49:00.000Z</time>
</trkpt>
<trkpt lat="46.1657760" lon="10.4644270">
	<ele>2500.80</ele>
	<time>2023-08-09T07:49:01.000Z</time>
</trkpt>
<trkpt lat="46.1657860" lon="10.4644310">
	<ele>2500.60</ele>
	<time>2023-08-09T07:49:02.000Z</time>
</trkpt>
<trkpt lat="46.1657940" lon="10.4644360">
	<ele>2500.60</ele>
	<time>2023-08-09T07:49:03.000Z</time>
</trkpt>
<trkpt lat="46.1657960" lon="10.4644430">
	<ele>2500.40</ele>
	<time>2023-08-09T07:49:04.000Z</time>
</trkpt>
<trkpt lat="46.1658030" lon="10.4644480">
	<ele>2500.00</ele>
	<time>2023-08-09T07:49:05.000Z</time>
</trkpt>
<trkpt lat="46.1658100" lon="10.4644550">
	<ele>2500.00</ele>
	<time>2023-08-09T07:49:06.000Z</time>
</trkpt>
<trkpt lat="46.1658150" lon="10.4644600">
	<ele>2499.80</ele>
	<time>2023-08-09T07:49:07.000Z</time>
</trkpt>
<trkpt lat="46.1658210" lon="10.4644660">
	<ele>2499.80</ele>
	<time>2023-08-09T07:49:08.000Z</time>
</trkpt>
<trkpt lat="46.1658280" lon="10.4644720">
	<ele>2499.60</ele>
	<time>2023-08-09T07:49:09.000Z</time>
</trkpt>
<trkpt lat="46.1658350" lon="10.4644810">
	<ele>2499.60</ele>
	<time>2023-08-09T07:49:10.000Z</time>
</trkpt>
<trkpt lat="46.1658400" lon="10.4644870">
	<ele>2499.40</ele>
	<time>2023-08-09T07:49:11.000Z</time>
</trkpt>
<trkpt lat="46.1658430" lon="10.4644940">
	<ele>2499.40</ele>
	<time>2023-08-09T07:49:12.000Z</time>
</trkpt>
<trkpt lat="46.1658500" lon="10.4645020">
	<ele>2499.40</ele>
	<time>2023-08-09T07:49:13.000Z</time>
</trkpt>
<trkpt lat="46.1658560" lon="10.4645110">
	<ele>2499.00</ele>
	<time>2023-08-09T07:49:14.000Z</time>
</trkpt>
<trkpt lat="46.1658620" lon="10.4645160">
	<ele>2499.00</ele>
	<time>2023-08-09T07:49:15.000Z</time>
</trkpt>
<trkpt lat="46.1658710" lon="10.4645210">
	<ele>2498.80</ele>
	<time>2023-08-09T07:49:16.000Z</time>
</trkpt>
<trkpt lat="46.1658770" lon="10.4645250">
	<ele>2498.60</ele>
	<time>2023-08-09T07:49:17.000Z</time>
</trkpt>
<trkpt lat="46.1658830" lon="10.4645330">
	<ele>2498.60</ele>
	<time>2023-08-09T07:49:18.000Z</time>
</trkpt>
<trkpt lat="46.1658910" lon="10.4645390">
	<ele>2498.60</ele>
	<time>2023-08-09T07:49:19.000Z</time>
</trkpt>
<trkpt lat="46.1658990" lon="10.4645450">
	<ele>2498.60</ele>
	<time>2023-08-09T07:49:20.000Z</time>
</trkpt>
<trkpt lat="46.1659050" lon="10.4645540">
	<ele>2498.60</ele>
	<time>2023-08-09T07:49:21.000Z</time>
</trkpt>
<trkpt lat="46.1659090" lon="10.4645660">
	<ele>2498.60</ele>
	<time>2023-08-09T07:49:22.000Z</time>
</trkpt>
<trkpt lat="46.1659100" lon="10.4645780">
	<ele>2498.60</ele>
	<time>2023-08-09T07:49:23.000Z</time>
</trkpt>
<trkpt lat="46.1659150" lon="10.4645890">
	<ele>2498.60</ele>
	<time>2023-08-09T07:49:24.000Z</time>
</trkpt>
<trkpt lat="46.1659200" lon="10.4646030">
	<ele>2498.60</ele>
	<time>2023-08-09T07:49:25.000Z</time>
</trkpt>
<trkpt lat="46.1659240" lon="10.4646150">
	<ele>2498.40</ele>
	<time>2023-08-09T07:49:26.000Z</time>
</trkpt>
<trkpt lat="46.1659250" lon="10.4646290">
	<ele>2498.40</ele>
	<time>2023-08-09T07:49:27.000Z</time>
</trkpt>
<trkpt lat="46.1659270" lon="10.4646390">
	<ele>2498.20</ele>
	<time>2023-08-09T07:49:28.000Z</time>
</trkpt>
<trkpt lat="46.1659290" lon="10.4646420">
	<ele>2498.00</ele>
	<time>2023-08-09T07:49:29.000Z</time>
</trkpt>
<trkpt lat="46.1659340" lon="10.4646500">
	<ele>2497.80</ele>
	<time>2023-08-09T07:49:30.000Z</time>
</trkpt>
<trkpt lat="46.1659400" lon="10.4646590">
	<ele>2497.60</ele>
	<time>2023-08-09T07:49:31.000Z</time>
</trkpt>
<trkpt lat="46.1659440" lon="10.4646690">
	<ele>2497.60</ele>
	<time>2023-08-09T07:49:32.000Z</time>
</trkpt>
<trkpt lat="46.1659490" lon="10.4646780">
	<ele>2497.60</ele>
	<time>2023-08-09T07:49:33.000Z</time>
</trkpt>
<trkpt lat="46.1659540" lon="10.4646890">
	<ele>2497.40</ele>
	<time>2023-08-09T07:49:34.000Z</time>
</trkpt>
<trkpt lat="46.1659600" lon="10.4646970">
	<ele>2497.40</ele>
	<time>2023-08-09T07:49:35.000Z</time>
</trkpt>
<trkpt lat="46.1659710" lon="10.4647000">
	<ele>2497.20</ele>
	<time>2023-08-09T07:49:36.000Z</time>
</trkpt>
<trkpt lat="46.1659830" lon="10.4647000">
	<ele>2497.00</ele>
	<time>2023-08-09T07:49:37.000Z</time>
</trkpt>
<trkpt lat="46.1659910" lon="10.4647040">
	<ele>2497.00</ele>
	<time>2023-08-09T07:49:38.000Z</time>
</trkpt>
<trkpt lat="46.1659960" lon="10.4647110">
	<ele>2497.00</ele>
	<time>2023-08-09T07:49:39.000Z</time>
</trkpt>
<trkpt lat="46.1660160" lon="10.4647150">
	<ele>2497.00</ele>
	<time>2023-08-09T07:49:40.000Z</time>
</trkpt>
<trkpt lat="46.1660250" lon="10.4647240">
	<ele>2496.80</ele>
	<time>2023-08-09T07:49:41.000Z</time>
</trkpt>
<trkpt lat="46.1660320" lon="10.4647330">
	<ele>2496.60</ele>
	<time>2023-08-09T07:49:42.000Z</time>
</trkpt>
<trkpt lat="46.1660360" lon="10.4647410">
	<ele>2496.60</ele>
	<time>2023-08-09T07:49:43.000Z</time>
</trkpt>
<trkpt lat="46.1660370" lon="10.4647490">
	<ele>2496.20</ele>
	<time>2023-08-09T07:49:44.000Z</time>
</trkpt>
<trkpt lat="46.1660380" lon="10.4647530">
	<ele>2496.00</ele>
	<time>2023-08-09T07:49:45.000Z</time>
</trkpt>
<trkpt lat="46.1660400" lon="10.4647520">
	<ele>2495.80</ele>
	<time>2023-08-09T07:49:46.000Z</time>
</trkpt>
<trkpt lat="46.1660450" lon="10.4647530">
	<ele>2495.60</ele>
	<time>2023-08-09T07:49:47.000Z</time>
</trkpt>
<trkpt lat="46.1660510" lon="10.4647560">
	<ele>2495.40</ele>
	<time>2023-08-09T07:49:48.000Z</time>
</trkpt>
<trkpt lat="46.1660540" lon="10.4647570">
	<ele>2495.20</ele>
	<time>2023-08-09T07:49:49.000Z</time>
</trkpt>
<trkpt lat="46.1660600" lon="10.4647600">
	<ele>2495.00</ele>
	<time>2023-08-09T07:49:50.000Z</time>
</trkpt>
<trkpt lat="46.1660680" lon="10.4647620">
	<ele>2494.80</ele>
	<time>2023-08-09T07:49:51.000Z</time>
</trkpt>
<trkpt lat="46.1660750" lon="10.4647650">
	<ele>2494.80</ele>
	<time>2023-08-09T07:49:52.000Z</time>
</trkpt>
<trkpt lat="46.1660770" lon="10.4647690">
	<ele>2494.60</ele>
	<time>2023-08-09T07:49:53.000Z</time>
</trkpt>
<trkpt lat="46.1660800" lon="10.4647740">
	<ele>2494.40</ele>
	<time>2023-08-09T07:49:54.000Z</time>
</trkpt>
<trkpt lat="46.1660840" lon="10.4647760">
	<ele>2494.20</ele>
	<time>2023-08-09T07:49:55.000Z</time>
</trkpt>
<trkpt lat="46.1660960" lon="10.4647780">
	<ele>2494.20</ele>
	<time>2023-08-09T07:49:56.000Z</time>
</trkpt>
<trkpt lat="46.1660990" lon="10.4647820">
	<ele>2494.00</ele>
	<time>2023-08-09T07:49:57.000Z</time>
</trkpt>
<trkpt lat="46.1661030" lon="10.4647840">
	<ele>2493.60</ele>
	<time>2023-08-09T07:49:58.000Z</time>
</trkpt>
<trkpt lat="46.1661110" lon="10.4647850">
	<ele>2493.60</ele>
	<time>2023-08-09T07:49:59.000Z</time>
</trkpt>
<trkpt lat="46.1661150" lon="10.4647880">
	<ele>2493.40</ele>
	<time>2023-08-09T07:50:00.000Z</time>
</trkpt>
<trkpt lat="46.1661170" lon="10.4647910">
	<ele>2493.20</ele>
	<time>2023-08-09T07:50:01.000Z</time>
</trkpt>
<trkpt lat="46.1661200" lon="10.4647940">
	<ele>2493.20</ele>
	<time>2023-08-09T07:50:02.000Z</time>
</trkpt>
<trkpt lat="46.1661230" lon="10.4647960">
	<ele>2493.00</ele>
	<time>2023-08-09T07:50:03.000Z</time>
</trkpt>
<trkpt lat="46.1661260" lon="10.4648000">
	<ele>2493.00</ele>
	<time>2023-08-09T07:50:04.000Z</time>
</trkpt>
<trkpt lat="46.1661300" lon="10.4647990">
	<ele>2492.60</ele>
	<time>2023-08-09T07:50:05.000Z</time>
</trkpt>
<trkpt lat="46.1661300" lon="10.4647960">
	<ele>2492.40</ele>
	<time>2023-08-09T07:50:06.000Z</time>
</trkpt>
<trkpt lat="46.1661350" lon="10.4647940">
	<ele>2492.20</ele>
	<time>2023-08-09T07:50:07.000Z</time>
</trkpt>
<trkpt lat="46.1661390" lon="10.4647950">
	<ele>2492.00</ele>
	<time>2023-08-09T07:50:08.000Z</time>
</trkpt>
<trkpt lat="46.1661440" lon="10.4647980">
	<ele>2491.80</ele>
	<time>2023-08-09T07:50:09.000Z</time>
</trkpt>
<trkpt lat="46.1661480" lon="10.4648020">
	<ele>2491.80</ele>
	<time>2023-08-09T07:50:10.000Z</time>
</trkpt>
<trkpt lat="46.1661510" lon="10.4648070">
	<ele>2491.60</ele>
	<time>2023-08-09T07:50:11.000Z</time>
</trkpt>
<trkpt lat="46.1661540" lon="10.4648110">
	<ele>2491.40</ele>
	<time>2023-08-09T07:50:12.000Z</time>
</trkpt>
<trkpt lat="46.1661570" lon="10.4648130">
	<ele>2491.20</ele>
	<time>2023-08-09T07:50:13.000Z</time>
</trkpt>
<trkpt lat="46.1661620" lon="10.4648150">
	<ele>2491.20</ele>
	<time>2023-08-09T07:50:14.000Z</time>
</trkpt>
<trkpt lat="46.1661650" lon="10.4648110">
	<ele>2491.00</ele>
	<time>2023-08-09T07:50:15.000Z</time>
</trkpt>
<trkpt lat="46.1661720" lon="10.4648080">
	<ele>2491.00</ele>
	<time>2023-08-09T07:50:16.000Z</time>
</trkpt>
<trkpt lat="46.1661770" lon="10.4648030">
	<ele>2490.80</ele>
	<time>2023-08-09T07:50:17.000Z</time>
</trkpt>
<trkpt lat="46.1661830" lon="10.4647970">
	<ele>2490.80</ele>
	<time>2023-08-09T07:50:18.000Z</time>
</trkpt>
<trkpt lat="46.1661900" lon="10.4647910">
	<ele>2490.60</ele>
	<time>2023-08-09T07:50:19.000Z</time>
</trkpt>
<trkpt lat="46.1661960" lon="10.4647860">
	<ele>2490.40</ele>
	<time>2023-08-09T07:50:20.000Z</time>
</trkpt>
<trkpt lat="46.1662010" lon="10.4647920">
	<ele>2490.40</ele>
	<time>2023-08-09T07:50:21.000Z</time>
</trkpt>
<trkpt lat="46.1662040" lon="10.4647980">
	<ele>2490.20</ele>
	<time>2023-08-09T07:50:22.000Z</time>
</trkpt>
<trkpt lat="46.1662110" lon="10.4648010">
	<ele>2490.00</ele>
	<time>2023-08-09T07:50:23.000Z</time>
</trkpt>
<trkpt lat="46.1662190" lon="10.4648030">
	<ele>2489.80</ele>
	<time>2023-08-09T07:50:24.000Z</time>
</trkpt>
<trkpt lat="46.1662240" lon="10.4648020">
	<ele>2489.60</ele>
	<time>2023-08-09T07:50:25.000Z</time>
</trkpt>
<trkpt lat="46.1662300" lon="10.4648020">
	<ele>2489.40</ele>
	<time>2023-08-09T07:50:26.000Z</time>
</trkpt>
<trkpt lat="46.1662330" lon="10.4648060">
	<ele>2489.40</ele>
	<time>2023-08-09T07:50:27.000Z</time>
</trkpt>
<trkpt lat="46.1662370" lon="10.4648060">
	<ele>2489.20</ele>
	<time>2023-08-09T07:50:28.000Z</time>
</trkpt>
<trkpt lat="46.1662400" lon="10.4648110">
	<ele>2489.20</ele>
	<time>2023-08-09T07:50:29.000Z</time>
</trkpt>
<trkpt lat="46.1662440" lon="10.4648130">
	<ele>2489.20</ele>
	<time>2023-08-09T07:50:30.000Z</time>
</trkpt>
<trkpt lat="46.1662480" lon="10.4648130">
	<ele>2489.00</ele>
	<time>2023-08-09T07:50:31.000Z</time>
</trkpt>
<trkpt lat="46.1662490" lon="10.4648090">
	<ele>2489.00</ele>
	<time>2023-08-09T07:50:32.000Z</time>
</trkpt>
<trkpt lat="46.1662520" lon="10.4648060">
	<ele>2489.00</ele>
	<time>2023-08-09T07:50:33.000Z</time>
</trkpt>
<trkpt lat="46.1662560" lon="10.4648010">
	<ele>2488.80</ele>
	<time>2023-08-09T07:50:34.000Z</time>
</trkpt>
<trkpt lat="46.1662610" lon="10.4647980">
	<ele>2488.60</ele>
	<time>2023-08-09T07:50:35.000Z</time>
</trkpt>
<trkpt lat="46.1662660" lon="10.4647980">
	<ele>2488.60</ele>
	<time>2023-08-09T07:50:36.000Z</time>
</trkpt>
<trkpt lat="46.1662700" lon="10.4647990">
	<ele>2488.40</ele>
	<time>2023-08-09T07:50:37.000Z</time>
</trkpt>
<trkpt lat="46.1662730" lon="10.4648010">
	<ele>2488.20</ele>
	<time>2023-08-09T07:50:38.000Z</time>
</trkpt>
<trkpt lat="46.1662750" lon="10.4648040">
	<ele>2488.00</ele>
	<time>2023-08-09T07:50:39.000Z</time>
</trkpt>
<trkpt lat="46.1662760" lon="10.4648100">
	<ele>2488.00</ele>
	<time>2023-08-09T07:50:40.000Z</time>
</trkpt>
<trkpt lat="46.1662790" lon="10.4648120">
	<ele>2488.00</ele>
	<time>2023-08-09T07:50:41.000Z</time>
</trkpt>
<trkpt lat="46.1662820" lon="10.4648120">
	<ele>2487.80</ele>
	<time>2023-08-09T07:50:42.000Z</time>
</trkpt>
<trkpt lat="46.1662860" lon="10.4648130">
	<ele>2487.60</ele>
	<time>2023-08-09T07:50:43.000Z</time>
</trkpt>
<trkpt lat="46.1662880" lon="10.4648130">
	<ele>2487.40</ele>
	<time>2023-08-09T07:50:44.000Z</time>
</trkpt>
<trkpt lat="46.1662890" lon="10.4648130">
	<ele>2487.40</ele>
	<time>2023-08-09T07:50:45.000Z</time>
</trkpt>
<trkpt lat="46.1662890" lon="10.4648130">
	<ele>2487.40</ele>
	<time>2023-08-09T07:50:46.000Z</time>
</trkpt>
<trkpt lat="46.1662890" lon="10.4648130">
	<ele>2487.20</ele>
	<time>2023-08-09T07:50:47.000Z</time>
</trkpt>
<trkpt lat="46.1662890" lon="10.4648130">
	<ele>2487.20</ele>
	<time>2023-08-09T07:50:48.000Z</time>
</trkpt>
<trkpt lat="46.1662890" lon="10.4648130">
	<ele>2487.20</ele>
	<time>2023-08-09T07:50:49.000Z</time>
</trkpt>
<trkpt lat="46.1662890" lon="10.4648130">
	<ele>2487.20</ele>
	<time>2023-08-09T07:50:50.000Z</time>
</trkpt>
<trkpt lat="46.1662890" lon="10.4648130">
	<ele>2487.20</ele>
	<time>2023-08-09T07:50:51.000Z</time>
</trkpt>
<trkpt lat="46.1662890" lon="10.4648130">
	<ele>2487.20</ele>
	<time>2023-08-09T07:50:52.000Z</time>
</trkpt>
<trkpt lat="46.1662890" lon="10.4648130">
	<ele>2487.20</ele>
	<time>2023-08-09T07:50:53.000Z</time>
</trkpt>
<trkpt lat="46.1662890" lon="10.4648130">
	<ele>2487.00</ele>
	<time>2023-08-09T07:50:54.000Z</time>
</trkpt>
<trkpt lat="46.1662890" lon="10.4648120">
	<ele>2487.00</ele>
	<time>2023-08-09T07:50:55.000Z</time>
</trkpt>
<trkpt lat="46.1662890" lon="10.4648120">
	<ele>2486.80</ele>
	<time>2023-08-09T07:50:56.000Z</time>
</trkpt>
<trkpt lat="46.1662890" lon="10.4648120">
	<ele>2486.60</ele>
	<time>2023-08-09T07:50:57.000Z</time>
</trkpt>
<trkpt lat="46.1662890" lon="10.4648120">
	<ele>2486.60</ele>
	<time>2023-08-09T07:50:58.000Z</time>
</trkpt>
<trkpt lat="46.1662890" lon="10.4648110">
	<ele>2486.40</ele>
	<time>2023-08-09T07:50:59.000Z</time>
</trkpt>
<trkpt lat="46.1662890" lon="10.4648100">
	<ele>2486.20</ele>
	<time>2023-08-09T07:51:00.000Z</time>
</trkpt>
<trkpt lat="46.1662890" lon="10.4648100">
	<ele>2486.00</ele>
	<time>2023-08-09T07:51:01.000Z</time>
</trkpt>
<trkpt lat="46.1662900" lon="10.4648100">
	<ele>2486.00</ele>
	<time>2023-08-09T07:51:02.000Z</time>
</trkpt>
<trkpt lat="46.1662940" lon="10.4648100">
	<ele>2485.80</ele>
	<time>2023-08-09T07:51:03.000Z</time>
</trkpt>
<trkpt lat="46.1662970" lon="10.4648090">
	<ele>2485.80</ele>
	<time>2023-08-09T07:51:04.000Z</time>
</trkpt>
<trkpt lat="46.1662990" lon="10.4648080">
	<ele>2485.60</ele>
	<time>2023-08-09T07:51:05.000Z</time>
</trkpt>
<trkpt lat="46.1663020" lon="10.4648080">
	<ele>2485.40</ele>
	<time>2023-08-09T07:51:06.000Z</time>
</trkpt>
<trkpt lat="46.1663030" lon="10.4648080">
	<ele>2485.20</ele>
	<time>2023-08-09T07:51:07.000Z</time>
</trkpt>
<trkpt lat="46.1663070" lon="10.4648080">
	<ele>2485.00</ele>
	<time>2023-08-09T07:51:08.000Z</time>
</trkpt>
<trkpt lat="46.1663120" lon="10.4648080">
	<ele>2485.00</ele>
	<time>2023-08-09T07:51:09.000Z</time>
</trkpt>
<trkpt lat="46.1663160" lon="10.4648070">
	<ele>2484.80</ele>
	<time>2023-08-09T07:51:10.000Z</time>
</trkpt>
<trkpt lat="46.1663190" lon="10.4648070">
	<ele>2484.60</ele>
	<time>2023-08-09T07:51:11.000Z</time>
</trkpt>
<trkpt lat="46.1663230" lon="10.4648070">
	<ele>2484.40</ele>
	<time>2023-08-09T07:51:12.000Z</time>
</trkpt>
<trkpt lat="46.1663240" lon="10.4648070">
	<ele>2484.40</ele>
	<time>2023-08-09T07:51:13.000Z</time>
</trkpt>
<trkpt lat="46.1663280" lon="10.4648070">
	<ele>2484.20</ele>
	<time>2023-08-09T07:51:14.000Z</time>
</trkpt>
<trkpt lat="46.1663310" lon="10.4648070">
	<ele>2483.80</ele>
	<time>2023-08-09T07:51:15.000Z</time>
</trkpt>
<trkpt lat="46.1663340" lon="10.4648070">
	<ele>2483.80</ele>
	<time>2023-08-09T07:51:16.000Z</time>
</trkpt>
<trkpt lat="46.1663360" lon="10.4648070">
	<ele>2483.60</ele>
	<time>2023-08-09T07:51:17.000Z</time>
</trkpt>
<trkpt lat="46.1663380" lon="10.4648070">
	<ele>2483.60</ele>
	<time>2023-08-09T07:51:18.000Z</time>
</trkpt>
<trkpt lat="46.1663420" lon="10.4648070">
	<ele>2483.40</ele>
	<time>2023-08-09T07:51:19.000Z</time>
</trkpt>
<trkpt lat="46.1663430" lon="10.4648070">
	<ele>2483.40</ele>
	<time>2023-08-09T07:51:20.000Z</time>
</trkpt>
<trkpt lat="46.1663470" lon="10.4648070">
	<ele>2483.20</ele>
	<time>2023-08-09T07:51:21.000Z</time>
</trkpt>
<trkpt lat="46.1663500" lon="10.4648070">
	<ele>2483.20</ele>
	<time>2023-08-09T07:51:22.000Z</time>
</trkpt>
<trkpt lat="46.1663530" lon="10.4648080">
	<ele>2483.20</ele>
	<time>2023-08-09T07:51:23.000Z</time>
</trkpt>
<trkpt lat="46.1663550" lon="10.4648080">
	<ele>2483.20</ele>
	<time>2023-08-09T07:51:24.000Z</time>
</trkpt>
<trkpt lat="46.1663590" lon="10.4648080">
	<ele>2483.00</ele>
	<time>2023-08-09T07:51:25.000Z</time>
</trkpt>
<trkpt lat="46.1663610" lon="10.4648080">
	<ele>2482.80</ele>
	<time>2023-08-09T07:51:26.000Z</time>
</trkpt>
<trkpt lat="46.1663660" lon="10.4648080">
	<ele>2482.80</ele>
	<time>2023-08-09T07:51:27.000Z</time>
</trkpt>
<trkpt lat="46.1663680" lon="10.4648080">
	<ele>2482.60</ele>
	<time>2023-08-09T07:51:28.000Z</time>
</trkpt>
<trkpt lat="46.1663690" lon="10.4648080">
	<ele>2482.40</ele>
	<time>2023-08-09T07:51:29.000Z</time>
</trkpt>
<trkpt lat="46.1663710" lon="10.4648070">
	<ele>2482.40</ele>
	<time>2023-08-09T07:51:30.000Z</time>
</trkpt>
<trkpt lat="46.1663750" lon="10.4648080">
	<ele>2482.40</ele>
	<time>2023-08-09T07:51:31.000Z</time>
</trkpt>
<trkpt lat="46.1663780" lon="10.4648090">
	<ele>2482.20</ele>
	<time>2023-08-09T07:51:32.000Z</time>
</trkpt>
<trkpt lat="46.1663800" lon="10.4648100">
	<ele>2482.00</ele>
	<time>2023-08-09T07:51:33.000Z</time>
</trkpt>
<trkpt lat="46.1663840" lon="10.4648110">
	<ele>2481.80</ele>
	<time>2023-08-09T07:51:34.000Z</time>
</trkpt>
<trkpt lat="46.1663880" lon="10.4648120">
	<ele>2481.60</ele>
	<time>2023-08-09T07:51:35.000Z</time>
</trkpt>
<trkpt lat="46.1663920" lon="10.4648120">
	<ele>2481.60</ele>
	<time>2023-08-09T07:51:36.000Z</time>
</trkpt>
<trkpt lat="46.1663960" lon="10.4648120">
	<ele>2481.40</ele>
	<time>2023-08-09T07:51:37.000Z</time>
</trkpt>
<trkpt lat="46.1664000" lon="10.4648120">
	<ele>2481.40</ele>
	<time>2023-08-09T07:51:38.000Z</time>
</trkpt>
<trkpt lat="46.1664050" lon="10.4648120">
	<ele>2481.20</ele>
	<time>2023-08-09T07:51:39.000Z</time>
</trkpt>
<trkpt lat="46.1664110" lon="10.4648120">
	<ele>2481.20</ele>
	<time>2023-08-09T07:51:40.000Z</time>
</trkpt>
<trkpt lat="46.1664170" lon="10.4648120">
	<ele>2481.00</ele>
	<time>2023-08-09T07:51:41.000Z</time>
</trkpt>
<trkpt lat="46.1664190" lon="10.4648120">
	<ele>2481.00</ele>
	<time>2023-08-09T07:51:42.000Z</time>
</trkpt>
<trkpt lat="46.1664230" lon="10.4648120">
	<ele>2481.00</ele>
	<time>2023-08-09T07:51:43.000Z</time>
</trkpt>
<trkpt lat="46.1664260" lon="10.4648110">
	<ele>2480.80</ele>
	<time>2023-08-09T07:51:44.000Z</time>
</trkpt>
<trkpt lat="46.1664290" lon="10.4648100">
	<ele>2480.80</ele>
	<time>2023-08-09T07:51:45.000Z</time>
</trkpt>
<trkpt lat="46.1664340" lon="10.4648080">
	<ele>2480.80</ele>
	<time>2023-08-09T07:51:46.000Z</time>
</trkpt>
<trkpt lat="46.1664390" lon="10.4648080">
	<ele>2480.80</ele>
	<time>2023-08-09T07:51:47.000Z</time>
</trkpt>
<trkpt lat="46.1664430" lon="10.4648070">
	<ele>2480.80</ele>
	<time>2023-08-09T07:51:48.000Z</time>
</trkpt>
<trkpt lat="46.1664460" lon="10.4648070">
	<ele>2480.60</ele>
	<time>2023-08-09T07:51:49.000Z</time>
</trkpt>
<trkpt lat="46.1664510" lon="10.4648070">
	<ele>2480.40</ele>
	<time>2023-08-09T07:51:50.000Z</time>
</trkpt>
<trkpt lat="46.1664530" lon="10.4648070">
	<ele>2480.40</ele>
	<time>2023-08-09T07:51:51.000Z</time>
</trkpt>
<trkpt lat="46.1664560" lon="10.4648070">
	<ele>2480.20</ele>
	<time>2023-08-09T07:51:52.000Z</time>
</trkpt>
<trkpt lat="46.1664590" lon="10.4648070">
	<ele>2479.80</ele>
	<time>2023-08-09T07:51:53.000Z</time>
</trkpt>
<trkpt lat="46.1664630" lon="10.4648070">
	<ele>2479.60</ele>
	<time>2023-08-09T07:51:54.000Z</time>
</trkpt>
<trkpt lat="46.1664680" lon="10.4648070">
	<ele>2479.40</ele>
	<time>2023-08-09T07:51:55.000Z</time>
</trkpt>
<trkpt lat="46.1664730" lon="10.4648090">
	<ele>2479.40</ele>
	<time>2023-08-09T07:51:56.000Z</time>
</trkpt>
<trkpt lat="46.1664790" lon="10.4648100">
	<ele>2479.20</ele>
	<time>2023-08-09T07:51:57.000Z</time>
</trkpt>
<trkpt lat="46.1664840" lon="10.4648110">
	<ele>2479.00</ele>
	<time>2023-08-09T07:51:58.000Z</time>
</trkpt>
<trkpt lat="46.1664890" lon="10.4648130">
	<ele>2478.80</ele>
	<time>2023-08-09T07:51:59.000Z</time>
</trkpt>
<trkpt lat="46.1664940" lon="10.4648140">
	<ele>2478.80</ele>
	<time>2023-08-09T07:52:00.000Z</time>
</trkpt>
<trkpt lat="46.1665000" lon="10.4648140">
	<ele>2478.60</ele>
	<time>2023-08-09T07:52:01.000Z</time>
</trkpt>
<trkpt lat="46.1665070" lon="10.4648140">
	<ele>2478.40</ele>
	<time>2023-08-09T07:52:02.000Z</time>
</trkpt>
<trkpt lat="46.1665120" lon="10.4648140">
	<ele>2478.40</ele>
	<time>2023-08-09T07:52:03.000Z</time>
</trkpt>
<trkpt lat="46.1665170" lon="10.4648140">
	<ele>2478.40</ele>
	<time>2023-08-09T07:52:04.000Z</time>
</trkpt>
<trkpt lat="46.1665210" lon="10.4648140">
	<ele>2478.00</ele>
	<time>2023-08-09T07:52:05.000Z</time>
</trkpt>
<trkpt lat="46.1665260" lon="10.4648150">
	<ele>2477.80</ele>
	<time>2023-08-09T07:52:06.000Z</time>
</trkpt>
<trkpt lat="46.1665310" lon="10.4648190">
	<ele>2477.60</ele>
	<time>2023-08-09T07:52:07.000Z</time>
</trkpt>
<trkpt lat="46.1665320" lon="10.4648240">
	<ele>2477.40</ele>
	<time>2023-08-09T07:52:08.000Z</time>
</trkpt>
<trkpt lat="46.1665330" lon="10.4648310">
	<ele>2477.40</ele>
	<time>2023-08-09T07:52:09.000Z</time>
</trkpt>
<trkpt lat="46.1665340" lon="10.4648380">
	<ele>2477.20</ele>
	<time>2023-08-09T07:52:10.000Z</time>
</trkpt>
<trkpt lat="46.1665350" lon="10.4648460">
	<ele>2477.20</ele>
	<time>2023-08-09T07:52:11.000Z</time>
</trkpt>
<trkpt lat="46.1665360" lon="10.4648520">
	<ele>2477.20</ele>
	<time>2023-08-09T07:52:12.000Z</time>
</trkpt>
<trkpt lat="46.1665370" lon="10.4648580">
	<ele>2477.00</ele>
	<time>2023-08-09T07:52:13.000Z</time>
</trkpt>
<trkpt lat="46.1665440" lon="10.4648650">
	<ele>2476.80</ele>
	<time>2023-08-09T07:52:14.000Z</time>
</trkpt>
<trkpt lat="46.1665560" lon="10.4648670">
	<ele>2476.60</ele>
	<time>2023-08-09T07:52:15.000Z</time>
</trkpt>
<trkpt lat="46.1665690" lon="10.4648690">
	<ele>2476.40</ele>
	<time>2023-08-09T07:52:16.000Z</time>
</trkpt>
<trkpt lat="46.1665800" lon="10.4648710">
	<ele>2476.40</ele>
	<time>2023-08-09T07:52:17.000Z</time>
</trkpt>
<trkpt lat="46.1665930" lon="10.4648750">
	<ele>2476.20</ele>
	<time>2023-08-09T07:52:18.000Z</time>
</trkpt>
<trkpt lat="46.1666060" lon="10.4648820">
	<ele>2476.00</ele>
	<time>2023-08-09T07:52:19.000Z</time>
</trkpt>
<trkpt lat="46.1666160" lon="10.4648930">
	<ele>2475.80</ele>
	<time>2023-08-09T07:52:20.000Z</time>
</trkpt>
<trkpt lat="46.1666290" lon="10.4649030">
	<ele>2475.80</ele>
	<time>2023-08-09T07:52:21.000Z</time>
</trkpt>
<trkpt lat="46.1666440" lon="10.4649120">
	<ele>2475.60</ele>
	<time>2023-08-09T07:52:22.000Z</time>
</trkpt>
<trkpt lat="46.1666580" lon="10.4649210">
	<ele>2475.40</ele>
	<time>2023-08-09T07:52:23.000Z</time>
</trkpt>
<trkpt lat="46.1666650" lon="10.4649280">
	<ele>2475.20</ele>
	<time>2023-08-09T07:52:24.000Z</time>
</trkpt>
<trkpt lat="46.1666700" lon="10.4649370">
	<ele>2475.20</ele>
	<time>2023-08-09T07:52:25.000Z</time>
</trkpt>
<trkpt lat="46.1666740" lon="10.4649430">
	<ele>2475.20</ele>
	<time>2023-08-09T07:52:26.000Z</time>
</trkpt>
<trkpt lat="46.1666770" lon="10.4649490">
	<ele>2475.20</ele>
	<time>2023-08-09T07:52:27.000Z</time>
</trkpt>
<trkpt lat="46.1666820" lon="10.4649560">
	<ele>2475.00</ele>
	<time>2023-08-09T07:52:28.000Z</time>
</trkpt>
<trkpt lat="46.1666890" lon="10.4649630">
	<ele>2475.00</ele>
	<time>2023-08-09T07:52:29.000Z</time>
</trkpt>
<trkpt lat="46.1666930" lon="10.4649660">
	<ele>2475.00</ele>
	<time>2023-08-09T07:52:30.000Z</time>
</trkpt>
<trkpt lat="46.1666980" lon="10.4649690">
	<ele>2474.80</ele>
	<time>2023-08-09T07:52:31.000Z</time>
</trkpt>
<trkpt lat="46.1667030" lon="10.4649750">
	<ele>2474.80</ele>
	<time>2023-08-09T07:52:32.000Z</time>
</trkpt>
<trkpt lat="46.1667050" lon="10.4649810">
	<ele>2474.40</ele>
	<time>2023-08-09T07:52:33.000Z</time>
</trkpt>
<trkpt lat="46.1667060" lon="10.4649820">
	<ele>2474.20</ele>
	<time>2023-08-09T07:52:34.000Z</time>
</trkpt>
<trkpt lat="46.1667070" lon="10.4649820">
	<ele>2474.20</ele>
	<time>2023-08-09T07:52:35.000Z</time>
</trkpt>
<trkpt lat="46.1667070" lon="10.4649840">
	<ele>2474.00</ele>
	<time>2023-08-09T07:52:36.000Z</time>
</trkpt>
<trkpt lat="46.1667070" lon="10.4649850">
	<ele>2474.00</ele>
	<time>2023-08-09T07:52:37.000Z</time>
</trkpt>
<trkpt lat="46.1667070" lon="10.4649860">
	<ele>2474.00</ele>
	<time>2023-08-09T07:52:38.000Z</time>
</trkpt>
<trkpt lat="46.1667070" lon="10.4649840">
	<ele>2474.00</ele>
	<time>2023-08-09T07:52:39.000Z</time>
</trkpt>
<trkpt lat="46.1667080" lon="10.4649850">
	<ele>2474.00</ele>
	<time>2023-08-09T07:52:40.000Z</time>
</trkpt>
<trkpt lat="46.1667080" lon="10.4649830">
	<ele>2474.00</ele>
	<time>2023-08-09T07:52:41.000Z</time>
</trkpt>
<trkpt lat="46.1667110" lon="10.4649790">
	<ele>2474.00</ele>
	<time>2023-08-09T07:52:42.000Z</time>
</trkpt>
<trkpt lat="46.1667140" lon="10.4649760">
	<ele>2474.00</ele>
	<time>2023-08-09T07:52:43.000Z</time>
</trkpt>
<trkpt lat="46.1667170" lon="10.4649740">
	<ele>2474.00</ele>
	<time>2023-08-09T07:52:44.000Z</time>
</trkpt>
<trkpt lat="46.1667200" lon="10.4649700">
	<ele>2474.00</ele>
	<time>2023-08-09T07:52:45.000Z</time>
</trkpt>
<trkpt lat="46.1667240" lon="10.4649670">
	<ele>2474.00</ele>
	<time>2023-08-09T07:52:46.000Z</time>
</trkpt>
<trkpt lat="46.1667280" lon="10.4649620">
	<ele>2474.00</ele>
	<time>2023-08-09T07:52:47.000Z</time>
</trkpt>
<trkpt lat="46.1667350" lon="10.4649620">
	<ele>2474.00</ele>
	<time>2023-08-09T07:52:48.000Z</time>
</trkpt>
<trkpt lat="46.1667420" lon="10.4649660">
	<ele>2474.00</ele>
	<time>2023-08-09T07:52:49.000Z</time>
</trkpt>
<trkpt lat="46.1667500" lon="10.4649660">
	<ele>2474.00</ele>
	<time>2023-08-09T07:52:50.000Z</time>
</trkpt>
<trkpt lat="46.1667600" lon="10.4649650">
	<ele>2474.00</ele>
	<time>2023-08-09T07:52:51.000Z</time>
</trkpt>
<trkpt lat="46.1667700" lon="10.4649650">
	<ele>2474.00</ele>
	<time>2023-08-09T07:52:52.000Z</time>
</trkpt>
<trkpt lat="46.1667780" lon="10.4649660">
	<ele>2473.80</ele>
	<time>2023-08-09T07:52:53.000Z</time>
</trkpt>
<trkpt lat="46.1667840" lon="10.4649700">
	<ele>2473.80</ele>
	<time>2023-08-09T07:52:54.000Z</time>
</trkpt>
<trkpt lat="46.1667890" lon="10.4649760">
	<ele>2473.80</ele>
	<time>2023-08-09T07:52:55.000Z</time>
</trkpt>
<trkpt lat="46.1667910" lon="10.4649840">
	<ele>2473.60</ele>
	<time>2023-08-09T07:52:56.000Z</time>
</trkpt>
<trkpt lat="46.1667950" lon="10.4649920">
	<ele>2473.60</ele>
	<time>2023-08-09T07:52:57.000Z</time>
</trkpt>
<trkpt lat="46.1668020" lon="10.4650010">
	<ele>2473.60</ele>
	<time>2023-08-09T07:52:58.000Z</time>
</trkpt>
<trkpt lat="46.1668110" lon="10.4650120">
	<ele>2473.60</ele>
	<time>2023-08-09T07:52:59.000Z</time>
</trkpt>
<trkpt lat="46.1668210" lon="10.4650240">
	<ele>2473.40</ele>
	<time>2023-08-09T07:53:00.000Z</time>
</trkpt>
<trkpt lat="46.1668320" lon="10.4650340">
	<ele>2473.40</ele>
	<time>2023-08-09T07:53:01.000Z</time>
</trkpt>
<trkpt lat="46.1668430" lon="10.4650390">
	<ele>2473.20</ele>
	<time>2023-08-09T07:53:02.000Z</time>
</trkpt>
<trkpt lat="46.1668550" lon="10.4650430">
	<ele>2473.20</ele>
	<time>2023-08-09T07:53:03.000Z</time>
</trkpt>
<trkpt lat="46.1668670" lon="10.4650480">
	<ele>2473.20</ele>
	<time>2023-08-09T07:53:04.000Z</time>
</trkpt>
<trkpt lat="46.1668760" lon="10.4650510">
	<ele>2473.20</ele>
	<time>2023-08-09T07:53:05.000Z</time>
</trkpt>
<trkpt lat="46.1668870" lon="10.4650550">
	<ele>2473.20</ele>
	<time>2023-08-09T07:53:06.000Z</time>
</trkpt>
<trkpt lat="46.1668990" lon="10.4650570">
	<ele>2473.20</ele>
	<time>2023-08-09T07:53:07.000Z</time>
</trkpt>
<trkpt lat="46.1669100" lon="10.4650590">
	<ele>2473.20</ele>
	<time>2023-08-09T07:53:08.000Z</time>
</trkpt>
<trkpt lat="46.1669210" lon="10.4650620">
	<ele>2473.20</ele>
	<time>2023-08-09T07:53:09.000Z</time>
</trkpt>
<trkpt lat="46.1669320" lon="10.4650640">
	<ele>2473.20</ele>
	<time>2023-08-09T07:53:10.000Z</time>
</trkpt>
<trkpt lat="46.1669420" lon="10.4650660">
	<ele>2473.00</ele>
	<time>2023-08-09T07:53:11.000Z</time>
</trkpt>
<trkpt lat="46.1669500" lon="10.4650670">
	<ele>2473.00</ele>
	<time>2023-08-09T07:53:12.000Z</time>
</trkpt>
<trkpt lat="46.1669580" lon="10.4650650">
	<ele>2472.80</ele>
	<time>2023-08-09T07:53:13.000Z</time>
</trkpt>
<trkpt lat="46.1669640" lon="10.4650630">
	<ele>2472.80</ele>
	<time>2023-08-09T07:53:14.000Z</time>
</trkpt>
<trkpt lat="46.1669730" lon="10.4650620">
	<ele>2472.80</ele>
	<time>2023-08-09T07:53:15.000Z</time>
</trkpt>
<trkpt lat="46.1669830" lon="10.4650620">
	<ele>2472.80</ele>
	<time>2023-08-09T07:53:16.000Z</time>
</trkpt>
<trkpt lat="46.1669940" lon="10.4650610">
	<ele>2472.80</ele>
	<time>2023-08-09T07:53:17.000Z</time>
</trkpt>
<trkpt lat="46.1670050" lon="10.4650560">
	<ele>2472.80</ele>
	<time>2023-08-09T07:53:18.000Z</time>
</trkpt>
<trkpt lat="46.1670150" lon="10.4650560">
	<ele>2472.80</ele>
	<time>2023-08-09T07:53:19.000Z</time>
</trkpt>
<trkpt lat="46.1670240" lon="10.4650560">
	<ele>2473.00</ele>
	<time>2023-08-09T07:53:20.000Z</time>
</trkpt>
<trkpt lat="46.1670350" lon="10.4650530">
	<ele>2473.00</ele>
	<time>2023-08-09T07:53:21.000Z</time>
</trkpt>
<trkpt lat="46.1670470" lon="10.4650490">
	<ele>2473.00</ele>
	<time>2023-08-09T07:53:22.000Z</time>
</trkpt>
<trkpt lat="46.1670580" lon="10.4650480">
	<ele>2473.00</ele>
	<time>2023-08-09T07:53:23.000Z</time>
</trkpt>
<trkpt lat="46.1670690" lon="10.4650480">
	<ele>2473.00</ele>
	<time>2023-08-09T07:53:24.000Z</time>
</trkpt>
<trkpt lat="46.1670770" lon="10.4650500">
	<ele>2473.00</ele>
	<time>2023-08-09T07:53:25.000Z</time>
</trkpt>
<trkpt lat="46.1670840" lon="10.4650520">
	<ele>2473.00</ele>
	<time>2023-08-09T07:53:26.000Z</time>
</trkpt>
<trkpt lat="46.1670920" lon="10.4650500">
	<ele>2472.80</ele>
	<time>2023-08-09T07:53:27.000Z</time>
</trkpt>
<trkpt lat="46.1671020" lon="10.4650460">
	<ele>2472.80</ele>
	<time>2023-08-09T07:53:28.000Z</time>
</trkpt>
<trkpt lat="46.1671080" lon="10.4650430">
	<ele>2472.60</ele>
	<time>2023-08-09T07:53:29.000Z</time>
</trkpt>
<trkpt lat="46.1671130" lon="10.4650420">
	<ele>2472.60</ele>
	<time>2023-08-09T07:53:30.000Z</time>
</trkpt>
<trkpt lat="46.1671210" lon="10.4650380">
	<ele>2472.40</ele>
	<time>2023-08-09T07:53:31.000Z</time>
</trkpt>
<trkpt lat="46.1671280" lon="10.4650380">
	<ele>2472.40</ele>
	<time>2023-08-09T07:53:32.000Z</time>
</trkpt>
<trkpt lat="46.1671350" lon="10.4650430">
	<ele>2472.20</ele>
	<time>2023-08-09T07:53:33.000Z</time>
</trkpt>
<trkpt lat="46.1671440" lon="10.4650460">
	<ele>2472.20</ele>
	<time>2023-08-09T07:53:34.000Z</time>
</trkpt>
<trkpt lat="46.1671550" lon="10.4650530">
	<ele>2471.80</ele>
	<time>2023-08-09T07:53:35.000Z</time>
</trkpt>
<trkpt lat="46.1671650" lon="10.4650600">
	<ele>2471.60</ele>
	<time>2023-08-09T07:53:36.000Z</time>
</trkpt>
<trkpt lat="46.1671700" lon="10.4650630">
	<ele>2471.40</ele>
	<time>2023-08-09T07:53:37.000Z</time>
</trkpt>
<trkpt lat="46.1671770" lon="10.4650610">
	<ele>2471.40</ele>
	<time>2023-08-09T07:53:38.000Z</time>
</trkpt>
<trkpt lat="46.1671830" lon="10.4650590">
	<ele>2471.00</ele>
	<time>2023-08-09T07:53:39.000Z</time>
</trkpt>
<trkpt lat="46.1671900" lon="10.4650580">
	<ele>2471.00</ele>
	<time>2023-08-09T07:53:40.000Z</time>
</trkpt>
<trkpt lat="46.1671990" lon="10.4650570">
	<ele>2470.80</ele>
	<time>2023-08-09T07:53:41.000Z</time>
</trkpt>
<trkpt lat="46.1672070" lon="10.4650560">
	<ele>2470.60</ele>
	<time>2023-08-09T07:53:42.000Z</time>
</trkpt>
<trkpt lat="46.1672150" lon="10.4650550">
	<ele>2470.40</ele>
	<time>2023-08-09T07:53:43.000Z</time>
</trkpt>
<trkpt lat="46.1672220" lon="10.4650550">
	<ele>2470.40</ele>
	<time>2023-08-09T07:53:44.000Z</time>
</trkpt>
<trkpt lat="46.1672260" lon="10.4650590">
	<ele>2470.20</ele>
	<time>2023-08-09T07:53:45.000Z</time>
</trkpt>
<trkpt lat="46.1672330" lon="10.4650630">
	<ele>2470.20</ele>
	<time>2023-08-09T07:53:46.000Z</time>
</trkpt>
<trkpt lat="46.1672400" lon="10.4650670">
	<ele>2470.00</ele>
	<time>2023-08-09T07:53:47.000Z</time>
</trkpt>
<trkpt lat="46.1672470" lon="10.4650670">
	<ele>2470.00</ele>
	<time>2023-08-09T07:53:48.000Z</time>
</trkpt>
<trkpt lat="46.1672550" lon="10.4650670">
	<ele>2469.80</ele>
	<time>2023-08-09T07:53:49.000Z</time>
</trkpt>
<trkpt lat="46.1672600" lon="10.4650650">
	<ele>2469.60</ele>
	<time>2023-08-09T07:53:50.000Z</time>
</trkpt>
<trkpt lat="46.1672670" lon="10.4650650">
	<ele>2469.40</ele>
	<time>2023-08-09T07:53:51.000Z</time>
</trkpt>
<trkpt lat="46.1672730" lon="10.4650670">
	<ele>2469.20</ele>
	<time>2023-08-09T07:53:52.000Z</time>
</trkpt>
<trkpt lat="46.1672790" lon="10.4650730">
	<ele>2469.20</ele>
	<time>2023-08-09T07:53:53.000Z</time>
</trkpt>
<trkpt lat="46.1672870" lon="10.4650780">
	<ele>2469.00</ele>
	<time>2023-08-09T07:53:54.000Z</time>
</trkpt>
<trkpt lat="46.1672900" lon="10.4650830">
	<ele>2469.00</ele>
	<time>2023-08-09T07:53:55.000Z</time>
</trkpt>
<trkpt lat="46.1672940" lon="10.4650890">
	<ele>2468.80</ele>
	<time>2023-08-09T07:53:56.000Z</time>
</trkpt>
<trkpt lat="46.1673010" lon="10.4650970">
	<ele>2468.60</ele>
	<time>2023-08-09T07:53:57.000Z</time>
</trkpt>
<trkpt lat="46.1673060" lon="10.4651020">
	<ele>2468.60</ele>
	<time>2023-08-09T07:53:58.000Z</time>
</trkpt>
<trkpt lat="46.1673100" lon="10.4651100">
	<ele>2468.40</ele>
	<time>2023-08-09T07:53:59.000Z</time>
</trkpt>
<trkpt lat="46.1673140" lon="10.4651120">
	<ele>2468.20</ele>
	<time>2023-08-09T07:54:00.000Z</time>
</trkpt>
<trkpt lat="46.1673140" lon="10.4651130">
	<ele>2468.00</ele>
	<time>2023-08-09T07:54:01.000Z</time>
</trkpt>
<trkpt lat="46.1673130" lon="10.4651130">
	<ele>2468.00</ele>
	<time>2023-08-09T07:54:02.000Z</time>
</trkpt>
<trkpt lat="46.1673120" lon="10.4651110">
	<ele>2468.00</ele>
	<time>2023-08-09T07:54:03.000Z</time>
</trkpt>
<trkpt lat="46.1673090" lon="10.4651150">
	<ele>2467.80</ele>
	<time>2023-08-09T07:54:04.000Z</time>
</trkpt>
<trkpt lat="46.1673070" lon="10.4651200">
	<ele>2467.80</ele>
	<time>2023-08-09T07:54:05.000Z</time>
</trkpt>
<trkpt lat="46.1673060" lon="10.4651220">
	<ele>2467.80</ele>
	<time>2023-08-09T07:54:06.000Z</time>
</trkpt>
<trkpt lat="46.1673070" lon="10.4651220">
	<ele>2467.80</ele>
	<time>2023-08-09T07:54:07.000Z</time>
</trkpt>
<trkpt lat="46.1673080" lon="10.4651230">
	<ele>2468.00</ele>
	<time>2023-08-09T07:54:08.000Z</time>
</trkpt>
<trkpt lat="46.1673070" lon="10.4651240">
	<ele>2468.20</ele>
	<time>2023-08-09T07:54:09.000Z</time>
</trkpt>
<trkpt lat="46.1673070" lon="10.4651240">
	<ele>2468.40</ele>
	<time>2023-08-09T07:54:10.000Z</time>
</trkpt>
<trkpt lat="46.1673070" lon="10.4651240">
	<ele>2468.40</ele>
	<time>2023-08-09T07:54:11.000Z</time>
</trkpt>
<trkpt lat="46.1673070" lon="10.4651240">
	<ele>2468.60</ele>
	<time>2023-08-09T07:54:12.000Z</time>
</trkpt>
<trkpt lat="46.1673070" lon="10.4651240">
	<ele>2468.60</ele>
	<time>2023-08-09T07:54:13.000Z</time>
</trkpt>
<trkpt lat="46.1673070" lon="10.4651240">
	<ele>2468.60</ele>
	<time>2023-08-09T07:54:14.000Z</time>
</trkpt>
<trkpt lat="46.1673070" lon="10.4651240">
	<ele>2468.60</ele>
	<time>2023-08-09T07:54:15.000Z</time>
</trkpt>
<trkpt lat="46.1673070" lon="10.4651240">
	<ele>2468.80</ele>
	<time>2023-08-09T07:54:16.000Z</time>
</trkpt>
<trkpt lat="46.1673070" lon="10.4651240">
	<ele>2468.80</ele>
	<time>2023-08-09T07:54:17.000Z</time>
</trkpt>
<trkpt lat="46.1673070" lon="10.4651240">
	<ele>2468.80</ele>
	<time>2023-08-09T07:54:18.000Z</time>
</trkpt>
<trkpt lat="46.1673070" lon="10.4651240">
	<ele>2468.80</ele>
	<time>2023-08-09T07:54:19.000Z</time>
</trkpt>
<trkpt lat="46.1673070" lon="10.4651240">
	<ele>2468.60</ele>
	<time>2023-08-09T07:54:20.000Z</time>
</trkpt>
<trkpt lat="46.1673070" lon="10.4651240">
	<ele>2468.40</ele>
	<time>2023-08-09T07:54:21.000Z</time>
</trkpt>
<trkpt lat="46.1673080" lon="10.4651240">
	<ele>2468.20</ele>
	<time>2023-08-09T07:54:22.000Z</time>
</trkpt>
<trkpt lat="46.1673080" lon="10.4651240">
	<ele>2468.00</ele>
	<time>2023-08-09T07:54:23.000Z</time>
</trkpt>
<trkpt lat="46.1673080" lon="10.4651240">
	<ele>2467.80</ele>
	<time>2023-08-09T07:54:24.000Z</time>
</trkpt>
<trkpt lat="46.1673090" lon="10.4651240">
	<ele>2467.80</ele>
	<time>2023-08-09T07:54:25.000Z</time>
</trkpt>
<trkpt lat="46.1673100" lon="10.4651240">
	<ele>2467.80</ele>
	<time>2023-08-09T07:54:26.000Z</time>
</trkpt>
<trkpt lat="46.1673100" lon="10.4651240">
	<ele>2467.60</ele>
	<time>2023-08-09T07:54:27.000Z</time>
</trkpt>
<trkpt lat="46.1673110" lon="10.4651240">
	<ele>2467.60</ele>
	<time>2023-08-09T07:54:28.000Z</time>
</trkpt>
<trkpt lat="46.1673110" lon="10.4651240">
	<ele>2467.60</ele>
	<time>2023-08-09T07:54:29.000Z</time>
</trkpt>
<trkpt lat="46.1673110" lon="10.4651250">
	<ele>2467.60</ele>
	<time>2023-08-09T07:54:30.000Z</time>
</trkpt>
<trkpt lat="46.1673110" lon="10.4651250">
	<ele>2467.60</ele>
	<time>2023-08-09T07:54:31.000Z</time>
</trkpt>
<trkpt lat="46.1673110" lon="10.4651250">
	<ele>2467.40</ele>
	<time>2023-08-09T07:54:32.000Z</time>
</trkpt>
<trkpt lat="46.1673110" lon="10.4651250">
	<ele>2467.40</ele>
	<time>2023-08-09T07:54:33.000Z</time>
</trkpt>
<trkpt lat="46.1673120" lon="10.4651250">
	<ele>2467.20</ele>
	<time>2023-08-09T07:54:34.000Z</time>
</trkpt>
<trkpt lat="46.1673170" lon="10.4651260">
	<ele>2467.20</ele>
	<time>2023-08-09T07:54:35.000Z</time>
</trkpt>
<trkpt lat="46.1673190" lon="10.4651260">
	<ele>2467.00</ele>
	<time>2023-08-09T07:54:36.000Z</time>
</trkpt>
<trkpt lat="46.1673220" lon="10.4651260">
	<ele>2467.00</ele>
	<time>2023-08-09T07:54:37.000Z</time>
</trkpt>
<trkpt lat="46.1673240" lon="10.4651270">
	<ele>2466.80</ele>
	<time>2023-08-09T07:54:38.000Z</time>
</trkpt>
<trkpt lat="46.1673260" lon="10.4651270">
	<ele>2466.60</ele>
	<time>2023-08-09T07:54:39.000Z</time>
</trkpt>
<trkpt lat="46.1673310" lon="10.4651310">
	<ele>2466.40</ele>
	<time>2023-08-09T07:54:40.000Z</time>
</trkpt>
<trkpt lat="46.1673430" lon="10.4651420">
	<ele>2466.20</ele>
	<time>2023-08-09T07:54:41.000Z</time>
</trkpt>
<trkpt lat="46.1673560" lon="10.4651500">
	<ele>2466.20</ele>
	<time>2023-08-09T07:54:42.000Z</time>
</trkpt>
<trkpt lat="46.1673660" lon="10.4651560">
	<ele>2466.00</ele>
	<time>2023-08-09T07:54:43.000Z</time>
</trkpt>
<trkpt lat="46.1673790" lon="10.4651600">
	<ele>2466.00</ele>
	<time>2023-08-09T07:54:44.000Z</time>
</trkpt>
<trkpt lat="46.1673910" lon="10.4651670">
	<ele>2465.80</ele>
	<time>2023-08-09T07:54:45.000Z</time>
</trkpt>
<trkpt lat="46.1674020" lon="10.4651730">
	<ele>2465.80</ele>
	<time>2023-08-09T07:54:46.000Z</time>
</trkpt>
<trkpt lat="46.1674140" lon="10.4651810">
	<ele>2465.60</ele>
	<time>2023-08-09T07:54:47.000Z</time>
</trkpt>
<trkpt lat="46.1674240" lon="10.4651900">
	<ele>2465.40</ele>
	<time>2023-08-09T07:54:48.000Z</time>
</trkpt>
<trkpt lat="46.1674350" lon="10.4652010">
	<ele>2465.20</ele>
	<time>2023-08-09T07:54:49.000Z</time>
</trkpt>
<trkpt lat="46.1674340" lon="10.4652120">
	<ele>2465.00</ele>
	<time>2023-08-09T07:54:50.000Z</time>
</trkpt>
<trkpt lat="46.1674320" lon="10.4652230">
	<ele>2465.00</ele>
	<time>2023-08-09T07:54:51.000Z</time>
</trkpt>
<trkpt lat="46.1674320" lon="10.4652300">
	<ele>2464.80</ele>
	<time>2023-08-09T07:54:52.000Z</time>
</trkpt>
<trkpt lat="46.1674280" lon="10.4652390">
	<ele>2464.80</ele>
	<time>2023-08-09T07:54:53.000Z</time>
</trkpt>
<trkpt lat="46.1674250" lon="10.4652470">
	<ele>2464.80</ele>
	<time>2023-08-09T07:54:54.000Z</time>
</trkpt>
<trkpt lat="46.1674260" lon="10.4652490">
	<ele>2464.60</ele>
	<time>2023-08-09T07:54:55.000Z</time>
</trkpt>
<trkpt lat="46.1674260" lon="10.4652520">
	<ele>2464.60</ele>
	<time>2023-08-09T07:54:56.000Z</time>
</trkpt>
<trkpt lat="46.1674270" lon="10.4652580">
	<ele>2464.40</ele>
	<time>2023-08-09T07:54:57.000Z</time>
</trkpt>
<trkpt lat="46.1674310" lon="10.4652630">
	<ele>2464.00</ele>
	<time>2023-08-09T07:54:58.000Z</time>
</trkpt>
<trkpt lat="46.1674340" lon="10.4652730">
	<ele>2463.60</ele>
	<time>2023-08-09T07:54:59.000Z</time>
</trkpt>
<trkpt lat="46.1674370" lon="10.4652820">
	<ele>2463.40</ele>
	<time>2023-08-09T07:55:00.000Z</time>
</trkpt>
<trkpt lat="46.1674390" lon="10.4652900">
	<ele>2463.20</ele>
	<time>2023-08-09T07:55:01.000Z</time>
</trkpt>
<trkpt lat="46.1674400" lon="10.4652970">
	<ele>2463.00</ele>
	<time>2023-08-09T07:55:02.000Z</time>
</trkpt>
<trkpt lat="46.1674420" lon="10.4653070">
	<ele>2463.00</ele>
	<time>2023-08-09T07:55:03.000Z</time>
</trkpt>
<trkpt lat="46.1674480" lon="10.4653150">
	<ele>2462.60</ele>
	<time>2023-08-09T07:55:04.000Z</time>
</trkpt>
<trkpt lat="46.1674540" lon="10.4653220">
	<ele>2462.40</ele>
	<time>2023-08-09T07:55:05.000Z</time>
</trkpt>
<trkpt lat="46.1674590" lon="10.4653300">
	<ele>2462.20</ele>
	<time>2023-08-09T07:55:06.000Z</time>
</trkpt>
<trkpt lat="46.1674670" lon="10.4653360">
	<ele>2462.00</ele>
	<time>2023-08-09T07:55:07.000Z</time>
</trkpt>
<trkpt lat="46.1674740" lon="10.4653440">
	<ele>2461.80</ele>
	<time>2023-08-09T07:55:08.000Z</time>
</trkpt>
<trkpt lat="46.1674830" lon="10.4653520">
	<ele>2461.60</ele>
	<time>2023-08-09T07:55:09.000Z</time>
</trkpt>
<trkpt lat="46.1674900" lon="10.4653590">
	<ele>2461.60</ele>
	<time>2023-08-09T07:55:10.000Z</time>
</trkpt>
<trkpt lat="46.1674970" lon="10.4653650">
	<ele>2461.40</ele>
	<time>2023-08-09T07:55:11.000Z</time>
</trkpt>
<trkpt lat="46.1675020" lon="10.4653720">
	<ele>2461.40</ele>
	<time>2023-08-09T07:55:12.000Z</time>
</trkpt>
<trkpt lat="46.1675050" lon="10.4653800">
	<ele>2461.20</ele>
	<time>2023-08-09T07:55:13.000Z</time>
</trkpt>
<trkpt lat="46.1675070" lon="10.4653870">
	<ele>2461.20</ele>
	<time>2023-08-09T07:55:14.000Z</time>
</trkpt>
<trkpt lat="46.1675100" lon="10.4653940">
	<ele>2461.00</ele>
	<time>2023-08-09T07:55:15.000Z</time>
</trkpt>
<trkpt lat="46.1675170" lon="10.4653980">
	<ele>2461.00</ele>
	<time>2023-08-09T07:55:16.000Z</time>
</trkpt>
<trkpt lat="46.1675200" lon="10.4654020">
	<ele>2461.00</ele>
	<time>2023-08-09T07:55:17.000Z</time>
</trkpt>
<trkpt lat="46.1675190" lon="10.4654130">
	<ele>2461.00</ele>
	<time>2023-08-09T07:55:18.000Z</time>
</trkpt>
<trkpt lat="46.1675180" lon="10.4654240">
	<ele>2460.60</ele>
	<time>2023-08-09T07:55:19.000Z</time>
</trkpt>
<trkpt lat="46.1675180" lon="10.4654350">
	<ele>2460.40</ele>
	<time>2023-08-09T07:55:20.000Z</time>
</trkpt>
<trkpt lat="46.1675150" lon="10.4654470">
	<ele>2460.20</ele>
	<time>2023-08-09T07:55:21.000Z</time>
</trkpt>
<trkpt lat="46.1675130" lon="10.4654600">
	<ele>2460.00</ele>
	<time>2023-08-09T07:55:22.000Z</time>
</trkpt>
<trkpt lat="46.1675110" lon="10.4654690">
	<ele>2459.80</ele>
	<time>2023-08-09T07:55:23.000Z</time>
</trkpt>
<trkpt lat="46.1675120" lon="10.4654780">
	<ele>2459.60</ele>
	<time>2023-08-09T07:55:24.000Z</time>
</trkpt>
<trkpt lat="46.1675140" lon="10.4654920">
	<ele>2459.40</ele>
	<time>2023-08-09T07:55:25.000Z</time>
</trkpt>
<trkpt lat="46.1675180" lon="10.4655060">
	<ele>2459.20</ele>
	<time>2023-08-09T07:55:26.000Z</time>
</trkpt>
<trkpt lat="46.1675210" lon="10.4655180">
	<ele>2459.00</ele>
	<time>2023-08-09T07:55:27.000Z</time>
</trkpt>
<trkpt lat="46.1675230" lon="10.4655300">
	<ele>2458.80</ele>
	<time>2023-08-09T07:55:28.000Z</time>
</trkpt>
<trkpt lat="46.1675260" lon="10.4655430">
	<ele>2458.40</ele>
	<time>2023-08-09T07:55:29.000Z</time>
</trkpt>
<trkpt lat="46.1675310" lon="10.4655570">
	<ele>2458.00</ele>
	<time>2023-08-09T07:55:30.000Z</time>
</trkpt>
<trkpt lat="46.1675350" lon="10.4655680">
	<ele>2457.60</ele>
	<time>2023-08-09T07:55:31.000Z</time>
</trkpt>
<trkpt lat="46.1675380" lon="10.4655770">
	<ele>2457.40</ele>
	<time>2023-08-09T07:55:32.000Z</time>
</trkpt>
<trkpt lat="46.1675420" lon="10.4655880">
	<ele>2457.20</ele>
	<time>2023-08-09T07:55:33.000Z</time>
</trkpt>
<trkpt lat="46.1675480" lon="10.4655940">
	<ele>2457.20</ele>
	<time>2023-08-09T07:55:34.000Z</time>
</trkpt>
<trkpt lat="46.1675510" lon="10.4656000">
	<ele>2457.00</ele>
	<time>2023-08-09T07:55:35.000Z</time>
</trkpt>
<trkpt lat="46.1675490" lon="10.4656090">
	<ele>2456.80</ele>
	<time>2023-08-09T07:55:36.000Z</time>
</trkpt>
<trkpt lat="46.1675470" lon="10.4656180">
	<ele>2456.40</ele>
	<time>2023-08-09T07:55:37.000Z</time>
</trkpt>
<trkpt lat="46.1675450" lon="10.4656280">
	<ele>2456.20</ele>
	<time>2023-08-09T07:55:38.000Z</time>
</trkpt>
<trkpt lat="46.1675430" lon="10.4656380">
	<ele>2456.00</ele>
	<time>2023-08-09T07:55:39.000Z</time>
</trkpt>
<trkpt lat="46.1675450" lon="10.4656460">
	<ele>2455.60</ele>
	<time>2023-08-09T07:55:40.000Z</time>
</trkpt>
<trkpt lat="46.1675480" lon="10.4656570">
	<ele>2455.40</ele>
	<time>2023-08-09T07:55:41.000Z</time>
</trkpt>
<trkpt lat="46.1675480" lon="10.4656660">
	<ele>2455.00</ele>
	<time>2023-08-09T07:55:42.000Z</time>
</trkpt>
<trkpt lat="46.1675510" lon="10.4656760">
	<ele>2454.80</ele>
	<time>2023-08-09T07:55:43.000Z</time>
</trkpt>
<trkpt lat="46.1675560" lon="10.4656870">
	<ele>2454.40</ele>
	<time>2023-08-09T07:55:44.000Z</time>
</trkpt>
<trkpt lat="46.1675570" lon="10.4656990">
	<ele>2454.20</ele>
	<time>2023-08-09T07:55:45.000Z</time>
</trkpt>
<trkpt lat="46.1675610" lon="10.4657080">
	<ele>2453.80</ele>
	<time>2023-08-09T07:55:46.000Z</time>
</trkpt>
<trkpt lat="46.1675650" lon="10.4657150">
	<ele>2453.60</ele>
	<time>2023-08-09T07:55:47.000Z</time>
</trkpt>
<trkpt lat="46.1675660" lon="10.4657260">
	<ele>2453.40</ele>
	<time>2023-08-09T07:55:48.000Z</time>
</trkpt>
<trkpt lat="46.1675700" lon="10.4657340">
	<ele>2453.40</ele>
	<time>2023-08-09T07:55:49.000Z</time>
</trkpt>
<trkpt lat="46.1675720" lon="10.4657430">
	<ele>2453.20</ele>
	<time>2023-08-09T07:55:50.000Z</time>
</trkpt>
<trkpt lat="46.1675740" lon="10.4657520">
	<ele>2453.00</ele>
	<time>2023-08-09T07:55:51.000Z</time>
</trkpt>
<trkpt lat="46.1675780" lon="10.4657580">
	<ele>2452.80</ele>
	<time>2023-08-09T07:55:52.000Z</time>
</trkpt>
<trkpt lat="46.1675830" lon="10.4657680">
	<ele>2452.60</ele>
	<time>2023-08-09T07:55:53.000Z</time>
</trkpt>
<trkpt lat="46.1675850" lon="10.4657770">
	<ele>2452.40</ele>
	<time>2023-08-09T07:55:54.000Z</time>
</trkpt>
<trkpt lat="46.1675860" lon="10.4657850">
	<ele>2452.20</ele>
	<time>2023-08-09T07:55:55.000Z</time>
</trkpt>
<trkpt lat="46.1675870" lon="10.4657920">
	<ele>2452.00</ele>
	<time>2023-08-09T07:55:56.000Z</time>
</trkpt>
<trkpt lat="46.1675880" lon="10.4657970">
	<ele>2451.60</ele>
	<time>2023-08-09T07:55:57.000Z</time>
</trkpt>
<trkpt lat="46.1675920" lon="10.4658020">
	<ele>2451.40</ele>
	<time>2023-08-09T07:55:58.000Z</time>
</trkpt>
<trkpt lat="46.1675960" lon="10.4658080">
	<ele>2451.20</ele>
	<time>2023-08-09T07:55:59.000Z</time>
</trkpt>
<trkpt lat="46.1675990" lon="10.4658190">
	<ele>2451.00</ele>
	<time>2023-08-09T07:56:00.000Z</time>
</trkpt>
<trkpt lat="46.1676030" lon="10.4658260">
	<ele>2451.00</ele>
	<time>2023-08-09T07:56:01.000Z</time>
</trkpt>
<trkpt lat="46.1676060" lon="10.4658380">
	<ele>2450.80</ele>
	<time>2023-08-09T07:56:02.000Z</time>
</trkpt>
<trkpt lat="46.1676080" lon="10.4658490">
	<ele>2450.60</ele>
	<time>2023-08-09T07:56:03.000Z</time>
</trkpt>
<trkpt lat="46.1676110" lon="10.4658540">
	<ele>2450.40</ele>
	<time>2023-08-09T07:56:04.000Z</time>
</trkpt>
<trkpt lat="46.1676120" lon="10.4658550">
	<ele>2450.00</ele>
	<time>2023-08-09T07:56:05.000Z</time>
</trkpt>
<trkpt lat="46.1676120" lon="10.4658610">
	<ele>2449.80</ele>
	<time>2023-08-09T07:56:06.000Z</time>
</trkpt>
<trkpt lat="46.1676130" lon="10.4658610">
	<ele>2449.60</ele>
	<time>2023-08-09T07:56:07.000Z</time>
</trkpt>
<trkpt lat="46.1676120" lon="10.4658630">
	<ele>2449.40</ele>
	<time>2023-08-09T07:56:08.000Z</time>
</trkpt>
<trkpt lat="46.1676100" lon="10.4658630">
	<ele>2449.40</ele>
	<time>2023-08-09T07:56:09.000Z</time>
</trkpt>
<trkpt lat="46.1676100" lon="10.4658620">
	<ele>2449.40</ele>
	<time>2023-08-09T07:56:10.000Z</time>
</trkpt>
<trkpt lat="46.1676120" lon="10.4658590">
	<ele>2449.40</ele>
	<time>2023-08-09T07:56:11.000Z</time>
</trkpt>
<trkpt lat="46.1676130" lon="10.4658580">
	<ele>2449.40</ele>
	<time>2023-08-09T07:56:12.000Z</time>
</trkpt>
<trkpt lat="46.1676140" lon="10.4658540">
	<ele>2449.40</ele>
	<time>2023-08-09T07:56:13.000Z</time>
</trkpt>
<trkpt lat="46.1676160" lon="10.4658510">
	<ele>2449.40</ele>
	<time>2023-08-09T07:56:14.000Z</time>
</trkpt>
<trkpt lat="46.1676160" lon="10.4658440">
	<ele>2449.40</ele>
	<time>2023-08-09T07:56:15.000Z</time>
</trkpt>
<trkpt lat="46.1676160" lon="10.4658440">
	<ele>2449.40</ele>
	<time>2023-08-09T07:56:16.000Z</time>
</trkpt>
<trkpt lat="46.1676170" lon="10.4658480">
	<ele>2449.40</ele>
	<time>2023-08-09T07:56:17.000Z</time>
</trkpt>
<trkpt lat="46.1676180" lon="10.4658510">
	<ele>2449.40</ele>
	<time>2023-08-09T07:56:18.000Z</time>
</trkpt>
<trkpt lat="46.1676180" lon="10.4658520">
	<ele>2449.40</ele>
	<time>2023-08-09T07:56:19.000Z</time>
</trkpt>
<trkpt lat="46.1676180" lon="10.4658520">
	<ele>2449.40</ele>
	<time>2023-08-09T07:56:20.000Z</time>
</trkpt>
<trkpt lat="46.1676180" lon="10.4658520">
	<ele>2449.40</ele>
	<time>2023-08-09T07:56:21.000Z</time>
</trkpt>
<trkpt lat="46.1676180" lon="10.4658520">
	<ele>2449.40</ele>
	<time>2023-08-09T07:56:22.000Z</time>
</trkpt>
<trkpt lat="46.1676180" lon="10.4658520">
	<ele>2449.40</ele>
	<time>2023-08-09T07:56:23.000Z</time>
</trkpt>
<trkpt lat="46.1676180" lon="10.4658520">
	<ele>2449.40</ele>
	<time>2023-08-09T07:56:24.000Z</time>
</trkpt>
<trkpt lat="46.1676180" lon="10.4658520">
	<ele>2449.60</ele>
	<time>2023-08-09T07:56:25.000Z</time>
</trkpt>
<trkpt lat="46.1676180" lon="10.4658520">
	<ele>2449.60</ele>
	<time>2023-08-09T07:56:26.000Z</time>
</trkpt>
<trkpt lat="46.1676180" lon="10.4658520">
	<ele>2449.60</ele>
	<time>2023-08-09T07:56:27.000Z</time>
</trkpt>
<trkpt lat="46.1676180" lon="10.4658520">
	<ele>2449.60</ele>
	<time>2023-08-09T07:56:28.000Z</time>
</trkpt>
<trkpt lat="46.1676180" lon="10.4658520">
	<ele>2449.60</ele>
	<time>2023-08-09T07:56:29.000Z</time>
</trkpt>
<trkpt lat="46.1676180" lon="10.4658520">
	<ele>2449.80</ele>
	<time>2023-08-09T07:56:30.000Z</time>
</trkpt>
<trkpt lat="46.1676170" lon="10.4658520">
	<ele>2449.80</ele>
	<time>2023-08-09T07:56:31.000Z</time>
</trkpt>
<trkpt lat="46.1676170" lon="10.4658520">
	<ele>2449.60</ele>
	<time>2023-08-09T07:56:32.000Z</time>
</trkpt>
<trkpt lat="46.1676170" lon="10.4658520">
	<ele>2449.60</ele>
	<time>2023-08-09T07:56:33.000Z</time>
</trkpt>
<trkpt lat="46.1676160" lon="10.4658520">
	<ele>2449.60</ele>
	<time>2023-08-09T07:56:34.000Z</time>
</trkpt>
<trkpt lat="46.1676160" lon="10.4658540">
	<ele>2449.60</ele>
	<time>2023-08-09T07:56:35.000Z</time>
</trkpt>
<trkpt lat="46.1676160" lon="10.4658550">
	<ele>2449.60</ele>
	<time>2023-08-09T07:56:36.000Z</time>
</trkpt>
<trkpt lat="46.1676160" lon="10.4658560">
	<ele>2449.60</ele>
	<time>2023-08-09T07:56:37.000Z</time>
</trkpt>
<trkpt lat="46.1676150" lon="10.4658570">
	<ele>2449.40</ele>
	<time>2023-08-09T07:56:38.000Z</time>
</trkpt>
<trkpt lat="46.1676140" lon="10.4658570">
	<ele>2449.40</ele>
	<time>2023-08-09T07:56:39.000Z</time>
</trkpt>
<trkpt lat="46.1676140" lon="10.4658570">
	<ele>2449.40</ele>
	<time>2023-08-09T07:56:40.000Z</time>
</trkpt>
<trkpt lat="46.1676140" lon="10.4658570">
	<ele>2449.40</ele>
	<time>2023-08-09T07:56:41.000Z</time>
</trkpt>
<trkpt lat="46.1676140" lon="10.4658570">
	<ele>2449.40</ele>
	<time>2023-08-09T07:56:42.000Z</time>
</trkpt>
<trkpt lat="46.1676140" lon="10.4658580">
	<ele>2449.40</ele>
	<time>2023-08-09T07:56:43.000Z</time>
</trkpt>
<trkpt lat="46.1676130" lon="10.4658580">
	<ele>2449.40</ele>
	<time>2023-08-09T07:56:44.000Z</time>
</trkpt>
<trkpt lat="46.1676130" lon="10.4658580">
	<ele>2449.40</ele>
	<time>2023-08-09T07:56:45.000Z</time>
</trkpt>
<trkpt lat="46.1676130" lon="10.4658580">
	<ele>2449.40</ele>
	<time>2023-08-09T07:56:46.000Z</time>
</trkpt>
<trkpt lat="46.1676120" lon="10.4658580">
	<ele>2449.20</ele>
	<time>2023-08-09T07:56:47.000Z</time>
</trkpt>
<trkpt lat="46.1676120" lon="10.4658580">
	<ele>2449.00</ele>
	<time>2023-08-09T07:56:48.000Z</time>
</trkpt>
<trkpt lat="46.1676120" lon="10.4658580">
	<ele>2448.80</ele>
	<time>2023-08-09T07:56:49.000Z</time>
</trkpt>
<trkpt lat="46.1676110" lon="10.4658590">
	<ele>2448.80</ele>
	<time>2023-08-09T07:56:50.000Z</time>
</trkpt>
<trkpt lat="46.1676110" lon="10.4658590">
	<ele>2448.60</ele>
	<time>2023-08-09T07:56:51.000Z</time>
</trkpt>
<trkpt lat="46.1676110" lon="10.4658590">
	<ele>2448.40</ele>
	<time>2023-08-09T07:56:52.000Z</time>
</trkpt>
<trkpt lat="46.1676110" lon="10.4658600">
	<ele>2448.00</ele>
	<time>2023-08-09T07:56:53.000Z</time>
</trkpt>
<trkpt lat="46.1676100" lon="10.4658600">
	<ele>2448.00</ele>
	<time>2023-08-09T07:56:54.000Z</time>
</trkpt>
<trkpt lat="46.1676100" lon="10.4658600">
	<ele>2447.60</ele>
	<time>2023-08-09T07:56:55.000Z</time>
</trkpt>
<trkpt lat="46.1676100" lon="10.4658600">
	<ele>2447.20</ele>
	<time>2023-08-09T07:56:56.000Z</time>
</trkpt>
<trkpt lat="46.1676100" lon="10.4658600">
	<ele>2447.00</ele>
	<time>2023-08-09T07:56:57.000Z</time>
</trkpt>
<trkpt lat="46.1676100" lon="10.4658600">
	<ele>2446.80</ele>
	<time>2023-08-09T07:56:58.000Z</time>
</trkpt>
<trkpt lat="46.1676100" lon="10.4658620">
	<ele>2446.60</ele>
	<time>2023-08-09T07:56:59.000Z</time>
</trkpt>
<trkpt lat="46.1676100" lon="10.4658630">
	<ele>2446.40</ele>
	<time>2023-08-09T07:57:00.000Z</time>
</trkpt>
<trkpt lat="46.1676100" lon="10.4658650">
	<ele>2446.20</ele>
	<time>2023-08-09T07:57:01.000Z</time>
</trkpt>
<trkpt lat="46.1676100" lon="10.4658650">
	<ele>2446.20</ele>
	<time>2023-08-09T07:57:02.000Z</time>
</trkpt>
<trkpt lat="46.1676100" lon="10.4658660">
	<ele>2446.00</ele>
	<time>2023-08-09T07:57:03.000Z</time>
</trkpt>
<trkpt lat="46.1676100" lon="10.4658670">
	<ele>2446.00</ele>
	<time>2023-08-09T07:57:04.000Z</time>
</trkpt>
<trkpt lat="46.1676100" lon="10.4658710">
	<ele>2446.00</ele>
	<time>2023-08-09T07:57:05.000Z</time>
</trkpt>
<trkpt lat="46.1676100" lon="10.4658750">
	<ele>2446.00</ele>
	<time>2023-08-09T07:57:06.000Z</time>
</trkpt>
<trkpt lat="46.1676100" lon="10.4658790">
	<ele>2446.00</ele>
	<time>2023-08-09T07:57:07.000Z</time>
</trkpt>
<trkpt lat="46.1676100" lon="10.4658830">
	<ele>2446.00</ele>
	<time>2023-08-09T07:57:08.000Z</time>
</trkpt>
<trkpt lat="46.1676140" lon="10.4658850">
	<ele>2446.00</ele>
	<time>2023-08-09T07:57:09.000Z</time>
</trkpt>
<trkpt lat="46.1676180" lon="10.4658880">
	<ele>2446.00</ele>
	<time>2023-08-09T07:57:10.000Z</time>
</trkpt>
<trkpt lat="46.1676230" lon="10.4658910">
	<ele>2446.00</ele>
	<time>2023-08-09T07:57:11.000Z</time>
</trkpt>
<trkpt lat="46.1676290" lon="10.4658980">
	<ele>2446.00</ele>
	<time>2023-08-09T07:57:12.000Z</time>
</trkpt>
<trkpt lat="46.1676360" lon="10.4659040">
	<ele>2446.00</ele>
	<time>2023-08-09T07:57:13.000Z</time>
</trkpt>
<trkpt lat="46.1676410" lon="10.4659090">
	<ele>2446.00</ele>
	<time>2023-08-09T07:57:14.000Z</time>
</trkpt>
<trkpt lat="46.1676480" lon="10.4659110">
	<ele>2446.00</ele>
	<time>2023-08-09T07:57:15.000Z</time>
</trkpt>
<trkpt lat="46.1676520" lon="10.4659140">
	<ele>2446.00</ele>
	<time>2023-08-09T07:57:16.000Z</time>
</trkpt>
<trkpt lat="46.1676540" lon="10.4659150">
	<ele>2446.00</ele>
	<time>2023-08-09T07:57:17.000Z</time>
</trkpt>
<trkpt lat="46.1676540" lon="10.4659160">
	<ele>2446.00</ele>
	<time>2023-08-09T07:57:18.000Z</time>
</trkpt>
<trkpt lat="46.1676550" lon="10.4659160">
	<ele>2446.20</ele>
	<time>2023-08-09T07:57:19.000Z</time>
</trkpt>
<trkpt lat="46.1676550" lon="10.4659160">
	<ele>2446.20</ele>
	<time>2023-08-09T07:57:20.000Z</time>
</trkpt>
<trkpt lat="46.1676550" lon="10.4659170">
	<ele>2446.20</ele>
	<time>2023-08-09T07:57:21.000Z</time>
</trkpt>
<trkpt lat="46.1676550" lon="10.4659170">
	<ele>2446.20</ele>
	<time>2023-08-09T07:57:22.000Z</time>
</trkpt>
<trkpt lat="46.1676550" lon="10.4659170">
	<ele>2446.20</ele>
	<time>2023-08-09T07:57:23.000Z</time>
</trkpt>
<trkpt lat="46.1676550" lon="10.4659170">
	<ele>2446.00</ele>
	<time>2023-08-09T07:57:24.000Z</time>
</trkpt>
<trkpt lat="46.1676550" lon="10.4659170">
	<ele>2446.00</ele>
	<time>2023-08-09T07:57:25.000Z</time>
</trkpt>
<trkpt lat="46.1676560" lon="10.4659170">
	<ele>2445.80</ele>
	<time>2023-08-09T07:57:26.000Z</time>
</trkpt>
<trkpt lat="46.1676560" lon="10.4659170">
	<ele>2445.80</ele>
	<time>2023-08-09T07:57:27.000Z</time>
</trkpt>
<trkpt lat="46.1676560" lon="10.4659180">
	<ele>2445.40</ele>
	<time>2023-08-09T07:57:28.000Z</time>
</trkpt>
<trkpt lat="46.1676570" lon="10.4659180">
	<ele>2445.20</ele>
	<time>2023-08-09T07:57:29.000Z</time>
</trkpt>
<trkpt lat="46.1676570" lon="10.4659180">
	<ele>2445.00</ele>
	<time>2023-08-09T07:57:30.000Z</time>
</trkpt>
<trkpt lat="46.1676580" lon="10.4659180">
	<ele>2445.00</ele>
	<time>2023-08-09T07:57:31.000Z</time>
</trkpt>
<trkpt lat="46.1676610" lon="10.4659190">
	<ele>2444.80</ele>
	<time>2023-08-09T07:57:32.000Z</time>
</trkpt>
<trkpt lat="46.1676630" lon="10.4659190">
	<ele>2444.60</ele>
	<time>2023-08-09T07:57:33.000Z</time>
</trkpt>
<trkpt lat="46.1676640" lon="10.4659190">
	<ele>2444.40</ele>
	<time>2023-08-09T07:57:34.000Z</time>
</trkpt>
<trkpt lat="46.1676650" lon="10.4659190">
	<ele>2444.20</ele>
	<time>2023-08-09T07:57:35.000Z</time>
</trkpt>
<trkpt lat="46.1676660" lon="10.4659200">
	<ele>2444.00</ele>
	<time>2023-08-09T07:57:36.000Z</time>
</trkpt>
<trkpt lat="46.1676660" lon="10.4659200">
	<ele>2443.60</ele>
	<time>2023-08-09T07:57:37.000Z</time>
</trkpt>
<trkpt lat="46.1676670" lon="10.4659230">
	<ele>2443.40</ele>
	<time>2023-08-09T07:57:38.000Z</time>
</trkpt>
<trkpt lat="46.1676710" lon="10.4659270">
	<ele>2443.20</ele>
	<time>2023-08-09T07:57:39.000Z</time>
</trkpt>
<trkpt lat="46.1676760" lon="10.4659310">
	<ele>2443.20</ele>
	<time>2023-08-09T07:57:40.000Z</time>
</trkpt>
<trkpt lat="46.1676820" lon="10.4659350">
	<ele>2443.00</ele>
	<time>2023-08-09T07:57:41.000Z</time>
</trkpt>
<trkpt lat="46.1676880" lon="10.4659390">
	<ele>2442.80</ele>
	<time>2023-08-09T07:57:42.000Z</time>
</trkpt>
<trkpt lat="46.1676930" lon="10.4659430">
	<ele>2442.80</ele>
	<time>2023-08-09T07:57:43.000Z</time>
</trkpt>
<trkpt lat="46.1676980" lon="10.4659480">
	<ele>2442.60</ele>
	<time>2023-08-09T07:57:44.000Z</time>
</trkpt>
<trkpt lat="46.1677020" lon="10.4659530">
	<ele>2442.40</ele>
	<time>2023-08-09T07:57:45.000Z</time>
</trkpt>
<trkpt lat="46.1677040" lon="10.4659560">
	<ele>2442.20</ele>
	<time>2023-08-09T07:57:46.000Z</time>
</trkpt>
<trkpt lat="46.1677060" lon="10.4659580">
	<ele>2442.00</ele>
	<time>2023-08-09T07:57:47.000Z</time>
</trkpt>
<trkpt lat="46.1677090" lon="10.4659630">
	<ele>2441.60</ele>
	<time>2023-08-09T07:57:48.000Z</time>
</trkpt>
<trkpt lat="46.1677110" lon="10.4659690">
	<ele>2441.40</ele>
	<time>2023-08-09T07:57:49.000Z</time>
</trkpt>
<trkpt lat="46.1677140" lon="10.4659780">
	<ele>2441.20</ele>
	<time>2023-08-09T07:57:50.000Z</time>
</trkpt>
<trkpt lat="46.1677160" lon="10.4659850">
	<ele>2441.00</ele>
	<time>2023-08-09T07:57:51.000Z</time>
</trkpt>
<trkpt lat="46.1677190" lon="10.4659910">
	<ele>2440.80</ele>
	<time>2023-08-09T07:57:52.000Z</time>
</trkpt>
<trkpt lat="46.1677220" lon="10.4659990">
	<ele>2440.80</ele>
	<time>2023-08-09T07:57:53.000Z</time>
</trkpt>
<trkpt lat="46.1677270" lon="10.4660060">
	<ele>2440.40</ele>
	<time>2023-08-09T07:57:54.000Z</time>
</trkpt>
<trkpt lat="46.1677310" lon="10.4660140">
	<ele>2440.00</ele>
	<time>2023-08-09T07:57:55.000Z</time>
</trkpt>
<trkpt lat="46.1677340" lon="10.4660210">
	<ele>2439.80</ele>
	<time>2023-08-09T07:57:56.000Z</time>
</trkpt>
<trkpt lat="46.1677390" lon="10.4660270">
	<ele>2439.60</ele>
	<time>2023-08-09T07:57:57.000Z</time>
</trkpt>
<trkpt lat="46.1677430" lon="10.4660340">
	<ele>2439.60</ele>
	<time>2023-08-09T07:57:58.000Z</time>
</trkpt>
<trkpt lat="46.1677460" lon="10.4660400">
	<ele>2439.40</ele>
	<time>2023-08-09T07:57:59.000Z</time>
</trkpt>
<trkpt lat="46.1677490" lon="10.4660460">
	<ele>2439.40</ele>
	<time>2023-08-09T07:58:00.000Z</time>
</trkpt>
<trkpt lat="46.1677510" lon="10.4660540">
	<ele>2439.40</ele>
	<time>2023-08-09T07:58:01.000Z</time>
</trkpt>
<trkpt lat="46.1677530" lon="10.4660610">
	<ele>2439.40</ele>
	<time>2023-08-09T07:58:02.000Z</time>
</trkpt>
<trkpt lat="46.1677540" lon="10.4660680">
	<ele>2439.40</ele>
	<time>2023-08-09T07:58:03.000Z</time>
</trkpt>
<trkpt lat="46.1677570" lon="10.4660730">
	<ele>2439.40</ele>
	<time>2023-08-09T07:58:04.000Z</time>
</trkpt>
<trkpt lat="46.1677590" lon="10.4660780">
	<ele>2439.20</ele>
	<time>2023-08-09T07:58:05.000Z</time>
</trkpt>
<trkpt lat="46.1677610" lon="10.4660850">
	<ele>2439.20</ele>
	<time>2023-08-09T07:58:06.000Z</time>
</trkpt>
<trkpt lat="46.1677640" lon="10.4660930">
	<ele>2439.00</ele>
	<time>2023-08-09T07:58:07.000Z</time>
</trkpt>
<trkpt lat="46.1677660" lon="10.4661020">
	<ele>2438.60</ele>
	<time>2023-08-09T07:58:08.000Z</time>
</trkpt>
<trkpt lat="46.1677690" lon="10.4661080">
	<ele>2438.40</ele>
	<time>2023-08-09T07:58:09.000Z</time>
</trkpt>
<trkpt lat="46.1677710" lon="10.4661120">
	<ele>2438.20</ele>
	<time>2023-08-09T07:58:10.000Z</time>
</trkpt>
<trkpt lat="46.1677740" lon="10.4661150">
	<ele>2438.00</ele>
	<time>2023-08-09T07:58:11.000Z</time>
</trkpt>
<trkpt lat="46.1677770" lon="10.4661190">
	<ele>2438.00</ele>
	<time>2023-08-09T07:58:12.000Z</time>
</trkpt>
<trkpt lat="46.1677820" lon="10.4661240">
	<ele>2437.80</ele>
	<time>2023-08-09T07:58:13.000Z</time>
</trkpt>
<trkpt lat="46.1677870" lon="10.4661290">
	<ele>2437.80</ele>
	<time>2023-08-09T07:58:14.000Z</time>
</trkpt>
<trkpt lat="46.1677920" lon="10.4661350">
	<ele>2437.80</ele>
	<time>2023-08-09T07:58:15.000Z</time>
</trkpt>
<trkpt lat="46.1677950" lon="10.4661430">
	<ele>2437.80</ele>
	<time>2023-08-09T07:58:16.000Z</time>
</trkpt>
<trkpt lat="46.1677980" lon="10.4661500">
	<ele>2437.60</ele>
	<time>2023-08-09T07:58:17.000Z</time>
</trkpt>
<trkpt lat="46.1678000" lon="10.4661570">
	<ele>2437.40</ele>
	<time>2023-08-09T07:58:18.000Z</time>
</trkpt>
<trkpt lat="46.1678020" lon="10.4661620">
	<ele>2437.20</ele>
	<time>2023-08-09T07:58:19.000Z</time>
</trkpt>
<trkpt lat="46.1678040" lon="10.4661650">
	<ele>2437.20</ele>
	<time>2023-08-09T07:58:20.000Z</time>
</trkpt>
<trkpt lat="46.1678080" lon="10.4661670">
	<ele>2437.00</ele>
	<time>2023-08-09T07:58:21.000Z</time>
</trkpt>
<trkpt lat="46.1678140" lon="10.4661700">
	<ele>2437.00</ele>
	<time>2023-08-09T07:58:22.000Z</time>
</trkpt>
<trkpt lat="46.1678200" lon="10.4661720">
	<ele>2436.80</ele>
	<time>2023-08-09T07:58:23.000Z</time>
</trkpt>
<trkpt lat="46.1678260" lon="10.4661750">
	<ele>2436.80</ele>
	<time>2023-08-09T07:58:24.000Z</time>
</trkpt>
<trkpt lat="46.1678310" lon="10.4661790">
	<ele>2436.60</ele>
	<time>2023-08-09T07:58:25.000Z</time>
</trkpt>
<trkpt lat="46.1678360" lon="10.4661850">
	<ele>2436.60</ele>
	<time>2023-08-09T07:58:26.000Z</time>
</trkpt>
<trkpt lat="46.1678420" lon="10.4661900">
	<ele>2436.40</ele>
	<time>2023-08-09T07:58:27.000Z</time>
</trkpt>
<trkpt lat="46.1678510" lon="10.4662000">
	<ele>2436.20</ele>
	<time>2023-08-09T07:58:28.000Z</time>
</trkpt>
<trkpt lat="46.1678600" lon="10.4662200">
	<ele>2436.00</ele>
	<time>2023-08-09T07:58:29.000Z</time>
</trkpt>
<trkpt lat="46.1678680" lon="10.4662420">
	<ele>2435.80</ele>
	<time>2023-08-09T07:58:30.000Z</time>
</trkpt>
<trkpt lat="46.1678780" lon="10.4662640">
	<ele>2435.60</ele>
	<time>2023-08-09T07:58:31.000Z</time>
</trkpt>
<trkpt lat="46.1678890" lon="10.4662860">
	<ele>2435.40</ele>
	<time>2023-08-09T07:58:32.000Z</time>
</trkpt>
<trkpt lat="46.1679010" lon="10.4663050">
	<ele>2435.20</ele>
	<time>2023-08-09T07:58:33.000Z</time>
</trkpt>
<trkpt lat="46.1679100" lon="10.4663270">
	<ele>2435.00</ele>
	<time>2023-08-09T07:58:34.000Z</time>
</trkpt>
<trkpt lat="46.1679240" lon="10.4663460">
	<ele>2434.60</ele>
	<time>2023-08-09T07:58:35.000Z</time>
</trkpt>
<trkpt lat="46.1679420" lon="10.4663650">
	<ele>2434.40</ele>
	<time>2023-08-09T07:58:36.000Z</time>
</trkpt>
<trkpt lat="46.1679560" lon="10.4663820">
	<ele>2434.20</ele>
	<time>2023-08-09T07:58:37.000Z</time>
</trkpt>
<trkpt lat="46.1679610" lon="10.4663870">
	<ele>2434.20</ele>
	<time>2023-08-09T07:58:38.000Z</time>
</trkpt>
<trkpt lat="46.1679660" lon="10.4663940">
	<ele>2434.00</ele>
	<time>2023-08-09T07:58:39.000Z</time>
</trkpt>
<trkpt lat="46.1679700" lon="10.4664040">
	<ele>2434.00</ele>
	<time>2023-08-09T07:58:40.000Z</time>
</trkpt>
<trkpt lat="46.1679780" lon="10.4664130">
	<ele>2433.80</ele>
	<time>2023-08-09T07:58:41.000Z</time>
</trkpt>
<trkpt lat="46.1679830" lon="10.4664230">
	<ele>2433.60</ele>
	<time>2023-08-09T07:58:42.000Z</time>
</trkpt>
<trkpt lat="46.1679880" lon="10.4664340">
	<ele>2433.60</ele>
	<time>2023-08-09T07:58:43.000Z</time>
</trkpt>
<trkpt lat="46.1679880" lon="10.4664420">
	<ele>2433.40</ele>
	<time>2023-08-09T07:58:44.000Z</time>
</trkpt>
<trkpt lat="46.1679880" lon="10.4664500">
	<ele>2433.20</ele>
	<time>2023-08-09T07:58:45.000Z</time>
</trkpt>
<trkpt lat="46.1679890" lon="10.4664580">
	<ele>2433.00</ele>
	<time>2023-08-09T07:58:46.000Z</time>
</trkpt>
<trkpt lat="46.1679860" lon="10.4664670">
	<ele>2433.00</ele>
	<time>2023-08-09T07:58:47.000Z</time>
</trkpt>
<trkpt lat="46.1679830" lon="10.4664730">
	<ele>2432.80</ele>
	<time>2023-08-09T07:58:48.000Z</time>
</trkpt>
<trkpt lat="46.1679750" lon="10.4664770">
	<ele>2432.80</ele>
	<time>2023-08-09T07:58:49.000Z</time>
</trkpt>
<trkpt lat="46.1679720" lon="10.4664810">
	<ele>2432.60</ele>
	<time>2023-08-09T07:58:50.000Z</time>
</trkpt>
<trkpt lat="46.1679700" lon="10.4664870">
	<ele>2432.40</ele>
	<time>2023-08-09T07:58:51.000Z</time>
</trkpt>
<trkpt lat="46.1679700" lon="10.4664900">
	<ele>2432.20</ele>
	<time>2023-08-09T07:58:52.000Z</time>
</trkpt>
<trkpt lat="46.1679710" lon="10.4664940">
	<ele>2432.20</ele>
	<time>2023-08-09T07:58:53.000Z</time>
</trkpt>
<trkpt lat="46.1679770" lon="10.4665030">
	<ele>2431.60</ele>
	<time>2023-08-09T07:58:54.000Z</time>
</trkpt>
<trkpt lat="46.1679820" lon="10.4665110">
	<ele>2431.20</ele>
	<time>2023-08-09T07:58:55.000Z</time>
</trkpt>
<trkpt lat="46.1679860" lon="10.4665200">
	<ele>2430.60</ele>
	<time>2023-08-09T07:58:56.000Z</time>
</trkpt>
<trkpt lat="46.1679850" lon="10.4665310">
	<ele>2430.40</ele>
	<time>2023-08-09T07:58:57.000Z</time>
</trkpt>
<trkpt lat="46.1679850" lon="10.4665420">
	<ele>2430.20</ele>
	<time>2023-08-09T07:58:58.000Z</time>
</trkpt>
<trkpt lat="46.1679830" lon="10.4665530">
	<ele>2430.00</ele>
	<time>2023-08-09T07:58:59.000Z</time>
</trkpt>
<trkpt lat="46.1679780" lon="10.4665570">
	<ele>2429.80</ele>
	<time>2023-08-09T07:59:00.000Z</time>
</trkpt>
<trkpt lat="46.1679700" lon="10.4665630">
	<ele>2429.60</ele>
	<time>2023-08-09T07:59:01.000Z</time>
</trkpt>
<trkpt lat="46.1679630" lon="10.4665660">
	<ele>2429.40</ele>
	<time>2023-08-09T07:59:02.000Z</time>
</trkpt>
<trkpt lat="46.1679610" lon="10.4665680">
	<ele>2429.20</ele>
	<time>2023-08-09T07:59:03.000Z</time>
</trkpt>
<trkpt lat="46.1679620" lon="10.4665740">
	<ele>2428.80</ele>
	<time>2023-08-09T07:59:04.000Z</time>
</trkpt>
<trkpt lat="46.1679560" lon="10.4665790">
	<ele>2428.60</ele>
	<time>2023-08-09T07:59:05.000Z</time>
</trkpt>
<trkpt lat="46.1679550" lon="10.4665830">
	<ele>2428.40</ele>
	<time>2023-08-09T07:59:06.000Z</time>
</trkpt>
<trkpt lat="46.1679530" lon="10.4665880">
	<ele>2428.20</ele>
	<time>2023-08-09T07:59:07.000Z</time>
</trkpt>
<trkpt lat="46.1679520" lon="10.4665970">
	<ele>2428.00</ele>
	<time>2023-08-09T07:59:08.000Z</time>
</trkpt>
<trkpt lat="46.1679530" lon="10.4666040">
	<ele>2427.80</ele>
	<time>2023-08-09T07:59:09.000Z</time>
</trkpt>
<trkpt lat="46.1679550" lon="10.4666120">
	<ele>2427.60</ele>
	<time>2023-08-09T07:59:10.000Z</time>
</trkpt>
<trkpt lat="46.1679570" lon="10.4666180">
	<ele>2427.20</ele>
	<time>2023-08-09T07:59:11.000Z</time>
</trkpt>
<trkpt lat="46.1679600" lon="10.4666230">
	<ele>2427.00</ele>
	<time>2023-08-09T07:59:12.000Z</time>
</trkpt>
<trkpt lat="46.1679650" lon="10.4666270">
	<ele>2426.80</ele>
	<time>2023-08-09T07:59:13.000Z</time>
</trkpt>
<trkpt lat="46.1679670" lon="10.4666350">
	<ele>2426.60</ele>
	<time>2023-08-09T07:59:14.000Z</time>
</trkpt>
<trkpt lat="46.1679660" lon="10.4666440">
	<ele>2426.20</ele>
	<time>2023-08-09T07:59:15.000Z</time>
</trkpt>
<trkpt lat="46.1679650" lon="10.4666540">
	<ele>2426.20</ele>
	<time>2023-08-09T07:59:16.000Z</time>
</trkpt>
<trkpt lat="46.1679610" lon="10.4666590">
	<ele>2425.80</ele>
	<time>2023-08-09T07:59:17.000Z</time>
</trkpt>
<trkpt lat="46.1679550" lon="10.4666630">
	<ele>2425.60</ele>
	<time>2023-08-09T07:59:18.000Z</time>
</trkpt>
<trkpt lat="46.1679510" lon="10.4666660">
	<ele>2425.40</ele>
	<time>2023-08-09T07:59:19.000Z</time>
</trkpt>
<trkpt lat="46.1679470" lon="10.4666690">
	<ele>2425.20</ele>
	<time>2023-08-09T07:59:20.000Z</time>
</trkpt>
<trkpt lat="46.1679410" lon="10.4666750">
	<ele>2425.00</ele>
	<time>2023-08-09T07:59:21.000Z</time>
</trkpt>
<trkpt lat="46.1679370" lon="10.4666810">
	<ele>2424.80</ele>
	<time>2023-08-09T07:59:22.000Z</time>
</trkpt>
<trkpt lat="46.1679310" lon="10.4666820">
	<ele>2424.60</ele>
	<time>2023-08-09T07:59:23.000Z</time>
</trkpt>
<trkpt lat="46.1679270" lon="10.4666850">
	<ele>2424.20</ele>
	<time>2023-08-09T07:59:24.000Z</time>
</trkpt>
<trkpt lat="46.1679220" lon="10.4666910">
	<ele>2424.00</ele>
	<time>2023-08-09T07:59:25.000Z</time>
</trkpt>
<trkpt lat="46.1679180" lon="10.4667020">
	<ele>2423.80</ele>
	<time>2023-08-09T07:59:26.000Z</time>
</trkpt>
<trkpt lat="46.1679070" lon="10.4667130">
	<ele>2423.60</ele>
	<time>2023-08-09T07:59:27.000Z</time>
</trkpt>
<trkpt lat="46.1678980" lon="10.4667250">
	<ele>2423.40</ele>
	<time>2023-08-09T07:59:28.000Z</time>
</trkpt>
<trkpt lat="46.1678920" lon="10.4667310">
	<ele>2423.40</ele>
	<time>2023-08-09T07:59:29.000Z</time>
</trkpt>
<trkpt lat="46.1678880" lon="10.4667340">
	<ele>2423.20</ele>
	<time>2023-08-09T07:59:30.000Z</time>
</trkpt>
<trkpt lat="46.1678850" lon="10.4667390">
	<ele>2423.00</ele>
	<time>2023-08-09T07:59:31.000Z</time>
</trkpt>
<trkpt lat="46.1678860" lon="10.4667420">
	<ele>2423.00</ele>
	<time>2023-08-09T07:59:32.000Z</time>
</trkpt>
<trkpt lat="46.1678850" lon="10.4667470">
	<ele>2422.80</ele>
	<time>2023-08-09T07:59:33.000Z</time>
</trkpt>
<trkpt lat="46.1678860" lon="10.4667500">
	<ele>2422.60</ele>
	<time>2023-08-09T07:59:34.000Z</time>
</trkpt>
<trkpt lat="46.1678840" lon="10.4667530">
	<ele>2422.40</ele>
	<time>2023-08-09T07:59:35.000Z</time>
</trkpt>
<trkpt lat="46.1678850" lon="10.4667530">
	<ele>2422.40</ele>
	<time>2023-08-09T07:59:36.000Z</time>
</trkpt>
<trkpt lat="46.1678850" lon="10.4667540">
	<ele>2422.00</ele>
	<time>2023-08-09T07:59:37.000Z</time>
</trkpt>
<trkpt lat="46.1678830" lon="10.4667540">
	<ele>2421.60</ele>
	<time>2023-08-09T07:59:38.000Z</time>
</trkpt>
<trkpt lat="46.1678870" lon="10.4667580">
	<ele>2421.40</ele>
	<time>2023-08-09T07:59:39.000Z</time>
</trkpt>
<trkpt lat="46.1678870" lon="10.4667580">
	<ele>2421.20</ele>
	<time>2023-08-09T07:59:40.000Z</time>
</trkpt>
<trkpt lat="46.1678850" lon="10.4667600">
	<ele>2421.20</ele>
	<time>2023-08-09T07:59:41.000Z</time>
</trkpt>
<trkpt lat="46.1678850" lon="10.4667630">
	<ele>2421.20</ele>
	<time>2023-08-09T07:59:42.000Z</time>
</trkpt>
<trkpt lat="46.1678840" lon="10.4667640">
	<ele>2421.20</ele>
	<time>2023-08-09T07:59:43.000Z</time>
</trkpt>
<trkpt lat="46.1678850" lon="10.4667640">
	<ele>2421.40</ele>
	<time>2023-08-09T07:59:44.000Z</time>
</trkpt>
<trkpt lat="46.1678850" lon="10.4667640">
	<ele>2421.60</ele>
	<time>2023-08-09T07:59:45.000Z</time>
</trkpt>
<trkpt lat="46.1678850" lon="10.4667640">
	<ele>2421.60</ele>
	<time>2023-08-09T07:59:46.000Z</time>
</trkpt>
<trkpt lat="46.1678850" lon="10.4667640">
	<ele>2421.80</ele>
	<time>2023-08-09T07:59:47.000Z</time>
</trkpt>
<trkpt lat="46.1678850" lon="10.4667640">
	<ele>2421.80</ele>
	<time>2023-08-09T07:59:48.000Z</time>
</trkpt>
<trkpt lat="46.1678850" lon="10.4667640">
	<ele>2421.80</ele>
	<time>2023-08-09T07:59:49.000Z</time>
</trkpt>
<trkpt lat="46.1678850" lon="10.4667640">
	<ele>2421.80</ele>
	<time>2023-08-09T07:59:50.000Z</time>
</trkpt>
<trkpt lat="46.1678850" lon="10.4667640">
	<ele>2422.00</ele>
	<time>2023-08-09T07:59:51.000Z</time>
</trkpt>
<trkpt lat="46.1678850" lon="10.4667640">
	<ele>2422.00</ele>
	<time>2023-08-09T07:59:52.000Z</time>
</trkpt>
<trkpt lat="46.1678850" lon="10.4667630">
	<ele>2422.00</ele>
	<time>2023-08-09T07:59:53.000Z</time>
</trkpt>
<trkpt lat="46.1678850" lon="10.4667620">
	<ele>2422.00</ele>
	<time>2023-08-09T07:59:54.000Z</time>
</trkpt>
<trkpt lat="46.1678850" lon="10.4667620">
	<ele>2422.00</ele>
	<time>2023-08-09T07:59:55.000Z</time>
</trkpt>
<trkpt lat="46.1678850" lon="10.4667620">
	<ele>2421.80</ele>
	<time>2023-08-09T07:59:56.000Z</time>
</trkpt>
<trkpt lat="46.1678850" lon="10.4667620">
	<ele>2421.60</ele>
	<time>2023-08-09T07:59:57.000Z</time>
</trkpt>
<trkpt lat="46.1678850" lon="10.4667620">
	<ele>2421.40</ele>
	<time>2023-08-09T07:59:58.000Z</time>
</trkpt>
<trkpt lat="46.1678850" lon="10.4667620">
	<ele>2421.00</ele>
	<time>2023-08-09T07:59:59.000Z</time>
</trkpt>
<trkpt lat="46.1678850" lon="10.4667620">
	<ele>2420.80</ele>
	<time>2023-08-09T08:00:00.000Z</time>
</trkpt>
<trkpt lat="46.1678850" lon="10.4667620">
	<ele>2420.80</ele>
	<time>2023-08-09T08:00:01.000Z</time>
</trkpt>
<trkpt lat="46.1678850" lon="10.4667620">
	<ele>2420.80</ele>
	<time>2023-08-09T08:00:02.000Z</time>
</trkpt>
<trkpt lat="46.1678850" lon="10.4667620">
	<ele>2420.80</ele>
	<time>2023-08-09T08:00:03.000Z</time>
</trkpt>
<trkpt lat="46.1678850" lon="10.4667620">
	<ele>2420.80</ele>
	<time>2023-08-09T08:00:04.000Z</time>
</trkpt>
<trkpt lat="46.1678850" lon="10.4667620">
	<ele>2420.60</ele>
	<time>2023-08-09T08:00:05.000Z</time>
</trkpt>
<trkpt lat="46.1678850" lon="10.4667620">
	<ele>2420.60</ele>
	<time>2023-08-09T08:00:06.000Z</time>
</trkpt>
<trkpt lat="46.1678850" lon="10.4667630">
	<ele>2420.60</ele>
	<time>2023-08-09T08:00:07.000Z</time>
</trkpt>
<trkpt lat="46.1678850" lon="10.4667630">
	<ele>2420.60</ele>
	<time>2023-08-09T08:00:08.000Z</time>
</trkpt>
<trkpt lat="46.1678850" lon="10.4667630">
	<ele>2420.60</ele>
	<time>2023-08-09T08:00:09.000Z</time>
</trkpt>
<trkpt lat="46.1678850" lon="10.4667640">
	<ele>2420.40</ele>
	<time>2023-08-09T08:00:10.000Z</time>
</trkpt>
<trkpt lat="46.1678850" lon="10.4667640">
	<ele>2420.20</ele>
	<time>2023-08-09T08:00:11.000Z</time>
</trkpt>
<trkpt lat="46.1678850" lon="10.4667640">
	<ele>2420.20</ele>
	<time>2023-08-09T08:00:12.000Z</time>
</trkpt>
<trkpt lat="46.1678850" lon="10.4667640">
	<ele>2420.00</ele>
	<time>2023-08-09T08:00:13.000Z</time>
</trkpt>
<trkpt lat="46.1678850" lon="10.4667640">
	<ele>2419.80</ele>
	<time>2023-08-09T08:00:14.000Z</time>
</trkpt>
<trkpt lat="46.1678850" lon="10.4667650">
	<ele>2419.60</ele>
	<time>2023-08-09T08:00:15.000Z</time>
</trkpt>
<trkpt lat="46.1678850" lon="10.4667660">
	<ele>2419.20</ele>
	<time>2023-08-09T08:00:16.000Z</time>
</trkpt>
<trkpt lat="46.1678850" lon="10.4667670">
	<ele>2419.00</ele>
	<time>2023-08-09T08:00:17.000Z</time>
</trkpt>
<trkpt lat="46.1678850" lon="10.4667670">
	<ele>2418.80</ele>
	<time>2023-08-09T08:00:18.000Z</time>
</trkpt>
<trkpt lat="46.1678850" lon="10.4667710">
	<ele>2418.40</ele>
	<time>2023-08-09T08:00:19.000Z</time>
</trkpt>
<trkpt lat="46.1678850" lon="10.4667750">
	<ele>2418.20</ele>
	<time>2023-08-09T08:00:20.000Z</time>
</trkpt>
<trkpt lat="46.1678850" lon="10.4667770">
	<ele>2418.00</ele>
	<time>2023-08-09T08:00:21.000Z</time>
</trkpt>
<trkpt lat="46.1678850" lon="10.4667840">
	<ele>2417.80</ele>
	<time>2023-08-09T08:00:22.000Z</time>
</trkpt>
<trkpt lat="46.1678850" lon="10.4667900">
	<ele>2417.60</ele>
	<time>2023-08-09T08:00:23.000Z</time>
</trkpt>
<trkpt lat="46.1678850" lon="10.4667980">
	<ele>2417.40</ele>
	<time>2023-08-09T08:00:24.000Z</time>
</trkpt>
<trkpt lat="46.1678850" lon="10.4668040">
	<ele>2417.00</ele>
	<time>2023-08-09T08:00:25.000Z</time>
</trkpt>
<trkpt lat="46.1678850" lon="10.4668110">
	<ele>2417.00</ele>
	<time>2023-08-09T08:00:26.000Z</time>
</trkpt>
<trkpt lat="46.1678850" lon="10.4668160">
	<ele>2416.60</ele>
	<time>2023-08-09T08:00:27.000Z</time>
</trkpt>
<trkpt lat="46.1678860" lon="10.4668210">
	<ele>2416.40</ele>
	<time>2023-08-09T08:00:28.000Z</time>
</trkpt>
<trkpt lat="46.1678860" lon="10.4668300">
	<ele>2416.20</ele>
	<time>2023-08-09T08:00:29.000Z</time>
</trkpt>
<trkpt lat="46.1678870" lon="10.4668380">
	<ele>2416.00</ele>
	<time>2023-08-09T08:00:30.000Z</time>
</trkpt>
<trkpt lat="46.1678870" lon="10.4668450">
	<ele>2415.80</ele>
	<time>2023-08-09T08:00:31.000Z</time>
</trkpt>
<trkpt lat="46.1678870" lon="10.4668530">
	<ele>2415.40</ele>
	<time>2023-08-09T08:00:32.000Z</time>
</trkpt>
<trkpt lat="46.1678870" lon="10.4668570">
	<ele>2415.20</ele>
	<time>2023-08-09T08:00:33.000Z</time>
</trkpt>
<trkpt lat="46.1678870" lon="10.4668600">
	<ele>2415.00</ele>
	<time>2023-08-09T08:00:34.000Z</time>
</trkpt>
<trkpt lat="46.1678870" lon="10.4668630">
	<ele>2414.80</ele>
	<time>2023-08-09T08:00:35.000Z</time>
</trkpt>
<trkpt lat="46.1678870" lon="10.4668690">
	<ele>2414.80</ele>
	<time>2023-08-09T08:00:36.000Z</time>
</trkpt>
<trkpt lat="46.1678870" lon="10.4668750">
	<ele>2414.60</ele>
	<time>2023-08-09T08:00:37.000Z</time>
</trkpt>
<trkpt lat="46.1678870" lon="10.4668830">
	<ele>2414.40</ele>
	<time>2023-08-09T08:00:38.000Z</time>
</trkpt>
<trkpt lat="46.1678870" lon="10.4668910">
	<ele>2414.40</ele>
	<time>2023-08-09T08:00:39.000Z</time>
</trkpt>
<trkpt lat="46.1678870" lon="10.4669000">
	<ele>2414.20</ele>
	<time>2023-08-09T08:00:40.000Z</time>
</trkpt>
<trkpt lat="46.1678850" lon="10.4669080">
	<ele>2414.00</ele>
	<time>2023-08-09T08:00:41.000Z</time>
</trkpt>
<trkpt lat="46.1678850" lon="10.4669130">
	<ele>2413.60</ele>
	<time>2023-08-09T08:00:42.000Z</time>
</trkpt>
<trkpt lat="46.1678850" lon="10.4669220">
	<ele>2413.40</ele>
	<time>2023-08-09T08:00:43.000Z</time>
</trkpt>
<trkpt lat="46.1678850" lon="10.4669280">
	<ele>2413.20</ele>
	<time>2023-08-09T08:00:44.000Z</time>
</trkpt>
<trkpt lat="46.1678850" lon="10.4669330">
	<ele>2412.80</ele>
	<time>2023-08-09T08:00:45.000Z</time>
</trkpt>
<trkpt lat="46.1678850" lon="10.4669370">
	<ele>2412.60</ele>
	<time>2023-08-09T08:00:46.000Z</time>
</trkpt>
<trkpt lat="46.1678850" lon="10.4669410">
	<ele>2412.40</ele>
	<time>2023-08-09T08:00:47.000Z</time>
</trkpt>
<trkpt lat="46.1678850" lon="10.4669460">
	<ele>2412.20</ele>
	<time>2023-08-09T08:00:48.000Z</time>
</trkpt>
<trkpt lat="46.1678850" lon="10.4669530">
	<ele>2412.00</ele>
	<time>2023-08-09T08:00:49.000Z</time>
</trkpt>
<trkpt lat="46.1678850" lon="10.4669590">
	<ele>2411.80</ele>
	<time>2023-08-09T08:00:50.000Z</time>
</trkpt>
<trkpt lat="46.1678850" lon="10.4669660">
	<ele>2411.60</ele>
	<time>2023-08-09T08:00:51.000Z</time>
</trkpt>
<trkpt lat="46.1678860" lon="10.4669710">
	<ele>2411.60</ele>
	<time>2023-08-09T08:00:52.000Z</time>
</trkpt>
<trkpt lat="46.1678870" lon="10.4669760">
	<ele>2411.00</ele>
	<time>2023-08-09T08:00:53.000Z</time>
</trkpt>
<trkpt lat="46.1678880" lon="10.4669810">
	<ele>2410.80</ele>
	<time>2023-08-09T08:00:54.000Z</time>
</trkpt>
<trkpt lat="46.1678890" lon="10.4669860">
	<ele>2410.60</ele>
	<time>2023-08-09T08:00:55.000Z</time>
</trkpt>
<trkpt lat="46.1678890" lon="10.4669890">
	<ele>2410.40</ele>
	<time>2023-08-09T08:00:56.000Z</time>
</trkpt>
<trkpt lat="46.1678900" lon="10.4669940">
	<ele>2410.20</ele>
	<time>2023-08-09T08:00:57.000Z</time>
</trkpt>
<trkpt lat="46.1678920" lon="10.4670010">
	<ele>2410.00</ele>
	<time>2023-08-09T08:00:58.000Z</time>
</trkpt>
<trkpt lat="46.1678950" lon="10.4670080">
	<ele>2409.80</ele>
	<time>2023-08-09T08:00:59.000Z</time>
</trkpt>
<trkpt lat="46.1678990" lon="10.4670150">
	<ele>2409.80</ele>
	<time>2023-08-09T08:01:00.000Z</time>
</trkpt>
<trkpt lat="46.1679060" lon="10.4670210">
	<ele>2409.40</ele>
	<time>2023-08-09T08:01:01.000Z</time>
</trkpt>
<trkpt lat="46.1679110" lon="10.4670260">
	<ele>2409.20</ele>
	<time>2023-08-09T08:01:02.000Z</time>
</trkpt>
<trkpt lat="46.1679130" lon="10.4670320">
	<ele>2409.00</ele>
	<time>2023-08-09T08:01:03.000Z</time>
</trkpt>
<trkpt lat="46.1679140" lon="10.4670390">
	<ele>2408.60</ele>
	<time>2023-08-09T08:01:04.000Z</time>
</trkpt>
<trkpt lat="46.1679140" lon="10.4670450">
	<ele>2408.40</ele>
	<time>2023-08-09T08:01:05.000Z</time>
</trkpt>
<trkpt lat="46.1679150" lon="10.4670500">
	<ele>2408.20</ele>
	<time>2023-08-09T08:01:06.000Z</time>
</trkpt>
<trkpt lat="46.1679150" lon="10.4670550">
	<ele>2407.80</ele>
	<time>2023-08-09T08:01:07.000Z</time>
</trkpt>
<trkpt lat="46.1679150" lon="10.4670590">
	<ele>2407.60</ele>
	<time>2023-08-09T08:01:08.000Z</time>
</trkpt>
<trkpt lat="46.1679150" lon="10.4670630">
	<ele>2407.40</ele>
	<time>2023-08-09T08:01:09.000Z</time>
</trkpt>
<trkpt lat="46.1679160" lon="10.4670680">
	<ele>2407.20</ele>
	<time>2023-08-09T08:01:10.000Z</time>
</trkpt>
<trkpt lat="46.1679150" lon="10.4670790">
	<ele>2407.20</ele>
	<time>2023-08-09T08:01:11.000Z</time>
</trkpt>
<trkpt lat="46.1679150" lon="10.4670950">
	<ele>2407.00</ele>
	<time>2023-08-09T08:01:12.000Z</time>
</trkpt>
<trkpt lat="46.1679150" lon="10.4671100">
	<ele>2407.00</ele>
	<time>2023-08-09T08:01:13.000Z</time>
</trkpt>
<trkpt lat="46.1679160" lon="10.4671250">
	<ele>2406.80</ele>
	<time>2023-08-09T08:01:14.000Z</time>
</trkpt>
<trkpt lat="46.1679190" lon="10.4671420">
	<ele>2406.20</ele>
	<time>2023-08-09T08:01:15.000Z</time>
</trkpt>
<trkpt lat="46.1679210" lon="10.4671580">
	<ele>2406.00</ele>
	<time>2023-08-09T08:01:16.000Z</time>
</trkpt>
<trkpt lat="46.1679210" lon="10.4671730">
	<ele>2405.80</ele>
	<time>2023-08-09T08:01:17.000Z</time>
</trkpt>
<trkpt lat="46.1679200" lon="10.4671890">
	<ele>2405.60</ele>
	<time>2023-08-09T08:01:18.000Z</time>
</trkpt>
<trkpt lat="46.1679190" lon="10.4672030">
	<ele>2405.40</ele>
	<time>2023-08-09T08:01:19.000Z</time>
</trkpt>
<trkpt lat="46.1679140" lon="10.4672190">
	<ele>2405.20</ele>
	<time>2023-08-09T08:01:20.000Z</time>
</trkpt>
<trkpt lat="46.1679150" lon="10.4672240">
	<ele>2405.00</ele>
	<time>2023-08-09T08:01:21.000Z</time>
</trkpt>
<trkpt lat="46.1679170" lon="10.4672290">
	<ele>2404.80</ele>
	<time>2023-08-09T08:01:22.000Z</time>
</trkpt>
<trkpt lat="46.1679170" lon="10.4672350">
	<ele>2404.60</ele>
	<time>2023-08-09T08:01:23.000Z</time>
</trkpt>
<trkpt lat="46.1679190" lon="10.4672410">
	<ele>2404.40</ele>
	<time>2023-08-09T08:01:24.000Z</time>
</trkpt>
<trkpt lat="46.1679220" lon="10.4672480">
	<ele>2404.20</ele>
	<time>2023-08-09T08:01:25.000Z</time>
</trkpt>
<trkpt lat="46.1679250" lon="10.4672530">
	<ele>2403.80</ele>
	<time>2023-08-09T08:01:26.000Z</time>
</trkpt>
<trkpt lat="46.1679220" lon="10.4672590">
	<ele>2403.80</ele>
	<time>2023-08-09T08:01:27.000Z</time>
</trkpt>
<trkpt lat="46.1679210" lon="10.4672650">
	<ele>2403.60</ele>
	<time>2023-08-09T08:01:28.000Z</time>
</trkpt>
<trkpt lat="46.1679180" lon="10.4672740">
	<ele>2403.40</ele>
	<time>2023-08-09T08:01:29.000Z</time>
</trkpt>
<trkpt lat="46.1679200" lon="10.4672780">
	<ele>2403.00</ele>
	<time>2023-08-09T08:01:30.000Z</time>
</trkpt>
<trkpt lat="46.1679220" lon="10.4672830">
	<ele>2402.60</ele>
	<time>2023-08-09T08:01:31.000Z</time>
</trkpt>
<trkpt lat="46.1679240" lon="10.4672890">
	<ele>2402.40</ele>
	<time>2023-08-09T08:01:32.000Z</time>
</trkpt>
<trkpt lat="46.1679210" lon="10.4672980">
	<ele>2402.40</ele>
	<time>2023-08-09T08:01:33.000Z</time>
</trkpt>
<trkpt lat="46.1679210" lon="10.4673050">
	<ele>2402.00</ele>
	<time>2023-08-09T08:01:34.000Z</time>
</trkpt>
<trkpt lat="46.1679190" lon="10.4673130">
	<ele>2401.60</ele>
	<time>2023-08-09T08:01:35.000Z</time>
</trkpt>
<trkpt lat="46.1679200" lon="10.4673240">
	<ele>2401.40</ele>
	<time>2023-08-09T08:01:36.000Z</time>
</trkpt>
<trkpt lat="46.1679150" lon="10.4673320">
	<ele>2401.20</ele>
	<time>2023-08-09T08:01:37.000Z</time>
</trkpt>
<trkpt lat="46.1679120" lon="10.4673380">
	<ele>2401.00</ele>
	<time>2023-08-09T08:01:38.000Z</time>
</trkpt>
<trkpt lat="46.1679060" lon="10.4673450">
	<ele>2400.80</ele>
	<time>2023-08-09T08:01:39.000Z</time>
</trkpt>
<trkpt lat="46.1679060" lon="10.4673510">
	<ele>2400.60</ele>
	<time>2023-08-09T08:01:40.000Z</time>
</trkpt>
<trkpt lat="46.1679090" lon="10.4673590">
	<ele>2400.40</ele>
	<time>2023-08-09T08:01:41.000Z</time>
</trkpt>
<trkpt lat="46.1679120" lon="10.4673670">
	<ele>2400.20</ele>
	<time>2023-08-09T08:01:42.000Z</time>
</trkpt>
<trkpt lat="46.1679140" lon="10.4673750">
	<ele>2399.80</ele>
	<time>2023-08-09T08:01:43.000Z</time>
</trkpt>
<trkpt lat="46.1679080" lon="10.4673830">
	<ele>2399.60</ele>
	<time>2023-08-09T08:01:44.000Z</time>
</trkpt>
<trkpt lat="46.1679020" lon="10.4673900">
	<ele>2399.60</ele>
	<time>2023-08-09T08:01:45.000Z</time>
</trkpt>
<trkpt lat="46.1678910" lon="10.4673900">
	<ele>2399.20</ele>
	<time>2023-08-09T08:01:46.000Z</time>
</trkpt>
<trkpt lat="46.1678800" lon="10.4673890">
	<ele>2399.20</ele>
	<time>2023-08-09T08:01:47.000Z</time>
</trkpt>
<trkpt lat="46.1678780" lon="10.4673870">
	<ele>2398.80</ele>
	<time>2023-08-09T08:01:48.000Z</time>
</trkpt>
<trkpt lat="46.1678750" lon="10.4673860">
	<ele>2398.60</ele>
	<time>2023-08-09T08:01:49.000Z</time>
</trkpt>
<trkpt lat="46.1678660" lon="10.4673840">
	<ele>2398.40</ele>
	<time>2023-08-09T08:01:50.000Z</time>
</trkpt>
<trkpt lat="46.1678650" lon="10.4673810">
	<ele>2398.00</ele>
	<time>2023-08-09T08:01:51.000Z</time>
</trkpt>
<trkpt lat="46.1678580" lon="10.4673840">
	<ele>2397.80</ele>
	<time>2023-08-09T08:01:52.000Z</time>
</trkpt>
<trkpt lat="46.1678530" lon="10.4673910">
	<ele>2397.60</ele>
	<time>2023-08-09T08:01:53.000Z</time>
</trkpt>
<trkpt lat="46.1678540" lon="10.4673960">
	<ele>2397.40</ele>
	<time>2023-08-09T08:01:54.000Z</time>
</trkpt>
<trkpt lat="46.1678560" lon="10.4673990">
	<ele>2397.20</ele>
	<time>2023-08-09T08:01:55.000Z</time>
</trkpt>
<trkpt lat="46.1678540" lon="10.4674090">
	<ele>2397.00</ele>
	<time>2023-08-09T08:01:56.000Z</time>
</trkpt>
<trkpt lat="46.1678520" lon="10.4674170">
	<ele>2396.80</ele>
	<time>2023-08-09T08:01:57.000Z</time>
</trkpt>
<trkpt lat="46.1678520" lon="10.4674270">
	<ele>2396.60</ele>
	<time>2023-08-09T08:01:58.000Z</time>
</trkpt>
<trkpt lat="46.1678540" lon="10.4674340">
	<ele>2396.60</ele>
	<time>2023-08-09T08:01:59.000Z</time>
</trkpt>
<trkpt lat="46.1678560" lon="10.4674440">
	<ele>2396.20</ele>
	<time>2023-08-09T08:02:00.000Z</time>
</trkpt>
<trkpt lat="46.1678540" lon="10.4674500">
	<ele>2396.00</ele>
	<time>2023-08-09T08:02:01.000Z</time>
</trkpt>
<trkpt lat="46.1678560" lon="10.4674560">
	<ele>2395.80</ele>
	<time>2023-08-09T08:02:02.000Z</time>
</trkpt>
<trkpt lat="46.1678570" lon="10.4674620">
	<ele>2395.80</ele>
	<time>2023-08-09T08:02:03.000Z</time>
</trkpt>
<trkpt lat="46.1678580" lon="10.4674720">
	<ele>2395.40</ele>
	<time>2023-08-09T08:02:04.000Z</time>
</trkpt>
<trkpt lat="46.1678660" lon="10.4674800">
	<ele>2395.00</ele>
	<time>2023-08-09T08:02:05.000Z</time>
</trkpt>
<trkpt lat="46.1678700" lon="10.4674820">
	<ele>2394.80</ele>
	<time>2023-08-09T08:02:06.000Z</time>
</trkpt>
<trkpt lat="46.1678740" lon="10.4674860">
	<ele>2394.80</ele>
	<time>2023-08-09T08:02:07.000Z</time>
</trkpt>
<trkpt lat="46.1678770" lon="10.4674890">
	<ele>2394.60</ele>
	<time>2023-08-09T08:02:08.000Z</time>
</trkpt>
<trkpt lat="46.1678790" lon="10.4674930">
	<ele>2394.40</ele>
	<time>2023-08-09T08:02:09.000Z</time>
</trkpt>
<trkpt lat="46.1678810" lon="10.4674960">
	<ele>2394.40</ele>
	<time>2023-08-09T08:02:10.000Z</time>
</trkpt>
<trkpt lat="46.1678820" lon="10.4675000">
	<ele>2394.20</ele>
	<time>2023-08-09T08:02:11.000Z</time>
</trkpt>
<trkpt lat="46.1678880" lon="10.4675050">
	<ele>2394.00</ele>
	<time>2023-08-09T08:02:12.000Z</time>
</trkpt>
<trkpt lat="46.1678910" lon="10.4675110">
	<ele>2393.80</ele>
	<time>2023-08-09T08:02:13.000Z</time>
</trkpt>
<trkpt lat="46.1678920" lon="10.4675190">
	<ele>2393.60</ele>
	<time>2023-08-09T08:02:14.000Z</time>
</trkpt>
<trkpt lat="46.1678910" lon="10.4675260">
	<ele>2393.20</ele>
	<time>2023-08-09T08:02:15.000Z</time>
</trkpt>
<trkpt lat="46.1678880" lon="10.4675310">
	<ele>2393.00</ele>
	<time>2023-08-09T08:02:16.000Z</time>
</trkpt>
<trkpt lat="46.1678870" lon="10.4675350">
	<ele>2392.60</ele>
	<time>2023-08-09T08:02:17.000Z</time>
</trkpt>
<trkpt lat="46.1678860" lon="10.4675390">
	<ele>2392.60</ele>
	<time>2023-08-09T08:02:18.000Z</time>
</trkpt>
<trkpt lat="46.1678850" lon="10.4675420">
	<ele>2392.40</ele>
	<time>2023-08-09T08:02:19.000Z</time>
</trkpt>
<trkpt lat="46.1678840" lon="10.4675460">
	<ele>2392.20</ele>
	<time>2023-08-09T08:02:20.000Z</time>
</trkpt>
<trkpt lat="46.1678840" lon="10.4675500">
	<ele>2392.00</ele>
	<time>2023-08-09T08:02:21.000Z</time>
</trkpt>
<trkpt lat="46.1678850" lon="10.4675540">
	<ele>2391.80</ele>
	<time>2023-08-09T08:02:22.000Z</time>
</trkpt>
<trkpt lat="46.1678900" lon="10.4675570">
	<ele>2391.80</ele>
	<time>2023-08-09T08:02:23.000Z</time>
</trkpt>
<trkpt lat="46.1678980" lon="10.4675600">
	<ele>2391.60</ele>
	<time>2023-08-09T08:02:24.000Z</time>
</trkpt>
<trkpt lat="46.1679050" lon="10.4675650">
	<ele>2391.40</ele>
	<time>2023-08-09T08:02:25.000Z</time>
</trkpt>
<trkpt lat="46.1679090" lon="10.4675700">
	<ele>2391.00</ele>
	<time>2023-08-09T08:02:26.000Z</time>
</trkpt>
<trkpt lat="46.1679110" lon="10.4675750">
	<ele>2390.60</ele>
	<time>2023-08-09T08:02:27.000Z</time>
</trkpt>
<trkpt lat="46.1679100" lon="10.4675820">
	<ele>2390.40</ele>
	<time>2023-08-09T08:02:28.000Z</time>
</trkpt>
<trkpt lat="46.1679100" lon="10.4675870">
	<ele>2390.20</ele>
	<time>2023-08-09T08:02:29.000Z</time>
</trkpt>
<trkpt lat="46.1679120" lon="10.4675950">
	<ele>2390.00</ele>
	<time>2023-08-09T08:02:30.000Z</time>
</trkpt>
<trkpt lat="46.1679110" lon="10.4676000">
	<ele>2389.80</ele>
	<time>2023-08-09T08:02:31.000Z</time>
</trkpt>
<trkpt lat="46.1679060" lon="10.4676010">
	<ele>2389.60</ele>
	<time>2023-08-09T08:02:32.000Z</time>
</trkpt>
<trkpt lat="46.1679070" lon="10.4676010">
	<ele>2389.20</ele>
	<time>2023-08-09T08:02:33.000Z</time>
</trkpt>
<trkpt lat="46.1679070" lon="10.4676010">
	<ele>2389.20</ele>
	<time>2023-08-09T08:02:34.000Z</time>
</trkpt>
<trkpt lat="46.1679080" lon="10.4676040">
	<ele>2389.00</ele>
	<time>2023-08-09T08:02:35.000Z</time>
</trkpt>
<trkpt lat="46.1679100" lon="10.4676090">
	<ele>2388.80</ele>
	<time>2023-08-09T08:02:36.000Z</time>
</trkpt>
<trkpt lat="46.1679130" lon="10.4676140">
	<ele>2388.80</ele>
	<time>2023-08-09T08:02:37.000Z</time>
</trkpt>
<trkpt lat="46.1679150" lon="10.4676190">
	<ele>2388.60</ele>
	<time>2023-08-09T08:02:38.000Z</time>
</trkpt>
<trkpt lat="46.1679170" lon="10.4676240">
	<ele>2388.40</ele>
	<time>2023-08-09T08:02:39.000Z</time>
</trkpt>
<trkpt lat="46.1679150" lon="10.4676310">
	<ele>2388.20</ele>
	<time>2023-08-09T08:02:40.000Z</time>
</trkpt>
<trkpt lat="46.1679110" lon="10.4676370">
	<ele>2388.00</ele>
	<time>2023-08-09T08:02:41.000Z</time>
</trkpt>
<trkpt lat="46.1679080" lon="10.4676430">
	<ele>2387.60</ele>
	<time>2023-08-09T08:02:42.000Z</time>
</trkpt>
<trkpt lat="46.1679070" lon="10.4676500">
	<ele>2387.60</ele>
	<time>2023-08-09T08:02:43.000Z</time>
</trkpt>
<trkpt lat="46.1679040" lon="10.4676540">
	<ele>2387.40</ele>
	<time>2023-08-09T08:02:44.000Z</time>
</trkpt>
<trkpt lat="46.1679000" lon="10.4676580">
	<ele>2387.00</ele>
	<time>2023-08-09T08:02:45.000Z</time>
</trkpt>
<trkpt lat="46.1678980" lon="10.4676600">
	<ele>2386.80</ele>
	<time>2023-08-09T08:02:46.000Z</time>
</trkpt>
<trkpt lat="46.1678970" lon="10.4676630">
	<ele>2386.60</ele>
	<time>2023-08-09T08:02:47.000Z</time>
</trkpt>
<trkpt lat="46.1678950" lon="10.4676650">
	<ele>2386.40</ele>
	<time>2023-08-09T08:02:48.000Z</time>
</trkpt>
<trkpt lat="46.1678930" lon="10.4676670">
	<ele>2386.20</ele>
	<time>2023-08-09T08:02:49.000Z</time>
</trkpt>
<trkpt lat="46.1678910" lon="10.4676710">
	<ele>2386.20</ele>
	<time>2023-08-09T08:02:50.000Z</time>
</trkpt>
<trkpt lat="46.1678910" lon="10.4676730">
	<ele>2386.00</ele>
	<time>2023-08-09T08:02:51.000Z</time>
</trkpt>
<trkpt lat="46.1678910" lon="10.4676790">
	<ele>2385.60</ele>
	<time>2023-08-09T08:02:52.000Z</time>
</trkpt>
<trkpt lat="46.1678890" lon="10.4676860">
	<ele>2385.20</ele>
	<time>2023-08-09T08:02:53.000Z</time>
</trkpt>
<trkpt lat="46.1678930" lon="10.4676890">
	<ele>2385.00</ele>
	<time>2023-08-09T08:02:54.000Z</time>
</trkpt>
<trkpt lat="46.1678940" lon="10.4676940">
	<ele>2384.80</ele>
	<time>2023-08-09T08:02:55.000Z</time>
</trkpt>
<trkpt lat="46.1678980" lon="10.4676960">
	<ele>2384.40</ele>
	<time>2023-08-09T08:02:56.000Z</time>
</trkpt>
<trkpt lat="46.1679010" lon="10.4676980">
	<ele>2384.20</ele>
	<time>2023-08-09T08:02:57.000Z</time>
</trkpt>
<trkpt lat="46.1679030" lon="10.4677000">
	<ele>2384.20</ele>
	<time>2023-08-09T08:02:58.000Z</time>
</trkpt>
<trkpt lat="46.1679050" lon="10.4677030">
	<ele>2384.00</ele>
	<time>2023-08-09T08:02:59.000Z</time>
</trkpt>
<trkpt lat="46.1679080" lon="10.4677060">
	<ele>2383.80</ele>
	<time>2023-08-09T08:03:00.000Z</time>
</trkpt>
<trkpt lat="46.1679100" lon="10.4677040">
	<ele>2383.80</ele>
	<time>2023-08-09T08:03:01.000Z</time>
</trkpt>
<trkpt lat="46.1679130" lon="10.4677010">
	<ele>2383.60</ele>
	<time>2023-08-09T08:03:02.000Z</time>
</trkpt>
<trkpt lat="46.1679160" lon="10.4677020">
	<ele>2383.40</ele>
	<time>2023-08-09T08:03:03.000Z</time>
</trkpt>
<trkpt lat="46.1679180" lon="10.4677030">
	<ele>2383.00</ele>
	<time>2023-08-09T08:03:04.000Z</time>
</trkpt>
<trkpt lat="46.1679190" lon="10.4677030">
	<ele>2382.80</ele>
	<time>2023-08-09T08:03:05.000Z</time>
</trkpt>
<trkpt lat="46.1679190" lon="10.4677030">
	<ele>2382.60</ele>
	<time>2023-08-09T08:03:06.000Z</time>
</trkpt>
<trkpt lat="46.1679190" lon="10.4677030">
	<ele>2382.60</ele>
	<time>2023-08-09T08:03:07.000Z</time>
</trkpt>
<trkpt lat="46.1679190" lon="10.4677030">
	<ele>2382.60</ele>
	<time>2023-08-09T08:03:08.000Z</time>
</trkpt>
<trkpt lat="46.1679190" lon="10.4677030">
	<ele>2382.40</ele>
	<time>2023-08-09T08:03:09.000Z</time>
</trkpt>
<trkpt lat="46.1679190" lon="10.4677030">
	<ele>2382.40</ele>
	<time>2023-08-09T08:03:10.000Z</time>
</trkpt>
<trkpt lat="46.1679190" lon="10.4677030">
	<ele>2382.20</ele>
	<time>2023-08-09T08:03:11.000Z</time>
</trkpt>
<trkpt lat="46.1679190" lon="10.4677030">
	<ele>2382.00</ele>
	<time>2023-08-09T08:03:12.000Z</time>
</trkpt>
<trkpt lat="46.1679190" lon="10.4677030">
	<ele>2381.60</ele>
	<time>2023-08-09T08:03:13.000Z</time>
</trkpt>
<trkpt lat="46.1679190" lon="10.4677030">
	<ele>2381.40</ele>
	<time>2023-08-09T08:03:14.000Z</time>
</trkpt>
<trkpt lat="46.1679190" lon="10.4677030">
	<ele>2381.20</ele>
	<time>2023-08-09T08:03:15.000Z</time>
</trkpt>
<trkpt lat="46.1679190" lon="10.4677030">
	<ele>2381.00</ele>
	<time>2023-08-09T08:03:16.000Z</time>
</trkpt>
<trkpt lat="46.1679180" lon="10.4677030">
	<ele>2380.60</ele>
	<time>2023-08-09T08:03:17.000Z</time>
</trkpt>
<trkpt lat="46.1679180" lon="10.4677030">
	<ele>2380.40</ele>
	<time>2023-08-09T08:03:18.000Z</time>
</trkpt>
<trkpt lat="46.1679160" lon="10.4677030">
	<ele>2380.20</ele>
	<time>2023-08-09T08:03:19.000Z</time>
</trkpt>
<trkpt lat="46.1679130" lon="10.4677040">
	<ele>2380.20</ele>
	<time>2023-08-09T08:03:20.000Z</time>
</trkpt>
<trkpt lat="46.1679100" lon="10.4677050">
	<ele>2380.00</ele>
	<time>2023-08-09T08:03:21.000Z</time>
</trkpt>
<trkpt lat="46.1679090" lon="10.4677080">
	<ele>2380.00</ele>
	<time>2023-08-09T08:03:22.000Z</time>
</trkpt>
<trkpt lat="46.1679080" lon="10.4677170">
	<ele>2379.80</ele>
	<time>2023-08-09T08:03:23.000Z</time>
</trkpt>
<trkpt lat="46.1679060" lon="10.4677260">
	<ele>2379.80</ele>
	<time>2023-08-09T08:03:24.000Z</time>
</trkpt>
<trkpt lat="46.1679040" lon="10.4677320">
	<ele>2379.60</ele>
	<time>2023-08-09T08:03:25.000Z</time>
</trkpt>
<trkpt lat="46.1679030" lon="10.4677400">
	<ele>2379.40</ele>
	<time>2023-08-09T08:03:26.000Z</time>
</trkpt>
<trkpt lat="46.1679030" lon="10.4677490">
	<ele>2378.80</ele>
	<time>2023-08-09T08:03:27.000Z</time>
</trkpt>
<trkpt lat="46.1679010" lon="10.4677560">
	<ele>2378.60</ele>
	<time>2023-08-09T08:03:28.000Z</time>
</trkpt>
<trkpt lat="46.1678980" lon="10.4677600">
	<ele>2378.40</ele>
	<time>2023-08-09T08:03:29.000Z</time>
</trkpt>
<trkpt lat="46.1678970" lon="10.4677680">
	<ele>2378.40</ele>
	<time>2023-08-09T08:03:30.000Z</time>
</trkpt>
<trkpt lat="46.1678970" lon="10.4677760">
	<ele>2378.40</ele>
	<time>2023-08-09T08:03:31.000Z</time>
</trkpt>
<trkpt lat="46.1678970" lon="10.4677810">
	<ele>2378.20</ele>
	<time>2023-08-09T08:03:32.000Z</time>
</trkpt>
<trkpt lat="46.1678970" lon="10.4677850">
	<ele>2377.80</ele>
	<time>2023-08-09T08:03:33.000Z</time>
</trkpt>
<trkpt lat="46.1678970" lon="10.4677880">
	<ele>2377.40</ele>
	<time>2023-08-09T08:03:34.000Z</time>
</trkpt>
<trkpt lat="46.1678970" lon="10.4677920">
	<ele>2377.20</ele>
	<time>2023-08-09T08:03:35.000Z</time>
</trkpt>
<trkpt lat="46.1678970" lon="10.4677950">
	<ele>2377.00</ele>
	<time>2023-08-09T08:03:36.000Z</time>
</trkpt>
<trkpt lat="46.1678970" lon="10.4677980">
	<ele>2377.00</ele>
	<time>2023-08-09T08:03:37.000Z</time>
</trkpt>
<trkpt lat="46.1678970" lon="10.4677990">
	<ele>2376.80</ele>
	<time>2023-08-09T08:03:38.000Z</time>
</trkpt>
<trkpt lat="46.1678970" lon="10.4678000">
	<ele>2376.60</ele>
	<time>2023-08-09T08:03:39.000Z</time>
</trkpt>
<trkpt lat="46.1678970" lon="10.4678010">
	<ele>2376.60</ele>
	<time>2023-08-09T08:03:40.000Z</time>
</trkpt>
<trkpt lat="46.1678970" lon="10.4678010">
	<ele>2376.40</ele>
	<time>2023-08-09T08:03:41.000Z</time>
</trkpt>
<trkpt lat="46.1678960" lon="10.4678040">
	<ele>2376.20</ele>
	<time>2023-08-09T08:03:42.000Z</time>
</trkpt>
<trkpt lat="46.1678940" lon="10.4678060">
	<ele>2376.00</ele>
	<time>2023-08-09T08:03:43.000Z</time>
</trkpt>
<trkpt lat="46.1678930" lon="10.4678090">
	<ele>2375.60</ele>
	<time>2023-08-09T08:03:44.000Z</time>
</trkpt>
<trkpt lat="46.1678950" lon="10.4678110">
	<ele>2375.20</ele>
	<time>2023-08-09T08:03:45.000Z</time>
</trkpt>
<trkpt lat="46.1678970" lon="10.4678140">
	<ele>2375.00</ele>
	<time>2023-08-09T08:03:46.000Z</time>
</trkpt>
<trkpt lat="46.1678970" lon="10.4678180">
	<ele>2374.60</ele>
	<time>2023-08-09T08:03:47.000Z</time>
</trkpt>
<trkpt lat="46.1678980" lon="10.4678210">
	<ele>2374.40</ele>
	<time>2023-08-09T08:03:48.000Z</time>
</trkpt>
<trkpt lat="46.1678980" lon="10.4678240">
	<ele>2374.20</ele>
	<time>2023-08-09T08:03:49.000Z</time>
</trkpt>
<trkpt lat="46.1678980" lon="10.4678260">
	<ele>2374.00</ele>
	<time>2023-08-09T08:03:50.000Z</time>
</trkpt>
<trkpt lat="46.1678980" lon="10.4678290">
	<ele>2374.00</ele>
	<time>2023-08-09T08:03:51.000Z</time>
</trkpt>
<trkpt lat="46.1678940" lon="10.4678370">
	<ele>2373.80</ele>
	<time>2023-08-09T08:03:52.000Z</time>
</trkpt>
<trkpt lat="46.1678830" lon="10.4678500">
	<ele>2373.40</ele>
	<time>2023-08-09T08:03:53.000Z</time>
</trkpt>
<trkpt lat="46.1678720" lon="10.4678620">
	<ele>2373.20</ele>
	<time>2023-08-09T08:03:54.000Z</time>
</trkpt>
<trkpt lat="46.1678550" lon="10.4678840">
	<ele>2373.00</ele>
	<time>2023-08-09T08:03:55.000Z</time>
</trkpt>
<trkpt lat="46.1678460" lon="10.4678980">
	<ele>2372.80</ele>
	<time>2023-08-09T08:03:56.000Z</time>
</trkpt>
<trkpt lat="46.1678420" lon="10.4679090">
	<ele>2372.80</ele>
	<time>2023-08-09T08:03:57.000Z</time>
</trkpt>
<trkpt lat="46.1678410" lon="10.4679140">
	<ele>2372.80</ele>
	<time>2023-08-09T08:03:58.000Z</time>
</trkpt>
<trkpt lat="46.1678400" lon="10.4679200">
	<ele>2372.60</ele>
	<time>2023-08-09T08:03:59.000Z</time>
</trkpt>
<trkpt lat="46.1678370" lon="10.4679300">
	<ele>2372.60</ele>
	<time>2023-08-09T08:04:00.000Z</time>
</trkpt>
<trkpt lat="46.1678310" lon="10.4679370">
	<ele>2372.60</ele>
	<time>2023-08-09T08:04:01.000Z</time>
</trkpt>
<trkpt lat="46.1678280" lon="10.4679360">
	<ele>2372.60</ele>
	<time>2023-08-09T08:04:02.000Z</time>
</trkpt>
<trkpt lat="46.1678290" lon="10.4679350">
	<ele>2372.60</ele>
	<time>2023-08-09T08:04:03.000Z</time>
</trkpt>
<trkpt lat="46.1678290" lon="10.4679360">
	<ele>2372.60</ele>
	<time>2023-08-09T08:04:04.000Z</time>
</trkpt>
<trkpt lat="46.1678290" lon="10.4679370">
	<ele>2373.00</ele>
	<time>2023-08-09T08:04:05.000Z</time>
</trkpt>
<trkpt lat="46.1678290" lon="10.4679380">
	<ele>2373.20</ele>
	<time>2023-08-09T08:04:06.000Z</time>
</trkpt>
<trkpt lat="46.1678280" lon="10.4679380">
	<ele>2373.20</ele>
	<time>2023-08-09T08:04:07.000Z</time>
</trkpt>
<trkpt lat="46.1678280" lon="10.4679380">
	<ele>2373.40</ele>
	<time>2023-08-09T08:04:08.000Z</time>
</trkpt>
<trkpt lat="46.1678280" lon="10.4679380">
	<ele>2373.40</ele>
	<time>2023-08-09T08:04:09.000Z</time>
</trkpt>
<trkpt lat="46.1678280" lon="10.4679380">
	<ele>2373.60</ele>
	<time>2023-08-09T08:04:10.000Z</time>
</trkpt>
<trkpt lat="46.1678280" lon="10.4679380">
	<ele>2373.60</ele>
	<time>2023-08-09T08:04:11.000Z</time>
</trkpt>
<trkpt lat="46.1678280" lon="10.4679380">
	<ele>2373.60</ele>
	<time>2023-08-09T08:04:12.000Z</time>
</trkpt>
<trkpt lat="46.1678280" lon="10.4679380">
	<ele>2373.60</ele>
	<time>2023-08-09T08:04:13.000Z</time>
</trkpt>
<trkpt lat="46.1678280" lon="10.4679380">
	<ele>2373.60</ele>
	<time>2023-08-09T08:04:14.000Z</time>
</trkpt>
<trkpt lat="46.1678280" lon="10.4679380">
	<ele>2373.60</ele>
	<time>2023-08-09T08:04:15.000Z</time>
</trkpt>
<trkpt lat="46.1678280" lon="10.4679380">
	<ele>2373.00</ele>
	<time>2023-08-09T08:04:16.000Z</time>
</trkpt>
<trkpt lat="46.1678280" lon="10.4679380">
	<ele>2372.80</ele>
	<time>2023-08-09T08:04:17.000Z</time>
</trkpt>
<trkpt lat="46.1678280" lon="10.4679380">
	<ele>2372.80</ele>
	<time>2023-08-09T08:04:18.000Z</time>
</trkpt>
<trkpt lat="46.1678280" lon="10.4679380">
	<ele>2372.60</ele>
	<time>2023-08-09T08:04:19.000Z</time>
</trkpt>
<trkpt lat="46.1678280" lon="10.4679380">
	<ele>2372.60</ele>
	<time>2023-08-09T08:04:20.000Z</time>
</trkpt>
<trkpt lat="46.1678280" lon="10.4679380">
	<ele>2372.60</ele>
	<time>2023-08-09T08:04:21.000Z</time>
</trkpt>
<trkpt lat="46.1678280" lon="10.4679380">
	<ele>2372.60</ele>
	<time>2023-08-09T08:04:22.000Z</time>
</trkpt>
<trkpt lat="46.1678280" lon="10.4679380">
	<ele>2372.60</ele>
	<time>2023-08-09T08:04:23.000Z</time>
</trkpt>
<trkpt lat="46.1678280" lon="10.4679370">
	<ele>2372.60</ele>
	<time>2023-08-09T08:04:24.000Z</time>
</trkpt>
<trkpt lat="46.1678280" lon="10.4679370">
	<ele>2372.60</ele>
	<time>2023-08-09T08:04:25.000Z</time>
</trkpt>
<trkpt lat="46.1678280" lon="10.4679370">
	<ele>2372.60</ele>
	<time>2023-08-09T08:04:26.000Z</time>
</trkpt>
<trkpt lat="46.1678280" lon="10.4679370">
	<ele>2372.40</ele>
	<time>2023-08-09T08:04:27.000Z</time>
</trkpt>
<trkpt lat="46.1678280" lon="10.4679370">
	<ele>2372.40</ele>
	<time>2023-08-09T08:04:28.000Z</time>
</trkpt>
<trkpt lat="46.1678280" lon="10.4679370">
	<ele>2372.40</ele>
	<time>2023-08-09T08:04:29.000Z</time>
</trkpt>
<trkpt lat="46.1678280" lon="10.4679370">
	<ele>2372.20</ele>
	<time>2023-08-09T08:04:30.000Z</time>
</trkpt>
<trkpt lat="46.1678280" lon="10.4679380">
	<ele>2372.20</ele>
	<time>2023-08-09T08:04:31.000Z</time>
</trkpt>
<trkpt lat="46.1678280" lon="10.4679380">
	<ele>2372.00</ele>
	<time>2023-08-09T08:04:32.000Z</time>
</trkpt>
<trkpt lat="46.1678280" lon="10.4679380">
	<ele>2372.00</ele>
	<time>2023-08-09T08:04:33.000Z</time>
</trkpt>
<trkpt lat="46.1678280" lon="10.4679380">
	<ele>2371.80</ele>
	<time>2023-08-09T08:04:34.000Z</time>
</trkpt>
<trkpt lat="46.1678280" lon="10.4679380">
	<ele>2371.60</ele>
	<time>2023-08-09T08:04:35.000Z</time>
</trkpt>
<trkpt lat="46.1678280" lon="10.4679390">
	<ele>2371.00</ele>
	<time>2023-08-09T08:04:36.000Z</time>
</trkpt>
<trkpt lat="46.1678270" lon="10.4679390">
	<ele>2370.80</ele>
	<time>2023-08-09T08:04:37.000Z</time>
</trkpt>
<trkpt lat="46.1678260" lon="10.4679390">
	<ele>2370.40</ele>
	<time>2023-08-09T08:04:38.000Z</time>
</trkpt>
<trkpt lat="46.1678220" lon="10.4679390">
	<ele>2370.20</ele>
	<time>2023-08-09T08:04:39.000Z</time>
</trkpt>
<trkpt lat="46.1678180" lon="10.4679400">
	<ele>2370.20</ele>
	<time>2023-08-09T08:04:40.000Z</time>
</trkpt>
<trkpt lat="46.1678080" lon="10.4679440">
	<ele>2370.20</ele>
	<time>2023-08-09T08:04:41.000Z</time>
</trkpt>
<trkpt lat="46.1678010" lon="10.4679450">
	<ele>2369.80</ele>
	<time>2023-08-09T08:04:42.000Z</time>
</trkpt>
<trkpt lat="46.1678000" lon="10.4679470">
	<ele>2369.40</ele>
	<time>2023-08-09T08:04:43.000Z</time>
</trkpt>
<trkpt lat="46.1678000" lon="10.4679470">
	<ele>2369.20</ele>
	<time>2023-08-09T08:04:44.000Z</time>
</trkpt>
<trkpt lat="46.1678000" lon="10.4679490">
	<ele>2368.80</ele>
	<time>2023-08-09T08:04:45.000Z</time>
</trkpt>
<trkpt lat="46.1677970" lon="10.4679530">
	<ele>2368.40</ele>
	<time>2023-08-09T08:04:46.000Z</time>
</trkpt>
<trkpt lat="46.1677960" lon="10.4679590">
	<ele>2368.20</ele>
	<time>2023-08-09T08:04:47.000Z</time>
</trkpt>
<trkpt lat="46.1677950" lon="10.4679640">
	<ele>2368.00</ele>
	<time>2023-08-09T08:04:48.000Z</time>
</trkpt>
<trkpt lat="46.1677950" lon="10.4679650">
	<ele>2367.80</ele>
	<time>2023-08-09T08:04:49.000Z</time>
</trkpt>
<trkpt lat="46.1677940" lon="10.4679670">
	<ele>2367.40</ele>
	<time>2023-08-09T08:04:50.000Z</time>
</trkpt>
<trkpt lat="46.1677920" lon="10.4679690">
	<ele>2367.40</ele>
	<time>2023-08-09T08:04:51.000Z</time>
</trkpt>
<trkpt lat="46.1677920" lon="10.4679700">
	<ele>2367.00</ele>
	<time>2023-08-09T08:04:52.000Z</time>
</trkpt>
<trkpt lat="46.1677910" lon="10.4679720">
	<ele>2366.80</ele>
	<time>2023-08-09T08:04:53.000Z</time>
</trkpt>
<trkpt lat="46.1677900" lon="10.4679740">
	<ele>2366.60</ele>
	<time>2023-08-09T08:04:54.000Z</time>
</trkpt>
<trkpt lat="46.1677900" lon="10.4679760">
	<ele>2366.40</ele>
	<time>2023-08-09T08:04:55.000Z</time>
</trkpt>
<trkpt lat="46.1677890" lon="10.4679790">
	<ele>2366.00</ele>
	<time>2023-08-09T08:04:56.000Z</time>
</trkpt>
<trkpt lat="46.1677880" lon="10.4679850">
	<ele>2365.80</ele>
	<time>2023-08-09T08:04:57.000Z</time>
</trkpt>
<trkpt lat="46.1677860" lon="10.4679910">
	<ele>2365.60</ele>
	<time>2023-08-09T08:04:58.000Z</time>
</trkpt>
<trkpt lat="46.1677850" lon="10.4679960">
	<ele>2365.40</ele>
	<time>2023-08-09T08:04:59.000Z</time>
</trkpt>
<trkpt lat="46.1677840" lon="10.4680030">
	<ele>2365.00</ele>
	<time>2023-08-09T08:05:00.000Z</time>
</trkpt>
<trkpt lat="46.1677820" lon="10.4680080">
	<ele>2364.80</ele>
	<time>2023-08-09T08:05:01.000Z</time>
</trkpt>
<trkpt lat="46.1677810" lon="10.4680150">
	<ele>2364.40</ele>
	<time>2023-08-09T08:05:02.000Z</time>
</trkpt>
<trkpt lat="46.1677800" lon="10.4680210">
	<ele>2364.20</ele>
	<time>2023-08-09T08:05:03.000Z</time>
</trkpt>
<trkpt lat="46.1677790" lon="10.4680290">
	<ele>2364.00</ele>
	<time>2023-08-09T08:05:04.000Z</time>
</trkpt>
<trkpt lat="46.1677790" lon="10.4680330">
	<ele>2363.60</ele>
	<time>2023-08-09T08:05:05.000Z</time>
</trkpt>
<trkpt lat="46.1677790" lon="10.4680380">
	<ele>2363.20</ele>
	<time>2023-08-09T08:05:06.000Z</time>
</trkpt>
<trkpt lat="46.1677790" lon="10.4680420">
	<ele>2363.00</ele>
	<time>2023-08-09T08:05:07.000Z</time>
</trkpt>
<trkpt lat="46.1677790" lon="10.4680450">
	<ele>2363.00</ele>
	<time>2023-08-09T08:05:08.000Z</time>
</trkpt>
<trkpt lat="46.1677790" lon="10.4680470">
	<ele>2362.80</ele>
	<time>2023-08-09T08:05:09.000Z</time>
</trkpt>
<trkpt lat="46.1677780" lon="10.4680490">
	<ele>2362.40</ele>
	<time>2023-08-09T08:05:10.000Z</time>
</trkpt>
<trkpt lat="46.1677780" lon="10.4680530">
	<ele>2362.20</ele>
	<time>2023-08-09T08:05:11.000Z</time>
</trkpt>
<trkpt lat="46.1677760" lon="10.4680580">
	<ele>2362.00</ele>
	<time>2023-08-09T08:05:12.000Z</time>
</trkpt>
<trkpt lat="46.1677760" lon="10.4680620">
	<ele>2361.80</ele>
	<time>2023-08-09T08:05:13.000Z</time>
</trkpt>
<trkpt lat="46.1677750" lon="10.4680670">
	<ele>2361.80</ele>
	<time>2023-08-09T08:05:14.000Z</time>
</trkpt>
<trkpt lat="46.1677750" lon="10.4680710">
	<ele>2361.60</ele>
	<time>2023-08-09T08:05:15.000Z</time>
</trkpt>
<trkpt lat="46.1677750" lon="10.4680740">
	<ele>2361.40</ele>
	<time>2023-08-09T08:05:16.000Z</time>
</trkpt>
<trkpt lat="46.1677750" lon="10.4680760">
	<ele>2361.20</ele>
	<time>2023-08-09T08:05:17.000Z</time>
</trkpt>
<trkpt lat="46.1677740" lon="10.4680800">
	<ele>2360.80</ele>
	<time>2023-08-09T08:05:18.000Z</time>
</trkpt>
<trkpt lat="46.1677740" lon="10.4680840">
	<ele>2360.40</ele>
	<time>2023-08-09T08:05:19.000Z</time>
</trkpt>
<trkpt lat="46.1677730" lon="10.4680870">
	<ele>2360.20</ele>
	<time>2023-08-09T08:05:20.000Z</time>
</trkpt>
<trkpt lat="46.1677730" lon="10.4680920">
	<ele>2359.80</ele>
	<time>2023-08-09T08:05:21.000Z</time>
</trkpt>
<trkpt lat="46.1677730" lon="10.4680960">
	<ele>2359.80</ele>
	<time>2023-08-09T08:05:22.000Z</time>
</trkpt>
<trkpt lat="46.1677730" lon="10.4680980">
	<ele>2359.40</ele>
	<time>2023-08-09T08:05:23.000Z</time>
</trkpt>
<trkpt lat="46.1677730" lon="10.4681020">
	<ele>2359.20</ele>
	<time>2023-08-09T08:05:24.000Z</time>
</trkpt>
<trkpt lat="46.1677730" lon="10.4681060">
	<ele>2359.00</ele>
	<time>2023-08-09T08:05:25.000Z</time>
</trkpt>
<trkpt lat="46.1677730" lon="10.4681080">
	<ele>2359.00</ele>
	<time>2023-08-09T08:05:26.000Z</time>
</trkpt>
<trkpt lat="46.1677720" lon="10.4681100">
	<ele>2358.80</ele>
	<time>2023-08-09T08:05:27.000Z</time>
</trkpt>
<trkpt lat="46.1677710" lon="10.4681100">
	<ele>2358.80</ele>
	<time>2023-08-09T08:05:28.000Z</time>
</trkpt>
<trkpt lat="46.1677670" lon="10.4681110">
	<ele>2358.80</ele>
	<time>2023-08-09T08:05:29.000Z</time>
</trkpt>
<trkpt lat="46.1677640" lon="10.4681120">
	<ele>2358.40</ele>
	<time>2023-08-09T08:05:30.000Z</time>
</trkpt>
<trkpt lat="46.1677620" lon="10.4681140">
	<ele>2358.00</ele>
	<time>2023-08-09T08:05:31.000Z</time>
</trkpt>
<trkpt lat="46.1677600" lon="10.4681160">
	<ele>2357.60</ele>
	<time>2023-08-09T08:05:32.000Z</time>
</trkpt>
<trkpt lat="46.1677570" lon="10.4681180">
	<ele>2357.40</ele>
	<time>2023-08-09T08:05:33.000Z</time>
</trkpt>
<trkpt lat="46.1677530" lon="10.4681200">
	<ele>2357.00</ele>
	<time>2023-08-09T08:05:34.000Z</time>
</trkpt>
<trkpt lat="46.1677510" lon="10.4681210">
	<ele>2356.80</ele>
	<time>2023-08-09T08:05:35.000Z</time>
</trkpt>
<trkpt lat="46.1677510" lon="10.4681220">
	<ele>2356.60</ele>
	<time>2023-08-09T08:05:36.000Z</time>
</trkpt>
<trkpt lat="46.1677500" lon="10.4681220">
	<ele>2356.40</ele>
	<time>2023-08-09T08:05:37.000Z</time>
</trkpt>
<trkpt lat="46.1677500" lon="10.4681260">
	<ele>2356.20</ele>
	<time>2023-08-09T08:05:38.000Z</time>
</trkpt>
<trkpt lat="46.1677500" lon="10.4681300">
	<ele>2356.20</ele>
	<time>2023-08-09T08:05:39.000Z</time>
</trkpt>
<trkpt lat="46.1677500" lon="10.4681340">
	<ele>2356.00</ele>
	<time>2023-08-09T08:05:40.000Z</time>
</trkpt>
<trkpt lat="46.1677500" lon="10.4681380">
	<ele>2355.80</ele>
	<time>2023-08-09T08:05:41.000Z</time>
</trkpt>
<trkpt lat="46.1677500" lon="10.4681410">
	<ele>2355.60</ele>
	<time>2023-08-09T08:05:42.000Z</time>
</trkpt>
<trkpt lat="46.1677500" lon="10.4681450">
	<ele>2355.20</ele>
	<time>2023-08-09T08:05:43.000Z</time>
</trkpt>
<trkpt lat="46.1677490" lon="10.4681480">
	<ele>2355.00</ele>
	<time>2023-08-09T08:05:44.000Z</time>
</trkpt>
<trkpt lat="46.1677490" lon="10.4681510">
	<ele>2354.80</ele>
	<time>2023-08-09T08:05:45.000Z</time>
</trkpt>
<trkpt lat="46.1677490" lon="10.4681530">
	<ele>2354.40</ele>
	<time>2023-08-09T08:05:46.000Z</time>
</trkpt>
<trkpt lat="46.1677490" lon="10.4681550">
	<ele>2353.80</ele>
	<time>2023-08-09T08:05:47.000Z</time>
</trkpt>
<trkpt lat="46.1677480" lon="10.4681590">
	<ele>2353.60</ele>
	<time>2023-08-09T08:05:48.000Z</time>
</trkpt>
<trkpt lat="46.1677480" lon="10.4681650">
	<ele>2353.20</ele>
	<time>2023-08-09T08:05:49.000Z</time>
</trkpt>
<trkpt lat="46.1677480" lon="10.4681720">
	<ele>2353.00</ele>
	<time>2023-08-09T08:05:50.000Z</time>
</trkpt>
<trkpt lat="46.1677480" lon="10.4681780">
	<ele>2352.80</ele>
	<time>2023-08-09T08:05:51.000Z</time>
</trkpt>
<trkpt lat="46.1677480" lon="10.4681830">
	<ele>2352.60</ele>
	<time>2023-08-09T08:05:52.000Z</time>
</trkpt>
<trkpt lat="46.1677480" lon="10.4681880">
	<ele>2352.40</ele>
	<time>2023-08-09T08:05:53.000Z</time>
</trkpt>
<trkpt lat="46.1677480" lon="10.4681920">
	<ele>2352.40</ele>
	<time>2023-08-09T08:05:54.000Z</time>
</trkpt>
<trkpt lat="46.1677480" lon="10.4681970">
	<ele>2352.40</ele>
	<time>2023-08-09T08:05:55.000Z</time>
</trkpt>
<trkpt lat="46.1677480" lon="10.4682020">
	<ele>2352.20</ele>
	<time>2023-08-09T08:05:56.000Z</time>
</trkpt>
<trkpt lat="46.1677480" lon="10.4682060">
	<ele>2352.00</ele>
	<time>2023-08-09T08:05:57.000Z</time>
</trkpt>
<trkpt lat="46.1677480" lon="10.4682110">
	<ele>2351.80</ele>
	<time>2023-08-09T08:05:58.000Z</time>
</trkpt>
<trkpt lat="46.1677480" lon="10.4682160">
	<ele>2351.80</ele>
	<time>2023-08-09T08:05:59.000Z</time>
</trkpt>
<trkpt lat="46.1677480" lon="10.4682210">
	<ele>2351.60</ele>
	<time>2023-08-09T08:06:00.000Z</time>
</trkpt>
<trkpt lat="46.1677480" lon="10.4682270">
	<ele>2351.20</ele>
	<time>2023-08-09T08:06:01.000Z</time>
</trkpt>
<trkpt lat="46.1677480" lon="10.4682350">
	<ele>2351.00</ele>
	<time>2023-08-09T08:06:02.000Z</time>
</trkpt>
<trkpt lat="46.1677470" lon="10.4682430">
	<ele>2350.80</ele>
	<time>2023-08-09T08:06:03.000Z</time>
</trkpt>
<trkpt lat="46.1677470" lon="10.4682500">
	<ele>2350.60</ele>
	<time>2023-08-09T08:06:04.000Z</time>
</trkpt>
<trkpt lat="46.1677460" lon="10.4682560">
	<ele>2350.20</ele>
	<time>2023-08-09T08:06:05.000Z</time>
</trkpt>
<trkpt lat="46.1677460" lon="10.4682610">
	<ele>2350.00</ele>
	<time>2023-08-09T08:06:06.000Z</time>
</trkpt>
<trkpt lat="46.1677460" lon="10.4682660">
	<ele>2349.80</ele>
	<time>2023-08-09T08:06:07.000Z</time>
</trkpt>
<trkpt lat="46.1677460" lon="10.4682700">
	<ele>2349.60</ele>
	<time>2023-08-09T08:06:08.000Z</time>
</trkpt>
<trkpt lat="46.1677460" lon="10.4682750">
	<ele>2349.40</ele>
	<time>2023-08-09T08:06:09.000Z</time>
</trkpt>
<trkpt lat="46.1677460" lon="10.4682800">
	<ele>2349.00</ele>
	<time>2023-08-09T08:06:10.000Z</time>
</trkpt>
<trkpt lat="46.1677460" lon="10.4682830">
	<ele>2348.80</ele>
	<time>2023-08-09T08:06:11.000Z</time>
</trkpt>
<trkpt lat="46.1677460" lon="10.4682850">
	<ele>2348.80</ele>
	<time>2023-08-09T08:06:12.000Z</time>
</trkpt>
<trkpt lat="46.1677460" lon="10.4682870">
	<ele>2348.40</ele>
	<time>2023-08-09T08:06:13.000Z</time>
</trkpt>
<trkpt lat="46.1677460" lon="10.4682900">
	<ele>2348.20</ele>
	<time>2023-08-09T08:06:14.000Z</time>
</trkpt>
<trkpt lat="46.1677460" lon="10.4682940">
	<ele>2348.00</ele>
	<time>2023-08-09T08:06:15.000Z</time>
</trkpt>
<trkpt lat="46.1677460" lon="10.4682970">
	<ele>2347.80</ele>
	<time>2023-08-09T08:06:16.000Z</time>
</trkpt>
<trkpt lat="46.1677470" lon="10.4683020">
	<ele>2347.40</ele>
	<time>2023-08-09T08:06:17.000Z</time>
</trkpt>
<trkpt lat="46.1677470" lon="10.4683080">
	<ele>2347.00</ele>
	<time>2023-08-09T08:06:18.000Z</time>
</trkpt>
<trkpt lat="46.1677480" lon="10.4683130">
	<ele>2346.80</ele>
	<time>2023-08-09T08:06:19.000Z</time>
</trkpt>
<trkpt lat="46.1677500" lon="10.4683160">
	<ele>2346.60</ele>
	<time>2023-08-09T08:06:20.000Z</time>
</trkpt>
<trkpt lat="46.1677520" lon="10.4683200">
	<ele>2346.60</ele>
	<time>2023-08-09T08:06:21.000Z</time>
</trkpt>
<trkpt lat="46.1677530" lon="10.4683250">
	<ele>2346.40</ele>
	<time>2023-08-09T08:06:22.000Z</time>
</trkpt>
<trkpt lat="46.1677550" lon="10.4683310">
	<ele>2346.40</ele>
	<time>2023-08-09T08:06:23.000Z</time>
</trkpt>
<trkpt lat="46.1677570" lon="10.4683350">
	<ele>2346.00</ele>
	<time>2023-08-09T08:06:24.000Z</time>
</trkpt>
<trkpt lat="46.1677580" lon="10.4683410">
	<ele>2345.60</ele>
	<time>2023-08-09T08:06:25.000Z</time>
</trkpt>
<trkpt lat="46.1677590" lon="10.4683460">
	<ele>2345.60</ele>
	<time>2023-08-09T08:06:26.000Z</time>
</trkpt>
<trkpt lat="46.1677600" lon="10.4683510">
	<ele>2345.20</ele>
	<time>2023-08-09T08:06:27.000Z</time>
</trkpt>
<trkpt lat="46.1677600" lon="10.4683560">
	<ele>2345.20</ele>
	<time>2023-08-09T08:06:28.000Z</time>
</trkpt>
<trkpt lat="46.1677600" lon="10.4683600">
	<ele>2344.80</ele>
	<time>2023-08-09T08:06:29.000Z</time>
</trkpt>
<trkpt lat="46.1677610" lon="10.4683650">
	<ele>2344.60</ele>
	<time>2023-08-09T08:06:30.000Z</time>
</trkpt>
<trkpt lat="46.1677610" lon="10.4683710">
	<ele>2344.60</ele>
	<time>2023-08-09T08:06:31.000Z</time>
</trkpt>
<trkpt lat="46.1677610" lon="10.4683770">
	<ele>2344.60</ele>
	<time>2023-08-09T08:06:32.000Z</time>
</trkpt>
<trkpt lat="46.1677610" lon="10.4683820">
	<ele>2344.40</ele>
	<time>2023-08-09T08:06:33.000Z</time>
</trkpt>
<trkpt lat="46.1677610" lon="10.4683870">
	<ele>2344.20</ele>
	<time>2023-08-09T08:06:34.000Z</time>
</trkpt>
<trkpt lat="46.1677610" lon="10.4683920">
	<ele>2344.00</ele>
	<time>2023-08-09T08:06:35.000Z</time>
</trkpt>
<trkpt lat="46.1677610" lon="10.4683980">
	<ele>2343.80</ele>
	<time>2023-08-09T08:06:36.000Z</time>
</trkpt>
<trkpt lat="46.1677610" lon="10.4684030">
	<ele>2343.60</ele>
	<time>2023-08-09T08:06:37.000Z</time>
</trkpt>
<trkpt lat="46.1677610" lon="10.4684080">
	<ele>2343.40</ele>
	<time>2023-08-09T08:06:38.000Z</time>
</trkpt>
<trkpt lat="46.1677610" lon="10.4684120">
	<ele>2343.20</ele>
	<time>2023-08-09T08:06:39.000Z</time>
</trkpt>
<trkpt lat="46.1677610" lon="10.4684160">
	<ele>2342.80</ele>
	<time>2023-08-09T08:06:40.000Z</time>
</trkpt>
<trkpt lat="46.1677610" lon="10.4684210">
	<ele>2342.60</ele>
	<time>2023-08-09T08:06:41.000Z</time>
</trkpt>
<trkpt lat="46.1677610" lon="10.4684260">
	<ele>2342.40</ele>
	<time>2023-08-09T08:06:42.000Z</time>
</trkpt>
<trkpt lat="46.1677610" lon="10.4684310">
	<ele>2342.00</ele>
	<time>2023-08-09T08:06:43.000Z</time>
</trkpt>
<trkpt lat="46.1677610" lon="10.4684360">
	<ele>2341.80</ele>
	<time>2023-08-09T08:06:44.000Z</time>
</trkpt>
<trkpt lat="46.1677610" lon="10.4684400">
	<ele>2341.80</ele>
	<time>2023-08-09T08:06:45.000Z</time>
</trkpt>
<trkpt lat="46.1677610" lon="10.4684450">
	<ele>2341.40</ele>
	<time>2023-08-09T08:06:46.000Z</time>
</trkpt>
<trkpt lat="46.1677610" lon="10.4684490">
	<ele>2341.20</ele>
	<time>2023-08-09T08:06:47.000Z</time>
</trkpt>
<trkpt lat="46.1677610" lon="10.4684530">
	<ele>2341.00</ele>
	<time>2023-08-09T08:06:48.000Z</time>
</trkpt>
<trkpt lat="46.1677610" lon="10.4684580">
	<ele>2340.60</ele>
	<time>2023-08-09T08:06:49.000Z</time>
</trkpt>
<trkpt lat="46.1677610" lon="10.4684630">
	<ele>2340.40</ele>
	<time>2023-08-09T08:06:50.000Z</time>
</trkpt>
<trkpt lat="46.1677610" lon="10.4684680">
	<ele>2340.20</ele>
	<time>2023-08-09T08:06:51.000Z</time>
</trkpt>
<trkpt lat="46.1677610" lon="10.4684730">
	<ele>2340.00</ele>
	<time>2023-08-09T08:06:52.000Z</time>
</trkpt>
<trkpt lat="46.1677610" lon="10.4684780">
	<ele>2339.80</ele>
	<time>2023-08-09T08:06:53.000Z</time>
</trkpt>
<trkpt lat="46.1677610" lon="10.4684850">
	<ele>2339.60</ele>
	<time>2023-08-09T08:06:54.000Z</time>
</trkpt>
<trkpt lat="46.1677610" lon="10.4684900">
	<ele>2339.60</ele>
	<time>2023-08-09T08:06:55.000Z</time>
</trkpt>
<trkpt lat="46.1677620" lon="10.4684960">
	<ele>2339.40</ele>
	<time>2023-08-09T08:06:56.000Z</time>
</trkpt>
<trkpt lat="46.1677620" lon="10.4685020">
	<ele>2339.20</ele>
	<time>2023-08-09T08:06:57.000Z</time>
</trkpt>
<trkpt lat="46.1677630" lon="10.4685070">
	<ele>2339.00</ele>
	<time>2023-08-09T08:06:58.000Z</time>
</trkpt>
<trkpt lat="46.1677650" lon="10.4685130">
	<ele>2338.80</ele>
	<time>2023-08-09T08:06:59.000Z</time>
</trkpt>
<trkpt lat="46.1677660" lon="10.4685180">
	<ele>2338.60</ele>
	<time>2023-08-09T08:07:00.000Z</time>
</trkpt>
<trkpt lat="46.1677670" lon="10.4685300">
	<ele>2338.40</ele>
	<time>2023-08-09T08:07:01.000Z</time>
</trkpt>
<trkpt lat="46.1677660" lon="10.4685430">
	<ele>2338.20</ele>
	<time>2023-08-09T08:07:02.000Z</time>
</trkpt>
<trkpt lat="46.1677660" lon="10.4685620">
	<ele>2338.00</ele>
	<time>2023-08-09T08:07:03.000Z</time>
</trkpt>
<trkpt lat="46.1677650" lon="10.4685820">
	<ele>2337.80</ele>
	<time>2023-08-09T08:07:04.000Z</time>
</trkpt>
<trkpt lat="46.1677650" lon="10.4686010">
	<ele>2337.40</ele>
	<time>2023-08-09T08:07:05.000Z</time>
</trkpt>
<trkpt lat="46.1677600" lon="10.4686200">
	<ele>2337.20</ele>
	<time>2023-08-09T08:07:06.000Z</time>
</trkpt>
<trkpt lat="46.1677530" lon="10.4686350">
	<ele>2337.00</ele>
	<time>2023-08-09T08:07:07.000Z</time>
</trkpt>
<trkpt lat="46.1677480" lon="10.4686520">
	<ele>2337.00</ele>
	<time>2023-08-09T08:07:08.000Z</time>
</trkpt>
<trkpt lat="46.1677450" lon="10.4686680">
	<ele>2336.80</ele>
	<time>2023-08-09T08:07:09.000Z</time>
</trkpt>
<trkpt lat="46.1677440" lon="10.4686810">
	<ele>2336.60</ele>
	<time>2023-08-09T08:07:10.000Z</time>
</trkpt>
<trkpt lat="46.1677450" lon="10.4686830">
	<ele>2336.40</ele>
	<time>2023-08-09T08:07:11.000Z</time>
</trkpt>
<trkpt lat="46.1677480" lon="10.4686920">
	<ele>2336.20</ele>
	<time>2023-08-09T08:07:12.000Z</time>
</trkpt>
<trkpt lat="46.1677490" lon="10.4687000">
	<ele>2336.00</ele>
	<time>2023-08-09T08:07:13.000Z</time>
</trkpt>
<trkpt lat="46.1677490" lon="10.4687070">
	<ele>2336.00</ele>
	<time>2023-08-09T08:07:14.000Z</time>
</trkpt>
<trkpt lat="46.1677470" lon="10.4687120">
	<ele>2335.60</ele>
	<time>2023-08-09T08:07:15.000Z</time>
</trkpt>
<trkpt lat="46.1677460" lon="10.4687150">
	<ele>2335.20</ele>
	<time>2023-08-09T08:07:16.000Z</time>
</trkpt>
<trkpt lat="46.1677440" lon="10.4687170">
	<ele>2335.00</ele>
	<time>2023-08-09T08:07:17.000Z</time>
</trkpt>
<trkpt lat="46.1677450" lon="10.4687220">
	<ele>2334.80</ele>
	<time>2023-08-09T08:07:18.000Z</time>
</trkpt>
<trkpt lat="46.1677460" lon="10.4687280">
	<ele>2334.60</ele>
	<time>2023-08-09T08:07:19.000Z</time>
</trkpt>
<trkpt lat="46.1677440" lon="10.4687360">
	<ele>2334.60</ele>
	<time>2023-08-09T08:07:20.000Z</time>
</trkpt>
<trkpt lat="46.1677440" lon="10.4687410">
	<ele>2334.40</ele>
	<time>2023-08-09T08:07:21.000Z</time>
</trkpt>
<trkpt lat="46.1677450" lon="10.4687440">
	<ele>2334.00</ele>
	<time>2023-08-09T08:07:22.000Z</time>
</trkpt>
<trkpt lat="46.1677460" lon="10.4687490">
	<ele>2333.80</ele>
	<time>2023-08-09T08:07:23.000Z</time>
</trkpt>
<trkpt lat="46.1677430" lon="10.4687570">
	<ele>2333.60</ele>
	<time>2023-08-09T08:07:24.000Z</time>
</trkpt>
<trkpt lat="46.1677440" lon="10.4687610">
	<ele>2333.20</ele>
	<time>2023-08-09T08:07:25.000Z</time>
</trkpt>
<trkpt lat="46.1677440" lon="10.4687640">
	<ele>2333.00</ele>
	<time>2023-08-09T08:07:26.000Z</time>
</trkpt>
<trkpt lat="46.1677450" lon="10.4687680">
	<ele>2332.80</ele>
	<time>2023-08-09T08:07:27.000Z</time>
</trkpt>
<trkpt lat="46.1677480" lon="10.4687720">
	<ele>2332.60</ele>
	<time>2023-08-09T08:07:28.000Z</time>
</trkpt>
<trkpt lat="46.1677520" lon="10.4687770">
	<ele>2332.40</ele>
	<time>2023-08-09T08:07:29.000Z</time>
</trkpt>
<trkpt lat="46.1677550" lon="10.4687810">
	<ele>2332.20</ele>
	<time>2023-08-09T08:07:30.000Z</time>
</trkpt>
<trkpt lat="46.1677570" lon="10.4687850">
	<ele>2332.20</ele>
	<time>2023-08-09T08:07:31.000Z</time>
</trkpt>
<trkpt lat="46.1677610" lon="10.4687910">
	<ele>2331.80</ele>
	<time>2023-08-09T08:07:32.000Z</time>
</trkpt>
<trkpt lat="46.1677660" lon="10.4687970">
	<ele>2331.60</ele>
	<time>2023-08-09T08:07:33.000Z</time>
</trkpt>
<trkpt lat="46.1677740" lon="10.4688040">
	<ele>2331.40</ele>
	<time>2023-08-09T08:07:34.000Z</time>
</trkpt>
<trkpt lat="46.1677820" lon="10.4688100">
	<ele>2331.20</ele>
	<time>2023-08-09T08:07:35.000Z</time>
</trkpt>
<trkpt lat="46.1677910" lon="10.4688170">
	<ele>2331.00</ele>
	<time>2023-08-09T08:07:36.000Z</time>
</trkpt>
<trkpt lat="46.1678010" lon="10.4688220">
	<ele>2331.00</ele>
	<time>2023-08-09T08:07:37.000Z</time>
</trkpt>
<trkpt lat="46.1678110" lon="10.4688230">
	<ele>2331.00</ele>
	<time>2023-08-09T08:07:38.000Z</time>
</trkpt>
<trkpt lat="46.1678220" lon="10.4688250">
	<ele>2330.80</ele>
	<time>2023-08-09T08:07:39.000Z</time>
</trkpt>
<trkpt lat="46.1678290" lon="10.4688240">
	<ele>2330.80</ele>
	<time>2023-08-09T08:07:40.000Z</time>
</trkpt>
<trkpt lat="46.1678300" lon="10.4688240">
	<ele>2330.80</ele>
	<time>2023-08-09T08:07:41.000Z</time>
</trkpt>
<trkpt lat="46.1678330" lon="10.4688220">
	<ele>2330.60</ele>
	<time>2023-08-09T08:07:42.000Z</time>
</trkpt>
<trkpt lat="46.1678320" lon="10.4688220">
	<ele>2330.60</ele>
	<time>2023-08-09T08:07:43.000Z</time>
</trkpt>
<trkpt lat="46.1678320" lon="10.4688230">
	<ele>2330.60</ele>
	<time>2023-08-09T08:07:44.000Z</time>
</trkpt>
<trkpt lat="46.1678320" lon="10.4688240">
	<ele>2330.60</ele>
	<time>2023-08-09T08:07:45.000Z</time>
</trkpt>
<trkpt lat="46.1678330" lon="10.4688240">
	<ele>2330.60</ele>
	<time>2023-08-09T08:07:46.000Z</time>
</trkpt>
<trkpt lat="46.1678330" lon="10.4688250">
	<ele>2330.80</ele>
	<time>2023-08-09T08:07:47.000Z</time>
</trkpt>
<trkpt lat="46.1678340" lon="10.4688270">
	<ele>2331.00</ele>
	<time>2023-08-09T08:07:48.000Z</time>
</trkpt>
<trkpt lat="46.1678350" lon="10.4688280">
	<ele>2331.20</ele>
	<time>2023-08-09T08:07:49.000Z</time>
</trkpt>
<trkpt lat="46.1678350" lon="10.4688280">
	<ele>2331.40</ele>
	<time>2023-08-09T08:07:50.000Z</time>
</trkpt>
<trkpt lat="46.1678340" lon="10.4688280">
	<ele>2331.40</ele>
	<time>2023-08-09T08:07:51.000Z</time>
</trkpt>
<trkpt lat="46.1678340" lon="10.4688280">
	<ele>2331.60</ele>
	<time>2023-08-09T08:07:52.000Z</time>
</trkpt>
<trkpt lat="46.1678340" lon="10.4688280">
	<ele>2331.60</ele>
	<time>2023-08-09T08:07:53.000Z</time>
</trkpt>
<trkpt lat="46.1678340" lon="10.4688280">
	<ele>2331.40</ele>
	<time>2023-08-09T08:07:54.000Z</time>
</trkpt>
<trkpt lat="46.1678340" lon="10.4688280">
	<ele>2331.40</ele>
	<time>2023-08-09T08:07:55.000Z</time>
</trkpt>
<trkpt lat="46.1678340" lon="10.4688280">
	<ele>2331.40</ele>
	<time>2023-08-09T08:07:56.000Z</time>
</trkpt>
<trkpt lat="46.1678340" lon="10.4688280">
	<ele>2331.20</ele>
	<time>2023-08-09T08:07:57.000Z</time>
</trkpt>
<trkpt lat="46.1678340" lon="10.4688280">
	<ele>2331.00</ele>
	<time>2023-08-09T08:07:58.000Z</time>
</trkpt>
<trkpt lat="46.1678340" lon="10.4688280">
	<ele>2330.80</ele>
	<time>2023-08-09T08:07:59.000Z</time>
</trkpt>
<trkpt lat="46.1678340" lon="10.4688280">
	<ele>2330.80</ele>
	<time>2023-08-09T08:08:00.000Z</time>
</trkpt>
<trkpt lat="46.1678340" lon="10.4688280">
	<ele>2330.80</ele>
	<time>2023-08-09T08:08:01.000Z</time>
</trkpt>
<trkpt lat="46.1678340" lon="10.4688280">
	<ele>2330.80</ele>
	<time>2023-08-09T08:08:02.000Z</time>
</trkpt>
<trkpt lat="46.1678340" lon="10.4688280">
	<ele>2330.80</ele>
	<time>2023-08-09T08:08:03.000Z</time>
</trkpt>
<trkpt lat="46.1678340" lon="10.4688280">
	<ele>2330.80</ele>
	<time>2023-08-09T08:08:04.000Z</time>
</trkpt>
<trkpt lat="46.1678340" lon="10.4688280">
	<ele>2330.80</ele>
	<time>2023-08-09T08:08:05.000Z</time>
</trkpt>
<trkpt lat="46.1678350" lon="10.4688280">
	<ele>2330.80</ele>
	<time>2023-08-09T08:08:06.000Z</time>
</trkpt>
<trkpt lat="46.1678350" lon="10.4688280">
	<ele>2330.80</ele>
	<time>2023-08-09T08:08:07.000Z</time>
</trkpt>
<trkpt lat="46.1678360" lon="10.4688280">
	<ele>2330.60</ele>
	<time>2023-08-09T08:08:08.000Z</time>
</trkpt>
<trkpt lat="46.1678380" lon="10.4688280">
	<ele>2330.60</ele>
	<time>2023-08-09T08:08:09.000Z</time>
</trkpt>
<trkpt lat="46.1678420" lon="10.4688300">
	<ele>2330.60</ele>
	<time>2023-08-09T08:08:10.000Z</time>
</trkpt>
<trkpt lat="46.1678520" lon="10.4688390">
	<ele>2330.60</ele>
	<time>2023-08-09T08:08:11.000Z</time>
</trkpt>
<trkpt lat="46.1678630" lon="10.4688500">
	<ele>2330.60</ele>
	<time>2023-08-09T08:08:12.000Z</time>
</trkpt>
<trkpt lat="46.1678760" lon="10.4688610">
	<ele>2330.60</ele>
	<time>2023-08-09T08:08:13.000Z</time>
</trkpt>
<trkpt lat="46.1678920" lon="10.4688690">
	<ele>2330.40</ele>
	<time>2023-08-09T08:08:14.000Z</time>
</trkpt>
<trkpt lat="46.1679050" lon="10.4688760">
	<ele>2330.40</ele>
	<time>2023-08-09T08:08:15.000Z</time>
</trkpt>
<trkpt lat="46.1679160" lon="10.4688810">
	<ele>2330.40</ele>
	<time>2023-08-09T08:08:16.000Z</time>
</trkpt>
<trkpt lat="46.1679300" lon="10.4688860">
	<ele>2330.40</ele>
	<time>2023-08-09T08:08:17.000Z</time>
</trkpt>
<trkpt lat="46.1679450" lon="10.4688920">
	<ele>2330.40</ele>
	<time>2023-08-09T08:08:18.000Z</time>
</trkpt>
<trkpt lat="46.1679600" lon="10.4688970">
	<ele>2330.40</ele>
	<time>2023-08-09T08:08:19.000Z</time>
</trkpt>
<trkpt lat="46.1679720" lon="10.4688980">
	<ele>2330.40</ele>
	<time>2023-08-09T08:08:20.000Z</time>
</trkpt>
<trkpt lat="46.1679810" lon="10.4688960">
	<ele>2330.40</ele>
	<time>2023-08-09T08:08:21.000Z</time>
</trkpt>
<trkpt lat="46.1679890" lon="10.4688970">
	<ele>2330.40</ele>
	<time>2023-08-09T08:08:22.000Z</time>
</trkpt>
<trkpt lat="46.1679960" lon="10.4688980">
	<ele>2330.40</ele>
	<time>2023-08-09T08:08:23.000Z</time>
</trkpt>
<trkpt lat="46.1680020" lon="10.4688990">
	<ele>2330.40</ele>
	<time>2023-08-09T08:08:24.000Z</time>
</trkpt>
<trkpt lat="46.1680080" lon="10.4689020">
	<ele>2330.20</ele>
	<time>2023-08-09T08:08:25.000Z</time>
</trkpt>
<trkpt lat="46.1680130" lon="10.4689080">
	<ele>2330.20</ele>
	<time>2023-08-09T08:08:26.000Z</time>
</trkpt>
<trkpt lat="46.1680200" lon="10.4689130">
	<ele>2330.40</ele>
	<time>2023-08-09T08:08:27.000Z</time>
</trkpt>
<trkpt lat="46.1680270" lon="10.4689170">
	<ele>2330.40</ele>
	<time>2023-08-09T08:08:28.000Z</time>
</trkpt>
<trkpt lat="46.1680390" lon="10.4689220">
	<ele>2330.60</ele>
	<time>2023-08-09T08:08:29.000Z</time>
</trkpt>
<trkpt lat="46.1680490" lon="10.4689310">
	<ele>2330.60</ele>
	<time>2023-08-09T08:08:30.000Z</time>
</trkpt>
<trkpt lat="46.1680570" lon="10.4689410">
	<ele>2330.60</ele>
	<time>2023-08-09T08:08:31.000Z</time>
</trkpt>
<trkpt lat="46.1680670" lon="10.4689460">
	<ele>2330.40</ele>
	<time>2023-08-09T08:08:32.000Z</time>
</trkpt>
<trkpt lat="46.1680770" lon="10.4689500">
	<ele>2330.40</ele>
	<time>2023-08-09T08:08:33.000Z</time>
</trkpt>
<trkpt lat="46.1680840" lon="10.4689540">
	<ele>2330.40</ele>
	<time>2023-08-09T08:08:34.000Z</time>
</trkpt>
<trkpt lat="46.1680950" lon="10.4689590">
	<ele>2330.40</ele>
	<time>2023-08-09T08:08:35.000Z</time>
</trkpt>
<trkpt lat="46.1681060" lon="10.4689600">
	<ele>2330.40</ele>
	<time>2023-08-09T08:08:36.000Z</time>
</trkpt>
<trkpt lat="46.1681180" lon="10.4689620">
	<ele>2330.40</ele>
	<time>2023-08-09T08:08:37.000Z</time>
</trkpt>
<trkpt lat="46.1681300" lon="10.4689640">
	<ele>2330.40</ele>
	<time>2023-08-09T08:08:38.000Z</time>
</trkpt>
<trkpt lat="46.1681410" lon="10.4689680">
	<ele>2330.40</ele>
	<time>2023-08-09T08:08:39.000Z</time>
</trkpt>
<trkpt lat="46.1681510" lon="10.4689760">
	<ele>2330.40</ele>
	<time>2023-08-09T08:08:40.000Z</time>
</trkpt>
<trkpt lat="46.1681630" lon="10.4689830">
	<ele>2330.40</ele>
	<time>2023-08-09T08:08:41.000Z</time>
</trkpt>
<trkpt lat="46.1681720" lon="10.4689920">
	<ele>2330.40</ele>
	<time>2023-08-09T08:08:42.000Z</time>
</trkpt>
<trkpt lat="46.1681820" lon="10.4689990">
	<ele>2330.40</ele>
	<time>2023-08-09T08:08:43.000Z</time>
</trkpt>
<trkpt lat="46.1681920" lon="10.4690030">
	<ele>2330.40</ele>
	<time>2023-08-09T08:08:44.000Z</time>
</trkpt>
<trkpt lat="46.1682000" lon="10.4690090">
	<ele>2330.40</ele>
	<time>2023-08-09T08:08:45.000Z</time>
</trkpt>
<trkpt lat="46.1682080" lon="10.4690100">
	<ele>2330.40</ele>
	<time>2023-08-09T08:08:46.000Z</time>
</trkpt>
<trkpt lat="46.1682150" lon="10.4690080">
	<ele>2330.40</ele>
	<time>2023-08-09T08:08:47.000Z</time>
</trkpt>
<trkpt lat="46.1682290" lon="10.4689990">
	<ele>2330.40</ele>
	<time>2023-08-09T08:08:48.000Z</time>
</trkpt>
<trkpt lat="46.1682410" lon="10.4689950">
	<ele>2330.20</ele>
	<time>2023-08-09T08:08:49.000Z</time>
</trkpt>
<trkpt lat="46.1682490" lon="10.4689990">
	<ele>2330.20</ele>
	<time>2023-08-09T08:08:50.000Z</time>
</trkpt>
<trkpt lat="46.1682550" lon="10.4689950">
	<ele>2330.20</ele>
	<time>2023-08-09T08:08:51.000Z</time>
</trkpt>
<trkpt lat="46.1682590" lon="10.4689970">
	<ele>2330.20</ele>
	<time>2023-08-09T08:08:52.000Z</time>
</trkpt>
<trkpt lat="46.1682590" lon="10.4689990">
	<ele>2330.40</ele>
	<time>2023-08-09T08:08:53.000Z</time>
</trkpt>
<trkpt lat="46.1682600" lon="10.4690000">
	<ele>2330.60</ele>
	<time>2023-08-09T08:08:54.000Z</time>
</trkpt>
<trkpt lat="46.1682600" lon="10.4690020">
	<ele>2330.60</ele>
	<time>2023-08-09T08:08:55.000Z</time>
</trkpt>
<trkpt lat="46.1682600" lon="10.4690050">
	<ele>2330.60</ele>
	<time>2023-08-09T08:08:56.000Z</time>
</trkpt>
<trkpt lat="46.1682590" lon="10.4690070">
	<ele>2330.60</ele>
	<time>2023-08-09T08:08:57.000Z</time>
</trkpt>
<trkpt lat="46.1682590" lon="10.4690070">
	<ele>2330.60</ele>
	<time>2023-08-09T08:08:58.000Z</time>
</trkpt>
<trkpt lat="46.1682580" lon="10.4690080">
	<ele>2330.60</ele>
	<time>2023-08-09T08:08:59.000Z</time>
</trkpt>
<trkpt lat="46.1682570" lon="10.4690090">
	<ele>2330.60</ele>
	<time>2023-08-09T08:09:00.000Z</time>
</trkpt>
<trkpt lat="46.1682570" lon="10.4690090">
	<ele>2330.80</ele>
	<time>2023-08-09T08:09:01.000Z</time>
</trkpt>
<trkpt lat="46.1682590" lon="10.4690110">
	<ele>2330.80</ele>
	<time>2023-08-09T08:09:02.000Z</time>
</trkpt>
<trkpt lat="46.1682600" lon="10.4690150">
	<ele>2330.80</ele>
	<time>2023-08-09T08:09:03.000Z</time>
</trkpt>
<trkpt lat="46.1682630" lon="10.4690180">
	<ele>2330.80</ele>
	<time>2023-08-09T08:09:04.000Z</time>
</trkpt>
<trkpt lat="46.1682660" lon="10.4690200">
	<ele>2330.80</ele>
	<time>2023-08-09T08:09:05.000Z</time>
</trkpt>
<trkpt lat="46.1682690" lon="10.4690190">
	<ele>2330.80</ele>
	<time>2023-08-09T08:09:06.000Z</time>
</trkpt>
<trkpt lat="46.1682700" lon="10.4690180">
	<ele>2330.80</ele>
	<time>2023-08-09T08:09:07.000Z</time>
</trkpt>
<trkpt lat="46.1682710" lon="10.4690170">
	<ele>2330.80</ele>
	<time>2023-08-09T08:09:08.000Z</time>
</trkpt>
<trkpt lat="46.1682710" lon="10.4690170">
	<ele>2331.20</ele>
	<time>2023-08-09T08:09:09.000Z</time>
</trkpt>
<trkpt lat="46.1682710" lon="10.4690170">
	<ele>2331.20</ele>
	<time>2023-08-09T08:09:10.000Z</time>
</trkpt>
<trkpt lat="46.1682710" lon="10.4690170">
	<ele>2330.40</ele>
	<time>2023-08-09T08:09:11.000Z</time>
</trkpt>
<trkpt lat="46.1682710" lon="10.4690170">
	<ele>2330.40</ele>
	<time>2023-08-09T08:09:12.000Z</time>
</trkpt>
<trkpt lat="46.1682710" lon="10.4690170">
	<ele>2330.40</ele>
	<time>2023-08-09T08:09:13.000Z</time>
</trkpt>
<trkpt lat="46.1682710" lon="10.4690170">
	<ele>2330.40</ele>
	<time>2023-08-09T08:09:14.000Z</time>
</trkpt>
<trkpt lat="46.1682710" lon="10.4690170">
	<ele>2330.40</ele>
	<time>2023-08-09T08:09:15.000Z</time>
</trkpt>
<trkpt lat="46.1682710" lon="10.4690170">
	<ele>2330.40</ele>
	<time>2023-08-09T08:09:16.000Z</time>
</trkpt>
<trkpt lat="46.1682710" lon="10.4690170">
	<ele>2330.40</ele>
	<time>2023-08-09T08:09:17.000Z</time>
</trkpt>
<trkpt lat="46.1682710" lon="10.4690170">
	<ele>2330.40</ele>
	<time>2023-08-09T08:09:18.000Z</time>
</trkpt>
<trkpt lat="46.1682710" lon="10.4690170">
	<ele>2330.40</ele>
	<time>2023-08-09T08:09:19.000Z</time>
</trkpt>
<trkpt lat="46.1682710" lon="10.4690170">
	<ele>2330.40</ele>
	<time>2023-08-09T08:09:20.000Z</time>
</trkpt>
<trkpt lat="46.1682710" lon="10.4690170">
	<ele>2330.40</ele>
	<time>2023-08-09T08:09:21.000Z</time>
</trkpt>
<trkpt lat="46.1682710" lon="10.4690170">
	<ele>2330.40</ele>
	<time>2023-08-09T08:09:22.000Z</time>
</trkpt>
<trkpt lat="46.1682710" lon="10.4690170">
	<ele>2330.40</ele>
	<time>2023-08-09T08:09:23.000Z</time>
</trkpt>
<trkpt lat="46.1682710" lon="10.4690170">
	<ele>2330.40</ele>
	<time>2023-08-09T08:09:24.000Z</time>
</trkpt>
<trkpt lat="46.1682730" lon="10.4690170">
	<ele>2330.40</ele>
	<time>2023-08-09T08:09:25.000Z</time>
</trkpt>
<trkpt lat="46.1682750" lon="10.4690170">
	<ele>2330.40</ele>
	<time>2023-08-09T08:09:26.000Z</time>
</trkpt>
<trkpt lat="46.1682780" lon="10.4690170">
	<ele>2330.40</ele>
	<time>2023-08-09T08:09:27.000Z</time>
</trkpt>
<trkpt lat="46.1682790" lon="10.4690170">
	<ele>2330.40</ele>
	<time>2023-08-09T08:09:28.000Z</time>
</trkpt>
<trkpt lat="46.1682800" lon="10.4690170">
	<ele>2330.40</ele>
	<time>2023-08-09T08:09:29.000Z</time>
</trkpt>
<trkpt lat="46.1682810" lon="10.4690170">
	<ele>2330.40</ele>
	<time>2023-08-09T08:09:30.000Z</time>
</trkpt>
<trkpt lat="46.1682810" lon="10.4690170">
	<ele>2330.40</ele>
	<time>2023-08-09T08:09:31.000Z</time>
</trkpt>
<trkpt lat="46.1682820" lon="10.4690170">
	<ele>2330.40</ele>
	<time>2023-08-09T08:09:32.000Z</time>
</trkpt>
<trkpt lat="46.1682820" lon="10.4690170">
	<ele>2330.40</ele>
	<time>2023-08-09T08:09:33.000Z</time>
</trkpt>
<trkpt lat="46.1682830" lon="10.4690160">
	<ele>2330.40</ele>
	<time>2023-08-09T08:09:34.000Z</time>
</trkpt>
<trkpt lat="46.1682830" lon="10.4690160">
	<ele>2330.40</ele>
	<time>2023-08-09T08:09:35.000Z</time>
</trkpt>
<trkpt lat="46.1682830" lon="10.4690160">
	<ele>2330.40</ele>
	<time>2023-08-09T08:09:36.000Z</time>
</trkpt>
<trkpt lat="46.1682830" lon="10.4690160">
	<ele>2330.40</ele>
	<time>2023-08-09T08:09:37.000Z</time>
</trkpt>
<trkpt lat="46.1682830" lon="10.4690160">
	<ele>2330.40</ele>
	<time>2023-08-09T08:09:38.000Z</time>
</trkpt>
<trkpt lat="46.1682830" lon="10.4690160">
	<ele>2330.40</ele>
	<time>2023-08-09T08:09:39.000Z</time>
</trkpt>
<trkpt lat="46.1682830" lon="10.4690160">
	<ele>2330.40</ele>
	<time>2023-08-09T08:09:40.000Z</time>
</trkpt>
<trkpt lat="46.1682830" lon="10.4690160">
	<ele>2330.40</ele>
	<time>2023-08-09T08:09:41.000Z</time>
</trkpt>
<trkpt lat="46.1682830" lon="10.4690160">
	<ele>2330.40</ele>
	<time>2023-08-09T08:09:42.000Z</time>
</trkpt>
<trkpt lat="46.1682830" lon="10.4690160">
	<ele>2330.40</ele>
	<time>2023-08-09T08:09:43.000Z</time>
</trkpt>
<trkpt lat="46.1682830" lon="10.4690160">
	<ele>2330.40</ele>
	<time>2023-08-09T08:09:44.000Z</time>
</trkpt>
<trkpt lat="46.1682830" lon="10.4690160">
	<ele>2330.40</ele>
	<time>2023-08-09T08:09:45.000Z</time>
</trkpt>
<trkpt lat="46.1682830" lon="10.4690160">
	<ele>2330.40</ele>
	<time>2023-08-09T08:09:46.000Z</time>
</trkpt>
<trkpt lat="46.1682820" lon="10.4690160">
	<ele>2330.40</ele>
	<time>2023-08-09T08:09:47.000Z</time>
</trkpt>
<trkpt lat="46.1682820" lon="10.4690160">
	<ele>2330.40</ele>
	<time>2023-08-09T08:09:48.000Z</time>
</trkpt>
<trkpt lat="46.1682810" lon="10.4690160">
	<ele>2330.40</ele>
	<time>2023-08-09T08:09:49.000Z</time>
</trkpt>
<trkpt lat="46.1682810" lon="10.4690160">
	<ele>2330.40</ele>
	<time>2023-08-09T08:09:50.000Z</time>
</trkpt>
<trkpt lat="46.1682810" lon="10.4690160">
	<ele>2330.40</ele>
	<time>2023-08-09T08:09:51.000Z</time>
</trkpt>
<trkpt lat="46.1682810" lon="10.4690160">
	<ele>2330.40</ele>
	<time>2023-08-09T08:09:52.000Z</time>
</trkpt>
<trkpt lat="46.1682810" lon="10.4690160">
	<ele>2330.40</ele>
	<time>2023-08-09T08:09:53.000Z</time>
</trkpt>
<trkpt lat="46.1682770" lon="10.4690160">
	<ele>2330.40</ele>
	<time>2023-08-09T08:09:54.000Z</time>
</trkpt>
<trkpt lat="46.1682740" lon="10.4690160">
	<ele>2330.40</ele>
	<time>2023-08-09T08:09:55.000Z</time>
</trkpt>
<trkpt lat="46.1682720" lon="10.4690160">
	<ele>2330.40</ele>
	<time>2023-08-09T08:09:56.000Z</time>
</trkpt>
<trkpt lat="46.1682700" lon="10.4690160">
	<ele>2330.40</ele>
	<time>2023-08-09T08:09:57.000Z</time>
</trkpt>
<trkpt lat="46.1682690" lon="10.4690170">
	<ele>2330.40</ele>
	<time>2023-08-09T08:09:58.000Z</time>
</trkpt>
<trkpt lat="46.1682690" lon="10.4690170">
	<ele>2330.40</ele>
	<time>2023-08-09T08:09:59.000Z</time>
</trkpt>
<trkpt lat="46.1682690" lon="10.4690180">
	<ele>2330.40</ele>
	<time>2023-08-09T08:10:00.000Z</time>
</trkpt>
<trkpt lat="46.1682690" lon="10.4690180">
	<ele>2330.40</ele>
	<time>2023-08-09T08:10:01.000Z</time>
</trkpt>
<trkpt lat="46.1682690" lon="10.4690190">
	<ele>2330.40</ele>
	<time>2023-08-09T08:10:02.000Z</time>
</trkpt>
<trkpt lat="46.1682690" lon="10.4690200">
	<ele>2330.40</ele>
	<time>2023-08-09T08:10:03.000Z</time>
</trkpt>
<trkpt lat="46.1682690" lon="10.4690280">
	<ele>2330.40</ele>
	<time>2023-08-09T08:10:04.000Z</time>
</trkpt>
<trkpt lat="46.1682650" lon="10.4690500">
	<ele>2330.40</ele>
	<time>2023-08-09T08:10:05.000Z</time>
</trkpt>
<trkpt lat="46.1682660" lon="10.4690720">
	<ele>2330.40</ele>
	<time>2023-08-09T08:10:06.000Z</time>
</trkpt>
<trkpt lat="46.1682650" lon="10.4690920">
	<ele>2330.40</ele>
	<time>2023-08-09T08:10:07.000Z</time>
</trkpt>
<trkpt lat="46.1682640" lon="10.4691120">
	<ele>2330.40</ele>
	<time>2023-08-09T08:10:08.000Z</time>
</trkpt>
<trkpt lat="46.1682650" lon="10.4691300">
	<ele>2330.40</ele>
	<time>2023-08-09T08:10:09.000Z</time>
</trkpt>
<trkpt lat="46.1682640" lon="10.4691430">
	<ele>2330.40</ele>
	<time>2023-08-09T08:10:10.000Z</time>
</trkpt>
<trkpt lat="46.1682630" lon="10.4691550">
	<ele>2330.40</ele>
	<time>2023-08-09T08:10:11.000Z</time>
</trkpt>
<trkpt lat="46.1682620" lon="10.4691640">
	<ele>2330.40</ele>
	<time>2023-08-09T08:10:12.000Z</time>
</trkpt>
<trkpt lat="46.1682610" lon="10.4691720">
	<ele>2330.40</ele>
	<time>2023-08-09T08:10:13.000Z</time>
</trkpt>
<trkpt lat="46.1682610" lon="10.4691700">
	<ele>2330.40</ele>
	<time>2023-08-09T08:10:14.000Z</time>
</trkpt>
<trkpt lat="46.1682610" lon="10.4691700">
	<ele>2331.00</ele>
	<time>2023-08-09T08:10:15.000Z</time>
</trkpt>
<trkpt lat="46.1682610" lon="10.4691700">
	<ele>2331.20</ele>
	<time>2023-08-09T08:10:16.000Z</time>
</trkpt>
<trkpt lat="46.1682620" lon="10.4691700">
	<ele>2331.60</ele>
	<time>2023-08-09T08:10:17.000Z</time>
</trkpt>
<trkpt lat="46.1682620" lon="10.4691700">
	<ele>2331.80</ele>
	<time>2023-08-09T08:10:18.000Z</time>
</trkpt>
<trkpt lat="46.1682620" lon="10.4691700">
	<ele>2332.20</ele>
	<time>2023-08-09T08:10:19.000Z</time>
</trkpt>
<trkpt lat="46.1682620" lon="10.4691700">
	<ele>2332.20</ele>
	<time>2023-08-09T08:10:20.000Z</time>
</trkpt>
<trkpt lat="46.1682620" lon="10.4691700">
	<ele>2332.40</ele>
	<time>2023-08-09T08:10:21.000Z</time>
</trkpt>
<trkpt lat="46.1682620" lon="10.4691700">
	<ele>2332.40</ele>
	<time>2023-08-09T08:10:22.000Z</time>
</trkpt>
<trkpt lat="46.1682620" lon="10.4691700">
	<ele>2332.40</ele>
	<time>2023-08-09T08:10:23.000Z</time>
</trkpt>
<trkpt lat="46.1682620" lon="10.4691700">
	<ele>2332.40</ele>
	<time>2023-08-09T08:10:24.000Z</time>
</trkpt>
<trkpt lat="46.1682620" lon="10.4691700">
	<ele>2332.40</ele>
	<time>2023-08-09T08:10:25.000Z</time>
</trkpt>
<trkpt lat="46.1682620" lon="10.4691700">
	<ele>2332.40</ele>
	<time>2023-08-09T08:10:26.000Z</time>
</trkpt>
<trkpt lat="46.1682620" lon="10.4691700">
	<ele>2332.20</ele>
	<time>2023-08-09T08:10:27.000Z</time>
</trkpt>
<trkpt lat="46.1682620" lon="10.4691700">
	<ele>2332.20</ele>
	<time>2023-08-09T08:10:28.000Z</time>
</trkpt>
<trkpt lat="46.1682620" lon="10.4691700">
	<ele>2332.20</ele>
	<time>2023-08-09T08:10:29.000Z</time>
</trkpt>
<trkpt lat="46.1682620" lon="10.4691700">
	<ele>2332.20</ele>
	<time>2023-08-09T08:10:30.000Z</time>
</trkpt>
<trkpt lat="46.1682620" lon="10.4691700">
	<ele>2332.00</ele>
	<time>2023-08-09T08:10:31.000Z</time>
</trkpt>
<trkpt lat="46.1682620" lon="10.4691700">
	<ele>2332.00</ele>
	<time>2023-08-09T08:10:32.000Z</time>
</trkpt>
<trkpt lat="46.1682610" lon="10.4691700">
	<ele>2332.00</ele>
	<time>2023-08-09T08:10:33.000Z</time>
</trkpt>
<trkpt lat="46.1682610" lon="10.4691700">
	<ele>2332.00</ele>
	<time>2023-08-09T08:10:34.000Z</time>
</trkpt>
<trkpt lat="46.1682610" lon="10.4691700">
	<ele>2332.00</ele>
	<time>2023-08-09T08:10:35.000Z</time>
</trkpt>
<trkpt lat="46.1682610" lon="10.4691700">
	<ele>2332.00</ele>
	<time>2023-08-09T08:10:36.000Z</time>
</trkpt>
<trkpt lat="46.1682610" lon="10.4691700">
	<ele>2332.00</ele>
	<time>2023-08-09T08:10:37.000Z</time>
</trkpt>
<trkpt lat="46.1682610" lon="10.4691710">
	<ele>2332.00</ele>
	<time>2023-08-09T08:10:38.000Z</time>
</trkpt>
<trkpt lat="46.1682610" lon="10.4691710">
	<ele>2332.00</ele>
	<time>2023-08-09T08:10:39.000Z</time>
</trkpt>
<trkpt lat="46.1682610" lon="10.4691710">
	<ele>2332.00</ele>
	<time>2023-08-09T08:10:40.000Z</time>
</trkpt>
<trkpt lat="46.1682600" lon="10.4691710">
	<ele>2331.80</ele>
	<time>2023-08-09T08:10:41.000Z</time>
</trkpt>
<trkpt lat="46.1682600" lon="10.4691710">
	<ele>2331.80</ele>
	<time>2023-08-09T08:10:42.000Z</time>
</trkpt>
<trkpt lat="46.1682600" lon="10.4691710">
	<ele>2331.80</ele>
	<time>2023-08-09T08:10:43.000Z</time>
</trkpt>
<trkpt lat="46.1682600" lon="10.4691710">
	<ele>2331.80</ele>
	<time>2023-08-09T08:10:44.000Z</time>
</trkpt>
<trkpt lat="46.1682590" lon="10.4691720">
	<ele>2331.80</ele>
	<time>2023-08-09T08:10:45.000Z</time>
</trkpt>
<trkpt lat="46.1682590" lon="10.4691720">
	<ele>2331.60</ele>
	<time>2023-08-09T08:10:46.000Z</time>
</trkpt>
<trkpt lat="46.1682590" lon="10.4691720">
	<ele>2331.60</ele>
	<time>2023-08-09T08:10:47.000Z</time>
</trkpt>
<trkpt lat="46.1682590" lon="10.4691720">
	<ele>2331.40</ele>
	<time>2023-08-09T08:10:48.000Z</time>
</trkpt>
<trkpt lat="46.1682590" lon="10.4691720">
	<ele>2331.40</ele>
	<time>2023-08-09T08:10:49.000Z</time>
</trkpt>
<trkpt lat="46.1682590" lon="10.4691720">
	<ele>2331.40</ele>
	<time>2023-08-09T08:10:50.000Z</time>
</trkpt>
<trkpt lat="46.1682590" lon="10.4691720">
	<ele>2331.40</ele>
	<time>2023-08-09T08:10:51.000Z</time>
</trkpt>
<trkpt lat="46.1682590" lon="10.4691720">
	<ele>2331.40</ele>
	<time>2023-08-09T08:10:52.000Z</time>
</trkpt>
<trkpt lat="46.1682600" lon="10.4691720">
	<ele>2331.60</ele>
	<time>2023-08-09T08:10:53.000Z</time>
</trkpt>
<trkpt lat="46.1682600" lon="10.4691720">
	<ele>2331.60</ele>
	<time>2023-08-09T08:10:54.000Z</time>
</trkpt>
<trkpt lat="46.1682600" lon="10.4691710">
	<ele>2331.60</ele>
	<time>2023-08-09T08:10:55.000Z</time>
</trkpt>
<trkpt lat="46.1682600" lon="10.4691710">
	<ele>2331.80</ele>
	<time>2023-08-09T08:10:56.000Z</time>
</trkpt>
<trkpt lat="46.1682600" lon="10.4691710">
	<ele>2331.80</ele>
	<time>2023-08-09T08:10:57.000Z</time>
</trkpt>
<trkpt lat="46.1682600" lon="10.4691710">
	<ele>2331.80</ele>
	<time>2023-08-09T08:10:58.000Z</time>
</trkpt>
<trkpt lat="46.1682610" lon="10.4691710">
	<ele>2331.80</ele>
	<time>2023-08-09T08:10:59.000Z</time>
</trkpt>
<trkpt lat="46.1682610" lon="10.4691710">
	<ele>2331.80</ele>
	<time>2023-08-09T08:11:00.000Z</time>
</trkpt>
<trkpt lat="46.1682610" lon="10.4691710">
	<ele>2331.80</ele>
	<time>2023-08-09T08:11:01.000Z</time>
</trkpt>
<trkpt lat="46.1682620" lon="10.4691710">
	<ele>2331.80</ele>
	<time>2023-08-09T08:11:02.000Z</time>
</trkpt>
<trkpt lat="46.1682640" lon="10.4691710">
	<ele>2331.80</ele>
	<time>2023-08-09T08:11:03.000Z</time>
</trkpt>
<trkpt lat="46.1682660" lon="10.4691710">
	<ele>2332.00</ele>
	<time>2023-08-09T08:11:04.000Z</time>
</trkpt>
<trkpt lat="46.1682680" lon="10.4691710">
	<ele>2332.20</ele>
	<time>2023-08-09T08:11:05.000Z</time>
</trkpt>
<trkpt lat="46.1682680" lon="10.4691710">
	<ele>2332.20</ele>
	<time>2023-08-09T08:11:06.000Z</time>
</trkpt>
<trkpt lat="46.1682680" lon="10.4691720">
	<ele>2332.20</ele>
	<time>2023-08-09T08:11:07.000Z</time>
</trkpt>
<trkpt lat="46.1682680" lon="10.4691720">
	<ele>2332.20</ele>
	<time>2023-08-09T08:11:08.000Z</time>
</trkpt>
<trkpt lat="46.1682680" lon="10.4691720">
	<ele>2332.20</ele>
	<time>2023-08-09T08:11:09.000Z</time>
</trkpt>
<trkpt lat="46.1682680" lon="10.4691720">
	<ele>2332.20</ele>
	<time>2023-08-09T08:11:10.000Z</time>
</trkpt>
<trkpt lat="46.1682680" lon="10.4691720">
	<ele>2332.20</ele>
	<time>2023-08-09T08:11:11.000Z</time>
</trkpt>
<trkpt lat="46.1682680" lon="10.4691740">
	<ele>2332.20</ele>
	<time>2023-08-09T08:11:12.000Z</time>
</trkpt>
<trkpt lat="46.1682680" lon="10.4691800">
	<ele>2332.00</ele>
	<time>2023-08-09T08:11:13.000Z</time>
</trkpt>
<trkpt lat="46.1682680" lon="10.4691840">
	<ele>2332.00</ele>
	<time>2023-08-09T08:11:14.000Z</time>
</trkpt>
<trkpt lat="46.1682680" lon="10.4691880">
	<ele>2332.00</ele>
	<time>2023-08-09T08:11:15.000Z</time>
</trkpt>
<trkpt lat="46.1682680" lon="10.4691920">
	<ele>2332.00</ele>
	<time>2023-08-09T08:11:16.000Z</time>
</trkpt>
<trkpt lat="46.1682680" lon="10.4691990">
	<ele>2332.00</ele>
	<time>2023-08-09T08:11:17.000Z</time>
</trkpt>
<trkpt lat="46.1682680" lon="10.4692080">
	<ele>2331.80</ele>
	<time>2023-08-09T08:11:18.000Z</time>
</trkpt>
<trkpt lat="46.1682680" lon="10.4692180">
	<ele>2331.80</ele>
	<time>2023-08-09T08:11:19.000Z</time>
</trkpt>
<trkpt lat="46.1682640" lon="10.4692290">
	<ele>2331.80</ele>
	<time>2023-08-09T08:11:20.000Z</time>
</trkpt>
<trkpt lat="46.1682590" lon="10.4692420">
	<ele>2331.80</ele>
	<time>2023-08-09T08:11:21.000Z</time>
</trkpt>
<trkpt lat="46.1682570" lon="10.4692570">
	<ele>2331.80</ele>
	<time>2023-08-09T08:11:22.000Z</time>
</trkpt>
<trkpt lat="46.1682520" lon="10.4692810">
	<ele>2331.80</ele>
	<time>2023-08-09T08:11:23.000Z</time>
</trkpt>
<trkpt lat="46.1682490" lon="10.4693050">
	<ele>2331.80</ele>
	<time>2023-08-09T08:11:24.000Z</time>
</trkpt>
<trkpt lat="46.1682440" lon="10.4693300">
	<ele>2331.80</ele>
	<time>2023-08-09T08:11:25.000Z</time>
</trkpt>
<trkpt lat="46.1682370" lon="10.4693550">
	<ele>2331.80</ele>
	<time>2023-08-09T08:11:26.000Z</time>
</trkpt>
<trkpt lat="46.1682300" lon="10.4693790">
	<ele>2332.00</ele>
	<time>2023-08-09T08:11:27.000Z</time>
</trkpt>
<trkpt lat="46.1682280" lon="10.4694010">
	<ele>2331.80</ele>
	<time>2023-08-09T08:11:28.000Z</time>
</trkpt>
<trkpt lat="46.1682250" lon="10.4694260">
	<ele>2331.60</ele>
	<time>2023-08-09T08:11:29.000Z</time>
</trkpt>
<trkpt lat="46.1682220" lon="10.4694520">
	<ele>2331.60</ele>
	<time>2023-08-09T08:11:30.000Z</time>
</trkpt>
<trkpt lat="46.1682160" lon="10.4694780">
	<ele>2331.60</ele>
	<time>2023-08-09T08:11:31.000Z</time>
</trkpt>
<trkpt lat="46.1682120" lon="10.4694910">
	<ele>2331.60</ele>
	<time>2023-08-09T08:11:32.000Z</time>
</trkpt>
<trkpt lat="46.1682120" lon="10.4695030">
	<ele>2331.60</ele>
	<time>2023-08-09T08:11:33.000Z</time>
</trkpt>
<trkpt lat="46.1682110" lon="10.4695200">
	<ele>2331.60</ele>
	<time>2023-08-09T08:11:34.000Z</time>
</trkpt>
<trkpt lat="46.1682070" lon="10.4695340">
	<ele>2331.60</ele>
	<time>2023-08-09T08:11:35.000Z</time>
</trkpt>
<trkpt lat="46.1682110" lon="10.4695500">
	<ele>2331.40</ele>
	<time>2023-08-09T08:11:36.000Z</time>
</trkpt>
<trkpt lat="46.1682170" lon="10.4695680">
	<ele>2331.20</ele>
	<time>2023-08-09T08:11:37.000Z</time>
</trkpt>
<trkpt lat="46.1682100" lon="10.4695840">
	<ele>2331.20</ele>
	<time>2023-08-09T08:11:38.000Z</time>
</trkpt>
<trkpt lat="46.1682090" lon="10.4695970">
	<ele>2331.20</ele>
	<time>2023-08-09T08:11:39.000Z</time>
</trkpt>
<trkpt lat="46.1682100" lon="10.4696090">
	<ele>2331.20</ele>
	<time>2023-08-09T08:11:40.000Z</time>
</trkpt>
<trkpt lat="46.1682050" lon="10.4696230">
	<ele>2331.20</ele>
	<time>2023-08-09T08:11:41.000Z</time>
</trkpt>
<trkpt lat="46.1681960" lon="10.4696370">
	<ele>2331.20</ele>
	<time>2023-08-09T08:11:42.000Z</time>
</trkpt>
<trkpt lat="46.1681950" lon="10.4696460">
	<ele>2331.20</ele>
	<time>2023-08-09T08:11:43.000Z</time>
</trkpt>
<trkpt lat="46.1681900" lon="10.4696540">
	<ele>2331.40</ele>
	<time>2023-08-09T08:11:44.000Z</time>
</trkpt>
<trkpt lat="46.1681910" lon="10.4696610">
	<ele>2331.40</ele>
	<time>2023-08-09T08:11:45.000Z</time>
</trkpt>
<trkpt lat="46.1681870" lon="10.4696680">
	<ele>2331.40</ele>
	<time>2023-08-09T08:11:46.000Z</time>
</trkpt>
<trkpt lat="46.1681870" lon="10.4696760">
	<ele>2331.40</ele>
	<time>2023-08-09T08:11:47.000Z</time>
</trkpt>
<trkpt lat="46.1681840" lon="10.4696850">
	<ele>2331.40</ele>
	<time>2023-08-09T08:11:48.000Z</time>
</trkpt>
<trkpt lat="46.1681840" lon="10.4696930">
	<ele>2331.40</ele>
	<time>2023-08-09T08:11:49.000Z</time>
</trkpt>
<trkpt lat="46.1681790" lon="10.4697040">
	<ele>2331.40</ele>
	<time>2023-08-09T08:11:50.000Z</time>
</trkpt>
<trkpt lat="46.1681780" lon="10.4697150">
	<ele>2331.40</ele>
	<time>2023-08-09T08:11:51.000Z</time>
</trkpt>
<trkpt lat="46.1681740" lon="10.4697280">
	<ele>2331.40</ele>
	<time>2023-08-09T08:11:52.000Z</time>
</trkpt>
<trkpt lat="46.1681680" lon="10.4697410">
	<ele>2331.40</ele>
	<time>2023-08-09T08:11:53.000Z</time>
</trkpt>
<trkpt lat="46.1681640" lon="10.4697500">
	<ele>2331.40</ele>
	<time>2023-08-09T08:11:54.000Z</time>
</trkpt>
<trkpt lat="46.1681630" lon="10.4697590">
	<ele>2331.40</ele>
	<time>2023-08-09T08:11:55.000Z</time>
</trkpt>
<trkpt lat="46.1681610" lon="10.4697690">
	<ele>2331.40</ele>
	<time>2023-08-09T08:11:56.000Z</time>
</trkpt>
<trkpt lat="46.1681590" lon="10.4697780">
	<ele>2331.40</ele>
	<time>2023-08-09T08:11:57.000Z</time>
</trkpt>
<trkpt lat="46.1681610" lon="10.4697870">
	<ele>2331.40</ele>
	<time>2023-08-09T08:11:58.000Z</time>
</trkpt>
<trkpt lat="46.1681610" lon="10.4697990">
	<ele>2331.40</ele>
	<time>2023-08-09T08:11:59.000Z</time>
</trkpt>
<trkpt lat="46.1681570" lon="10.4698100">
	<ele>2331.60</ele>
	<time>2023-08-09T08:12:00.000Z</time>
</trkpt>
<trkpt lat="46.1681530" lon="10.4698210">
	<ele>2331.60</ele>
	<time>2023-08-09T08:12:01.000Z</time>
</trkpt>
<trkpt lat="46.1681510" lon="10.4698320">
	<ele>2331.60</ele>
	<time>2023-08-09T08:12:02.000Z</time>
</trkpt>
<trkpt lat="46.1681480" lon="10.4698450">
	<ele>2331.60</ele>
	<time>2023-08-09T08:12:03.000Z</time>
</trkpt>
<trkpt lat="46.1681460" lon="10.4698560">
	<ele>2331.60</ele>
	<time>2023-08-09T08:12:04.000Z</time>
</trkpt>
<trkpt lat="46.1681420" lon="10.4698670">
	<ele>2331.40</ele>
	<time>2023-08-09T08:12:05.000Z</time>
</trkpt>
<trkpt lat="46.1681390" lon="10.4698780">
	<ele>2331.40</ele>
	<time>2023-08-09T08:12:06.000Z</time>
</trkpt>
<trkpt lat="46.1681370" lon="10.4698900">
	<ele>2331.20</ele>
	<time>2023-08-09T08:12:07.000Z</time>
</trkpt>
<trkpt lat="46.1681380" lon="10.4699010">
	<ele>2331.20</ele>
	<time>2023-08-09T08:12:08.000Z</time>
</trkpt>
<trkpt lat="46.1681410" lon="10.4699120">
	<ele>2331.20</ele>
	<time>2023-08-09T08:12:09.000Z</time>
</trkpt>
<trkpt lat="46.1681380" lon="10.4699260">
	<ele>2331.20</ele>
	<time>2023-08-09T08:12:10.000Z</time>
</trkpt>
<trkpt lat="46.1681350" lon="10.4699400">
	<ele>2331.20</ele>
	<time>2023-08-09T08:12:11.000Z</time>
</trkpt>
<trkpt lat="46.1681340" lon="10.4699560">
	<ele>2331.20</ele>
	<time>2023-08-09T08:12:12.000Z</time>
</trkpt>
<trkpt lat="46.1681310" lon="10.4699680">
	<ele>2331.40</ele>
	<time>2023-08-09T08:12:13.000Z</time>
</trkpt>
<trkpt lat="46.1681290" lon="10.4699790">
	<ele>2331.40</ele>
	<time>2023-08-09T08:12:14.000Z</time>
</trkpt>
<trkpt lat="46.1681270" lon="10.4699890">
	<ele>2331.40</ele>
	<time>2023-08-09T08:12:15.000Z</time>
</trkpt>
<trkpt lat="46.1681250" lon="10.4700030">
	<ele>2331.40</ele>
	<time>2023-08-09T08:12:16.000Z</time>
</trkpt>
<trkpt lat="46.1681240" lon="10.4700140">
	<ele>2331.40</ele>
	<time>2023-08-09T08:12:17.000Z</time>
</trkpt>
<trkpt lat="46.1681240" lon="10.4700270">
	<ele>2331.40</ele>
	<time>2023-08-09T08:12:18.000Z</time>
</trkpt>
<trkpt lat="46.1681200" lon="10.4700400">
	<ele>2331.40</ele>
	<time>2023-08-09T08:12:19.000Z</time>
</trkpt>
<trkpt lat="46.1681160" lon="10.4700510">
	<ele>2331.20</ele>
	<time>2023-08-09T08:12:20.000Z</time>
</trkpt>
<trkpt lat="46.1681130" lon="10.4700640">
	<ele>2331.20</ele>
	<time>2023-08-09T08:12:21.000Z</time>
</trkpt>
<trkpt lat="46.1681110" lon="10.4700740">
	<ele>2331.20</ele>
	<time>2023-08-09T08:12:22.000Z</time>
</trkpt>
<trkpt lat="46.1681050" lon="10.4700860">
	<ele>2331.20</ele>
	<time>2023-08-09T08:12:23.000Z</time>
</trkpt>
<trkpt lat="46.1680990" lon="10.4701000">
	<ele>2331.20</ele>
	<time>2023-08-09T08:12:24.000Z</time>
</trkpt>
<trkpt lat="46.1680980" lon="10.4701130">
	<ele>2331.20</ele>
	<time>2023-08-09T08:12:25.000Z</time>
</trkpt>
<trkpt lat="46.1680980" lon="10.4701260">
	<ele>2331.20</ele>
	<time>2023-08-09T08:12:26.000Z</time>
</trkpt>
<trkpt lat="46.1680960" lon="10.4701380">
	<ele>2331.20</ele>
	<time>2023-08-09T08:12:27.000Z</time>
</trkpt>
<trkpt lat="46.1680940" lon="10.4701520">
	<ele>2331.00</ele>
	<time>2023-08-09T08:12:28.000Z</time>
</trkpt>
<trkpt lat="46.1680900" lon="10.4701660">
	<ele>2331.00</ele>
	<time>2023-08-09T08:12:29.000Z</time>
</trkpt>
<trkpt lat="46.1680880" lon="10.4701810">
	<ele>2331.00</ele>
	<time>2023-08-09T08:12:30.000Z</time>
</trkpt>
<trkpt lat="46.1680860" lon="10.4701950">
	<ele>2331.00</ele>
	<time>2023-08-09T08:12:31.000Z</time>
</trkpt>
<trkpt lat="46.1680830" lon="10.4702080">
	<ele>2331.00</ele>
	<time>2023-08-09T08:12:32.000Z</time>
</trkpt>
<trkpt lat="46.1680810" lon="10.4702210">
	<ele>2331.00</ele>
	<time>2023-08-09T08:12:33.000Z</time>
</trkpt>
<trkpt lat="46.1680810" lon="10.4702320">
	<ele>2331.00</ele>
	<time>2023-08-09T08:12:34.000Z</time>
</trkpt>
<trkpt lat="46.1680770" lon="10.4702460">
	<ele>2331.00</ele>
	<time>2023-08-09T08:12:35.000Z</time>
</trkpt>
<trkpt lat="46.1680720" lon="10.4702590">
	<ele>2331.20</ele>
	<time>2023-08-09T08:12:36.000Z</time>
</trkpt>
<trkpt lat="46.1680680" lon="10.4702720">
	<ele>2331.00</ele>
	<time>2023-08-09T08:12:37.000Z</time>
</trkpt>
<trkpt lat="46.1680630" lon="10.4702810">
	<ele>2331.00</ele>
	<time>2023-08-09T08:12:38.000Z</time>
</trkpt>
<trkpt lat="46.1680610" lon="10.4702900">
	<ele>2331.20</ele>
	<time>2023-08-09T08:12:39.000Z</time>
</trkpt>
<trkpt lat="46.1680590" lon="10.4703020">
	<ele>2331.20</ele>
	<time>2023-08-09T08:12:40.000Z</time>
</trkpt>
<trkpt lat="46.1680560" lon="10.4703150">
	<ele>2331.20</ele>
	<time>2023-08-09T08:12:41.000Z</time>
</trkpt>
<trkpt lat="46.1680550" lon="10.4703230">
	<ele>2331.20</ele>
	<time>2023-08-09T08:12:42.000Z</time>
</trkpt>
<trkpt lat="46.1680530" lon="10.4703330">
	<ele>2331.20</ele>
	<time>2023-08-09T08:12:43.000Z</time>
</trkpt>
<trkpt lat="46.1680540" lon="10.4703430">
	<ele>2331.20</ele>
	<time>2023-08-09T08:12:44.000Z</time>
</trkpt>
<trkpt lat="46.1680530" lon="10.4703540">
	<ele>2331.20</ele>
	<time>2023-08-09T08:12:45.000Z</time>
</trkpt>
<trkpt lat="46.1680550" lon="10.4703660">
	<ele>2331.00</ele>
	<time>2023-08-09T08:12:46.000Z</time>
</trkpt>
<trkpt lat="46.1680530" lon="10.4703750">
	<ele>2331.00</ele>
	<time>2023-08-09T08:12:47.000Z</time>
</trkpt>
<trkpt lat="46.1680540" lon="10.4703860">
	<ele>2331.00</ele>
	<time>2023-08-09T08:12:48.000Z</time>
</trkpt>
<trkpt lat="46.1680560" lon="10.4704020">
	<ele>2331.00</ele>
	<time>2023-08-09T08:12:49.000Z</time>
</trkpt>
<trkpt lat="46.1680550" lon="10.4704160">
	<ele>2331.00</ele>
	<time>2023-08-09T08:12:50.000Z</time>
</trkpt>
<trkpt lat="46.1680540" lon="10.4704170">
	<ele>2331.00</ele>
	<time>2023-08-09T08:12:51.000Z</time>
</trkpt>
<trkpt lat="46.1680540" lon="10.4704190">
	<ele>2331.00</ele>
	<time>2023-08-09T08:12:52.000Z</time>
</trkpt>
<trkpt lat="46.1680540" lon="10.4704290">
	<ele>2331.00</ele>
	<time>2023-08-09T08:12:53.000Z</time>
</trkpt>
<trkpt lat="46.1680540" lon="10.4704390">
	<ele>2331.20</ele>
	<time>2023-08-09T08:12:54.000Z</time>
</trkpt>
<trkpt lat="46.1680520" lon="10.4704510">
	<ele>2331.00</ele>
	<time>2023-08-09T08:12:55.000Z</time>
</trkpt>
<trkpt lat="46.1680520" lon="10.4704610">
	<ele>2331.00</ele>
	<time>2023-08-09T08:12:56.000Z</time>
</trkpt>
<trkpt lat="46.1680480" lon="10.4704770">
	<ele>2331.00</ele>
	<time>2023-08-09T08:12:57.000Z</time>
</trkpt>
<trkpt lat="46.1680460" lon="10.4704900">
	<ele>2331.00</ele>
	<time>2023-08-09T08:12:58.000Z</time>
</trkpt>
<trkpt lat="46.1680470" lon="10.4705030">
	<ele>2331.00</ele>
	<time>2023-08-09T08:12:59.000Z</time>
</trkpt>
<trkpt lat="46.1680480" lon="10.4705170">
	<ele>2331.00</ele>
	<time>2023-08-09T08:13:00.000Z</time>
</trkpt>
<trkpt lat="46.1680520" lon="10.4705310">
	<ele>2331.00</ele>
	<time>2023-08-09T08:13:01.000Z</time>
</trkpt>
<trkpt lat="46.1680520" lon="10.4705430">
	<ele>2331.00</ele>
	<time>2023-08-09T08:13:02.000Z</time>
</trkpt>
<trkpt lat="46.1680500" lon="10.4705560">
	<ele>2331.00</ele>
	<time>2023-08-09T08:13:03.000Z</time>
</trkpt>
<trkpt lat="46.1680470" lon="10.4705670">
	<ele>2331.00</ele>
	<time>2023-08-09T08:13:04.000Z</time>
</trkpt>
<trkpt lat="46.1680460" lon="10.4705750">
	<ele>2331.00</ele>
	<time>2023-08-09T08:13:05.000Z</time>
</trkpt>
<trkpt lat="46.1680440" lon="10.4705860">
	<ele>2331.00</ele>
	<time>2023-08-09T08:13:06.000Z</time>
</trkpt>
<trkpt lat="46.1680440" lon="10.4705970">
	<ele>2331.00</ele>
	<time>2023-08-09T08:13:07.000Z</time>
</trkpt>
<trkpt lat="46.1680400" lon="10.4706070">
	<ele>2331.00</ele>
	<time>2023-08-09T08:13:08.000Z</time>
</trkpt>
<trkpt lat="46.1680360" lon="10.4706160">
	<ele>2331.20</ele>
	<time>2023-08-09T08:13:09.000Z</time>
</trkpt>
<trkpt lat="46.1680360" lon="10.4706220">
	<ele>2331.20</ele>
	<time>2023-08-09T08:13:10.000Z</time>
</trkpt>
<trkpt lat="46.1680380" lon="10.4706260">
	<ele>2331.20</ele>
	<time>2023-08-09T08:13:11.000Z</time>
</trkpt>
<trkpt lat="46.1680390" lon="10.4706270">
	<ele>2331.40</ele>
	<time>2023-08-09T08:13:12.000Z</time>
</trkpt>
<trkpt lat="46.1680400" lon="10.4706280">
	<ele>2331.40</ele>
	<time>2023-08-09T08:13:13.000Z</time>
</trkpt>
<trkpt lat="46.1680400" lon="10.4706280">
	<ele>2331.40</ele>
	<time>2023-08-09T08:13:14.000Z</time>
</trkpt>
<trkpt lat="46.1680380" lon="10.4706300">
	<ele>2331.40</ele>
	<time>2023-08-09T08:13:15.000Z</time>
</trkpt>
<trkpt lat="46.1680340" lon="10.4706310">
	<ele>2331.40</ele>
	<time>2023-08-09T08:13:16.000Z</time>
</trkpt>
<trkpt lat="46.1680310" lon="10.4706340">
	<ele>2331.40</ele>
	<time>2023-08-09T08:13:17.000Z</time>
</trkpt>
<trkpt lat="46.1680290" lon="10.4706380">
	<ele>2331.40</ele>
	<time>2023-08-09T08:13:18.000Z</time>
</trkpt>
<trkpt lat="46.1680270" lon="10.4706400">
	<ele>2331.40</ele>
	<time>2023-08-09T08:13:19.000Z</time>
</trkpt>
<trkpt lat="46.1680270" lon="10.4706410">
	<ele>2331.40</ele>
	<time>2023-08-09T08:13:20.000Z</time>
</trkpt>
<trkpt lat="46.1680270" lon="10.4706410">
	<ele>2331.40</ele>
	<time>2023-08-09T08:13:21.000Z</time>
</trkpt>
<trkpt lat="46.1680270" lon="10.4706410">
	<ele>2331.20</ele>
	<time>2023-08-09T08:13:22.000Z</time>
</trkpt>
<trkpt lat="46.1680270" lon="10.4706410">
	<ele>2331.20</ele>
	<time>2023-08-09T08:13:23.000Z</time>
</trkpt>
<trkpt lat="46.1680270" lon="10.4706410">
	<ele>2331.00</ele>
	<time>2023-08-09T08:13:24.000Z</time>
</trkpt>
<trkpt lat="46.1680270" lon="10.4706410">
	<ele>2330.80</ele>
	<time>2023-08-09T08:13:25.000Z</time>
</trkpt>
<trkpt lat="46.1680270" lon="10.4706410">
	<ele>2330.80</ele>
	<time>2023-08-09T08:13:26.000Z</time>
</trkpt>
<trkpt lat="46.1680270" lon="10.4706410">
	<ele>2330.60</ele>
	<time>2023-08-09T08:13:27.000Z</time>
</trkpt>
<trkpt lat="46.1680270" lon="10.4706410">
	<ele>2330.60</ele>
	<time>2023-08-09T08:13:28.000Z</time>
</trkpt>
<trkpt lat="46.1680270" lon="10.4706410">
	<ele>2330.60</ele>
	<time>2023-08-09T08:13:29.000Z</time>
</trkpt>
<trkpt lat="46.1680290" lon="10.4706410">
	<ele>2330.60</ele>
	<time>2023-08-09T08:13:30.000Z</time>
</trkpt>
<trkpt lat="46.1680290" lon="10.4706410">
	<ele>2330.60</ele>
	<time>2023-08-09T08:13:31.000Z</time>
</trkpt>
<trkpt lat="46.1680300" lon="10.4706410">
	<ele>2330.60</ele>
	<time>2023-08-09T08:13:32.000Z</time>
</trkpt>
<trkpt lat="46.1680310" lon="10.4706410">
	<ele>2330.60</ele>
	<time>2023-08-09T08:13:33.000Z</time>
</trkpt>
<trkpt lat="46.1680310" lon="10.4706410">
	<ele>2330.60</ele>
	<time>2023-08-09T08:13:34.000Z</time>
</trkpt>
<trkpt lat="46.1680310" lon="10.4706410">
	<ele>2331.00</ele>
	<time>2023-08-09T08:13:35.000Z</time>
</trkpt>
<trkpt lat="46.1680330" lon="10.4706430">
	<ele>2331.20</ele>
	<time>2023-08-09T08:13:36.000Z</time>
</trkpt>
<trkpt lat="46.1680330" lon="10.4706510">
	<ele>2331.20</ele>
	<time>2023-08-09T08:13:37.000Z</time>
</trkpt>
<trkpt lat="46.1680300" lon="10.4706690">
	<ele>2331.40</ele>
	<time>2023-08-09T08:13:38.000Z</time>
</trkpt>
<trkpt lat="46.1680270" lon="10.4706890">
	<ele>2331.40</ele>
	<time>2023-08-09T08:13:39.000Z</time>
</trkpt>
<trkpt lat="46.1680210" lon="10.4707060">
	<ele>2331.20</ele>
	<time>2023-08-09T08:13:40.000Z</time>
</trkpt>
<trkpt lat="46.1680180" lon="10.4707190">
	<ele>2331.20</ele>
	<time>2023-08-09T08:13:41.000Z</time>
</trkpt>
<trkpt lat="46.1680180" lon="10.4707370">
	<ele>2331.20</ele>
	<time>2023-08-09T08:13:42.000Z</time>
</trkpt>
<trkpt lat="46.1680180" lon="10.4707540">
	<ele>2331.20</ele>
	<time>2023-08-09T08:13:43.000Z</time>
</trkpt>
<trkpt lat="46.1680190" lon="10.4707730">
	<ele>2331.20</ele>
	<time>2023-08-09T08:13:44.000Z</time>
</trkpt>
<trkpt lat="46.1680230" lon="10.4707900">
	<ele>2331.00</ele>
	<time>2023-08-09T08:13:45.000Z</time>
</trkpt>
<trkpt lat="46.1680270" lon="10.4708080">
	<ele>2331.00</ele>
	<time>2023-08-09T08:13:46.000Z</time>
</trkpt>
<trkpt lat="46.1680250" lon="10.4708140">
	<ele>2331.00</ele>
	<time>2023-08-09T08:13:47.000Z</time>
</trkpt>
<trkpt lat="46.1680220" lon="10.4708230">
	<ele>2330.80</ele>
	<time>2023-08-09T08:13:48.000Z</time>
</trkpt>
<trkpt lat="46.1680220" lon="10.4708340">
	<ele>2331.00</ele>
	<time>2023-08-09T08:13:49.000Z</time>
</trkpt>
<trkpt lat="46.1680180" lon="10.4708440">
	<ele>2330.80</ele>
	<time>2023-08-09T08:13:50.000Z</time>
</trkpt>
<trkpt lat="46.1680120" lon="10.4708520">
	<ele>2330.80</ele>
	<time>2023-08-09T08:13:51.000Z</time>
</trkpt>
<trkpt lat="46.1680080" lon="10.4708640">
	<ele>2330.60</ele>
	<time>2023-08-09T08:13:52.000Z</time>
</trkpt>
<trkpt lat="46.1680060" lon="10.4708750">
	<ele>2330.60</ele>
	<time>2023-08-09T08:13:53.000Z</time>
</trkpt>
<trkpt lat="46.1680060" lon="10.4708850">
	<ele>2330.60</ele>
	<time>2023-08-09T08:13:54.000Z</time>
</trkpt>
<trkpt lat="46.1680040" lon="10.4708940">
	<ele>2330.60</ele>
	<time>2023-08-09T08:13:55.000Z</time>
</trkpt>
<trkpt lat="46.1680020" lon="10.4709060">
	<ele>2330.60</ele>
	<time>2023-08-09T08:13:56.000Z</time>
</trkpt>
<trkpt lat="46.1680010" lon="10.4709190">
	<ele>2330.60</ele>
	<time>2023-08-09T08:13:57.000Z</time>
</trkpt>
<trkpt lat="46.1679990" lon="10.4709240">
	<ele>2330.60</ele>
	<time>2023-08-09T08:13:58.000Z</time>
</trkpt>
<trkpt lat="46.1679940" lon="10.4709320">
	<ele>2330.60</ele>
	<time>2023-08-09T08:13:59.000Z</time>
</trkpt>
<trkpt lat="46.1679930" lon="10.4709430">
	<ele>2330.60</ele>
	<time>2023-08-09T08:14:00.000Z</time>
</trkpt>
<trkpt lat="46.1679910" lon="10.4709520">
	<ele>2330.60</ele>
	<time>2023-08-09T08:14:01.000Z</time>
</trkpt>
<trkpt lat="46.1679850" lon="10.4709600">
	<ele>2330.60</ele>
	<time>2023-08-09T08:14:02.000Z</time>
</trkpt>
<trkpt lat="46.1679780" lon="10.4709690">
	<ele>2330.60</ele>
	<time>2023-08-09T08:14:03.000Z</time>
</trkpt>
<trkpt lat="46.1679750" lon="10.4709840">
	<ele>2330.60</ele>
	<time>2023-08-09T08:14:04.000Z</time>
</trkpt>
<trkpt lat="46.1679750" lon="10.4709990">
	<ele>2330.80</ele>
	<time>2023-08-09T08:14:05.000Z</time>
</trkpt>
<trkpt lat="46.1679750" lon="10.4710140">
	<ele>2330.80</ele>
	<time>2023-08-09T08:14:06.000Z</time>
</trkpt>
<trkpt lat="46.1679730" lon="10.4710290">
	<ele>2330.80</ele>
	<time>2023-08-09T08:14:07.000Z</time>
</trkpt>
<trkpt lat="46.1679690" lon="10.4710410">
	<ele>2330.80</ele>
	<time>2023-08-09T08:14:08.000Z</time>
</trkpt>
<trkpt lat="46.1679660" lon="10.4710560">
	<ele>2330.80</ele>
	<time>2023-08-09T08:14:09.000Z</time>
</trkpt>
<trkpt lat="46.1679660" lon="10.4710690">
	<ele>2330.80</ele>
	<time>2023-08-09T08:14:10.000Z</time>
</trkpt>
<trkpt lat="46.1679630" lon="10.4710820">
	<ele>2330.80</ele>
	<time>2023-08-09T08:14:11.000Z</time>
</trkpt>
<trkpt lat="46.1679630" lon="10.4710980">
	<ele>2330.80</ele>
	<time>2023-08-09T08:14:12.000Z</time>
</trkpt>
<trkpt lat="46.1679630" lon="10.4711160">
	<ele>2330.80</ele>
	<time>2023-08-09T08:14:13.000Z</time>
</trkpt>
<trkpt lat="46.1679590" lon="10.4711310">
	<ele>2330.80</ele>
	<time>2023-08-09T08:14:14.000Z</time>
</trkpt>
<trkpt lat="46.1679550" lon="10.4711460">
	<ele>2330.80</ele>
	<time>2023-08-09T08:14:15.000Z</time>
</trkpt>
<trkpt lat="46.1679530" lon="10.4711580">
	<ele>2330.80</ele>
	<time>2023-08-09T08:14:16.000Z</time>
</trkpt>
<trkpt lat="46.1679500" lon="10.4711730">
	<ele>2330.80</ele>
	<time>2023-08-09T08:14:17.000Z</time>
</trkpt>
<trkpt lat="46.1679500" lon="10.4711850">
	<ele>2330.80</ele>
	<time>2023-08-09T08:14:18.000Z</time>
</trkpt>
<trkpt lat="46.1679520" lon="10.4711930">
	<ele>2330.80</ele>
	<time>2023-08-09T08:14:19.000Z</time>
</trkpt>
<trkpt lat="46.1679520" lon="10.4712040">
	<ele>2330.80</ele>
	<time>2023-08-09T08:14:20.000Z</time>
</trkpt>
<trkpt lat="46.1679490" lon="10.4712190">
	<ele>2330.80</ele>
	<time>2023-08-09T08:14:21.000Z</time>
</trkpt>
<trkpt lat="46.1679470" lon="10.4712310">
	<ele>2330.80</ele>
	<time>2023-08-09T08:14:22.000Z</time>
</trkpt>
<trkpt lat="46.1679440" lon="10.4712410">
	<ele>2330.80</ele>
	<time>2023-08-09T08:14:23.000Z</time>
</trkpt>
<trkpt lat="46.1679440" lon="10.4712520">
	<ele>2330.80</ele>
	<time>2023-08-09T08:14:24.000Z</time>
</trkpt>
<trkpt lat="46.1679460" lon="10.4712660">
	<ele>2330.80</ele>
	<time>2023-08-09T08:14:25.000Z</time>
</trkpt>
<trkpt lat="46.1679450" lon="10.4712790">
	<ele>2331.00</ele>
	<time>2023-08-09T08:14:26.000Z</time>
</trkpt>
<trkpt lat="46.1679420" lon="10.4712930">
	<ele>2331.00</ele>
	<time>2023-08-09T08:14:27.000Z</time>
</trkpt>
<trkpt lat="46.1679400" lon="10.4713060">
	<ele>2331.00</ele>
	<time>2023-08-09T08:14:28.000Z</time>
</trkpt>
<trkpt lat="46.1679350" lon="10.4713210">
	<ele>2331.00</ele>
	<time>2023-08-09T08:14:29.000Z</time>
</trkpt>
<trkpt lat="46.1679330" lon="10.4713340">
	<ele>2331.00</ele>
	<time>2023-08-09T08:14:30.000Z</time>
</trkpt>
<trkpt lat="46.1679340" lon="10.4713460">
	<ele>2331.00</ele>
	<time>2023-08-09T08:14:31.000Z</time>
</trkpt>
<trkpt lat="46.1679320" lon="10.4713570">
	<ele>2331.00</ele>
	<time>2023-08-09T08:14:32.000Z</time>
</trkpt>
<trkpt lat="46.1679310" lon="10.4713690">
	<ele>2331.00</ele>
	<time>2023-08-09T08:14:33.000Z</time>
</trkpt>
<trkpt lat="46.1679260" lon="10.4713820">
	<ele>2331.00</ele>
	<time>2023-08-09T08:14:34.000Z</time>
</trkpt>
<trkpt lat="46.1679190" lon="10.4713950">
	<ele>2331.00</ele>
	<time>2023-08-09T08:14:35.000Z</time>
</trkpt>
<trkpt lat="46.1679150" lon="10.4714100">
	<ele>2331.00</ele>
	<time>2023-08-09T08:14:36.000Z</time>
</trkpt>
<trkpt lat="46.1679110" lon="10.4714230">
	<ele>2331.00</ele>
	<time>2023-08-09T08:14:37.000Z</time>
</trkpt>
<trkpt lat="46.1679040" lon="10.4714380">
	<ele>2331.00</ele>
	<time>2023-08-09T08:14:38.000Z</time>
</trkpt>
<trkpt lat="46.1678990" lon="10.4714500">
	<ele>2330.80</ele>
	<time>2023-08-09T08:14:39.000Z</time>
</trkpt>
<trkpt lat="46.1678950" lon="10.4714610">
	<ele>2330.80</ele>
	<time>2023-08-09T08:14:40.000Z</time>
</trkpt>
<trkpt lat="46.1678870" lon="10.4714720">
	<ele>2330.80</ele>
	<time>2023-08-09T08:14:41.000Z</time>
</trkpt>
<trkpt lat="46.1678820" lon="10.4714860">
	<ele>2330.80</ele>
	<time>2023-08-09T08:14:42.000Z</time>
</trkpt>
<trkpt lat="46.1678790" lon="10.4715020">
	<ele>2330.80</ele>
	<time>2023-08-09T08:14:43.000Z</time>
</trkpt>
<trkpt lat="46.1678730" lon="10.4715210">
	<ele>2330.80</ele>
	<time>2023-08-09T08:14:44.000Z</time>
</trkpt>
<trkpt lat="46.1678660" lon="10.4715370">
	<ele>2330.80</ele>
	<time>2023-08-09T08:14:45.000Z</time>
</trkpt>
<trkpt lat="46.1678590" lon="10.4715540">
	<ele>2330.80</ele>
	<time>2023-08-09T08:14:46.000Z</time>
</trkpt>
<trkpt lat="46.1678550" lon="10.4715690">
	<ele>2330.80</ele>
	<time>2023-08-09T08:14:47.000Z</time>
</trkpt>
<trkpt lat="46.1678540" lon="10.4715820">
	<ele>2330.80</ele>
	<time>2023-08-09T08:14:48.000Z</time>
</trkpt>
<trkpt lat="46.1678510" lon="10.4715970">
	<ele>2330.80</ele>
	<time>2023-08-09T08:14:49.000Z</time>
</trkpt>
<trkpt lat="46.1678470" lon="10.4716100">
	<ele>2330.80</ele>
	<time>2023-08-09T08:14:50.000Z</time>
</trkpt>
<trkpt lat="46.1678450" lon="10.4716240">
	<ele>2331.00</ele>
	<time>2023-08-09T08:14:51.000Z</time>
</trkpt>
<trkpt lat="46.1678440" lon="10.4716390">
	<ele>2331.00</ele>
	<time>2023-08-09T08:14:52.000Z</time>
</trkpt>
<trkpt lat="46.1678450" lon="10.4716570">
	<ele>2331.00</ele>
	<time>2023-08-09T08:14:53.000Z</time>
</trkpt>
<trkpt lat="46.1678450" lon="10.4716720">
	<ele>2331.00</ele>
	<time>2023-08-09T08:14:54.000Z</time>
</trkpt>
<trkpt lat="46.1678460" lon="10.4716850">
	<ele>2331.00</ele>
	<time>2023-08-09T08:14:55.000Z</time>
</trkpt>
<trkpt lat="46.1678470" lon="10.4716980">
	<ele>2331.00</ele>
	<time>2023-08-09T08:14:56.000Z</time>
</trkpt>
<trkpt lat="46.1678480" lon="10.4717120">
	<ele>2331.00</ele>
	<time>2023-08-09T08:14:57.000Z</time>
</trkpt>
<trkpt lat="46.1678470" lon="10.4717250">
	<ele>2331.00</ele>
	<time>2023-08-09T08:14:58.000Z</time>
</trkpt>
<trkpt lat="46.1678440" lon="10.4717370">
	<ele>2330.80</ele>
	<time>2023-08-09T08:14:59.000Z</time>
</trkpt>
<trkpt lat="46.1678420" lon="10.4717460">
	<ele>2330.80</ele>
	<time>2023-08-09T08:15:00.000Z</time>
</trkpt>
<trkpt lat="46.1678420" lon="10.4717560">
	<ele>2330.80</ele>
	<time>2023-08-09T08:15:01.000Z</time>
</trkpt>
<trkpt lat="46.1678350" lon="10.4717650">
	<ele>2330.80</ele>
	<time>2023-08-09T08:15:02.000Z</time>
</trkpt>
<trkpt lat="46.1678330" lon="10.4717690">
	<ele>2330.80</ele>
	<time>2023-08-09T08:15:03.000Z</time>
</trkpt>
<trkpt lat="46.1678320" lon="10.4717710">
	<ele>2331.00</ele>
	<time>2023-08-09T08:15:04.000Z</time>
</trkpt>
<trkpt lat="46.1678320" lon="10.4717700">
	<ele>2331.40</ele>
	<time>2023-08-09T08:15:05.000Z</time>
</trkpt>
<trkpt lat="46.1678330" lon="10.4717700">
	<ele>2331.40</ele>
	<time>2023-08-09T08:15:06.000Z</time>
</trkpt>
<trkpt lat="46.1678330" lon="10.4717700">
	<ele>2331.40</ele>
	<time>2023-08-09T08:15:07.000Z</time>
</trkpt>
<trkpt lat="46.1678330" lon="10.4717700">
	<ele>2331.60</ele>
	<time>2023-08-09T08:15:08.000Z</time>
</trkpt>
<trkpt lat="46.1678340" lon="10.4717710">
	<ele>2331.60</ele>
	<time>2023-08-09T08:15:09.000Z</time>
</trkpt>
<trkpt lat="46.1678340" lon="10.4717750">
	<ele>2331.40</ele>
	<time>2023-08-09T08:15:10.000Z</time>
</trkpt>
<trkpt lat="46.1678320" lon="10.4717850">
	<ele>2331.40</ele>
	<time>2023-08-09T08:15:11.000Z</time>
</trkpt>
<trkpt lat="46.1678290" lon="10.4717980">
	<ele>2331.40</ele>
	<time>2023-08-09T08:15:12.000Z</time>
</trkpt>
<trkpt lat="46.1678270" lon="10.4718120">
	<ele>2331.20</ele>
	<time>2023-08-09T08:15:13.000Z</time>
</trkpt>
<trkpt lat="46.1678250" lon="10.4718250">
	<ele>2331.20</ele>
	<time>2023-08-09T08:15:14.000Z</time>
</trkpt>
<trkpt lat="46.1678230" lon="10.4718380">
	<ele>2331.20</ele>
	<time>2023-08-09T08:15:15.000Z</time>
</trkpt>
<trkpt lat="46.1678230" lon="10.4718510">
	<ele>2331.20</ele>
	<time>2023-08-09T08:15:16.000Z</time>
</trkpt>
<trkpt lat="46.1678220" lon="10.4718630">
	<ele>2331.20</ele>
	<time>2023-08-09T08:15:17.000Z</time>
</trkpt>
<trkpt lat="46.1678200" lon="10.4718740">
	<ele>2331.20</ele>
	<time>2023-08-09T08:15:18.000Z</time>
</trkpt>
<trkpt lat="46.1678160" lon="10.4718840">
	<ele>2331.20</ele>
	<time>2023-08-09T08:15:19.000Z</time>
</trkpt>
<trkpt lat="46.1678140" lon="10.4718960">
	<ele>2331.20</ele>
	<time>2023-08-09T08:15:20.000Z</time>
</trkpt>
<trkpt lat="46.1678110" lon="10.4719090">
	<ele>2331.20</ele>
	<time>2023-08-09T08:15:21.000Z</time>
</trkpt>
<trkpt lat="46.1678090" lon="10.4719210">
	<ele>2331.20</ele>
	<time>2023-08-09T08:15:22.000Z</time>
</trkpt>
<trkpt lat="46.1678050" lon="10.4719370">
	<ele>2331.20</ele>
	<time>2023-08-09T08:15:23.000Z</time>
</trkpt>
<trkpt lat="46.1678010" lon="10.4719430">
	<ele>2331.20</ele>
	<time>2023-08-09T08:15:24.000Z</time>
</trkpt>
<trkpt lat="46.1677990" lon="10.4719500">
	<ele>2331.20</ele>
	<time>2023-08-09T08:15:25.000Z</time>
</trkpt>
<trkpt lat="46.1677970" lon="10.4719570">
	<ele>2331.20</ele>
	<time>2023-08-09T08:15:26.000Z</time>
</trkpt>
<trkpt lat="46.1677950" lon="10.4719640">
	<ele>2331.20</ele>
	<time>2023-08-09T08:15:27.000Z</time>
</trkpt>
<trkpt lat="46.1677930" lon="10.4719680">
	<ele>2331.20</ele>
	<time>2023-08-09T08:15:28.000Z</time>
</trkpt>
<trkpt lat="46.1677920" lon="10.4719720">
	<ele>2331.20</ele>
	<time>2023-08-09T08:15:29.000Z</time>
</trkpt>
<trkpt lat="46.1677910" lon="10.4719770">
	<ele>2331.20</ele>
	<time>2023-08-09T08:15:30.000Z</time>
</trkpt>
<trkpt lat="46.1677910" lon="10.4719830">
	<ele>2331.20</ele>
	<time>2023-08-09T08:15:31.000Z</time>
</trkpt>
<trkpt lat="46.1677890" lon="10.4719900">
	<ele>2331.20</ele>
	<time>2023-08-09T08:15:32.000Z</time>
</trkpt>
<trkpt lat="46.1677880" lon="10.4720000">
	<ele>2331.20</ele>
	<time>2023-08-09T08:15:33.000Z</time>
</trkpt>
<trkpt lat="46.1677840" lon="10.4720130">
	<ele>2331.20</ele>
	<time>2023-08-09T08:15:34.000Z</time>
</trkpt>
<trkpt lat="46.1677790" lon="10.4720230">
	<ele>2331.20</ele>
	<time>2023-08-09T08:15:35.000Z</time>
</trkpt>
<trkpt lat="46.1677750" lon="10.4720340">
	<ele>2331.20</ele>
	<time>2023-08-09T08:15:36.000Z</time>
</trkpt>
<trkpt lat="46.1677740" lon="10.4720430">
	<ele>2331.20</ele>
	<time>2023-08-09T08:15:37.000Z</time>
</trkpt>
<trkpt lat="46.1677720" lon="10.4720550">
	<ele>2331.20</ele>
	<time>2023-08-09T08:15:38.000Z</time>
</trkpt>
<trkpt lat="46.1677690" lon="10.4720660">
	<ele>2331.20</ele>
	<time>2023-08-09T08:15:39.000Z</time>
</trkpt>
<trkpt lat="46.1677670" lon="10.4720790">
	<ele>2331.20</ele>
	<time>2023-08-09T08:15:40.000Z</time>
</trkpt>
<trkpt lat="46.1677680" lon="10.4720940">
	<ele>2331.00</ele>
	<time>2023-08-09T08:15:41.000Z</time>
</trkpt>
<trkpt lat="46.1677690" lon="10.4721080">
	<ele>2331.00</ele>
	<time>2023-08-09T08:15:42.000Z</time>
</trkpt>
<trkpt lat="46.1677690" lon="10.4721200">
	<ele>2331.00</ele>
	<time>2023-08-09T08:15:43.000Z</time>
</trkpt>
<trkpt lat="46.1677680" lon="10.4721340">
	<ele>2331.00</ele>
	<time>2023-08-09T08:15:44.000Z</time>
</trkpt>
<trkpt lat="46.1677670" lon="10.4721470">
	<ele>2331.00</ele>
	<time>2023-08-09T08:15:45.000Z</time>
</trkpt>
<trkpt lat="46.1677660" lon="10.4721590">
	<ele>2330.80</ele>
	<time>2023-08-09T08:15:46.000Z</time>
</trkpt>
<trkpt lat="46.1677670" lon="10.4721700">
	<ele>2330.80</ele>
	<time>2023-08-09T08:15:47.000Z</time>
</trkpt>
<trkpt lat="46.1677680" lon="10.4721820">
	<ele>2330.80</ele>
	<time>2023-08-09T08:15:48.000Z</time>
</trkpt>
<trkpt lat="46.1677690" lon="10.4721920">
	<ele>2330.80</ele>
	<time>2023-08-09T08:15:49.000Z</time>
</trkpt>
<trkpt lat="46.1677680" lon="10.4722030">
	<ele>2330.80</ele>
	<time>2023-08-09T08:15:50.000Z</time>
</trkpt>
<trkpt lat="46.1677650" lon="10.4722150">
	<ele>2330.80</ele>
	<time>2023-08-09T08:15:51.000Z</time>
</trkpt>
<trkpt lat="46.1677630" lon="10.4722270">
	<ele>2330.80</ele>
	<time>2023-08-09T08:15:52.000Z</time>
</trkpt>
<trkpt lat="46.1677590" lon="10.4722400">
	<ele>2330.80</ele>
	<time>2023-08-09T08:15:53.000Z</time>
</trkpt>
<trkpt lat="46.1677550" lon="10.4722530">
	<ele>2330.80</ele>
	<time>2023-08-09T08:15:54.000Z</time>
</trkpt>
<trkpt lat="46.1677490" lon="10.4722630">
	<ele>2330.80</ele>
	<time>2023-08-09T08:15:55.000Z</time>
</trkpt>
<trkpt lat="46.1677410" lon="10.4722790">
	<ele>2330.80</ele>
	<time>2023-08-09T08:15:56.000Z</time>
</trkpt>
<trkpt lat="46.1677350" lon="10.4722960">
	<ele>2330.80</ele>
	<time>2023-08-09T08:15:57.000Z</time>
</trkpt>
<trkpt lat="46.1677320" lon="10.4723080">
	<ele>2330.80</ele>
	<time>2023-08-09T08:15:58.000Z</time>
</trkpt>
<trkpt lat="46.1677280" lon="10.4723210">
	<ele>2331.00</ele>
	<time>2023-08-09T08:15:59.000Z</time>
</trkpt>
<trkpt lat="46.1677230" lon="10.4723320">
	<ele>2331.00</ele>
	<time>2023-08-09T08:16:00.000Z</time>
</trkpt>
<trkpt lat="46.1677200" lon="10.4723440">
	<ele>2331.00</ele>
	<time>2023-08-09T08:16:01.000Z</time>
</trkpt>
<trkpt lat="46.1677160" lon="10.4723560">
	<ele>2331.00</ele>
	<time>2023-08-09T08:16:02.000Z</time>
</trkpt>
<trkpt lat="46.1677160" lon="10.4723670">
	<ele>2331.00</ele>
	<time>2023-08-09T08:16:03.000Z</time>
</trkpt>
<trkpt lat="46.1677120" lon="10.4723800">
	<ele>2331.00</ele>
	<time>2023-08-09T08:16:04.000Z</time>
</trkpt>
<trkpt lat="46.1677080" lon="10.4723940">
	<ele>2331.00</ele>
	<time>2023-08-09T08:16:05.000Z</time>
</trkpt>
<trkpt lat="46.1677040" lon="10.4724090">
	<ele>2331.00</ele>
	<time>2023-08-09T08:16:06.000Z</time>
</trkpt>
<trkpt lat="46.1677020" lon="10.4724220">
	<ele>2331.20</ele>
	<time>2023-08-09T08:16:07.000Z</time>
</trkpt>
<trkpt lat="46.1677000" lon="10.4724340">
	<ele>2331.20</ele>
	<time>2023-08-09T08:16:08.000Z</time>
</trkpt>
<trkpt lat="46.1676930" lon="10.4724490">
	<ele>2331.20</ele>
	<time>2023-08-09T08:16:09.000Z</time>
</trkpt>
<trkpt lat="46.1676900" lon="10.4724630">
	<ele>2331.20</ele>
	<time>2023-08-09T08:16:10.000Z</time>
</trkpt>
<trkpt lat="46.1676880" lon="10.4724750">
	<ele>2331.20</ele>
	<time>2023-08-09T08:16:11.000Z</time>
</trkpt>
<trkpt lat="46.1676860" lon="10.4724850">
	<ele>2331.20</ele>
	<time>2023-08-09T08:16:12.000Z</time>
</trkpt>
<trkpt lat="46.1676820" lon="10.4724960">
	<ele>2331.00</ele>
	<time>2023-08-09T08:16:13.000Z</time>
</trkpt>
<trkpt lat="46.1676770" lon="10.4725080">
	<ele>2331.00</ele>
	<time>2023-08-09T08:16:14.000Z</time>
</trkpt>
<trkpt lat="46.1676740" lon="10.4725200">
	<ele>2331.00</ele>
	<time>2023-08-09T08:16:15.000Z</time>
</trkpt>
<trkpt lat="46.1676720" lon="10.4725340">
	<ele>2331.00</ele>
	<time>2023-08-09T08:16:16.000Z</time>
</trkpt>
<trkpt lat="46.1676690" lon="10.4725460">
	<ele>2331.20</ele>
	<time>2023-08-09T08:16:17.000Z</time>
</trkpt>
<trkpt lat="46.1676690" lon="10.4725560">
	<ele>2331.00</ele>
	<time>2023-08-09T08:16:18.000Z</time>
</trkpt>
<trkpt lat="46.1676690" lon="10.4725680">
	<ele>2331.00</ele>
	<time>2023-08-09T08:16:19.000Z</time>
</trkpt>
<trkpt lat="46.1676650" lon="10.4725800">
	<ele>2331.00</ele>
	<time>2023-08-09T08:16:20.000Z</time>
</trkpt>
<trkpt lat="46.1676610" lon="10.4725930">
	<ele>2331.00</ele>
	<time>2023-08-09T08:16:21.000Z</time>
</trkpt>
<trkpt lat="46.1676550" lon="10.4726060">
	<ele>2331.00</ele>
	<time>2023-08-09T08:16:22.000Z</time>
</trkpt>
<trkpt lat="46.1676470" lon="10.4726180">
	<ele>2330.80</ele>
	<time>2023-08-09T08:16:23.000Z</time>
</trkpt>
<trkpt lat="46.1676420" lon="10.4726260">
	<ele>2330.80</ele>
	<time>2023-08-09T08:16:24.000Z</time>
</trkpt>
<trkpt lat="46.1676410" lon="10.4726370">
	<ele>2330.60</ele>
	<time>2023-08-09T08:16:25.000Z</time>
</trkpt>
<trkpt lat="46.1676430" lon="10.4726500">
	<ele>2330.60</ele>
	<time>2023-08-09T08:16:26.000Z</time>
</trkpt>
<trkpt lat="46.1676420" lon="10.4726630">
	<ele>2330.60</ele>
	<time>2023-08-09T08:16:27.000Z</time>
</trkpt>
<trkpt lat="46.1676430" lon="10.4726790">
	<ele>2330.60</ele>
	<time>2023-08-09T08:16:28.000Z</time>
</trkpt>
<trkpt lat="46.1676440" lon="10.4726930">
	<ele>2330.60</ele>
	<time>2023-08-09T08:16:29.000Z</time>
</trkpt>
<trkpt lat="46.1676500" lon="10.4727060">
	<ele>2330.60</ele>
	<time>2023-08-09T08:16:30.000Z</time>
</trkpt>
<trkpt lat="46.1676470" lon="10.4727200">
	<ele>2330.60</ele>
	<time>2023-08-09T08:16:31.000Z</time>
</trkpt>
<trkpt lat="46.1676480" lon="10.4727360">
	<ele>2330.60</ele>
	<time>2023-08-09T08:16:32.000Z</time>
</trkpt>
<trkpt lat="46.1676410" lon="10.4727480">
	<ele>2330.60</ele>
	<time>2023-08-09T08:16:33.000Z</time>
</trkpt>
<trkpt lat="46.1676440" lon="10.4727550">
	<ele>2330.80</ele>
	<time>2023-08-09T08:16:34.000Z</time>
</trkpt>
<trkpt lat="46.1676410" lon="10.4727680">
	<ele>2330.60</ele>
	<time>2023-08-09T08:16:35.000Z</time>
</trkpt>
<trkpt lat="46.1676370" lon="10.4727800">
	<ele>2330.60</ele>
	<time>2023-08-09T08:16:36.000Z</time>
</trkpt>
<trkpt lat="46.1676340" lon="10.4727960">
	<ele>2330.60</ele>
	<time>2023-08-09T08:16:37.000Z</time>
</trkpt>
<trkpt lat="46.1676330" lon="10.4728100">
	<ele>2330.60</ele>
	<time>2023-08-09T08:16:38.000Z</time>
</trkpt>
<trkpt lat="46.1676290" lon="10.4728250">
	<ele>2330.60</ele>
	<time>2023-08-09T08:16:39.000Z</time>
</trkpt>
<trkpt lat="46.1676270" lon="10.4728400">
	<ele>2330.60</ele>
	<time>2023-08-09T08:16:40.000Z</time>
</trkpt>
<trkpt lat="46.1676240" lon="10.4728570">
	<ele>2330.60</ele>
	<time>2023-08-09T08:16:41.000Z</time>
</trkpt>
<trkpt lat="46.1676230" lon="10.4728760">
	<ele>2330.60</ele>
	<time>2023-08-09T08:16:42.000Z</time>
</trkpt>
<trkpt lat="46.1676210" lon="10.4728910">
	<ele>2330.60</ele>
	<time>2023-08-09T08:16:43.000Z</time>
</trkpt>
<trkpt lat="46.1676170" lon="10.4729050">
	<ele>2330.60</ele>
	<time>2023-08-09T08:16:44.000Z</time>
</trkpt>
<trkpt lat="46.1676110" lon="10.4729190">
	<ele>2330.60</ele>
	<time>2023-08-09T08:16:45.000Z</time>
</trkpt>
<trkpt lat="46.1676090" lon="10.4729330">
	<ele>2330.80</ele>
	<time>2023-08-09T08:16:46.000Z</time>
</trkpt>
<trkpt lat="46.1676050" lon="10.4729490">
	<ele>2330.80</ele>
	<time>2023-08-09T08:16:47.000Z</time>
</trkpt>
<trkpt lat="46.1676040" lon="10.4729670">
	<ele>2330.80</ele>
	<time>2023-08-09T08:16:48.000Z</time>
</trkpt>
<trkpt lat="46.1676020" lon="10.4729820">
	<ele>2330.80</ele>
	<time>2023-08-09T08:16:49.000Z</time>
</trkpt>
<trkpt lat="46.1676000" lon="10.4729940">
	<ele>2330.80</ele>
	<time>2023-08-09T08:16:50.000Z</time>
</trkpt>
<trkpt lat="46.1675990" lon="10.4730060">
	<ele>2330.80</ele>
	<time>2023-08-09T08:16:51.000Z</time>
</trkpt>
<trkpt lat="46.1675990" lon="10.4730190">
	<ele>2330.80</ele>
	<time>2023-08-09T08:16:52.000Z</time>
</trkpt>
<trkpt lat="46.1675990" lon="10.4730340">
	<ele>2330.80</ele>
	<time>2023-08-09T08:16:53.000Z</time>
</trkpt>
<trkpt lat="46.1675960" lon="10.4730480">
	<ele>2331.00</ele>
	<time>2023-08-09T08:16:54.000Z</time>
</trkpt>
<trkpt lat="46.1675930" lon="10.4730560">
	<ele>2331.00</ele>
	<time>2023-08-09T08:16:55.000Z</time>
</trkpt>
<trkpt lat="46.1675900" lon="10.4730680">
	<ele>2331.00</ele>
	<time>2023-08-09T08:16:56.000Z</time>
</trkpt>
<trkpt lat="46.1675910" lon="10.4730840">
	<ele>2331.00</ele>
	<time>2023-08-09T08:16:57.000Z</time>
</trkpt>
<trkpt lat="46.1675880" lon="10.4731020">
	<ele>2331.00</ele>
	<time>2023-08-09T08:16:58.000Z</time>
</trkpt>
<trkpt lat="46.1675810" lon="10.4731180">
	<ele>2331.00</ele>
	<time>2023-08-09T08:16:59.000Z</time>
</trkpt>
<trkpt lat="46.1675750" lon="10.4731310">
	<ele>2331.00</ele>
	<time>2023-08-09T08:17:00.000Z</time>
</trkpt>
<trkpt lat="46.1675720" lon="10.4731470">
	<ele>2331.00</ele>
	<time>2023-08-09T08:17:01.000Z</time>
</trkpt>
<trkpt lat="46.1675710" lon="10.4731640">
	<ele>2330.80</ele>
	<time>2023-08-09T08:17:02.000Z</time>
</trkpt>
<trkpt lat="46.1675690" lon="10.4731800">
	<ele>2330.80</ele>
	<time>2023-08-09T08:17:03.000Z</time>
</trkpt>
<trkpt lat="46.1675710" lon="10.4731920">
	<ele>2330.80</ele>
	<time>2023-08-09T08:17:04.000Z</time>
</trkpt>
<trkpt lat="46.1675700" lon="10.4732110">
	<ele>2330.80</ele>
	<time>2023-08-09T08:17:05.000Z</time>
</trkpt>
<trkpt lat="46.1675640" lon="10.4732250">
	<ele>2330.80</ele>
	<time>2023-08-09T08:17:06.000Z</time>
</trkpt>
<trkpt lat="46.1675590" lon="10.4732410">
	<ele>2330.80</ele>
	<time>2023-08-09T08:17:07.000Z</time>
</trkpt>
<trkpt lat="46.1675550" lon="10.4732560">
	<ele>2330.80</ele>
	<time>2023-08-09T08:17:08.000Z</time>
</trkpt>
<trkpt lat="46.1675540" lon="10.4732720">
	<ele>2330.80</ele>
	<time>2023-08-09T08:17:09.000Z</time>
</trkpt>
<trkpt lat="46.1675510" lon="10.4732880">
	<ele>2331.00</ele>
	<time>2023-08-09T08:17:10.000Z</time>
</trkpt>
<trkpt lat="46.1675510" lon="10.4733030">
	<ele>2331.00</ele>
	<time>2023-08-09T08:17:11.000Z</time>
</trkpt>
<trkpt lat="46.1675500" lon="10.4733190">
	<ele>2331.00</ele>
	<time>2023-08-09T08:17:12.000Z</time>
</trkpt>
<trkpt lat="46.1675490" lon="10.4733350">
	<ele>2331.00</ele>
	<time>2023-08-09T08:17:13.000Z</time>
</trkpt>
<trkpt lat="46.1675470" lon="10.4733510">
	<ele>2331.00</ele>
	<time>2023-08-09T08:17:14.000Z</time>
</trkpt>
<trkpt lat="46.1675430" lon="10.4733680">
	<ele>2331.00</ele>
	<time>2023-08-09T08:17:15.000Z</time>
</trkpt>
<trkpt lat="46.1675390" lon="10.4733840">
	<ele>2331.00</ele>
	<time>2023-08-09T08:17:16.000Z</time>
</trkpt>
<trkpt lat="46.1675350" lon="10.4733970">
	<ele>2331.20</ele>
	<time>2023-08-09T08:17:17.000Z</time>
</trkpt>
<trkpt lat="46.1675270" lon="10.4734140">
	<ele>2331.20</ele>
	<time>2023-08-09T08:17:18.000Z</time>
</trkpt>
<trkpt lat="46.1675210" lon="10.4734320">
	<ele>2331.20</ele>
	<time>2023-08-09T08:17:19.000Z</time>
</trkpt>
<trkpt lat="46.1675160" lon="10.4734470">
	<ele>2331.20</ele>
	<time>2023-08-09T08:17:20.000Z</time>
</trkpt>
<trkpt lat="46.1675090" lon="10.4734620">
	<ele>2331.20</ele>
	<time>2023-08-09T08:17:21.000Z</time>
</trkpt>
<trkpt lat="46.1675070" lon="10.4734760">
	<ele>2331.20</ele>
	<time>2023-08-09T08:17:22.000Z</time>
</trkpt>
<trkpt lat="46.1675050" lon="10.4734910">
	<ele>2331.40</ele>
	<time>2023-08-09T08:17:23.000Z</time>
</trkpt>
<trkpt lat="46.1675010" lon="10.4735040">
	<ele>2331.40</ele>
	<time>2023-08-09T08:17:24.000Z</time>
</trkpt>
<trkpt lat="46.1674990" lon="10.4735200">
	<ele>2331.40</ele>
	<time>2023-08-09T08:17:25.000Z</time>
</trkpt>
<trkpt lat="46.1674950" lon="10.4735360">
	<ele>2331.20</ele>
	<time>2023-08-09T08:17:26.000Z</time>
</trkpt>
<trkpt lat="46.1674870" lon="10.4735540">
	<ele>2331.20</ele>
	<time>2023-08-09T08:17:27.000Z</time>
</trkpt>
<trkpt lat="46.1674830" lon="10.4735720">
	<ele>2331.20</ele>
	<time>2023-08-09T08:17:28.000Z</time>
</trkpt>
<trkpt lat="46.1674750" lon="10.4735870">
	<ele>2331.20</ele>
	<time>2023-08-09T08:17:29.000Z</time>
</trkpt>
<trkpt lat="46.1674670" lon="10.4735990">
	<ele>2331.20</ele>
	<time>2023-08-09T08:17:30.000Z</time>
</trkpt>
<trkpt lat="46.1674600" lon="10.4736110">
	<ele>2331.20</ele>
	<time>2023-08-09T08:17:31.000Z</time>
</trkpt>
<trkpt lat="46.1674560" lon="10.4736230">
	<ele>2331.20</ele>
	<time>2023-08-09T08:17:32.000Z</time>
</trkpt>
<trkpt lat="46.1674510" lon="10.4736370">
	<ele>2331.20</ele>
	<time>2023-08-09T08:17:33.000Z</time>
</trkpt>
<trkpt lat="46.1674460" lon="10.4736530">
	<ele>2331.40</ele>
	<time>2023-08-09T08:17:34.000Z</time>
</trkpt>
<trkpt lat="46.1674400" lon="10.4736670">
	<ele>2331.40</ele>
	<time>2023-08-09T08:17:35.000Z</time>
</trkpt>
<trkpt lat="46.1674410" lon="10.4736830">
	<ele>2331.40</ele>
	<time>2023-08-09T08:17:36.000Z</time>
</trkpt>
<trkpt lat="46.1674470" lon="10.4736960">
	<ele>2331.40</ele>
	<time>2023-08-09T08:17:37.000Z</time>
</trkpt>
<trkpt lat="46.1674510" lon="10.4737100">
	<ele>2331.40</ele>
	<time>2023-08-09T08:17:38.000Z</time>
</trkpt>
<trkpt lat="46.1674530" lon="10.4737230">
	<ele>2331.40</ele>
	<time>2023-08-09T08:17:39.000Z</time>
</trkpt>
<trkpt lat="46.1674500" lon="10.4737360">
	<ele>2331.40</ele>
	<time>2023-08-09T08:17:40.000Z</time>
</trkpt>
<trkpt lat="46.1674460" lon="10.4737550">
	<ele>2331.40</ele>
	<time>2023-08-09T08:17:41.000Z</time>
</trkpt>
<trkpt lat="46.1674430" lon="10.4737700">
	<ele>2331.40</ele>
	<time>2023-08-09T08:17:42.000Z</time>
</trkpt>
<trkpt lat="46.1674410" lon="10.4737830">
	<ele>2331.40</ele>
	<time>2023-08-09T08:17:43.000Z</time>
</trkpt>
<trkpt lat="46.1674380" lon="10.4737950">
	<ele>2331.60</ele>
	<time>2023-08-09T08:17:44.000Z</time>
</trkpt>
<trkpt lat="46.1674390" lon="10.4738100">
	<ele>2331.60</ele>
	<time>2023-08-09T08:17:45.000Z</time>
</trkpt>
<trkpt lat="46.1674390" lon="10.4738240">
	<ele>2331.60</ele>
	<time>2023-08-09T08:17:46.000Z</time>
</trkpt>
<trkpt lat="46.1674380" lon="10.4738370">
	<ele>2331.60</ele>
	<time>2023-08-09T08:17:47.000Z</time>
</trkpt>
<trkpt lat="46.1674340" lon="10.4738520">
	<ele>2331.60</ele>
	<time>2023-08-09T08:17:48.000Z</time>
</trkpt>
<trkpt lat="46.1674290" lon="10.4738670">
	<ele>2331.40</ele>
	<time>2023-08-09T08:17:49.000Z</time>
</trkpt>
<trkpt lat="46.1674270" lon="10.4738810">
	<ele>2331.40</ele>
	<time>2023-08-09T08:17:50.000Z</time>
</trkpt>
<trkpt lat="46.1674240" lon="10.4738950">
	<ele>2331.20</ele>
	<time>2023-08-09T08:17:51.000Z</time>
</trkpt>
<trkpt lat="46.1674240" lon="10.4739050">
	<ele>2331.20</ele>
	<time>2023-08-09T08:17:52.000Z</time>
</trkpt>
<trkpt lat="46.1674250" lon="10.4739190">
	<ele>2331.20</ele>
	<time>2023-08-09T08:17:53.000Z</time>
</trkpt>
<trkpt lat="46.1674230" lon="10.4739340">
	<ele>2331.20</ele>
	<time>2023-08-09T08:17:54.000Z</time>
</trkpt>
<trkpt lat="46.1674220" lon="10.4739490">
	<ele>2331.00</ele>
	<time>2023-08-09T08:17:55.000Z</time>
</trkpt>
<trkpt lat="46.1674230" lon="10.4739600">
	<ele>2331.00</ele>
	<time>2023-08-09T08:17:56.000Z</time>
</trkpt>
<trkpt lat="46.1674250" lon="10.4739690">
	<ele>2331.00</ele>
	<time>2023-08-09T08:17:57.000Z</time>
</trkpt>
<trkpt lat="46.1674280" lon="10.4739770">
	<ele>2331.00</ele>
	<time>2023-08-09T08:17:58.000Z</time>
</trkpt>
<trkpt lat="46.1674350" lon="10.4739850">
	<ele>2330.80</ele>
	<time>2023-08-09T08:17:59.000Z</time>
</trkpt>
<trkpt lat="46.1674390" lon="10.4739890">
	<ele>2331.00</ele>
	<time>2023-08-09T08:18:00.000Z</time>
</trkpt>
<trkpt lat="46.1674410" lon="10.4739940">
	<ele>2331.00</ele>
	<time>2023-08-09T08:18:01.000Z</time>
</trkpt>
<trkpt lat="46.1674410" lon="10.4739980">
	<ele>2331.00</ele>
	<time>2023-08-09T08:18:02.000Z</time>
</trkpt>
<trkpt lat="46.1674400" lon="10.4740020">
	<ele>2331.00</ele>
	<time>2023-08-09T08:18:03.000Z</time>
</trkpt>
<trkpt lat="46.1674370" lon="10.4740050">
	<ele>2330.80</ele>
	<time>2023-08-09T08:18:04.000Z</time>
</trkpt>
<trkpt lat="46.1674390" lon="10.4740140">
	<ele>2330.80</ele>
	<time>2023-08-09T08:18:05.000Z</time>
</trkpt>
<trkpt lat="46.1674400" lon="10.4740220">
	<ele>2330.80</ele>
	<time>2023-08-09T08:18:06.000Z</time>
</trkpt>
<trkpt lat="46.1674430" lon="10.4740230">
	<ele>2330.80</ele>
	<time>2023-08-09T08:18:07.000Z</time>
</trkpt>
<trkpt lat="46.1674460" lon="10.4740220">
	<ele>2330.80</ele>
	<time>2023-08-09T08:18:08.000Z</time>
</trkpt>
<trkpt lat="46.1674490" lon="10.4740220">
	<ele>2330.60</ele>
	<time>2023-08-09T08:18:09.000Z</time>
</trkpt>
<trkpt lat="46.1674290" lon="10.4740300">
	<ele>2330.60</ele>
	<time>2023-08-09T08:18:10.000Z</time>
</trkpt>
<trkpt lat="46.1674190" lon="10.4740360">
	<ele>2330.60</ele>
	<time>2023-08-09T08:18:11.000Z</time>
</trkpt>
<trkpt lat="46.1674190" lon="10.4740390">
	<ele>2330.60</ele>
	<time>2023-08-09T08:18:12.000Z</time>
</trkpt>
<trkpt lat="46.1674230" lon="10.4740400">
	<ele>2330.80</ele>
	<time>2023-08-09T08:18:13.000Z</time>
</trkpt>
<trkpt lat="46.1674250" lon="10.4740400">
	<ele>2330.80</ele>
	<time>2023-08-09T08:18:14.000Z</time>
</trkpt>
<trkpt lat="46.1674260" lon="10.4740400">
	<ele>2331.00</ele>
	<time>2023-08-09T08:18:15.000Z</time>
</trkpt>
<trkpt lat="46.1674280" lon="10.4740390">
	<ele>2331.00</ele>
	<time>2023-08-09T08:18:16.000Z</time>
</trkpt>
<trkpt lat="46.1674280" lon="10.4740380">
	<ele>2331.00</ele>
	<time>2023-08-09T08:18:17.000Z</time>
</trkpt>
<trkpt lat="46.1674280" lon="10.4740380">
	<ele>2331.20</ele>
	<time>2023-08-09T08:18:18.000Z</time>
</trkpt>
<trkpt lat="46.1674280" lon="10.4740380">
	<ele>2331.20</ele>
	<time>2023-08-09T08:18:19.000Z</time>
</trkpt>
<trkpt lat="46.1674280" lon="10.4740380">
	<ele>2331.00</ele>
	<time>2023-08-09T08:18:20.000Z</time>
</trkpt>
<trkpt lat="46.1674280" lon="10.4740380">
	<ele>2331.00</ele>
	<time>2023-08-09T08:18:21.000Z</time>
</trkpt>
<trkpt lat="46.1674280" lon="10.4740380">
	<ele>2331.00</ele>
	<time>2023-08-09T08:18:22.000Z</time>
</trkpt>
<trkpt lat="46.1674280" lon="10.4740380">
	<ele>2331.00</ele>
	<time>2023-08-09T08:18:23.000Z</time>
</trkpt>
<trkpt lat="46.1674280" lon="10.4740380">
	<ele>2331.00</ele>
	<time>2023-08-09T08:18:24.000Z</time>
</trkpt>
<trkpt lat="46.1674280" lon="10.4740380">
	<ele>2331.00</ele>
	<time>2023-08-09T08:18:25.000Z</time>
</trkpt>
<trkpt lat="46.1674280" lon="10.4740380">
	<ele>2331.00</ele>
	<time>2023-08-09T08:18:26.000Z</time>
</trkpt>
<trkpt lat="46.1674280" lon="10.4740380">
	<ele>2331.00</ele>
	<time>2023-08-09T08:18:27.000Z</time>
</trkpt>
<trkpt lat="46.1674280" lon="10.4740380">
	<ele>2331.00</ele>
	<time>2023-08-09T08:18:28.000Z</time>
</trkpt>
<trkpt lat="46.1674280" lon="10.4740380">
	<ele>2331.00</ele>
	<time>2023-08-09T08:18:29.000Z</time>
</trkpt>
<trkpt lat="46.1674280" lon="10.4740380">
	<ele>2331.00</ele>
	<time>2023-08-09T08:18:30.000Z</time>
</trkpt>
<trkpt lat="46.1674280" lon="10.4740380">
	<ele>2331.00</ele>
	<time>2023-08-09T08:18:31.000Z</time>
</trkpt>
<trkpt lat="46.1674280" lon="10.4740390">
	<ele>2331.00</ele>
	<time>2023-08-09T08:18:32.000Z</time>
</trkpt>
<trkpt lat="46.1674280" lon="10.4740390">
	<ele>2331.00</ele>
	<time>2023-08-09T08:18:33.000Z</time>
</trkpt>
<trkpt lat="46.1674280" lon="10.4740400">
	<ele>2331.00</ele>
	<time>2023-08-09T08:18:34.000Z</time>
</trkpt>
<trkpt lat="46.1674280" lon="10.4740400">
	<ele>2331.00</ele>
	<time>2023-08-09T08:18:35.000Z</time>
</trkpt>
<trkpt lat="46.1674280" lon="10.4740400">
	<ele>2331.00</ele>
	<time>2023-08-09T08:18:36.000Z</time>
</trkpt>
<trkpt lat="46.1674280" lon="10.4740410">
	<ele>2331.00</ele>
	<time>2023-08-09T08:18:37.000Z</time>
</trkpt>
<trkpt lat="46.1674280" lon="10.4740490">
	<ele>2331.00</ele>
	<time>2023-08-09T08:18:38.000Z</time>
</trkpt>
<trkpt lat="46.1674280" lon="10.4740560">
	<ele>2331.00</ele>
	<time>2023-08-09T08:18:39.000Z</time>
</trkpt>
<trkpt lat="46.1674280" lon="10.4740650">
	<ele>2331.00</ele>
	<time>2023-08-09T08:18:40.000Z</time>
</trkpt>
<trkpt lat="46.1674290" lon="10.4740730">
	<ele>2331.00</ele>
	<time>2023-08-09T08:18:41.000Z</time>
</trkpt>
<trkpt lat="46.1674310" lon="10.4740830">
	<ele>2331.00</ele>
	<time>2023-08-09T08:18:42.000Z</time>
</trkpt>
<trkpt lat="46.1674340" lon="10.4740900">
	<ele>2331.00</ele>
	<time>2023-08-09T08:18:43.000Z</time>
</trkpt>
<trkpt lat="46.1674360" lon="10.4740930">
	<ele>2331.00</ele>
	<time>2023-08-09T08:18:44.000Z</time>
</trkpt>
<trkpt lat="46.1674360" lon="10.4740960">
	<ele>2331.00</ele>
	<time>2023-08-09T08:18:45.000Z</time>
</trkpt>
<trkpt lat="46.1674360" lon="10.4740960">
	<ele>2331.00</ele>
	<time>2023-08-09T08:18:46.000Z</time>
</trkpt>
<trkpt lat="46.1674360" lon="10.4740970">
	<ele>2331.00</ele>
	<time>2023-08-09T08:18:47.000Z</time>
</trkpt>
<trkpt lat="46.1674370" lon="10.4740970">
	<ele>2331.00</ele>
	<time>2023-08-09T08:18:48.000Z</time>
</trkpt>
<trkpt lat="46.1674370" lon="10.4740970">
	<ele>2331.00</ele>
	<time>2023-08-09T08:18:49.000Z</time>
</trkpt>
<trkpt lat="46.1674370" lon="10.4740970">
	<ele>2331.00</ele>
	<time>2023-08-09T08:18:50.000Z</time>
</trkpt>
<trkpt lat="46.1674380" lon="10.4740970">
	<ele>2331.00</ele>
	<time>2023-08-09T08:18:51.000Z</time>
</trkpt>
<trkpt lat="46.1674380" lon="10.4740970">
	<ele>2331.00</ele>
	<time>2023-08-09T08:18:52.000Z</time>
</trkpt>
<trkpt lat="46.1674380" lon="10.4740970">
	<ele>2331.00</ele>
	<time>2023-08-09T08:18:53.000Z</time>
</trkpt>
<trkpt lat="46.1674380" lon="10.4740980">
	<ele>2331.00</ele>
	<time>2023-08-09T08:18:54.000Z</time>
</trkpt>
<trkpt lat="46.1674380" lon="10.4740980">
	<ele>2331.00</ele>
	<time>2023-08-09T08:18:55.000Z</time>
</trkpt>
<trkpt lat="46.1674380" lon="10.4740980">
	<ele>2331.00</ele>
	<time>2023-08-09T08:18:56.000Z</time>
</trkpt>
<trkpt lat="46.1674380" lon="10.4740980">
	<ele>2331.00</ele>
	<time>2023-08-09T08:18:57.000Z</time>
</trkpt>
<trkpt lat="46.1674380" lon="10.4740990">
	<ele>2331.00</ele>
	<time>2023-08-09T08:18:58.000Z</time>
</trkpt>
<trkpt lat="46.1674380" lon="10.4740990">
	<ele>2331.00</ele>
	<time>2023-08-09T08:18:59.000Z</time>
</trkpt>
<trkpt lat="46.1674380" lon="10.4740990">
	<ele>2331.00</ele>
	<time>2023-08-09T08:19:00.000Z</time>
</trkpt>
<trkpt lat="46.1674390" lon="10.4740990">
	<ele>2331.00</ele>
	<time>2023-08-09T08:19:01.000Z</time>
</trkpt>
<trkpt lat="46.1674390" lon="10.4740990">
	<ele>2331.00</ele>
	<time>2023-08-09T08:19:02.000Z</time>
</trkpt>
<trkpt lat="46.1674390" lon="10.4740990">
	<ele>2331.00</ele>
	<time>2023-08-09T08:19:03.000Z</time>
</trkpt>
<trkpt lat="46.1674390" lon="10.4740990">
	<ele>2331.00</ele>
	<time>2023-08-09T08:19:04.000Z</time>
</trkpt>
<trkpt lat="46.1674390" lon="10.4740990">
	<ele>2331.00</ele>
	<time>2023-08-09T08:19:05.000Z</time>
</trkpt>
<trkpt lat="46.1674390" lon="10.4741000">
	<ele>2331.00</ele>
	<time>2023-08-09T08:19:06.000Z</time>
</trkpt>
<trkpt lat="46.1674390" lon="10.4741000">
	<ele>2331.00</ele>
	<time>2023-08-09T08:19:07.000Z</time>
</trkpt>
<trkpt lat="46.1674390" lon="10.4741000">
	<ele>2331.00</ele>
	<time>2023-08-09T08:19:08.000Z</time>
</trkpt>
<trkpt lat="46.1674390" lon="10.4741000">
	<ele>2331.00</ele>
	<time>2023-08-09T08:19:09.000Z</time>
</trkpt>
<trkpt lat="46.1674390" lon="10.4741000">
	<ele>2331.00</ele>
	<time>2023-08-09T08:19:10.000Z</time>
</trkpt>
<trkpt lat="46.1674390" lon="10.4741000">
	<ele>2331.00</ele>
	<time>2023-08-09T08:19:11.000Z</time>
</trkpt>
<trkpt lat="46.1674390" lon="10.4741000">
	<ele>2331.00</ele>
	<time>2023-08-09T08:19:12.000Z</time>
</trkpt>
<trkpt lat="46.1674390" lon="10.4741000">
	<ele>2331.00</ele>
	<time>2023-08-09T08:19:13.000Z</time>
</trkpt>
<trkpt lat="46.1674390" lon="10.4741000">
	<ele>2331.00</ele>
	<time>2023-08-09T08:19:14.000Z</time>
</trkpt>
<trkpt lat="46.1674390" lon="10.4741000">
	<ele>2331.00</ele>
	<time>2023-08-09T08:19:15.000Z</time>
</trkpt>
<trkpt lat="46.1674400" lon="10.4741000">
	<ele>2331.00</ele>
	<time>2023-08-09T08:19:16.000Z</time>
</trkpt>
<trkpt lat="46.1674400" lon="10.4741010">
	<ele>2331.00</ele>
	<time>2023-08-09T08:19:17.000Z</time>
</trkpt>
<trkpt lat="46.1674400" lon="10.4741010">
	<ele>2331.00</ele>
	<time>2023-08-09T08:19:18.000Z</time>
</trkpt>
<trkpt lat="46.1674410" lon="10.4741010">
	<ele>2331.00</ele>
	<time>2023-08-09T08:19:19.000Z</time>
</trkpt>
<trkpt lat="46.1674410" lon="10.4741010">
	<ele>2331.00</ele>
	<time>2023-08-09T08:19:20.000Z</time>
</trkpt>
<trkpt lat="46.1674420" lon="10.4741010">
	<ele>2331.00</ele>
	<time>2023-08-09T08:19:21.000Z</time>
</trkpt>
<trkpt lat="46.1674420" lon="10.4741010">
	<ele>2331.00</ele>
	<time>2023-08-09T08:19:22.000Z</time>
</trkpt>
<trkpt lat="46.1674420" lon="10.4741010">
	<ele>2331.00</ele>
	<time>2023-08-09T08:19:23.000Z</time>
</trkpt>
<trkpt lat="46.1674420" lon="10.4741010">
	<ele>2331.00</ele>
	<time>2023-08-09T08:19:24.000Z</time>
</trkpt>
<trkpt lat="46.1674430" lon="10.4741020">
	<ele>2331.00</ele>
	<time>2023-08-09T08:19:25.000Z</time>
</trkpt>
<trkpt lat="46.1674430" lon="10.4741030">
	<ele>2331.00</ele>
	<time>2023-08-09T08:19:26.000Z</time>
</trkpt>
<trkpt lat="46.1674500" lon="10.4741090">
	<ele>2331.00</ele>
	<time>2023-08-09T08:19:27.000Z</time>
</trkpt>
<trkpt lat="46.1674710" lon="10.4741200">
	<ele>2331.00</ele>
	<time>2023-08-09T08:19:28.000Z</time>
</trkpt>
<trkpt lat="46.1674880" lon="10.4741380">
	<ele>2331.00</ele>
	<time>2023-08-09T08:19:29.000Z</time>
</trkpt>
<trkpt lat="46.1675050" lon="10.4741510">
	<ele>2331.00</ele>
	<time>2023-08-09T08:19:30.000Z</time>
</trkpt>
<trkpt lat="46.1675180" lon="10.4741650">
	<ele>2331.00</ele>
	<time>2023-08-09T08:19:31.000Z</time>
</trkpt>
<trkpt lat="46.1675260" lon="10.4741810">
	<ele>2331.00</ele>
	<time>2023-08-09T08:19:32.000Z</time>
</trkpt>
<trkpt lat="46.1675380" lon="10.4741930">
	<ele>2331.00</ele>
	<time>2023-08-09T08:19:33.000Z</time>
</trkpt>
<trkpt lat="46.1675510" lon="10.4742080">
	<ele>2331.00</ele>
	<time>2023-08-09T08:19:34.000Z</time>
</trkpt>
<trkpt lat="46.1675620" lon="10.4742180">
	<ele>2331.00</ele>
	<time>2023-08-09T08:19:35.000Z</time>
</trkpt>
<trkpt lat="46.1675770" lon="10.4742290">
	<ele>2331.00</ele>
	<time>2023-08-09T08:19:36.000Z</time>
</trkpt>
<trkpt lat="46.1675830" lon="10.4742360">
	<ele>2331.00</ele>
	<time>2023-08-09T08:19:37.000Z</time>
</trkpt>
<trkpt lat="46.1675900" lon="10.4742370">
	<ele>2331.00</ele>
	<time>2023-08-09T08:19:38.000Z</time>
</trkpt>
<trkpt lat="46.1675960" lon="10.4742380">
	<ele>2330.80</ele>
	<time>2023-08-09T08:19:39.000Z</time>
</trkpt>
<trkpt lat="46.1676010" lon="10.4742390">
	<ele>2330.80</ele>
	<time>2023-08-09T08:19:40.000Z</time>
</trkpt>
<trkpt lat="46.1676040" lon="10.4742420">
	<ele>2330.80</ele>
	<time>2023-08-09T08:19:41.000Z</time>
</trkpt>
<trkpt lat="46.1676060" lon="10.4742440">
	<ele>2330.60</ele>
	<time>2023-08-09T08:19:42.000Z</time>
</trkpt>
<trkpt lat="46.1676010" lon="10.4742400">
	<ele>2330.60</ele>
	<time>2023-08-09T08:19:43.000Z</time>
</trkpt>
<trkpt lat="46.1675990" lon="10.4742390">
	<ele>2330.60</ele>
	<time>2023-08-09T08:19:44.000Z</time>
</trkpt>
<trkpt lat="46.1676000" lon="10.4742370">
	<ele>2330.60</ele>
	<time>2023-08-09T08:19:45.000Z</time>
</trkpt>
<trkpt lat="46.1675990" lon="10.4742370">
	<ele>2330.60</ele>
	<time>2023-08-09T08:19:46.000Z</time>
</trkpt>
<trkpt lat="46.1675940" lon="10.4742400">
	<ele>2330.60</ele>
	<time>2023-08-09T08:19:47.000Z</time>
</trkpt>
<trkpt lat="46.1675910" lon="10.4742390">
	<ele>2330.40</ele>
	<time>2023-08-09T08:19:48.000Z</time>
</trkpt>
<trkpt lat="46.1675900" lon="10.4742380">
	<ele>2330.40</ele>
	<time>2023-08-09T08:19:49.000Z</time>
</trkpt>
<trkpt lat="46.1675900" lon="10.4742380">
	<ele>2330.40</ele>
	<time>2023-08-09T08:19:50.000Z</time>
</trkpt>
<trkpt lat="46.1675910" lon="10.4742380">
	<ele>2330.60</ele>
	<time>2023-08-09T08:19:51.000Z</time>
</trkpt>
<trkpt lat="46.1675910" lon="10.4742390">
	<ele>2330.80</ele>
	<time>2023-08-09T08:19:52.000Z</time>
</trkpt>
<trkpt lat="46.1675910" lon="10.4742390">
	<ele>2330.80</ele>
	<time>2023-08-09T08:19:53.000Z</time>
</trkpt>
<trkpt lat="46.1675910" lon="10.4742390">
	<ele>2331.00</ele>
	<time>2023-08-09T08:19:54.000Z</time>
</trkpt>
<trkpt lat="46.1675910" lon="10.4742390">
	<ele>2331.00</ele>
	<time>2023-08-09T08:19:55.000Z</time>
</trkpt>
<trkpt lat="46.1675910" lon="10.4742390">
	<ele>2331.00</ele>
	<time>2023-08-09T08:19:56.000Z</time>
</trkpt>
<trkpt lat="46.1675910" lon="10.4742390">
	<ele>2331.20</ele>
	<time>2023-08-09T08:19:57.000Z</time>
</trkpt>
<trkpt lat="46.1675910" lon="10.4742390">
	<ele>2331.00</ele>
	<time>2023-08-09T08:19:58.000Z</time>
</trkpt>
<trkpt lat="46.1675910" lon="10.4742390">
	<ele>2331.00</ele>
	<time>2023-08-09T08:19:59.000Z</time>
</trkpt>
<trkpt lat="46.1675930" lon="10.4742410">
	<ele>2331.20</ele>
	<time>2023-08-09T08:20:00.000Z</time>
</trkpt>
<trkpt lat="46.1676040" lon="10.4742440">
	<ele>2331.20</ele>
	<time>2023-08-09T08:20:01.000Z</time>
</trkpt>
<trkpt lat="46.1676100" lon="10.4742520">
	<ele>2331.20</ele>
	<time>2023-08-09T08:20:02.000Z</time>
</trkpt>
<trkpt lat="46.1676140" lon="10.4742620">
	<ele>2331.00</ele>
	<time>2023-08-09T08:20:03.000Z</time>
</trkpt>
<trkpt lat="46.1676200" lon="10.4742720">
	<ele>2331.00</ele>
	<time>2023-08-09T08:20:04.000Z</time>
</trkpt>
<trkpt lat="46.1676300" lon="10.4742820">
	<ele>2331.00</ele>
	<time>2023-08-09T08:20:05.000Z</time>
</trkpt>
<trkpt lat="46.1676360" lon="10.4742900">
	<ele>2331.00</ele>
	<time>2023-08-09T08:20:06.000Z</time>
</trkpt>
<trkpt lat="46.1676460" lon="10.4742990">
	<ele>2331.00</ele>
	<time>2023-08-09T08:20:07.000Z</time>
</trkpt>
<trkpt lat="46.1676510" lon="10.4743090">
	<ele>2331.00</ele>
	<time>2023-08-09T08:20:08.000Z</time>
</trkpt>
<trkpt lat="46.1676610" lon="10.4743160">
	<ele>2331.00</ele>
	<time>2023-08-09T08:20:09.000Z</time>
</trkpt>
<trkpt lat="46.1676670" lon="10.4743250">
	<ele>2331.00</ele>
	<time>2023-08-09T08:20:10.000Z</time>
</trkpt>
<trkpt lat="46.1676720" lon="10.4743340">
	<ele>2331.00</ele>
	<time>2023-08-09T08:20:11.000Z</time>
</trkpt>
<trkpt lat="46.1676770" lon="10.4743420">
	<ele>2331.00</ele>
	<time>2023-08-09T08:20:12.000Z</time>
</trkpt>
<trkpt lat="46.1676870" lon="10.4743490">
	<ele>2331.00</ele>
	<time>2023-08-09T08:20:13.000Z</time>
</trkpt>
<trkpt lat="46.1676940" lon="10.4743560">
	<ele>2331.00</ele>
	<time>2023-08-09T08:20:14.000Z</time>
</trkpt>
<trkpt lat="46.1677000" lon="10.4743620">
	<ele>2331.00</ele>
	<time>2023-08-09T08:20:15.000Z</time>
</trkpt>
<trkpt lat="46.1677060" lon="10.4743680">
	<ele>2331.00</ele>
	<time>2023-08-09T08:20:16.000Z</time>
</trkpt>
<trkpt lat="46.1677160" lon="10.4743720">
	<ele>2331.00</ele>
	<time>2023-08-09T08:20:17.000Z</time>
</trkpt>
<trkpt lat="46.1677250" lon="10.4743810">
	<ele>2331.20</ele>
	<time>2023-08-09T08:20:18.000Z</time>
</trkpt>
<trkpt lat="46.1677310" lon="10.4743920">
	<ele>2331.00</ele>
	<time>2023-08-09T08:20:19.000Z</time>
</trkpt>
<trkpt lat="46.1677310" lon="10.4744060">
	<ele>2331.00</ele>
	<time>2023-08-09T08:20:20.000Z</time>
</trkpt>
<trkpt lat="46.1677420" lon="10.4744180">
	<ele>2331.00</ele>
	<time>2023-08-09T08:20:21.000Z</time>
</trkpt>
<trkpt lat="46.1677490" lon="10.4744310">
	<ele>2331.00</ele>
	<time>2023-08-09T08:20:22.000Z</time>
</trkpt>
<trkpt lat="46.1677530" lon="10.4744440">
	<ele>2330.80</ele>
	<time>2023-08-09T08:20:23.000Z</time>
</trkpt>
<trkpt lat="46.1677590" lon="10.4744550">
	<ele>2330.80</ele>
	<time>2023-08-09T08:20:24.000Z</time>
</trkpt>
<trkpt lat="46.1677650" lon="10.4744620">
	<ele>2330.80</ele>
	<time>2023-08-09T08:20:25.000Z</time>
</trkpt>
<trkpt lat="46.1677730" lon="10.4744710">
	<ele>2331.00</ele>
	<time>2023-08-09T08:20:26.000Z</time>
</trkpt>
<trkpt lat="46.1677820" lon="10.4744760">
	<ele>2330.80</ele>
	<time>2023-08-09T08:20:27.000Z</time>
</trkpt>
<trkpt lat="46.1677880" lon="10.4744870">
	<ele>2331.00</ele>
	<time>2023-08-09T08:20:28.000Z</time>
</trkpt>
<trkpt lat="46.1677920" lon="10.4744980">
	<ele>2331.00</ele>
	<time>2023-08-09T08:20:29.000Z</time>
</trkpt>
<trkpt lat="46.1677960" lon="10.4745140">
	<ele>2331.00</ele>
	<time>2023-08-09T08:20:30.000Z</time>
</trkpt>
<trkpt lat="46.1678020" lon="10.4745250">
	<ele>2331.20</ele>
	<time>2023-08-09T08:20:31.000Z</time>
</trkpt>
<trkpt lat="46.1678080" lon="10.4745340">
	<ele>2331.20</ele>
	<time>2023-08-09T08:20:32.000Z</time>
</trkpt>
<trkpt lat="46.1678150" lon="10.4745420">
	<ele>2331.20</ele>
	<time>2023-08-09T08:20:33.000Z</time>
</trkpt>
<trkpt lat="46.1678230" lon="10.4745490">
	<ele>2331.20</ele>
	<time>2023-08-09T08:20:34.000Z</time>
</trkpt>
<trkpt lat="46.1678320" lon="10.4745570">
	<ele>2331.40</ele>
	<time>2023-08-09T08:20:35.000Z</time>
</trkpt>
<trkpt lat="46.1678370" lon="10.4745630">
	<ele>2331.40</ele>
	<time>2023-08-09T08:20:36.000Z</time>
</trkpt>
<trkpt lat="46.1678430" lon="10.4745720">
	<ele>2331.20</ele>
	<time>2023-08-09T08:20:37.000Z</time>
</trkpt>
<trkpt lat="46.1678500" lon="10.4745830">
	<ele>2331.20</ele>
	<time>2023-08-09T08:20:38.000Z</time>
</trkpt>
<trkpt lat="46.1678570" lon="10.4745940">
	<ele>2331.00</ele>
	<time>2023-08-09T08:20:39.000Z</time>
</trkpt>
<trkpt lat="46.1678630" lon="10.4746040">
	<ele>2331.00</ele>
	<time>2023-08-09T08:20:40.000Z</time>
</trkpt>
<trkpt lat="46.1678700" lon="10.4746120">
	<ele>2331.00</ele>
	<time>2023-08-09T08:20:41.000Z</time>
</trkpt>
<trkpt lat="46.1678740" lon="10.4746200">
	<ele>2331.00</ele>
	<time>2023-08-09T08:20:42.000Z</time>
</trkpt>
<trkpt lat="46.1678820" lon="10.4746260">
	<ele>2331.20</ele>
	<time>2023-08-09T08:20:43.000Z</time>
</trkpt>
<trkpt lat="46.1678920" lon="10.4746320">
	<ele>2331.20</ele>
	<time>2023-08-09T08:20:44.000Z</time>
</trkpt>
<trkpt lat="46.1678980" lon="10.4746370">
	<ele>2331.20</ele>
	<time>2023-08-09T08:20:45.000Z</time>
</trkpt>
<trkpt lat="46.1679040" lon="10.4746420">
	<ele>2331.20</ele>
	<time>2023-08-09T08:20:46.000Z</time>
</trkpt>
<trkpt lat="46.1679130" lon="10.4746450">
	<ele>2331.40</ele>
	<time>2023-08-09T08:20:47.000Z</time>
</trkpt>
<trkpt lat="46.1679210" lon="10.4746530">
	<ele>2331.40</ele>
	<time>2023-08-09T08:20:48.000Z</time>
</trkpt>
<trkpt lat="46.1679250" lon="10.4746590">
	<ele>2331.40</ele>
	<time>2023-08-09T08:20:49.000Z</time>
</trkpt>
<trkpt lat="46.1679300" lon="10.4746650">
	<ele>2331.20</ele>
	<time>2023-08-09T08:20:50.000Z</time>
</trkpt>
<trkpt lat="46.1679390" lon="10.4746750">
	<ele>2331.20</ele>
	<time>2023-08-09T08:20:51.000Z</time>
</trkpt>
<trkpt lat="46.1679430" lon="10.4746840">
	<ele>2331.20</ele>
	<time>2023-08-09T08:20:52.000Z</time>
</trkpt>
<trkpt lat="46.1679500" lon="10.4746940">
	<ele>2331.20</ele>
	<time>2023-08-09T08:20:53.000Z</time>
</trkpt>
<trkpt lat="46.1679540" lon="10.4747070">
	<ele>2331.20</ele>
	<time>2023-08-09T08:20:54.000Z</time>
</trkpt>
<trkpt lat="46.1679630" lon="10.4747180">
	<ele>2331.20</ele>
	<time>2023-08-09T08:20:55.000Z</time>
</trkpt>
<trkpt lat="46.1679690" lon="10.4747370">
	<ele>2331.20</ele>
	<time>2023-08-09T08:20:56.000Z</time>
</trkpt>
<trkpt lat="46.1679760" lon="10.4747480">
	<ele>2331.40</ele>
	<time>2023-08-09T08:20:57.000Z</time>
</trkpt>
<trkpt lat="46.1679780" lon="10.4747570">
	<ele>2331.40</ele>
	<time>2023-08-09T08:20:58.000Z</time>
</trkpt>
<trkpt lat="46.1679820" lon="10.4747640">
	<ele>2331.40</ele>
	<time>2023-08-09T08:20:59.000Z</time>
</trkpt>
<trkpt lat="46.1679890" lon="10.4747740">
	<ele>2331.40</ele>
	<time>2023-08-09T08:21:00.000Z</time>
</trkpt>
<trkpt lat="46.1679910" lon="10.4747870">
	<ele>2331.40</ele>
	<time>2023-08-09T08:21:01.000Z</time>
</trkpt>
<trkpt lat="46.1680010" lon="10.4747950">
	<ele>2331.40</ele>
	<time>2023-08-09T08:21:02.000Z</time>
</trkpt>
<trkpt lat="46.1680080" lon="10.4748050">
	<ele>2331.20</ele>
	<time>2023-08-09T08:21:03.000Z</time>
</trkpt>
<trkpt lat="46.1680160" lon="10.4748130">
	<ele>2331.20</ele>
	<time>2023-08-09T08:21:04.000Z</time>
</trkpt>
<trkpt lat="46.1680230" lon="10.4748160">
	<ele>2331.20</ele>
	<time>2023-08-09T08:21:05.000Z</time>
</trkpt>
<trkpt lat="46.1680310" lon="10.4748220">
	<ele>2331.20</ele>
	<time>2023-08-09T08:21:06.000Z</time>
</trkpt>
<trkpt lat="46.1680440" lon="10.4748270">
	<ele>2331.20</ele>
	<time>2023-08-09T08:21:07.000Z</time>
</trkpt>
<trkpt lat="46.1680530" lon="10.4748280">
	<ele>2331.40</ele>
	<time>2023-08-09T08:21:08.000Z</time>
</trkpt>
<trkpt lat="46.1680630" lon="10.4748330">
	<ele>2331.40</ele>
	<time>2023-08-09T08:21:09.000Z</time>
</trkpt>
<trkpt lat="46.1680710" lon="10.4748440">
	<ele>2331.40</ele>
	<time>2023-08-09T08:21:10.000Z</time>
</trkpt>
<trkpt lat="46.1680750" lon="10.4748550">
	<ele>2331.40</ele>
	<time>2023-08-09T08:21:11.000Z</time>
</trkpt>
<trkpt lat="46.1680860" lon="10.4748570">
	<ele>2331.40</ele>
	<time>2023-08-09T08:21:12.000Z</time>
</trkpt>
<trkpt lat="46.1680940" lon="10.4748630">
	<ele>2331.40</ele>
	<time>2023-08-09T08:21:13.000Z</time>
</trkpt>
<trkpt lat="46.1681080" lon="10.4748660">
	<ele>2331.40</ele>
	<time>2023-08-09T08:21:14.000Z</time>
</trkpt>
<trkpt lat="46.1681170" lon="10.4748690">
	<ele>2331.40</ele>
	<time>2023-08-09T08:21:15.000Z</time>
</trkpt>
<trkpt lat="46.1681260" lon="10.4748700">
	<ele>2331.40</ele>
	<time>2023-08-09T08:21:16.000Z</time>
</trkpt>
<trkpt lat="46.1681400" lon="10.4748670">
	<ele>2331.40</ele>
	<time>2023-08-09T08:21:17.000Z</time>
</trkpt>
<trkpt lat="46.1681550" lon="10.4748680">
	<ele>2331.40</ele>
	<time>2023-08-09T08:21:18.000Z</time>
</trkpt>
<trkpt lat="46.1681650" lon="10.4748740">
	<ele>2331.60</ele>
	<time>2023-08-09T08:21:19.000Z</time>
</trkpt>
<trkpt lat="46.1681740" lon="10.4748820">
	<ele>2331.60</ele>
	<time>2023-08-09T08:21:20.000Z</time>
</trkpt>
<trkpt lat="46.1681790" lon="10.4748880">
	<ele>2331.60</ele>
	<time>2023-08-09T08:21:21.000Z</time>
</trkpt>
<trkpt lat="46.1681880" lon="10.4748980">
	<ele>2331.60</ele>
	<time>2023-08-09T08:21:22.000Z</time>
</trkpt>
<trkpt lat="46.1682000" lon="10.4749080">
	<ele>2331.60</ele>
	<time>2023-08-09T08:21:23.000Z</time>
</trkpt>
<trkpt lat="46.1682060" lon="10.4749190">
	<ele>2331.60</ele>
	<time>2023-08-09T08:21:24.000Z</time>
</trkpt>
<trkpt lat="46.1682130" lon="10.4749320">
	<ele>2331.60</ele>
	<time>2023-08-09T08:21:25.000Z</time>
</trkpt>
<trkpt lat="46.1682180" lon="10.4749460">
	<ele>2331.60</ele>
	<time>2023-08-09T08:21:26.000Z</time>
</trkpt>
<trkpt lat="46.1682220" lon="10.4749610">
	<ele>2331.60</ele>
	<time>2023-08-09T08:21:27.000Z</time>
</trkpt>
<trkpt lat="46.1682260" lon="10.4749700">
	<ele>2331.60</ele>
	<time>2023-08-09T08:21:28.000Z</time>
</trkpt>
<trkpt lat="46.1682300" lon="10.4749790">
	<ele>2331.60</ele>
	<time>2023-08-09T08:21:29.000Z</time>
</trkpt>
<trkpt lat="46.1682340" lon="10.4749910">
	<ele>2331.60</ele>
	<time>2023-08-09T08:21:30.000Z</time>
</trkpt>
<trkpt lat="46.1682370" lon="10.4750000">
	<ele>2331.60</ele>
	<time>2023-08-09T08:21:31.000Z</time>
</trkpt>
<trkpt lat="46.1682440" lon="10.4750070">
	<ele>2331.60</ele>
	<time>2023-08-09T08:21:32.000Z</time>
</trkpt>
<trkpt lat="46.1682520" lon="10.4750110">
	<ele>2331.60</ele>
	<time>2023-08-09T08:21:33.000Z</time>
</trkpt>
<trkpt lat="46.1682560" lon="10.4750150">
	<ele>2331.60</ele>
	<time>2023-08-09T08:21:34.000Z</time>
</trkpt>
<trkpt lat="46.1682640" lon="10.4750190">
	<ele>2331.60</ele>
	<time>2023-08-09T08:21:35.000Z</time>
</trkpt>
<trkpt lat="46.1682680" lon="10.4750290">
	<ele>2331.60</ele>
	<time>2023-08-09T08:21:36.000Z</time>
</trkpt>
<trkpt lat="46.1682710" lon="10.4750350">
	<ele>2331.60</ele>
	<time>2023-08-09T08:21:37.000Z</time>
</trkpt>
<trkpt lat="46.1682760" lon="10.4750400">
	<ele>2331.80</ele>
	<time>2023-08-09T08:21:38.000Z</time>
</trkpt>
<trkpt lat="46.1682810" lon="10.4750470">
	<ele>2331.80</ele>
	<time>2023-08-09T08:21:39.000Z</time>
</trkpt>
<trkpt lat="46.1682840" lon="10.4750520">
	<ele>2332.20</ele>
	<time>2023-08-09T08:21:40.000Z</time>
</trkpt>
<trkpt lat="46.1682920" lon="10.4750570">
	<ele>2332.20</ele>
	<time>2023-08-09T08:21:41.000Z</time>
</trkpt>
<trkpt lat="46.1682960" lon="10.4750630">
	<ele>2332.40</ele>
	<time>2023-08-09T08:21:42.000Z</time>
</trkpt>
<trkpt lat="46.1682950" lon="10.4750680">
	<ele>2332.60</ele>
	<time>2023-08-09T08:21:43.000Z</time>
</trkpt>
<trkpt lat="46.1682900" lon="10.4750690">
	<ele>2332.80</ele>
	<time>2023-08-09T08:21:44.000Z</time>
</trkpt>
<trkpt lat="46.1682870" lon="10.4750710">
	<ele>2332.80</ele>
	<time>2023-08-09T08:21:45.000Z</time>
</trkpt>
<trkpt lat="46.1682900" lon="10.4750680">
	<ele>2332.80</ele>
	<time>2023-08-09T08:21:46.000Z</time>
</trkpt>
<trkpt lat="46.1682890" lon="10.4750650">
	<ele>2332.80</ele>
	<time>2023-08-09T08:21:47.000Z</time>
</trkpt>
<trkpt lat="46.1682890" lon="10.4750650">
	<ele>2333.00</ele>
	<time>2023-08-09T08:21:48.000Z</time>
</trkpt>
<trkpt lat="46.1682900" lon="10.4750650">
	<ele>2333.00</ele>
	<time>2023-08-09T08:21:49.000Z</time>
</trkpt>
<trkpt lat="46.1682910" lon="10.4750650">
	<ele>2333.00</ele>
	<time>2023-08-09T08:21:50.000Z</time>
</trkpt>
<trkpt lat="46.1682910" lon="10.4750650">
	<ele>2333.00</ele>
	<time>2023-08-09T08:21:51.000Z</time>
</trkpt>
<trkpt lat="46.1682910" lon="10.4750650">
	<ele>2333.20</ele>
	<time>2023-08-09T08:21:52.000Z</time>
</trkpt>
<trkpt lat="46.1682910" lon="10.4750650">
	<ele>2333.20</ele>
	<time>2023-08-09T08:21:53.000Z</time>
</trkpt>
<trkpt lat="46.1682910" lon="10.4750650">
	<ele>2333.40</ele>
	<time>2023-08-09T08:21:54.000Z</time>
</trkpt>
<trkpt lat="46.1682910" lon="10.4750650">
	<ele>2333.40</ele>
	<time>2023-08-09T08:21:55.000Z</time>
</trkpt>
<trkpt lat="46.1682910" lon="10.4750650">
	<ele>2333.40</ele>
	<time>2023-08-09T08:21:56.000Z</time>
</trkpt>
<trkpt lat="46.1682930" lon="10.4750650">
	<ele>2333.40</ele>
	<time>2023-08-09T08:21:57.000Z</time>
</trkpt>
<trkpt lat="46.1682960" lon="10.4750620">
	<ele>2333.40</ele>
	<time>2023-08-09T08:21:58.000Z</time>
</trkpt>
<trkpt lat="46.1682990" lon="10.4750610">
	<ele>2333.20</ele>
	<time>2023-08-09T08:21:59.000Z</time>
</trkpt>
<trkpt lat="46.1683050" lon="10.4750610">
	<ele>2333.00</ele>
	<time>2023-08-09T08:22:00.000Z</time>
</trkpt>
<trkpt lat="46.1683140" lon="10.4750590">
	<ele>2333.00</ele>
	<time>2023-08-09T08:22:01.000Z</time>
</trkpt>
<trkpt lat="46.1683180" lon="10.4750590">
	<ele>2333.00</ele>
	<time>2023-08-09T08:22:02.000Z</time>
</trkpt>
<trkpt lat="46.1683210" lon="10.4750620">
	<ele>2332.80</ele>
	<time>2023-08-09T08:22:03.000Z</time>
</trkpt>
<trkpt lat="46.1683260" lon="10.4750650">
	<ele>2332.80</ele>
	<time>2023-08-09T08:22:04.000Z</time>
</trkpt>
<trkpt lat="46.1683240" lon="10.4750700">
	<ele>2332.80</ele>
	<time>2023-08-09T08:22:05.000Z</time>
</trkpt>
<trkpt lat="46.1683210" lon="10.4750810">
	<ele>2333.00</ele>
	<time>2023-08-09T08:22:06.000Z</time>
</trkpt>
<trkpt lat="46.1683200" lon="10.4750920">
	<ele>2333.00</ele>
	<time>2023-08-09T08:22:07.000Z</time>
</trkpt>
<trkpt lat="46.1683220" lon="10.4750990">
	<ele>2333.00</ele>
	<time>2023-08-09T08:22:08.000Z</time>
</trkpt>
<trkpt lat="46.1683200" lon="10.4751040">
	<ele>2333.20</ele>
	<time>2023-08-09T08:22:09.000Z</time>
</trkpt>
<trkpt lat="46.1683200" lon="10.4751100">
	<ele>2333.40</ele>
	<time>2023-08-09T08:22:10.000Z</time>
</trkpt>
<trkpt lat="46.1683210" lon="10.4751150">
	<ele>2333.40</ele>
	<time>2023-08-09T08:22:11.000Z</time>
</trkpt>
<trkpt lat="46.1683260" lon="10.4751190">
	<ele>2333.60</ele>
	<time>2023-08-09T08:22:12.000Z</time>
</trkpt>
<trkpt lat="46.1683260" lon="10.4751240">
	<ele>2333.80</ele>
	<time>2023-08-09T08:22:13.000Z</time>
</trkpt>
<trkpt lat="46.1683290" lon="10.4751290">
	<ele>2333.80</ele>
	<time>2023-08-09T08:22:14.000Z</time>
</trkpt>
<trkpt lat="46.1683320" lon="10.4751360">
	<ele>2334.00</ele>
	<time>2023-08-09T08:22:15.000Z</time>
</trkpt>
<trkpt lat="46.1683350" lon="10.4751430">
	<ele>2334.20</ele>
	<time>2023-08-09T08:22:16.000Z</time>
</trkpt>
<trkpt lat="46.1683420" lon="10.4751480">
	<ele>2334.40</ele>
	<time>2023-08-09T08:22:17.000Z</time>
</trkpt>
<trkpt lat="46.1683440" lon="10.4751540">
	<ele>2334.60</ele>
	<time>2023-08-09T08:22:18.000Z</time>
</trkpt>
<trkpt lat="46.1683430" lon="10.4751630">
	<ele>2334.80</ele>
	<time>2023-08-09T08:22:19.000Z</time>
</trkpt>
<trkpt lat="46.1683420" lon="10.4751730">
	<ele>2334.80</ele>
	<time>2023-08-09T08:22:20.000Z</time>
</trkpt>
<trkpt lat="46.1683490" lon="10.4751770">
	<ele>2335.00</ele>
	<time>2023-08-09T08:22:21.000Z</time>
</trkpt>
<trkpt lat="46.1683540" lon="10.4751850">
	<ele>2335.00</ele>
	<time>2023-08-09T08:22:22.000Z</time>
</trkpt>
<trkpt lat="46.1683560" lon="10.4751920">
	<ele>2335.00</ele>
	<time>2023-08-09T08:22:23.000Z</time>
</trkpt>
<trkpt lat="46.1683570" lon="10.4752020">
	<ele>2335.20</ele>
	<time>2023-08-09T08:22:24.000Z</time>
</trkpt>
<trkpt lat="46.1683600" lon="10.4752120">
	<ele>2335.20</ele>
	<time>2023-08-09T08:22:25.000Z</time>
</trkpt>
<trkpt lat="46.1683610" lon="10.4752160">
	<ele>2335.20</ele>
	<time>2023-08-09T08:22:26.000Z</time>
</trkpt>
<trkpt lat="46.1683610" lon="10.4752200">
	<ele>2335.20</ele>
	<time>2023-08-09T08:22:27.000Z</time>
</trkpt>
<trkpt lat="46.1683630" lon="10.4752220">
	<ele>2335.40</ele>
	<time>2023-08-09T08:22:28.000Z</time>
</trkpt>
<trkpt lat="46.1683630" lon="10.4752280">
	<ele>2335.60</ele>
	<time>2023-08-09T08:22:29.000Z</time>
</trkpt>
<trkpt lat="46.1683670" lon="10.4752350">
	<ele>2335.60</ele>
	<time>2023-08-09T08:22:30.000Z</time>
</trkpt>
<trkpt lat="46.1683720" lon="10.4752430">
	<ele>2335.80</ele>
	<time>2023-08-09T08:22:31.000Z</time>
</trkpt>
<trkpt lat="46.1683730" lon="10.4752520">
	<ele>2335.80</ele>
	<time>2023-08-09T08:22:32.000Z</time>
</trkpt>
<trkpt lat="46.1683710" lon="10.4752630">
	<ele>2335.80</ele>
	<time>2023-08-09T08:22:33.000Z</time>
</trkpt>
<trkpt lat="46.1683710" lon="10.4752700">
	<ele>2335.80</ele>
	<time>2023-08-09T08:22:34.000Z</time>
</trkpt>
<trkpt lat="46.1683660" lon="10.4752780">
	<ele>2336.00</ele>
	<time>2023-08-09T08:22:35.000Z</time>
</trkpt>
<trkpt lat="46.1683620" lon="10.4752850">
	<ele>2336.00</ele>
	<time>2023-08-09T08:22:36.000Z</time>
</trkpt>
<trkpt lat="46.1683590" lon="10.4752890">
	<ele>2336.00</ele>
	<time>2023-08-09T08:22:37.000Z</time>
</trkpt>
<trkpt lat="46.1683570" lon="10.4752960">
	<ele>2336.40</ele>
	<time>2023-08-09T08:22:38.000Z</time>
</trkpt>
<trkpt lat="46.1683580" lon="10.4753030">
	<ele>2336.40</ele>
	<time>2023-08-09T08:22:39.000Z</time>
</trkpt>
<trkpt lat="46.1683630" lon="10.4753090">
	<ele>2336.60</ele>
	<time>2023-08-09T08:22:40.000Z</time>
</trkpt>
<trkpt lat="46.1683640" lon="10.4753150">
	<ele>2336.80</ele>
	<time>2023-08-09T08:22:41.000Z</time>
</trkpt>
<trkpt lat="46.1683640" lon="10.4753200">
	<ele>2337.00</ele>
	<time>2023-08-09T08:22:42.000Z</time>
</trkpt>
<trkpt lat="46.1683630" lon="10.4753230">
	<ele>2337.20</ele>
	<time>2023-08-09T08:22:43.000Z</time>
</trkpt>
<trkpt lat="46.1683620" lon="10.4753250">
	<ele>2337.40</ele>
	<time>2023-08-09T08:22:44.000Z</time>
</trkpt>
<trkpt lat="46.1683620" lon="10.4753260">
	<ele>2337.40</ele>
	<time>2023-08-09T08:22:45.000Z</time>
</trkpt>
<trkpt lat="46.1683630" lon="10.4753310">
	<ele>2337.60</ele>
	<time>2023-08-09T08:22:46.000Z</time>
</trkpt>
<trkpt lat="46.1683630" lon="10.4753360">
	<ele>2337.80</ele>
	<time>2023-08-09T08:22:47.000Z</time>
</trkpt>
<trkpt lat="46.1683630" lon="10.4753390">
	<ele>2337.80</ele>
	<time>2023-08-09T08:22:48.000Z</time>
</trkpt>
<trkpt lat="46.1683650" lon="10.4753420">
	<ele>2338.00</ele>
	<time>2023-08-09T08:22:49.000Z</time>
</trkpt>
<trkpt lat="46.1683660" lon="10.4753450">
	<ele>2338.00</ele>
	<time>2023-08-09T08:22:50.000Z</time>
</trkpt>
<trkpt lat="46.1683700" lon="10.4753500">
	<ele>2338.00</ele>
	<time>2023-08-09T08:22:51.000Z</time>
</trkpt>
<trkpt lat="46.1683740" lon="10.4753580">
	<ele>2338.20</ele>
	<time>2023-08-09T08:22:52.000Z</time>
</trkpt>
<trkpt lat="46.1683770" lon="10.4753680">
	<ele>2338.20</ele>
	<time>2023-08-09T08:22:53.000Z</time>
</trkpt>
<trkpt lat="46.1683760" lon="10.4753780">
	<ele>2338.40</ele>
	<time>2023-08-09T08:22:54.000Z</time>
</trkpt>
<trkpt lat="46.1683740" lon="10.4753860">
	<ele>2338.60</ele>
	<time>2023-08-09T08:22:55.000Z</time>
</trkpt>
<trkpt lat="46.1683720" lon="10.4753920">
	<ele>2339.00</ele>
	<time>2023-08-09T08:22:56.000Z</time>
</trkpt>
<trkpt lat="46.1683720" lon="10.4753960">
	<ele>2339.20</ele>
	<time>2023-08-09T08:22:57.000Z</time>
</trkpt>
<trkpt lat="46.1683690" lon="10.4753980">
	<ele>2339.20</ele>
	<time>2023-08-09T08:22:58.000Z</time>
</trkpt>
<trkpt lat="46.1683650" lon="10.4754030">
	<ele>2339.40</ele>
	<time>2023-08-09T08:22:59.000Z</time>
</trkpt>
<trkpt lat="46.1683600" lon="10.4754100">
	<ele>2339.40</ele>
	<time>2023-08-09T08:23:00.000Z</time>
</trkpt>
<trkpt lat="46.1683600" lon="10.4754140">
	<ele>2339.60</ele>
	<time>2023-08-09T08:23:01.000Z</time>
</trkpt>
<trkpt lat="46.1683620" lon="10.4754170">
	<ele>2339.60</ele>
	<time>2023-08-09T08:23:02.000Z</time>
</trkpt>
<trkpt lat="46.1683650" lon="10.4754200">
	<ele>2339.80</ele>
	<time>2023-08-09T08:23:03.000Z</time>
</trkpt>
<trkpt lat="46.1683680" lon="10.4754230">
	<ele>2339.80</ele>
	<time>2023-08-09T08:23:04.000Z</time>
</trkpt>
<trkpt lat="46.1683710" lon="10.4754260">
	<ele>2340.00</ele>
	<time>2023-08-09T08:23:05.000Z</time>
</trkpt>
<trkpt lat="46.1683730" lon="10.4754300">
	<ele>2340.20</ele>
	<time>2023-08-09T08:23:06.000Z</time>
</trkpt>
<trkpt lat="46.1683700" lon="10.4754390">
	<ele>2340.20</ele>
	<time>2023-08-09T08:23:07.000Z</time>
</trkpt>
<trkpt lat="46.1683710" lon="10.4754470">
	<ele>2340.40</ele>
	<time>2023-08-09T08:23:08.000Z</time>
</trkpt>
<trkpt lat="46.1683730" lon="10.4754520">
	<ele>2340.60</ele>
	<time>2023-08-09T08:23:09.000Z</time>
</trkpt>
<trkpt lat="46.1683780" lon="10.4754520">
	<ele>2340.80</ele>
	<time>2023-08-09T08:23:10.000Z</time>
</trkpt>
<trkpt lat="46.1683840" lon="10.4754550">
	<ele>2341.00</ele>
	<time>2023-08-09T08:23:11.000Z</time>
</trkpt>
<trkpt lat="46.1683880" lon="10.4754610">
	<ele>2341.00</ele>
	<time>2023-08-09T08:23:12.000Z</time>
</trkpt>
<trkpt lat="46.1683910" lon="10.4754670">
	<ele>2341.00</ele>
	<time>2023-08-09T08:23:13.000Z</time>
</trkpt>
<trkpt lat="46.1683940" lon="10.4754710">
	<ele>2341.00</ele>
	<time>2023-08-09T08:23:14.000Z</time>
</trkpt>
<trkpt lat="46.1684020" lon="10.4754730">
	<ele>2341.00</ele>
	<time>2023-08-09T08:23:15.000Z</time>
</trkpt>
<trkpt lat="46.1684120" lon="10.4754770">
	<ele>2341.20</ele>
	<time>2023-08-09T08:23:16.000Z</time>
</trkpt>
<trkpt lat="46.1684200" lon="10.4754770">
	<ele>2341.20</ele>
	<time>2023-08-09T08:23:17.000Z</time>
</trkpt>
<trkpt lat="46.1684260" lon="10.4754800">
	<ele>2341.20</ele>
	<time>2023-08-09T08:23:18.000Z</time>
</trkpt>
<trkpt lat="46.1684270" lon="10.4754870">
	<ele>2341.40</ele>
	<time>2023-08-09T08:23:19.000Z</time>
</trkpt>
<trkpt lat="46.1684280" lon="10.4754940">
	<ele>2341.40</ele>
	<time>2023-08-09T08:23:20.000Z</time>
</trkpt>
<trkpt lat="46.1684310" lon="10.4755030">
	<ele>2341.60</ele>
	<time>2023-08-09T08:23:21.000Z</time>
</trkpt>
<trkpt lat="46.1684330" lon="10.4755120">
	<ele>2341.60</ele>
	<time>2023-08-09T08:23:22.000Z</time>
</trkpt>
<trkpt lat="46.1684360" lon="10.4755190">
	<ele>2341.80</ele>
	<time>2023-08-09T08:23:23.000Z</time>
</trkpt>
<trkpt lat="46.1684380" lon="10.4755300">
	<ele>2341.80</ele>
	<time>2023-08-09T08:23:24.000Z</time>
</trkpt>
<trkpt lat="46.1684400" lon="10.4755370">
	<ele>2342.00</ele>
	<time>2023-08-09T08:23:25.000Z</time>
</trkpt>
<trkpt lat="46.1684410" lon="10.4755430">
	<ele>2342.00</ele>
	<time>2023-08-09T08:23:26.000Z</time>
</trkpt>
<trkpt lat="46.1684430" lon="10.4755470">
	<ele>2342.00</ele>
	<time>2023-08-09T08:23:27.000Z</time>
</trkpt>
<trkpt lat="46.1684450" lon="10.4755560">
	<ele>2342.20</ele>
	<time>2023-08-09T08:23:28.000Z</time>
</trkpt>
<trkpt lat="46.1684510" lon="10.4755650">
	<ele>2342.20</ele>
	<time>2023-08-09T08:23:29.000Z</time>
</trkpt>
<trkpt lat="46.1684550" lon="10.4755710">
	<ele>2342.40</ele>
	<time>2023-08-09T08:23:30.000Z</time>
</trkpt>
<trkpt lat="46.1684560" lon="10.4755740">
	<ele>2342.60</ele>
	<time>2023-08-09T08:23:31.000Z</time>
</trkpt>
<trkpt lat="46.1684600" lon="10.4755780">
	<ele>2342.60</ele>
	<time>2023-08-09T08:23:32.000Z</time>
</trkpt>
<trkpt lat="46.1684660" lon="10.4755820">
	<ele>2342.60</ele>
	<time>2023-08-09T08:23:33.000Z</time>
</trkpt>
<trkpt lat="46.1684670" lon="10.4755870">
	<ele>2342.80</ele>
	<time>2023-08-09T08:23:34.000Z</time>
</trkpt>
<trkpt lat="46.1684700" lon="10.4755910">
	<ele>2342.80</ele>
	<time>2023-08-09T08:23:35.000Z</time>
</trkpt>
<trkpt lat="46.1684740" lon="10.4755940">
	<ele>2343.00</ele>
	<time>2023-08-09T08:23:36.000Z</time>
</trkpt>
<trkpt lat="46.1684810" lon="10.4755960">
	<ele>2343.00</ele>
	<time>2023-08-09T08:23:37.000Z</time>
</trkpt>
<trkpt lat="46.1684870" lon="10.4755980">
	<ele>2343.20</ele>
	<time>2023-08-09T08:23:38.000Z</time>
</trkpt>
<trkpt lat="46.1684880" lon="10.4756010">
	<ele>2343.20</ele>
	<time>2023-08-09T08:23:39.000Z</time>
</trkpt>
<trkpt lat="46.1684890" lon="10.4756030">
	<ele>2343.40</ele>
	<time>2023-08-09T08:23:40.000Z</time>
</trkpt>
<trkpt lat="46.1684960" lon="10.4756070">
	<ele>2343.40</ele>
	<time>2023-08-09T08:23:41.000Z</time>
</trkpt>
<trkpt lat="46.1685030" lon="10.4756120">
	<ele>2343.60</ele>
	<time>2023-08-09T08:23:42.000Z</time>
</trkpt>
<trkpt lat="46.1685110" lon="10.4756150">
	<ele>2343.60</ele>
	<time>2023-08-09T08:23:43.000Z</time>
</trkpt>
<trkpt lat="46.1685210" lon="10.4756170">
	<ele>2343.80</ele>
	<time>2023-08-09T08:23:44.000Z</time>
</trkpt>
<trkpt lat="46.1685310" lon="10.4756170">
	<ele>2343.80</ele>
	<time>2023-08-09T08:23:45.000Z</time>
</trkpt>
<trkpt lat="46.1685410" lon="10.4756190">
	<ele>2343.80</ele>
	<time>2023-08-09T08:23:46.000Z</time>
</trkpt>
<trkpt lat="46.1685470" lon="10.4756200">
	<ele>2343.80</ele>
	<time>2023-08-09T08:23:47.000Z</time>
</trkpt>
<trkpt lat="46.1685510" lon="10.4756200">
	<ele>2344.00</ele>
	<time>2023-08-09T08:23:48.000Z</time>
</trkpt>
<trkpt lat="46.1685560" lon="10.4756180">
	<ele>2344.00</ele>
	<time>2023-08-09T08:23:49.000Z</time>
</trkpt>
<trkpt lat="46.1685630" lon="10.4756170">
	<ele>2344.00</ele>
	<time>2023-08-09T08:23:50.000Z</time>
</trkpt>
<trkpt lat="46.1685710" lon="10.4756180">
	<ele>2344.20</ele>
	<time>2023-08-09T08:23:51.000Z</time>
</trkpt>
<trkpt lat="46.1685730" lon="10.4756190">
	<ele>2344.20</ele>
	<time>2023-08-09T08:23:52.000Z</time>
</trkpt>
<trkpt lat="46.1685780" lon="10.4756180">
	<ele>2344.40</ele>
	<time>2023-08-09T08:23:53.000Z</time>
</trkpt>
<trkpt lat="46.1685820" lon="10.4756210">
	<ele>2344.20</ele>
	<time>2023-08-09T08:23:54.000Z</time>
</trkpt>
<trkpt lat="46.1685850" lon="10.4756170">
	<ele>2344.20</ele>
	<time>2023-08-09T08:23:55.000Z</time>
</trkpt>
<trkpt lat="46.1685850" lon="10.4756160">
	<ele>2344.20</ele>
	<time>2023-08-09T08:23:56.000Z</time>
</trkpt>
<trkpt lat="46.1685840" lon="10.4756160">
	<ele>2344.20</ele>
	<time>2023-08-09T08:23:57.000Z</time>
</trkpt>
<trkpt lat="46.1685840" lon="10.4756160">
	<ele>2344.00</ele>
	<time>2023-08-09T08:23:58.000Z</time>
</trkpt>
<trkpt lat="46.1685840" lon="10.4756180">
	<ele>2344.00</ele>
	<time>2023-08-09T08:23:59.000Z</time>
</trkpt>
<trkpt lat="46.1685840" lon="10.4756200">
	<ele>2344.00</ele>
	<time>2023-08-09T08:24:00.000Z</time>
</trkpt>
<trkpt lat="46.1685830" lon="10.4756210">
	<ele>2344.00</ele>
	<time>2023-08-09T08:24:01.000Z</time>
</trkpt>
<trkpt lat="46.1685810" lon="10.4756210">
	<ele>2344.20</ele>
	<time>2023-08-09T08:24:02.000Z</time>
</trkpt>
<trkpt lat="46.1685790" lon="10.4756210">
	<ele>2344.40</ele>
	<time>2023-08-09T08:24:03.000Z</time>
</trkpt>
<trkpt lat="46.1685790" lon="10.4756210">
	<ele>2344.60</ele>
	<time>2023-08-09T08:24:04.000Z</time>
</trkpt>
<trkpt lat="46.1685780" lon="10.4756210">
	<ele>2344.60</ele>
	<time>2023-08-09T08:24:05.000Z</time>
</trkpt>
<trkpt lat="46.1685780" lon="10.4756210">
	<ele>2344.80</ele>
	<time>2023-08-09T08:24:06.000Z</time>
</trkpt>
<trkpt lat="46.1685780" lon="10.4756210">
	<ele>2344.80</ele>
	<time>2023-08-09T08:24:07.000Z</time>
</trkpt>
<trkpt lat="46.1685780" lon="10.4756210">
	<ele>2344.80</ele>
	<time>2023-08-09T08:24:08.000Z</time>
</trkpt>
<trkpt lat="46.1685780" lon="10.4756210">
	<ele>2344.60</ele>
	<time>2023-08-09T08:24:09.000Z</time>
</trkpt>
<trkpt lat="46.1685780" lon="10.4756210">
	<ele>2344.40</ele>
	<time>2023-08-09T08:24:10.000Z</time>
</trkpt>
<trkpt lat="46.1685780" lon="10.4756210">
	<ele>2344.20</ele>
	<time>2023-08-09T08:24:11.000Z</time>
</trkpt>
<trkpt lat="46.1685780" lon="10.4756210">
	<ele>2344.20</ele>
	<time>2023-08-09T08:24:12.000Z</time>
</trkpt>
<trkpt lat="46.1685780" lon="10.4756210">
	<ele>2344.00</ele>
	<time>2023-08-09T08:24:13.000Z</time>
</trkpt>
<trkpt lat="46.1685780" lon="10.4756210">
	<ele>2344.00</ele>
	<time>2023-08-09T08:24:14.000Z</time>
</trkpt>
<trkpt lat="46.1685780" lon="10.4756210">
	<ele>2344.00</ele>
	<time>2023-08-09T08:24:15.000Z</time>
</trkpt>
<trkpt lat="46.1685780" lon="10.4756210">
	<ele>2344.00</ele>
	<time>2023-08-09T08:24:16.000Z</time>
</trkpt>
<trkpt lat="46.1685780" lon="10.4756210">
	<ele>2344.00</ele>
	<time>2023-08-09T08:24:17.000Z</time>
</trkpt>
<trkpt lat="46.1685790" lon="10.4756210">
	<ele>2344.00</ele>
	<time>2023-08-09T08:24:18.000Z</time>
</trkpt>
<trkpt lat="46.1685790" lon="10.4756210">
	<ele>2344.20</ele>
	<time>2023-08-09T08:24:19.000Z</time>
</trkpt>
<trkpt lat="46.1685790" lon="10.4756210">
	<ele>2344.20</ele>
	<time>2023-08-09T08:24:20.000Z</time>
</trkpt>
<trkpt lat="46.1685790" lon="10.4756210">
	<ele>2344.40</ele>
	<time>2023-08-09T08:24:21.000Z</time>
</trkpt>
<trkpt lat="46.1685800" lon="10.4756210">
	<ele>2344.60</ele>
	<time>2023-08-09T08:24:22.000Z</time>
</trkpt>
<trkpt lat="46.1685810" lon="10.4756210">
	<ele>2344.80</ele>
	<time>2023-08-09T08:24:23.000Z</time>
</trkpt>
<trkpt lat="46.1685810" lon="10.4756220">
	<ele>2344.80</ele>
	<time>2023-08-09T08:24:24.000Z</time>
</trkpt>
<trkpt lat="46.1685810" lon="10.4756230">
	<ele>2345.00</ele>
	<time>2023-08-09T08:24:25.000Z</time>
</trkpt>
<trkpt lat="46.1685820" lon="10.4756230">
	<ele>2345.00</ele>
	<time>2023-08-09T08:24:26.000Z</time>
</trkpt>
<trkpt lat="46.1685820" lon="10.4756240">
	<ele>2345.20</ele>
	<time>2023-08-09T08:24:27.000Z</time>
</trkpt>
<trkpt lat="46.1685820" lon="10.4756240">
	<ele>2345.40</ele>
	<time>2023-08-09T08:24:28.000Z</time>
</trkpt>
<trkpt lat="46.1685820" lon="10.4756290">
	<ele>2345.40</ele>
	<time>2023-08-09T08:24:29.000Z</time>
</trkpt>
<trkpt lat="46.1685820" lon="10.4756300">
	<ele>2345.60</ele>
	<time>2023-08-09T08:24:30.000Z</time>
</trkpt>
<trkpt lat="46.1685820" lon="10.4756310">
	<ele>2345.80</ele>
	<time>2023-08-09T08:24:31.000Z</time>
</trkpt>
<trkpt lat="46.1685830" lon="10.4756350">
	<ele>2346.00</ele>
	<time>2023-08-09T08:24:32.000Z</time>
</trkpt>
<trkpt lat="46.1685840" lon="10.4756400">
	<ele>2346.20</ele>
	<time>2023-08-09T08:24:33.000Z</time>
</trkpt>
<trkpt lat="46.1685880" lon="10.4756440">
	<ele>2346.40</ele>
	<time>2023-08-09T08:24:34.000Z</time>
</trkpt>
<trkpt lat="46.1685890" lon="10.4756490">
	<ele>2346.40</ele>
	<time>2023-08-09T08:24:35.000Z</time>
</trkpt>
<trkpt lat="46.1685900" lon="10.4756560">
	<ele>2346.40</ele>
	<time>2023-08-09T08:24:36.000Z</time>
</trkpt>
<trkpt lat="46.1685910" lon="10.4756640">
	<ele>2346.60</ele>
	<time>2023-08-09T08:24:37.000Z</time>
</trkpt>
<trkpt lat="46.1685930" lon="10.4756680">
	<ele>2346.60</ele>
	<time>2023-08-09T08:24:38.000Z</time>
</trkpt>
<trkpt lat="46.1685930" lon="10.4756730">
	<ele>2346.60</ele>
	<time>2023-08-09T08:24:39.000Z</time>
</trkpt>
<trkpt lat="46.1686000" lon="10.4756770">
	<ele>2346.80</ele>
	<time>2023-08-09T08:24:40.000Z</time>
</trkpt>
<trkpt lat="46.1686050" lon="10.4756830">
	<ele>2346.80</ele>
	<time>2023-08-09T08:24:41.000Z</time>
</trkpt>
<trkpt lat="46.1686090" lon="10.4756860">
	<ele>2347.00</ele>
	<time>2023-08-09T08:24:42.000Z</time>
</trkpt>
<trkpt lat="46.1686140" lon="10.4756940">
	<ele>2347.20</ele>
	<time>2023-08-09T08:24:43.000Z</time>
</trkpt>
<trkpt lat="46.1686220" lon="10.4757050">
	<ele>2347.20</ele>
	<time>2023-08-09T08:24:44.000Z</time>
</trkpt>
<trkpt lat="46.1686300" lon="10.4757170">
	<ele>2347.40</ele>
	<time>2023-08-09T08:24:45.000Z</time>
</trkpt>
<trkpt lat="46.1686310" lon="10.4757290">
	<ele>2347.60</ele>
	<time>2023-08-09T08:24:46.000Z</time>
</trkpt>
<trkpt lat="46.1686350" lon="10.4757440">
	<ele>2348.00</ele>
	<time>2023-08-09T08:24:47.000Z</time>
</trkpt>
<trkpt lat="46.1686410" lon="10.4757580">
	<ele>2348.20</ele>
	<time>2023-08-09T08:24:48.000Z</time>
</trkpt>
<trkpt lat="46.1686450" lon="10.4757710">
	<ele>2348.40</ele>
	<time>2023-08-09T08:24:49.000Z</time>
</trkpt>
<trkpt lat="46.1686480" lon="10.4757800">
	<ele>2348.60</ele>
	<time>2023-08-09T08:24:50.000Z</time>
</trkpt>
<trkpt lat="46.1686510" lon="10.4757900">
	<ele>2348.80</ele>
	<time>2023-08-09T08:24:51.000Z</time>
</trkpt>
<trkpt lat="46.1686550" lon="10.4758060">
	<ele>2349.00</ele>
	<time>2023-08-09T08:24:52.000Z</time>
</trkpt>
<trkpt lat="46.1686580" lon="10.4758140">
	<ele>2349.00</ele>
	<time>2023-08-09T08:24:53.000Z</time>
</trkpt>
<trkpt lat="46.1686640" lon="10.4758230">
	<ele>2349.40</ele>
	<time>2023-08-09T08:24:54.000Z</time>
</trkpt>
<trkpt lat="46.1686670" lon="10.4758280">
	<ele>2349.80</ele>
	<time>2023-08-09T08:24:55.000Z</time>
</trkpt>
<trkpt lat="46.1686670" lon="10.4758310">
	<ele>2349.80</ele>
	<time>2023-08-09T08:24:56.000Z</time>
</trkpt>
<trkpt lat="46.1686650" lon="10.4758370">
	<ele>2350.00</ele>
	<time>2023-08-09T08:24:57.000Z</time>
</trkpt>
<trkpt lat="46.1686650" lon="10.4758420">
	<ele>2350.20</ele>
	<time>2023-08-09T08:24:58.000Z</time>
</trkpt>
<trkpt lat="46.1686660" lon="10.4758460">
	<ele>2350.40</ele>
	<time>2023-08-09T08:24:59.000Z</time>
</trkpt>
<trkpt lat="46.1686680" lon="10.4758500">
	<ele>2350.60</ele>
	<time>2023-08-09T08:25:00.000Z</time>
</trkpt>
<trkpt lat="46.1686700" lon="10.4758530">
	<ele>2350.60</ele>
	<time>2023-08-09T08:25:01.000Z</time>
</trkpt>
<trkpt lat="46.1686720" lon="10.4758560">
	<ele>2350.80</ele>
	<time>2023-08-09T08:25:02.000Z</time>
</trkpt>
<trkpt lat="46.1686740" lon="10.4758590">
	<ele>2350.80</ele>
	<time>2023-08-09T08:25:03.000Z</time>
</trkpt>
<trkpt lat="46.1686790" lon="10.4758620">
	<ele>2351.00</ele>
	<time>2023-08-09T08:25:04.000Z</time>
</trkpt>
<trkpt lat="46.1686790" lon="10.4758650">
	<ele>2351.00</ele>
	<time>2023-08-09T08:25:05.000Z</time>
</trkpt>
<trkpt lat="46.1686790" lon="10.4758670">
	<ele>2351.00</ele>
	<time>2023-08-09T08:25:06.000Z</time>
</trkpt>
<trkpt lat="46.1686790" lon="10.4758720">
	<ele>2351.20</ele>
	<time>2023-08-09T08:25:07.000Z</time>
</trkpt>
<trkpt lat="46.1686810" lon="10.4758740">
	<ele>2351.40</ele>
	<time>2023-08-09T08:25:08.000Z</time>
</trkpt>
<trkpt lat="46.1686810" lon="10.4758760">
	<ele>2351.60</ele>
	<time>2023-08-09T08:25:09.000Z</time>
</trkpt>
<trkpt lat="46.1686810" lon="10.4758780">
	<ele>2351.60</ele>
	<time>2023-08-09T08:25:10.000Z</time>
</trkpt>
<trkpt lat="46.1686830" lon="10.4758760">
	<ele>2351.80</ele>
	<time>2023-08-09T08:25:11.000Z</time>
</trkpt>
<trkpt lat="46.1686820" lon="10.4758750">
	<ele>2351.80</ele>
	<time>2023-08-09T08:25:12.000Z</time>
</trkpt>
<trkpt lat="46.1686820" lon="10.4758750">
	<ele>2351.80</ele>
	<time>2023-08-09T08:25:13.000Z</time>
</trkpt>
<trkpt lat="46.1686820" lon="10.4758750">
	<ele>2352.00</ele>
	<time>2023-08-09T08:25:14.000Z</time>
</trkpt>
<trkpt lat="46.1686820" lon="10.4758750">
	<ele>2352.00</ele>
	<time>2023-08-09T08:25:15.000Z</time>
</trkpt>
<trkpt lat="46.1686820" lon="10.4758750">
	<ele>2352.00</ele>
	<time>2023-08-09T08:25:16.000Z</time>
</trkpt>
<trkpt lat="46.1686820" lon="10.4758750">
	<ele>2352.00</ele>
	<time>2023-08-09T08:25:17.000Z</time>
</trkpt>
<trkpt lat="46.1686820" lon="10.4758750">
	<ele>2352.20</ele>
	<time>2023-08-09T08:25:18.000Z</time>
</trkpt>
<trkpt lat="46.1686820" lon="10.4758750">
	<ele>2352.20</ele>
	<time>2023-08-09T08:25:19.000Z</time>
</trkpt>
<trkpt lat="46.1686820" lon="10.4758750">
	<ele>2352.40</ele>
	<time>2023-08-09T08:25:20.000Z</time>
</trkpt>
<trkpt lat="46.1686820" lon="10.4758750">
	<ele>2352.40</ele>
	<time>2023-08-09T08:25:21.000Z</time>
</trkpt>
<trkpt lat="46.1686820" lon="10.4758750">
	<ele>2352.60</ele>
	<time>2023-08-09T08:25:22.000Z</time>
</trkpt>
<trkpt lat="46.1686820" lon="10.4758750">
	<ele>2352.80</ele>
	<time>2023-08-09T08:25:23.000Z</time>
</trkpt>
<trkpt lat="46.1686820" lon="10.4758750">
	<ele>2353.00</ele>
	<time>2023-08-09T08:25:24.000Z</time>
</trkpt>
<trkpt lat="46.1686820" lon="10.4758750">
	<ele>2353.00</ele>
	<time>2023-08-09T08:25:25.000Z</time>
</trkpt>
<trkpt lat="46.1686890" lon="10.4758770">
	<ele>2353.20</ele>
	<time>2023-08-09T08:25:26.000Z</time>
</trkpt>
<trkpt lat="46.1687030" lon="10.4758800">
	<ele>2353.20</ele>
	<time>2023-08-09T08:25:27.000Z</time>
</trkpt>
<trkpt lat="46.1687150" lon="10.4758860">
	<ele>2353.20</ele>
	<time>2023-08-09T08:25:28.000Z</time>
</trkpt>
<trkpt lat="46.1687260" lon="10.4758910">
	<ele>2353.20</ele>
	<time>2023-08-09T08:25:29.000Z</time>
</trkpt>
<trkpt lat="46.1687390" lon="10.4758930">
	<ele>2353.40</ele>
	<time>2023-08-09T08:25:30.000Z</time>
</trkpt>
<trkpt lat="46.1687570" lon="10.4759000">
	<ele>2353.60</ele>
	<time>2023-08-09T08:25:31.000Z</time>
</trkpt>
<trkpt lat="46.1687730" lon="10.4759060">
	<ele>2353.80</ele>
	<time>2023-08-09T08:25:32.000Z</time>
</trkpt>
<trkpt lat="46.1687860" lon="10.4759100">
	<ele>2353.80</ele>
	<time>2023-08-09T08:25:33.000Z</time>
</trkpt>
<trkpt lat="46.1687970" lon="10.4759130">
	<ele>2353.80</ele>
	<time>2023-08-09T08:25:34.000Z</time>
</trkpt>
<trkpt lat="46.1688060" lon="10.4759200">
	<ele>2353.80</ele>
	<time>2023-08-09T08:25:35.000Z</time>
</trkpt>
<trkpt lat="46.1688100" lon="10.4759260">
	<ele>2354.00</ele>
	<time>2023-08-09T08:25:36.000Z</time>
</trkpt>
<trkpt lat="46.1688150" lon="10.4759260">
	<ele>2354.20</ele>
	<time>2023-08-09T08:25:37.000Z</time>
</trkpt>
<trkpt lat="46.1688200" lon="10.4759260">
	<ele>2354.20</ele>
	<time>2023-08-09T08:25:38.000Z</time>
</trkpt>
<trkpt lat="46.1688250" lon="10.4759270">
	<ele>2354.40</ele>
	<time>2023-08-09T08:25:39.000Z</time>
</trkpt>
<trkpt lat="46.1688290" lon="10.4759270">
	<ele>2354.40</ele>
	<time>2023-08-09T08:25:40.000Z</time>
</trkpt>
<trkpt lat="46.1688310" lon="10.4759270">
	<ele>2354.40</ele>
	<time>2023-08-09T08:25:41.000Z</time>
</trkpt>
<trkpt lat="46.1688340" lon="10.4759280">
	<ele>2354.60</ele>
	<time>2023-08-09T08:25:42.000Z</time>
</trkpt>
<trkpt lat="46.1688370" lon="10.4759340">
	<ele>2354.60</ele>
	<time>2023-08-09T08:25:43.000Z</time>
</trkpt>
<trkpt lat="46.1688400" lon="10.4759360">
	<ele>2354.60</ele>
	<time>2023-08-09T08:25:44.000Z</time>
</trkpt>
<trkpt lat="46.1688430" lon="10.4759380">
	<ele>2354.60</ele>
	<time>2023-08-09T08:25:45.000Z</time>
</trkpt>
<trkpt lat="46.1688440" lon="10.4759370">
	<ele>2354.80</ele>
	<time>2023-08-09T08:25:46.000Z</time>
</trkpt>
<trkpt lat="46.1688460" lon="10.4759400">
	<ele>2355.00</ele>
	<time>2023-08-09T08:25:47.000Z</time>
</trkpt>
<trkpt lat="46.1688470" lon="10.4759400">
	<ele>2355.20</ele>
	<time>2023-08-09T08:25:48.000Z</time>
</trkpt>
<trkpt lat="46.1688490" lon="10.4759430">
	<ele>2355.40</ele>
	<time>2023-08-09T08:25:49.000Z</time>
</trkpt>
<trkpt lat="46.1688500" lon="10.4759490">
	<ele>2355.40</ele>
	<time>2023-08-09T08:25:50.000Z</time>
</trkpt>
<trkpt lat="46.1688510" lon="10.4759550">
	<ele>2355.60</ele>
	<time>2023-08-09T08:25:51.000Z</time>
</trkpt>
<trkpt lat="46.1688510" lon="10.4759590">
	<ele>2355.80</ele>
	<time>2023-08-09T08:25:52.000Z</time>
</trkpt>
<trkpt lat="46.1688520" lon="10.4759630">
	<ele>2356.00</ele>
	<time>2023-08-09T08:25:53.000Z</time>
</trkpt>
<trkpt lat="46.1688530" lon="10.4759650">
	<ele>2356.00</ele>
	<time>2023-08-09T08:25:54.000Z</time>
</trkpt>
<trkpt lat="46.1688510" lon="10.4759690">
	<ele>2356.20</ele>
	<time>2023-08-09T08:25:55.000Z</time>
</trkpt>
<trkpt lat="46.1688490" lon="10.4759730">
	<ele>2356.20</ele>
	<time>2023-08-09T08:25:56.000Z</time>
</trkpt>
<trkpt lat="46.1688470" lon="10.4759770">
	<ele>2356.40</ele>
	<time>2023-08-09T08:25:57.000Z</time>
</trkpt>
<trkpt lat="46.1688460" lon="10.4759780">
	<ele>2356.40</ele>
	<time>2023-08-09T08:25:58.000Z</time>
</trkpt>
<trkpt lat="46.1688470" lon="10.4759820">
	<ele>2356.60</ele>
	<time>2023-08-09T08:25:59.000Z</time>
</trkpt>
<trkpt lat="46.1688480" lon="10.4759840">
	<ele>2356.80</ele>
	<time>2023-08-09T08:26:00.000Z</time>
</trkpt>
<trkpt lat="46.1688490" lon="10.4759860">
	<ele>2357.00</ele>
	<time>2023-08-09T08:26:01.000Z</time>
</trkpt>
<trkpt lat="46.1688480" lon="10.4759870">
	<ele>2357.00</ele>
	<time>2023-08-09T08:26:02.000Z</time>
</trkpt>
<trkpt lat="46.1688480" lon="10.4759920">
	<ele>2357.20</ele>
	<time>2023-08-09T08:26:03.000Z</time>
</trkpt>
<trkpt lat="46.1688470" lon="10.4759960">
	<ele>2357.40</ele>
	<time>2023-08-09T08:26:04.000Z</time>
</trkpt>
<trkpt lat="46.1688480" lon="10.4760000">
	<ele>2357.40</ele>
	<time>2023-08-09T08:26:05.000Z</time>
</trkpt>
<trkpt lat="46.1688470" lon="10.4760020">
	<ele>2357.60</ele>
	<time>2023-08-09T08:26:06.000Z</time>
</trkpt>
<trkpt lat="46.1688480" lon="10.4760060">
	<ele>2357.60</ele>
	<time>2023-08-09T08:26:07.000Z</time>
</trkpt>
<trkpt lat="46.1688510" lon="10.4760150">
	<ele>2357.60</ele>
	<time>2023-08-09T08:26:08.000Z</time>
</trkpt>
<trkpt lat="46.1688520" lon="10.4760220">
	<ele>2357.80</ele>
	<time>2023-08-09T08:26:09.000Z</time>
</trkpt>
<trkpt lat="46.1688570" lon="10.4760290">
	<ele>2358.00</ele>
	<time>2023-08-09T08:26:10.000Z</time>
</trkpt>
<trkpt lat="46.1688570" lon="10.4760340">
	<ele>2358.20</ele>
	<time>2023-08-09T08:26:11.000Z</time>
</trkpt>
<trkpt lat="46.1688500" lon="10.4760420">
	<ele>2358.20</ele>
	<time>2023-08-09T08:26:12.000Z</time>
</trkpt>
<trkpt lat="46.1688480" lon="10.4760500">
	<ele>2358.40</ele>
	<time>2023-08-09T08:26:13.000Z</time>
</trkpt>
<trkpt lat="46.1688450" lon="10.4760560">
	<ele>2358.40</ele>
	<time>2023-08-09T08:26:14.000Z</time>
</trkpt>
<trkpt lat="46.1688430" lon="10.4760610">
	<ele>2358.60</ele>
	<time>2023-08-09T08:26:15.000Z</time>
</trkpt>
<trkpt lat="46.1688380" lon="10.4760650">
	<ele>2358.80</ele>
	<time>2023-08-09T08:26:16.000Z</time>
</trkpt>
<trkpt lat="46.1688330" lon="10.4760680">
	<ele>2359.00</ele>
	<time>2023-08-09T08:26:17.000Z</time>
</trkpt>
<trkpt lat="46.1688300" lon="10.4760710">
	<ele>2359.00</ele>
	<time>2023-08-09T08:26:18.000Z</time>
</trkpt>
<trkpt lat="46.1688250" lon="10.4760750">
	<ele>2359.00</ele>
	<time>2023-08-09T08:26:19.000Z</time>
</trkpt>
<trkpt lat="46.1688220" lon="10.4760770">
	<ele>2359.00</ele>
	<time>2023-08-09T08:26:20.000Z</time>
</trkpt>
<trkpt lat="46.1688210" lon="10.4760770">
	<ele>2359.20</ele>
	<time>2023-08-09T08:26:21.000Z</time>
</trkpt>
<trkpt lat="46.1688200" lon="10.4760750">
	<ele>2359.20</ele>
	<time>2023-08-09T08:26:22.000Z</time>
</trkpt>
<trkpt lat="46.1688190" lon="10.4760730">
	<ele>2359.40</ele>
	<time>2023-08-09T08:26:23.000Z</time>
</trkpt>
<trkpt lat="46.1688190" lon="10.4760720">
	<ele>2359.40</ele>
	<time>2023-08-09T08:26:24.000Z</time>
</trkpt>
<trkpt lat="46.1688180" lon="10.4760720">
	<ele>2359.40</ele>
	<time>2023-08-09T08:26:25.000Z</time>
</trkpt>
<trkpt lat="46.1688180" lon="10.4760720">
	<ele>2359.40</ele>
	<time>2023-08-09T08:26:26.000Z</time>
</trkpt>
<trkpt lat="46.1688180" lon="10.4760720">
	<ele>2359.40</ele>
	<time>2023-08-09T08:26:27.000Z</time>
</trkpt>
<trkpt lat="46.1688180" lon="10.4760720">
	<ele>2359.40</ele>
	<time>2023-08-09T08:26:28.000Z</time>
</trkpt>
<trkpt lat="46.1688180" lon="10.4760720">
	<ele>2359.40</ele>
	<time>2023-08-09T08:26:29.000Z</time>
</trkpt>
<trkpt lat="46.1688180" lon="10.4760720">
	<ele>2359.40</ele>
	<time>2023-08-09T08:26:30.000Z</time>
</trkpt>
<trkpt lat="46.1688180" lon="10.4760720">
	<ele>2359.20</ele>
	<time>2023-08-09T08:26:31.000Z</time>
</trkpt>
<trkpt lat="46.1688180" lon="10.4760720">
	<ele>2359.20</ele>
	<time>2023-08-09T08:26:32.000Z</time>
</trkpt>
<trkpt lat="46.1688180" lon="10.4760720">
	<ele>2359.20</ele>
	<time>2023-08-09T08:26:33.000Z</time>
</trkpt>
<trkpt lat="46.1688180" lon="10.4760720">
	<ele>2359.20</ele>
	<time>2023-08-09T08:26:34.000Z</time>
</trkpt>
<trkpt lat="46.1688180" lon="10.4760720">
	<ele>2359.20</ele>
	<time>2023-08-09T08:26:35.000Z</time>
</trkpt>
<trkpt lat="46.1688190" lon="10.4760720">
	<ele>2359.20</ele>
	<time>2023-08-09T08:26:36.000Z</time>
</trkpt>
<trkpt lat="46.1688190" lon="10.4760730">
	<ele>2359.20</ele>
	<time>2023-08-09T08:26:37.000Z</time>
</trkpt>
<trkpt lat="46.1688190" lon="10.4760730">
	<ele>2359.20</ele>
	<time>2023-08-09T08:26:38.000Z</time>
</trkpt>
<trkpt lat="46.1688190" lon="10.4760750">
	<ele>2359.20</ele>
	<time>2023-08-09T08:26:39.000Z</time>
</trkpt>
<trkpt lat="46.1688200" lon="10.4760750">
	<ele>2359.20</ele>
	<time>2023-08-09T08:26:40.000Z</time>
</trkpt>
<trkpt lat="46.1688200" lon="10.4760760">
	<ele>2359.40</ele>
	<time>2023-08-09T08:26:41.000Z</time>
</trkpt>
<trkpt lat="46.1688210" lon="10.4760770">
	<ele>2359.20</ele>
	<time>2023-08-09T08:26:42.000Z</time>
</trkpt>
<trkpt lat="46.1688210" lon="10.4760770">
	<ele>2359.20</ele>
	<time>2023-08-09T08:26:43.000Z</time>
</trkpt>
<trkpt lat="46.1688210" lon="10.4760780">
	<ele>2359.20</ele>
	<time>2023-08-09T08:26:44.000Z</time>
</trkpt>
<trkpt lat="46.1688210" lon="10.4760790">
	<ele>2359.20</ele>
	<time>2023-08-09T08:26:45.000Z</time>
</trkpt>
<trkpt lat="46.1688220" lon="10.4760790">
	<ele>2359.20</ele>
	<time>2023-08-09T08:26:46.000Z</time>
</trkpt>
<trkpt lat="46.1688230" lon="10.4760800">
	<ele>2359.20</ele>
	<time>2023-08-09T08:26:47.000Z</time>
</trkpt>
<trkpt lat="46.1688230" lon="10.4760810">
	<ele>2359.20</ele>
	<time>2023-08-09T08:26:48.000Z</time>
</trkpt>
<trkpt lat="46.1688230" lon="10.4760820">
	<ele>2359.20</ele>
	<time>2023-08-09T08:26:49.000Z</time>
</trkpt>
<trkpt lat="46.1688260" lon="10.4760840">
	<ele>2359.20</ele>
	<time>2023-08-09T08:26:50.000Z</time>
</trkpt>
<trkpt lat="46.1688270" lon="10.4760840">
	<ele>2359.20</ele>
	<time>2023-08-09T08:26:51.000Z</time>
</trkpt>
<trkpt lat="46.1688280" lon="10.4760860">
	<ele>2359.20</ele>
	<time>2023-08-09T08:26:52.000Z</time>
</trkpt>
<trkpt lat="46.1688310" lon="10.4760920">
	<ele>2359.20</ele>
	<time>2023-08-09T08:26:53.000Z</time>
</trkpt>
<trkpt lat="46.1688340" lon="10.4760950">
	<ele>2359.20</ele>
	<time>2023-08-09T08:26:54.000Z</time>
</trkpt>
<trkpt lat="46.1688360" lon="10.4760970">
	<ele>2359.20</ele>
	<time>2023-08-09T08:26:55.000Z</time>
</trkpt>
<trkpt lat="46.1688370" lon="10.4760990">
	<ele>2359.20</ele>
	<time>2023-08-09T08:26:56.000Z</time>
</trkpt>
<trkpt lat="46.1688370" lon="10.4761000">
	<ele>2359.20</ele>
	<time>2023-08-09T08:26:57.000Z</time>
</trkpt>
<trkpt lat="46.1688370" lon="10.4761000">
	<ele>2359.20</ele>
	<time>2023-08-09T08:26:58.000Z</time>
</trkpt>
<trkpt lat="46.1688370" lon="10.4761020">
	<ele>2359.20</ele>
	<time>2023-08-09T08:26:59.000Z</time>
</trkpt>
<trkpt lat="46.1688370" lon="10.4761040">
	<ele>2359.00</ele>
	<time>2023-08-09T08:27:00.000Z</time>
</trkpt>
<trkpt lat="46.1688370" lon="10.4761040">
	<ele>2359.00</ele>
	<time>2023-08-09T08:27:01.000Z</time>
</trkpt>
<trkpt lat="46.1688370" lon="10.4761070">
	<ele>2359.00</ele>
	<time>2023-08-09T08:27:02.000Z</time>
</trkpt>
<trkpt lat="46.1688370" lon="10.4761100">
	<ele>2359.00</ele>
	<time>2023-08-09T08:27:03.000Z</time>
</trkpt>
<trkpt lat="46.1688370" lon="10.4761140">
	<ele>2359.00</ele>
	<time>2023-08-09T08:27:04.000Z</time>
</trkpt>
<trkpt lat="46.1688370" lon="10.4761200">
	<ele>2359.20</ele>
	<time>2023-08-09T08:27:05.000Z</time>
</trkpt>
<trkpt lat="46.1688370" lon="10.4761260">
	<ele>2359.20</ele>
	<time>2023-08-09T08:27:06.000Z</time>
</trkpt>
<trkpt lat="46.1688370" lon="10.4761320">
	<ele>2359.40</ele>
	<time>2023-08-09T08:27:07.000Z</time>
</trkpt>
<trkpt lat="46.1688370" lon="10.4761410">
	<ele>2359.40</ele>
	<time>2023-08-09T08:27:08.000Z</time>
</trkpt>
<trkpt lat="46.1688370" lon="10.4761490">
	<ele>2359.40</ele>
	<time>2023-08-09T08:27:09.000Z</time>
</trkpt>
<trkpt lat="46.1688350" lon="10.4761540">
	<ele>2359.40</ele>
	<time>2023-08-09T08:27:10.000Z</time>
</trkpt>
<trkpt lat="46.1688310" lon="10.4761600">
	<ele>2359.40</ele>
	<time>2023-08-09T08:27:11.000Z</time>
</trkpt>
<trkpt lat="46.1688260" lon="10.4761640">
	<ele>2359.40</ele>
	<time>2023-08-09T08:27:12.000Z</time>
</trkpt>
<trkpt lat="46.1688210" lon="10.4761680">
	<ele>2359.20</ele>
	<time>2023-08-09T08:27:13.000Z</time>
</trkpt>
<trkpt lat="46.1688170" lon="10.4761740">
	<ele>2359.20</ele>
	<time>2023-08-09T08:27:14.000Z</time>
</trkpt>
<trkpt lat="46.1688100" lon="10.4761770">
	<ele>2359.20</ele>
	<time>2023-08-09T08:27:15.000Z</time>
</trkpt>
<trkpt lat="46.1688060" lon="10.4761790">
	<ele>2359.00</ele>
	<time>2023-08-09T08:27:16.000Z</time>
</trkpt>
<trkpt lat="46.1688020" lon="10.4761790">
	<ele>2359.00</ele>
	<time>2023-08-09T08:27:17.000Z</time>
</trkpt>
<trkpt lat="46.1687950" lon="10.4761790">
	<ele>2358.80</ele>
	<time>2023-08-09T08:27:18.000Z</time>
</trkpt>
<trkpt lat="46.1687930" lon="10.4761790">
	<ele>2358.80</ele>
	<time>2023-08-09T08:27:19.000Z</time>
</trkpt>
<trkpt lat="46.1687920" lon="10.4761790">
	<ele>2358.80</ele>
	<time>2023-08-09T08:27:20.000Z</time>
</trkpt>
<trkpt lat="46.1687910" lon="10.4761800">
	<ele>2358.80</ele>
	<time>2023-08-09T08:27:21.000Z</time>
</trkpt>
<trkpt lat="46.1687910" lon="10.4761800">
	<ele>2359.00</ele>
	<time>2023-08-09T08:27:22.000Z</time>
</trkpt>
<trkpt lat="46.1687900" lon="10.4761800">
	<ele>2359.00</ele>
	<time>2023-08-09T08:27:23.000Z</time>
</trkpt>
<trkpt lat="46.1687890" lon="10.4761800">
	<ele>2359.20</ele>
	<time>2023-08-09T08:27:24.000Z</time>
</trkpt>
<trkpt lat="46.1687890" lon="10.4761810">
	<ele>2359.20</ele>
	<time>2023-08-09T08:27:25.000Z</time>
</trkpt>
<trkpt lat="46.1687880" lon="10.4761810">
	<ele>2359.20</ele>
	<time>2023-08-09T08:27:26.000Z</time>
</trkpt>
<trkpt lat="46.1687880" lon="10.4761810">
	<ele>2359.20</ele>
	<time>2023-08-09T08:27:27.000Z</time>
</trkpt>
<trkpt lat="46.1687880" lon="10.4761820">
	<ele>2359.20</ele>
	<time>2023-08-09T08:27:28.000Z</time>
</trkpt>
<trkpt lat="46.1687870" lon="10.4761820">
	<ele>2359.20</ele>
	<time>2023-08-09T08:27:29.000Z</time>
</trkpt>
<trkpt lat="46.1687870" lon="10.4761820">
	<ele>2359.20</ele>
	<time>2023-08-09T08:27:30.000Z</time>
</trkpt>
<trkpt lat="46.1687850" lon="10.4761830">
	<ele>2359.20</ele>
	<time>2023-08-09T08:27:31.000Z</time>
</trkpt>
<trkpt lat="46.1687840" lon="10.4761830">
	<ele>2359.20</ele>
	<time>2023-08-09T08:27:32.000Z</time>
</trkpt>
<trkpt lat="46.1687830" lon="10.4761830">
	<ele>2359.20</ele>
	<time>2023-08-09T08:27:33.000Z</time>
</trkpt>
<trkpt lat="46.1687830" lon="10.4761830">
	<ele>2359.20</ele>
	<time>2023-08-09T08:27:34.000Z</time>
</trkpt>
<trkpt lat="46.1687820" lon="10.4761830">
	<ele>2359.20</ele>
	<time>2023-08-09T08:27:35.000Z</time>
</trkpt>
<trkpt lat="46.1687820" lon="10.4761830">
	<ele>2359.20</ele>
	<time>2023-08-09T08:27:36.000Z</time>
</trkpt>
<trkpt lat="46.1687820" lon="10.4761830">
	<ele>2359.20</ele>
	<time>2023-08-09T08:27:37.000Z</time>
</trkpt>
<trkpt lat="46.1687820" lon="10.4761830">
	<ele>2359.20</ele>
	<time>2023-08-09T08:27:38.000Z</time>
</trkpt>
<trkpt lat="46.1687820" lon="10.4761830">
	<ele>2359.20</ele>
	<time>2023-08-09T08:27:39.000Z</time>
</trkpt>
<trkpt lat="46.1687810" lon="10.4761830">
	<ele>2359.20</ele>
	<time>2023-08-09T08:27:40.000Z</time>
</trkpt>
<trkpt lat="46.1687800" lon="10.4761830">
	<ele>2359.20</ele>
	<time>2023-08-09T08:27:41.000Z</time>
</trkpt>
<trkpt lat="46.1687780" lon="10.4761830">
	<ele>2359.20</ele>
	<time>2023-08-09T08:27:42.000Z</time>
</trkpt>
<trkpt lat="46.1687770" lon="10.4761830">
	<ele>2359.00</ele>
	<time>2023-08-09T08:27:43.000Z</time>
</trkpt>
<trkpt lat="46.1687770" lon="10.4761830">
	<ele>2359.00</ele>
	<time>2023-08-09T08:27:44.000Z</time>
</trkpt>
<trkpt lat="46.1687760" lon="10.4761830">
	<ele>2359.00</ele>
	<time>2023-08-09T08:27:45.000Z</time>
</trkpt>
<trkpt lat="46.1687760" lon="10.4761830">
	<ele>2359.00</ele>
	<time>2023-08-09T08:27:46.000Z</time>
</trkpt>
<trkpt lat="46.1687750" lon="10.4761830">
	<ele>2359.00</ele>
	<time>2023-08-09T08:27:47.000Z</time>
</trkpt>
<trkpt lat="46.1687750" lon="10.4761830">
	<ele>2358.80</ele>
	<time>2023-08-09T08:27:48.000Z</time>
</trkpt>
<trkpt lat="46.1687740" lon="10.4761830">
	<ele>2358.80</ele>
	<time>2023-08-09T08:27:49.000Z</time>
</trkpt>
<trkpt lat="46.1687740" lon="10.4761830">
	<ele>2358.80</ele>
	<time>2023-08-09T08:27:50.000Z</time>
</trkpt>
<trkpt lat="46.1687740" lon="10.4761830">
	<ele>2358.80</ele>
	<time>2023-08-09T08:27:51.000Z</time>
</trkpt>
<trkpt lat="46.1687740" lon="10.4761840">
	<ele>2358.80</ele>
	<time>2023-08-09T08:27:52.000Z</time>
</trkpt>
<trkpt lat="46.1687740" lon="10.4761840">
	<ele>2358.80</ele>
	<time>2023-08-09T08:27:53.000Z</time>
</trkpt>
<trkpt lat="46.1687740" lon="10.4761840">
	<ele>2358.80</ele>
	<time>2023-08-09T08:27:54.000Z</time>
</trkpt>
<trkpt lat="46.1687740" lon="10.4761840">
	<ele>2358.80</ele>
	<time>2023-08-09T08:27:55.000Z</time>
</trkpt>
<trkpt lat="46.1687740" lon="10.4761840">
	<ele>2358.80</ele>
	<time>2023-08-09T08:27:56.000Z</time>
</trkpt>
<trkpt lat="46.1687740" lon="10.4761850">
	<ele>2358.80</ele>
	<time>2023-08-09T08:27:57.000Z</time>
</trkpt>
<trkpt lat="46.1687740" lon="10.4761850">
	<ele>2358.80</ele>
	<time>2023-08-09T08:27:58.000Z</time>
</trkpt>
<trkpt lat="46.1687740" lon="10.4761850">
	<ele>2358.80</ele>
	<time>2023-08-09T08:27:59.000Z</time>
</trkpt>
<trkpt lat="46.1687740" lon="10.4761850">
	<ele>2358.80</ele>
	<time>2023-08-09T08:28:00.000Z</time>
</trkpt>
<trkpt lat="46.1687740" lon="10.4761850">
	<ele>2358.80</ele>
	<time>2023-08-09T08:28:01.000Z</time>
</trkpt>
<trkpt lat="46.1687740" lon="10.4761850">
	<ele>2358.80</ele>
	<time>2023-08-09T08:28:02.000Z</time>
</trkpt>
<trkpt lat="46.1687750" lon="10.4761850">
	<ele>2358.80</ele>
	<time>2023-08-09T08:28:03.000Z</time>
</trkpt>
<trkpt lat="46.1687790" lon="10.4761850">
	<ele>2358.80</ele>
	<time>2023-08-09T08:28:04.000Z</time>
</trkpt>
<trkpt lat="46.1687820" lon="10.4761860">
	<ele>2358.80</ele>
	<time>2023-08-09T08:28:05.000Z</time>
</trkpt>
<trkpt lat="46.1687840" lon="10.4761860">
	<ele>2359.00</ele>
	<time>2023-08-09T08:28:06.000Z</time>
</trkpt>
<trkpt lat="46.1687850" lon="10.4761860">
	<ele>2359.00</ele>
	<time>2023-08-09T08:28:07.000Z</time>
</trkpt>
<trkpt lat="46.1687860" lon="10.4761870">
	<ele>2359.20</ele>
	<time>2023-08-09T08:28:08.000Z</time>
</trkpt>
<trkpt lat="46.1687860" lon="10.4761870">
	<ele>2359.20</ele>
	<time>2023-08-09T08:28:09.000Z</time>
</trkpt>
<trkpt lat="46.1687860" lon="10.4761870">
	<ele>2359.20</ele>
	<time>2023-08-09T08:28:10.000Z</time>
</trkpt>
<trkpt lat="46.1687870" lon="10.4761880">
	<ele>2359.60</ele>
	<time>2023-08-09T08:28:11.000Z</time>
</trkpt>
<trkpt lat="46.1687870" lon="10.4761880">
	<ele>2359.60</ele>
	<time>2023-08-09T08:28:12.000Z</time>
</trkpt>
<trkpt lat="46.1687870" lon="10.4761890">
	<ele>2359.60</ele>
	<time>2023-08-09T08:28:13.000Z</time>
</trkpt>
<trkpt lat="46.1687870" lon="10.4761890">
	<ele>2359.60</ele>
	<time>2023-08-09T08:28:14.000Z</time>
</trkpt>
<trkpt lat="46.1687890" lon="10.4761890">
	<ele>2359.60</ele>
	<time>2023-08-09T08:28:15.000Z</time>
</trkpt>
<trkpt lat="46.1687960" lon="10.4761950">
	<ele>2359.60</ele>
	<time>2023-08-09T08:28:16.000Z</time>
</trkpt>
<trkpt lat="46.1688040" lon="10.4762010">
	<ele>2359.60</ele>
	<time>2023-08-09T08:28:17.000Z</time>
</trkpt>
<trkpt lat="46.1688140" lon="10.4762130">
	<ele>2359.60</ele>
	<time>2023-08-09T08:28:18.000Z</time>
</trkpt>
<trkpt lat="46.1688250" lon="10.4762250">
	<ele>2359.60</ele>
	<time>2023-08-09T08:28:19.000Z</time>
</trkpt>
<trkpt lat="46.1688290" lon="10.4762390">
	<ele>2359.60</ele>
	<time>2023-08-09T08:28:20.000Z</time>
</trkpt>
<trkpt lat="46.1688340" lon="10.4762510">
	<ele>2359.60</ele>
	<time>2023-08-09T08:28:21.000Z</time>
</trkpt>
<trkpt lat="46.1688400" lon="10.4762610">
	<ele>2359.60</ele>
	<time>2023-08-09T08:28:22.000Z</time>
</trkpt>
<trkpt lat="46.1688430" lon="10.4762700">
	<ele>2359.60</ele>
	<time>2023-08-09T08:28:23.000Z</time>
</trkpt>
<trkpt lat="46.1688510" lon="10.4762880">
	<ele>2359.60</ele>
	<time>2023-08-09T08:28:24.000Z</time>
</trkpt>
<trkpt lat="46.1688550" lon="10.4762990">
	<ele>2359.60</ele>
	<time>2023-08-09T08:28:25.000Z</time>
</trkpt>
<trkpt lat="46.1688540" lon="10.4763060">
	<ele>2359.60</ele>
	<time>2023-08-09T08:28:26.000Z</time>
</trkpt>
<trkpt lat="46.1688530" lon="10.4763130">
	<ele>2359.60</ele>
	<time>2023-08-09T08:28:27.000Z</time>
</trkpt>
<trkpt lat="46.1688530" lon="10.4763200">
	<ele>2359.60</ele>
	<time>2023-08-09T08:28:28.000Z</time>
</trkpt>
<trkpt lat="46.1688520" lon="10.4763240">
	<ele>2359.60</ele>
	<time>2023-08-09T08:28:29.000Z</time>
</trkpt>
<trkpt lat="46.1688520" lon="10.4763300">
	<ele>2359.60</ele>
	<time>2023-08-09T08:28:30.000Z</time>
</trkpt>
<trkpt lat="46.1688500" lon="10.4763340">
	<ele>2359.60</ele>
	<time>2023-08-09T08:28:31.000Z</time>
</trkpt>
<trkpt lat="46.1688480" lon="10.4763440">
	<ele>2359.60</ele>
	<time>2023-08-09T08:28:32.000Z</time>
</trkpt>
<trkpt lat="46.1688420" lon="10.4763490">
	<ele>2359.60</ele>
	<time>2023-08-09T08:28:33.000Z</time>
</trkpt>
<trkpt lat="46.1688380" lon="10.4763530">
	<ele>2359.60</ele>
	<time>2023-08-09T08:28:34.000Z</time>
</trkpt>
<trkpt lat="46.1688350" lon="10.4763570">
	<ele>2359.60</ele>
	<time>2023-08-09T08:28:35.000Z</time>
</trkpt>
<trkpt lat="46.1688310" lon="10.4763630">
	<ele>2359.60</ele>
	<time>2023-08-09T08:28:36.000Z</time>
</trkpt>
<trkpt lat="46.1688290" lon="10.4763660">
	<ele>2359.60</ele>
	<time>2023-08-09T08:28:37.000Z</time>
</trkpt>
<trkpt lat="46.1688260" lon="10.4763720">
	<ele>2359.60</ele>
	<time>2023-08-09T08:28:38.000Z</time>
</trkpt>
<trkpt lat="46.1688240" lon="10.4763780">
	<ele>2359.60</ele>
	<time>2023-08-09T08:28:39.000Z</time>
</trkpt>
<trkpt lat="46.1688230" lon="10.4763840">
	<ele>2359.60</ele>
	<time>2023-08-09T08:28:40.000Z</time>
</trkpt>
<trkpt lat="46.1688170" lon="10.4763920">
	<ele>2359.60</ele>
	<time>2023-08-09T08:28:41.000Z</time>
</trkpt>
<trkpt lat="46.1688160" lon="10.4764010">
	<ele>2359.60</ele>
	<time>2023-08-09T08:28:42.000Z</time>
</trkpt>
<trkpt lat="46.1688130" lon="10.4764070">
	<ele>2359.60</ele>
	<time>2023-08-09T08:28:43.000Z</time>
</trkpt>
<trkpt lat="46.1688120" lon="10.4764170">
	<ele>2359.60</ele>
	<time>2023-08-09T08:28:44.000Z</time>
</trkpt>
<trkpt lat="46.1688110" lon="10.4764280">
	<ele>2359.60</ele>
	<time>2023-08-09T08:28:45.000Z</time>
</trkpt>
<trkpt lat="46.1688100" lon="10.4764380">
	<ele>2359.60</ele>
	<time>2023-08-09T08:28:46.000Z</time>
</trkpt>
<trkpt lat="46.1688120" lon="10.4764440">
	<ele>2359.60</ele>
	<time>2023-08-09T08:28:47.000Z</time>
</trkpt>
<trkpt lat="46.1688110" lon="10.4764520">
	<ele>2359.60</ele>
	<time>2023-08-09T08:28:48.000Z</time>
</trkpt>
<trkpt lat="46.1688110" lon="10.4764600">
	<ele>2359.60</ele>
	<time>2023-08-09T08:28:49.000Z</time>
</trkpt>
<trkpt lat="46.1688100" lon="10.4764650">
	<ele>2359.60</ele>
	<time>2023-08-09T08:28:50.000Z</time>
</trkpt>
<trkpt lat="46.1688080" lon="10.4764700">
	<ele>2359.60</ele>
	<time>2023-08-09T08:28:51.000Z</time>
</trkpt>
<trkpt lat="46.1688070" lon="10.4764750">
	<ele>2359.60</ele>
	<time>2023-08-09T08:28:52.000Z</time>
</trkpt>
<trkpt lat="46.1688040" lon="10.4764840">
	<ele>2359.60</ele>
	<time>2023-08-09T08:28:53.000Z</time>
</trkpt>
<trkpt lat="46.1688000" lon="10.4764910">
	<ele>2359.60</ele>
	<time>2023-08-09T08:28:54.000Z</time>
</trkpt>
<trkpt lat="46.1687980" lon="10.4764980">
	<ele>2359.60</ele>
	<time>2023-08-09T08:28:55.000Z</time>
</trkpt>
<trkpt lat="46.1687960" lon="10.4765010">
	<ele>2359.60</ele>
	<time>2023-08-09T08:28:56.000Z</time>
</trkpt>
<trkpt lat="46.1687970" lon="10.4765060">
	<ele>2359.60</ele>
	<time>2023-08-09T08:28:57.000Z</time>
</trkpt>
<trkpt lat="46.1688000" lon="10.4765100">
	<ele>2359.60</ele>
	<time>2023-08-09T08:28:58.000Z</time>
</trkpt>
<trkpt lat="46.1688010" lon="10.4765120">
	<ele>2359.60</ele>
	<time>2023-08-09T08:28:59.000Z</time>
</trkpt>
<trkpt lat="46.1688010" lon="10.4765090">
	<ele>2359.60</ele>
	<time>2023-08-09T08:29:00.000Z</time>
</trkpt>
<trkpt lat="46.1687990" lon="10.4765010">
	<ele>2359.60</ele>
	<time>2023-08-09T08:29:01.000Z</time>
</trkpt>
<trkpt lat="46.1688030" lon="10.4764940">
	<ele>2359.60</ele>
	<time>2023-08-09T08:29:02.000Z</time>
</trkpt>
<trkpt lat="46.1688060" lon="10.4764900">
	<ele>2359.60</ele>
	<time>2023-08-09T08:29:03.000Z</time>
</trkpt>
<trkpt lat="46.1688060" lon="10.4764870">
	<ele>2359.60</ele>
	<time>2023-08-09T08:29:04.000Z</time>
</trkpt>
<trkpt lat="46.1688110" lon="10.4764870">
	<ele>2359.60</ele>
	<time>2023-08-09T08:29:05.000Z</time>
</trkpt>
<trkpt lat="46.1688170" lon="10.4764850">
	<ele>2359.60</ele>
	<time>2023-08-09T08:29:06.000Z</time>
</trkpt>
<trkpt lat="46.1688210" lon="10.4764830">
	<ele>2359.60</ele>
	<time>2023-08-09T08:29:07.000Z</time>
</trkpt>
<trkpt lat="46.1688250" lon="10.4764820">
	<ele>2359.60</ele>
	<time>2023-08-09T08:29:08.000Z</time>
</trkpt>
<trkpt lat="46.1688290" lon="10.4764790">
	<ele>2359.60</ele>
	<time>2023-08-09T08:29:09.000Z</time>
</trkpt>
<trkpt lat="46.1688370" lon="10.4764740">
	<ele>2359.60</ele>
	<time>2023-08-09T08:29:10.000Z</time>
</trkpt>
<trkpt lat="46.1688440" lon="10.4764720">
	<ele>2359.60</ele>
	<time>2023-08-09T08:29:11.000Z</time>
</trkpt>
<trkpt lat="46.1688480" lon="10.4764690">
	<ele>2367.60</ele>
	<time>2023-08-09T08:29:12.000Z</time>
</trkpt>
<trkpt lat="46.1688520" lon="10.4764610">
	<ele>2367.60</ele>
	<time>2023-08-09T08:29:13.000Z</time>
</trkpt>
<trkpt lat="46.1688570" lon="10.4764540">
	<ele>2367.60</ele>
	<time>2023-08-09T08:29:14.000Z</time>
</trkpt>
<trkpt lat="46.1688610" lon="10.4764470">
	<ele>2367.60</ele>
	<time>2023-08-09T08:29:15.000Z</time>
</trkpt>
<trkpt lat="46.1688660" lon="10.4764450">
	<ele>2367.60</ele>
	<time>2023-08-09T08:29:16.000Z</time>
</trkpt>
<trkpt lat="46.1688730" lon="10.4764450">
	<ele>2367.60</ele>
	<time>2023-08-09T08:29:17.000Z</time>
</trkpt>
<trkpt lat="46.1688800" lon="10.4764390">
	<ele>2367.60</ele>
	<time>2023-08-09T08:29:18.000Z</time>
</trkpt>
<trkpt lat="46.1688870" lon="10.4764320">
	<ele>2367.60</ele>
	<time>2023-08-09T08:29:19.000Z</time>
</trkpt>
<trkpt lat="46.1688900" lon="10.4764280">
	<ele>2367.60</ele>
	<time>2023-08-09T08:29:20.000Z</time>
</trkpt>
<trkpt lat="46.1688980" lon="10.4764230">
	<ele>2367.60</ele>
	<time>2023-08-09T08:29:21.000Z</time>
</trkpt>
<trkpt lat="46.1689040" lon="10.4764180">
	<ele>2367.60</ele>
	<time>2023-08-09T08:29:22.000Z</time>
</trkpt>
<trkpt lat="46.1689090" lon="10.4764160">
	<ele>2367.60</ele>
	<time>2023-08-09T08:29:23.000Z</time>
</trkpt>
<trkpt lat="46.1689130" lon="10.4764150">
	<ele>2367.60</ele>
	<time>2023-08-09T08:29:24.000Z</time>
</trkpt>
<trkpt lat="46.1689160" lon="10.4764150">
	<ele>2367.80</ele>
	<time>2023-08-09T08:29:25.000Z</time>
</trkpt>
<trkpt lat="46.1689220" lon="10.4764150">
	<ele>2368.00</ele>
	<time>2023-08-09T08:29:26.000Z</time>
</trkpt>
<trkpt lat="46.1689290" lon="10.4764160">
	<ele>2368.20</ele>
	<time>2023-08-09T08:29:27.000Z</time>
</trkpt>
<trkpt lat="46.1689330" lon="10.4764170">
	<ele>2368.20</ele>
	<time>2023-08-09T08:29:28.000Z</time>
</trkpt>
<trkpt lat="46.1689360" lon="10.4764150">
	<ele>2368.20</ele>
	<time>2023-08-09T08:29:29.000Z</time>
</trkpt>
<trkpt lat="46.1689460" lon="10.4764140">
	<ele>2368.20</ele>
	<time>2023-08-09T08:29:30.000Z</time>
</trkpt>
<trkpt lat="46.1689530" lon="10.4764120">
	<ele>2368.40</ele>
	<time>2023-08-09T08:29:31.000Z</time>
</trkpt>
<trkpt lat="46.1689560" lon="10.4764110">
	<ele>2368.40</ele>
	<time>2023-08-09T08:29:32.000Z</time>
</trkpt>
<trkpt lat="46.1689590" lon="10.4764110">
	<ele>2368.40</ele>
	<time>2023-08-09T08:29:33.000Z</time>
</trkpt>
<trkpt lat="46.1689620" lon="10.4764160">
	<ele>2368.60</ele>
	<time>2023-08-09T08:29:34.000Z</time>
</trkpt>
<trkpt lat="46.1689640" lon="10.4764210">
	<ele>2368.60</ele>
	<time>2023-08-09T08:29:35.000Z</time>
</trkpt>
<trkpt lat="46.1689650" lon="10.4764220">
	<ele>2368.80</ele>
	<time>2023-08-09T08:29:36.000Z</time>
</trkpt>
<trkpt lat="46.1689640" lon="10.4764220">
	<ele>2369.00</ele>
	<time>2023-08-09T08:29:37.000Z</time>
</trkpt>
<trkpt lat="46.1689660" lon="10.4764230">
	<ele>2369.20</ele>
	<time>2023-08-09T08:29:38.000Z</time>
</trkpt>
<trkpt lat="46.1689690" lon="10.4764240">
	<ele>2369.20</ele>
	<time>2023-08-09T08:29:39.000Z</time>
</trkpt>
<trkpt lat="46.1689710" lon="10.4764190">
	<ele>2369.40</ele>
	<time>2023-08-09T08:29:40.000Z</time>
</trkpt>
<trkpt lat="46.1689740" lon="10.4764170">
	<ele>2369.40</ele>
	<time>2023-08-09T08:29:41.000Z</time>
</trkpt>
<trkpt lat="46.1689780" lon="10.4764100">
	<ele>2369.40</ele>
	<time>2023-08-09T08:29:42.000Z</time>
</trkpt>
<trkpt lat="46.1689820" lon="10.4764100">
	<ele>2369.60</ele>
	<time>2023-08-09T08:29:43.000Z</time>
</trkpt>
<trkpt lat="46.1689840" lon="10.4764110">
	<ele>2369.80</ele>
	<time>2023-08-09T08:29:44.000Z</time>
</trkpt>
<trkpt lat="46.1689900" lon="10.4764110">
	<ele>2369.80</ele>
	<time>2023-08-09T08:29:45.000Z</time>
</trkpt>
<trkpt lat="46.1689940" lon="10.4764140">
	<ele>2369.80</ele>
	<time>2023-08-09T08:29:46.000Z</time>
</trkpt>
<trkpt lat="46.1689970" lon="10.4764160">
	<ele>2370.00</ele>
	<time>2023-08-09T08:29:47.000Z</time>
</trkpt>
<trkpt lat="46.1690010" lon="10.4764160">
	<ele>2370.20</ele>
	<time>2023-08-09T08:29:48.000Z</time>
</trkpt>
<trkpt lat="46.1690050" lon="10.4764190">
	<ele>2370.40</ele>
	<time>2023-08-09T08:29:49.000Z</time>
</trkpt>
<trkpt lat="46.1690080" lon="10.4764230">
	<ele>2370.60</ele>
	<time>2023-08-09T08:29:50.000Z</time>
</trkpt>
<trkpt lat="46.1690110" lon="10.4764250">
	<ele>2370.80</ele>
	<time>2023-08-09T08:29:51.000Z</time>
</trkpt>
<trkpt lat="46.1690160" lon="10.4764260">
	<ele>2371.00</ele>
	<time>2023-08-09T08:29:52.000Z</time>
</trkpt>
<trkpt lat="46.1690190" lon="10.4764290">
	<ele>2371.00</ele>
	<time>2023-08-09T08:29:53.000Z</time>
</trkpt>
<trkpt lat="46.1690210" lon="10.4764340">
	<ele>2371.20</ele>
	<time>2023-08-09T08:29:54.000Z</time>
</trkpt>
<trkpt lat="46.1690240" lon="10.4764400">
	<ele>2371.40</ele>
	<time>2023-08-09T08:29:55.000Z</time>
</trkpt>
<trkpt lat="46.1690210" lon="10.4764460">
	<ele>2371.40</ele>
	<time>2023-08-09T08:29:56.000Z</time>
</trkpt>
<trkpt lat="46.1690170" lon="10.4764500">
	<ele>2371.60</ele>
	<time>2023-08-09T08:29:57.000Z</time>
</trkpt>
<trkpt lat="46.1690120" lon="10.4764530">
	<ele>2371.80</ele>
	<time>2023-08-09T08:29:58.000Z</time>
</trkpt>
<trkpt lat="46.1690060" lon="10.4764560">
	<ele>2372.00</ele>
	<time>2023-08-09T08:29:59.000Z</time>
</trkpt>
<trkpt lat="46.1690030" lon="10.4764590">
	<ele>2372.20</ele>
	<time>2023-08-09T08:30:00.000Z</time>
</trkpt>
<trkpt lat="46.1690010" lon="10.4764620">
	<ele>2372.20</ele>
	<time>2023-08-09T08:30:01.000Z</time>
</trkpt>
<trkpt lat="46.1689970" lon="10.4764650">
	<ele>2372.40</ele>
	<time>2023-08-09T08:30:02.000Z</time>
</trkpt>
<trkpt lat="46.1689940" lon="10.4764680">
	<ele>2372.40</ele>
	<time>2023-08-09T08:30:03.000Z</time>
</trkpt>
<trkpt lat="46.1689910" lon="10.4764690">
	<ele>2372.60</ele>
	<time>2023-08-09T08:30:04.000Z</time>
</trkpt>
<trkpt lat="46.1689900" lon="10.4764710">
	<ele>2372.60</ele>
	<time>2023-08-09T08:30:05.000Z</time>
</trkpt>
<trkpt lat="46.1689870" lon="10.4764730">
	<ele>2372.80</ele>
	<time>2023-08-09T08:30:06.000Z</time>
</trkpt>
<trkpt lat="46.1689870" lon="10.4764770">
	<ele>2373.00</ele>
	<time>2023-08-09T08:30:07.000Z</time>
</trkpt>
<trkpt lat="46.1689940" lon="10.4764830">
	<ele>2373.20</ele>
	<time>2023-08-09T08:30:08.000Z</time>
</trkpt>
<trkpt lat="46.1689980" lon="10.4764860">
	<ele>2373.20</ele>
	<time>2023-08-09T08:30:09.000Z</time>
</trkpt>
<trkpt lat="46.1690010" lon="10.4764870">
	<ele>2373.40</ele>
	<time>2023-08-09T08:30:10.000Z</time>
</trkpt>
<trkpt lat="46.1690080" lon="10.4764880">
	<ele>2373.40</ele>
	<time>2023-08-09T08:30:11.000Z</time>
</trkpt>
<trkpt lat="46.1690160" lon="10.4764880">
	<ele>2373.40</ele>
	<time>2023-08-09T08:30:12.000Z</time>
</trkpt>
<trkpt lat="46.1690200" lon="10.4764880">
	<ele>2373.40</ele>
	<time>2023-08-09T08:30:13.000Z</time>
</trkpt>
<trkpt lat="46.1690200" lon="10.4764870">
	<ele>2373.40</ele>
	<time>2023-08-09T08:30:14.000Z</time>
</trkpt>
<trkpt lat="46.1690190" lon="10.4764860">
	<ele>2373.40</ele>
	<time>2023-08-09T08:30:15.000Z</time>
</trkpt>
<trkpt lat="46.1690190" lon="10.4764860">
	<ele>2373.40</ele>
	<time>2023-08-09T08:30:16.000Z</time>
</trkpt>
<trkpt lat="46.1690170" lon="10.4764850">
	<ele>2373.60</ele>
	<time>2023-08-09T08:30:17.000Z</time>
</trkpt>
<trkpt lat="46.1690160" lon="10.4764840">
	<ele>2373.60</ele>
	<time>2023-08-09T08:30:18.000Z</time>
</trkpt>
<trkpt lat="46.1690150" lon="10.4764840">
	<ele>2373.60</ele>
	<time>2023-08-09T08:30:19.000Z</time>
</trkpt>
<trkpt lat="46.1690140" lon="10.4764840">
	<ele>2373.60</ele>
	<time>2023-08-09T08:30:20.000Z</time>
</trkpt>
<trkpt lat="46.1690140" lon="10.4764840">
	<ele>2373.60</ele>
	<time>2023-08-09T08:30:21.000Z</time>
</trkpt>
<trkpt lat="46.1690140" lon="10.4764840">
	<ele>2373.60</ele>
	<time>2023-08-09T08:30:22.000Z</time>
</trkpt>
<trkpt lat="46.1690140" lon="10.4764840">
	<ele>2373.60</ele>
	<time>2023-08-09T08:30:23.000Z</time>
</trkpt>
<trkpt lat="46.1690140" lon="10.4764840">
	<ele>2373.60</ele>
	<time>2023-08-09T08:30:24.000Z</time>
</trkpt>
<trkpt lat="46.1690140" lon="10.4764840">
	<ele>2373.60</ele>
	<time>2023-08-09T08:30:25.000Z</time>
</trkpt>
<trkpt lat="46.1690140" lon="10.4764840">
	<ele>2373.60</ele>
	<time>2023-08-09T08:30:26.000Z</time>
</trkpt>
<trkpt lat="46.1690140" lon="10.4764840">
	<ele>2373.60</ele>
	<time>2023-08-09T08:30:27.000Z</time>
</trkpt>
<trkpt lat="46.1690140" lon="10.4764840">
	<ele>2373.60</ele>
	<time>2023-08-09T08:30:28.000Z</time>
</trkpt>
<trkpt lat="46.1690140" lon="10.4764840">
	<ele>2373.60</ele>
	<time>2023-08-09T08:30:29.000Z</time>
</trkpt>
<trkpt lat="46.1690140" lon="10.4764840">
	<ele>2373.60</ele>
	<time>2023-08-09T08:30:30.000Z</time>
</trkpt>
<trkpt lat="46.1690140" lon="10.4764840">
	<ele>2373.60</ele>
	<time>2023-08-09T08:30:31.000Z</time>
</trkpt>
<trkpt lat="46.1690140" lon="10.4764840">
	<ele>2373.60</ele>
	<time>2023-08-09T08:30:32.000Z</time>
</trkpt>
<trkpt lat="46.1690140" lon="10.4764840">
	<ele>2373.40</ele>
	<time>2023-08-09T08:30:33.000Z</time>
</trkpt>
<trkpt lat="46.1690140" lon="10.4764840">
	<ele>2373.40</ele>
	<time>2023-08-09T08:30:34.000Z</time>
</trkpt>
<trkpt lat="46.1690140" lon="10.4764840">
	<ele>2373.40</ele>
	<time>2023-08-09T08:30:35.000Z</time>
</trkpt>
<trkpt lat="46.1690140" lon="10.4764840">
	<ele>2373.40</ele>
	<time>2023-08-09T08:30:36.000Z</time>
</trkpt>
<trkpt lat="46.1690140" lon="10.4764840">
	<ele>2373.40</ele>
	<time>2023-08-09T08:30:37.000Z</time>
</trkpt>
<trkpt lat="46.1690140" lon="10.4764840">
	<ele>2373.40</ele>
	<time>2023-08-09T08:30:38.000Z</time>
</trkpt>
<trkpt lat="46.1690130" lon="10.4764840">
	<ele>2373.20</ele>
	<time>2023-08-09T08:30:39.000Z</time>
</trkpt>
<trkpt lat="46.1690130" lon="10.4764830">
	<ele>2373.20</ele>
	<time>2023-08-09T08:30:40.000Z</time>
</trkpt>
<trkpt lat="46.1690110" lon="10.4764830">
	<ele>2373.20</ele>
	<time>2023-08-09T08:30:41.000Z</time>
</trkpt>
<trkpt lat="46.1690100" lon="10.4764830">
	<ele>2373.20</ele>
	<time>2023-08-09T08:30:42.000Z</time>
</trkpt>
<trkpt lat="46.1690080" lon="10.4764830">
	<ele>2373.20</ele>
	<time>2023-08-09T08:30:43.000Z</time>
</trkpt>
<trkpt lat="46.1690050" lon="10.4764830">
	<ele>2373.00</ele>
	<time>2023-08-09T08:30:44.000Z</time>
</trkpt>
<trkpt lat="46.1690040" lon="10.4764830">
	<ele>2373.20</ele>
	<time>2023-08-09T08:30:45.000Z</time>
</trkpt>
<trkpt lat="46.1690040" lon="10.4764830">
	<ele>2373.20</ele>
	<time>2023-08-09T08:30:46.000Z</time>
</trkpt>
<trkpt lat="46.1690040" lon="10.4764830">
	<ele>2373.20</ele>
	<time>2023-08-09T08:30:47.000Z</time>
</trkpt>
<trkpt lat="46.1690040" lon="10.4764830">
	<ele>2373.40</ele>
	<time>2023-08-09T08:30:48.000Z</time>
</trkpt>
<trkpt lat="46.1690040" lon="10.4764830">
	<ele>2373.40</ele>
	<time>2023-08-09T08:30:49.000Z</time>
</trkpt>
<trkpt lat="46.1690040" lon="10.4764830">
	<ele>2373.60</ele>
	<time>2023-08-09T08:30:50.000Z</time>
</trkpt>
<trkpt lat="46.1690040" lon="10.4764830">
	<ele>2373.60</ele>
	<time>2023-08-09T08:30:51.000Z</time>
</trkpt>
<trkpt lat="46.1690040" lon="10.4764830">
	<ele>2373.60</ele>
	<time>2023-08-09T08:30:52.000Z</time>
</trkpt>
<trkpt lat="46.1690040" lon="10.4764830">
	<ele>2373.80</ele>
	<time>2023-08-09T08:30:53.000Z</time>
</trkpt>
<trkpt lat="46.1690040" lon="10.4764830">
	<ele>2374.00</ele>
	<time>2023-08-09T08:30:54.000Z</time>
</trkpt>
<trkpt lat="46.1690040" lon="10.4764830">
	<ele>2374.00</ele>
	<time>2023-08-09T08:30:55.000Z</time>
</trkpt>
<trkpt lat="46.1690040" lon="10.4764830">
	<ele>2374.20</ele>
	<time>2023-08-09T08:30:56.000Z</time>
</trkpt>
<trkpt lat="46.1690040" lon="10.4764830">
	<ele>2374.20</ele>
	<time>2023-08-09T08:30:57.000Z</time>
</trkpt>
<trkpt lat="46.1690040" lon="10.4764830">
	<ele>2374.40</ele>
	<time>2023-08-09T08:30:58.000Z</time>
</trkpt>
<trkpt lat="46.1690040" lon="10.4764830">
	<ele>2374.60</ele>
	<time>2023-08-09T08:30:59.000Z</time>
</trkpt>
<trkpt lat="46.1690070" lon="10.4764830">
	<ele>2374.60</ele>
	<time>2023-08-09T08:31:00.000Z</time>
</trkpt>
<trkpt lat="46.1690120" lon="10.4764870">
	<ele>2374.80</ele>
	<time>2023-08-09T08:31:01.000Z</time>
</trkpt>
<trkpt lat="46.1690150" lon="10.4764940">
	<ele>2374.80</ele>
	<time>2023-08-09T08:31:02.000Z</time>
</trkpt>
<trkpt lat="46.1690170" lon="10.4765020">
	<ele>2375.00</ele>
	<time>2023-08-09T08:31:03.000Z</time>
</trkpt>
<trkpt lat="46.1690180" lon="10.4765110">
	<ele>2375.00</ele>
	<time>2023-08-09T08:31:04.000Z</time>
</trkpt>
<trkpt lat="46.1690180" lon="10.4765180">
	<ele>2375.00</ele>
	<time>2023-08-09T08:31:05.000Z</time>
</trkpt>
<trkpt lat="46.1690190" lon="10.4765240">
	<ele>2375.00</ele>
	<time>2023-08-09T08:31:06.000Z</time>
</trkpt>
<trkpt lat="46.1690190" lon="10.4765310">
	<ele>2375.00</ele>
	<time>2023-08-09T08:31:07.000Z</time>
</trkpt>
<trkpt lat="46.1690200" lon="10.4765360">
	<ele>2375.00</ele>
	<time>2023-08-09T08:31:08.000Z</time>
</trkpt>
<trkpt lat="46.1690250" lon="10.4765410">
	<ele>2375.00</ele>
	<time>2023-08-09T08:31:09.000Z</time>
</trkpt>
<trkpt lat="46.1690320" lon="10.4765510">
	<ele>2375.00</ele>
	<time>2023-08-09T08:31:10.000Z</time>
</trkpt>
<trkpt lat="46.1690410" lon="10.4765700">
	<ele>2375.00</ele>
	<time>2023-08-09T08:31:11.000Z</time>
</trkpt>
<trkpt lat="46.1690520" lon="10.4765900">
	<ele>2375.00</ele>
	<time>2023-08-09T08:31:12.000Z</time>
</trkpt>
<trkpt lat="46.1690630" lon="10.4766090">
	<ele>2375.20</ele>
	<time>2023-08-09T08:31:13.000Z</time>
</trkpt>
<trkpt lat="46.1690720" lon="10.4766260">
	<ele>2375.20</ele>
	<time>2023-08-09T08:31:14.000Z</time>
</trkpt>
<trkpt lat="46.1690790" lon="10.4766440">
	<ele>2375.20</ele>
	<time>2023-08-09T08:31:15.000Z</time>
</trkpt>
<trkpt lat="46.1690870" lon="10.4766620">
	<ele>2375.20</ele>
	<time>2023-08-09T08:31:16.000Z</time>
</trkpt>
<trkpt lat="46.1690970" lon="10.4766810">
	<ele>2375.20</ele>
	<time>2023-08-09T08:31:17.000Z</time>
</trkpt>
<trkpt lat="46.1691050" lon="10.4766980">
	<ele>2375.40</ele>
	<time>2023-08-09T08:31:18.000Z</time>
</trkpt>
<trkpt lat="46.1691100" lon="10.4767130">
	<ele>2375.40</ele>
	<time>2023-08-09T08:31:19.000Z</time>
</trkpt>
<trkpt lat="46.1691060" lon="10.4767170">
	<ele>2375.40</ele>
	<time>2023-08-09T08:31:20.000Z</time>
</trkpt>
<trkpt lat="46.1691040" lon="10.4767170">
	<ele>2375.60</ele>
	<time>2023-08-09T08:31:21.000Z</time>
</trkpt>
<trkpt lat="46.1691000" lon="10.4767170">
	<ele>2375.80</ele>
	<time>2023-08-09T08:31:22.000Z</time>
</trkpt>
<trkpt lat="46.1690970" lon="10.4767170">
	<ele>2376.20</ele>
	<time>2023-08-09T08:31:23.000Z</time>
</trkpt>
<trkpt lat="46.1690950" lon="10.4767180">
	<ele>2376.40</ele>
	<time>2023-08-09T08:31:24.000Z</time>
</trkpt>
<trkpt lat="46.1690960" lon="10.4767220">
	<ele>2376.40</ele>
	<time>2023-08-09T08:31:25.000Z</time>
</trkpt>
<trkpt lat="46.1690950" lon="10.4767250">
	<ele>2376.60</ele>
	<time>2023-08-09T08:31:26.000Z</time>
</trkpt>
<trkpt lat="46.1690960" lon="10.4767290">
	<ele>2376.80</ele>
	<time>2023-08-09T08:31:27.000Z</time>
</trkpt>
<trkpt lat="46.1691000" lon="10.4767380">
	<ele>2377.00</ele>
	<time>2023-08-09T08:31:28.000Z</time>
</trkpt>
<trkpt lat="46.1691000" lon="10.4767430">
	<ele>2377.00</ele>
	<time>2023-08-09T08:31:29.000Z</time>
</trkpt>
<trkpt lat="46.1691010" lon="10.4767480">
	<ele>2377.00</ele>
	<time>2023-08-09T08:31:30.000Z</time>
</trkpt>
<trkpt lat="46.1691040" lon="10.4767550">
	<ele>2377.00</ele>
	<time>2023-08-09T08:31:31.000Z</time>
</trkpt>
<trkpt lat="46.1691070" lon="10.4767580">
	<ele>2377.40</ele>
	<time>2023-08-09T08:31:32.000Z</time>
</trkpt>
<trkpt lat="46.1691090" lon="10.4767650">
	<ele>2377.60</ele>
	<time>2023-08-09T08:31:33.000Z</time>
</trkpt>
<trkpt lat="46.1691100" lon="10.4767700">
	<ele>2377.60</ele>
	<time>2023-08-09T08:31:34.000Z</time>
</trkpt>
<trkpt lat="46.1691160" lon="10.4767780">
	<ele>2377.60</ele>
	<time>2023-08-09T08:31:35.000Z</time>
</trkpt>
<trkpt lat="46.1691220" lon="10.4767820">
	<ele>2377.60</ele>
	<time>2023-08-09T08:31:36.000Z</time>
</trkpt>
<trkpt lat="46.1691240" lon="10.4767850">
	<ele>2377.40</ele>
	<time>2023-08-09T08:31:37.000Z</time>
</trkpt>
<trkpt lat="46.1691280" lon="10.4767850">
	<ele>2377.40</ele>
	<time>2023-08-09T08:31:38.000Z</time>
</trkpt>
<trkpt lat="46.1691320" lon="10.4767860">
	<ele>2377.20</ele>
	<time>2023-08-09T08:31:39.000Z</time>
</trkpt>
<trkpt lat="46.1691400" lon="10.4767930">
	<ele>2377.20</ele>
	<time>2023-08-09T08:31:40.000Z</time>
</trkpt>
<trkpt lat="46.1691490" lon="10.4768030">
	<ele>2377.20</ele>
	<time>2023-08-09T08:31:41.000Z</time>
</trkpt>
<trkpt lat="46.1691560" lon="10.4768140">
	<ele>2377.00</ele>
	<time>2023-08-09T08:31:42.000Z</time>
</trkpt>
<trkpt lat="46.1691590" lon="10.4768240">
	<ele>2377.00</ele>
	<time>2023-08-09T08:31:43.000Z</time>
</trkpt>
<trkpt lat="46.1691620" lon="10.4768360">
	<ele>2376.80</ele>
	<time>2023-08-09T08:31:44.000Z</time>
</trkpt>
<trkpt lat="46.1691630" lon="10.4768460">
	<ele>2376.80</ele>
	<time>2023-08-09T08:31:45.000Z</time>
</trkpt>
<trkpt lat="46.1691710" lon="10.4768550">
	<ele>2376.60</ele>
	<time>2023-08-09T08:31:46.000Z</time>
</trkpt>
<trkpt lat="46.1691750" lon="10.4768590">
	<ele>2376.60</ele>
	<time>2023-08-09T08:31:47.000Z</time>
</trkpt>
<trkpt lat="46.1691850" lon="10.4768590">
	<ele>2376.60</ele>
	<time>2023-08-09T08:31:48.000Z</time>
</trkpt>
<trkpt lat="46.1691950" lon="10.4768610">
	<ele>2376.40</ele>
	<time>2023-08-09T08:31:49.000Z</time>
</trkpt>
<trkpt lat="46.1692020" lon="10.4768670">
	<ele>2376.20</ele>
	<time>2023-08-09T08:31:50.000Z</time>
</trkpt>
<trkpt lat="46.1692080" lon="10.4768730">
	<ele>2376.20</ele>
	<time>2023-08-09T08:31:51.000Z</time>
</trkpt>
<trkpt lat="46.1692140" lon="10.4768800">
	<ele>2376.00</ele>
	<time>2023-08-09T08:31:52.000Z</time>
</trkpt>
<trkpt lat="46.1692150" lon="10.4768890">
	<ele>2376.00</ele>
	<time>2023-08-09T08:31:53.000Z</time>
</trkpt>
<trkpt lat="46.1692220" lon="10.4768970">
	<ele>2375.80</ele>
	<time>2023-08-09T08:31:54.000Z</time>
</trkpt>
<trkpt lat="46.1692290" lon="10.4769030">
	<ele>2375.80</ele>
	<time>2023-08-09T08:31:55.000Z</time>
</trkpt>
<trkpt lat="46.1692320" lon="10.4769080">
	<ele>2375.60</ele>
	<time>2023-08-09T08:31:56.000Z</time>
</trkpt>
<trkpt lat="46.1692340" lon="10.4769110">
	<ele>2375.40</ele>
	<time>2023-08-09T08:31:57.000Z</time>
</trkpt>
<trkpt lat="46.1692440" lon="10.4769140">
	<ele>2375.20</ele>
	<time>2023-08-09T08:31:58.000Z</time>
</trkpt>
<trkpt lat="46.1692480" lon="10.4769200">
	<ele>2375.00</ele>
	<time>2023-08-09T08:31:59.000Z</time>
</trkpt>
<trkpt lat="46.1692540" lon="10.4769280">
	<ele>2375.00</ele>
	<time>2023-08-09T08:32:00.000Z</time>
</trkpt>
<trkpt lat="46.1692610" lon="10.4769380">
	<ele>2374.80</ele>
	<time>2023-08-09T08:32:01.000Z</time>
</trkpt>
<trkpt lat="46.1692640" lon="10.4769430">
	<ele>2374.80</ele>
	<time>2023-08-09T08:32:02.000Z</time>
</trkpt>
<trkpt lat="46.1692700" lon="10.4769500">
	<ele>2374.80</ele>
	<time>2023-08-09T08:32:03.000Z</time>
</trkpt>
<trkpt lat="46.1692770" lon="10.4769550">
	<ele>2375.00</ele>
	<time>2023-08-09T08:32:04.000Z</time>
</trkpt>
<trkpt lat="46.1692810" lon="10.4769600">
	<ele>2375.00</ele>
	<time>2023-08-09T08:32:05.000Z</time>
</trkpt>
<trkpt lat="46.1692850" lon="10.4769660">
	<ele>2375.00</ele>
	<time>2023-08-09T08:32:06.000Z</time>
</trkpt>
<trkpt lat="46.1692860" lon="10.4769750">
	<ele>2375.00</ele>
	<time>2023-08-09T08:32:07.000Z</time>
</trkpt>
<trkpt lat="46.1692900" lon="10.4769830">
	<ele>2375.00</ele>
	<time>2023-08-09T08:32:08.000Z</time>
</trkpt>
<trkpt lat="46.1692940" lon="10.4769950">
	<ele>2375.00</ele>
	<time>2023-08-09T08:32:09.000Z</time>
</trkpt>
<trkpt lat="46.1692940" lon="10.4770070">
	<ele>2375.00</ele>
	<time>2023-08-09T08:32:10.000Z</time>
</trkpt>
<trkpt lat="46.1692930" lon="10.4770190">
	<ele>2375.00</ele>
	<time>2023-08-09T08:32:11.000Z</time>
</trkpt>
<trkpt lat="46.1692940" lon="10.4770280">
	<ele>2375.20</ele>
	<time>2023-08-09T08:32:12.000Z</time>
</trkpt>
<trkpt lat="46.1692970" lon="10.4770350">
	<ele>2375.40</ele>
	<time>2023-08-09T08:32:13.000Z</time>
</trkpt>
<trkpt lat="46.1693000" lon="10.4770380">
	<ele>2375.60</ele>
	<time>2023-08-09T08:32:14.000Z</time>
</trkpt>
<trkpt lat="46.1693040" lon="10.4770430">
	<ele>2375.60</ele>
	<time>2023-08-09T08:32:15.000Z</time>
</trkpt>
<trkpt lat="46.1693110" lon="10.4770480">
	<ele>2375.80</ele>
	<time>2023-08-09T08:32:16.000Z</time>
</trkpt>
<trkpt lat="46.1693150" lon="10.4770560">
	<ele>2375.80</ele>
	<time>2023-08-09T08:32:17.000Z</time>
</trkpt>
<trkpt lat="46.1693170" lon="10.4770620">
	<ele>2376.20</ele>
	<time>2023-08-09T08:32:18.000Z</time>
</trkpt>
<trkpt lat="46.1693190" lon="10.4770680">
	<ele>2376.40</ele>
	<time>2023-08-09T08:32:19.000Z</time>
</trkpt>
<trkpt lat="46.1693190" lon="10.4770760">
	<ele>2376.40</ele>
	<time>2023-08-09T08:32:20.000Z</time>
</trkpt>
<trkpt lat="46.1693200" lon="10.4770840">
	<ele>2376.40</ele>
	<time>2023-08-09T08:32:21.000Z</time>
</trkpt>
<trkpt lat="46.1693200" lon="10.4770910">
	<ele>2376.60</ele>
	<time>2023-08-09T08:32:22.000Z</time>
</trkpt>
<trkpt lat="46.1693200" lon="10.4771000">
	<ele>2376.60</ele>
	<time>2023-08-09T08:32:23.000Z</time>
</trkpt>
<trkpt lat="46.1693220" lon="10.4771080">
	<ele>2376.60</ele>
	<time>2023-08-09T08:32:24.000Z</time>
</trkpt>
<trkpt lat="46.1693260" lon="10.4771180">
	<ele>2376.60</ele>
	<time>2023-08-09T08:32:25.000Z</time>
</trkpt>
<trkpt lat="46.1693290" lon="10.4771280">
	<ele>2376.40</ele>
	<time>2023-08-09T08:32:26.000Z</time>
</trkpt>
<trkpt lat="46.1693310" lon="10.4771390">
	<ele>2376.40</ele>
	<time>2023-08-09T08:32:27.000Z</time>
</trkpt>
<trkpt lat="46.1693330" lon="10.4771470">
	<ele>2376.40</ele>
	<time>2023-08-09T08:32:28.000Z</time>
</trkpt>
<trkpt lat="46.1693340" lon="10.4771560">
	<ele>2376.40</ele>
	<time>2023-08-09T08:32:29.000Z</time>
</trkpt>
<trkpt lat="46.1693360" lon="10.4771630">
	<ele>2376.40</ele>
	<time>2023-08-09T08:32:30.000Z</time>
</trkpt>
<trkpt lat="46.1693370" lon="10.4771690">
	<ele>2376.60</ele>
	<time>2023-08-09T08:32:31.000Z</time>
</trkpt>
<trkpt lat="46.1693370" lon="10.4771760">
	<ele>2376.80</ele>
	<time>2023-08-09T08:32:32.000Z</time>
</trkpt>
<trkpt lat="46.1693370" lon="10.4771820">
	<ele>2376.80</ele>
	<time>2023-08-09T08:32:33.000Z</time>
</trkpt>
<trkpt lat="46.1693380" lon="10.4771870">
	<ele>2376.80</ele>
	<time>2023-08-09T08:32:34.000Z</time>
</trkpt>
<trkpt lat="46.1693410" lon="10.4771920">
	<ele>2376.80</ele>
	<time>2023-08-09T08:32:35.000Z</time>
</trkpt>
<trkpt lat="46.1693460" lon="10.4772000">
	<ele>2376.80</ele>
	<time>2023-08-09T08:32:36.000Z</time>
</trkpt>
<trkpt lat="46.1693520" lon="10.4772090">
	<ele>2376.80</ele>
	<time>2023-08-09T08:32:37.000Z</time>
</trkpt>
<trkpt lat="46.1693580" lon="10.4772180">
	<ele>2376.80</ele>
	<time>2023-08-09T08:32:38.000Z</time>
</trkpt>
<trkpt lat="46.1693630" lon="10.4772350">
	<ele>2376.60</ele>
	<time>2023-08-09T08:32:39.000Z</time>
</trkpt>
<trkpt lat="46.1693660" lon="10.4772510">
	<ele>2376.60</ele>
	<time>2023-08-09T08:32:40.000Z</time>
</trkpt>
<trkpt lat="46.1693670" lon="10.4772640">
	<ele>2376.60</ele>
	<time>2023-08-09T08:32:41.000Z</time>
</trkpt>
<trkpt lat="46.1693700" lon="10.4772740">
	<ele>2376.80</ele>
	<time>2023-08-09T08:32:42.000Z</time>
</trkpt>
<trkpt lat="46.1693710" lon="10.4772840">
	<ele>2376.60</ele>
	<time>2023-08-09T08:32:43.000Z</time>
</trkpt>
<trkpt lat="46.1693710" lon="10.4772970">
	<ele>2376.80</ele>
	<time>2023-08-09T08:32:44.000Z</time>
</trkpt>
<trkpt lat="46.1693700" lon="10.4773020">
	<ele>2376.80</ele>
	<time>2023-08-09T08:32:45.000Z</time>
</trkpt>
<trkpt lat="46.1693700" lon="10.4773070">
	<ele>2377.00</ele>
	<time>2023-08-09T08:32:46.000Z</time>
</trkpt>
<trkpt lat="46.1693710" lon="10.4773120">
	<ele>2377.00</ele>
	<time>2023-08-09T08:32:47.000Z</time>
</trkpt>
<trkpt lat="46.1693730" lon="10.4773220">
	<ele>2377.20</ele>
	<time>2023-08-09T08:32:48.000Z</time>
</trkpt>
<trkpt lat="46.1693740" lon="10.4773300">
	<ele>2377.40</ele>
	<time>2023-08-09T08:32:49.000Z</time>
</trkpt>
<trkpt lat="46.1693730" lon="10.4773380">
	<ele>2377.40</ele>
	<time>2023-08-09T08:32:50.000Z</time>
</trkpt>
<trkpt lat="46.1693700" lon="10.4773460">
	<ele>2377.40</ele>
	<time>2023-08-09T08:32:51.000Z</time>
</trkpt>
<trkpt lat="46.1693680" lon="10.4773540">
	<ele>2377.60</ele>
	<time>2023-08-09T08:32:52.000Z</time>
</trkpt>
<trkpt lat="46.1693680" lon="10.4773630">
	<ele>2377.80</ele>
	<time>2023-08-09T08:32:53.000Z</time>
</trkpt>
<trkpt lat="46.1693690" lon="10.4773690">
	<ele>2377.80</ele>
	<time>2023-08-09T08:32:54.000Z</time>
</trkpt>
<trkpt lat="46.1693720" lon="10.4773790">
	<ele>2378.00</ele>
	<time>2023-08-09T08:32:55.000Z</time>
</trkpt>
<trkpt lat="46.1693740" lon="10.4773870">
	<ele>2378.20</ele>
	<time>2023-08-09T08:32:56.000Z</time>
</trkpt>
<trkpt lat="46.1693800" lon="10.4773930">
	<ele>2378.20</ele>
	<time>2023-08-09T08:32:57.000Z</time>
</trkpt>
<trkpt lat="46.1693830" lon="10.4773970">
	<ele>2378.20</ele>
	<time>2023-08-09T08:32:58.000Z</time>
</trkpt>
<trkpt lat="46.1693860" lon="10.4774060">
	<ele>2378.40</ele>
	<time>2023-08-09T08:32:59.000Z</time>
</trkpt>
<trkpt lat="46.1693830" lon="10.4774150">
	<ele>2378.40</ele>
	<time>2023-08-09T08:33:00.000Z</time>
</trkpt>
<trkpt lat="46.1693830" lon="10.4774210">
	<ele>2378.40</ele>
	<time>2023-08-09T08:33:01.000Z</time>
</trkpt>
<trkpt lat="46.1693780" lon="10.4774260">
	<ele>2378.60</ele>
	<time>2023-08-09T08:33:02.000Z</time>
</trkpt>
<trkpt lat="46.1693760" lon="10.4774300">
	<ele>2378.80</ele>
	<time>2023-08-09T08:33:03.000Z</time>
</trkpt>
<trkpt lat="46.1693750" lon="10.4774340">
	<ele>2378.80</ele>
	<time>2023-08-09T08:33:04.000Z</time>
</trkpt>
<trkpt lat="46.1693740" lon="10.4774370">
	<ele>2379.00</ele>
	<time>2023-08-09T08:33:05.000Z</time>
</trkpt>
<trkpt lat="46.1693710" lon="10.4774420">
	<ele>2379.20</ele>
	<time>2023-08-09T08:33:06.000Z</time>
</trkpt>
<trkpt lat="46.1693680" lon="10.4774470">
	<ele>2379.40</ele>
	<time>2023-08-09T08:33:07.000Z</time>
</trkpt>
<trkpt lat="46.1693670" lon="10.4774510">
	<ele>2379.60</ele>
	<time>2023-08-09T08:33:08.000Z</time>
</trkpt>
<trkpt lat="46.1693650" lon="10.4774560">
	<ele>2379.80</ele>
	<time>2023-08-09T08:33:09.000Z</time>
</trkpt>
<trkpt lat="46.1693640" lon="10.4774610">
	<ele>2380.00</ele>
	<time>2023-08-09T08:33:10.000Z</time>
</trkpt>
<trkpt lat="46.1693640" lon="10.4774660">
	<ele>2380.00</ele>
	<time>2023-08-09T08:33:11.000Z</time>
</trkpt>
<trkpt lat="46.1693640" lon="10.4774750">
	<ele>2380.20</ele>
	<time>2023-08-09T08:33:12.000Z</time>
</trkpt>
<trkpt lat="46.1693660" lon="10.4774850">
	<ele>2380.20</ele>
	<time>2023-08-09T08:33:13.000Z</time>
</trkpt>
<trkpt lat="46.1693650" lon="10.4774910">
	<ele>2380.40</ele>
	<time>2023-08-09T08:33:14.000Z</time>
</trkpt>
<trkpt lat="46.1693660" lon="10.4774950">
	<ele>2380.80</ele>
	<time>2023-08-09T08:33:15.000Z</time>
</trkpt>
<trkpt lat="46.1693670" lon="10.4775020">
	<ele>2380.80</ele>
	<time>2023-08-09T08:33:16.000Z</time>
</trkpt>
<trkpt lat="46.1693680" lon="10.4775080">
	<ele>2381.00</ele>
	<time>2023-08-09T08:33:17.000Z</time>
</trkpt>
<trkpt lat="46.1693690" lon="10.4775150">
	<ele>2381.00</ele>
	<time>2023-08-09T08:33:18.000Z</time>
</trkpt>
<trkpt lat="46.1693710" lon="10.4775210">
	<ele>2381.00</ele>
	<time>2023-08-09T08:33:19.000Z</time>
</trkpt>
<trkpt lat="46.1693720" lon="10.4775270">
	<ele>2381.20</ele>
	<time>2023-08-09T08:33:20.000Z</time>
</trkpt>
<trkpt lat="46.1693760" lon="10.4775360">
	<ele>2381.40</ele>
	<time>2023-08-09T08:33:21.000Z</time>
</trkpt>
<trkpt lat="46.1693810" lon="10.4775480">
	<ele>2381.40</ele>
	<time>2023-08-09T08:33:22.000Z</time>
</trkpt>
<trkpt lat="46.1693870" lon="10.4775570">
	<ele>2381.40</ele>
	<time>2023-08-09T08:33:23.000Z</time>
</trkpt>
<trkpt lat="46.1693930" lon="10.4775620">
	<ele>2381.40</ele>
	<time>2023-08-09T08:33:24.000Z</time>
</trkpt>
<trkpt lat="46.1693950" lon="10.4775640">
	<ele>2381.60</ele>
	<time>2023-08-09T08:33:25.000Z</time>
</trkpt>
<trkpt lat="46.1693980" lon="10.4775640">
	<ele>2381.40</ele>
	<time>2023-08-09T08:33:26.000Z</time>
</trkpt>
<trkpt lat="46.1694010" lon="10.4775680">
	<ele>2381.40</ele>
	<time>2023-08-09T08:33:27.000Z</time>
</trkpt>
<trkpt lat="46.1694030" lon="10.4775700">
	<ele>2381.40</ele>
	<time>2023-08-09T08:33:28.000Z</time>
</trkpt>
<trkpt lat="46.1694040" lon="10.4775700">
	<ele>2381.40</ele>
	<time>2023-08-09T08:33:29.000Z</time>
</trkpt>
<trkpt lat="46.1694040" lon="10.4775690">
	<ele>2381.80</ele>
	<time>2023-08-09T08:33:30.000Z</time>
</trkpt>
<trkpt lat="46.1694030" lon="10.4775680">
	<ele>2382.00</ele>
	<time>2023-08-09T08:33:31.000Z</time>
</trkpt>
<trkpt lat="46.1694000" lon="10.4775690">
	<ele>2382.20</ele>
	<time>2023-08-09T08:33:32.000Z</time>
</trkpt>
<trkpt lat="46.1693980" lon="10.4775700">
	<ele>2382.20</ele>
	<time>2023-08-09T08:33:33.000Z</time>
</trkpt>
<trkpt lat="46.1693970" lon="10.4775720">
	<ele>2382.40</ele>
	<time>2023-08-09T08:33:34.000Z</time>
</trkpt>
<trkpt lat="46.1693900" lon="10.4775750">
	<ele>2382.40</ele>
	<time>2023-08-09T08:33:35.000Z</time>
</trkpt>
<trkpt lat="46.1693880" lon="10.4775740">
	<ele>2382.20</ele>
	<time>2023-08-09T08:33:36.000Z</time>
</trkpt>
<trkpt lat="46.1693870" lon="10.4775720">
	<ele>2382.20</ele>
	<time>2023-08-09T08:33:37.000Z</time>
</trkpt>
<trkpt lat="46.1693880" lon="10.4775700">
	<ele>2382.00</ele>
	<time>2023-08-09T08:33:38.000Z</time>
</trkpt>
<trkpt lat="46.1693870" lon="10.4775690">
	<ele>2382.00</ele>
	<time>2023-08-09T08:33:39.000Z</time>
</trkpt>
<trkpt lat="46.1693870" lon="10.4775690">
	<ele>2381.80</ele>
	<time>2023-08-09T08:33:40.000Z</time>
</trkpt>
<trkpt lat="46.1693870" lon="10.4775690">
	<ele>2381.80</ele>
	<time>2023-08-09T08:33:41.000Z</time>
</trkpt>
<trkpt lat="46.1693870" lon="10.4775690">
	<ele>2381.60</ele>
	<time>2023-08-09T08:33:42.000Z</time>
</trkpt>
<trkpt lat="46.1693870" lon="10.4775690">
	<ele>2381.60</ele>
	<time>2023-08-09T08:33:43.000Z</time>
</trkpt>
<trkpt lat="46.1693870" lon="10.4775690">
	<ele>2381.60</ele>
	<time>2023-08-09T08:33:44.000Z</time>
</trkpt>
<trkpt lat="46.1693870" lon="10.4775690">
	<ele>2381.60</ele>
	<time>2023-08-09T08:33:45.000Z</time>
</trkpt>
<trkpt lat="46.1693870" lon="10.4775690">
	<ele>2381.60</ele>
	<time>2023-08-09T08:33:46.000Z</time>
</trkpt>
<trkpt lat="46.1693870" lon="10.4775690">
	<ele>2381.60</ele>
	<time>2023-08-09T08:33:47.000Z</time>
</trkpt>
<trkpt lat="46.1693880" lon="10.4775690">
	<ele>2381.60</ele>
	<time>2023-08-09T08:33:48.000Z</time>
</trkpt>
<trkpt lat="46.1693880" lon="10.4775690">
	<ele>2381.60</ele>
	<time>2023-08-09T08:33:49.000Z</time>
</trkpt>
<trkpt lat="46.1693900" lon="10.4775690">
	<ele>2381.60</ele>
	<time>2023-08-09T08:33:50.000Z</time>
</trkpt>
<trkpt lat="46.1693950" lon="10.4775690">
	<ele>2381.60</ele>
	<time>2023-08-09T08:33:51.000Z</time>
</trkpt>
<trkpt lat="46.1693950" lon="10.4775690">
	<ele>2381.60</ele>
	<time>2023-08-09T08:33:52.000Z</time>
</trkpt>
<trkpt lat="46.1693950" lon="10.4775690">
	<ele>2381.60</ele>
	<time>2023-08-09T08:33:53.000Z</time>
</trkpt>
<trkpt lat="46.1693960" lon="10.4775700">
	<ele>2381.40</ele>
	<time>2023-08-09T08:33:54.000Z</time>
</trkpt>
<trkpt lat="46.1693960" lon="10.4775700">
	<ele>2381.40</ele>
	<time>2023-08-09T08:33:55.000Z</time>
</trkpt>
<trkpt lat="46.1693980" lon="10.4775800">
	<ele>2381.40</ele>
	<time>2023-08-09T08:33:56.000Z</time>
</trkpt>
<trkpt lat="46.1694080" lon="10.4775990">
	<ele>2381.40</ele>
	<time>2023-08-09T08:33:57.000Z</time>
</trkpt>
<trkpt lat="46.1694140" lon="10.4776170">
	<ele>2381.40</ele>
	<time>2023-08-09T08:33:58.000Z</time>
</trkpt>
<trkpt lat="46.1694190" lon="10.4776340">
	<ele>2381.40</ele>
	<time>2023-08-09T08:33:59.000Z</time>
</trkpt>
<trkpt lat="46.1694260" lon="10.4776490">
	<ele>2381.60</ele>
	<time>2023-08-09T08:34:00.000Z</time>
</trkpt>
<trkpt lat="46.1694350" lon="10.4776650">
	<ele>2381.60</ele>
	<time>2023-08-09T08:34:01.000Z</time>
</trkpt>
<trkpt lat="46.1694450" lon="10.4776770">
	<ele>2381.60</ele>
	<time>2023-08-09T08:34:02.000Z</time>
</trkpt>
<trkpt lat="46.1694530" lon="10.4776860">
	<ele>2381.60</ele>
	<time>2023-08-09T08:34:03.000Z</time>
</trkpt>
<trkpt lat="46.1694580" lon="10.4776960">
	<ele>2381.60</ele>
	<time>2023-08-09T08:34:04.000Z</time>
</trkpt>
<trkpt lat="46.1694680" lon="10.4777080">
	<ele>2381.60</ele>
	<time>2023-08-09T08:34:05.000Z</time>
</trkpt>
<trkpt lat="46.1694750" lon="10.4777110">
	<ele>2381.40</ele>
	<time>2023-08-09T08:34:06.000Z</time>
</trkpt>
<trkpt lat="46.1694810" lon="10.4777150">
	<ele>2381.60</ele>
	<time>2023-08-09T08:34:07.000Z</time>
</trkpt>
<trkpt lat="46.1694910" lon="10.4777200">
	<ele>2381.40</ele>
	<time>2023-08-09T08:34:08.000Z</time>
</trkpt>
<trkpt lat="46.1694960" lon="10.4777220">
	<ele>2381.20</ele>
	<time>2023-08-09T08:34:09.000Z</time>
</trkpt>
<trkpt lat="46.1695040" lon="10.4777280">
	<ele>2381.20</ele>
	<time>2023-08-09T08:34:10.000Z</time>
</trkpt>
<trkpt lat="46.1695130" lon="10.4777310">
	<ele>2381.00</ele>
	<time>2023-08-09T08:34:11.000Z</time>
</trkpt>
<trkpt lat="46.1695180" lon="10.4777340">
	<ele>2381.00</ele>
	<time>2023-08-09T08:34:12.000Z</time>
</trkpt>
<trkpt lat="46.1695210" lon="10.4777360">
	<ele>2381.00</ele>
	<time>2023-08-09T08:34:13.000Z</time>
</trkpt>
<trkpt lat="46.1695230" lon="10.4777380">
	<ele>2380.60</ele>
	<time>2023-08-09T08:34:14.000Z</time>
</trkpt>
<trkpt lat="46.1695290" lon="10.4777410">
	<ele>2380.40</ele>
	<time>2023-08-09T08:34:15.000Z</time>
</trkpt>
<trkpt lat="46.1695360" lon="10.4777490">
	<ele>2380.40</ele>
	<time>2023-08-09T08:34:16.000Z</time>
</trkpt>
<trkpt lat="46.1695440" lon="10.4777560">
	<ele>2380.40</ele>
	<time>2023-08-09T08:34:17.000Z</time>
</trkpt>
<trkpt lat="46.1695600" lon="10.4777570">
	<ele>2380.20</ele>
	<time>2023-08-09T08:34:18.000Z</time>
</trkpt>
<trkpt lat="46.1695730" lon="10.4777620">
	<ele>2380.00</ele>
	<time>2023-08-09T08:34:19.000Z</time>
</trkpt>
<trkpt lat="46.1695820" lon="10.4777710">
	<ele>2380.00</ele>
	<time>2023-08-09T08:34:20.000Z</time>
</trkpt>
<trkpt lat="46.1695860" lon="10.4777800">
	<ele>2379.80</ele>
	<time>2023-08-09T08:34:21.000Z</time>
</trkpt>
<trkpt lat="46.1695910" lon="10.4777920">
	<ele>2379.80</ele>
	<time>2023-08-09T08:34:22.000Z</time>
</trkpt>
<trkpt lat="46.1695950" lon="10.4778030">
	<ele>2379.80</ele>
	<time>2023-08-09T08:34:23.000Z</time>
</trkpt>
<trkpt lat="46.1696010" lon="10.4778100">
	<ele>2379.80</ele>
	<time>2023-08-09T08:34:24.000Z</time>
</trkpt>
<trkpt lat="46.1696040" lon="10.4778130">
	<ele>2379.80</ele>
	<time>2023-08-09T08:34:25.000Z</time>
</trkpt>
<trkpt lat="46.1696060" lon="10.4778150">
	<ele>2379.80</ele>
	<time>2023-08-09T08:34:26.000Z</time>
</trkpt>
<trkpt lat="46.1696100" lon="10.4778130">
	<ele>2379.60</ele>
	<time>2023-08-09T08:34:27.000Z</time>
</trkpt>
<trkpt lat="46.1696110" lon="10.4778120">
	<ele>2379.60</ele>
	<time>2023-08-09T08:34:28.000Z</time>
</trkpt>
<trkpt lat="46.1696160" lon="10.4778120">
	<ele>2379.40</ele>
	<time>2023-08-09T08:34:29.000Z</time>
</trkpt>
<trkpt lat="46.1696200" lon="10.4778160">
	<ele>2379.40</ele>
	<time>2023-08-09T08:34:30.000Z</time>
</trkpt>
<trkpt lat="46.1696320" lon="10.4778190">
	<ele>2379.40</ele>
	<time>2023-08-09T08:34:31.000Z</time>
</trkpt>
<trkpt lat="46.1696410" lon="10.4778240">
	<ele>2379.40</ele>
	<time>2023-08-09T08:34:32.000Z</time>
</trkpt>
<trkpt lat="46.1696470" lon="10.4778280">
	<ele>2379.40</ele>
	<time>2023-08-09T08:34:33.000Z</time>
</trkpt>
<trkpt lat="46.1696510" lon="10.4778340">
	<ele>2379.40</ele>
	<time>2023-08-09T08:34:34.000Z</time>
</trkpt>
<trkpt lat="46.1696560" lon="10.4778400">
	<ele>2379.40</ele>
	<time>2023-08-09T08:34:35.000Z</time>
</trkpt>
<trkpt lat="46.1696610" lon="10.4778460">
	<ele>2379.40</ele>
	<time>2023-08-09T08:34:36.000Z</time>
</trkpt>
<trkpt lat="46.1696660" lon="10.4778520">
	<ele>2379.40</ele>
	<time>2023-08-09T08:34:37.000Z</time>
</trkpt>
<trkpt lat="46.1696690" lon="10.4778570">
	<ele>2379.40</ele>
	<time>2023-08-09T08:34:38.000Z</time>
</trkpt>
<trkpt lat="46.1696750" lon="10.4778600">
	<ele>2379.20</ele>
	<time>2023-08-09T08:34:39.000Z</time>
</trkpt>
<trkpt lat="46.1696780" lon="10.4778640">
	<ele>2379.20</ele>
	<time>2023-08-09T08:34:40.000Z</time>
</trkpt>
<trkpt lat="46.1696780" lon="10.4778710">
	<ele>2379.00</ele>
	<time>2023-08-09T08:34:41.000Z</time>
</trkpt>
<trkpt lat="46.1696800" lon="10.4778760">
	<ele>2379.00</ele>
	<time>2023-08-09T08:34:42.000Z</time>
</trkpt>
<trkpt lat="46.1696830" lon="10.4778800">
	<ele>2378.80</ele>
	<time>2023-08-09T08:34:43.000Z</time>
</trkpt>
<trkpt lat="46.1696850" lon="10.4778900">
	<ele>2378.60</ele>
	<time>2023-08-09T08:34:44.000Z</time>
</trkpt>
<trkpt lat="46.1696870" lon="10.4778990">
	<ele>2378.40</ele>
	<time>2023-08-09T08:34:45.000Z</time>
</trkpt>
<trkpt lat="46.1696930" lon="10.4779020">
	<ele>2378.20</ele>
	<time>2023-08-09T08:34:46.000Z</time>
</trkpt>
<trkpt lat="46.1696980" lon="10.4779080">
	<ele>2378.00</ele>
	<time>2023-08-09T08:34:47.000Z</time>
</trkpt>
<trkpt lat="46.1697000" lon="10.4779140">
	<ele>2377.80</ele>
	<time>2023-08-09T08:34:48.000Z</time>
</trkpt>
<trkpt lat="46.1697040" lon="10.4779180">
	<ele>2377.60</ele>
	<time>2023-08-09T08:34:49.000Z</time>
</trkpt>
<trkpt lat="46.1697110" lon="10.4779230">
	<ele>2377.60</ele>
	<time>2023-08-09T08:34:50.000Z</time>
</trkpt>
<trkpt lat="46.1697140" lon="10.4779250">
	<ele>2377.40</ele>
	<time>2023-08-09T08:34:51.000Z</time>
</trkpt>
<trkpt lat="46.1697170" lon="10.4779280">
	<ele>2377.20</ele>
	<time>2023-08-09T08:34:52.000Z</time>
</trkpt>
<trkpt lat="46.1697230" lon="10.4779310">
	<ele>2377.00</ele>
	<time>2023-08-09T08:34:53.000Z</time>
</trkpt>
<trkpt lat="46.1697280" lon="10.4779360">
	<ele>2377.00</ele>
	<time>2023-08-09T08:34:54.000Z</time>
</trkpt>
<trkpt lat="46.1697320" lon="10.4779440">
	<ele>2376.80</ele>
	<time>2023-08-09T08:34:55.000Z</time>
</trkpt>
<trkpt lat="46.1697350" lon="10.4779550">
	<ele>2376.80</ele>
	<time>2023-08-09T08:34:56.000Z</time>
</trkpt>
<trkpt lat="46.1697370" lon="10.4779620">
	<ele>2376.80</ele>
	<time>2023-08-09T08:34:57.000Z</time>
</trkpt>
<trkpt lat="46.1697430" lon="10.4779700">
	<ele>2376.80</ele>
	<time>2023-08-09T08:34:58.000Z</time>
</trkpt>
<trkpt lat="46.1697510" lon="10.4779800">
	<ele>2376.80</ele>
	<time>2023-08-09T08:34:59.000Z</time>
</trkpt>
<trkpt lat="46.1697560" lon="10.4779890">
	<ele>2376.80</ele>
	<time>2023-08-09T08:35:00.000Z</time>
</trkpt>
<trkpt lat="46.1697610" lon="10.4779990">
	<ele>2376.80</ele>
	<time>2023-08-09T08:35:01.000Z</time>
</trkpt>
<trkpt lat="46.1697650" lon="10.4780100">
	<ele>2376.80</ele>
	<time>2023-08-09T08:35:02.000Z</time>
</trkpt>
<trkpt lat="46.1697700" lon="10.4780170">
	<ele>2377.00</ele>
	<time>2023-08-09T08:35:03.000Z</time>
</trkpt>
<trkpt lat="46.1697740" lon="10.4780210">
	<ele>2377.00</ele>
	<time>2023-08-09T08:35:04.000Z</time>
</trkpt>
<trkpt lat="46.1697780" lon="10.4780240">
	<ele>2377.20</ele>
	<time>2023-08-09T08:35:05.000Z</time>
</trkpt>
<trkpt lat="46.1697750" lon="10.4780280">
	<ele>2377.40</ele>
	<time>2023-08-09T08:35:06.000Z</time>
</trkpt>
<trkpt lat="46.1697760" lon="10.4780340">
	<ele>2377.40</ele>
	<time>2023-08-09T08:35:07.000Z</time>
</trkpt>
<trkpt lat="46.1697820" lon="10.4780420">
	<ele>2377.40</ele>
	<time>2023-08-09T08:35:08.000Z</time>
</trkpt>
<trkpt lat="46.1697910" lon="10.4780500">
	<ele>2377.40</ele>
	<time>2023-08-09T08:35:09.000Z</time>
</trkpt>
<trkpt lat="46.1698000" lon="10.4780570">
	<ele>2377.20</ele>
	<time>2023-08-09T08:35:10.000Z</time>
</trkpt>
<trkpt lat="46.1698090" lon="10.4780680">
	<ele>2377.00</ele>
	<time>2023-08-09T08:35:11.000Z</time>
</trkpt>
<trkpt lat="46.1698130" lon="10.4780780">
	<ele>2376.80</ele>
	<time>2023-08-09T08:35:12.000Z</time>
</trkpt>
<trkpt lat="46.1698180" lon="10.4780890">
	<ele>2376.80</ele>
	<time>2023-08-09T08:35:13.000Z</time>
</trkpt>
<trkpt lat="46.1698220" lon="10.4781000">
	<ele>2376.80</ele>
	<time>2023-08-09T08:35:14.000Z</time>
</trkpt>
<trkpt lat="46.1698240" lon="10.4781080">
	<ele>2376.80</ele>
	<time>2023-08-09T08:35:15.000Z</time>
</trkpt>
<trkpt lat="46.1698290" lon="10.4781180">
	<ele>2376.80</ele>
	<time>2023-08-09T08:35:16.000Z</time>
</trkpt>
<trkpt lat="46.1698340" lon="10.4781300">
	<ele>2376.80</ele>
	<time>2023-08-09T08:35:17.000Z</time>
</trkpt>
<trkpt lat="46.1698410" lon="10.4781430">
	<ele>2376.80</ele>
	<time>2023-08-09T08:35:18.000Z</time>
</trkpt>
<trkpt lat="46.1698470" lon="10.4781500">
	<ele>2376.80</ele>
	<time>2023-08-09T08:35:19.000Z</time>
</trkpt>
<trkpt lat="46.1698490" lon="10.4781530">
	<ele>2376.80</ele>
	<time>2023-08-09T08:35:20.000Z</time>
</trkpt>
<trkpt lat="46.1698550" lon="10.4781580">
	<ele>2377.00</ele>
	<time>2023-08-09T08:35:21.000Z</time>
</trkpt>
<trkpt lat="46.1698590" lon="10.4781660">
	<ele>2377.20</ele>
	<time>2023-08-09T08:35:22.000Z</time>
</trkpt>
<trkpt lat="46.1698610" lon="10.4781800">
	<ele>2377.40</ele>
	<time>2023-08-09T08:35:23.000Z</time>
</trkpt>
<trkpt lat="46.1698630" lon="10.4781960">
	<ele>2377.40</ele>
	<time>2023-08-09T08:35:24.000Z</time>
</trkpt>
<trkpt lat="46.1698640" lon="10.4782060">
	<ele>2377.40</ele>
	<time>2023-08-09T08:35:25.000Z</time>
</trkpt>
<trkpt lat="46.1698640" lon="10.4782110">
	<ele>2377.60</ele>
	<time>2023-08-09T08:35:26.000Z</time>
</trkpt>
<trkpt lat="46.1698690" lon="10.4782180">
	<ele>2377.80</ele>
	<time>2023-08-09T08:35:27.000Z</time>
</trkpt>
<trkpt lat="46.1698730" lon="10.4782250">
	<ele>2377.80</ele>
	<time>2023-08-09T08:35:28.000Z</time>
</trkpt>
<trkpt lat="46.1698740" lon="10.4782310">
	<ele>2378.00</ele>
	<time>2023-08-09T08:35:29.000Z</time>
</trkpt>
<trkpt lat="46.1698780" lon="10.4782340">
	<ele>2378.20</ele>
	<time>2023-08-09T08:35:30.000Z</time>
</trkpt>
<trkpt lat="46.1698800" lon="10.4782410">
	<ele>2378.40</ele>
	<time>2023-08-09T08:35:31.000Z</time>
</trkpt>
<trkpt lat="46.1698820" lon="10.4782470">
	<ele>2378.60</ele>
	<time>2023-08-09T08:35:32.000Z</time>
</trkpt>
<trkpt lat="46.1698830" lon="10.4782520">
	<ele>2378.60</ele>
	<time>2023-08-09T08:35:33.000Z</time>
</trkpt>
<trkpt lat="46.1698840" lon="10.4782570">
	<ele>2378.80</ele>
	<time>2023-08-09T08:35:34.000Z</time>
</trkpt>
<trkpt lat="46.1698860" lon="10.4782630">
	<ele>2378.80</ele>
	<time>2023-08-09T08:35:35.000Z</time>
</trkpt>
<trkpt lat="46.1698870" lon="10.4782680">
	<ele>2379.00</ele>
	<time>2023-08-09T08:35:36.000Z</time>
</trkpt>
<trkpt lat="46.1698910" lon="10.4782750">
	<ele>2379.00</ele>
	<time>2023-08-09T08:35:37.000Z</time>
</trkpt>
<trkpt lat="46.1698950" lon="10.4782810">
	<ele>2379.20</ele>
	<time>2023-08-09T08:35:38.000Z</time>
</trkpt>
<trkpt lat="46.1698980" lon="10.4782880">
	<ele>2379.40</ele>
	<time>2023-08-09T08:35:39.000Z</time>
</trkpt>
<trkpt lat="46.1699000" lon="10.4782950">
	<ele>2379.60</ele>
	<time>2023-08-09T08:35:40.000Z</time>
</trkpt>
<trkpt lat="46.1699030" lon="10.4783020">
	<ele>2379.60</ele>
	<time>2023-08-09T08:35:41.000Z</time>
</trkpt>
<trkpt lat="46.1699060" lon="10.4783090">
	<ele>2379.80</ele>
	<time>2023-08-09T08:35:42.000Z</time>
</trkpt>
<trkpt lat="46.1699070" lon="10.4783160">
	<ele>2380.00</ele>
	<time>2023-08-09T08:35:43.000Z</time>
</trkpt>
<trkpt lat="46.1699070" lon="10.4783210">
	<ele>2380.00</ele>
	<time>2023-08-09T08:35:44.000Z</time>
</trkpt>
<trkpt lat="46.1699060" lon="10.4783260">
	<ele>2380.20</ele>
	<time>2023-08-09T08:35:45.000Z</time>
</trkpt>
<trkpt lat="46.1699050" lon="10.4783330">
	<ele>2380.40</ele>
	<time>2023-08-09T08:35:46.000Z</time>
</trkpt>
<trkpt lat="46.1699070" lon="10.4783410">
	<ele>2380.40</ele>
	<time>2023-08-09T08:35:47.000Z</time>
</trkpt>
<trkpt lat="46.1699080" lon="10.4783520">
	<ele>2380.60</ele>
	<time>2023-08-09T08:35:48.000Z</time>
</trkpt>
<trkpt lat="46.1699060" lon="10.4783610">
	<ele>2380.60</ele>
	<time>2023-08-09T08:35:49.000Z</time>
</trkpt>
<trkpt lat="46.1699070" lon="10.4783720">
	<ele>2380.60</ele>
	<time>2023-08-09T08:35:50.000Z</time>
</trkpt>
<trkpt lat="46.1699070" lon="10.4783850">
	<ele>2380.60</ele>
	<time>2023-08-09T08:35:51.000Z</time>
</trkpt>
<trkpt lat="46.1699080" lon="10.4783970">
	<ele>2380.60</ele>
	<time>2023-08-09T08:35:52.000Z</time>
</trkpt>
<trkpt lat="46.1699060" lon="10.4784080">
	<ele>2380.60</ele>
	<time>2023-08-09T08:35:53.000Z</time>
</trkpt>
<trkpt lat="46.1699080" lon="10.4784170">
	<ele>2380.60</ele>
	<time>2023-08-09T08:35:54.000Z</time>
</trkpt>
<trkpt lat="46.1699080" lon="10.4784260">
	<ele>2380.80</ele>
	<time>2023-08-09T08:35:55.000Z</time>
</trkpt>
<trkpt lat="46.1699080" lon="10.4784360">
	<ele>2380.80</ele>
	<time>2023-08-09T08:35:56.000Z</time>
</trkpt>
<trkpt lat="46.1699100" lon="10.4784440">
	<ele>2380.80</ele>
	<time>2023-08-09T08:35:57.000Z</time>
</trkpt>
<trkpt lat="46.1699120" lon="10.4784560">
	<ele>2380.80</ele>
	<time>2023-08-09T08:35:58.000Z</time>
</trkpt>
<trkpt lat="46.1699140" lon="10.4784650">
	<ele>2381.00</ele>
	<time>2023-08-09T08:35:59.000Z</time>
</trkpt>
<trkpt lat="46.1699180" lon="10.4784730">
	<ele>2381.00</ele>
	<time>2023-08-09T08:36:00.000Z</time>
</trkpt>
<trkpt lat="46.1699240" lon="10.4784830">
	<ele>2381.00</ele>
	<time>2023-08-09T08:36:01.000Z</time>
</trkpt>
<trkpt lat="46.1699290" lon="10.4784910">
	<ele>2381.20</ele>
	<time>2023-08-09T08:36:02.000Z</time>
</trkpt>
<trkpt lat="46.1699340" lon="10.4784990">
	<ele>2381.20</ele>
	<time>2023-08-09T08:36:03.000Z</time>
</trkpt>
<trkpt lat="46.1699390" lon="10.4785050">
	<ele>2381.40</ele>
	<time>2023-08-09T08:36:04.000Z</time>
</trkpt>
<trkpt lat="46.1699450" lon="10.4785080">
	<ele>2381.40</ele>
	<time>2023-08-09T08:36:05.000Z</time>
</trkpt>
<trkpt lat="46.1699550" lon="10.4785140">
	<ele>2381.40</ele>
	<time>2023-08-09T08:36:06.000Z</time>
</trkpt>
<trkpt lat="46.1699630" lon="10.4785240">
	<ele>2381.40</ele>
	<time>2023-08-09T08:36:07.000Z</time>
</trkpt>
<trkpt lat="46.1699710" lon="10.4785340">
	<ele>2381.40</ele>
	<time>2023-08-09T08:36:08.000Z</time>
</trkpt>
<trkpt lat="46.1699750" lon="10.4785390">
	<ele>2381.40</ele>
	<time>2023-08-09T08:36:09.000Z</time>
</trkpt>
<trkpt lat="46.1699800" lon="10.4785410">
	<ele>2381.20</ele>
	<time>2023-08-09T08:36:10.000Z</time>
</trkpt>
<trkpt lat="46.1699840" lon="10.4785460">
	<ele>2381.20</ele>
	<time>2023-08-09T08:36:11.000Z</time>
</trkpt>
<trkpt lat="46.1699910" lon="10.4785490">
	<ele>2381.20</ele>
	<time>2023-08-09T08:36:12.000Z</time>
</trkpt>
<trkpt lat="46.1699990" lon="10.4785520">
	<ele>2381.20</ele>
	<time>2023-08-09T08:36:13.000Z</time>
</trkpt>
<trkpt lat="46.1700090" lon="10.4785570">
	<ele>2381.20</ele>
	<time>2023-08-09T08:36:14.000Z</time>
</trkpt>
<trkpt lat="46.1700180" lon="10.4785650">
	<ele>2381.00</ele>
	<time>2023-08-09T08:36:15.000Z</time>
</trkpt>
<trkpt lat="46.1700220" lon="10.4785690">
	<ele>2381.00</ele>
	<time>2023-08-09T08:36:16.000Z</time>
</trkpt>
<trkpt lat="46.1700270" lon="10.4785740">
	<ele>2381.00</ele>
	<time>2023-08-09T08:36:17.000Z</time>
</trkpt>
<trkpt lat="46.1700350" lon="10.4785780">
	<ele>2380.80</ele>
	<time>2023-08-09T08:36:18.000Z</time>
</trkpt>
<trkpt lat="46.1700430" lon="10.4785830">
	<ele>2380.80</ele>
	<time>2023-08-09T08:36:19.000Z</time>
</trkpt>
<trkpt lat="46.1700520" lon="10.4785880">
	<ele>2380.80</ele>
	<time>2023-08-09T08:36:20.000Z</time>
</trkpt>
<trkpt lat="46.1700600" lon="10.4785930">
	<ele>2380.80</ele>
	<time>2023-08-09T08:36:21.000Z</time>
</trkpt>
<trkpt lat="46.1700660" lon="10.4786000">
	<ele>2380.80</ele>
	<time>2023-08-09T08:36:22.000Z</time>
</trkpt>
<trkpt lat="46.1700740" lon="10.4786070">
	<ele>2380.80</ele>
	<time>2023-08-09T08:36:23.000Z</time>
</trkpt>
<trkpt lat="46.1700800" lon="10.4786150">
	<ele>2380.80</ele>
	<time>2023-08-09T08:36:24.000Z</time>
</trkpt>
<trkpt lat="46.1700870" lon="10.4786200">
	<ele>2380.80</ele>
	<time>2023-08-09T08:36:25.000Z</time>
</trkpt>
<trkpt lat="46.1700950" lon="10.4786250">
	<ele>2380.80</ele>
	<time>2023-08-09T08:36:26.000Z</time>
</trkpt>
<trkpt lat="46.1701020" lon="10.4786290">
	<ele>2380.80</ele>
	<time>2023-08-09T08:36:27.000Z</time>
</trkpt>
<trkpt lat="46.1701120" lon="10.4786300">
	<ele>2380.80</ele>
	<time>2023-08-09T08:36:28.000Z</time>
</trkpt>
<trkpt lat="46.1701190" lon="10.4786340">
	<ele>2380.60</ele>
	<time>2023-08-09T08:36:29.000Z</time>
</trkpt>
<trkpt lat="46.1701290" lon="10.4786390">
	<ele>2380.40</ele>
	<time>2023-08-09T08:36:30.000Z</time>
</trkpt>
<trkpt lat="46.1701360" lon="10.4786430">
	<ele>2380.40</ele>
	<time>2023-08-09T08:36:31.000Z</time>
</trkpt>
<trkpt lat="46.1701450" lon="10.4786520">
	<ele>2380.20</ele>
	<time>2023-08-09T08:36:32.000Z</time>
</trkpt>
<trkpt lat="46.1701500" lon="10.4786620">
	<ele>2380.00</ele>
	<time>2023-08-09T08:36:33.000Z</time>
</trkpt>
<trkpt lat="46.1701550" lon="10.4786720">
	<ele>2380.00</ele>
	<time>2023-08-09T08:36:34.000Z</time>
</trkpt>
<trkpt lat="46.1701630" lon="10.4786790">
	<ele>2379.80</ele>
	<time>2023-08-09T08:36:35.000Z</time>
</trkpt>
<trkpt lat="46.1701690" lon="10.4786890">
	<ele>2379.80</ele>
	<time>2023-08-09T08:36:36.000Z</time>
</trkpt>
<trkpt lat="46.1701750" lon="10.4787000">
	<ele>2379.60</ele>
	<time>2023-08-09T08:36:37.000Z</time>
</trkpt>
<trkpt lat="46.1701830" lon="10.4787100">
	<ele>2379.60</ele>
	<time>2023-08-09T08:36:38.000Z</time>
</trkpt>
<trkpt lat="46.1701890" lon="10.4787180">
	<ele>2379.60</ele>
	<time>2023-08-09T08:36:39.000Z</time>
</trkpt>
<trkpt lat="46.1701940" lon="10.4787300">
	<ele>2379.60</ele>
	<time>2023-08-09T08:36:40.000Z</time>
</trkpt>
<trkpt lat="46.1701950" lon="10.4787420">
	<ele>2379.80</ele>
	<time>2023-08-09T08:36:41.000Z</time>
</trkpt>
<trkpt lat="46.1701960" lon="10.4787520">
	<ele>2380.00</ele>
	<time>2023-08-09T08:36:42.000Z</time>
</trkpt>
<trkpt lat="46.1701950" lon="10.4787600">
	<ele>2380.00</ele>
	<time>2023-08-09T08:36:43.000Z</time>
</trkpt>
<trkpt lat="46.1701960" lon="10.4787700">
	<ele>2380.20</ele>
	<time>2023-08-09T08:36:44.000Z</time>
</trkpt>
<trkpt lat="46.1701980" lon="10.4787780">
	<ele>2380.20</ele>
	<time>2023-08-09T08:36:45.000Z</time>
</trkpt>
<trkpt lat="46.1701990" lon="10.4787880">
	<ele>2380.20</ele>
	<time>2023-08-09T08:36:46.000Z</time>
</trkpt>
<trkpt lat="46.1701970" lon="10.4787990">
	<ele>2380.40</ele>
	<time>2023-08-09T08:36:47.000Z</time>
</trkpt>
<trkpt lat="46.1701950" lon="10.4788060">
	<ele>2380.40</ele>
	<time>2023-08-09T08:36:48.000Z</time>
</trkpt>
<trkpt lat="46.1701930" lon="10.4788120">
	<ele>2380.60</ele>
	<time>2023-08-09T08:36:49.000Z</time>
</trkpt>
<trkpt lat="46.1701920" lon="10.4788220">
	<ele>2380.80</ele>
	<time>2023-08-09T08:36:50.000Z</time>
</trkpt>
<trkpt lat="46.1701900" lon="10.4788320">
	<ele>2380.80</ele>
	<time>2023-08-09T08:36:51.000Z</time>
</trkpt>
<trkpt lat="46.1701890" lon="10.4788440">
	<ele>2380.80</ele>
	<time>2023-08-09T08:36:52.000Z</time>
</trkpt>
<trkpt lat="46.1701900" lon="10.4788580">
	<ele>2380.80</ele>
	<time>2023-08-09T08:36:53.000Z</time>
</trkpt>
<trkpt lat="46.1701890" lon="10.4788680">
	<ele>2381.00</ele>
	<time>2023-08-09T08:36:54.000Z</time>
</trkpt>
<trkpt lat="46.1701860" lon="10.4788770">
	<ele>2381.00</ele>
	<time>2023-08-09T08:36:55.000Z</time>
</trkpt>
<trkpt lat="46.1701840" lon="10.4788880">
	<ele>2381.20</ele>
	<time>2023-08-09T08:36:56.000Z</time>
</trkpt>
<trkpt lat="46.1701850" lon="10.4788940">
	<ele>2381.40</ele>
	<time>2023-08-09T08:36:57.000Z</time>
</trkpt>
<trkpt lat="46.1701870" lon="10.4789000">
	<ele>2381.40</ele>
	<time>2023-08-09T08:36:58.000Z</time>
</trkpt>
<trkpt lat="46.1701880" lon="10.4789090">
	<ele>2381.60</ele>
	<time>2023-08-09T08:36:59.000Z</time>
</trkpt>
<trkpt lat="46.1701890" lon="10.4789190">
	<ele>2381.60</ele>
	<time>2023-08-09T08:37:00.000Z</time>
</trkpt>
<trkpt lat="46.1701880" lon="10.4789300">
	<ele>2381.60</ele>
	<time>2023-08-09T08:37:01.000Z</time>
</trkpt>
<trkpt lat="46.1701890" lon="10.4789400">
	<ele>2381.40</ele>
	<time>2023-08-09T08:37:02.000Z</time>
</trkpt>
<trkpt lat="46.1701920" lon="10.4789510">
	<ele>2381.40</ele>
	<time>2023-08-09T08:37:03.000Z</time>
</trkpt>
<trkpt lat="46.1701940" lon="10.4789620">
	<ele>2381.40</ele>
	<time>2023-08-09T08:37:04.000Z</time>
</trkpt>
<trkpt lat="46.1701960" lon="10.4789700">
	<ele>2381.40</ele>
	<time>2023-08-09T08:37:05.000Z</time>
</trkpt>
<trkpt lat="46.1701970" lon="10.4789780">
	<ele>2381.40</ele>
	<time>2023-08-09T08:37:06.000Z</time>
</trkpt>
<trkpt lat="46.1701970" lon="10.4789890">
	<ele>2381.60</ele>
	<time>2023-08-09T08:37:07.000Z</time>
</trkpt>
<trkpt lat="46.1701980" lon="10.4789990">
	<ele>2381.60</ele>
	<time>2023-08-09T08:37:08.000Z</time>
</trkpt>
<trkpt lat="46.1701970" lon="10.4790100">
	<ele>2381.80</ele>
	<time>2023-08-09T08:37:09.000Z</time>
</trkpt>
<trkpt lat="46.1701970" lon="10.4790180">
	<ele>2381.80</ele>
	<time>2023-08-09T08:37:10.000Z</time>
</trkpt>
<trkpt lat="46.1701950" lon="10.4790220">
	<ele>2382.00</ele>
	<time>2023-08-09T08:37:11.000Z</time>
</trkpt>
<trkpt lat="46.1701950" lon="10.4790290">
	<ele>2382.00</ele>
	<time>2023-08-09T08:37:12.000Z</time>
</trkpt>
<trkpt lat="46.1701950" lon="10.4790350">
	<ele>2382.20</ele>
	<time>2023-08-09T08:37:13.000Z</time>
</trkpt>
<trkpt lat="46.1701950" lon="10.4790430">
	<ele>2382.20</ele>
	<time>2023-08-09T08:37:14.000Z</time>
</trkpt>
<trkpt lat="46.1701950" lon="10.4790530">
	<ele>2382.40</ele>
	<time>2023-08-09T08:37:15.000Z</time>
</trkpt>
<trkpt lat="46.1701940" lon="10.4790580">
	<ele>2382.60</ele>
	<time>2023-08-09T08:37:16.000Z</time>
</trkpt>
<trkpt lat="46.1701960" lon="10.4790640">
	<ele>2382.80</ele>
	<time>2023-08-09T08:37:17.000Z</time>
</trkpt>
<trkpt lat="46.1701960" lon="10.4790700">
	<ele>2383.00</ele>
	<time>2023-08-09T08:37:18.000Z</time>
</trkpt>
<trkpt lat="46.1701980" lon="10.4790780">
	<ele>2383.00</ele>
	<time>2023-08-09T08:37:19.000Z</time>
</trkpt>
<trkpt lat="46.1701970" lon="10.4790850">
	<ele>2383.00</ele>
	<time>2023-08-09T08:37:20.000Z</time>
</trkpt>
<trkpt lat="46.1702100" lon="10.4790920">
	<ele>2383.20</ele>
	<time>2023-08-09T08:37:21.000Z</time>
</trkpt>
<trkpt lat="46.1702190" lon="10.4791020">
	<ele>2383.20</ele>
	<time>2023-08-09T08:37:22.000Z</time>
</trkpt>
<trkpt lat="46.1702240" lon="10.4791090">
	<ele>2383.20</ele>
	<time>2023-08-09T08:37:23.000Z</time>
</trkpt>
<trkpt lat="46.1702320" lon="10.4791180">
	<ele>2383.40</ele>
	<time>2023-08-09T08:37:24.000Z</time>
</trkpt>
<trkpt lat="46.1702350" lon="10.4791290">
	<ele>2383.60</ele>
	<time>2023-08-09T08:37:25.000Z</time>
</trkpt>
<trkpt lat="46.1702320" lon="10.4791400">
	<ele>2383.60</ele>
	<time>2023-08-09T08:37:26.000Z</time>
</trkpt>
<trkpt lat="46.1702340" lon="10.4791460">
	<ele>2383.60</ele>
	<time>2023-08-09T08:37:27.000Z</time>
</trkpt>
<trkpt lat="46.1702370" lon="10.4791540">
	<ele>2383.80</ele>
	<time>2023-08-09T08:37:28.000Z</time>
</trkpt>
<trkpt lat="46.1702380" lon="10.4791610">
	<ele>2383.80</ele>
	<time>2023-08-09T08:37:29.000Z</time>
</trkpt>
<trkpt lat="46.1702400" lon="10.4791650">
	<ele>2384.00</ele>
	<time>2023-08-09T08:37:30.000Z</time>
</trkpt>
<trkpt lat="46.1702430" lon="10.4791690">
	<ele>2384.20</ele>
	<time>2023-08-09T08:37:31.000Z</time>
</trkpt>
<trkpt lat="46.1702500" lon="10.4791720">
	<ele>2384.20</ele>
	<time>2023-08-09T08:37:32.000Z</time>
</trkpt>
<trkpt lat="46.1702540" lon="10.4791780">
	<ele>2384.60</ele>
	<time>2023-08-09T08:37:33.000Z</time>
</trkpt>
<trkpt lat="46.1702580" lon="10.4791830">
	<ele>2384.80</ele>
	<time>2023-08-09T08:37:34.000Z</time>
</trkpt>
<trkpt lat="46.1702580" lon="10.4791900">
	<ele>2385.00</ele>
	<time>2023-08-09T08:37:35.000Z</time>
</trkpt>
<trkpt lat="46.1702580" lon="10.4792000">
	<ele>2385.00</ele>
	<time>2023-08-09T08:37:36.000Z</time>
</trkpt>
<trkpt lat="46.1702590" lon="10.4792080">
	<ele>2385.20</ele>
	<time>2023-08-09T08:37:37.000Z</time>
</trkpt>
<trkpt lat="46.1702600" lon="10.4792130">
	<ele>2385.60</ele>
	<time>2023-08-09T08:37:38.000Z</time>
</trkpt>
<trkpt lat="46.1702600" lon="10.4792150">
	<ele>2385.60</ele>
	<time>2023-08-09T08:37:39.000Z</time>
</trkpt>
<trkpt lat="46.1702630" lon="10.4792170">
	<ele>2385.80</ele>
	<time>2023-08-09T08:37:40.000Z</time>
</trkpt>
<trkpt lat="46.1702710" lon="10.4792210">
	<ele>2385.80</ele>
	<time>2023-08-09T08:37:41.000Z</time>
</trkpt>
<trkpt lat="46.1702770" lon="10.4792270">
	<ele>2386.00</ele>
	<time>2023-08-09T08:37:42.000Z</time>
</trkpt>
<trkpt lat="46.1702850" lon="10.4792330">
	<ele>2386.00</ele>
	<time>2023-08-09T08:37:43.000Z</time>
</trkpt>
<trkpt lat="46.1702920" lon="10.4792400">
	<ele>2385.80</ele>
	<time>2023-08-09T08:37:44.000Z</time>
</trkpt>
<trkpt lat="46.1702970" lon="10.4792490">
	<ele>2386.00</ele>
	<time>2023-08-09T08:37:45.000Z</time>
</trkpt>
<trkpt lat="46.1702990" lon="10.4792550">
	<ele>2386.00</ele>
	<time>2023-08-09T08:37:46.000Z</time>
</trkpt>
<trkpt lat="46.1703000" lon="10.4792580">
	<ele>2386.00</ele>
	<time>2023-08-09T08:37:47.000Z</time>
</trkpt>
<trkpt lat="46.1702980" lon="10.4792580">
	<ele>2386.00</ele>
	<time>2023-08-09T08:37:48.000Z</time>
</trkpt>
<trkpt lat="46.1702990" lon="10.4792610">
	<ele>2386.20</ele>
	<time>2023-08-09T08:37:49.000Z</time>
</trkpt>
<trkpt lat="46.1703010" lon="10.4792630">
	<ele>2386.20</ele>
	<time>2023-08-09T08:37:50.000Z</time>
</trkpt>
<trkpt lat="46.1703050" lon="10.4792700">
	<ele>2386.20</ele>
	<time>2023-08-09T08:37:51.000Z</time>
</trkpt>
<trkpt lat="46.1703090" lon="10.4792770">
	<ele>2386.20</ele>
	<time>2023-08-09T08:37:52.000Z</time>
</trkpt>
<trkpt lat="46.1703130" lon="10.4792820">
	<ele>2386.20</ele>
	<time>2023-08-09T08:37:53.000Z</time>
</trkpt>
<trkpt lat="46.1703160" lon="10.4792900">
	<ele>2386.00</ele>
	<time>2023-08-09T08:37:54.000Z</time>
</trkpt>
<trkpt lat="46.1703180" lon="10.4792970">
	<ele>2386.00</ele>
	<time>2023-08-09T08:37:55.000Z</time>
</trkpt>
<trkpt lat="46.1703220" lon="10.4793070">
	<ele>2386.00</ele>
	<time>2023-08-09T08:37:56.000Z</time>
</trkpt>
<trkpt lat="46.1703260" lon="10.4793160">
	<ele>2386.00</ele>
	<time>2023-08-09T08:37:57.000Z</time>
</trkpt>
<trkpt lat="46.1703310" lon="10.4793240">
	<ele>2386.00</ele>
	<time>2023-08-09T08:37:58.000Z</time>
</trkpt>
<trkpt lat="46.1703350" lon="10.4793310">
	<ele>2386.20</ele>
	<time>2023-08-09T08:37:59.000Z</time>
</trkpt>
<trkpt lat="46.1703370" lon="10.4793360">
	<ele>2386.20</ele>
	<time>2023-08-09T08:38:00.000Z</time>
</trkpt>
<trkpt lat="46.1703410" lon="10.4793470">
	<ele>2386.20</ele>
	<time>2023-08-09T08:38:01.000Z</time>
</trkpt>
<trkpt lat="46.1703430" lon="10.4793600">
	<ele>2386.20</ele>
	<time>2023-08-09T08:38:02.000Z</time>
</trkpt>
<trkpt lat="46.1703460" lon="10.4793670">
	<ele>2386.40</ele>
	<time>2023-08-09T08:38:03.000Z</time>
</trkpt>
<trkpt lat="46.1703510" lon="10.4793730">
	<ele>2386.40</ele>
	<time>2023-08-09T08:38:04.000Z</time>
</trkpt>
<trkpt lat="46.1703570" lon="10.4793830">
	<ele>2386.40</ele>
	<time>2023-08-09T08:38:05.000Z</time>
</trkpt>
<trkpt lat="46.1703630" lon="10.4793880">
	<ele>2386.40</ele>
	<time>2023-08-09T08:38:06.000Z</time>
</trkpt>
<trkpt lat="46.1703710" lon="10.4793950">
	<ele>2386.40</ele>
	<time>2023-08-09T08:38:07.000Z</time>
</trkpt>
<trkpt lat="46.1703780" lon="10.4794030">
	<ele>2386.40</ele>
	<time>2023-08-09T08:38:08.000Z</time>
</trkpt>
<trkpt lat="46.1703820" lon="10.4794100">
	<ele>2386.40</ele>
	<time>2023-08-09T08:38:09.000Z</time>
</trkpt>
<trkpt lat="46.1703850" lon="10.4794160">
	<ele>2386.40</ele>
	<time>2023-08-09T08:38:10.000Z</time>
</trkpt>
<trkpt lat="46.1703890" lon="10.4794270">
	<ele>2386.60</ele>
	<time>2023-08-09T08:38:11.000Z</time>
</trkpt>
<trkpt lat="46.1703940" lon="10.4794360">
	<ele>2386.60</ele>
	<time>2023-08-09T08:38:12.000Z</time>
</trkpt>
<trkpt lat="46.1703980" lon="10.4794440">
	<ele>2386.60</ele>
	<time>2023-08-09T08:38:13.000Z</time>
</trkpt>
<trkpt lat="46.1704020" lon="10.4794510">
	<ele>2386.60</ele>
	<time>2023-08-09T08:38:14.000Z</time>
</trkpt>
<trkpt lat="46.1704050" lon="10.4794590">
	<ele>2386.60</ele>
	<time>2023-08-09T08:38:15.000Z</time>
</trkpt>
<trkpt lat="46.1704090" lon="10.4794690">
	<ele>2386.60</ele>
	<time>2023-08-09T08:38:16.000Z</time>
</trkpt>
<trkpt lat="46.1704140" lon="10.4794780">
	<ele>2386.60</ele>
	<time>2023-08-09T08:38:17.000Z</time>
</trkpt>
<trkpt lat="46.1704190" lon="10.4794860">
	<ele>2386.60</ele>
	<time>2023-08-09T08:38:18.000Z</time>
</trkpt>
<trkpt lat="46.1704220" lon="10.4794920">
	<ele>2386.60</ele>
	<time>2023-08-09T08:38:19.000Z</time>
</trkpt>
<trkpt lat="46.1704230" lon="10.4795010">
	<ele>2386.60</ele>
	<time>2023-08-09T08:38:20.000Z</time>
</trkpt>
<trkpt lat="46.1704270" lon="10.4795090">
	<ele>2386.60</ele>
	<time>2023-08-09T08:38:21.000Z</time>
</trkpt>
<trkpt lat="46.1704310" lon="10.4795160">
	<ele>2386.60</ele>
	<time>2023-08-09T08:38:22.000Z</time>
</trkpt>
<trkpt lat="46.1704360" lon="10.4795230">
	<ele>2386.80</ele>
	<time>2023-08-09T08:38:23.000Z</time>
</trkpt>
<trkpt lat="46.1704440" lon="10.4795320">
	<ele>2386.80</ele>
	<time>2023-08-09T08:38:24.000Z</time>
</trkpt>
<trkpt lat="46.1704540" lon="10.4795430">
	<ele>2386.80</ele>
	<time>2023-08-09T08:38:25.000Z</time>
</trkpt>
<trkpt lat="46.1704620" lon="10.4795500">
	<ele>2386.80</ele>
	<time>2023-08-09T08:38:26.000Z</time>
</trkpt>
<trkpt lat="46.1704690" lon="10.4795610">
	<ele>2386.80</ele>
	<time>2023-08-09T08:38:27.000Z</time>
</trkpt>
<trkpt lat="46.1704770" lon="10.4795730">
	<ele>2386.80</ele>
	<time>2023-08-09T08:38:28.000Z</time>
</trkpt>
<trkpt lat="46.1704830" lon="10.4795820">
	<ele>2386.80</ele>
	<time>2023-08-09T08:38:29.000Z</time>
</trkpt>
<trkpt lat="46.1704900" lon="10.4795910">
	<ele>2386.80</ele>
	<time>2023-08-09T08:38:30.000Z</time>
</trkpt>
<trkpt lat="46.1704960" lon="10.4795970">
	<ele>2386.80</ele>
	<time>2023-08-09T08:38:31.000Z</time>
</trkpt>
<trkpt lat="46.1705040" lon="10.4796070">
	<ele>2386.80</ele>
	<time>2023-08-09T08:38:32.000Z</time>
</trkpt>
<trkpt lat="46.1705090" lon="10.4796130">
	<ele>2386.80</ele>
	<time>2023-08-09T08:38:33.000Z</time>
</trkpt>
<trkpt lat="46.1705120" lon="10.4796160">
	<ele>2386.80</ele>
	<time>2023-08-09T08:38:34.000Z</time>
</trkpt>
<trkpt lat="46.1705210" lon="10.4796200">
	<ele>2386.80</ele>
	<time>2023-08-09T08:38:35.000Z</time>
</trkpt>
<trkpt lat="46.1705270" lon="10.4796250">
	<ele>2386.80</ele>
	<time>2023-08-09T08:38:36.000Z</time>
</trkpt>
<trkpt lat="46.1705330" lon="10.4796280">
	<ele>2386.60</ele>
	<time>2023-08-09T08:38:37.000Z</time>
</trkpt>
<trkpt lat="46.1705430" lon="10.4796320">
	<ele>2386.60</ele>
	<time>2023-08-09T08:38:38.000Z</time>
</trkpt>
<trkpt lat="46.1705540" lon="10.4796400">
	<ele>2386.40</ele>
	<time>2023-08-09T08:38:39.000Z</time>
</trkpt>
<trkpt lat="46.1705630" lon="10.4796480">
	<ele>2386.40</ele>
	<time>2023-08-09T08:38:40.000Z</time>
</trkpt>
<trkpt lat="46.1705680" lon="10.4796540">
	<ele>2386.20</ele>
	<time>2023-08-09T08:38:41.000Z</time>
</trkpt>
<trkpt lat="46.1705740" lon="10.4796600">
	<ele>2386.20</ele>
	<time>2023-08-09T08:38:42.000Z</time>
</trkpt>
<trkpt lat="46.1705810" lon="10.4796660">
	<ele>2386.20</ele>
	<time>2023-08-09T08:38:43.000Z</time>
</trkpt>
<trkpt lat="46.1705870" lon="10.4796730">
	<ele>2386.20</ele>
	<time>2023-08-09T08:38:44.000Z</time>
</trkpt>
<trkpt lat="46.1705920" lon="10.4796760">
	<ele>2386.20</ele>
	<time>2023-08-09T08:38:45.000Z</time>
</trkpt>
<trkpt lat="46.1705990" lon="10.4796810">
	<ele>2386.20</ele>
	<time>2023-08-09T08:38:46.000Z</time>
</trkpt>
<trkpt lat="46.1706090" lon="10.4796840">
	<ele>2386.20</ele>
	<time>2023-08-09T08:38:47.000Z</time>
</trkpt>
<trkpt lat="46.1706210" lon="10.4796930">
	<ele>2386.20</ele>
	<time>2023-08-09T08:38:48.000Z</time>
</trkpt>
<trkpt lat="46.1706310" lon="10.4796970">
	<ele>2386.20</ele>
	<time>2023-08-09T08:38:49.000Z</time>
</trkpt>
<trkpt lat="46.1706390" lon="10.4797010">
	<ele>2386.20</ele>
	<time>2023-08-09T08:38:50.000Z</time>
</trkpt>
<trkpt lat="46.1706450" lon="10.4797090">
	<ele>2386.40</ele>
	<time>2023-08-09T08:38:51.000Z</time>
</trkpt>
<trkpt lat="46.1706510" lon="10.4797180">
	<ele>2386.40</ele>
	<time>2023-08-09T08:38:52.000Z</time>
</trkpt>
<trkpt lat="46.1706580" lon="10.4797250">
	<ele>2386.40</ele>
	<time>2023-08-09T08:38:53.000Z</time>
</trkpt>
<trkpt lat="46.1706660" lon="10.4797340">
	<ele>2386.40</ele>
	<time>2023-08-09T08:38:54.000Z</time>
</trkpt>
<trkpt lat="46.1706740" lon="10.4797430">
	<ele>2386.40</ele>
	<time>2023-08-09T08:38:55.000Z</time>
</trkpt>
<trkpt lat="46.1706800" lon="10.4797520">
	<ele>2386.40</ele>
	<time>2023-08-09T08:38:56.000Z</time>
</trkpt>
<trkpt lat="46.1706850" lon="10.4797630">
	<ele>2386.40</ele>
	<time>2023-08-09T08:38:57.000Z</time>
</trkpt>
<trkpt lat="46.1706880" lon="10.4797760">
	<ele>2386.20</ele>
	<time>2023-08-09T08:38:58.000Z</time>
</trkpt>
<trkpt lat="46.1706880" lon="10.4797890">
	<ele>2386.20</ele>
	<time>2023-08-09T08:38:59.000Z</time>
</trkpt>
<trkpt lat="46.1706900" lon="10.4798020">
	<ele>2386.20</ele>
	<time>2023-08-09T08:39:00.000Z</time>
</trkpt>
<trkpt lat="46.1706940" lon="10.4798150">
	<ele>2386.00</ele>
	<time>2023-08-09T08:39:01.000Z</time>
</trkpt>
<trkpt lat="46.1706980" lon="10.4798260">
	<ele>2386.00</ele>
	<time>2023-08-09T08:39:02.000Z</time>
</trkpt>
<trkpt lat="46.1707010" lon="10.4798370">
	<ele>2385.80</ele>
	<time>2023-08-09T08:39:03.000Z</time>
</trkpt>
<trkpt lat="46.1707060" lon="10.4798470">
	<ele>2385.80</ele>
	<time>2023-08-09T08:39:04.000Z</time>
</trkpt>
<trkpt lat="46.1707100" lon="10.4798550">
	<ele>2385.80</ele>
	<time>2023-08-09T08:39:05.000Z</time>
</trkpt>
<trkpt lat="46.1707160" lon="10.4798620">
	<ele>2385.80</ele>
	<time>2023-08-09T08:39:06.000Z</time>
</trkpt>
<trkpt lat="46.1707250" lon="10.4798690">
	<ele>2385.80</ele>
	<time>2023-08-09T08:39:07.000Z</time>
</trkpt>
<trkpt lat="46.1707320" lon="10.4798780">
	<ele>2385.80</ele>
	<time>2023-08-09T08:39:08.000Z</time>
</trkpt>
<trkpt lat="46.1707350" lon="10.4798860">
	<ele>2385.60</ele>
	<time>2023-08-09T08:39:09.000Z</time>
</trkpt>
<trkpt lat="46.1707370" lon="10.4798940">
	<ele>2385.60</ele>
	<time>2023-08-09T08:39:10.000Z</time>
</trkpt>
<trkpt lat="46.1707440" lon="10.4799000">
	<ele>2385.40</ele>
	<time>2023-08-09T08:39:11.000Z</time>
</trkpt>
<trkpt lat="46.1707520" lon="10.4799050">
	<ele>2385.40</ele>
	<time>2023-08-09T08:39:12.000Z</time>
</trkpt>
<trkpt lat="46.1707560" lon="10.4799060">
	<ele>2385.40</ele>
	<time>2023-08-09T08:39:13.000Z</time>
</trkpt>
<trkpt lat="46.1707600" lon="10.4799080">
	<ele>2385.40</ele>
	<time>2023-08-09T08:39:14.000Z</time>
</trkpt>
<trkpt lat="46.1707650" lon="10.4799110">
	<ele>2385.20</ele>
	<time>2023-08-09T08:39:15.000Z</time>
</trkpt>
<trkpt lat="46.1707710" lon="10.4799180">
	<ele>2385.20</ele>
	<time>2023-08-09T08:39:16.000Z</time>
</trkpt>
<trkpt lat="46.1707770" lon="10.4799230">
	<ele>2384.80</ele>
	<time>2023-08-09T08:39:17.000Z</time>
</trkpt>
<trkpt lat="46.1707810" lon="10.4799280">
	<ele>2384.80</ele>
	<time>2023-08-09T08:39:18.000Z</time>
</trkpt>
<trkpt lat="46.1707890" lon="10.4799360">
	<ele>2384.60</ele>
	<time>2023-08-09T08:39:19.000Z</time>
</trkpt>
<trkpt lat="46.1707940" lon="10.4799470">
	<ele>2384.60</ele>
	<time>2023-08-09T08:39:20.000Z</time>
</trkpt>
<trkpt lat="46.1708120" lon="10.4799510">
	<ele>2384.60</ele>
	<time>2023-08-09T08:39:21.000Z</time>
</trkpt>
<trkpt lat="46.1708180" lon="10.4799580">
	<ele>2384.60</ele>
	<time>2023-08-09T08:39:22.000Z</time>
</trkpt>
<trkpt lat="46.1708250" lon="10.4799620">
	<ele>2384.40</ele>
	<time>2023-08-09T08:39:23.000Z</time>
</trkpt>
<trkpt lat="46.1708370" lon="10.4799670">
	<ele>2384.40</ele>
	<time>2023-08-09T08:39:24.000Z</time>
</trkpt>
<trkpt lat="46.1708450" lon="10.4799780">
	<ele>2384.40</ele>
	<time>2023-08-09T08:39:25.000Z</time>
</trkpt>
<trkpt lat="46.1708530" lon="10.4799880">
	<ele>2384.40</ele>
	<time>2023-08-09T08:39:26.000Z</time>
</trkpt>
<trkpt lat="46.1708600" lon="10.4800000">
	<ele>2384.40</ele>
	<time>2023-08-09T08:39:27.000Z</time>
</trkpt>
<trkpt lat="46.1708650" lon="10.4800100">
	<ele>2384.20</ele>
	<time>2023-08-09T08:39:28.000Z</time>
</trkpt>
<trkpt lat="46.1708690" lon="10.4800150">
	<ele>2384.20</ele>
	<time>2023-08-09T08:39:29.000Z</time>
</trkpt>
<trkpt lat="46.1708760" lon="10.4800230">
	<ele>2384.20</ele>
	<time>2023-08-09T08:39:30.000Z</time>
</trkpt>
<trkpt lat="46.1708820" lon="10.4800290">
	<ele>2384.20</ele>
	<time>2023-08-09T08:39:31.000Z</time>
</trkpt>
<trkpt lat="46.1708940" lon="10.4800360">
	<ele>2384.20</ele>
	<time>2023-08-09T08:39:32.000Z</time>
</trkpt>
<trkpt lat="46.1709070" lon="10.4800410">
	<ele>2384.20</ele>
	<time>2023-08-09T08:39:33.000Z</time>
</trkpt>
<trkpt lat="46.1709170" lon="10.4800480">
	<ele>2384.20</ele>
	<time>2023-08-09T08:39:34.000Z</time>
</trkpt>
<trkpt lat="46.1709250" lon="10.4800550">
	<ele>2384.20</ele>
	<time>2023-08-09T08:39:35.000Z</time>
</trkpt>
<trkpt lat="46.1709290" lon="10.4800590">
	<ele>2384.40</ele>
	<time>2023-08-09T08:39:36.000Z</time>
</trkpt>
<trkpt lat="46.1709320" lon="10.4800650">
	<ele>2384.40</ele>
	<time>2023-08-09T08:39:37.000Z</time>
</trkpt>
<trkpt lat="46.1709370" lon="10.4800710">
	<ele>2384.40</ele>
	<time>2023-08-09T08:39:38.000Z</time>
</trkpt>
<trkpt lat="46.1709430" lon="10.4800790">
	<ele>2384.40</ele>
	<time>2023-08-09T08:39:39.000Z</time>
</trkpt>
<trkpt lat="46.1709480" lon="10.4800860">
	<ele>2384.40</ele>
	<time>2023-08-09T08:39:40.000Z</time>
</trkpt>
<trkpt lat="46.1709510" lon="10.4800950">
	<ele>2384.40</ele>
	<time>2023-08-09T08:39:41.000Z</time>
</trkpt>
<trkpt lat="46.1709540" lon="10.4801050">
	<ele>2384.40</ele>
	<time>2023-08-09T08:39:42.000Z</time>
</trkpt>
<trkpt lat="46.1709590" lon="10.4801100">
	<ele>2384.40</ele>
	<time>2023-08-09T08:39:43.000Z</time>
</trkpt>
<trkpt lat="46.1709630" lon="10.4801130">
	<ele>2384.40</ele>
	<time>2023-08-09T08:39:44.000Z</time>
</trkpt>
<trkpt lat="46.1709660" lon="10.4801170">
	<ele>2384.40</ele>
	<time>2023-08-09T08:39:45.000Z</time>
</trkpt>
<trkpt lat="46.1709670" lon="10.4801190">
	<ele>2384.40</ele>
	<time>2023-08-09T08:39:46.000Z</time>
</trkpt>
<trkpt lat="46.1709700" lon="10.4801270">
	<ele>2384.20</ele>
	<time>2023-08-09T08:39:47.000Z</time>
</trkpt>
<trkpt lat="46.1709760" lon="10.4801320">
	<ele>2384.20</ele>
	<time>2023-08-09T08:39:48.000Z</time>
</trkpt>
<trkpt lat="46.1709850" lon="10.4801370">
	<ele>2384.20</ele>
	<time>2023-08-09T08:39:49.000Z</time>
</trkpt>
<trkpt lat="46.1709940" lon="10.4801410">
	<ele>2384.00</ele>
	<time>2023-08-09T08:39:50.000Z</time>
</trkpt>
<trkpt lat="46.1710010" lon="10.4801440">
	<ele>2383.80</ele>
	<time>2023-08-09T08:39:51.000Z</time>
</trkpt>
<trkpt lat="46.1710090" lon="10.4801490">
	<ele>2383.80</ele>
	<time>2023-08-09T08:39:52.000Z</time>
</trkpt>
<trkpt lat="46.1710170" lon="10.4801530">
	<ele>2383.80</ele>
	<time>2023-08-09T08:39:53.000Z</time>
</trkpt>
<trkpt lat="46.1710250" lon="10.4801600">
	<ele>2383.60</ele>
	<time>2023-08-09T08:39:54.000Z</time>
</trkpt>
<trkpt lat="46.1710290" lon="10.4801680">
	<ele>2383.40</ele>
	<time>2023-08-09T08:39:55.000Z</time>
</trkpt>
<trkpt lat="46.1710330" lon="10.4801740">
	<ele>2383.40</ele>
	<time>2023-08-09T08:39:56.000Z</time>
</trkpt>
<trkpt lat="46.1710370" lon="10.4801840">
	<ele>2383.40</ele>
	<time>2023-08-09T08:39:57.000Z</time>
</trkpt>
<trkpt lat="46.1710410" lon="10.4801930">
	<ele>2383.20</ele>
	<time>2023-08-09T08:39:58.000Z</time>
</trkpt>
<trkpt lat="46.1710440" lon="10.4802030">
	<ele>2383.40</ele>
	<time>2023-08-09T08:39:59.000Z</time>
</trkpt>
<trkpt lat="46.1710460" lon="10.4802120">
	<ele>2383.40</ele>
	<time>2023-08-09T08:40:00.000Z</time>
</trkpt>
<trkpt lat="46.1710470" lon="10.4802200">
	<ele>2383.40</ele>
	<time>2023-08-09T08:40:01.000Z</time>
</trkpt>
<trkpt lat="46.1710440" lon="10.4802280">
	<ele>2383.40</ele>
	<time>2023-08-09T08:40:02.000Z</time>
</trkpt>
<trkpt lat="46.1710460" lon="10.4802370">
	<ele>2383.40</ele>
	<time>2023-08-09T08:40:03.000Z</time>
</trkpt>
<trkpt lat="46.1710490" lon="10.4802430">
	<ele>2383.40</ele>
	<time>2023-08-09T08:40:04.000Z</time>
</trkpt>
<trkpt lat="46.1710540" lon="10.4802470">
	<ele>2383.40</ele>
	<time>2023-08-09T08:40:05.000Z</time>
</trkpt>
<trkpt lat="46.1710580" lon="10.4802540">
	<ele>2383.40</ele>
	<time>2023-08-09T08:40:06.000Z</time>
</trkpt>
<trkpt lat="46.1710640" lon="10.4802620">
	<ele>2383.60</ele>
	<time>2023-08-09T08:40:07.000Z</time>
</trkpt>
<trkpt lat="46.1710680" lon="10.4802680">
	<ele>2383.80</ele>
	<time>2023-08-09T08:40:08.000Z</time>
</trkpt>
<trkpt lat="46.1710700" lon="10.4802700">
	<ele>2383.80</ele>
	<time>2023-08-09T08:40:09.000Z</time>
</trkpt>
<trkpt lat="46.1710730" lon="10.4802760">
	<ele>2384.00</ele>
	<time>2023-08-09T08:40:10.000Z</time>
</trkpt>
<trkpt lat="46.1710800" lon="10.4802830">
	<ele>2384.00</ele>
	<time>2023-08-09T08:40:11.000Z</time>
</trkpt>
<trkpt lat="46.1710860" lon="10.4802930">
	<ele>2384.20</ele>
	<time>2023-08-09T08:40:12.000Z</time>
</trkpt>
<trkpt lat="46.1710900" lon="10.4803010">
	<ele>2384.40</ele>
	<time>2023-08-09T08:40:13.000Z</time>
</trkpt>
<trkpt lat="46.1710920" lon="10.4803110">
	<ele>2384.60</ele>
	<time>2023-08-09T08:40:14.000Z</time>
</trkpt>
<trkpt lat="46.1710930" lon="10.4803210">
	<ele>2384.80</ele>
	<time>2023-08-09T08:40:15.000Z</time>
</trkpt>
<trkpt lat="46.1710910" lon="10.4803270">
	<ele>2385.00</ele>
	<time>2023-08-09T08:40:16.000Z</time>
</trkpt>
<trkpt lat="46.1710900" lon="10.4803330">
	<ele>2385.20</ele>
	<time>2023-08-09T08:40:17.000Z</time>
</trkpt>
<trkpt lat="46.1710910" lon="10.4803390">
	<ele>2385.40</ele>
	<time>2023-08-09T08:40:18.000Z</time>
</trkpt>
<trkpt lat="46.1710930" lon="10.4803450">
	<ele>2385.40</ele>
	<time>2023-08-09T08:40:19.000Z</time>
</trkpt>
<trkpt lat="46.1710970" lon="10.4803520">
	<ele>2385.60</ele>
	<time>2023-08-09T08:40:20.000Z</time>
</trkpt>
<trkpt lat="46.1711010" lon="10.4803560">
	<ele>2385.80</ele>
	<time>2023-08-09T08:40:21.000Z</time>
</trkpt>
<trkpt lat="46.1711030" lon="10.4803580">
	<ele>2385.80</ele>
	<time>2023-08-09T08:40:22.000Z</time>
</trkpt>
<trkpt lat="46.1711110" lon="10.4803580">
	<ele>2386.00</ele>
	<time>2023-08-09T08:40:23.000Z</time>
</trkpt>
<trkpt lat="46.1711160" lon="10.4803640">
	<ele>2386.00</ele>
	<time>2023-08-09T08:40:24.000Z</time>
</trkpt>
<trkpt lat="46.1711190" lon="10.4803710">
	<ele>2386.20</ele>
	<time>2023-08-09T08:40:25.000Z</time>
</trkpt>
<trkpt lat="46.1711190" lon="10.4803790">
	<ele>2386.20</ele>
	<time>2023-08-09T08:40:26.000Z</time>
</trkpt>
<trkpt lat="46.1711200" lon="10.4803880">
	<ele>2386.40</ele>
	<time>2023-08-09T08:40:27.000Z</time>
</trkpt>
<trkpt lat="46.1711200" lon="10.4803940">
	<ele>2386.60</ele>
	<time>2023-08-09T08:40:28.000Z</time>
</trkpt>
<trkpt lat="46.1711190" lon="10.4803980">
	<ele>2386.80</ele>
	<time>2023-08-09T08:40:29.000Z</time>
</trkpt>
<trkpt lat="46.1711220" lon="10.4804060">
	<ele>2386.80</ele>
	<time>2023-08-09T08:40:30.000Z</time>
</trkpt>
<trkpt lat="46.1711230" lon="10.4804140">
	<ele>2387.00</ele>
	<time>2023-08-09T08:40:31.000Z</time>
</trkpt>
<trkpt lat="46.1711230" lon="10.4804250">
	<ele>2387.20</ele>
	<time>2023-08-09T08:40:32.000Z</time>
</trkpt>
<trkpt lat="46.1711230" lon="10.4804350">
	<ele>2387.40</ele>
	<time>2023-08-09T08:40:33.000Z</time>
</trkpt>
<trkpt lat="46.1711230" lon="10.4804440">
	<ele>2387.60</ele>
	<time>2023-08-09T08:40:34.000Z</time>
</trkpt>
<trkpt lat="46.1711240" lon="10.4804520">
	<ele>2387.60</ele>
	<time>2023-08-09T08:40:35.000Z</time>
</trkpt>
<trkpt lat="46.1711240" lon="10.4804630">
	<ele>2387.60</ele>
	<time>2023-08-09T08:40:36.000Z</time>
</trkpt>
<trkpt lat="46.1711240" lon="10.4804700">
	<ele>2388.00</ele>
	<time>2023-08-09T08:40:37.000Z</time>
</trkpt>
<trkpt lat="46.1711230" lon="10.4804750">
	<ele>2388.20</ele>
	<time>2023-08-09T08:40:38.000Z</time>
</trkpt>
<trkpt lat="46.1711240" lon="10.4804860">
	<ele>2388.20</ele>
	<time>2023-08-09T08:40:39.000Z</time>
</trkpt>
<trkpt lat="46.1711270" lon="10.4804940">
	<ele>2388.40</ele>
	<time>2023-08-09T08:40:40.000Z</time>
</trkpt>
<trkpt lat="46.1711310" lon="10.4804990">
	<ele>2388.60</ele>
	<time>2023-08-09T08:40:41.000Z</time>
</trkpt>
<trkpt lat="46.1711340" lon="10.4805070">
	<ele>2388.60</ele>
	<time>2023-08-09T08:40:42.000Z</time>
</trkpt>
<trkpt lat="46.1711370" lon="10.4805150">
	<ele>2388.80</ele>
	<time>2023-08-09T08:40:43.000Z</time>
</trkpt>
<trkpt lat="46.1711390" lon="10.4805220">
	<ele>2388.80</ele>
	<time>2023-08-09T08:40:44.000Z</time>
</trkpt>
<trkpt lat="46.1711440" lon="10.4805320">
	<ele>2388.80</ele>
	<time>2023-08-09T08:40:45.000Z</time>
</trkpt>
<trkpt lat="46.1711490" lon="10.4805380">
	<ele>2388.80</ele>
	<time>2023-08-09T08:40:46.000Z</time>
</trkpt>
<trkpt lat="46.1711520" lon="10.4805420">
	<ele>2389.00</ele>
	<time>2023-08-09T08:40:47.000Z</time>
</trkpt>
<trkpt lat="46.1711540" lon="10.4805500">
	<ele>2389.20</ele>
	<time>2023-08-09T08:40:48.000Z</time>
</trkpt>
<trkpt lat="46.1711550" lon="10.4805560">
	<ele>2389.40</ele>
	<time>2023-08-09T08:40:49.000Z</time>
</trkpt>
<trkpt lat="46.1711530" lon="10.4805650">
	<ele>2389.60</ele>
	<time>2023-08-09T08:40:50.000Z</time>
</trkpt>
<trkpt lat="46.1711490" lon="10.4805700">
	<ele>2389.80</ele>
	<time>2023-08-09T08:40:51.000Z</time>
</trkpt>
<trkpt lat="46.1711520" lon="10.4805760">
	<ele>2390.00</ele>
	<time>2023-08-09T08:40:52.000Z</time>
</trkpt>
<trkpt lat="46.1711560" lon="10.4805810">
	<ele>2390.00</ele>
	<time>2023-08-09T08:40:53.000Z</time>
</trkpt>
<trkpt lat="46.1711590" lon="10.4805890">
	<ele>2390.00</ele>
	<time>2023-08-09T08:40:54.000Z</time>
</trkpt>
<trkpt lat="46.1711630" lon="10.4806000">
	<ele>2390.00</ele>
	<time>2023-08-09T08:40:55.000Z</time>
</trkpt>
<trkpt lat="46.1711670" lon="10.4806070">
	<ele>2390.20</ele>
	<time>2023-08-09T08:40:56.000Z</time>
</trkpt>
<trkpt lat="46.1711680" lon="10.4806150">
	<ele>2390.20</ele>
	<time>2023-08-09T08:40:57.000Z</time>
</trkpt>
<trkpt lat="46.1711700" lon="10.4806200">
	<ele>2390.20</ele>
	<time>2023-08-09T08:40:58.000Z</time>
</trkpt>
<trkpt lat="46.1711730" lon="10.4806280">
	<ele>2390.40</ele>
	<time>2023-08-09T08:40:59.000Z</time>
</trkpt>
<trkpt lat="46.1711790" lon="10.4806410">
	<ele>2390.60</ele>
	<time>2023-08-09T08:41:00.000Z</time>
</trkpt>
<trkpt lat="46.1711810" lon="10.4806470">
	<ele>2390.60</ele>
	<time>2023-08-09T08:41:01.000Z</time>
</trkpt>
<trkpt lat="46.1711850" lon="10.4806550">
	<ele>2390.80</ele>
	<time>2023-08-09T08:41:02.000Z</time>
</trkpt>
<trkpt lat="46.1711900" lon="10.4806620">
	<ele>2390.80</ele>
	<time>2023-08-09T08:41:03.000Z</time>
</trkpt>
<trkpt lat="46.1711960" lon="10.4806710">
	<ele>2390.80</ele>
	<time>2023-08-09T08:41:04.000Z</time>
</trkpt>
<trkpt lat="46.1711980" lon="10.4806800">
	<ele>2390.80</ele>
	<time>2023-08-09T08:41:05.000Z</time>
</trkpt>
<trkpt lat="46.1711980" lon="10.4806900">
	<ele>2391.00</ele>
	<time>2023-08-09T08:41:06.000Z</time>
</trkpt>
<trkpt lat="46.1712000" lon="10.4807010">
	<ele>2391.00</ele>
	<time>2023-08-09T08:41:07.000Z</time>
</trkpt>
<trkpt lat="46.1712020" lon="10.4807110">
	<ele>2391.00</ele>
	<time>2023-08-09T08:41:08.000Z</time>
</trkpt>
<trkpt lat="46.1712050" lon="10.4807210">
	<ele>2391.00</ele>
	<time>2023-08-09T08:41:09.000Z</time>
</trkpt>
<trkpt lat="46.1712070" lon="10.4807270">
	<ele>2391.20</ele>
	<time>2023-08-09T08:41:10.000Z</time>
</trkpt>
<trkpt lat="46.1712100" lon="10.4807360">
	<ele>2391.20</ele>
	<time>2023-08-09T08:41:11.000Z</time>
</trkpt>
<trkpt lat="46.1712090" lon="10.4807440">
	<ele>2391.20</ele>
	<time>2023-08-09T08:41:12.000Z</time>
</trkpt>
<trkpt lat="46.1712090" lon="10.4807480">
	<ele>2391.20</ele>
	<time>2023-08-09T08:41:13.000Z</time>
</trkpt>
<trkpt lat="46.1712080" lon="10.4807490">
	<ele>2391.20</ele>
	<time>2023-08-09T08:41:14.000Z</time>
</trkpt>
<trkpt lat="46.1712060" lon="10.4807510">
	<ele>2391.20</ele>
	<time>2023-08-09T08:41:15.000Z</time>
</trkpt>
<trkpt lat="46.1712050" lon="10.4807520">
	<ele>2391.20</ele>
	<time>2023-08-09T08:41:16.000Z</time>
</trkpt>
<trkpt lat="46.1712060" lon="10.4807520">
	<ele>2391.20</ele>
	<time>2023-08-09T08:41:17.000Z</time>
</trkpt>
<trkpt lat="46.1712050" lon="10.4807540">
	<ele>2391.20</ele>
	<time>2023-08-09T08:41:18.000Z</time>
</trkpt>
<trkpt lat="46.1712040" lon="10.4807550">
	<ele>2391.20</ele>
	<time>2023-08-09T08:41:19.000Z</time>
</trkpt>
<trkpt lat="46.1712030" lon="10.4807550">
	<ele>2391.40</ele>
	<time>2023-08-09T08:41:20.000Z</time>
</trkpt>
<trkpt lat="46.1712020" lon="10.4807540">
	<ele>2391.40</ele>
	<time>2023-08-09T08:41:21.000Z</time>
</trkpt>
<trkpt lat="46.1712020" lon="10.4807540">
	<ele>2391.60</ele>
	<time>2023-08-09T08:41:22.000Z</time>
</trkpt>
<trkpt lat="46.1712020" lon="10.4807540">
	<ele>2391.60</ele>
	<time>2023-08-09T08:41:23.000Z</time>
</trkpt>
<trkpt lat="46.1712020" lon="10.4807540">
	<ele>2391.80</ele>
	<time>2023-08-09T08:41:24.000Z</time>
</trkpt>
<trkpt lat="46.1712020" lon="10.4807540">
	<ele>2391.80</ele>
	<time>2023-08-09T08:41:25.000Z</time>
</trkpt>
<trkpt lat="46.1712020" lon="10.4807540">
	<ele>2392.00</ele>
	<time>2023-08-09T08:41:26.000Z</time>
</trkpt>
<trkpt lat="46.1712020" lon="10.4807540">
	<ele>2392.00</ele>
	<time>2023-08-09T08:41:27.000Z</time>
</trkpt>
<trkpt lat="46.1712020" lon="10.4807540">
	<ele>2392.00</ele>
	<time>2023-08-09T08:41:28.000Z</time>
</trkpt>
<trkpt lat="46.1712020" lon="10.4807540">
	<ele>2392.00</ele>
	<time>2023-08-09T08:41:29.000Z</time>
</trkpt>
<trkpt lat="46.1712020" lon="10.4807540">
	<ele>2392.00</ele>
	<time>2023-08-09T08:41:30.000Z</time>
</trkpt>
<trkpt lat="46.1712020" lon="10.4807540">
	<ele>2392.00</ele>
	<time>2023-08-09T08:41:31.000Z</time>
</trkpt>
<trkpt lat="46.1712020" lon="10.4807540">
	<ele>2392.00</ele>
	<time>2023-08-09T08:41:32.000Z</time>
</trkpt>
<trkpt lat="46.1712020" lon="10.4807540">
	<ele>2392.00</ele>
	<time>2023-08-09T08:41:33.000Z</time>
</trkpt>
<trkpt lat="46.1712020" lon="10.4807540">
	<ele>2391.80</ele>
	<time>2023-08-09T08:41:34.000Z</time>
</trkpt>
<trkpt lat="46.1712020" lon="10.4807540">
	<ele>2391.80</ele>
	<time>2023-08-09T08:41:35.000Z</time>
</trkpt>
<trkpt lat="46.1712020" lon="10.4807540">
	<ele>2391.80</ele>
	<time>2023-08-09T08:41:36.000Z</time>
</trkpt>
<trkpt lat="46.1712020" lon="10.4807540">
	<ele>2392.00</ele>
	<time>2023-08-09T08:41:37.000Z</time>
</trkpt>
<trkpt lat="46.1712020" lon="10.4807540">
	<ele>2392.00</ele>
	<time>2023-08-09T08:41:38.000Z</time>
</trkpt>
<trkpt lat="46.1712020" lon="10.4807550">
	<ele>2392.00</ele>
	<time>2023-08-09T08:41:39.000Z</time>
</trkpt>
<trkpt lat="46.1712030" lon="10.4807550">
	<ele>2392.00</ele>
	<time>2023-08-09T08:41:40.000Z</time>
</trkpt>
<trkpt lat="46.1712030" lon="10.4807550">
	<ele>2392.00</ele>
	<time>2023-08-09T08:41:41.000Z</time>
</trkpt>
<trkpt lat="46.1712030" lon="10.4807550">
	<ele>2392.00</ele>
	<time>2023-08-09T08:41:42.000Z</time>
</trkpt>
<trkpt lat="46.1712030" lon="10.4807550">
	<ele>2392.00</ele>
	<time>2023-08-09T08:41:43.000Z</time>
</trkpt>
<trkpt lat="46.1712030" lon="10.4807550">
	<ele>2392.00</ele>
	<time>2023-08-09T08:41:44.000Z</time>
</trkpt>
<trkpt lat="46.1712030" lon="10.4807550">
	<ele>2392.00</ele>
	<time>2023-08-09T08:41:45.000Z</time>
</trkpt>
<trkpt lat="46.1712030" lon="10.4807550">
	<ele>2392.00</ele>
	<time>2023-08-09T08:41:46.000Z</time>
</trkpt>
<trkpt lat="46.1712030" lon="10.4807550">
	<ele>2392.00</ele>
	<time>2023-08-09T08:41:47.000Z</time>
</trkpt>
<trkpt lat="46.1712030" lon="10.4807550">
	<ele>2392.00</ele>
	<time>2023-08-09T08:41:48.000Z</time>
</trkpt>
<trkpt lat="46.1712030" lon="10.4807550">
	<ele>2392.00</ele>
	<time>2023-08-09T08:41:49.000Z</time>
</trkpt>
<trkpt lat="46.1712040" lon="10.4807560">
	<ele>2392.00</ele>
	<time>2023-08-09T08:41:50.000Z</time>
</trkpt>
<trkpt lat="46.1712040" lon="10.4807560">
	<ele>2392.00</ele>
	<time>2023-08-09T08:41:51.000Z</time>
</trkpt>
<trkpt lat="46.1712050" lon="10.4807560">
	<ele>2392.00</ele>
	<time>2023-08-09T08:41:52.000Z</time>
</trkpt>
<trkpt lat="46.1712050" lon="10.4807560">
	<ele>2392.00</ele>
	<time>2023-08-09T08:41:53.000Z</time>
</trkpt>
<trkpt lat="46.1712050" lon="10.4807560">
	<ele>2392.00</ele>
	<time>2023-08-09T08:41:54.000Z</time>
</trkpt>
<trkpt lat="46.1712060" lon="10.4807570">
	<ele>2392.00</ele>
	<time>2023-08-09T08:41:55.000Z</time>
</trkpt>
<trkpt lat="46.1712060" lon="10.4807570">
	<ele>2391.80</ele>
	<time>2023-08-09T08:41:56.000Z</time>
</trkpt>
<trkpt lat="46.1712060" lon="10.4807570">
	<ele>2391.80</ele>
	<time>2023-08-09T08:41:57.000Z</time>
</trkpt>
<trkpt lat="46.1712060" lon="10.4807580">
	<ele>2391.60</ele>
	<time>2023-08-09T08:41:58.000Z</time>
</trkpt>
<trkpt lat="46.1712070" lon="10.4807580">
	<ele>2391.40</ele>
	<time>2023-08-09T08:41:59.000Z</time>
</trkpt>
<trkpt lat="46.1712070" lon="10.4807580">
	<ele>2391.40</ele>
	<time>2023-08-09T08:42:00.000Z</time>
</trkpt>
<trkpt lat="46.1712070" lon="10.4807580">
	<ele>2391.20</ele>
	<time>2023-08-09T08:42:01.000Z</time>
</trkpt>
<trkpt lat="46.1712080" lon="10.4807580">
	<ele>2391.20</ele>
	<time>2023-08-09T08:42:02.000Z</time>
</trkpt>
<trkpt lat="46.1712080" lon="10.4807580">
	<ele>2391.20</ele>
	<time>2023-08-09T08:42:03.000Z</time>
</trkpt>
<trkpt lat="46.1712080" lon="10.4807580">
	<ele>2391.20</ele>
	<time>2023-08-09T08:42:04.000Z</time>
</trkpt>
<trkpt lat="46.1712080" lon="10.4807580">
	<ele>2391.20</ele>
	<time>2023-08-09T08:42:05.000Z</time>
</trkpt>
<trkpt lat="46.1712080" lon="10.4807580">
	<ele>2391.20</ele>
	<time>2023-08-09T08:42:06.000Z</time>
</trkpt>
<trkpt lat="46.1712090" lon="10.4807580">
	<ele>2391.20</ele>
	<time>2023-08-09T08:42:07.000Z</time>
</trkpt>
<trkpt lat="46.1712100" lon="10.4807590">
	<ele>2391.20</ele>
	<time>2023-08-09T08:42:08.000Z</time>
</trkpt>
<trkpt lat="46.1712100" lon="10.4807590">
	<ele>2391.20</ele>
	<time>2023-08-09T08:42:09.000Z</time>
</trkpt>
<trkpt lat="46.1712100" lon="10.4807590">
	<ele>2391.20</ele>
	<time>2023-08-09T08:42:10.000Z</time>
</trkpt>
<trkpt lat="46.1712100" lon="10.4807590">
	<ele>2391.20</ele>
	<time>2023-08-09T08:42:11.000Z</time>
</trkpt>
<trkpt lat="46.1712110" lon="10.4807590">
	<ele>2391.20</ele>
	<time>2023-08-09T08:42:12.000Z</time>
</trkpt>
<trkpt lat="46.1712110" lon="10.4807590">
	<ele>2391.20</ele>
	<time>2023-08-09T08:42:13.000Z</time>
</trkpt>
<trkpt lat="46.1712110" lon="10.4807590">
	<ele>2391.20</ele>
	<time>2023-08-09T08:42:14.000Z</time>
</trkpt>
<trkpt lat="46.1712110" lon="10.4807590">
	<ele>2391.20</ele>
	<time>2023-08-09T08:42:15.000Z</time>
</trkpt>
<trkpt lat="46.1712110" lon="10.4807590">
	<ele>2391.20</ele>
	<time>2023-08-09T08:42:16.000Z</time>
</trkpt>
<trkpt lat="46.1712120" lon="10.4807590">
	<ele>2391.20</ele>
	<time>2023-08-09T08:42:17.000Z</time>
</trkpt>
<trkpt lat="46.1712120" lon="10.4807590">
	<ele>2391.40</ele>
	<time>2023-08-09T08:42:18.000Z</time>
</trkpt>
<trkpt lat="46.1712120" lon="10.4807590">
	<ele>2391.40</ele>
	<time>2023-08-09T08:42:19.000Z</time>
</trkpt>
<trkpt lat="46.1712130" lon="10.4807590">
	<ele>2391.40</ele>
	<time>2023-08-09T08:42:20.000Z</time>
</trkpt>
<trkpt lat="46.1712130" lon="10.4807580">
	<ele>2391.40</ele>
	<time>2023-08-09T08:42:21.000Z</time>
</trkpt>
<trkpt lat="46.1712140" lon="10.4807580">
	<ele>2391.40</ele>
	<time>2023-08-09T08:42:22.000Z</time>
</trkpt>
<trkpt lat="46.1712150" lon="10.4807580">
	<ele>2391.40</ele>
	<time>2023-08-09T08:42:23.000Z</time>
</trkpt>
<trkpt lat="46.1712170" lon="10.4807580">
	<ele>2391.40</ele>
	<time>2023-08-09T08:42:24.000Z</time>
</trkpt>
<trkpt lat="46.1712180" lon="10.4807580">
	<ele>2391.20</ele>
	<time>2023-08-09T08:42:25.000Z</time>
</trkpt>
<trkpt lat="46.1712190" lon="10.4807580">
	<ele>2391.20</ele>
	<time>2023-08-09T08:42:26.000Z</time>
</trkpt>
<trkpt lat="46.1712200" lon="10.4807580">
	<ele>2391.20</ele>
	<time>2023-08-09T08:42:27.000Z</time>
</trkpt>
<trkpt lat="46.1712200" lon="10.4807580">
	<ele>2390.80</ele>
	<time>2023-08-09T08:42:28.000Z</time>
</trkpt>
<trkpt lat="46.1712210" lon="10.4807580">
	<ele>2390.60</ele>
	<time>2023-08-09T08:42:29.000Z</time>
</trkpt>
<trkpt lat="46.1712210" lon="10.4807590">
	<ele>2390.40</ele>
	<time>2023-08-09T08:42:30.000Z</time>
</trkpt>
<trkpt lat="46.1712210" lon="10.4807590">
	<ele>2390.20</ele>
	<time>2023-08-09T08:42:31.000Z</time>
</trkpt>
<trkpt lat="46.1712220" lon="10.4807600">
	<ele>2390.00</ele>
	<time>2023-08-09T08:42:32.000Z</time>
</trkpt>
<trkpt lat="46.1712220" lon="10.4807600">
	<ele>2389.80</ele>
	<time>2023-08-09T08:42:33.000Z</time>
</trkpt>
<trkpt lat="46.1712230" lon="10.4807600">
	<ele>2389.60</ele>
	<time>2023-08-09T08:42:34.000Z</time>
</trkpt>
<trkpt lat="46.1712230" lon="10.4807610">
	<ele>2389.20</ele>
	<time>2023-08-09T08:42:35.000Z</time>
</trkpt>
<trkpt lat="46.1712230" lon="10.4807610">
	<ele>2389.00</ele>
	<time>2023-08-09T08:42:36.000Z</time>
</trkpt>
<trkpt lat="46.1712230" lon="10.4807610">
	<ele>2388.60</ele>
	<time>2023-08-09T08:42:37.000Z</time>
</trkpt>
<trkpt lat="46.1712240" lon="10.4807610">
	<ele>2388.60</ele>
	<time>2023-08-09T08:42:38.000Z</time>
</trkpt>
<trkpt lat="46.1712250" lon="10.4807620">
	<ele>2388.40</ele>
	<time>2023-08-09T08:42:39.000Z</time>
</trkpt>
<trkpt lat="46.1712260" lon="10.4807650">
	<ele>2388.00</ele>
	<time>2023-08-09T08:42:40.000Z</time>
</trkpt>
<trkpt lat="46.1712260" lon="10.4807680">
	<ele>2388.00</ele>
	<time>2023-08-09T08:42:41.000Z</time>
</trkpt>
<trkpt lat="46.1712290" lon="10.4807770">
	<ele>2387.80</ele>
	<time>2023-08-09T08:42:42.000Z</time>
</trkpt>
<trkpt lat="46.1712300" lon="10.4808000">
	<ele>2387.80</ele>
	<time>2023-08-09T08:42:43.000Z</time>
</trkpt>
<trkpt lat="46.1712300" lon="10.4808220">
	<ele>2388.00</ele>
	<time>2023-08-09T08:42:44.000Z</time>
</trkpt>
<trkpt lat="46.1712320" lon="10.4808430">
	<ele>2388.00</ele>
	<time>2023-08-09T08:42:45.000Z</time>
</trkpt>
<trkpt lat="46.1712320" lon="10.4808600">
	<ele>2388.00</ele>
	<time>2023-08-09T08:42:46.000Z</time>
</trkpt>
<trkpt lat="46.1712340" lon="10.4808720">
	<ele>2388.00</ele>
	<time>2023-08-09T08:42:47.000Z</time>
</trkpt>
<trkpt lat="46.1712340" lon="10.4808830">
	<ele>2387.80</ele>
	<time>2023-08-09T08:42:48.000Z</time>
</trkpt>
<trkpt lat="46.1712350" lon="10.4808910">
	<ele>2387.80</ele>
	<time>2023-08-09T08:42:49.000Z</time>
</trkpt>
<trkpt lat="46.1712380" lon="10.4809000">
	<ele>2387.60</ele>
	<time>2023-08-09T08:42:50.000Z</time>
</trkpt>
<trkpt lat="46.1712400" lon="10.4809090">
	<ele>2387.60</ele>
	<time>2023-08-09T08:42:51.000Z</time>
</trkpt>
<trkpt lat="46.1712400" lon="10.4809080">
	<ele>2387.60</ele>
	<time>2023-08-09T08:42:52.000Z</time>
</trkpt>
<trkpt lat="46.1712400" lon="10.4809070">
	<ele>2387.80</ele>
	<time>2023-08-09T08:42:53.000Z</time>
</trkpt>
<trkpt lat="46.1712400" lon="10.4809080">
	<ele>2388.00</ele>
	<time>2023-08-09T08:42:54.000Z</time>
</trkpt>
<trkpt lat="46.1712400" lon="10.4809070">
	<ele>2388.00</ele>
	<time>2023-08-09T08:42:55.000Z</time>
</trkpt>
<trkpt lat="46.1712390" lon="10.4809070">
	<ele>2388.20</ele>
	<time>2023-08-09T08:42:56.000Z</time>
</trkpt>
<trkpt lat="46.1712390" lon="10.4809070">
	<ele>2388.20</ele>
	<time>2023-08-09T08:42:57.000Z</time>
</trkpt>
<trkpt lat="46.1712390" lon="10.4809070">
	<ele>2388.20</ele>
	<time>2023-08-09T08:42:58.000Z</time>
</trkpt>
<trkpt lat="46.1712390" lon="10.4809070">
	<ele>2388.20</ele>
	<time>2023-08-09T08:42:59.000Z</time>
</trkpt>
<trkpt lat="46.1712390" lon="10.4809070">
	<ele>2388.00</ele>
	<time>2023-08-09T08:43:00.000Z</time>
</trkpt>
<trkpt lat="46.1712390" lon="10.4809070">
	<ele>2388.00</ele>
	<time>2023-08-09T08:43:01.000Z</time>
</trkpt>
<trkpt lat="46.1712390" lon="10.4809070">
	<ele>2388.00</ele>
	<time>2023-08-09T08:43:02.000Z</time>
</trkpt>
<trkpt lat="46.1712390" lon="10.4809070">
	<ele>2388.00</ele>
	<time>2023-08-09T08:43:03.000Z</time>
</trkpt>
<trkpt lat="46.1712390" lon="10.4809070">
	<ele>2388.00</ele>
	<time>2023-08-09T08:43:04.000Z</time>
</trkpt>
<trkpt lat="46.1712390" lon="10.4809070">
	<ele>2388.00</ele>
	<time>2023-08-09T08:43:05.000Z</time>
</trkpt>
<trkpt lat="46.1712390" lon="10.4809070">
	<ele>2388.00</ele>
	<time>2023-08-09T08:43:06.000Z</time>
</trkpt>
<trkpt lat="46.1712390" lon="10.4809070">
	<ele>2388.00</ele>
	<time>2023-08-09T08:43:07.000Z</time>
</trkpt>
<trkpt lat="46.1712390" lon="10.4809070">
	<ele>2388.00</ele>
	<time>2023-08-09T08:43:08.000Z</time>
</trkpt>
<trkpt lat="46.1712390" lon="10.4809070">
	<ele>2387.80</ele>
	<time>2023-08-09T08:43:09.000Z</time>
</trkpt>
<trkpt lat="46.1712390" lon="10.4809070">
	<ele>2387.80</ele>
	<time>2023-08-09T08:43:10.000Z</time>
</trkpt>
<trkpt lat="46.1712390" lon="10.4809080">
	<ele>2387.80</ele>
	<time>2023-08-09T08:43:11.000Z</time>
</trkpt>
<trkpt lat="46.1712390" lon="10.4809090">
	<ele>2387.80</ele>
	<time>2023-08-09T08:43:12.000Z</time>
</trkpt>
<trkpt lat="46.1712390" lon="10.4809090">
	<ele>2387.80</ele>
	<time>2023-08-09T08:43:13.000Z</time>
</trkpt>
<trkpt lat="46.1712400" lon="10.4809090">
	<ele>2387.80</ele>
	<time>2023-08-09T08:43:14.000Z</time>
</trkpt>
<trkpt lat="46.1712400" lon="10.4809100">
	<ele>2387.80</ele>
	<time>2023-08-09T08:43:15.000Z</time>
</trkpt>
<trkpt lat="46.1712400" lon="10.4809100">
	<ele>2387.80</ele>
	<time>2023-08-09T08:43:16.000Z</time>
</trkpt>
<trkpt lat="46.1712400" lon="10.4809100">
	<ele>2387.80</ele>
	<time>2023-08-09T08:43:17.000Z</time>
</trkpt>
<trkpt lat="46.1712400" lon="10.4809100">
	<ele>2387.60</ele>
	<time>2023-08-09T08:43:18.000Z</time>
</trkpt>
<trkpt lat="46.1712400" lon="10.4809110">
	<ele>2387.60</ele>
	<time>2023-08-09T08:43:19.000Z</time>
</trkpt>
<trkpt lat="46.1712400" lon="10.4809120">
	<ele>2387.60</ele>
	<time>2023-08-09T08:43:20.000Z</time>
</trkpt>
<trkpt lat="46.1712400" lon="10.4809130">
	<ele>2387.60</ele>
	<time>2023-08-09T08:43:21.000Z</time>
</trkpt>
<trkpt lat="46.1712420" lon="10.4809160">
	<ele>2387.60</ele>
	<time>2023-08-09T08:43:22.000Z</time>
</trkpt>
<trkpt lat="46.1712420" lon="10.4809170">
	<ele>2387.60</ele>
	<time>2023-08-09T08:43:23.000Z</time>
</trkpt>
<trkpt lat="46.1712430" lon="10.4809190">
	<ele>2387.60</ele>
	<time>2023-08-09T08:43:24.000Z</time>
</trkpt>
<trkpt lat="46.1712430" lon="10.4809210">
	<ele>2387.60</ele>
	<time>2023-08-09T08:43:25.000Z</time>
</trkpt>
<trkpt lat="46.1712450" lon="10.4809250">
	<ele>2387.60</ele>
	<time>2023-08-09T08:43:26.000Z</time>
</trkpt>
<trkpt lat="46.1712470" lon="10.4809260">
	<ele>2387.60</ele>
	<time>2023-08-09T08:43:27.000Z</time>
</trkpt>
<trkpt lat="46.1712480" lon="10.4809260">
	<ele>2387.60</ele>
	<time>2023-08-09T08:43:28.000Z</time>
</trkpt>
<trkpt lat="46.1712480" lon="10.4809260">
	<ele>2387.80</ele>
	<time>2023-08-09T08:43:29.000Z</time>
</trkpt>
<trkpt lat="46.1712490" lon="10.4809260">
	<ele>2387.80</ele>
	<time>2023-08-09T08:43:30.000Z</time>
</trkpt>
<trkpt lat="46.1712500" lon="10.4809260">
	<ele>2387.80</ele>
	<time>2023-08-09T08:43:31.000Z</time>
</trkpt>
<trkpt lat="46.1712500" lon="10.4809260">
	<ele>2387.80</ele>
	<time>2023-08-09T08:43:32.000Z</time>
</trkpt>
<trkpt lat="46.1712500" lon="10.4809260">
	<ele>2387.80</ele>
	<time>2023-08-09T08:43:33.000Z</time>
</trkpt>
<trkpt lat="46.1712510" lon="10.4809260">
	<ele>2388.00</ele>
	<time>2023-08-09T08:43:34.000Z</time>
</trkpt>
<trkpt lat="46.1712510" lon="10.4809260">
	<ele>2388.00</ele>
	<time>2023-08-09T08:43:35.000Z</time>
</trkpt>
<trkpt lat="46.1712510" lon="10.4809260">
	<ele>2387.80</ele>
	<time>2023-08-09T08:43:36.000Z</time>
</trkpt>
<trkpt lat="46.1712510" lon="10.4809260">
	<ele>2387.80</ele>
	<time>2023-08-09T08:43:37.000Z</time>
</trkpt>
<trkpt lat="46.1712510" lon="10.4809260">
	<ele>2387.80</ele>
	<time>2023-08-09T08:43:38.000Z</time>
</trkpt>
<trkpt lat="46.1712510" lon="10.4809260">
	<ele>2387.80</ele>
	<time>2023-08-09T08:43:39.000Z</time>
</trkpt>
<trkpt lat="46.1712510" lon="10.4809270">
	<ele>2387.80</ele>
	<time>2023-08-09T08:43:40.000Z</time>
</trkpt>
<trkpt lat="46.1712530" lon="10.4809340">
	<ele>2387.60</ele>
	<time>2023-08-09T08:43:41.000Z</time>
</trkpt>
<trkpt lat="46.1712610" lon="10.4809470">
	<ele>2387.60</ele>
	<time>2023-08-09T08:43:42.000Z</time>
</trkpt>
<trkpt lat="46.1712650" lon="10.4809610">
	<ele>2387.60</ele>
	<time>2023-08-09T08:43:43.000Z</time>
</trkpt>
<trkpt lat="46.1712660" lon="10.4809800">
	<ele>2387.40</ele>
	<time>2023-08-09T08:43:44.000Z</time>
</trkpt>
<trkpt lat="46.1712660" lon="10.4809960">
	<ele>2387.20</ele>
	<time>2023-08-09T08:43:45.000Z</time>
</trkpt>
<trkpt lat="46.1712660" lon="10.4810130">
	<ele>2387.00</ele>
	<time>2023-08-09T08:43:46.000Z</time>
</trkpt>
<trkpt lat="46.1712710" lon="10.4810320">
	<ele>2387.00</ele>
	<time>2023-08-09T08:43:47.000Z</time>
</trkpt>
<trkpt lat="46.1712770" lon="10.4810540">
	<ele>2386.80</ele>
	<time>2023-08-09T08:43:48.000Z</time>
</trkpt>
<trkpt lat="46.1712790" lon="10.4810750">
	<ele>2386.80</ele>
	<time>2023-08-09T08:43:49.000Z</time>
</trkpt>
<trkpt lat="46.1712810" lon="10.4810950">
	<ele>2386.80</ele>
	<time>2023-08-09T08:43:50.000Z</time>
</trkpt>
<trkpt lat="46.1712800" lon="10.4811080">
	<ele>2386.80</ele>
	<time>2023-08-09T08:43:51.000Z</time>
</trkpt>
<trkpt lat="46.1712810" lon="10.4811190">
	<ele>2386.80</ele>
	<time>2023-08-09T08:43:52.000Z</time>
</trkpt>
<trkpt lat="46.1712840" lon="10.4811310">
	<ele>2386.80</ele>
	<time>2023-08-09T08:43:53.000Z</time>
</trkpt>
<trkpt lat="46.1712860" lon="10.4811450">
	<ele>2386.80</ele>
	<time>2023-08-09T08:43:54.000Z</time>
</trkpt>
<trkpt lat="46.1712870" lon="10.4811580">
	<ele>2386.80</ele>
	<time>2023-08-09T08:43:55.000Z</time>
</trkpt>
<trkpt lat="46.1712870" lon="10.4811700">
	<ele>2386.60</ele>
	<time>2023-08-09T08:43:56.000Z</time>
</trkpt>
<trkpt lat="46.1712840" lon="10.4811810">
	<ele>2386.60</ele>
	<time>2023-08-09T08:43:57.000Z</time>
</trkpt>
<trkpt lat="46.1712840" lon="10.4811900">
	<ele>2386.60</ele>
	<time>2023-08-09T08:43:58.000Z</time>
</trkpt>
<trkpt lat="46.1712840" lon="10.4812000">
	<ele>2386.80</ele>
	<time>2023-08-09T08:43:59.000Z</time>
</trkpt>
<trkpt lat="46.1712830" lon="10.4812080">
	<ele>2387.00</ele>
	<time>2023-08-09T08:44:00.000Z</time>
</trkpt>
<trkpt lat="46.1712850" lon="10.4812180">
	<ele>2387.00</ele>
	<time>2023-08-09T08:44:01.000Z</time>
</trkpt>
<trkpt lat="46.1712880" lon="10.4812310">
	<ele>2387.00</ele>
	<time>2023-08-09T08:44:02.000Z</time>
</trkpt>
<trkpt lat="46.1712880" lon="10.4812430">
	<ele>2387.00</ele>
	<time>2023-08-09T08:44:03.000Z</time>
</trkpt>
<trkpt lat="46.1712890" lon="10.4812550">
	<ele>2387.00</ele>
	<time>2023-08-09T08:44:04.000Z</time>
</trkpt>
<trkpt lat="46.1712850" lon="10.4812670">
	<ele>2387.20</ele>
	<time>2023-08-09T08:44:05.000Z</time>
</trkpt>
<trkpt lat="46.1712830" lon="10.4812780">
	<ele>2387.00</ele>
	<time>2023-08-09T08:44:06.000Z</time>
</trkpt>
<trkpt lat="46.1712820" lon="10.4812890">
	<ele>2387.00</ele>
	<time>2023-08-09T08:44:07.000Z</time>
</trkpt>
<trkpt lat="46.1712790" lon="10.4812980">
	<ele>2386.80</ele>
	<time>2023-08-09T08:44:08.000Z</time>
</trkpt>
<trkpt lat="46.1712780" lon="10.4813080">
	<ele>2386.80</ele>
	<time>2023-08-09T08:44:09.000Z</time>
</trkpt>
<trkpt lat="46.1712770" lon="10.4813150">
	<ele>2386.80</ele>
	<time>2023-08-09T08:44:10.000Z</time>
</trkpt>
<trkpt lat="46.1712760" lon="10.4813220">
	<ele>2387.00</ele>
	<time>2023-08-09T08:44:11.000Z</time>
</trkpt>
<trkpt lat="46.1712760" lon="10.4813250">
	<ele>2387.40</ele>
	<time>2023-08-09T08:44:12.000Z</time>
</trkpt>
<trkpt lat="46.1712730" lon="10.4813290">
	<ele>2387.40</ele>
	<time>2023-08-09T08:44:13.000Z</time>
</trkpt>
<trkpt lat="46.1712710" lon="10.4813370">
	<ele>2387.60</ele>
	<time>2023-08-09T08:44:14.000Z</time>
</trkpt>
<trkpt lat="46.1712690" lon="10.4813420">
	<ele>2387.80</ele>
	<time>2023-08-09T08:44:15.000Z</time>
</trkpt>
<trkpt lat="46.1712660" lon="10.4813460">
	<ele>2388.00</ele>
	<time>2023-08-09T08:44:16.000Z</time>
</trkpt>
<trkpt lat="46.1712590" lon="10.4813470">
	<ele>2388.20</ele>
	<time>2023-08-09T08:44:17.000Z</time>
</trkpt>
<trkpt lat="46.1712540" lon="10.4813520">
	<ele>2388.40</ele>
	<time>2023-08-09T08:44:18.000Z</time>
</trkpt>
<trkpt lat="46.1712470" lon="10.4813560">
	<ele>2388.60</ele>
	<time>2023-08-09T08:44:19.000Z</time>
</trkpt>
<trkpt lat="46.1712430" lon="10.4813590">
	<ele>2388.60</ele>
	<time>2023-08-09T08:44:20.000Z</time>
</trkpt>
<trkpt lat="46.1712410" lon="10.4813620">
	<ele>2389.00</ele>
	<time>2023-08-09T08:44:21.000Z</time>
</trkpt>
<trkpt lat="46.1712410" lon="10.4813650">
	<ele>2389.20</ele>
	<time>2023-08-09T08:44:22.000Z</time>
</trkpt>
<trkpt lat="46.1712390" lon="10.4813690">
	<ele>2389.40</ele>
	<time>2023-08-09T08:44:23.000Z</time>
</trkpt>
<trkpt lat="46.1712400" lon="10.4813740">
	<ele>2389.40</ele>
	<time>2023-08-09T08:44:24.000Z</time>
</trkpt>
<trkpt lat="46.1712410" lon="10.4813820">
	<ele>2389.40</ele>
	<time>2023-08-09T08:44:25.000Z</time>
</trkpt>
<trkpt lat="46.1712400" lon="10.4813900">
	<ele>2389.60</ele>
	<time>2023-08-09T08:44:26.000Z</time>
</trkpt>
<trkpt lat="46.1712410" lon="10.4813990">
	<ele>2389.60</ele>
	<time>2023-08-09T08:44:27.000Z</time>
</trkpt>
<trkpt lat="46.1712390" lon="10.4814070">
	<ele>2389.80</ele>
	<time>2023-08-09T08:44:28.000Z</time>
</trkpt>
<trkpt lat="46.1712350" lon="10.4814130">
	<ele>2390.00</ele>
	<time>2023-08-09T08:44:29.000Z</time>
</trkpt>
<trkpt lat="46.1712330" lon="10.4814170">
	<ele>2390.00</ele>
	<time>2023-08-09T08:44:30.000Z</time>
</trkpt>
<trkpt lat="46.1712280" lon="10.4814220">
	<ele>2390.20</ele>
	<time>2023-08-09T08:44:31.000Z</time>
</trkpt>
<trkpt lat="46.1712200" lon="10.4814270">
	<ele>2390.20</ele>
	<time>2023-08-09T08:44:32.000Z</time>
</trkpt>
<trkpt lat="46.1712140" lon="10.4814300">
	<ele>2390.60</ele>
	<time>2023-08-09T08:44:33.000Z</time>
</trkpt>
<trkpt lat="46.1712080" lon="10.4814290">
	<ele>2390.80</ele>
	<time>2023-08-09T08:44:34.000Z</time>
</trkpt>
<trkpt lat="46.1712060" lon="10.4814320">
	<ele>2391.00</ele>
	<time>2023-08-09T08:44:35.000Z</time>
</trkpt>
<trkpt lat="46.1712040" lon="10.4814350">
	<ele>2391.20</ele>
	<time>2023-08-09T08:44:36.000Z</time>
</trkpt>
<trkpt lat="46.1712030" lon="10.4814380">
	<ele>2391.20</ele>
	<time>2023-08-09T08:44:37.000Z</time>
</trkpt>
<trkpt lat="46.1711950" lon="10.4814410">
	<ele>2391.40</ele>
	<time>2023-08-09T08:44:38.000Z</time>
</trkpt>
<trkpt lat="46.1711910" lon="10.4814440">
	<ele>2391.40</ele>
	<time>2023-08-09T08:44:39.000Z</time>
</trkpt>
<trkpt lat="46.1711880" lon="10.4814480">
	<ele>2391.60</ele>
	<time>2023-08-09T08:44:40.000Z</time>
</trkpt>
<trkpt lat="46.1711850" lon="10.4814540">
	<ele>2391.60</ele>
	<time>2023-08-09T08:44:41.000Z</time>
</trkpt>
<trkpt lat="46.1711850" lon="10.4814600">
	<ele>2391.80</ele>
	<time>2023-08-09T08:44:42.000Z</time>
</trkpt>
<trkpt lat="46.1711840" lon="10.4814670">
	<ele>2392.00</ele>
	<time>2023-08-09T08:44:43.000Z</time>
</trkpt>
<trkpt lat="46.1711840" lon="10.4814720">
	<ele>2392.00</ele>
	<time>2023-08-09T08:44:44.000Z</time>
</trkpt>
<trkpt lat="46.1711860" lon="10.4814800">
	<ele>2392.20</ele>
	<time>2023-08-09T08:44:45.000Z</time>
</trkpt>
<trkpt lat="46.1711890" lon="10.4814920">
	<ele>2392.20</ele>
	<time>2023-08-09T08:44:46.000Z</time>
</trkpt>
<trkpt lat="46.1711870" lon="10.4814990">
	<ele>2392.20</ele>
	<time>2023-08-09T08:44:47.000Z</time>
</trkpt>
<trkpt lat="46.1711860" lon="10.4815100">
	<ele>2392.20</ele>
	<time>2023-08-09T08:44:48.000Z</time>
</trkpt>
<trkpt lat="46.1711850" lon="10.4815190">
	<ele>2392.40</ele>
	<time>2023-08-09T08:44:49.000Z</time>
</trkpt>
<trkpt lat="46.1711860" lon="10.4815270">
	<ele>2392.60</ele>
	<time>2023-08-09T08:44:50.000Z</time>
</trkpt>
<trkpt lat="46.1711860" lon="10.4815330">
	<ele>2392.80</ele>
	<time>2023-08-09T08:44:51.000Z</time>
</trkpt>
<trkpt lat="46.1711890" lon="10.4815420">
	<ele>2392.80</ele>
	<time>2023-08-09T08:44:52.000Z</time>
</trkpt>
<trkpt lat="46.1711910" lon="10.4815530">
	<ele>2393.00</ele>
	<time>2023-08-09T08:44:53.000Z</time>
</trkpt>
<trkpt lat="46.1711910" lon="10.4815630">
	<ele>2393.00</ele>
	<time>2023-08-09T08:44:54.000Z</time>
</trkpt>
<trkpt lat="46.1711920" lon="10.4815730">
	<ele>2393.00</ele>
	<time>2023-08-09T08:44:55.000Z</time>
</trkpt>
<trkpt lat="46.1711900" lon="10.4815840">
	<ele>2393.00</ele>
	<time>2023-08-09T08:44:56.000Z</time>
</trkpt>
<trkpt lat="46.1711890" lon="10.4815900">
	<ele>2393.20</ele>
	<time>2023-08-09T08:44:57.000Z</time>
</trkpt>
<trkpt lat="46.1711870" lon="10.4815940">
	<ele>2393.40</ele>
	<time>2023-08-09T08:44:58.000Z</time>
</trkpt>
<trkpt lat="46.1711860" lon="10.4815960">
	<ele>2393.80</ele>
	<time>2023-08-09T08:44:59.000Z</time>
</trkpt>
<trkpt lat="46.1711840" lon="10.4815990">
	<ele>2393.80</ele>
	<time>2023-08-09T08:45:00.000Z</time>
</trkpt>
<trkpt lat="46.1711810" lon="10.4816020">
	<ele>2394.00</ele>
	<time>2023-08-09T08:45:01.000Z</time>
</trkpt>
<trkpt lat="46.1711820" lon="10.4816080">
	<ele>2394.20</ele>
	<time>2023-08-09T08:45:02.000Z</time>
</trkpt>
<trkpt lat="46.1711800" lon="10.4816160">
	<ele>2394.20</ele>
	<time>2023-08-09T08:45:03.000Z</time>
</trkpt>
<trkpt lat="46.1711800" lon="10.4816250">
	<ele>2394.20</ele>
	<time>2023-08-09T08:45:04.000Z</time>
</trkpt>
<trkpt lat="46.1711820" lon="10.4816340">
	<ele>2394.40</ele>
	<time>2023-08-09T08:45:05.000Z</time>
</trkpt>
<trkpt lat="46.1711840" lon="10.4816430">
	<ele>2394.60</ele>
	<time>2023-08-09T08:45:06.000Z</time>
</trkpt>
<trkpt lat="46.1711870" lon="10.4816480">
	<ele>2394.80</ele>
	<time>2023-08-09T08:45:07.000Z</time>
</trkpt>
<trkpt lat="46.1711890" lon="10.4816550">
	<ele>2394.80</ele>
	<time>2023-08-09T08:45:08.000Z</time>
</trkpt>
<trkpt lat="46.1711870" lon="10.4816610">
	<ele>2394.80</ele>
	<time>2023-08-09T08:45:09.000Z</time>
</trkpt>
<trkpt lat="46.1711870" lon="10.4816670">
	<ele>2395.00</ele>
	<time>2023-08-09T08:45:10.000Z</time>
</trkpt>
<trkpt lat="46.1711880" lon="10.4816730">
	<ele>2395.00</ele>
	<time>2023-08-09T08:45:11.000Z</time>
</trkpt>
<trkpt lat="46.1711930" lon="10.4816830">
	<ele>2395.00</ele>
	<time>2023-08-09T08:45:12.000Z</time>
</trkpt>
<trkpt lat="46.1711930" lon="10.4816960">
	<ele>2395.00</ele>
	<time>2023-08-09T08:45:13.000Z</time>
</trkpt>
<trkpt lat="46.1711950" lon="10.4817100">
	<ele>2395.20</ele>
	<time>2023-08-09T08:45:14.000Z</time>
</trkpt>
<trkpt lat="46.1711950" lon="10.4817200">
	<ele>2395.20</ele>
	<time>2023-08-09T08:45:15.000Z</time>
</trkpt>
<trkpt lat="46.1711960" lon="10.4817270">
	<ele>2395.40</ele>
	<time>2023-08-09T08:45:16.000Z</time>
</trkpt>
<trkpt lat="46.1712010" lon="10.4817340">
	<ele>2395.40</ele>
	<time>2023-08-09T08:45:17.000Z</time>
</trkpt>
<trkpt lat="46.1712020" lon="10.4817410">
	<ele>2395.40</ele>
	<time>2023-08-09T08:45:18.000Z</time>
</trkpt>
<trkpt lat="46.1712080" lon="10.4817500">
	<ele>2395.40</ele>
	<time>2023-08-09T08:45:19.000Z</time>
</trkpt>
<trkpt lat="46.1712120" lon="10.4817640">
	<ele>2395.60</ele>
	<time>2023-08-09T08:45:20.000Z</time>
</trkpt>
<trkpt lat="46.1712170" lon="10.4817750">
	<ele>2395.60</ele>
	<time>2023-08-09T08:45:21.000Z</time>
</trkpt>
<trkpt lat="46.1712180" lon="10.4817850">
	<ele>2395.60</ele>
	<time>2023-08-09T08:45:22.000Z</time>
</trkpt>
<trkpt lat="46.1712200" lon="10.4817950">
	<ele>2395.60</ele>
	<time>2023-08-09T08:45:23.000Z</time>
</trkpt>
<trkpt lat="46.1712210" lon="10.4818070">
	<ele>2395.60</ele>
	<time>2023-08-09T08:45:24.000Z</time>
</trkpt>
<trkpt lat="46.1712190" lon="10.4818150">
	<ele>2395.80</ele>
	<time>2023-08-09T08:45:25.000Z</time>
</trkpt>
<trkpt lat="46.1712200" lon="10.4818280">
	<ele>2395.60</ele>
	<time>2023-08-09T08:45:26.000Z</time>
</trkpt>
<trkpt lat="46.1712180" lon="10.4818390">
	<ele>2395.80</ele>
	<time>2023-08-09T08:45:27.000Z</time>
</trkpt>
<trkpt lat="46.1712180" lon="10.4818510">
	<ele>2395.80</ele>
	<time>2023-08-09T08:45:28.000Z</time>
</trkpt>
<trkpt lat="46.1712140" lon="10.4818640">
	<ele>2395.80</ele>
	<time>2023-08-09T08:45:29.000Z</time>
</trkpt>
<trkpt lat="46.1712110" lon="10.4818730">
	<ele>2395.60</ele>
	<time>2023-08-09T08:45:30.000Z</time>
</trkpt>
<trkpt lat="46.1712080" lon="10.4818790">
	<ele>2395.60</ele>
	<time>2023-08-09T08:45:31.000Z</time>
</trkpt>
<trkpt lat="46.1712070" lon="10.4818810">
	<ele>2395.80</ele>
	<time>2023-08-09T08:45:32.000Z</time>
</trkpt>
<trkpt lat="46.1712080" lon="10.4818890">
	<ele>2395.80</ele>
	<time>2023-08-09T08:45:33.000Z</time>
</trkpt>
<trkpt lat="46.1712070" lon="10.4818950">
	<ele>2395.80</ele>
	<time>2023-08-09T08:45:34.000Z</time>
</trkpt>
<trkpt lat="46.1712050" lon="10.4819040">
	<ele>2396.00</ele>
	<time>2023-08-09T08:45:35.000Z</time>
</trkpt>
<trkpt lat="46.1712010" lon="10.4819140">
	<ele>2396.20</ele>
	<time>2023-08-09T08:45:36.000Z</time>
</trkpt>
<trkpt lat="46.1711940" lon="10.4819220">
	<ele>2396.40</ele>
	<time>2023-08-09T08:45:37.000Z</time>
</trkpt>
<trkpt lat="46.1711920" lon="10.4819280">
	<ele>2396.40</ele>
	<time>2023-08-09T08:45:38.000Z</time>
</trkpt>
<trkpt lat="46.1711900" lon="10.4819400">
	<ele>2396.60</ele>
	<time>2023-08-09T08:45:39.000Z</time>
</trkpt>
<trkpt lat="46.1711880" lon="10.4819530">
	<ele>2396.60</ele>
	<time>2023-08-09T08:45:40.000Z</time>
</trkpt>
<trkpt lat="46.1711860" lon="10.4819640">
	<ele>2396.60</ele>
	<time>2023-08-09T08:45:41.000Z</time>
</trkpt>
<trkpt lat="46.1711850" lon="10.4819750">
	<ele>2396.60</ele>
	<time>2023-08-09T08:45:42.000Z</time>
</trkpt>
<trkpt lat="46.1711840" lon="10.4819830">
	<ele>2396.40</ele>
	<time>2023-08-09T08:45:43.000Z</time>
</trkpt>
<trkpt lat="46.1711860" lon="10.4819920">
	<ele>2396.40</ele>
	<time>2023-08-09T08:45:44.000Z</time>
</trkpt>
<trkpt lat="46.1711860" lon="10.4820000">
	<ele>2396.40</ele>
	<time>2023-08-09T08:45:45.000Z</time>
</trkpt>
<trkpt lat="46.1711860" lon="10.4820100">
	<ele>2396.40</ele>
	<time>2023-08-09T08:45:46.000Z</time>
</trkpt>
<trkpt lat="46.1711860" lon="10.4820180">
	<ele>2396.20</ele>
	<time>2023-08-09T08:45:47.000Z</time>
</trkpt>
<trkpt lat="46.1711900" lon="10.4820240">
	<ele>2396.20</ele>
	<time>2023-08-09T08:45:48.000Z</time>
</trkpt>
<trkpt lat="46.1711930" lon="10.4820350">
	<ele>2396.20</ele>
	<time>2023-08-09T08:45:49.000Z</time>
</trkpt>
<trkpt lat="46.1711950" lon="10.4820470">
	<ele>2396.20</ele>
	<time>2023-08-09T08:45:50.000Z</time>
</trkpt>
<trkpt lat="46.1711980" lon="10.4820550">
	<ele>2396.20</ele>
	<time>2023-08-09T08:45:51.000Z</time>
</trkpt>
<trkpt lat="46.1711940" lon="10.4820600">
	<ele>2396.20</ele>
	<time>2023-08-09T08:45:52.000Z</time>
</trkpt>
<trkpt lat="46.1711910" lon="10.4820650">
	<ele>2396.40</ele>
	<time>2023-08-09T08:45:53.000Z</time>
</trkpt>
<trkpt lat="46.1711900" lon="10.4820700">
	<ele>2396.40</ele>
	<time>2023-08-09T08:45:54.000Z</time>
</trkpt>
<trkpt lat="46.1711900" lon="10.4820750">
	<ele>2396.60</ele>
	<time>2023-08-09T08:45:55.000Z</time>
</trkpt>
<trkpt lat="46.1711890" lon="10.4820770">
	<ele>2396.80</ele>
	<time>2023-08-09T08:45:56.000Z</time>
</trkpt>
<trkpt lat="46.1711870" lon="10.4820800">
	<ele>2397.00</ele>
	<time>2023-08-09T08:45:57.000Z</time>
</trkpt>
<trkpt lat="46.1711870" lon="10.4820850">
	<ele>2397.20</ele>
	<time>2023-08-09T08:45:58.000Z</time>
</trkpt>
<trkpt lat="46.1711930" lon="10.4820920">
	<ele>2397.20</ele>
	<time>2023-08-09T08:45:59.000Z</time>
</trkpt>
<trkpt lat="46.1711990" lon="10.4820980">
	<ele>2397.20</ele>
	<time>2023-08-09T08:46:00.000Z</time>
</trkpt>
<trkpt lat="46.1712020" lon="10.4821080">
	<ele>2397.20</ele>
	<time>2023-08-09T08:46:01.000Z</time>
</trkpt>
<trkpt lat="46.1712040" lon="10.4821190">
	<ele>2397.40</ele>
	<time>2023-08-09T08:46:02.000Z</time>
</trkpt>
<trkpt lat="46.1712080" lon="10.4821290">
	<ele>2397.40</ele>
	<time>2023-08-09T08:46:03.000Z</time>
</trkpt>
<trkpt lat="46.1712120" lon="10.4821380">
	<ele>2397.20</ele>
	<time>2023-08-09T08:46:04.000Z</time>
</trkpt>
<trkpt lat="46.1712190" lon="10.4821490">
	<ele>2397.20</ele>
	<time>2023-08-09T08:46:05.000Z</time>
</trkpt>
<trkpt lat="46.1712240" lon="10.4821610">
	<ele>2397.20</ele>
	<time>2023-08-09T08:46:06.000Z</time>
</trkpt>
<trkpt lat="46.1712300" lon="10.4821760">
	<ele>2397.20</ele>
	<time>2023-08-09T08:46:07.000Z</time>
</trkpt>
<trkpt lat="46.1712350" lon="10.4821890">
	<ele>2397.00</ele>
	<time>2023-08-09T08:46:08.000Z</time>
</trkpt>
<trkpt lat="46.1712380" lon="10.4822000">
	<ele>2396.80</ele>
	<time>2023-08-09T08:46:09.000Z</time>
</trkpt>
<trkpt lat="46.1712390" lon="10.4822080">
	<ele>2396.80</ele>
	<time>2023-08-09T08:46:10.000Z</time>
</trkpt>
<trkpt lat="46.1712410" lon="10.4822200">
	<ele>2396.60</ele>
	<time>2023-08-09T08:46:11.000Z</time>
</trkpt>
<trkpt lat="46.1712430" lon="10.4822320">
	<ele>2396.60</ele>
	<time>2023-08-09T08:46:12.000Z</time>
</trkpt>
<trkpt lat="46.1712450" lon="10.4822460">
	<ele>2396.60</ele>
	<time>2023-08-09T08:46:13.000Z</time>
</trkpt>
<trkpt lat="46.1712490" lon="10.4822560">
	<ele>2396.60</ele>
	<time>2023-08-09T08:46:14.000Z</time>
</trkpt>
<trkpt lat="46.1712510" lon="10.4822670">
	<ele>2396.60</ele>
	<time>2023-08-09T08:46:15.000Z</time>
</trkpt>
<trkpt lat="46.1712530" lon="10.4822770">
	<ele>2396.60</ele>
	<time>2023-08-09T08:46:16.000Z</time>
</trkpt>
<trkpt lat="46.1712540" lon="10.4822880">
	<ele>2396.60</ele>
	<time>2023-08-09T08:46:17.000Z</time>
</trkpt>
<trkpt lat="46.1712540" lon="10.4823000">
	<ele>2396.60</ele>
	<time>2023-08-09T08:46:18.000Z</time>
</trkpt>
<trkpt lat="46.1712570" lon="10.4823110">
	<ele>2396.60</ele>
	<time>2023-08-09T08:46:19.000Z</time>
</trkpt>
<trkpt lat="46.1712600" lon="10.4823200">
	<ele>2396.60</ele>
	<time>2023-08-09T08:46:20.000Z</time>
</trkpt>
<trkpt lat="46.1712620" lon="10.4823280">
	<ele>2396.60</ele>
	<time>2023-08-09T08:46:21.000Z</time>
</trkpt>
<trkpt lat="46.1712630" lon="10.4823360">
	<ele>2396.60</ele>
	<time>2023-08-09T08:46:22.000Z</time>
</trkpt>
<trkpt lat="46.1712640" lon="10.4823450">
	<ele>2396.60</ele>
	<time>2023-08-09T08:46:23.000Z</time>
</trkpt>
<trkpt lat="46.1712640" lon="10.4823550">
	<ele>2396.40</ele>
	<time>2023-08-09T08:46:24.000Z</time>
</trkpt>
<trkpt lat="46.1712650" lon="10.4823660">
	<ele>2396.40</ele>
	<time>2023-08-09T08:46:25.000Z</time>
</trkpt>
<trkpt lat="46.1712650" lon="10.4823750">
	<ele>2396.40</ele>
	<time>2023-08-09T08:46:26.000Z</time>
</trkpt>
<trkpt lat="46.1712680" lon="10.4823820">
	<ele>2396.40</ele>
	<time>2023-08-09T08:46:27.000Z</time>
</trkpt>
<trkpt lat="46.1712670" lon="10.4823930">
	<ele>2396.40</ele>
	<time>2023-08-09T08:46:28.000Z</time>
</trkpt>
<trkpt lat="46.1712670" lon="10.4824020">
	<ele>2396.60</ele>
	<time>2023-08-09T08:46:29.000Z</time>
</trkpt>
<trkpt lat="46.1712650" lon="10.4824080">
	<ele>2396.60</ele>
	<time>2023-08-09T08:46:30.000Z</time>
</trkpt>
<trkpt lat="46.1712620" lon="10.4824110">
	<ele>2396.80</ele>
	<time>2023-08-09T08:46:31.000Z</time>
</trkpt>
<trkpt lat="46.1712630" lon="10.4824170">
	<ele>2396.80</ele>
	<time>2023-08-09T08:46:32.000Z</time>
</trkpt>
<trkpt lat="46.1712600" lon="10.4824230">
	<ele>2397.00</ele>
	<time>2023-08-09T08:46:33.000Z</time>
</trkpt>
<trkpt lat="46.1712590" lon="10.4824320">
	<ele>2397.20</ele>
	<time>2023-08-09T08:46:34.000Z</time>
</trkpt>
<trkpt lat="46.1712560" lon="10.4824370">
	<ele>2397.20</ele>
	<time>2023-08-09T08:46:35.000Z</time>
</trkpt>
<trkpt lat="46.1712550" lon="10.4824430">
	<ele>2397.40</ele>
	<time>2023-08-09T08:46:36.000Z</time>
</trkpt>
<trkpt lat="46.1712550" lon="10.4824490">
	<ele>2397.60</ele>
	<time>2023-08-09T08:46:37.000Z</time>
</trkpt>
<trkpt lat="46.1712550" lon="10.4824530">
	<ele>2397.80</ele>
	<time>2023-08-09T08:46:38.000Z</time>
</trkpt>
<trkpt lat="46.1712570" lon="10.4824630">
	<ele>2398.00</ele>
	<time>2023-08-09T08:46:39.000Z</time>
</trkpt>
<trkpt lat="46.1712590" lon="10.4824730">
	<ele>2398.20</ele>
	<time>2023-08-09T08:46:40.000Z</time>
</trkpt>
<trkpt lat="46.1712600" lon="10.4824830">
	<ele>2398.20</ele>
	<time>2023-08-09T08:46:41.000Z</time>
</trkpt>
<trkpt lat="46.1712630" lon="10.4824950">
	<ele>2398.40</ele>
	<time>2023-08-09T08:46:42.000Z</time>
</trkpt>
<trkpt lat="46.1712650" lon="10.4825080">
	<ele>2398.40</ele>
	<time>2023-08-09T08:46:43.000Z</time>
</trkpt>
<trkpt lat="46.1712680" lon="10.4825190">
	<ele>2398.40</ele>
	<time>2023-08-09T08:46:44.000Z</time>
</trkpt>
<trkpt lat="46.1712710" lon="10.4825290">
	<ele>2398.40</ele>
	<time>2023-08-09T08:46:45.000Z</time>
</trkpt>
<trkpt lat="46.1712750" lon="10.4825360">
	<ele>2398.40</ele>
	<time>2023-08-09T08:46:46.000Z</time>
</trkpt>
<trkpt lat="46.1712790" lon="10.4825460">
	<ele>2398.40</ele>
	<time>2023-08-09T08:46:47.000Z</time>
</trkpt>
<trkpt lat="46.1712780" lon="10.4825540">
	<ele>2398.60</ele>
	<time>2023-08-09T08:46:48.000Z</time>
</trkpt>
<trkpt lat="46.1712800" lon="10.4825680">
	<ele>2398.80</ele>
	<time>2023-08-09T08:46:49.000Z</time>
</trkpt>
<trkpt lat="46.1712770" lon="10.4825770">
	<ele>2398.80</ele>
	<time>2023-08-09T08:46:50.000Z</time>
</trkpt>
<trkpt lat="46.1712750" lon="10.4825860">
	<ele>2399.00</ele>
	<time>2023-08-09T08:46:51.000Z</time>
</trkpt>
<trkpt lat="46.1712710" lon="10.4825990">
	<ele>2399.00</ele>
	<time>2023-08-09T08:46:52.000Z</time>
</trkpt>
<trkpt lat="46.1712700" lon="10.4826090">
	<ele>2399.00</ele>
	<time>2023-08-09T08:46:53.000Z</time>
</trkpt>
<trkpt lat="46.1712670" lon="10.4826140">
	<ele>2399.20</ele>
	<time>2023-08-09T08:46:54.000Z</time>
</trkpt>
<trkpt lat="46.1712650" lon="10.4826190">
	<ele>2399.40</ele>
	<time>2023-08-09T08:46:55.000Z</time>
</trkpt>
<trkpt lat="46.1712650" lon="10.4826250">
	<ele>2399.60</ele>
	<time>2023-08-09T08:46:56.000Z</time>
</trkpt>
<trkpt lat="46.1712670" lon="10.4826310">
	<ele>2399.60</ele>
	<time>2023-08-09T08:46:57.000Z</time>
</trkpt>
<trkpt lat="46.1712730" lon="10.4826370">
	<ele>2399.80</ele>
	<time>2023-08-09T08:46:58.000Z</time>
</trkpt>
<trkpt lat="46.1712780" lon="10.4826450">
	<ele>2399.80</ele>
	<time>2023-08-09T08:46:59.000Z</time>
</trkpt>
<trkpt lat="46.1712840" lon="10.4826520">
	<ele>2400.00</ele>
	<time>2023-08-09T08:47:00.000Z</time>
</trkpt>
<trkpt lat="46.1712840" lon="10.4826610">
	<ele>2400.00</ele>
	<time>2023-08-09T08:47:01.000Z</time>
</trkpt>
<trkpt lat="46.1712870" lon="10.4826680">
	<ele>2400.20</ele>
	<time>2023-08-09T08:47:02.000Z</time>
</trkpt>
<trkpt lat="46.1712900" lon="10.4826750">
	<ele>2400.20</ele>
	<time>2023-08-09T08:47:03.000Z</time>
</trkpt>
<trkpt lat="46.1712910" lon="10.4826880">
	<ele>2400.40</ele>
	<time>2023-08-09T08:47:04.000Z</time>
</trkpt>
<trkpt lat="46.1712930" lon="10.4826990">
	<ele>2400.40</ele>
	<time>2023-08-09T08:47:05.000Z</time>
</trkpt>
<trkpt lat="46.1712920" lon="10.4827100">
	<ele>2400.60</ele>
	<time>2023-08-09T08:47:06.000Z</time>
</trkpt>
<trkpt lat="46.1712930" lon="10.4827220">
	<ele>2400.80</ele>
	<time>2023-08-09T08:47:07.000Z</time>
</trkpt>
<trkpt lat="46.1712930" lon="10.4827280">
	<ele>2400.80</ele>
	<time>2023-08-09T08:47:08.000Z</time>
</trkpt>
<trkpt lat="46.1712920" lon="10.4827330">
	<ele>2400.80</ele>
	<time>2023-08-09T08:47:09.000Z</time>
</trkpt>
<trkpt lat="46.1712940" lon="10.4827390">
	<ele>2400.80</ele>
	<time>2023-08-09T08:47:10.000Z</time>
</trkpt>
<trkpt lat="46.1712960" lon="10.4827480">
	<ele>2400.80</ele>
	<time>2023-08-09T08:47:11.000Z</time>
</trkpt>
<trkpt lat="46.1712990" lon="10.4827620">
	<ele>2400.80</ele>
	<time>2023-08-09T08:47:12.000Z</time>
</trkpt>
<trkpt lat="46.1712990" lon="10.4827770">
	<ele>2400.60</ele>
	<time>2023-08-09T08:47:13.000Z</time>
</trkpt>
<trkpt lat="46.1713000" lon="10.4827930">
	<ele>2400.60</ele>
	<time>2023-08-09T08:47:14.000Z</time>
</trkpt>
<trkpt lat="46.1712990" lon="10.4828000">
	<ele>2400.60</ele>
	<time>2023-08-09T08:47:15.000Z</time>
</trkpt>
<trkpt lat="46.1712980" lon="10.4828070">
	<ele>2400.60</ele>
	<time>2023-08-09T08:47:16.000Z</time>
</trkpt>
<trkpt lat="46.1712970" lon="10.4828160">
	<ele>2400.80</ele>
	<time>2023-08-09T08:47:17.000Z</time>
</trkpt>
<trkpt lat="46.1712960" lon="10.4828250">
	<ele>2400.80</ele>
	<time>2023-08-09T08:47:18.000Z</time>
</trkpt>
<trkpt lat="46.1712970" lon="10.4828320">
	<ele>2401.00</ele>
	<time>2023-08-09T08:47:19.000Z</time>
</trkpt>
<trkpt lat="46.1712970" lon="10.4828430">
	<ele>2401.20</ele>
	<time>2023-08-09T08:47:20.000Z</time>
</trkpt>
<trkpt lat="46.1712970" lon="10.4828500">
	<ele>2401.40</ele>
	<time>2023-08-09T08:47:21.000Z</time>
</trkpt>
<trkpt lat="46.1712970" lon="10.4828580">
	<ele>2401.40</ele>
	<time>2023-08-09T08:47:22.000Z</time>
</trkpt>
<trkpt lat="46.1712970" lon="10.4828670">
	<ele>2401.60</ele>
	<time>2023-08-09T08:47:23.000Z</time>
</trkpt>
<trkpt lat="46.1712960" lon="10.4828760">
	<ele>2401.60</ele>
	<time>2023-08-09T08:47:24.000Z</time>
</trkpt>
<trkpt lat="46.1712970" lon="10.4828870">
	<ele>2401.80</ele>
	<time>2023-08-09T08:47:25.000Z</time>
</trkpt>
<trkpt lat="46.1712940" lon="10.4828940">
	<ele>2401.80</ele>
	<time>2023-08-09T08:47:26.000Z</time>
</trkpt>
<trkpt lat="46.1712930" lon="10.4829010">
	<ele>2401.80</ele>
	<time>2023-08-09T08:47:27.000Z</time>
</trkpt>
<trkpt lat="46.1712910" lon="10.4829070">
	<ele>2402.00</ele>
	<time>2023-08-09T08:47:28.000Z</time>
</trkpt>
<trkpt lat="46.1712910" lon="10.4829140">
	<ele>2402.00</ele>
	<time>2023-08-09T08:47:29.000Z</time>
</trkpt>
<trkpt lat="46.1712920" lon="10.4829210">
	<ele>2402.20</ele>
	<time>2023-08-09T08:47:30.000Z</time>
</trkpt>
<trkpt lat="46.1712920" lon="10.4829280">
	<ele>2402.40</ele>
	<time>2023-08-09T08:47:31.000Z</time>
</trkpt>
<trkpt lat="46.1712950" lon="10.4829370">
	<ele>2402.40</ele>
	<time>2023-08-09T08:47:32.000Z</time>
</trkpt>
<trkpt lat="46.1712980" lon="10.4829460">
	<ele>2402.60</ele>
	<time>2023-08-09T08:47:33.000Z</time>
</trkpt>
<trkpt lat="46.1712990" lon="10.4829550">
	<ele>2402.80</ele>
	<time>2023-08-09T08:47:34.000Z</time>
</trkpt>
<trkpt lat="46.1712990" lon="10.4829670">
	<ele>2402.80</ele>
	<time>2023-08-09T08:47:35.000Z</time>
</trkpt>
<trkpt lat="46.1712940" lon="10.4829760">
	<ele>2402.80</ele>
	<time>2023-08-09T08:47:36.000Z</time>
</trkpt>
<trkpt lat="46.1712890" lon="10.4829830">
	<ele>2403.00</ele>
	<time>2023-08-09T08:47:37.000Z</time>
</trkpt>
<trkpt lat="46.1712900" lon="10.4829940">
	<ele>2403.00</ele>
	<time>2023-08-09T08:47:38.000Z</time>
</trkpt>
<trkpt lat="46.1712910" lon="10.4830070">
	<ele>2403.20</ele>
	<time>2023-08-09T08:47:39.000Z</time>
</trkpt>
<trkpt lat="46.1712910" lon="10.4830160">
	<ele>2403.20</ele>
	<time>2023-08-09T08:47:40.000Z</time>
</trkpt>
<trkpt lat="46.1712910" lon="10.4830240">
	<ele>2403.20</ele>
	<time>2023-08-09T08:47:41.000Z</time>
</trkpt>
<trkpt lat="46.1712890" lon="10.4830350">
	<ele>2403.40</ele>
	<time>2023-08-09T08:47:42.000Z</time>
</trkpt>
<trkpt lat="46.1712910" lon="10.4830450">
	<ele>2403.40</ele>
	<time>2023-08-09T08:47:43.000Z</time>
</trkpt>
<trkpt lat="46.1712900" lon="10.4830540">
	<ele>2403.40</ele>
	<time>2023-08-09T08:47:44.000Z</time>
</trkpt>
<trkpt lat="46.1712880" lon="10.4830660">
	<ele>2403.60</ele>
	<time>2023-08-09T08:47:45.000Z</time>
</trkpt>
<trkpt lat="46.1712860" lon="10.4830760">
	<ele>2403.80</ele>
	<time>2023-08-09T08:47:46.000Z</time>
</trkpt>
<trkpt lat="46.1712850" lon="10.4830860">
	<ele>2403.80</ele>
	<time>2023-08-09T08:47:47.000Z</time>
</trkpt>
<trkpt lat="46.1712880" lon="10.4830970">
	<ele>2404.00</ele>
	<time>2023-08-09T08:47:48.000Z</time>
</trkpt>
<trkpt lat="46.1712880" lon="10.4831050">
	<ele>2404.00</ele>
	<time>2023-08-09T08:47:49.000Z</time>
</trkpt>
<trkpt lat="46.1712890" lon="10.4831140">
	<ele>2404.20</ele>
	<time>2023-08-09T08:47:50.000Z</time>
</trkpt>
<trkpt lat="46.1712890" lon="10.4831210">
	<ele>2404.20</ele>
	<time>2023-08-09T08:47:51.000Z</time>
</trkpt>
<trkpt lat="46.1712880" lon="10.4831240">
	<ele>2404.40</ele>
	<time>2023-08-09T08:47:52.000Z</time>
</trkpt>
<trkpt lat="46.1712850" lon="10.4831270">
	<ele>2404.60</ele>
	<time>2023-08-09T08:47:53.000Z</time>
</trkpt>
<trkpt lat="46.1712820" lon="10.4831300">
	<ele>2404.60</ele>
	<time>2023-08-09T08:47:54.000Z</time>
</trkpt>
<trkpt lat="46.1712790" lon="10.4831330">
	<ele>2404.60</ele>
	<time>2023-08-09T08:47:55.000Z</time>
</trkpt>
<trkpt lat="46.1712790" lon="10.4831360">
	<ele>2404.80</ele>
	<time>2023-08-09T08:47:56.000Z</time>
</trkpt>
<trkpt lat="46.1712800" lon="10.4831430">
	<ele>2404.80</ele>
	<time>2023-08-09T08:47:57.000Z</time>
</trkpt>
<trkpt lat="46.1712840" lon="10.4831520">
	<ele>2404.80</ele>
	<time>2023-08-09T08:47:58.000Z</time>
</trkpt>
<trkpt lat="46.1712840" lon="10.4831650">
	<ele>2405.00</ele>
	<time>2023-08-09T08:47:59.000Z</time>
</trkpt>
<trkpt lat="46.1712800" lon="10.4831750">
	<ele>2405.00</ele>
	<time>2023-08-09T08:48:00.000Z</time>
</trkpt>
<trkpt lat="46.1712770" lon="10.4831850">
	<ele>2405.00</ele>
	<time>2023-08-09T08:48:01.000Z</time>
</trkpt>
<trkpt lat="46.1712780" lon="10.4831910">
	<ele>2405.20</ele>
	<time>2023-08-09T08:48:02.000Z</time>
</trkpt>
<trkpt lat="46.1712810" lon="10.4832070">
	<ele>2405.20</ele>
	<time>2023-08-09T08:48:03.000Z</time>
</trkpt>
<trkpt lat="46.1712810" lon="10.4832230">
	<ele>2405.20</ele>
	<time>2023-08-09T08:48:04.000Z</time>
</trkpt>
<trkpt lat="46.1712780" lon="10.4832320">
	<ele>2405.40</ele>
	<time>2023-08-09T08:48:05.000Z</time>
</trkpt>
<trkpt lat="46.1712780" lon="10.4832390">
	<ele>2405.60</ele>
	<time>2023-08-09T08:48:06.000Z</time>
</trkpt>
<trkpt lat="46.1712810" lon="10.4832440">
	<ele>2405.80</ele>
	<time>2023-08-09T08:48:07.000Z</time>
</trkpt>
<trkpt lat="46.1712820" lon="10.4832530">
	<ele>2406.00</ele>
	<time>2023-08-09T08:48:08.000Z</time>
</trkpt>
<trkpt lat="46.1712830" lon="10.4832660">
	<ele>2406.00</ele>
	<time>2023-08-09T08:48:09.000Z</time>
</trkpt>
<trkpt lat="46.1712870" lon="10.4832780">
	<ele>2406.00</ele>
	<time>2023-08-09T08:48:10.000Z</time>
</trkpt>
<trkpt lat="46.1712860" lon="10.4832870">
	<ele>2406.20</ele>
	<time>2023-08-09T08:48:11.000Z</time>
</trkpt>
<trkpt lat="46.1712880" lon="10.4832950">
	<ele>2406.40</ele>
	<time>2023-08-09T08:48:12.000Z</time>
</trkpt>
<trkpt lat="46.1712920" lon="10.4833030">
	<ele>2406.40</ele>
	<time>2023-08-09T08:48:13.000Z</time>
</trkpt>
<trkpt lat="46.1712940" lon="10.4833150">
	<ele>2406.20</ele>
	<time>2023-08-09T08:48:14.000Z</time>
</trkpt>
<trkpt lat="46.1712960" lon="10.4833240">
	<ele>2406.20</ele>
	<time>2023-08-09T08:48:15.000Z</time>
</trkpt>
<trkpt lat="46.1712990" lon="10.4833370">
	<ele>2406.00</ele>
	<time>2023-08-09T08:48:16.000Z</time>
</trkpt>
<trkpt lat="46.1713020" lon="10.4833520">
	<ele>2406.00</ele>
	<time>2023-08-09T08:48:17.000Z</time>
</trkpt>
<trkpt lat="46.1713050" lon="10.4833660">
	<ele>2405.80</ele>
	<time>2023-08-09T08:48:18.000Z</time>
</trkpt>
<trkpt lat="46.1713060" lon="10.4833760">
	<ele>2405.80</ele>
	<time>2023-08-09T08:48:19.000Z</time>
</trkpt>
<trkpt lat="46.1713090" lon="10.4833890">
	<ele>2405.80</ele>
	<time>2023-08-09T08:48:20.000Z</time>
</trkpt>
<trkpt lat="46.1713120" lon="10.4834000">
	<ele>2405.60</ele>
	<time>2023-08-09T08:48:21.000Z</time>
</trkpt>
<trkpt lat="46.1713140" lon="10.4834140">
	<ele>2405.60</ele>
	<time>2023-08-09T08:48:22.000Z</time>
</trkpt>
<trkpt lat="46.1713120" lon="10.4834270">
	<ele>2405.60</ele>
	<time>2023-08-09T08:48:23.000Z</time>
</trkpt>
<trkpt lat="46.1713100" lon="10.4834360">
	<ele>2405.60</ele>
	<time>2023-08-09T08:48:24.000Z</time>
</trkpt>
<trkpt lat="46.1713050" lon="10.4834470">
	<ele>2405.60</ele>
	<time>2023-08-09T08:48:25.000Z</time>
</trkpt>
<trkpt lat="46.1713020" lon="10.4834570">
	<ele>2405.60</ele>
	<time>2023-08-09T08:48:26.000Z</time>
</trkpt>
<trkpt lat="46.1713040" lon="10.4834700">
	<ele>2405.60</ele>
	<time>2023-08-09T08:48:27.000Z</time>
</trkpt>
<trkpt lat="46.1713070" lon="10.4834800">
	<ele>2405.60</ele>
	<time>2023-08-09T08:48:28.000Z</time>
</trkpt>
<trkpt lat="46.1713090" lon="10.4834890">
	<ele>2405.60</ele>
	<time>2023-08-09T08:48:29.000Z</time>
</trkpt>
<trkpt lat="46.1713100" lon="10.4834980">
	<ele>2405.80</ele>
	<time>2023-08-09T08:48:30.000Z</time>
</trkpt>
<trkpt lat="46.1713080" lon="10.4835040">
	<ele>2406.00</ele>
	<time>2023-08-09T08:48:31.000Z</time>
</trkpt>
<trkpt lat="46.1713060" lon="10.4835080">
	<ele>2406.00</ele>
	<time>2023-08-09T08:48:32.000Z</time>
</trkpt>
<trkpt lat="46.1713070" lon="10.4835110">
	<ele>2406.00</ele>
	<time>2023-08-09T08:48:33.000Z</time>
</trkpt>
<trkpt lat="46.1713100" lon="10.4835160">
	<ele>2406.00</ele>
	<time>2023-08-09T08:48:34.000Z</time>
</trkpt>
<trkpt lat="46.1713100" lon="10.4835180">
	<ele>2406.00</ele>
	<time>2023-08-09T08:48:35.000Z</time>
</trkpt>
<trkpt lat="46.1713100" lon="10.4835210">
	<ele>2406.00</ele>
	<time>2023-08-09T08:48:36.000Z</time>
</trkpt>
<trkpt lat="46.1713110" lon="10.4835280">
	<ele>2406.00</ele>
	<time>2023-08-09T08:48:37.000Z</time>
</trkpt>
<trkpt lat="46.1713140" lon="10.4835320">
	<ele>2406.00</ele>
	<time>2023-08-09T08:48:38.000Z</time>
</trkpt>
<trkpt lat="46.1713230" lon="10.4835390">
	<ele>2406.00</ele>
	<time>2023-08-09T08:48:39.000Z</time>
</trkpt>
<trkpt lat="46.1713350" lon="10.4835440">
	<ele>2405.80</ele>
	<time>2023-08-09T08:48:40.000Z</time>
</trkpt>
<trkpt lat="46.1713420" lon="10.4835470">
	<ele>2405.80</ele>
	<time>2023-08-09T08:48:41.000Z</time>
</trkpt>
<trkpt lat="46.1713440" lon="10.4835530">
	<ele>2405.80</ele>
	<time>2023-08-09T08:48:42.000Z</time>
</trkpt>
<trkpt lat="46.1713490" lon="10.4835600">
	<ele>2405.80</ele>
	<time>2023-08-09T08:48:43.000Z</time>
</trkpt>
<trkpt lat="46.1713520" lon="10.4835660">
	<ele>2405.80</ele>
	<time>2023-08-09T08:48:44.000Z</time>
</trkpt>
<trkpt lat="46.1713560" lon="10.4835700">
	<ele>2405.80</ele>
	<time>2023-08-09T08:48:45.000Z</time>
</trkpt>
<trkpt lat="46.1713590" lon="10.4835720">
	<ele>2405.80</ele>
	<time>2023-08-09T08:48:46.000Z</time>
</trkpt>
<trkpt lat="46.1713630" lon="10.4835740">
	<ele>2405.80</ele>
	<time>2023-08-09T08:48:47.000Z</time>
</trkpt>
<trkpt lat="46.1713650" lon="10.4835750">
	<ele>2406.00</ele>
	<time>2023-08-09T08:48:48.000Z</time>
</trkpt>
<trkpt lat="46.1713680" lon="10.4835750">
	<ele>2406.00</ele>
	<time>2023-08-09T08:48:49.000Z</time>
</trkpt>
<trkpt lat="46.1713770" lon="10.4835760">
	<ele>2405.80</ele>
	<time>2023-08-09T08:48:50.000Z</time>
</trkpt>
<trkpt lat="46.1713840" lon="10.4835830">
	<ele>2405.80</ele>
	<time>2023-08-09T08:48:51.000Z</time>
</trkpt>
<trkpt lat="46.1713860" lon="10.4835860">
	<ele>2405.80</ele>
	<time>2023-08-09T08:48:52.000Z</time>
</trkpt>
<trkpt lat="46.1713940" lon="10.4835920">
	<ele>2405.60</ele>
	<time>2023-08-09T08:48:53.000Z</time>
</trkpt>
<trkpt lat="46.1713950" lon="10.4836000">
	<ele>2405.60</ele>
	<time>2023-08-09T08:48:54.000Z</time>
</trkpt>
<trkpt lat="46.1714000" lon="10.4836060">
	<ele>2405.60</ele>
	<time>2023-08-09T08:48:55.000Z</time>
</trkpt>
<trkpt lat="46.1713990" lon="10.4836130">
	<ele>2405.60</ele>
	<time>2023-08-09T08:48:56.000Z</time>
</trkpt>
<trkpt lat="46.1713990" lon="10.4836150">
	<ele>2405.60</ele>
	<time>2023-08-09T08:48:57.000Z</time>
</trkpt>
<trkpt lat="46.1714040" lon="10.4836230">
	<ele>2405.80</ele>
	<time>2023-08-09T08:48:58.000Z</time>
</trkpt>
<trkpt lat="46.1714060" lon="10.4836300">
	<ele>2405.80</ele>
	<time>2023-08-09T08:48:59.000Z</time>
</trkpt>
<trkpt lat="46.1714090" lon="10.4836350">
	<ele>2406.00</ele>
	<time>2023-08-09T08:49:00.000Z</time>
</trkpt>
<trkpt lat="46.1714090" lon="10.4836410">
	<ele>2406.00</ele>
	<time>2023-08-09T08:49:01.000Z</time>
</trkpt>
<trkpt lat="46.1714060" lon="10.4836480">
	<ele>2406.20</ele>
	<time>2023-08-09T08:49:02.000Z</time>
</trkpt>
<trkpt lat="46.1714050" lon="10.4836530">
	<ele>2406.20</ele>
	<time>2023-08-09T08:49:03.000Z</time>
</trkpt>
<trkpt lat="46.1714050" lon="10.4836580">
	<ele>2406.40</ele>
	<time>2023-08-09T08:49:04.000Z</time>
</trkpt>
<trkpt lat="46.1714050" lon="10.4836600">
	<ele>2406.60</ele>
	<time>2023-08-09T08:49:05.000Z</time>
</trkpt>
<trkpt lat="46.1714050" lon="10.4836620">
	<ele>2406.80</ele>
	<time>2023-08-09T08:49:06.000Z</time>
</trkpt>
<trkpt lat="46.1714060" lon="10.4836690">
	<ele>2406.80</ele>
	<time>2023-08-09T08:49:07.000Z</time>
</trkpt>
<trkpt lat="46.1714060" lon="10.4836740">
	<ele>2406.80</ele>
	<time>2023-08-09T08:49:08.000Z</time>
</trkpt>
<trkpt lat="46.1714050" lon="10.4836780">
	<ele>2407.00</ele>
	<time>2023-08-09T08:49:09.000Z</time>
</trkpt>
<trkpt lat="46.1714040" lon="10.4836800">
	<ele>2407.20</ele>
	<time>2023-08-09T08:49:10.000Z</time>
</trkpt>
<trkpt lat="46.1714050" lon="10.4836850">
	<ele>2407.40</ele>
	<time>2023-08-09T08:49:11.000Z</time>
</trkpt>
<trkpt lat="46.1714040" lon="10.4836880">
	<ele>2407.40</ele>
	<time>2023-08-09T08:49:12.000Z</time>
</trkpt>
<trkpt lat="46.1714040" lon="10.4836930">
	<ele>2407.60</ele>
	<time>2023-08-09T08:49:13.000Z</time>
</trkpt>
<trkpt lat="46.1714010" lon="10.4836980">
	<ele>2407.60</ele>
	<time>2023-08-09T08:49:14.000Z</time>
</trkpt>
<trkpt lat="46.1714000" lon="10.4837040">
	<ele>2407.80</ele>
	<time>2023-08-09T08:49:15.000Z</time>
</trkpt>
<trkpt lat="46.1714000" lon="10.4837090">
	<ele>2408.00</ele>
	<time>2023-08-09T08:49:16.000Z</time>
</trkpt>
<trkpt lat="46.1714000" lon="10.4837120">
	<ele>2408.20</ele>
	<time>2023-08-09T08:49:17.000Z</time>
</trkpt>
<trkpt lat="46.1714010" lon="10.4837160">
	<ele>2408.40</ele>
	<time>2023-08-09T08:49:18.000Z</time>
</trkpt>
<trkpt lat="46.1714010" lon="10.4837210">
	<ele>2408.40</ele>
	<time>2023-08-09T08:49:19.000Z</time>
</trkpt>
<trkpt lat="46.1714020" lon="10.4837260">
	<ele>2408.60</ele>
	<time>2023-08-09T08:49:20.000Z</time>
</trkpt>
<trkpt lat="46.1714020" lon="10.4837310">
	<ele>2408.60</ele>
	<time>2023-08-09T08:49:21.000Z</time>
</trkpt>
<trkpt lat="46.1714020" lon="10.4837330">
	<ele>2408.80</ele>
	<time>2023-08-09T08:49:22.000Z</time>
</trkpt>
<trkpt lat="46.1714050" lon="10.4837370">
	<ele>2408.80</ele>
	<time>2023-08-09T08:49:23.000Z</time>
</trkpt>
<trkpt lat="46.1714070" lon="10.4837430">
	<ele>2408.80</ele>
	<time>2023-08-09T08:49:24.000Z</time>
</trkpt>
<trkpt lat="46.1714110" lon="10.4837500">
	<ele>2409.00</ele>
	<time>2023-08-09T08:49:25.000Z</time>
</trkpt>
<trkpt lat="46.1714140" lon="10.4837530">
	<ele>2409.00</ele>
	<time>2023-08-09T08:49:26.000Z</time>
</trkpt>
<trkpt lat="46.1714150" lon="10.4837570">
	<ele>2409.40</ele>
	<time>2023-08-09T08:49:27.000Z</time>
</trkpt>
<trkpt lat="46.1714220" lon="10.4837640">
	<ele>2409.40</ele>
	<time>2023-08-09T08:49:28.000Z</time>
</trkpt>
<trkpt lat="46.1714250" lon="10.4837690">
	<ele>2409.60</ele>
	<time>2023-08-09T08:49:29.000Z</time>
</trkpt>
<trkpt lat="46.1714260" lon="10.4837730">
	<ele>2409.80</ele>
	<time>2023-08-09T08:49:30.000Z</time>
</trkpt>
<trkpt lat="46.1714280" lon="10.4837800">
	<ele>2409.80</ele>
	<time>2023-08-09T08:49:31.000Z</time>
</trkpt>
<trkpt lat="46.1714300" lon="10.4837850">
	<ele>2410.00</ele>
	<time>2023-08-09T08:49:32.000Z</time>
</trkpt>
<trkpt lat="46.1714320" lon="10.4837890">
	<ele>2410.00</ele>
	<time>2023-08-09T08:49:33.000Z</time>
</trkpt>
<trkpt lat="46.1714350" lon="10.4837970">
	<ele>2410.20</ele>
	<time>2023-08-09T08:49:34.000Z</time>
</trkpt>
<trkpt lat="46.1714370" lon="10.4838020">
	<ele>2410.20</ele>
	<time>2023-08-09T08:49:35.000Z</time>
</trkpt>
<trkpt lat="46.1714380" lon="10.4838030">
	<ele>2410.40</ele>
	<time>2023-08-09T08:49:36.000Z</time>
</trkpt>
<trkpt lat="46.1714410" lon="10.4838080">
	<ele>2410.40</ele>
	<time>2023-08-09T08:49:37.000Z</time>
</trkpt>
<trkpt lat="46.1714450" lon="10.4838190">
	<ele>2410.40</ele>
	<time>2023-08-09T08:49:38.000Z</time>
</trkpt>
<trkpt lat="46.1714470" lon="10.4838270">
	<ele>2410.60</ele>
	<time>2023-08-09T08:49:39.000Z</time>
</trkpt>
<trkpt lat="46.1714500" lon="10.4838310">
	<ele>2410.80</ele>
	<time>2023-08-09T08:49:40.000Z</time>
</trkpt>
<trkpt lat="46.1714540" lon="10.4838340">
	<ele>2411.00</ele>
	<time>2023-08-09T08:49:41.000Z</time>
</trkpt>
<trkpt lat="46.1714610" lon="10.4838380">
	<ele>2411.00</ele>
	<time>2023-08-09T08:49:42.000Z</time>
</trkpt>
<trkpt lat="46.1714650" lon="10.4838440">
	<ele>2411.20</ele>
	<time>2023-08-09T08:49:43.000Z</time>
</trkpt>
<trkpt lat="46.1714670" lon="10.4838490">
	<ele>2411.20</ele>
	<time>2023-08-09T08:49:44.000Z</time>
</trkpt>
<trkpt lat="46.1714700" lon="10.4838550">
	<ele>2411.20</ele>
	<time>2023-08-09T08:49:45.000Z</time>
</trkpt>
<trkpt lat="46.1714720" lon="10.4838600">
	<ele>2411.40</ele>
	<time>2023-08-09T08:49:46.000Z</time>
</trkpt>
<trkpt lat="46.1714740" lon="10.4838650">
	<ele>2411.40</ele>
	<time>2023-08-09T08:49:47.000Z</time>
</trkpt>
<trkpt lat="46.1714770" lon="10.4838690">
	<ele>2411.40</ele>
	<time>2023-08-09T08:49:48.000Z</time>
</trkpt>
<trkpt lat="46.1714780" lon="10.4838710">
	<ele>2411.60</ele>
	<time>2023-08-09T08:49:49.000Z</time>
</trkpt>
<trkpt lat="46.1714790" lon="10.4838760">
	<ele>2411.60</ele>
	<time>2023-08-09T08:49:50.000Z</time>
</trkpt>
<trkpt lat="46.1714790" lon="10.4838850">
	<ele>2411.80</ele>
	<time>2023-08-09T08:49:51.000Z</time>
</trkpt>
<trkpt lat="46.1714770" lon="10.4838890">
	<ele>2411.80</ele>
	<time>2023-08-09T08:49:52.000Z</time>
</trkpt>
<trkpt lat="46.1714730" lon="10.4838940">
	<ele>2411.80</ele>
	<time>2023-08-09T08:49:53.000Z</time>
</trkpt>
<trkpt lat="46.1714690" lon="10.4839010">
	<ele>2411.80</ele>
	<time>2023-08-09T08:49:54.000Z</time>
</trkpt>
<trkpt lat="46.1714660" lon="10.4839030">
	<ele>2411.80</ele>
	<time>2023-08-09T08:49:55.000Z</time>
</trkpt>
<trkpt lat="46.1714630" lon="10.4839020">
	<ele>2412.00</ele>
	<time>2023-08-09T08:49:56.000Z</time>
</trkpt>
<trkpt lat="46.1714610" lon="10.4839010">
	<ele>2412.20</ele>
	<time>2023-08-09T08:49:57.000Z</time>
</trkpt>
<trkpt lat="46.1714580" lon="10.4839010">
	<ele>2412.40</ele>
	<time>2023-08-09T08:49:58.000Z</time>
</trkpt>
<trkpt lat="46.1714560" lon="10.4839020">
	<ele>2412.60</ele>
	<time>2023-08-09T08:49:59.000Z</time>
</trkpt>
<trkpt lat="46.1714530" lon="10.4839030">
	<ele>2412.80</ele>
	<time>2023-08-09T08:50:00.000Z</time>
</trkpt>
<trkpt lat="46.1714480" lon="10.4839070">
	<ele>2413.00</ele>
	<time>2023-08-09T08:50:01.000Z</time>
</trkpt>
<trkpt lat="46.1714410" lon="10.4839060">
	<ele>2413.00</ele>
	<time>2023-08-09T08:50:02.000Z</time>
</trkpt>
<trkpt lat="46.1714370" lon="10.4839070">
	<ele>2413.20</ele>
	<time>2023-08-09T08:50:03.000Z</time>
</trkpt>
<trkpt lat="46.1714330" lon="10.4839070">
	<ele>2413.20</ele>
	<time>2023-08-09T08:50:04.000Z</time>
</trkpt>
<trkpt lat="46.1714280" lon="10.4839070">
	<ele>2413.20</ele>
	<time>2023-08-09T08:50:05.000Z</time>
</trkpt>
<trkpt lat="46.1714270" lon="10.4839090">
	<ele>2413.20</ele>
	<time>2023-08-09T08:50:06.000Z</time>
</trkpt>
<trkpt lat="46.1714250" lon="10.4839090">
	<ele>2413.40</ele>
	<time>2023-08-09T08:50:07.000Z</time>
</trkpt>
<trkpt lat="46.1714230" lon="10.4839100">
	<ele>2413.40</ele>
	<time>2023-08-09T08:50:08.000Z</time>
</trkpt>
<trkpt lat="46.1714190" lon="10.4839050">
	<ele>2413.60</ele>
	<time>2023-08-09T08:50:09.000Z</time>
</trkpt>
<trkpt lat="46.1714160" lon="10.4839020">
	<ele>2413.80</ele>
	<time>2023-08-09T08:50:10.000Z</time>
</trkpt>
<trkpt lat="46.1714140" lon="10.4839040">
	<ele>2414.00</ele>
	<time>2023-08-09T08:50:11.000Z</time>
</trkpt>
<trkpt lat="46.1714140" lon="10.4839080">
	<ele>2414.00</ele>
	<time>2023-08-09T08:50:12.000Z</time>
</trkpt>
<trkpt lat="46.1714110" lon="10.4839110">
	<ele>2414.20</ele>
	<time>2023-08-09T08:50:13.000Z</time>
</trkpt>
<trkpt lat="46.1714120" lon="10.4839130">
	<ele>2414.20</ele>
	<time>2023-08-09T08:50:14.000Z</time>
</trkpt>
<trkpt lat="46.1714130" lon="10.4839160">
	<ele>2414.20</ele>
	<time>2023-08-09T08:50:15.000Z</time>
</trkpt>
<trkpt lat="46.1714160" lon="10.4839240">
	<ele>2414.60</ele>
	<time>2023-08-09T08:50:16.000Z</time>
</trkpt>
<trkpt lat="46.1714170" lon="10.4839280">
	<ele>2414.80</ele>
	<time>2023-08-09T08:50:17.000Z</time>
</trkpt>
<trkpt lat="46.1714180" lon="10.4839320">
	<ele>2415.00</ele>
	<time>2023-08-09T08:50:18.000Z</time>
</trkpt>
<trkpt lat="46.1714190" lon="10.4839380">
	<ele>2415.00</ele>
	<time>2023-08-09T08:50:19.000Z</time>
</trkpt>
<trkpt lat="46.1714190" lon="10.4839420">
	<ele>2415.20</ele>
	<time>2023-08-09T08:50:20.000Z</time>
</trkpt>
<trkpt lat="46.1714150" lon="10.4839480">
	<ele>2415.20</ele>
	<time>2023-08-09T08:50:21.000Z</time>
</trkpt>
<trkpt lat="46.1714130" lon="10.4839580">
	<ele>2415.20</ele>
	<time>2023-08-09T08:50:22.000Z</time>
</trkpt>
<trkpt lat="46.1714120" lon="10.4839620">
	<ele>2415.20</ele>
	<time>2023-08-09T08:50:23.000Z</time>
</trkpt>
<trkpt lat="46.1714150" lon="10.4839680">
	<ele>2415.40</ele>
	<time>2023-08-09T08:50:24.000Z</time>
</trkpt>
<trkpt lat="46.1714170" lon="10.4839720">
	<ele>2415.40</ele>
	<time>2023-08-09T08:50:25.000Z</time>
</trkpt>
<trkpt lat="46.1714190" lon="10.4839780">
	<ele>2415.60</ele>
	<time>2023-08-09T08:50:26.000Z</time>
</trkpt>
<trkpt lat="46.1714220" lon="10.4839830">
	<ele>2415.60</ele>
	<time>2023-08-09T08:50:27.000Z</time>
</trkpt>
<trkpt lat="46.1714210" lon="10.4839890">
	<ele>2415.80</ele>
	<time>2023-08-09T08:50:28.000Z</time>
</trkpt>
<trkpt lat="46.1714230" lon="10.4839980">
	<ele>2415.80</ele>
	<time>2023-08-09T08:50:29.000Z</time>
</trkpt>
<trkpt lat="46.1714240" lon="10.4840040">
	<ele>2416.00</ele>
	<time>2023-08-09T08:50:30.000Z</time>
</trkpt>
<trkpt lat="46.1714250" lon="10.4840100">
	<ele>2416.00</ele>
	<time>2023-08-09T08:50:31.000Z</time>
</trkpt>
<trkpt lat="46.1714270" lon="10.4840140">
	<ele>2416.00</ele>
	<time>2023-08-09T08:50:32.000Z</time>
</trkpt>
<trkpt lat="46.1714260" lon="10.4840220">
	<ele>2416.00</ele>
	<time>2023-08-09T08:50:33.000Z</time>
</trkpt>
<trkpt lat="46.1714300" lon="10.4840300">
	<ele>2416.00</ele>
	<time>2023-08-09T08:50:34.000Z</time>
</trkpt>
<trkpt lat="46.1714310" lon="10.4840340">
	<ele>2416.20</ele>
	<time>2023-08-09T08:50:35.000Z</time>
</trkpt>
<trkpt lat="46.1714300" lon="10.4840380">
	<ele>2416.20</ele>
	<time>2023-08-09T08:50:36.000Z</time>
</trkpt>
<trkpt lat="46.1714280" lon="10.4840460">
	<ele>2416.20</ele>
	<time>2023-08-09T08:50:37.000Z</time>
</trkpt>
<trkpt lat="46.1714300" lon="10.4840570">
	<ele>2416.40</ele>
	<time>2023-08-09T08:50:38.000Z</time>
</trkpt>
<trkpt lat="46.1714290" lon="10.4840630">
	<ele>2416.40</ele>
	<time>2023-08-09T08:50:39.000Z</time>
</trkpt>
<trkpt lat="46.1714300" lon="10.4840710">
	<ele>2416.60</ele>
	<time>2023-08-09T08:50:40.000Z</time>
</trkpt>
<trkpt lat="46.1714340" lon="10.4840810">
	<ele>2416.60</ele>
	<time>2023-08-09T08:50:41.000Z</time>
</trkpt>
<trkpt lat="46.1714340" lon="10.4840860">
	<ele>2416.60</ele>
	<time>2023-08-09T08:50:42.000Z</time>
</trkpt>
<trkpt lat="46.1714400" lon="10.4840930">
	<ele>2416.80</ele>
	<time>2023-08-09T08:50:43.000Z</time>
</trkpt>
<trkpt lat="46.1714410" lon="10.4840970">
	<ele>2416.80</ele>
	<time>2023-08-09T08:50:44.000Z</time>
</trkpt>
<trkpt lat="46.1714430" lon="10.4841010">
	<ele>2417.00</ele>
	<time>2023-08-09T08:50:45.000Z</time>
</trkpt>
<trkpt lat="46.1714430" lon="10.4841050">
	<ele>2417.20</ele>
	<time>2023-08-09T08:50:46.000Z</time>
</trkpt>
<trkpt lat="46.1714430" lon="10.4841100">
	<ele>2417.40</ele>
	<time>2023-08-09T08:50:47.000Z</time>
</trkpt>
<trkpt lat="46.1714460" lon="10.4841190">
	<ele>2417.40</ele>
	<time>2023-08-09T08:50:48.000Z</time>
</trkpt>
<trkpt lat="46.1714470" lon="10.4841270">
	<ele>2417.40</ele>
	<time>2023-08-09T08:50:49.000Z</time>
</trkpt>
<trkpt lat="46.1714470" lon="10.4841330">
	<ele>2417.60</ele>
	<time>2023-08-09T08:50:50.000Z</time>
</trkpt>
<trkpt lat="46.1714460" lon="10.4841380">
	<ele>2417.80</ele>
	<time>2023-08-09T08:50:51.000Z</time>
</trkpt>
<trkpt lat="46.1714450" lon="10.4841400">
	<ele>2417.80</ele>
	<time>2023-08-09T08:50:52.000Z</time>
</trkpt>
<trkpt lat="46.1714430" lon="10.4841410">
	<ele>2417.80</ele>
	<time>2023-08-09T08:50:53.000Z</time>
</trkpt>
<trkpt lat="46.1714410" lon="10.4841460">
	<ele>2418.00</ele>
	<time>2023-08-09T08:50:54.000Z</time>
</trkpt>
<trkpt lat="46.1714400" lon="10.4841500">
	<ele>2418.20</ele>
	<time>2023-08-09T08:50:55.000Z</time>
</trkpt>
<trkpt lat="46.1714400" lon="10.4841530">
	<ele>2418.40</ele>
	<time>2023-08-09T08:50:56.000Z</time>
</trkpt>
<trkpt lat="46.1714370" lon="10.4841530">
	<ele>2418.40</ele>
	<time>2023-08-09T08:50:57.000Z</time>
</trkpt>
<trkpt lat="46.1714350" lon="10.4841560">
	<ele>2418.40</ele>
	<time>2023-08-09T08:50:58.000Z</time>
</trkpt>
<trkpt lat="46.1714340" lon="10.4841580">
	<ele>2418.60</ele>
	<time>2023-08-09T08:50:59.000Z</time>
</trkpt>
<trkpt lat="46.1714320" lon="10.4841600">
	<ele>2418.80</ele>
	<time>2023-08-09T08:51:00.000Z</time>
</trkpt>
<trkpt lat="46.1714290" lon="10.4841620">
	<ele>2418.80</ele>
	<time>2023-08-09T08:51:01.000Z</time>
</trkpt>
<trkpt lat="46.1714280" lon="10.4841650">
	<ele>2419.00</ele>
	<time>2023-08-09T08:51:02.000Z</time>
</trkpt>
<trkpt lat="46.1714280" lon="10.4841680">
	<ele>2419.20</ele>
	<time>2023-08-09T08:51:03.000Z</time>
</trkpt>
<trkpt lat="46.1714280" lon="10.4841730">
	<ele>2419.20</ele>
	<time>2023-08-09T08:51:04.000Z</time>
</trkpt>
<trkpt lat="46.1714270" lon="10.4841770">
	<ele>2419.40</ele>
	<time>2023-08-09T08:51:05.000Z</time>
</trkpt>
<trkpt lat="46.1714240" lon="10.4841800">
	<ele>2419.40</ele>
	<time>2023-08-09T08:51:06.000Z</time>
</trkpt>
<trkpt lat="46.1714230" lon="10.4841830">
	<ele>2419.80</ele>
	<time>2023-08-09T08:51:07.000Z</time>
</trkpt>
<trkpt lat="46.1714210" lon="10.4841850">
	<ele>2419.80</ele>
	<time>2023-08-09T08:51:08.000Z</time>
</trkpt>
<trkpt lat="46.1714230" lon="10.4841910">
	<ele>2420.00</ele>
	<time>2023-08-09T08:51:09.000Z</time>
</trkpt>
<trkpt lat="46.1714240" lon="10.4841940">
	<ele>2420.20</ele>
	<time>2023-08-09T08:51:10.000Z</time>
</trkpt>
<trkpt lat="46.1714250" lon="10.4841980">
	<ele>2420.40</ele>
	<time>2023-08-09T08:51:11.000Z</time>
</trkpt>
<trkpt lat="46.1714250" lon="10.4841980">
	<ele>2420.40</ele>
	<time>2023-08-09T08:51:12.000Z</time>
</trkpt>
<trkpt lat="46.1714250" lon="10.4841980">
	<ele>2420.40</ele>
	<time>2023-08-09T08:51:13.000Z</time>
</trkpt>
<trkpt lat="46.1714250" lon="10.4841980">
	<ele>2420.60</ele>
	<time>2023-08-09T08:51:14.000Z</time>
</trkpt>
<trkpt lat="46.1714250" lon="10.4841980">
	<ele>2420.60</ele>
	<time>2023-08-09T08:51:15.000Z</time>
</trkpt>
<trkpt lat="46.1714250" lon="10.4841980">
	<ele>2420.80</ele>
	<time>2023-08-09T08:51:16.000Z</time>
</trkpt>
<trkpt lat="46.1714250" lon="10.4841980">
	<ele>2420.80</ele>
	<time>2023-08-09T08:51:17.000Z</time>
</trkpt>
<trkpt lat="46.1714250" lon="10.4841980">
	<ele>2420.80</ele>
	<time>2023-08-09T08:51:18.000Z</time>
</trkpt>
<trkpt lat="46.1714250" lon="10.4841980">
	<ele>2420.80</ele>
	<time>2023-08-09T08:51:19.000Z</time>
</trkpt>
<trkpt lat="46.1714250" lon="10.4841980">
	<ele>2420.80</ele>
	<time>2023-08-09T08:51:20.000Z</time>
</trkpt>
<trkpt lat="46.1714250" lon="10.4841980">
	<ele>2421.00</ele>
	<time>2023-08-09T08:51:21.000Z</time>
</trkpt>
<trkpt lat="46.1714250" lon="10.4841980">
	<ele>2421.20</ele>
	<time>2023-08-09T08:51:22.000Z</time>
</trkpt>
<trkpt lat="46.1714250" lon="10.4841980">
	<ele>2421.40</ele>
	<time>2023-08-09T08:51:23.000Z</time>
</trkpt>
<trkpt lat="46.1714250" lon="10.4841980">
	<ele>2421.60</ele>
	<time>2023-08-09T08:51:24.000Z</time>
</trkpt>
<trkpt lat="46.1714250" lon="10.4841980">
	<ele>2421.60</ele>
	<time>2023-08-09T08:51:25.000Z</time>
</trkpt>
<trkpt lat="46.1714250" lon="10.4841980">
	<ele>2421.80</ele>
	<time>2023-08-09T08:51:26.000Z</time>
</trkpt>
<trkpt lat="46.1714250" lon="10.4841980">
	<ele>2422.00</ele>
	<time>2023-08-09T08:51:27.000Z</time>
</trkpt>
<trkpt lat="46.1714250" lon="10.4841980">
	<ele>2422.20</ele>
	<time>2023-08-09T08:51:28.000Z</time>
</trkpt>
<trkpt lat="46.1714250" lon="10.4841980">
	<ele>2422.20</ele>
	<time>2023-08-09T08:51:29.000Z</time>
</trkpt>
<trkpt lat="46.1714250" lon="10.4841990">
	<ele>2422.20</ele>
	<time>2023-08-09T08:51:30.000Z</time>
</trkpt>
<trkpt lat="46.1714250" lon="10.4842010">
	<ele>2422.20</ele>
	<time>2023-08-09T08:51:31.000Z</time>
</trkpt>
<trkpt lat="46.1714250" lon="10.4842020">
	<ele>2422.40</ele>
	<time>2023-08-09T08:51:32.000Z</time>
</trkpt>
<trkpt lat="46.1714250" lon="10.4842040">
	<ele>2422.60</ele>
	<time>2023-08-09T08:51:33.000Z</time>
</trkpt>
<trkpt lat="46.1714270" lon="10.4842090">
	<ele>2422.60</ele>
	<time>2023-08-09T08:51:34.000Z</time>
</trkpt>
<trkpt lat="46.1714270" lon="10.4842140">
	<ele>2422.80</ele>
	<time>2023-08-09T08:51:35.000Z</time>
</trkpt>
<trkpt lat="46.1714280" lon="10.4842180">
	<ele>2422.80</ele>
	<time>2023-08-09T08:51:36.000Z</time>
</trkpt>
<trkpt lat="46.1714280" lon="10.4842210">
	<ele>2422.80</ele>
	<time>2023-08-09T08:51:37.000Z</time>
</trkpt>
<trkpt lat="46.1714280" lon="10.4842210">
	<ele>2422.80</ele>
	<time>2023-08-09T08:51:38.000Z</time>
</trkpt>
<trkpt lat="46.1714320" lon="10.4842270">
	<ele>2423.00</ele>
	<time>2023-08-09T08:51:39.000Z</time>
</trkpt>
<trkpt lat="46.1714330" lon="10.4842310">
	<ele>2423.20</ele>
	<time>2023-08-09T08:51:40.000Z</time>
</trkpt>
<trkpt lat="46.1714360" lon="10.4842370">
	<ele>2423.40</ele>
	<time>2023-08-09T08:51:41.000Z</time>
</trkpt>
<trkpt lat="46.1714410" lon="10.4842410">
	<ele>2423.40</ele>
	<time>2023-08-09T08:51:42.000Z</time>
</trkpt>
<trkpt lat="46.1714430" lon="10.4842430">
	<ele>2423.60</ele>
	<time>2023-08-09T08:51:43.000Z</time>
</trkpt>
<trkpt lat="46.1714460" lon="10.4842460">
	<ele>2423.60</ele>
	<time>2023-08-09T08:51:44.000Z</time>
</trkpt>
<trkpt lat="46.1714500" lon="10.4842520">
	<ele>2423.60</ele>
	<time>2023-08-09T08:51:45.000Z</time>
</trkpt>
<trkpt lat="46.1714510" lon="10.4842560">
	<ele>2423.80</ele>
	<time>2023-08-09T08:51:46.000Z</time>
</trkpt>
<trkpt lat="46.1714520" lon="10.4842610">
	<ele>2424.00</ele>
	<time>2023-08-09T08:51:47.000Z</time>
</trkpt>
<trkpt lat="46.1714530" lon="10.4842660">
	<ele>2424.00</ele>
	<time>2023-08-09T08:51:48.000Z</time>
</trkpt>
<trkpt lat="46.1714550" lon="10.4842690">
	<ele>2424.20</ele>
	<time>2023-08-09T08:51:49.000Z</time>
</trkpt>
<trkpt lat="46.1714550" lon="10.4842720">
	<ele>2424.20</ele>
	<time>2023-08-09T08:51:50.000Z</time>
</trkpt>
<trkpt lat="46.1714560" lon="10.4842750">
	<ele>2424.40</ele>
	<time>2023-08-09T08:51:51.000Z</time>
</trkpt>
<trkpt lat="46.1714560" lon="10.4842770">
	<ele>2424.40</ele>
	<time>2023-08-09T08:51:52.000Z</time>
</trkpt>
<trkpt lat="46.1714560" lon="10.4842800">
	<ele>2424.60</ele>
	<time>2023-08-09T08:51:53.000Z</time>
</trkpt>
<trkpt lat="46.1714570" lon="10.4842840">
	<ele>2424.80</ele>
	<time>2023-08-09T08:51:54.000Z</time>
</trkpt>
<trkpt lat="46.1714580" lon="10.4842870">
	<ele>2425.00</ele>
	<time>2023-08-09T08:51:55.000Z</time>
</trkpt>
<trkpt lat="46.1714590" lon="10.4842910">
	<ele>2425.20</ele>
	<time>2023-08-09T08:51:56.000Z</time>
</trkpt>
<trkpt lat="46.1714600" lon="10.4842940">
	<ele>2425.20</ele>
	<time>2023-08-09T08:51:57.000Z</time>
</trkpt>
<trkpt lat="46.1714600" lon="10.4842990">
	<ele>2425.40</ele>
	<time>2023-08-09T08:51:58.000Z</time>
</trkpt>
<trkpt lat="46.1714600" lon="10.4843040">
	<ele>2425.40</ele>
	<time>2023-08-09T08:51:59.000Z</time>
</trkpt>
<trkpt lat="46.1714600" lon="10.4843090">
	<ele>2425.60</ele>
	<time>2023-08-09T08:52:00.000Z</time>
</trkpt>
<trkpt lat="46.1714600" lon="10.4843140">
	<ele>2425.60</ele>
	<time>2023-08-09T08:52:01.000Z</time>
</trkpt>
<trkpt lat="46.1714600" lon="10.4843170">
	<ele>2425.80</ele>
	<time>2023-08-09T08:52:02.000Z</time>
</trkpt>
<trkpt lat="46.1714600" lon="10.4843200">
	<ele>2425.80</ele>
	<time>2023-08-09T08:52:03.000Z</time>
</trkpt>
<trkpt lat="46.1714600" lon="10.4843220">
	<ele>2426.00</ele>
	<time>2023-08-09T08:52:04.000Z</time>
</trkpt>
<trkpt lat="46.1714600" lon="10.4843240">
	<ele>2426.00</ele>
	<time>2023-08-09T08:52:05.000Z</time>
</trkpt>
<trkpt lat="46.1714600" lon="10.4843260">
	<ele>2426.20</ele>
	<time>2023-08-09T08:52:06.000Z</time>
</trkpt>
<trkpt lat="46.1714600" lon="10.4843280">
	<ele>2426.40</ele>
	<time>2023-08-09T08:52:07.000Z</time>
</trkpt>
<trkpt lat="46.1714600" lon="10.4843310">
	<ele>2426.60</ele>
	<time>2023-08-09T08:52:08.000Z</time>
</trkpt>
<trkpt lat="46.1714600" lon="10.4843340">
	<ele>2426.60</ele>
	<time>2023-08-09T08:52:09.000Z</time>
</trkpt>
<trkpt lat="46.1714600" lon="10.4843370">
	<ele>2426.80</ele>
	<time>2023-08-09T08:52:10.000Z</time>
</trkpt>
<trkpt lat="46.1714600" lon="10.4843400">
	<ele>2426.80</ele>
	<time>2023-08-09T08:52:11.000Z</time>
</trkpt>
<trkpt lat="46.1714600" lon="10.4843430">
	<ele>2426.80</ele>
	<time>2023-08-09T08:52:12.000Z</time>
</trkpt>
<trkpt lat="46.1714600" lon="10.4843460">
	<ele>2427.00</ele>
	<time>2023-08-09T08:52:13.000Z</time>
</trkpt>
<trkpt lat="46.1714600" lon="10.4843490">
	<ele>2427.00</ele>
	<time>2023-08-09T08:52:14.000Z</time>
</trkpt>
<trkpt lat="46.1714590" lon="10.4843510">
	<ele>2427.00</ele>
	<time>2023-08-09T08:52:15.000Z</time>
</trkpt>
<trkpt lat="46.1714590" lon="10.4843540">
	<ele>2427.20</ele>
	<time>2023-08-09T08:52:16.000Z</time>
</trkpt>
<trkpt lat="46.1714590" lon="10.4843580">
	<ele>2427.20</ele>
	<time>2023-08-09T08:52:17.000Z</time>
</trkpt>
<trkpt lat="46.1714590" lon="10.4843620">
	<ele>2427.40</ele>
	<time>2023-08-09T08:52:18.000Z</time>
</trkpt>
<trkpt lat="46.1714580" lon="10.4843630">
	<ele>2427.60</ele>
	<time>2023-08-09T08:52:19.000Z</time>
</trkpt>
<trkpt lat="46.1714570" lon="10.4843650">
	<ele>2427.80</ele>
	<time>2023-08-09T08:52:20.000Z</time>
</trkpt>
<trkpt lat="46.1714550" lon="10.4843680">
	<ele>2427.80</ele>
	<time>2023-08-09T08:52:21.000Z</time>
</trkpt>
<trkpt lat="46.1714530" lon="10.4843710">
	<ele>2428.00</ele>
	<time>2023-08-09T08:52:22.000Z</time>
</trkpt>
<trkpt lat="46.1714510" lon="10.4843720">
	<ele>2428.00</ele>
	<time>2023-08-09T08:52:23.000Z</time>
</trkpt>
<trkpt lat="46.1714490" lon="10.4843750">
	<ele>2428.00</ele>
	<time>2023-08-09T08:52:24.000Z</time>
</trkpt>
<trkpt lat="46.1714470" lon="10.4843780">
	<ele>2428.20</ele>
	<time>2023-08-09T08:52:25.000Z</time>
</trkpt>
<trkpt lat="46.1714460" lon="10.4843810">
	<ele>2428.20</ele>
	<time>2023-08-09T08:52:26.000Z</time>
</trkpt>
<trkpt lat="46.1714460" lon="10.4843830">
	<ele>2428.40</ele>
	<time>2023-08-09T08:52:27.000Z</time>
</trkpt>
<trkpt lat="46.1714450" lon="10.4843860">
	<ele>2428.40</ele>
	<time>2023-08-09T08:52:28.000Z</time>
</trkpt>
<trkpt lat="46.1714450" lon="10.4843880">
	<ele>2428.60</ele>
	<time>2023-08-09T08:52:29.000Z</time>
</trkpt>
<trkpt lat="46.1714440" lon="10.4843880">
	<ele>2428.80</ele>
	<time>2023-08-09T08:52:30.000Z</time>
</trkpt>
<trkpt lat="46.1714430" lon="10.4843890">
	<ele>2429.00</ele>
	<time>2023-08-09T08:52:31.000Z</time>
</trkpt>
<trkpt lat="46.1714420" lon="10.4843910">
	<ele>2429.00</ele>
	<time>2023-08-09T08:52:32.000Z</time>
</trkpt>
<trkpt lat="46.1714400" lon="10.4843910">
	<ele>2429.00</ele>
	<time>2023-08-09T08:52:33.000Z</time>
</trkpt>
<trkpt lat="46.1714370" lon="10.4843920">
	<ele>2429.00</ele>
	<time>2023-08-09T08:52:34.000Z</time>
</trkpt>
<trkpt lat="46.1714330" lon="10.4843930">
	<ele>2429.00</ele>
	<time>2023-08-09T08:52:35.000Z</time>
</trkpt>
<trkpt lat="46.1714300" lon="10.4843940">
	<ele>2429.00</ele>
	<time>2023-08-09T08:52:36.000Z</time>
</trkpt>
<trkpt lat="46.1714270" lon="10.4843950">
	<ele>2428.80</ele>
	<time>2023-08-09T08:52:37.000Z</time>
</trkpt>
<trkpt lat="46.1714240" lon="10.4843950">
	<ele>2428.80</ele>
	<time>2023-08-09T08:52:38.000Z</time>
</trkpt>
<trkpt lat="46.1714220" lon="10.4843960">
	<ele>2428.80</ele>
	<time>2023-08-09T08:52:39.000Z</time>
</trkpt>
<trkpt lat="46.1714200" lon="10.4843960">
	<ele>2428.80</ele>
	<time>2023-08-09T08:52:40.000Z</time>
</trkpt>
<trkpt lat="46.1714180" lon="10.4843970">
	<ele>2428.80</ele>
	<time>2023-08-09T08:52:41.000Z</time>
</trkpt>
<trkpt lat="46.1714160" lon="10.4843980">
	<ele>2428.80</ele>
	<time>2023-08-09T08:52:42.000Z</time>
</trkpt>
<trkpt lat="46.1714130" lon="10.4843990">
	<ele>2428.80</ele>
	<time>2023-08-09T08:52:43.000Z</time>
</trkpt>
<trkpt lat="46.1714110" lon="10.4844000">
	<ele>2428.80</ele>
	<time>2023-08-09T08:52:44.000Z</time>
</trkpt>
<trkpt lat="46.1714090" lon="10.4844000">
	<ele>2428.80</ele>
	<time>2023-08-09T08:52:45.000Z</time>
</trkpt>
<trkpt lat="46.1714070" lon="10.4844000">
	<ele>2428.80</ele>
	<time>2023-08-09T08:52:46.000Z</time>
</trkpt>
<trkpt lat="46.1714050" lon="10.4844000">
	<ele>2428.80</ele>
	<time>2023-08-09T08:52:47.000Z</time>
</trkpt>
<trkpt lat="46.1714040" lon="10.4844000">
	<ele>2428.80</ele>
	<time>2023-08-09T08:52:48.000Z</time>
</trkpt>
<trkpt lat="46.1714030" lon="10.4844000">
	<ele>2428.80</ele>
	<time>2023-08-09T08:52:49.000Z</time>
</trkpt>
<trkpt lat="46.1714030" lon="10.4844000">
	<ele>2428.80</ele>
	<time>2023-08-09T08:52:50.000Z</time>
</trkpt>
<trkpt lat="46.1714020" lon="10.4844010">
	<ele>2428.80</ele>
	<time>2023-08-09T08:52:51.000Z</time>
</trkpt>
<trkpt lat="46.1714020" lon="10.4844010">
	<ele>2428.80</ele>
	<time>2023-08-09T08:52:52.000Z</time>
</trkpt>
<trkpt lat="46.1714020" lon="10.4844020">
	<ele>2428.80</ele>
	<time>2023-08-09T08:52:53.000Z</time>
</trkpt>
<trkpt lat="46.1714010" lon="10.4844030">
	<ele>2428.80</ele>
	<time>2023-08-09T08:52:54.000Z</time>
</trkpt>
<trkpt lat="46.1714010" lon="10.4844030">
	<ele>2429.00</ele>
	<time>2023-08-09T08:52:55.000Z</time>
</trkpt>
<trkpt lat="46.1714010" lon="10.4844030">
	<ele>2428.80</ele>
	<time>2023-08-09T08:52:56.000Z</time>
</trkpt>
<trkpt lat="46.1714010" lon="10.4844040">
	<ele>2428.80</ele>
	<time>2023-08-09T08:52:57.000Z</time>
</trkpt>
<trkpt lat="46.1714010" lon="10.4844040">
	<ele>2428.80</ele>
	<time>2023-08-09T08:52:58.000Z</time>
</trkpt>
<trkpt lat="46.1714010" lon="10.4844040">
	<ele>2428.80</ele>
	<time>2023-08-09T08:52:59.000Z</time>
</trkpt>
<trkpt lat="46.1714010" lon="10.4844040">
	<ele>2428.80</ele>
	<time>2023-08-09T08:53:00.000Z</time>
</trkpt>
<trkpt lat="46.1714010" lon="10.4844040">
	<ele>2428.80</ele>
	<time>2023-08-09T08:53:01.000Z</time>
</trkpt>
<trkpt lat="46.1714010" lon="10.4844040">
	<ele>2428.80</ele>
	<time>2023-08-09T08:53:02.000Z</time>
</trkpt>
<trkpt lat="46.1714020" lon="10.4844050">
	<ele>2428.80</ele>
	<time>2023-08-09T08:53:03.000Z</time>
</trkpt>
<trkpt lat="46.1714020" lon="10.4844050">
	<ele>2429.00</ele>
	<time>2023-08-09T08:53:04.000Z</time>
</trkpt>
<trkpt lat="46.1714020" lon="10.4844050">
	<ele>2429.00</ele>
	<time>2023-08-09T08:53:05.000Z</time>
</trkpt>
<trkpt lat="46.1714020" lon="10.4844050">
	<ele>2429.20</ele>
	<time>2023-08-09T08:53:06.000Z</time>
</trkpt>
<trkpt lat="46.1714020" lon="10.4844050">
	<ele>2429.20</ele>
	<time>2023-08-09T08:53:07.000Z</time>
</trkpt>
<trkpt lat="46.1714020" lon="10.4844050">
	<ele>2429.20</ele>
	<time>2023-08-09T08:53:08.000Z</time>
</trkpt>
<trkpt lat="46.1714020" lon="10.4844060">
	<ele>2429.40</ele>
	<time>2023-08-09T08:53:09.000Z</time>
</trkpt>
<trkpt lat="46.1714020" lon="10.4844060">
	<ele>2429.60</ele>
	<time>2023-08-09T08:53:10.000Z</time>
</trkpt>
<trkpt lat="46.1714020" lon="10.4844060">
	<ele>2429.60</ele>
	<time>2023-08-09T08:53:11.000Z</time>
</trkpt>
<trkpt lat="46.1714020" lon="10.4844060">
	<ele>2429.80</ele>
	<time>2023-08-09T08:53:12.000Z</time>
</trkpt>
<trkpt lat="46.1714020" lon="10.4844060">
	<ele>2429.80</ele>
	<time>2023-08-09T08:53:13.000Z</time>
</trkpt>
<trkpt lat="46.1714020" lon="10.4844060">
	<ele>2429.80</ele>
	<time>2023-08-09T08:53:14.000Z</time>
</trkpt>
<trkpt lat="46.1714020" lon="10.4844060">
	<ele>2429.80</ele>
	<time>2023-08-09T08:53:15.000Z</time>
</trkpt>
<trkpt lat="46.1714020" lon="10.4844060">
	<ele>2430.00</ele>
	<time>2023-08-09T08:53:16.000Z</time>
</trkpt>
<trkpt lat="46.1714020" lon="10.4844060">
	<ele>2430.20</ele>
	<time>2023-08-09T08:53:17.000Z</time>
</trkpt>
<trkpt lat="46.1714020" lon="10.4844060">
	<ele>2430.40</ele>
	<time>2023-08-09T08:53:18.000Z</time>
</trkpt>
<trkpt lat="46.1714020" lon="10.4844060">
	<ele>2430.40</ele>
	<time>2023-08-09T08:53:19.000Z</time>
</trkpt>
<trkpt lat="46.1714020" lon="10.4844060">
	<ele>2430.60</ele>
	<time>2023-08-09T08:53:20.000Z</time>
</trkpt>
<trkpt lat="46.1714010" lon="10.4844050">
	<ele>2430.60</ele>
	<time>2023-08-09T08:53:21.000Z</time>
</trkpt>
<trkpt lat="46.1714000" lon="10.4844050">
	<ele>2430.80</ele>
	<time>2023-08-09T08:53:22.000Z</time>
</trkpt>
<trkpt lat="46.1713990" lon="10.4844050">
	<ele>2430.80</ele>
	<time>2023-08-09T08:53:23.000Z</time>
</trkpt>
<trkpt lat="46.1713960" lon="10.4844040">
	<ele>2431.00</ele>
	<time>2023-08-09T08:53:24.000Z</time>
</trkpt>
<trkpt lat="46.1713930" lon="10.4844040">
	<ele>2431.00</ele>
	<time>2023-08-09T08:53:25.000Z</time>
</trkpt>
<trkpt lat="46.1713900" lon="10.4844040">
	<ele>2431.00</ele>
	<time>2023-08-09T08:53:26.000Z</time>
</trkpt>
<trkpt lat="46.1713860" lon="10.4844040">
	<ele>2431.00</ele>
	<time>2023-08-09T08:53:27.000Z</time>
</trkpt>
<trkpt lat="46.1713810" lon="10.4844040">
	<ele>2431.40</ele>
	<time>2023-08-09T08:53:28.000Z</time>
</trkpt>
<trkpt lat="46.1713780" lon="10.4844040">
	<ele>2431.40</ele>
	<time>2023-08-09T08:53:29.000Z</time>
</trkpt>
<trkpt lat="46.1713750" lon="10.4844040">
	<ele>2431.60</ele>
	<time>2023-08-09T08:53:30.000Z</time>
</trkpt>
<trkpt lat="46.1713710" lon="10.4844050">
	<ele>2431.60</ele>
	<time>2023-08-09T08:53:31.000Z</time>
</trkpt>
<trkpt lat="46.1713680" lon="10.4844050">
	<ele>2432.00</ele>
	<time>2023-08-09T08:53:32.000Z</time>
</trkpt>
<trkpt lat="46.1713650" lon="10.4844060">
	<ele>2432.20</ele>
	<time>2023-08-09T08:53:33.000Z</time>
</trkpt>
<trkpt lat="46.1713630" lon="10.4844060">
	<ele>2432.40</ele>
	<time>2023-08-09T08:53:34.000Z</time>
</trkpt>
<trkpt lat="46.1713600" lon="10.4844060">
	<ele>2432.60</ele>
	<time>2023-08-09T08:53:35.000Z</time>
</trkpt>
<trkpt lat="46.1713580" lon="10.4844070">
	<ele>2432.60</ele>
	<time>2023-08-09T08:53:36.000Z</time>
</trkpt>
<trkpt lat="46.1713550" lon="10.4844070">
	<ele>2432.80</ele>
	<time>2023-08-09T08:53:37.000Z</time>
</trkpt>
<trkpt lat="46.1713520" lon="10.4844070">
	<ele>2432.80</ele>
	<time>2023-08-09T08:53:38.000Z</time>
</trkpt>
<trkpt lat="46.1713490" lon="10.4844070">
	<ele>2432.80</ele>
	<time>2023-08-09T08:53:39.000Z</time>
</trkpt>
<trkpt lat="46.1713460" lon="10.4844070">
	<ele>2432.80</ele>
	<time>2023-08-09T08:53:40.000Z</time>
</trkpt>
<trkpt lat="46.1713430" lon="10.4844070">
	<ele>2433.00</ele>
	<time>2023-08-09T08:53:41.000Z</time>
</trkpt>
<trkpt lat="46.1713390" lon="10.4844080">
	<ele>2433.20</ele>
	<time>2023-08-09T08:53:42.000Z</time>
</trkpt>
<trkpt lat="46.1713370" lon="10.4844080">
	<ele>2433.20</ele>
	<time>2023-08-09T08:53:43.000Z</time>
</trkpt>
<trkpt lat="46.1713350" lon="10.4844090">
	<ele>2433.20</ele>
	<time>2023-08-09T08:53:44.000Z</time>
</trkpt>
<trkpt lat="46.1713330" lon="10.4844110">
	<ele>2433.20</ele>
	<time>2023-08-09T08:53:45.000Z</time>
</trkpt>
<trkpt lat="46.1713320" lon="10.4844130">
	<ele>2433.40</ele>
	<time>2023-08-09T08:53:46.000Z</time>
</trkpt>
<trkpt lat="46.1713310" lon="10.4844150">
	<ele>2433.60</ele>
	<time>2023-08-09T08:53:47.000Z</time>
</trkpt>
<trkpt lat="46.1713300" lon="10.4844160">
	<ele>2433.80</ele>
	<time>2023-08-09T08:53:48.000Z</time>
</trkpt>
<trkpt lat="46.1713290" lon="10.4844180">
	<ele>2434.00</ele>
	<time>2023-08-09T08:53:49.000Z</time>
</trkpt>
<trkpt lat="46.1713280" lon="10.4844200">
	<ele>2434.00</ele>
	<time>2023-08-09T08:53:50.000Z</time>
</trkpt>
<trkpt lat="46.1713270" lon="10.4844210">
	<ele>2434.20</ele>
	<time>2023-08-09T08:53:51.000Z</time>
</trkpt>
<trkpt lat="46.1713270" lon="10.4844250">
	<ele>2434.40</ele>
	<time>2023-08-09T08:53:52.000Z</time>
</trkpt>
<trkpt lat="46.1713260" lon="10.4844280">
	<ele>2434.40</ele>
	<time>2023-08-09T08:53:53.000Z</time>
</trkpt>
<trkpt lat="46.1713260" lon="10.4844330">
	<ele>2434.60</ele>
	<time>2023-08-09T08:53:54.000Z</time>
</trkpt>
<trkpt lat="46.1713260" lon="10.4844380">
	<ele>2434.60</ele>
	<time>2023-08-09T08:53:55.000Z</time>
</trkpt>
<trkpt lat="46.1713250" lon="10.4844420">
	<ele>2434.80</ele>
	<time>2023-08-09T08:53:56.000Z</time>
</trkpt>
<trkpt lat="46.1713250" lon="10.4844460">
	<ele>2434.80</ele>
	<time>2023-08-09T08:53:57.000Z</time>
</trkpt>
<trkpt lat="46.1713240" lon="10.4844510">
	<ele>2435.00</ele>
	<time>2023-08-09T08:53:58.000Z</time>
</trkpt>
<trkpt lat="46.1713240" lon="10.4844560">
	<ele>2435.00</ele>
	<time>2023-08-09T08:53:59.000Z</time>
</trkpt>
<trkpt lat="46.1713240" lon="10.4844610">
	<ele>2435.00</ele>
	<time>2023-08-09T08:54:00.000Z</time>
</trkpt>
<trkpt lat="46.1713230" lon="10.4844640">
	<ele>2435.00</ele>
	<time>2023-08-09T08:54:01.000Z</time>
</trkpt>
<trkpt lat="46.1713230" lon="10.4844680">
	<ele>2435.00</ele>
	<time>2023-08-09T08:54:02.000Z</time>
</trkpt>
<trkpt lat="46.1713220" lon="10.4844710">
	<ele>2435.00</ele>
	<time>2023-08-09T08:54:03.000Z</time>
</trkpt>
<trkpt lat="46.1713220" lon="10.4844750">
	<ele>2435.00</ele>
	<time>2023-08-09T08:54:04.000Z</time>
</trkpt>
<trkpt lat="46.1713220" lon="10.4844790">
	<ele>2435.20</ele>
	<time>2023-08-09T08:54:05.000Z</time>
</trkpt>
<trkpt lat="46.1713220" lon="10.4844820">
	<ele>2435.20</ele>
	<time>2023-08-09T08:54:06.000Z</time>
</trkpt>
<trkpt lat="46.1713210" lon="10.4844860">
	<ele>2435.40</ele>
	<time>2023-08-09T08:54:07.000Z</time>
</trkpt>
<trkpt lat="46.1713210" lon="10.4844890">
	<ele>2435.40</ele>
	<time>2023-08-09T08:54:08.000Z</time>
</trkpt>
<trkpt lat="46.1713200" lon="10.4844910">
	<ele>2435.60</ele>
	<time>2023-08-09T08:54:09.000Z</time>
</trkpt>
<trkpt lat="46.1713200" lon="10.4844940">
	<ele>2435.80</ele>
	<time>2023-08-09T08:54:10.000Z</time>
</trkpt>
<trkpt lat="46.1713190" lon="10.4844960">
	<ele>2436.00</ele>
	<time>2023-08-09T08:54:11.000Z</time>
</trkpt>
<trkpt lat="46.1713180" lon="10.4844980">
	<ele>2436.20</ele>
	<time>2023-08-09T08:54:12.000Z</time>
</trkpt>
<trkpt lat="46.1713170" lon="10.4845000">
	<ele>2436.40</ele>
	<time>2023-08-09T08:54:13.000Z</time>
</trkpt>
<trkpt lat="46.1713160" lon="10.4845020">
	<ele>2436.60</ele>
	<time>2023-08-09T08:54:14.000Z</time>
</trkpt>
<trkpt lat="46.1713150" lon="10.4845030">
	<ele>2436.80</ele>
	<time>2023-08-09T08:54:15.000Z</time>
</trkpt>
<trkpt lat="46.1713130" lon="10.4845050">
	<ele>2436.80</ele>
	<time>2023-08-09T08:54:16.000Z</time>
</trkpt>
<trkpt lat="46.1713110" lon="10.4845060">
	<ele>2437.00</ele>
	<time>2023-08-09T08:54:17.000Z</time>
</trkpt>
<trkpt lat="46.1713100" lon="10.4845080">
	<ele>2437.00</ele>
	<time>2023-08-09T08:54:18.000Z</time>
</trkpt>
<trkpt lat="46.1713090" lon="10.4845090">
	<ele>2437.00</ele>
	<time>2023-08-09T08:54:19.000Z</time>
</trkpt>
<trkpt lat="46.1713080" lon="10.4845100">
	<ele>2437.00</ele>
	<time>2023-08-09T08:54:20.000Z</time>
</trkpt>
<trkpt lat="46.1713070" lon="10.4845120">
	<ele>2437.00</ele>
	<time>2023-08-09T08:54:21.000Z</time>
</trkpt>
<trkpt lat="46.1713060" lon="10.4845130">
	<ele>2437.20</ele>
	<time>2023-08-09T08:54:22.000Z</time>
</trkpt>
<trkpt lat="46.1713050" lon="10.4845140">
	<ele>2437.20</ele>
	<time>2023-08-09T08:54:23.000Z</time>
</trkpt>
<trkpt lat="46.1713040" lon="10.4845150">
	<ele>2437.20</ele>
	<time>2023-08-09T08:54:24.000Z</time>
</trkpt>
<trkpt lat="46.1713030" lon="10.4845150">
	<ele>2437.40</ele>
	<time>2023-08-09T08:54:25.000Z</time>
</trkpt>
<trkpt lat="46.1713020" lon="10.4845160">
	<ele>2437.40</ele>
	<time>2023-08-09T08:54:26.000Z</time>
</trkpt>
<trkpt lat="46.1713010" lon="10.4845170">
	<ele>2437.60</ele>
	<time>2023-08-09T08:54:27.000Z</time>
</trkpt>
<trkpt lat="46.1713000" lon="10.4845170">
	<ele>2437.60</ele>
	<time>2023-08-09T08:54:28.000Z</time>
</trkpt>
<trkpt lat="46.1712990" lon="10.4845180">
	<ele>2437.80</ele>
	<time>2023-08-09T08:54:29.000Z</time>
</trkpt>
<trkpt lat="46.1712980" lon="10.4845180">
	<ele>2437.80</ele>
	<time>2023-08-09T08:54:30.000Z</time>
</trkpt>
<trkpt lat="46.1712980" lon="10.4845180">
	<ele>2438.00</ele>
	<time>2023-08-09T08:54:31.000Z</time>
</trkpt>
<trkpt lat="46.1712980" lon="10.4845190">
	<ele>2438.00</ele>
	<time>2023-08-09T08:54:32.000Z</time>
</trkpt>
<trkpt lat="46.1712970" lon="10.4845190">
	<ele>2438.20</ele>
	<time>2023-08-09T08:54:33.000Z</time>
</trkpt>
<trkpt lat="46.1712970" lon="10.4845190">
	<ele>2438.20</ele>
	<time>2023-08-09T08:54:34.000Z</time>
</trkpt>
<trkpt lat="46.1712970" lon="10.4845190">
	<ele>2438.40</ele>
	<time>2023-08-09T08:54:35.000Z</time>
</trkpt>
<trkpt lat="46.1712970" lon="10.4845190">
	<ele>2438.40</ele>
	<time>2023-08-09T08:54:36.000Z</time>
</trkpt>
<trkpt lat="46.1712970" lon="10.4845190">
	<ele>2438.60</ele>
	<time>2023-08-09T08:54:37.000Z</time>
</trkpt>
<trkpt lat="46.1712970" lon="10.4845190">
	<ele>2438.80</ele>
	<time>2023-08-09T08:54:38.000Z</time>
</trkpt>
<trkpt lat="46.1712970" lon="10.4845190">
	<ele>2439.00</ele>
	<time>2023-08-09T08:54:39.000Z</time>
</trkpt>
<trkpt lat="46.1712970" lon="10.4845190">
	<ele>2439.20</ele>
	<time>2023-08-09T08:54:40.000Z</time>
</trkpt>
<trkpt lat="46.1712970" lon="10.4845200">
	<ele>2439.40</ele>
	<time>2023-08-09T08:54:41.000Z</time>
</trkpt>
<trkpt lat="46.1712970" lon="10.4845200">
	<ele>2439.40</ele>
	<time>2023-08-09T08:54:42.000Z</time>
</trkpt>
<trkpt lat="46.1712960" lon="10.4845200">
	<ele>2439.60</ele>
	<time>2023-08-09T08:54:43.000Z</time>
</trkpt>
<trkpt lat="46.1712960" lon="10.4845200">
	<ele>2439.60</ele>
	<time>2023-08-09T08:54:44.000Z</time>
</trkpt>
<trkpt lat="46.1712960" lon="10.4845200">
	<ele>2440.00</ele>
	<time>2023-08-09T08:54:45.000Z</time>
</trkpt>
<trkpt lat="46.1712960" lon="10.4845200">
	<ele>2440.00</ele>
	<time>2023-08-09T08:54:46.000Z</time>
</trkpt>
<trkpt lat="46.1712960" lon="10.4845200">
	<ele>2440.20</ele>
	<time>2023-08-09T08:54:47.000Z</time>
</trkpt>
<trkpt lat="46.1712960" lon="10.4845200">
	<ele>2440.40</ele>
	<time>2023-08-09T08:54:48.000Z</time>
</trkpt>
<trkpt lat="46.1712950" lon="10.4845200">
	<ele>2440.40</ele>
	<time>2023-08-09T08:54:49.000Z</time>
</trkpt>
<trkpt lat="46.1712950" lon="10.4845210">
	<ele>2440.40</ele>
	<time>2023-08-09T08:54:50.000Z</time>
</trkpt>
<trkpt lat="46.1712950" lon="10.4845210">
	<ele>2440.40</ele>
	<time>2023-08-09T08:54:51.000Z</time>
</trkpt>
<trkpt lat="46.1712950" lon="10.4845200">
	<ele>2440.40</ele>
	<time>2023-08-09T08:54:52.000Z</time>
</trkpt>
<trkpt lat="46.1712950" lon="10.4845210">
	<ele>2440.60</ele>
	<time>2023-08-09T08:54:53.000Z</time>
</trkpt>
<trkpt lat="46.1712950" lon="10.4845210">
	<ele>2440.60</ele>
	<time>2023-08-09T08:54:54.000Z</time>
</trkpt>
<trkpt lat="46.1712950" lon="10.4845210">
	<ele>2440.80</ele>
	<time>2023-08-09T08:54:55.000Z</time>
</trkpt>
<trkpt lat="46.1712940" lon="10.4845210">
	<ele>2441.00</ele>
	<time>2023-08-09T08:54:56.000Z</time>
</trkpt>
<trkpt lat="46.1712940" lon="10.4845210">
	<ele>2441.20</ele>
	<time>2023-08-09T08:54:57.000Z</time>
</trkpt>
<trkpt lat="46.1712940" lon="10.4845210">
	<ele>2441.40</ele>
	<time>2023-08-09T08:54:58.000Z</time>
</trkpt>
<trkpt lat="46.1712940" lon="10.4845220">
	<ele>2441.40</ele>
	<time>2023-08-09T08:54:59.000Z</time>
</trkpt>
<trkpt lat="46.1712940" lon="10.4845220">
	<ele>2441.60</ele>
	<time>2023-08-09T08:55:00.000Z</time>
</trkpt>
<trkpt lat="46.1712940" lon="10.4845220">
	<ele>2441.60</ele>
	<time>2023-08-09T08:55:01.000Z</time>
</trkpt>
<trkpt lat="46.1712940" lon="10.4845220">
	<ele>2441.60</ele>
	<time>2023-08-09T08:55:02.000Z</time>
</trkpt>
<trkpt lat="46.1712930" lon="10.4845220">
	<ele>2441.60</ele>
	<time>2023-08-09T08:55:03.000Z</time>
</trkpt>
<trkpt lat="46.1712930" lon="10.4845220">
	<ele>2441.80</ele>
	<time>2023-08-09T08:55:04.000Z</time>
</trkpt>
<trkpt lat="46.1712930" lon="10.4845230">
	<ele>2441.80</ele>
	<time>2023-08-09T08:55:05.000Z</time>
</trkpt>
<trkpt lat="46.1712930" lon="10.4845230">
	<ele>2441.80</ele>
	<time>2023-08-09T08:55:06.000Z</time>
</trkpt>
<trkpt lat="46.1712930" lon="10.4845230">
	<ele>2442.00</ele>
	<time>2023-08-09T08:55:07.000Z</time>
</trkpt>
<trkpt lat="46.1712930" lon="10.4845230">
	<ele>2442.20</ele>
	<time>2023-08-09T08:55:08.000Z</time>
</trkpt>
<trkpt lat="46.1712920" lon="10.4845230">
	<ele>2442.20</ele>
	<time>2023-08-09T08:55:09.000Z</time>
</trkpt>
<trkpt lat="46.1712920" lon="10.4845230">
	<ele>2442.40</ele>
	<time>2023-08-09T08:55:10.000Z</time>
</trkpt>
<trkpt lat="46.1712920" lon="10.4845240">
	<ele>2442.40</ele>
	<time>2023-08-09T08:55:11.000Z</time>
</trkpt>
<trkpt lat="46.1712920" lon="10.4845240">
	<ele>2442.40</ele>
	<time>2023-08-09T08:55:12.000Z</time>
</trkpt>
<trkpt lat="46.1712920" lon="10.4845240">
	<ele>2442.60</ele>
	<time>2023-08-09T08:55:13.000Z</time>
</trkpt>
<trkpt lat="46.1712920" lon="10.4845240">
	<ele>2442.60</ele>
	<time>2023-08-09T08:55:14.000Z</time>
</trkpt>
<trkpt lat="46.1712920" lon="10.4845250">
	<ele>2442.80</ele>
	<time>2023-08-09T08:55:15.000Z</time>
</trkpt>
<trkpt lat="46.1712910" lon="10.4845250">
	<ele>2443.00</ele>
	<time>2023-08-09T08:55:16.000Z</time>
</trkpt>
<trkpt lat="46.1712910" lon="10.4845250">
	<ele>2443.00</ele>
	<time>2023-08-09T08:55:17.000Z</time>
</trkpt>
<trkpt lat="46.1712910" lon="10.4845250">
	<ele>2443.20</ele>
	<time>2023-08-09T08:55:18.000Z</time>
</trkpt>
<trkpt lat="46.1712910" lon="10.4845260">
	<ele>2443.20</ele>
	<time>2023-08-09T08:55:19.000Z</time>
</trkpt>
<trkpt lat="46.1712910" lon="10.4845260">
	<ele>2443.40</ele>
	<time>2023-08-09T08:55:20.000Z</time>
</trkpt>
<trkpt lat="46.1712910" lon="10.4845260">
	<ele>2443.40</ele>
	<time>2023-08-09T08:55:21.000Z</time>
</trkpt>
<trkpt lat="46.1712910" lon="10.4845260">
	<ele>2443.60</ele>
	<time>2023-08-09T08:55:22.000Z</time>
</trkpt>
<trkpt lat="46.1712900" lon="10.4845270">
	<ele>2443.80</ele>
	<time>2023-08-09T08:55:23.000Z</time>
</trkpt>
<trkpt lat="46.1712900" lon="10.4845270">
	<ele>2444.00</ele>
	<time>2023-08-09T08:55:24.000Z</time>
</trkpt>
<trkpt lat="46.1712900" lon="10.4845270">
	<ele>2444.00</ele>
	<time>2023-08-09T08:55:25.000Z</time>
</trkpt>
<trkpt lat="46.1712900" lon="10.4845280">
	<ele>2444.20</ele>
	<time>2023-08-09T08:55:26.000Z</time>
</trkpt>
<trkpt lat="46.1712890" lon="10.4845280">
	<ele>2444.20</ele>
	<time>2023-08-09T08:55:27.000Z</time>
</trkpt>
<trkpt lat="46.1712890" lon="10.4845280">
	<ele>2444.40</ele>
	<time>2023-08-09T08:55:28.000Z</time>
</trkpt>
<trkpt lat="46.1712890" lon="10.4845280">
	<ele>2444.40</ele>
	<time>2023-08-09T08:55:29.000Z</time>
</trkpt>
<trkpt lat="46.1712890" lon="10.4845290">
	<ele>2444.60</ele>
	<time>2023-08-09T08:55:30.000Z</time>
</trkpt>
<trkpt lat="46.1712890" lon="10.4845290">
	<ele>2444.80</ele>
	<time>2023-08-09T08:55:31.000Z</time>
</trkpt>
<trkpt lat="46.1712890" lon="10.4845290">
	<ele>2445.00</ele>
	<time>2023-08-09T08:55:32.000Z</time>
</trkpt>
<trkpt lat="46.1712890" lon="10.4845300">
	<ele>2445.20</ele>
	<time>2023-08-09T08:55:33.000Z</time>
</trkpt>
<trkpt lat="46.1712880" lon="10.4845300">
	<ele>2445.40</ele>
	<time>2023-08-09T08:55:34.000Z</time>
</trkpt>
<trkpt lat="46.1712880" lon="10.4845300">
	<ele>2445.60</ele>
	<time>2023-08-09T08:55:35.000Z</time>
</trkpt>
<trkpt lat="46.1712880" lon="10.4845310">
	<ele>2445.60</ele>
	<time>2023-08-09T08:55:36.000Z</time>
</trkpt>
<trkpt lat="46.1712880" lon="10.4845310">
	<ele>2445.80</ele>
	<time>2023-08-09T08:55:37.000Z</time>
</trkpt>
<trkpt lat="46.1712880" lon="10.4845320">
	<ele>2445.80</ele>
	<time>2023-08-09T08:55:38.000Z</time>
</trkpt>
<trkpt lat="46.1712870" lon="10.4845320">
	<ele>2445.80</ele>
	<time>2023-08-09T08:55:39.000Z</time>
</trkpt>
<trkpt lat="46.1712870" lon="10.4845320">
	<ele>2446.00</ele>
	<time>2023-08-09T08:55:40.000Z</time>
</trkpt>
<trkpt lat="46.1712870" lon="10.4845330">
	<ele>2446.20</ele>
	<time>2023-08-09T08:55:41.000Z</time>
</trkpt>
<trkpt lat="46.1712870" lon="10.4845330">
	<ele>2446.40</ele>
	<time>2023-08-09T08:55:42.000Z</time>
</trkpt>
<trkpt lat="46.1712870" lon="10.4845330">
	<ele>2446.40</ele>
	<time>2023-08-09T08:55:43.000Z</time>
</trkpt>
<trkpt lat="46.1712870" lon="10.4845340">
	<ele>2446.60</ele>
	<time>2023-08-09T08:55:44.000Z</time>
</trkpt>
<trkpt lat="46.1712870" lon="10.4845340">
	<ele>2446.80</ele>
	<time>2023-08-09T08:55:45.000Z</time>
</trkpt>
<trkpt lat="46.1712860" lon="10.4845350">
	<ele>2447.00</ele>
	<time>2023-08-09T08:55:46.000Z</time>
</trkpt>
<trkpt lat="46.1712860" lon="10.4845350">
	<ele>2447.00</ele>
	<time>2023-08-09T08:55:47.000Z</time>
</trkpt>
<trkpt lat="46.1712860" lon="10.4845350">
	<ele>2447.00</ele>
	<time>2023-08-09T08:55:48.000Z</time>
</trkpt>
<trkpt lat="46.1712860" lon="10.4845360">
	<ele>2447.00</ele>
	<time>2023-08-09T08:55:49.000Z</time>
</trkpt>
<trkpt lat="46.1712860" lon="10.4845360">
	<ele>2447.20</ele>
	<time>2023-08-09T08:55:50.000Z</time>
</trkpt>
<trkpt lat="46.1712850" lon="10.4845360">
	<ele>2447.20</ele>
	<time>2023-08-09T08:55:51.000Z</time>
</trkpt>
<trkpt lat="46.1712850" lon="10.4845370">
	<ele>2447.20</ele>
	<time>2023-08-09T08:55:52.000Z</time>
</trkpt>
<trkpt lat="46.1712850" lon="10.4845370">
	<ele>2447.40</ele>
	<time>2023-08-09T08:55:53.000Z</time>
</trkpt>
<trkpt lat="46.1712850" lon="10.4845370">
	<ele>2447.40</ele>
	<time>2023-08-09T08:55:54.000Z</time>
</trkpt>
<trkpt lat="46.1712850" lon="10.4845380">
	<ele>2447.40</ele>
	<time>2023-08-09T08:55:55.000Z</time>
</trkpt>
<trkpt lat="46.1712850" lon="10.4845380">
	<ele>2447.40</ele>
	<time>2023-08-09T08:55:56.000Z</time>
</trkpt>
<trkpt lat="46.1712840" lon="10.4845390">
	<ele>2447.40</ele>
	<time>2023-08-09T08:55:57.000Z</time>
</trkpt>
<trkpt lat="46.1712840" lon="10.4845390">
	<ele>2447.40</ele>
	<time>2023-08-09T08:55:58.000Z</time>
</trkpt>
<trkpt lat="46.1712840" lon="10.4845390">
	<ele>2447.40</ele>
	<time>2023-08-09T08:55:59.000Z</time>
</trkpt>
<trkpt lat="46.1712840" lon="10.4845400">
	<ele>2447.60</ele>
	<time>2023-08-09T08:56:00.000Z</time>
</trkpt>
<trkpt lat="46.1712840" lon="10.4845410">
	<ele>2447.60</ele>
	<time>2023-08-09T08:56:01.000Z</time>
</trkpt>
<trkpt lat="46.1712840" lon="10.4845410">
	<ele>2447.80</ele>
	<time>2023-08-09T08:56:02.000Z</time>
</trkpt>
<trkpt lat="46.1712830" lon="10.4845410">
	<ele>2447.80</ele>
	<time>2023-08-09T08:56:03.000Z</time>
</trkpt>
<trkpt lat="46.1712830" lon="10.4845420">
	<ele>2448.00</ele>
	<time>2023-08-09T08:56:04.000Z</time>
</trkpt>
<trkpt lat="46.1712830" lon="10.4845420">
	<ele>2448.20</ele>
	<time>2023-08-09T08:56:05.000Z</time>
</trkpt>
<trkpt lat="46.1712830" lon="10.4845430">
	<ele>2448.20</ele>
	<time>2023-08-09T08:56:06.000Z</time>
</trkpt>
<trkpt lat="46.1712830" lon="10.4845430">
	<ele>2448.40</ele>
	<time>2023-08-09T08:56:07.000Z</time>
</trkpt>
<trkpt lat="46.1712830" lon="10.4845440">
	<ele>2448.60</ele>
	<time>2023-08-09T08:56:08.000Z</time>
</trkpt>
<trkpt lat="46.1712820" lon="10.4845440">
	<ele>2448.80</ele>
	<time>2023-08-09T08:56:09.000Z</time>
</trkpt>
<trkpt lat="46.1712820" lon="10.4845440">
	<ele>2448.80</ele>
	<time>2023-08-09T08:56:10.000Z</time>
</trkpt>
<trkpt lat="46.1712820" lon="10.4845450">
	<ele>2448.80</ele>
	<time>2023-08-09T08:56:11.000Z</time>
</trkpt>
<trkpt lat="46.1712820" lon="10.4845450">
	<ele>2449.00</ele>
	<time>2023-08-09T08:56:12.000Z</time>
</trkpt>
<trkpt lat="46.1712820" lon="10.4845460">
	<ele>2449.00</ele>
	<time>2023-08-09T08:56:13.000Z</time>
</trkpt>
<trkpt lat="46.1712810" lon="10.4845460">
	<ele>2449.20</ele>
	<time>2023-08-09T08:56:14.000Z</time>
</trkpt>
<trkpt lat="46.1712810" lon="10.4845470">
	<ele>2449.20</ele>
	<time>2023-08-09T08:56:15.000Z</time>
</trkpt>
<trkpt lat="46.1712810" lon="10.4845470">
	<ele>2449.20</ele>
	<time>2023-08-09T08:56:16.000Z</time>
</trkpt>
<trkpt lat="46.1712810" lon="10.4845480">
	<ele>2449.60</ele>
	<time>2023-08-09T08:56:17.000Z</time>
</trkpt>
<trkpt lat="46.1712810" lon="10.4845480">
	<ele>2449.60</ele>
	<time>2023-08-09T08:56:18.000Z</time>
</trkpt>
<trkpt lat="46.1712660" lon="10.4845800">
	<ele>2449.80</ele>
	<time>2023-08-09T08:56:19.000Z</time>
</trkpt>
<trkpt lat="46.1712480" lon="10.4846120">
	<ele>2450.00</ele>
	<time>2023-08-09T08:56:20.000Z</time>
</trkpt>
<trkpt lat="46.1712320" lon="10.4846450">
	<ele>2450.20</ele>
	<time>2023-08-09T08:56:21.000Z</time>
</trkpt>
<trkpt lat="46.1712170" lon="10.4846780">
	<ele>2450.20</ele>
	<time>2023-08-09T08:56:22.000Z</time>
</trkpt>
<trkpt lat="46.1712170" lon="10.4846780">
	<ele>2450.40</ele>
	<time>2023-08-09T08:56:23.000Z</time>
</trkpt>
<trkpt lat="46.1712080" lon="10.4846970">
	<ele>2450.60</ele>
	<time>2023-08-09T08:56:24.000Z</time>
</trkpt>
<trkpt lat="46.1711970" lon="10.4847170">
	<ele>2450.60</ele>
	<time>2023-08-09T08:56:25.000Z</time>
</trkpt>
<trkpt lat="46.1711870" lon="10.4847400">
	<ele>2450.60</ele>
	<time>2023-08-09T08:56:26.000Z</time>
</trkpt>
<trkpt lat="46.1711780" lon="10.4847610">
	<ele>2450.60</ele>
	<time>2023-08-09T08:56:27.000Z</time>
</trkpt>
<trkpt lat="46.1711700" lon="10.4847800">
	<ele>2450.80</ele>
	<time>2023-08-09T08:56:28.000Z</time>
</trkpt>
<trkpt lat="46.1711620" lon="10.4847960">
	<ele>2451.00</ele>
	<time>2023-08-09T08:56:29.000Z</time>
</trkpt>
<trkpt lat="46.1711550" lon="10.4848150">
	<ele>2451.00</ele>
	<time>2023-08-09T08:56:30.000Z</time>
</trkpt>
<trkpt lat="46.1711470" lon="10.4848390">
	<ele>2451.00</ele>
	<time>2023-08-09T08:56:31.000Z</time>
</trkpt>
<trkpt lat="46.1711360" lon="10.4848630">
	<ele>2451.00</ele>
	<time>2023-08-09T08:56:32.000Z</time>
</trkpt>
<trkpt lat="46.1711290" lon="10.4848870">
	<ele>2451.00</ele>
	<time>2023-08-09T08:56:33.000Z</time>
</trkpt>
<trkpt lat="46.1711300" lon="10.4848900">
	<ele>2451.20</ele>
	<time>2023-08-09T08:56:34.000Z</time>
</trkpt>
<trkpt lat="46.1711320" lon="10.4848900">
	<ele>2451.40</ele>
	<time>2023-08-09T08:56:35.000Z</time>
</trkpt>
<trkpt lat="46.1711320" lon="10.4848910">
	<ele>2451.40</ele>
	<time>2023-08-09T08:56:36.000Z</time>
</trkpt>
<trkpt lat="46.1711330" lon="10.4848920">
	<ele>2451.60</ele>
	<time>2023-08-09T08:56:37.000Z</time>
</trkpt>
<trkpt lat="46.1711340" lon="10.4848920">
	<ele>2451.60</ele>
	<time>2023-08-09T08:56:38.000Z</time>
</trkpt>
<trkpt lat="46.1711340" lon="10.4848930">
	<ele>2451.60</ele>
	<time>2023-08-09T08:56:39.000Z</time>
</trkpt>
<trkpt lat="46.1711350" lon="10.4848940">
	<ele>2451.80</ele>
	<time>2023-08-09T08:56:40.000Z</time>
</trkpt>
<trkpt lat="46.1711350" lon="10.4848940">
	<ele>2451.80</ele>
	<time>2023-08-09T08:56:41.000Z</time>
</trkpt>
<trkpt lat="46.1711350" lon="10.4848940">
	<ele>2451.80</ele>
	<time>2023-08-09T08:56:42.000Z</time>
</trkpt>
<trkpt lat="46.1711350" lon="10.4848940">
	<ele>2451.80</ele>
	<time>2023-08-09T08:56:43.000Z</time>
</trkpt>
<trkpt lat="46.1711350" lon="10.4848940">
	<ele>2451.80</ele>
	<time>2023-08-09T08:56:44.000Z</time>
</trkpt>
<trkpt lat="46.1711350" lon="10.4848940">
	<ele>2451.80</ele>
	<time>2023-08-09T08:56:45.000Z</time>
</trkpt>
<trkpt lat="46.1711350" lon="10.4848940">
	<ele>2451.80</ele>
	<time>2023-08-09T08:56:46.000Z</time>
</trkpt>
<trkpt lat="46.1711350" lon="10.4848940">
	<ele>2451.80</ele>
	<time>2023-08-09T08:56:47.000Z</time>
</trkpt>
<trkpt lat="46.1711350" lon="10.4848940">
	<ele>2451.60</ele>
	<time>2023-08-09T08:56:48.000Z</time>
</trkpt>
<trkpt lat="46.1711350" lon="10.4848940">
	<ele>2451.60</ele>
	<time>2023-08-09T08:56:49.000Z</time>
</trkpt>
<trkpt lat="46.1711350" lon="10.4848940">
	<ele>2451.60</ele>
	<time>2023-08-09T08:56:50.000Z</time>
</trkpt>
<trkpt lat="46.1711350" lon="10.4848940">
	<ele>2451.60</ele>
	<time>2023-08-09T08:56:51.000Z</time>
</trkpt>
<trkpt lat="46.1711350" lon="10.4848940">
	<ele>2451.60</ele>
	<time>2023-08-09T08:56:52.000Z</time>
</trkpt>
<trkpt lat="46.1711340" lon="10.4848930">
	<ele>2451.60</ele>
	<time>2023-08-09T08:56:53.000Z</time>
</trkpt>
<trkpt lat="46.1711340" lon="10.4848920">
	<ele>2451.60</ele>
	<time>2023-08-09T08:56:54.000Z</time>
</trkpt>
<trkpt lat="46.1711330" lon="10.4848920">
	<ele>2451.60</ele>
	<time>2023-08-09T08:56:55.000Z</time>
</trkpt>
<trkpt lat="46.1711330" lon="10.4848920">
	<ele>2451.60</ele>
	<time>2023-08-09T08:56:56.000Z</time>
</trkpt>
<trkpt lat="46.1711320" lon="10.4848910">
	<ele>2451.60</ele>
	<time>2023-08-09T08:56:57.000Z</time>
</trkpt>
<trkpt lat="46.1711320" lon="10.4848900">
	<ele>2451.80</ele>
	<time>2023-08-09T08:56:58.000Z</time>
</trkpt>
<trkpt lat="46.1711320" lon="10.4848900">
	<ele>2451.80</ele>
	<time>2023-08-09T08:56:59.000Z</time>
</trkpt>
<trkpt lat="46.1711310" lon="10.4848900">
	<ele>2451.60</ele>
	<time>2023-08-09T08:57:00.000Z</time>
</trkpt>
<trkpt lat="46.1711310" lon="10.4848880">
	<ele>2451.60</ele>
	<time>2023-08-09T08:57:01.000Z</time>
</trkpt>
<trkpt lat="46.1711310" lon="10.4848870">
	<ele>2451.40</ele>
	<time>2023-08-09T08:57:02.000Z</time>
</trkpt>
<trkpt lat="46.1711310" lon="10.4848870">
	<ele>2451.20</ele>
	<time>2023-08-09T08:57:03.000Z</time>
</trkpt>
<trkpt lat="46.1711310" lon="10.4848860">
	<ele>2451.00</ele>
	<time>2023-08-09T08:57:04.000Z</time>
</trkpt>
<trkpt lat="46.1711310" lon="10.4848860">
	<ele>2450.80</ele>
	<time>2023-08-09T08:57:05.000Z</time>
</trkpt>
<trkpt lat="46.1711310" lon="10.4848850">
	<ele>2450.80</ele>
	<time>2023-08-09T08:57:06.000Z</time>
</trkpt>
<trkpt lat="46.1711310" lon="10.4848840">
	<ele>2450.80</ele>
	<time>2023-08-09T08:57:07.000Z</time>
</trkpt>
<trkpt lat="46.1711310" lon="10.4848820">
	<ele>2450.80</ele>
	<time>2023-08-09T08:57:08.000Z</time>
</trkpt>
<trkpt lat="46.1711300" lon="10.4848820">
	<ele>2450.80</ele>
	<time>2023-08-09T08:57:09.000Z</time>
</trkpt>
<trkpt lat="46.1711300" lon="10.4848820">
	<ele>2451.00</ele>
	<time>2023-08-09T08:57:10.000Z</time>
</trkpt>
<trkpt lat="46.1711300" lon="10.4848810">
	<ele>2451.00</ele>
	<time>2023-08-09T08:57:11.000Z</time>
</trkpt>
<trkpt lat="46.1711300" lon="10.4848810">
	<ele>2451.20</ele>
	<time>2023-08-09T08:57:12.000Z</time>
</trkpt>
<trkpt lat="46.1711300" lon="10.4848810">
	<ele>2451.20</ele>
	<time>2023-08-09T08:57:13.000Z</time>
</trkpt>
<trkpt lat="46.1711300" lon="10.4848810">
	<ele>2451.20</ele>
	<time>2023-08-09T08:57:14.000Z</time>
</trkpt>
<trkpt lat="46.1711300" lon="10.4848810">
	<ele>2451.20</ele>
	<time>2023-08-09T08:57:15.000Z</time>
</trkpt>
<trkpt lat="46.1711300" lon="10.4848810">
	<ele>2451.60</ele>
	<time>2023-08-09T08:57:16.000Z</time>
</trkpt>
<trkpt lat="46.1711290" lon="10.4848810">
	<ele>2451.80</ele>
	<time>2023-08-09T08:57:17.000Z</time>
</trkpt>
<trkpt lat="46.1711290" lon="10.4848810">
	<ele>2452.00</ele>
	<time>2023-08-09T08:57:18.000Z</time>
</trkpt>
<trkpt lat="46.1711290" lon="10.4848810">
	<ele>2452.00</ele>
	<time>2023-08-09T08:57:19.000Z</time>
</trkpt>
<trkpt lat="46.1711290" lon="10.4848810">
	<ele>2452.20</ele>
	<time>2023-08-09T08:57:20.000Z</time>
</trkpt>
<trkpt lat="46.1711290" lon="10.4848810">
	<ele>2452.40</ele>
	<time>2023-08-09T08:57:21.000Z</time>
</trkpt>
<trkpt lat="46.1711290" lon="10.4848810">
	<ele>2452.60</ele>
	<time>2023-08-09T08:57:22.000Z</time>
</trkpt>
<trkpt lat="46.1711290" lon="10.4848810">
	<ele>2452.80</ele>
	<time>2023-08-09T08:57:23.000Z</time>
</trkpt>
<trkpt lat="46.1711290" lon="10.4848810">
	<ele>2452.80</ele>
	<time>2023-08-09T08:57:24.000Z</time>
</trkpt>
<trkpt lat="46.1711290" lon="10.4848820">
	<ele>2453.00</ele>
	<time>2023-08-09T08:57:25.000Z</time>
</trkpt>
<trkpt lat="46.1711290" lon="10.4848820">
	<ele>2453.00</ele>
	<time>2023-08-09T08:57:26.000Z</time>
</trkpt>
<trkpt lat="46.1711290" lon="10.4848830">
	<ele>2453.00</ele>
	<time>2023-08-09T08:57:27.000Z</time>
</trkpt>
<trkpt lat="46.1711290" lon="10.4848840">
	<ele>2453.00</ele>
	<time>2023-08-09T08:57:28.000Z</time>
</trkpt>
<trkpt lat="46.1711300" lon="10.4848850">
	<ele>2453.20</ele>
	<time>2023-08-09T08:57:29.000Z</time>
</trkpt>
<trkpt lat="46.1711300" lon="10.4848890">
	<ele>2453.40</ele>
	<time>2023-08-09T08:57:30.000Z</time>
</trkpt>
<trkpt lat="46.1711300" lon="10.4848960">
	<ele>2453.60</ele>
	<time>2023-08-09T08:57:31.000Z</time>
</trkpt>
<trkpt lat="46.1711310" lon="10.4849020">
	<ele>2453.60</ele>
	<time>2023-08-09T08:57:32.000Z</time>
</trkpt>
<trkpt lat="46.1711310" lon="10.4849070">
	<ele>2453.80</ele>
	<time>2023-08-09T08:57:33.000Z</time>
</trkpt>
<trkpt lat="46.1711310" lon="10.4849080">
	<ele>2453.80</ele>
	<time>2023-08-09T08:57:34.000Z</time>
</trkpt>
<trkpt lat="46.1711310" lon="10.4849090">
	<ele>2454.00</ele>
	<time>2023-08-09T08:57:35.000Z</time>
</trkpt>
<trkpt lat="46.1711320" lon="10.4849120">
	<ele>2454.00</ele>
	<time>2023-08-09T08:57:36.000Z</time>
</trkpt>
<trkpt lat="46.1711320" lon="10.4849170">
	<ele>2454.20</ele>
	<time>2023-08-09T08:57:37.000Z</time>
</trkpt>
<trkpt lat="46.1711320" lon="10.4849220">
	<ele>2454.20</ele>
	<time>2023-08-09T08:57:38.000Z</time>
</trkpt>
<trkpt lat="46.1711320" lon="10.4849250">
	<ele>2454.20</ele>
	<time>2023-08-09T08:57:39.000Z</time>
</trkpt>
<trkpt lat="46.1711320" lon="10.4849290">
	<ele>2454.20</ele>
	<time>2023-08-09T08:57:40.000Z</time>
</trkpt>
<trkpt lat="46.1711320" lon="10.4849310">
	<ele>2454.20</ele>
	<time>2023-08-09T08:57:41.000Z</time>
</trkpt>
<trkpt lat="46.1711320" lon="10.4849360">
	<ele>2454.40</ele>
	<time>2023-08-09T08:57:42.000Z</time>
</trkpt>
<trkpt lat="46.1711320" lon="10.4849410">
	<ele>2454.80</ele>
	<time>2023-08-09T08:57:43.000Z</time>
</trkpt>
<trkpt lat="46.1711320" lon="10.4849470">
	<ele>2455.00</ele>
	<time>2023-08-09T08:57:44.000Z</time>
</trkpt>
<trkpt lat="46.1711320" lon="10.4849510">
	<ele>2455.00</ele>
	<time>2023-08-09T08:57:45.000Z</time>
</trkpt>
<trkpt lat="46.1711320" lon="10.4849580">
	<ele>2455.20</ele>
	<time>2023-08-09T08:57:46.000Z</time>
</trkpt>
<trkpt lat="46.1711320" lon="10.4849630">
	<ele>2455.20</ele>
	<time>2023-08-09T08:57:47.000Z</time>
</trkpt>
<trkpt lat="46.1711320" lon="10.4849650">
	<ele>2455.40</ele>
	<time>2023-08-09T08:57:48.000Z</time>
</trkpt>
<trkpt lat="46.1711320" lon="10.4849660">
	<ele>2455.40</ele>
	<time>2023-08-09T08:57:49.000Z</time>
</trkpt>
<trkpt lat="46.1711320" lon="10.4849670">
	<ele>2455.60</ele>
	<time>2023-08-09T08:57:50.000Z</time>
</trkpt>
<trkpt lat="46.1711310" lon="10.4849670">
	<ele>2455.60</ele>
	<time>2023-08-09T08:57:51.000Z</time>
</trkpt>
<trkpt lat="46.1711290" lon="10.4849680">
	<ele>2455.80</ele>
	<time>2023-08-09T08:57:52.000Z</time>
</trkpt>
<trkpt lat="46.1711270" lon="10.4849680">
	<ele>2456.00</ele>
	<time>2023-08-09T08:57:53.000Z</time>
</trkpt>
<trkpt lat="46.1711260" lon="10.4849700">
	<ele>2456.00</ele>
	<time>2023-08-09T08:57:54.000Z</time>
</trkpt>
<trkpt lat="46.1711250" lon="10.4849710">
	<ele>2456.20</ele>
	<time>2023-08-09T08:57:55.000Z</time>
</trkpt>
<trkpt lat="46.1711230" lon="10.4849730">
	<ele>2456.20</ele>
	<time>2023-08-09T08:57:56.000Z</time>
</trkpt>
<trkpt lat="46.1711210" lon="10.4849750">
	<ele>2456.20</ele>
	<time>2023-08-09T08:57:57.000Z</time>
</trkpt>
<trkpt lat="46.1711200" lon="10.4849760">
	<ele>2456.40</ele>
	<time>2023-08-09T08:57:58.000Z</time>
</trkpt>
<trkpt lat="46.1711200" lon="10.4849780">
	<ele>2456.40</ele>
	<time>2023-08-09T08:57:59.000Z</time>
</trkpt>
<trkpt lat="46.1711190" lon="10.4849800">
	<ele>2456.60</ele>
	<time>2023-08-09T08:58:00.000Z</time>
</trkpt>
<trkpt lat="46.1711190" lon="10.4849840">
	<ele>2456.80</ele>
	<time>2023-08-09T08:58:01.000Z</time>
</trkpt>
<trkpt lat="46.1711190" lon="10.4849850">
	<ele>2457.00</ele>
	<time>2023-08-09T08:58:02.000Z</time>
</trkpt>
<trkpt lat="46.1711190" lon="10.4849880">
	<ele>2457.20</ele>
	<time>2023-08-09T08:58:03.000Z</time>
</trkpt>
<trkpt lat="46.1711190" lon="10.4849920">
	<ele>2457.20</ele>
	<time>2023-08-09T08:58:04.000Z</time>
</trkpt>
<trkpt lat="46.1711190" lon="10.4849950">
	<ele>2457.40</ele>
	<time>2023-08-09T08:58:05.000Z</time>
</trkpt>
<trkpt lat="46.1711190" lon="10.4849990">
	<ele>2457.60</ele>
	<time>2023-08-09T08:58:06.000Z</time>
</trkpt>
<trkpt lat="46.1711190" lon="10.4850050">
	<ele>2457.60</ele>
	<time>2023-08-09T08:58:07.000Z</time>
</trkpt>
<trkpt lat="46.1711190" lon="10.4850090">
	<ele>2457.80</ele>
	<time>2023-08-09T08:58:08.000Z</time>
</trkpt>
<trkpt lat="46.1711190" lon="10.4850120">
	<ele>2458.00</ele>
	<time>2023-08-09T08:58:09.000Z</time>
</trkpt>
<trkpt lat="46.1711190" lon="10.4850170">
	<ele>2458.20</ele>
	<time>2023-08-09T08:58:10.000Z</time>
</trkpt>
<trkpt lat="46.1711190" lon="10.4850220">
	<ele>2458.20</ele>
	<time>2023-08-09T08:58:11.000Z</time>
</trkpt>
<trkpt lat="46.1711200" lon="10.4850260">
	<ele>2458.40</ele>
	<time>2023-08-09T08:58:12.000Z</time>
</trkpt>
<trkpt lat="46.1711210" lon="10.4850300">
	<ele>2458.40</ele>
	<time>2023-08-09T08:58:13.000Z</time>
</trkpt>
<trkpt lat="46.1711220" lon="10.4850350">
	<ele>2458.40</ele>
	<time>2023-08-09T08:58:14.000Z</time>
</trkpt>
<trkpt lat="46.1711240" lon="10.4850390">
	<ele>2458.40</ele>
	<time>2023-08-09T08:58:15.000Z</time>
</trkpt>
<trkpt lat="46.1711260" lon="10.4850430">
	<ele>2458.40</ele>
	<time>2023-08-09T08:58:16.000Z</time>
</trkpt>
<trkpt lat="46.1711280" lon="10.4850480">
	<ele>2458.40</ele>
	<time>2023-08-09T08:58:17.000Z</time>
</trkpt>
<trkpt lat="46.1711300" lon="10.4850530">
	<ele>2458.20</ele>
	<time>2023-08-09T08:58:18.000Z</time>
</trkpt>
<trkpt lat="46.1711320" lon="10.4850580">
	<ele>2458.20</ele>
	<time>2023-08-09T08:58:19.000Z</time>
</trkpt>
<trkpt lat="46.1711350" lon="10.4850630">
	<ele>2458.20</ele>
	<time>2023-08-09T08:58:20.000Z</time>
</trkpt>
<trkpt lat="46.1711370" lon="10.4850690">
	<ele>2458.20</ele>
	<time>2023-08-09T08:58:21.000Z</time>
</trkpt>
<trkpt lat="46.1711380" lon="10.4850740">
	<ele>2458.20</ele>
	<time>2023-08-09T08:58:22.000Z</time>
</trkpt>
<trkpt lat="46.1711400" lon="10.4850790">
	<ele>2458.60</ele>
	<time>2023-08-09T08:58:23.000Z</time>
</trkpt>
<trkpt lat="46.1711420" lon="10.4850830">
	<ele>2458.60</ele>
	<time>2023-08-09T08:58:24.000Z</time>
</trkpt>
<trkpt lat="46.1711440" lon="10.4850860">
	<ele>2458.80</ele>
	<time>2023-08-09T08:58:25.000Z</time>
</trkpt>
<trkpt lat="46.1711450" lon="10.4850880">
	<ele>2458.80</ele>
	<time>2023-08-09T08:58:26.000Z</time>
</trkpt>
<trkpt lat="46.1711500" lon="10.4850970">
	<ele>2459.20</ele>
	<time>2023-08-09T08:58:27.000Z</time>
</trkpt>
<trkpt lat="46.1711580" lon="10.4851090">
	<ele>2459.20</ele>
	<time>2023-08-09T08:58:28.000Z</time>
</trkpt>
<trkpt lat="46.1711630" lon="10.4851200">
	<ele>2459.40</ele>
	<time>2023-08-09T08:58:29.000Z</time>
</trkpt>
<trkpt lat="46.1711730" lon="10.4851320">
	<ele>2459.40</ele>
	<time>2023-08-09T08:58:30.000Z</time>
</trkpt>
<trkpt lat="46.1711840" lon="10.4851500">
	<ele>2459.40</ele>
	<time>2023-08-09T08:58:31.000Z</time>
</trkpt>
<trkpt lat="46.1711910" lon="10.4851640">
	<ele>2459.40</ele>
	<time>2023-08-09T08:58:32.000Z</time>
</trkpt>
<trkpt lat="46.1711970" lon="10.4851760">
	<ele>2459.40</ele>
	<time>2023-08-09T08:58:33.000Z</time>
</trkpt>
<trkpt lat="46.1712080" lon="10.4851910">
	<ele>2459.40</ele>
	<time>2023-08-09T08:58:34.000Z</time>
</trkpt>
<trkpt lat="46.1712170" lon="10.4852070">
	<ele>2459.60</ele>
	<time>2023-08-09T08:58:35.000Z</time>
</trkpt>
<trkpt lat="46.1712250" lon="10.4852200">
	<ele>2459.60</ele>
	<time>2023-08-09T08:58:36.000Z</time>
</trkpt>
<trkpt lat="46.1712300" lon="10.4852290">
	<ele>2459.60</ele>
	<time>2023-08-09T08:58:37.000Z</time>
</trkpt>
<trkpt lat="46.1712350" lon="10.4852340">
	<ele>2459.60</ele>
	<time>2023-08-09T08:58:38.000Z</time>
</trkpt>
<trkpt lat="46.1712410" lon="10.4852350">
	<ele>2459.60</ele>
	<time>2023-08-09T08:58:39.000Z</time>
</trkpt>
<trkpt lat="46.1712460" lon="10.4852390">
	<ele>2459.80</ele>
	<time>2023-08-09T08:58:40.000Z</time>
</trkpt>
<trkpt lat="46.1712490" lon="10.4852440">
	<ele>2459.80</ele>
	<time>2023-08-09T08:58:41.000Z</time>
</trkpt>
<trkpt lat="46.1712510" lon="10.4852460">
	<ele>2459.80</ele>
	<time>2023-08-09T08:58:42.000Z</time>
</trkpt>
<trkpt lat="46.1712540" lon="10.4852480">
	<ele>2460.00</ele>
	<time>2023-08-09T08:58:43.000Z</time>
</trkpt>
<trkpt lat="46.1712560" lon="10.4852520">
	<ele>2460.20</ele>
	<time>2023-08-09T08:58:44.000Z</time>
</trkpt>
<trkpt lat="46.1712590" lon="10.4852550">
	<ele>2460.20</ele>
	<time>2023-08-09T08:58:45.000Z</time>
</trkpt>
<trkpt lat="46.1712620" lon="10.4852600">
	<ele>2460.40</ele>
	<time>2023-08-09T08:58:46.000Z</time>
</trkpt>
<trkpt lat="46.1712660" lon="10.4852690">
	<ele>2460.60</ele>
	<time>2023-08-09T08:58:47.000Z</time>
</trkpt>
<trkpt lat="46.1712660" lon="10.4852740">
	<ele>2460.80</ele>
	<time>2023-08-09T08:58:48.000Z</time>
</trkpt>
<trkpt lat="46.1712650" lon="10.4852800">
	<ele>2460.80</ele>
	<time>2023-08-09T08:58:49.000Z</time>
</trkpt>
<trkpt lat="46.1712620" lon="10.4852850">
	<ele>2461.00</ele>
	<time>2023-08-09T08:58:50.000Z</time>
</trkpt>
<trkpt lat="46.1712580" lon="10.4852900">
	<ele>2461.00</ele>
	<time>2023-08-09T08:58:51.000Z</time>
</trkpt>
<trkpt lat="46.1712570" lon="10.4852910">
	<ele>2461.20</ele>
	<time>2023-08-09T08:58:52.000Z</time>
</trkpt>
<trkpt lat="46.1712540" lon="10.4852940">
	<ele>2461.20</ele>
	<time>2023-08-09T08:58:53.000Z</time>
</trkpt>
<trkpt lat="46.1712490" lon="10.4852930">
	<ele>2461.40</ele>
	<time>2023-08-09T08:58:54.000Z</time>
</trkpt>
<trkpt lat="46.1712430" lon="10.4852890">
	<ele>2461.60</ele>
	<time>2023-08-09T08:58:55.000Z</time>
</trkpt>
<trkpt lat="46.1712400" lon="10.4852860">
	<ele>2461.60</ele>
	<time>2023-08-09T08:58:56.000Z</time>
</trkpt>
<trkpt lat="46.1712420" lon="10.4852860">
	<ele>2461.60</ele>
	<time>2023-08-09T08:58:57.000Z</time>
</trkpt>
<trkpt lat="46.1712420" lon="10.4852860">
	<ele>2461.80</ele>
	<time>2023-08-09T08:58:58.000Z</time>
</trkpt>
<trkpt lat="46.1712420" lon="10.4852860">
	<ele>2462.00</ele>
	<time>2023-08-09T08:58:59.000Z</time>
</trkpt>
<trkpt lat="46.1712420" lon="10.4852860">
	<ele>2462.20</ele>
	<time>2023-08-09T08:59:00.000Z</time>
</trkpt>
<trkpt lat="46.1712420" lon="10.4852860">
	<ele>2462.40</ele>
	<time>2023-08-09T08:59:01.000Z</time>
</trkpt>
<trkpt lat="46.1712420" lon="10.4852860">
	<ele>2462.40</ele>
	<time>2023-08-09T08:59:02.000Z</time>
</trkpt>
<trkpt lat="46.1712420" lon="10.4852860">
	<ele>2462.60</ele>
	<time>2023-08-09T08:59:03.000Z</time>
</trkpt>
<trkpt lat="46.1712420" lon="10.4852860">
	<ele>2462.60</ele>
	<time>2023-08-09T08:59:04.000Z</time>
</trkpt>
<trkpt lat="46.1712420" lon="10.4852860">
	<ele>2462.60</ele>
	<time>2023-08-09T08:59:05.000Z</time>
</trkpt>
<trkpt lat="46.1712420" lon="10.4852860">
	<ele>2462.60</ele>
	<time>2023-08-09T08:59:06.000Z</time>
</trkpt>
<trkpt lat="46.1712420" lon="10.4852860">
	<ele>2462.80</ele>
	<time>2023-08-09T08:59:07.000Z</time>
</trkpt>
<trkpt lat="46.1712420" lon="10.4852890">
	<ele>2463.00</ele>
	<time>2023-08-09T08:59:08.000Z</time>
</trkpt>
<trkpt lat="46.1712420" lon="10.4852890">
	<ele>2463.20</ele>
	<time>2023-08-09T08:59:09.000Z</time>
</trkpt>
<trkpt lat="46.1712420" lon="10.4852890">
	<ele>2463.20</ele>
	<time>2023-08-09T08:59:10.000Z</time>
</trkpt>
<trkpt lat="46.1712420" lon="10.4852910">
	<ele>2463.40</ele>
	<time>2023-08-09T08:59:11.000Z</time>
</trkpt>
<trkpt lat="46.1712420" lon="10.4852910">
	<ele>2463.40</ele>
	<time>2023-08-09T08:59:12.000Z</time>
</trkpt>
<trkpt lat="46.1712420" lon="10.4852930">
	<ele>2463.80</ele>
	<time>2023-08-09T08:59:13.000Z</time>
</trkpt>
<trkpt lat="46.1712400" lon="10.4852940">
	<ele>2464.00</ele>
	<time>2023-08-09T08:59:14.000Z</time>
</trkpt>
<trkpt lat="46.1712400" lon="10.4852960">
	<ele>2464.00</ele>
	<time>2023-08-09T08:59:15.000Z</time>
</trkpt>
<trkpt lat="46.1712370" lon="10.4852980">
	<ele>2464.00</ele>
	<time>2023-08-09T08:59:16.000Z</time>
</trkpt>
<trkpt lat="46.1712340" lon="10.4853000">
	<ele>2464.20</ele>
	<time>2023-08-09T08:59:17.000Z</time>
</trkpt>
<trkpt lat="46.1712330" lon="10.4853020">
	<ele>2464.20</ele>
	<time>2023-08-09T08:59:18.000Z</time>
</trkpt>
<trkpt lat="46.1712320" lon="10.4853030">
	<ele>2464.20</ele>
	<time>2023-08-09T08:59:19.000Z</time>
</trkpt>
<trkpt lat="46.1712300" lon="10.4853030">
	<ele>2464.40</ele>
	<time>2023-08-09T08:59:20.000Z</time>
</trkpt>
<trkpt lat="46.1712270" lon="10.4853040">
	<ele>2464.40</ele>
	<time>2023-08-09T08:59:21.000Z</time>
</trkpt>
<trkpt lat="46.1712210" lon="10.4853040">
	<ele>2464.40</ele>
	<time>2023-08-09T08:59:22.000Z</time>
</trkpt>
<trkpt lat="46.1712180" lon="10.4853040">
	<ele>2464.60</ele>
	<time>2023-08-09T08:59:23.000Z</time>
</trkpt>
<trkpt lat="46.1712160" lon="10.4853040">
	<ele>2464.80</ele>
	<time>2023-08-09T08:59:24.000Z</time>
</trkpt>
<trkpt lat="46.1712150" lon="10.4853040">
	<ele>2464.80</ele>
	<time>2023-08-09T08:59:25.000Z</time>
</trkpt>
<trkpt lat="46.1712120" lon="10.4853050">
	<ele>2464.80</ele>
	<time>2023-08-09T08:59:26.000Z</time>
</trkpt>
<trkpt lat="46.1712090" lon="10.4853050">
	<ele>2465.00</ele>
	<time>2023-08-09T08:59:27.000Z</time>
</trkpt>
<trkpt lat="46.1712050" lon="10.4853060">
	<ele>2465.00</ele>
	<time>2023-08-09T08:59:28.000Z</time>
</trkpt>
<trkpt lat="46.1712040" lon="10.4853070">
	<ele>2465.20</ele>
	<time>2023-08-09T08:59:29.000Z</time>
</trkpt>
<trkpt lat="46.1712010" lon="10.4853080">
	<ele>2465.20</ele>
	<time>2023-08-09T08:59:30.000Z</time>
</trkpt>
<trkpt lat="46.1711990" lon="10.4853080">
	<ele>2465.40</ele>
	<time>2023-08-09T08:59:31.000Z</time>
</trkpt>
<trkpt lat="46.1711960" lon="10.4853100">
	<ele>2465.40</ele>
	<time>2023-08-09T08:59:32.000Z</time>
</trkpt>
<trkpt lat="46.1711930" lon="10.4853120">
	<ele>2465.40</ele>
	<time>2023-08-09T08:59:33.000Z</time>
</trkpt>
<trkpt lat="46.1711920" lon="10.4853130">
	<ele>2465.60</ele>
	<time>2023-08-09T08:59:34.000Z</time>
</trkpt>
<trkpt lat="46.1711900" lon="10.4853140">
	<ele>2465.80</ele>
	<time>2023-08-09T08:59:35.000Z</time>
</trkpt>
<trkpt lat="46.1711880" lon="10.4853180">
	<ele>2466.00</ele>
	<time>2023-08-09T08:59:36.000Z</time>
</trkpt>
<trkpt lat="46.1711870" lon="10.4853220">
	<ele>2466.00</ele>
	<time>2023-08-09T08:59:37.000Z</time>
</trkpt>
<trkpt lat="46.1711870" lon="10.4853280">
	<ele>2466.20</ele>
	<time>2023-08-09T08:59:38.000Z</time>
</trkpt>
<trkpt lat="46.1711870" lon="10.4853310">
	<ele>2466.40</ele>
	<time>2023-08-09T08:59:39.000Z</time>
</trkpt>
<trkpt lat="46.1711860" lon="10.4853360">
	<ele>2466.60</ele>
	<time>2023-08-09T08:59:40.000Z</time>
</trkpt>
<trkpt lat="46.1711860" lon="10.4853400">
	<ele>2467.00</ele>
	<time>2023-08-09T08:59:41.000Z</time>
</trkpt>
<trkpt lat="46.1711860" lon="10.4853430">
	<ele>2467.00</ele>
	<time>2023-08-09T08:59:42.000Z</time>
</trkpt>
<trkpt lat="46.1711850" lon="10.4853440">
	<ele>2467.20</ele>
	<time>2023-08-09T08:59:43.000Z</time>
</trkpt>
<trkpt lat="46.1711840" lon="10.4853470">
	<ele>2467.20</ele>
	<time>2023-08-09T08:59:44.000Z</time>
</trkpt>
<trkpt lat="46.1711830" lon="10.4853500">
	<ele>2467.20</ele>
	<time>2023-08-09T08:59:45.000Z</time>
</trkpt>
<trkpt lat="46.1711830" lon="10.4853540">
	<ele>2467.20</ele>
	<time>2023-08-09T08:59:46.000Z</time>
</trkpt>
<trkpt lat="46.1711820" lon="10.4853570">
	<ele>2467.40</ele>
	<time>2023-08-09T08:59:47.000Z</time>
</trkpt>
<trkpt lat="46.1711820" lon="10.4853620">
	<ele>2467.40</ele>
	<time>2023-08-09T08:59:48.000Z</time>
</trkpt>
<trkpt lat="46.1711810" lon="10.4853640">
	<ele>2467.60</ele>
	<time>2023-08-09T08:59:49.000Z</time>
</trkpt>
<trkpt lat="46.1711810" lon="10.4853650">
	<ele>2467.60</ele>
	<time>2023-08-09T08:59:50.000Z</time>
</trkpt>
<trkpt lat="46.1711800" lon="10.4853660">
	<ele>2467.60</ele>
	<time>2023-08-09T08:59:51.000Z</time>
</trkpt>
<trkpt lat="46.1711790" lon="10.4853670">
	<ele>2467.60</ele>
	<time>2023-08-09T08:59:52.000Z</time>
</trkpt>
<trkpt lat="46.1711790" lon="10.4853730">
	<ele>2467.80</ele>
	<time>2023-08-09T08:59:53.000Z</time>
</trkpt>
<trkpt lat="46.1711790" lon="10.4853800">
	<ele>2468.20</ele>
	<time>2023-08-09T08:59:54.000Z</time>
</trkpt>
<trkpt lat="46.1711780" lon="10.4853840">
	<ele>2468.40</ele>
	<time>2023-08-09T08:59:55.000Z</time>
</trkpt>
<trkpt lat="46.1711780" lon="10.4853870">
	<ele>2468.40</ele>
	<time>2023-08-09T08:59:56.000Z</time>
</trkpt>
<trkpt lat="46.1711760" lon="10.4853900">
	<ele>2468.60</ele>
	<time>2023-08-09T08:59:57.000Z</time>
</trkpt>
<trkpt lat="46.1711750" lon="10.4853910">
	<ele>2468.60</ele>
	<time>2023-08-09T08:59:58.000Z</time>
</trkpt>
<trkpt lat="46.1711720" lon="10.4853910">
	<ele>2468.80</ele>
	<time>2023-08-09T08:59:59.000Z</time>
</trkpt>
<trkpt lat="46.1711690" lon="10.4853910">
	<ele>2468.80</ele>
	<time>2023-08-09T09:00:00.000Z</time>
</trkpt>
<trkpt lat="46.1711630" lon="10.4853920">
	<ele>2469.00</ele>
	<time>2023-08-09T09:00:01.000Z</time>
</trkpt>
<trkpt lat="46.1711590" lon="10.4853920">
	<ele>2469.00</ele>
	<time>2023-08-09T09:00:02.000Z</time>
</trkpt>
<trkpt lat="46.1711570" lon="10.4853920">
	<ele>2469.20</ele>
	<time>2023-08-09T09:00:03.000Z</time>
</trkpt>
<trkpt lat="46.1711530" lon="10.4853920">
	<ele>2469.20</ele>
	<time>2023-08-09T09:00:04.000Z</time>
</trkpt>
<trkpt lat="46.1711500" lon="10.4853920">
	<ele>2469.20</ele>
	<time>2023-08-09T09:00:05.000Z</time>
</trkpt>
<trkpt lat="46.1711460" lon="10.4853920">
	<ele>2469.40</ele>
	<time>2023-08-09T09:00:06.000Z</time>
</trkpt>
<trkpt lat="46.1711400" lon="10.4853920">
	<ele>2469.60</ele>
	<time>2023-08-09T09:00:07.000Z</time>
</trkpt>
<trkpt lat="46.1711360" lon="10.4853920">
	<ele>2469.60</ele>
	<time>2023-08-09T09:00:08.000Z</time>
</trkpt>
<trkpt lat="46.1711330" lon="10.4853920">
	<ele>2469.80</ele>
	<time>2023-08-09T09:00:09.000Z</time>
</trkpt>
<trkpt lat="46.1711300" lon="10.4853920">
	<ele>2469.80</ele>
	<time>2023-08-09T09:00:10.000Z</time>
</trkpt>
<trkpt lat="46.1711260" lon="10.4853920">
	<ele>2470.00</ele>
	<time>2023-08-09T09:00:11.000Z</time>
</trkpt>
<trkpt lat="46.1711230" lon="10.4853920">
	<ele>2470.00</ele>
	<time>2023-08-09T09:00:12.000Z</time>
</trkpt>
<trkpt lat="46.1711210" lon="10.4853920">
	<ele>2470.20</ele>
	<time>2023-08-09T09:00:13.000Z</time>
</trkpt>
<trkpt lat="46.1711200" lon="10.4853920">
	<ele>2470.40</ele>
	<time>2023-08-09T09:00:14.000Z</time>
</trkpt>
<trkpt lat="46.1711190" lon="10.4853920">
	<ele>2470.40</ele>
	<time>2023-08-09T09:00:15.000Z</time>
</trkpt>
<trkpt lat="46.1711170" lon="10.4853920">
	<ele>2470.60</ele>
	<time>2023-08-09T09:00:16.000Z</time>
</trkpt>
<trkpt lat="46.1711150" lon="10.4853920">
	<ele>2470.60</ele>
	<time>2023-08-09T09:00:17.000Z</time>
</trkpt>
<trkpt lat="46.1711110" lon="10.4853920">
	<ele>2470.60</ele>
	<time>2023-08-09T09:00:18.000Z</time>
</trkpt>
<trkpt lat="46.1711060" lon="10.4853920">
	<ele>2470.80</ele>
	<time>2023-08-09T09:00:19.000Z</time>
</trkpt>
<trkpt lat="46.1711020" lon="10.4853920">
	<ele>2470.80</ele>
	<time>2023-08-09T09:00:20.000Z</time>
</trkpt>
<trkpt lat="46.1710980" lon="10.4853920">
	<ele>2471.00</ele>
	<time>2023-08-09T09:00:21.000Z</time>
</trkpt>
<trkpt lat="46.1710950" lon="10.4853920">
	<ele>2471.00</ele>
	<time>2023-08-09T09:00:22.000Z</time>
</trkpt>
<trkpt lat="46.1710910" lon="10.4853920">
	<ele>2471.20</ele>
	<time>2023-08-09T09:00:23.000Z</time>
</trkpt>
<trkpt lat="46.1710890" lon="10.4853920">
	<ele>2471.40</ele>
	<time>2023-08-09T09:00:24.000Z</time>
</trkpt>
<trkpt lat="46.1710880" lon="10.4853920">
	<ele>2471.40</ele>
	<time>2023-08-09T09:00:25.000Z</time>
</trkpt>
<trkpt lat="46.1710880" lon="10.4853920">
	<ele>2471.60</ele>
	<time>2023-08-09T09:00:26.000Z</time>
</trkpt>
<trkpt lat="46.1710880" lon="10.4853920">
	<ele>2471.60</ele>
	<time>2023-08-09T09:00:27.000Z</time>
</trkpt>
<trkpt lat="46.1710880" lon="10.4853920">
	<ele>2471.80</ele>
	<time>2023-08-09T09:00:28.000Z</time>
</trkpt>
<trkpt lat="46.1710880" lon="10.4853920">
	<ele>2472.00</ele>
	<time>2023-08-09T09:00:29.000Z</time>
</trkpt>
<trkpt lat="46.1710880" lon="10.4853920">
	<ele>2472.00</ele>
	<time>2023-08-09T09:00:30.000Z</time>
</trkpt>
<trkpt lat="46.1710920" lon="10.4853970">
	<ele>2472.00</ele>
	<time>2023-08-09T09:00:31.000Z</time>
</trkpt>
<trkpt lat="46.1711010" lon="10.4854120">
	<ele>2472.20</ele>
	<time>2023-08-09T09:00:32.000Z</time>
</trkpt>
<trkpt lat="46.1711100" lon="10.4854230">
	<ele>2472.20</ele>
	<time>2023-08-09T09:00:33.000Z</time>
</trkpt>
<trkpt lat="46.1711160" lon="10.4854340">
	<ele>2472.20</ele>
	<time>2023-08-09T09:00:34.000Z</time>
</trkpt>
<trkpt lat="46.1711220" lon="10.4854470">
	<ele>2472.20</ele>
	<time>2023-08-09T09:00:35.000Z</time>
</trkpt>
<trkpt lat="46.1711310" lon="10.4854580">
	<ele>2472.20</ele>
	<time>2023-08-09T09:00:36.000Z</time>
</trkpt>
<trkpt lat="46.1711370" lon="10.4854690">
	<ele>2472.20</ele>
	<time>2023-08-09T09:00:37.000Z</time>
</trkpt>
<trkpt lat="46.1711450" lon="10.4854770">
	<ele>2472.40</ele>
	<time>2023-08-09T09:00:38.000Z</time>
</trkpt>
<trkpt lat="46.1711510" lon="10.4854910">
	<ele>2472.40</ele>
	<time>2023-08-09T09:00:39.000Z</time>
</trkpt>
<trkpt lat="46.1711560" lon="10.4855040">
	<ele>2472.40</ele>
	<time>2023-08-09T09:00:40.000Z</time>
</trkpt>
<trkpt lat="46.1711540" lon="10.4855090">
	<ele>2472.60</ele>
	<time>2023-08-09T09:00:41.000Z</time>
</trkpt>
<trkpt lat="46.1711540" lon="10.4855130">
	<ele>2472.80</ele>
	<time>2023-08-09T09:00:42.000Z</time>
</trkpt>
<trkpt lat="46.1711500" lon="10.4855160">
	<ele>2472.80</ele>
	<time>2023-08-09T09:00:43.000Z</time>
</trkpt>
<trkpt lat="46.1711430" lon="10.4855210">
	<ele>2473.00</ele>
	<time>2023-08-09T09:00:44.000Z</time>
</trkpt>
<trkpt lat="46.1711430" lon="10.4855280">
	<ele>2473.00</ele>
	<time>2023-08-09T09:00:45.000Z</time>
</trkpt>
<trkpt lat="46.1711470" lon="10.4855310">
	<ele>2473.20</ele>
	<time>2023-08-09T09:00:46.000Z</time>
</trkpt>
<trkpt lat="46.1711500" lon="10.4855340">
	<ele>2473.40</ele>
	<time>2023-08-09T09:00:47.000Z</time>
</trkpt>
<trkpt lat="46.1711530" lon="10.4855350">
	<ele>2473.60</ele>
	<time>2023-08-09T09:00:48.000Z</time>
</trkpt>
<trkpt lat="46.1711560" lon="10.4855370">
	<ele>2473.80</ele>
	<time>2023-08-09T09:00:49.000Z</time>
</trkpt>
<trkpt lat="46.1711630" lon="10.4855410">
	<ele>2473.80</ele>
	<time>2023-08-09T09:00:50.000Z</time>
</trkpt>
<trkpt lat="46.1711670" lon="10.4855480">
	<ele>2474.00</ele>
	<time>2023-08-09T09:00:51.000Z</time>
</trkpt>
<trkpt lat="46.1711730" lon="10.4855550">
	<ele>2474.20</ele>
	<time>2023-08-09T09:00:52.000Z</time>
</trkpt>
<trkpt lat="46.1711790" lon="10.4855630">
	<ele>2474.20</ele>
	<time>2023-08-09T09:00:53.000Z</time>
</trkpt>
<trkpt lat="46.1711860" lon="10.4855720">
	<ele>2474.20</ele>
	<time>2023-08-09T09:00:54.000Z</time>
</trkpt>
<trkpt lat="46.1711930" lon="10.4855760">
	<ele>2474.20</ele>
	<time>2023-08-09T09:00:55.000Z</time>
</trkpt>
<trkpt lat="46.1711970" lon="10.4855810">
	<ele>2474.20</ele>
	<time>2023-08-09T09:00:56.000Z</time>
</trkpt>
<trkpt lat="46.1712020" lon="10.4855850">
	<ele>2474.20</ele>
	<time>2023-08-09T09:00:57.000Z</time>
</trkpt>
<trkpt lat="46.1712060" lon="10.4855920">
	<ele>2474.20</ele>
	<time>2023-08-09T09:00:58.000Z</time>
</trkpt>
<trkpt lat="46.1712080" lon="10.4855970">
	<ele>2474.20</ele>
	<time>2023-08-09T09:00:59.000Z</time>
</trkpt>
<trkpt lat="46.1712070" lon="10.4856030">
	<ele>2474.40</ele>
	<time>2023-08-09T09:01:00.000Z</time>
</trkpt>
<trkpt lat="46.1712050" lon="10.4856070">
	<ele>2474.40</ele>
	<time>2023-08-09T09:01:01.000Z</time>
</trkpt>
<trkpt lat="46.1712020" lon="10.4856070">
	<ele>2474.40</ele>
	<time>2023-08-09T09:01:02.000Z</time>
</trkpt>
<trkpt lat="46.1712000" lon="10.4856080">
	<ele>2474.40</ele>
	<time>2023-08-09T09:01:03.000Z</time>
</trkpt>
<trkpt lat="46.1711960" lon="10.4856080">
	<ele>2474.60</ele>
	<time>2023-08-09T09:01:04.000Z</time>
</trkpt>
<trkpt lat="46.1711940" lon="10.4856080">
	<ele>2474.60</ele>
	<time>2023-08-09T09:01:05.000Z</time>
</trkpt>
<trkpt lat="46.1711920" lon="10.4856070">
	<ele>2474.80</ele>
	<time>2023-08-09T09:01:06.000Z</time>
</trkpt>
<trkpt lat="46.1711900" lon="10.4856060">
	<ele>2474.80</ele>
	<time>2023-08-09T09:01:07.000Z</time>
</trkpt>
<trkpt lat="46.1711870" lon="10.4856060">
	<ele>2475.00</ele>
	<time>2023-08-09T09:01:08.000Z</time>
</trkpt>
<trkpt lat="46.1711850" lon="10.4856060">
	<ele>2475.20</ele>
	<time>2023-08-09T09:01:09.000Z</time>
</trkpt>
<trkpt lat="46.1711840" lon="10.4856090">
	<ele>2475.40</ele>
	<time>2023-08-09T09:01:10.000Z</time>
</trkpt>
<trkpt lat="46.1711840" lon="10.4856130">
	<ele>2475.60</ele>
	<time>2023-08-09T09:01:11.000Z</time>
</trkpt>
<trkpt lat="46.1711850" lon="10.4856150">
	<ele>2475.60</ele>
	<time>2023-08-09T09:01:12.000Z</time>
</trkpt>
<trkpt lat="46.1711850" lon="10.4856190">
	<ele>2475.80</ele>
	<time>2023-08-09T09:01:13.000Z</time>
</trkpt>
<trkpt lat="46.1711850" lon="10.4856250">
	<ele>2475.80</ele>
	<time>2023-08-09T09:01:14.000Z</time>
</trkpt>
<trkpt lat="46.1711860" lon="10.4856280">
	<ele>2475.80</ele>
	<time>2023-08-09T09:01:15.000Z</time>
</trkpt>
<trkpt lat="46.1711880" lon="10.4856340">
	<ele>2476.00</ele>
	<time>2023-08-09T09:01:16.000Z</time>
</trkpt>
<trkpt lat="46.1711940" lon="10.4856410">
	<ele>2476.00</ele>
	<time>2023-08-09T09:01:17.000Z</time>
</trkpt>
<trkpt lat="46.1711960" lon="10.4856460">
	<ele>2476.00</ele>
	<time>2023-08-09T09:01:18.000Z</time>
</trkpt>
<trkpt lat="46.1712020" lon="10.4856510">
	<ele>2476.20</ele>
	<time>2023-08-09T09:01:19.000Z</time>
</trkpt>
<trkpt lat="46.1712070" lon="10.4856590">
	<ele>2476.20</ele>
	<time>2023-08-09T09:01:20.000Z</time>
</trkpt>
<trkpt lat="46.1712090" lon="10.4856650">
	<ele>2476.20</ele>
	<time>2023-08-09T09:01:21.000Z</time>
</trkpt>
<trkpt lat="46.1712120" lon="10.4856730">
	<ele>2476.20</ele>
	<time>2023-08-09T09:01:22.000Z</time>
</trkpt>
<trkpt lat="46.1712220" lon="10.4856800">
	<ele>2476.40</ele>
	<time>2023-08-09T09:01:23.000Z</time>
</trkpt>
<trkpt lat="46.1712330" lon="10.4856850">
	<ele>2476.40</ele>
	<time>2023-08-09T09:01:24.000Z</time>
</trkpt>
<trkpt lat="46.1712400" lon="10.4856880">
	<ele>2476.40</ele>
	<time>2023-08-09T09:01:25.000Z</time>
</trkpt>
<trkpt lat="46.1712440" lon="10.4856880">
	<ele>2476.40</ele>
	<time>2023-08-09T09:01:26.000Z</time>
</trkpt>
<trkpt lat="46.1712500" lon="10.4856940">
	<ele>2476.60</ele>
	<time>2023-08-09T09:01:27.000Z</time>
</trkpt>
<trkpt lat="46.1712540" lon="10.4856970">
	<ele>2476.60</ele>
	<time>2023-08-09T09:01:28.000Z</time>
</trkpt>
<trkpt lat="46.1712570" lon="10.4856990">
	<ele>2476.60</ele>
	<time>2023-08-09T09:01:29.000Z</time>
</trkpt>
<trkpt lat="46.1712600" lon="10.4857030">
	<ele>2476.60</ele>
	<time>2023-08-09T09:01:30.000Z</time>
</trkpt>
<trkpt lat="46.1712590" lon="10.4857110">
	<ele>2476.80</ele>
	<time>2023-08-09T09:01:31.000Z</time>
</trkpt>
<trkpt lat="46.1712580" lon="10.4857170">
	<ele>2477.00</ele>
	<time>2023-08-09T09:01:32.000Z</time>
</trkpt>
<trkpt lat="46.1712550" lon="10.4857200">
	<ele>2477.20</ele>
	<time>2023-08-09T09:01:33.000Z</time>
</trkpt>
<trkpt lat="46.1712530" lon="10.4857220">
	<ele>2477.20</ele>
	<time>2023-08-09T09:01:34.000Z</time>
</trkpt>
<trkpt lat="46.1712480" lon="10.4857260">
	<ele>2477.20</ele>
	<time>2023-08-09T09:01:35.000Z</time>
</trkpt>
<trkpt lat="46.1712450" lon="10.4857290">
	<ele>2477.40</ele>
	<time>2023-08-09T09:01:36.000Z</time>
</trkpt>
<trkpt lat="46.1712440" lon="10.4857310">
	<ele>2477.40</ele>
	<time>2023-08-09T09:01:37.000Z</time>
</trkpt>
<trkpt lat="46.1712440" lon="10.4857340">
	<ele>2477.60</ele>
	<time>2023-08-09T09:01:38.000Z</time>
</trkpt>
<trkpt lat="46.1712430" lon="10.4857370">
	<ele>2477.80</ele>
	<time>2023-08-09T09:01:39.000Z</time>
</trkpt>
<trkpt lat="46.1712410" lon="10.4857380">
	<ele>2478.00</ele>
	<time>2023-08-09T09:01:40.000Z</time>
</trkpt>
<trkpt lat="46.1712390" lon="10.4857400">
	<ele>2478.20</ele>
	<time>2023-08-09T09:01:41.000Z</time>
</trkpt>
<trkpt lat="46.1712370" lon="10.4857410">
	<ele>2478.20</ele>
	<time>2023-08-09T09:01:42.000Z</time>
</trkpt>
<trkpt lat="46.1712370" lon="10.4857460">
	<ele>2478.40</ele>
	<time>2023-08-09T09:01:43.000Z</time>
</trkpt>
<trkpt lat="46.1712340" lon="10.4857480">
	<ele>2478.40</ele>
	<time>2023-08-09T09:01:44.000Z</time>
</trkpt>
<trkpt lat="46.1712330" lon="10.4857530">
	<ele>2478.60</ele>
	<time>2023-08-09T09:01:45.000Z</time>
</trkpt>
<trkpt lat="46.1712310" lon="10.4857640">
	<ele>2478.60</ele>
	<time>2023-08-09T09:01:46.000Z</time>
</trkpt>
<trkpt lat="46.1712290" lon="10.4857660">
	<ele>2478.80</ele>
	<time>2023-08-09T09:01:47.000Z</time>
</trkpt>
<trkpt lat="46.1712230" lon="10.4857730">
	<ele>2479.00</ele>
	<time>2023-08-09T09:01:48.000Z</time>
</trkpt>
<trkpt lat="46.1712190" lon="10.4857750">
	<ele>2479.00</ele>
	<time>2023-08-09T09:01:49.000Z</time>
</trkpt>
<trkpt lat="46.1712170" lon="10.4857760">
	<ele>2479.00</ele>
	<time>2023-08-09T09:01:50.000Z</time>
</trkpt>
<trkpt lat="46.1712150" lon="10.4857840">
	<ele>2479.20</ele>
	<time>2023-08-09T09:01:51.000Z</time>
</trkpt>
<trkpt lat="46.1712100" lon="10.4857880">
	<ele>2479.20</ele>
	<time>2023-08-09T09:01:52.000Z</time>
</trkpt>
<trkpt lat="46.1712070" lon="10.4857880">
	<ele>2479.40</ele>
	<time>2023-08-09T09:01:53.000Z</time>
</trkpt>
<trkpt lat="46.1712030" lon="10.4857890">
	<ele>2479.60</ele>
	<time>2023-08-09T09:01:54.000Z</time>
</trkpt>
<trkpt lat="46.1712000" lon="10.4857900">
	<ele>2479.80</ele>
	<time>2023-08-09T09:01:55.000Z</time>
</trkpt>
<trkpt lat="46.1711960" lon="10.4857910">
	<ele>2479.80</ele>
	<time>2023-08-09T09:01:56.000Z</time>
</trkpt>
<trkpt lat="46.1711910" lon="10.4857850">
	<ele>2479.80</ele>
	<time>2023-08-09T09:01:57.000Z</time>
</trkpt>
<trkpt lat="46.1711880" lon="10.4857800">
	<ele>2480.00</ele>
	<time>2023-08-09T09:01:58.000Z</time>
</trkpt>
<trkpt lat="46.1711840" lon="10.4857730">
	<ele>2480.00</ele>
	<time>2023-08-09T09:01:59.000Z</time>
</trkpt>
<trkpt lat="46.1711820" lon="10.4857700">
	<ele>2480.00</ele>
	<time>2023-08-09T09:02:00.000Z</time>
</trkpt>
<trkpt lat="46.1711810" lon="10.4857690">
	<ele>2480.00</ele>
	<time>2023-08-09T09:02:01.000Z</time>
</trkpt>
<trkpt lat="46.1711800" lon="10.4857680">
	<ele>2480.00</ele>
	<time>2023-08-09T09:02:02.000Z</time>
</trkpt>
<trkpt lat="46.1711800" lon="10.4857680">
	<ele>2480.00</ele>
	<time>2023-08-09T09:02:03.000Z</time>
</trkpt>
<trkpt lat="46.1711800" lon="10.4857680">
	<ele>2480.20</ele>
	<time>2023-08-09T09:02:04.000Z</time>
</trkpt>
<trkpt lat="46.1711800" lon="10.4857680">
	<ele>2480.20</ele>
	<time>2023-08-09T09:02:05.000Z</time>
</trkpt>
<trkpt lat="46.1711800" lon="10.4857680">
	<ele>2480.40</ele>
	<time>2023-08-09T09:02:06.000Z</time>
</trkpt>
<trkpt lat="46.1711800" lon="10.4857680">
	<ele>2480.40</ele>
	<time>2023-08-09T09:02:07.000Z</time>
</trkpt>
<trkpt lat="46.1711800" lon="10.4857680">
	<ele>2480.40</ele>
	<time>2023-08-09T09:02:08.000Z</time>
</trkpt>
<trkpt lat="46.1711800" lon="10.4857680">
	<ele>2480.40</ele>
	<time>2023-08-09T09:02:09.000Z</time>
</trkpt>
<trkpt lat="46.1711800" lon="10.4857680">
	<ele>2480.60</ele>
	<time>2023-08-09T09:02:10.000Z</time>
</trkpt>
<trkpt lat="46.1711800" lon="10.4857690">
	<ele>2480.80</ele>
	<time>2023-08-09T09:02:11.000Z</time>
</trkpt>
<trkpt lat="46.1711800" lon="10.4857690">
	<ele>2480.80</ele>
	<time>2023-08-09T09:02:12.000Z</time>
</trkpt>
<trkpt lat="46.1711800" lon="10.4857700">
	<ele>2481.00</ele>
	<time>2023-08-09T09:02:13.000Z</time>
</trkpt>
<trkpt lat="46.1711800" lon="10.4857710">
	<ele>2481.20</ele>
	<time>2023-08-09T09:02:14.000Z</time>
</trkpt>
<trkpt lat="46.1711800" lon="10.4857730">
	<ele>2481.40</ele>
	<time>2023-08-09T09:02:15.000Z</time>
</trkpt>
<trkpt lat="46.1711800" lon="10.4857760">
	<ele>2481.40</ele>
	<time>2023-08-09T09:02:16.000Z</time>
</trkpt>
<trkpt lat="46.1711800" lon="10.4857780">
	<ele>2481.60</ele>
	<time>2023-08-09T09:02:17.000Z</time>
</trkpt>
<trkpt lat="46.1711800" lon="10.4857790">
	<ele>2481.80</ele>
	<time>2023-08-09T09:02:18.000Z</time>
</trkpt>
<trkpt lat="46.1711790" lon="10.4857790">
	<ele>2481.80</ele>
	<time>2023-08-09T09:02:19.000Z</time>
</trkpt>
<trkpt lat="46.1711780" lon="10.4857790">
	<ele>2481.80</ele>
	<time>2023-08-09T09:02:20.000Z</time>
</trkpt>
<trkpt lat="46.1711750" lon="10.4857800">
	<ele>2481.80</ele>
	<time>2023-08-09T09:02:21.000Z</time>
</trkpt>
<trkpt lat="46.1711720" lon="10.4857810">
	<ele>2482.00</ele>
	<time>2023-08-09T09:02:22.000Z</time>
</trkpt>
<trkpt lat="46.1711680" lon="10.4857820">
	<ele>2482.00</ele>
	<time>2023-08-09T09:02:23.000Z</time>
</trkpt>
<trkpt lat="46.1711660" lon="10.4857830">
	<ele>2482.20</ele>
	<time>2023-08-09T09:02:24.000Z</time>
</trkpt>
<trkpt lat="46.1711620" lon="10.4857830">
	<ele>2482.40</ele>
	<time>2023-08-09T09:02:25.000Z</time>
</trkpt>
<trkpt lat="46.1711590" lon="10.4857830">
	<ele>2482.60</ele>
	<time>2023-08-09T09:02:26.000Z</time>
</trkpt>
<trkpt lat="46.1711560" lon="10.4857830">
	<ele>2482.80</ele>
	<time>2023-08-09T09:02:27.000Z</time>
</trkpt>
<trkpt lat="46.1711540" lon="10.4857830">
	<ele>2482.80</ele>
	<time>2023-08-09T09:02:28.000Z</time>
</trkpt>
<trkpt lat="46.1711520" lon="10.4857830">
	<ele>2483.00</ele>
	<time>2023-08-09T09:02:29.000Z</time>
</trkpt>
<trkpt lat="46.1711480" lon="10.4857840">
	<ele>2483.20</ele>
	<time>2023-08-09T09:02:30.000Z</time>
</trkpt>
<trkpt lat="46.1711440" lon="10.4857850">
	<ele>2483.20</ele>
	<time>2023-08-09T09:02:31.000Z</time>
</trkpt>
<trkpt lat="46.1711430" lon="10.4857860">
	<ele>2483.20</ele>
	<time>2023-08-09T09:02:32.000Z</time>
</trkpt>
<trkpt lat="46.1711420" lon="10.4857860">
	<ele>2483.40</ele>
	<time>2023-08-09T09:02:33.000Z</time>
</trkpt>
<trkpt lat="46.1711400" lon="10.4857860">
	<ele>2483.40</ele>
	<time>2023-08-09T09:02:34.000Z</time>
</trkpt>
<trkpt lat="46.1711380" lon="10.4857890">
	<ele>2483.40</ele>
	<time>2023-08-09T09:02:35.000Z</time>
</trkpt>
<trkpt lat="46.1711380" lon="10.4857930">
	<ele>2483.60</ele>
	<time>2023-08-09T09:02:36.000Z</time>
</trkpt>
<trkpt lat="46.1711380" lon="10.4857950">
	<ele>2483.60</ele>
	<time>2023-08-09T09:02:37.000Z</time>
</trkpt>
<trkpt lat="46.1711380" lon="10.4857970">
	<ele>2483.80</ele>
	<time>2023-08-09T09:02:38.000Z</time>
</trkpt>
<trkpt lat="46.1711380" lon="10.4857980">
	<ele>2484.00</ele>
	<time>2023-08-09T09:02:39.000Z</time>
</trkpt>
<trkpt lat="46.1711380" lon="10.4858000">
	<ele>2484.00</ele>
	<time>2023-08-09T09:02:40.000Z</time>
</trkpt>
<trkpt lat="46.1711380" lon="10.4858020">
	<ele>2484.20</ele>
	<time>2023-08-09T09:02:41.000Z</time>
</trkpt>
<trkpt lat="46.1711380" lon="10.4858060">
	<ele>2484.40</ele>
	<time>2023-08-09T09:02:42.000Z</time>
</trkpt>
<trkpt lat="46.1711380" lon="10.4858120">
	<ele>2484.60</ele>
	<time>2023-08-09T09:02:43.000Z</time>
</trkpt>
<trkpt lat="46.1711380" lon="10.4858190">
	<ele>2484.60</ele>
	<time>2023-08-09T09:02:44.000Z</time>
</trkpt>
<trkpt lat="46.1711380" lon="10.4858210">
	<ele>2484.80</ele>
	<time>2023-08-09T09:02:45.000Z</time>
</trkpt>
<trkpt lat="46.1711380" lon="10.4858220">
	<ele>2484.80</ele>
	<time>2023-08-09T09:02:46.000Z</time>
</trkpt>
<trkpt lat="46.1711380" lon="10.4858230">
	<ele>2484.80</ele>
	<time>2023-08-09T09:02:47.000Z</time>
</trkpt>
<trkpt lat="46.1711380" lon="10.4858250">
	<ele>2485.00</ele>
	<time>2023-08-09T09:02:48.000Z</time>
</trkpt>
<trkpt lat="46.1711380" lon="10.4858250">
	<ele>2485.00</ele>
	<time>2023-08-09T09:02:49.000Z</time>
</trkpt>
<trkpt lat="46.1711370" lon="10.4858270">
	<ele>2485.20</ele>
	<time>2023-08-09T09:02:50.000Z</time>
</trkpt>
<trkpt lat="46.1711360" lon="10.4858290">
	<ele>2485.60</ele>
	<time>2023-08-09T09:02:51.000Z</time>
</trkpt>
<trkpt lat="46.1711360" lon="10.4858330">
	<ele>2485.80</ele>
	<time>2023-08-09T09:02:52.000Z</time>
</trkpt>
<trkpt lat="46.1711360" lon="10.4858370">
	<ele>2485.80</ele>
	<time>2023-08-09T09:02:53.000Z</time>
</trkpt>
<trkpt lat="46.1711360" lon="10.4858450">
	<ele>2486.00</ele>
	<time>2023-08-09T09:02:54.000Z</time>
</trkpt>
<trkpt lat="46.1711360" lon="10.4858530">
	<ele>2486.00</ele>
	<time>2023-08-09T09:02:55.000Z</time>
</trkpt>
<trkpt lat="46.1711360" lon="10.4858580">
	<ele>2486.00</ele>
	<time>2023-08-09T09:02:56.000Z</time>
</trkpt>
<trkpt lat="46.1711360" lon="10.4858640">
	<ele>2486.20</ele>
	<time>2023-08-09T09:02:57.000Z</time>
</trkpt>
<trkpt lat="46.1711360" lon="10.4858690">
	<ele>2486.20</ele>
	<time>2023-08-09T09:02:58.000Z</time>
</trkpt>
<trkpt lat="46.1711360" lon="10.4858750">
	<ele>2486.20</ele>
	<time>2023-08-09T09:02:59.000Z</time>
</trkpt>
<trkpt lat="46.1711360" lon="10.4858790">
	<ele>2486.20</ele>
	<time>2023-08-09T09:03:00.000Z</time>
</trkpt>
<trkpt lat="46.1711360" lon="10.4858820">
	<ele>2486.40</ele>
	<time>2023-08-09T09:03:01.000Z</time>
</trkpt>
<trkpt lat="46.1711360" lon="10.4858840">
	<ele>2486.40</ele>
	<time>2023-08-09T09:03:02.000Z</time>
</trkpt>
<trkpt lat="46.1711360" lon="10.4858860">
	<ele>2486.40</ele>
	<time>2023-08-09T09:03:03.000Z</time>
</trkpt>
<trkpt lat="46.1711350" lon="10.4858880">
	<ele>2486.40</ele>
	<time>2023-08-09T09:03:04.000Z</time>
</trkpt>
<trkpt lat="46.1711330" lon="10.4858890">
	<ele>2486.60</ele>
	<time>2023-08-09T09:03:05.000Z</time>
</trkpt>
<trkpt lat="46.1711310" lon="10.4858910">
	<ele>2486.80</ele>
	<time>2023-08-09T09:03:06.000Z</time>
</trkpt>
<trkpt lat="46.1711300" lon="10.4858940">
	<ele>2486.80</ele>
	<time>2023-08-09T09:03:07.000Z</time>
</trkpt>
<trkpt lat="46.1711290" lon="10.4858970">
	<ele>2487.00</ele>
	<time>2023-08-09T09:03:08.000Z</time>
</trkpt>
<trkpt lat="46.1711270" lon="10.4858990">
	<ele>2487.20</ele>
	<time>2023-08-09T09:03:09.000Z</time>
</trkpt>
<trkpt lat="46.1711240" lon="10.4859010">
	<ele>2487.20</ele>
	<time>2023-08-09T09:03:10.000Z</time>
</trkpt>
<trkpt lat="46.1711210" lon="10.4859020">
	<ele>2487.20</ele>
	<time>2023-08-09T09:03:11.000Z</time>
</trkpt>
<trkpt lat="46.1711190" lon="10.4859060">
	<ele>2487.20</ele>
	<time>2023-08-09T09:03:12.000Z</time>
</trkpt>
<trkpt lat="46.1711170" lon="10.4859090">
	<ele>2487.40</ele>
	<time>2023-08-09T09:03:13.000Z</time>
</trkpt>
<trkpt lat="46.1711140" lon="10.4859130">
	<ele>2487.60</ele>
	<time>2023-08-09T09:03:14.000Z</time>
</trkpt>
<trkpt lat="46.1711120" lon="10.4859170">
	<ele>2487.80</ele>
	<time>2023-08-09T09:03:15.000Z</time>
</trkpt>
<trkpt lat="46.1711110" lon="10.4859220">
	<ele>2488.00</ele>
	<time>2023-08-09T09:03:16.000Z</time>
</trkpt>
<trkpt lat="46.1711090" lon="10.4859270">
	<ele>2488.20</ele>
	<time>2023-08-09T09:03:17.000Z</time>
</trkpt>
<trkpt lat="46.1711090" lon="10.4859330">
	<ele>2488.20</ele>
	<time>2023-08-09T09:03:18.000Z</time>
</trkpt>
<trkpt lat="46.1711080" lon="10.4859370">
	<ele>2488.20</ele>
	<time>2023-08-09T09:03:19.000Z</time>
</trkpt>
<trkpt lat="46.1711080" lon="10.4859420">
	<ele>2488.40</ele>
	<time>2023-08-09T09:03:20.000Z</time>
</trkpt>
<trkpt lat="46.1711070" lon="10.4859460">
	<ele>2488.60</ele>
	<time>2023-08-09T09:03:21.000Z</time>
</trkpt>
<trkpt lat="46.1711050" lon="10.4859510">
	<ele>2488.80</ele>
	<time>2023-08-09T09:03:22.000Z</time>
</trkpt>
<trkpt lat="46.1711030" lon="10.4859550">
	<ele>2488.80</ele>
	<time>2023-08-09T09:03:23.000Z</time>
</trkpt>
<trkpt lat="46.1711000" lon="10.4859610">
	<ele>2489.00</ele>
	<time>2023-08-09T09:03:24.000Z</time>
</trkpt>
<trkpt lat="46.1710970" lon="10.4859660">
	<ele>2489.00</ele>
	<time>2023-08-09T09:03:25.000Z</time>
</trkpt>
<trkpt lat="46.1710950" lon="10.4859690">
	<ele>2489.20</ele>
	<time>2023-08-09T09:03:26.000Z</time>
</trkpt>
<trkpt lat="46.1710920" lon="10.4859710">
	<ele>2489.40</ele>
	<time>2023-08-09T09:03:27.000Z</time>
</trkpt>
<trkpt lat="46.1710880" lon="10.4859730">
	<ele>2489.40</ele>
	<time>2023-08-09T09:03:28.000Z</time>
</trkpt>
<trkpt lat="46.1710840" lon="10.4859780">
	<ele>2489.60</ele>
	<time>2023-08-09T09:03:29.000Z</time>
</trkpt>
<trkpt lat="46.1710820" lon="10.4859820">
	<ele>2489.60</ele>
	<time>2023-08-09T09:03:30.000Z</time>
</trkpt>
<trkpt lat="46.1710790" lon="10.4859840">
	<ele>2489.80</ele>
	<time>2023-08-09T09:03:31.000Z</time>
</trkpt>
<trkpt lat="46.1710770" lon="10.4859860">
	<ele>2489.80</ele>
	<time>2023-08-09T09:03:32.000Z</time>
</trkpt>
<trkpt lat="46.1710740" lon="10.4859880">
	<ele>2490.00</ele>
	<time>2023-08-09T09:03:33.000Z</time>
</trkpt>
<trkpt lat="46.1710720" lon="10.4859890">
	<ele>2490.20</ele>
	<time>2023-08-09T09:03:34.000Z</time>
</trkpt>
<trkpt lat="46.1710700" lon="10.4859900">
	<ele>2490.40</ele>
	<time>2023-08-09T09:03:35.000Z</time>
</trkpt>
<trkpt lat="46.1710690" lon="10.4859910">
	<ele>2490.40</ele>
	<time>2023-08-09T09:03:36.000Z</time>
</trkpt>
<trkpt lat="46.1710680" lon="10.4859940">
	<ele>2490.40</ele>
	<time>2023-08-09T09:03:37.000Z</time>
</trkpt>
<trkpt lat="46.1710670" lon="10.4859950">
	<ele>2490.60</ele>
	<time>2023-08-09T09:03:38.000Z</time>
</trkpt>
<trkpt lat="46.1710650" lon="10.4859970">
	<ele>2490.60</ele>
	<time>2023-08-09T09:03:39.000Z</time>
</trkpt>
<trkpt lat="46.1710630" lon="10.4859980">
	<ele>2490.60</ele>
	<time>2023-08-09T09:03:40.000Z</time>
</trkpt>
<trkpt lat="46.1710620" lon="10.4860010">
	<ele>2490.80</ele>
	<time>2023-08-09T09:03:41.000Z</time>
</trkpt>
<trkpt lat="46.1710620" lon="10.4860050">
	<ele>2490.80</ele>
	<time>2023-08-09T09:03:42.000Z</time>
</trkpt>
<trkpt lat="46.1710600" lon="10.4860090">
	<ele>2491.00</ele>
	<time>2023-08-09T09:03:43.000Z</time>
</trkpt>
<trkpt lat="46.1710590" lon="10.4860120">
	<ele>2491.20</ele>
	<time>2023-08-09T09:03:44.000Z</time>
</trkpt>
<trkpt lat="46.1710570" lon="10.4860150">
	<ele>2491.40</ele>
	<time>2023-08-09T09:03:45.000Z</time>
</trkpt>
<trkpt lat="46.1710550" lon="10.4860180">
	<ele>2491.60</ele>
	<time>2023-08-09T09:03:46.000Z</time>
</trkpt>
<trkpt lat="46.1710550" lon="10.4860200">
	<ele>2491.60</ele>
	<time>2023-08-09T09:03:47.000Z</time>
</trkpt>
<trkpt lat="46.1710540" lon="10.4860220">
	<ele>2492.00</ele>
	<time>2023-08-09T09:03:48.000Z</time>
</trkpt>
<trkpt lat="46.1710540" lon="10.4860230">
	<ele>2492.20</ele>
	<time>2023-08-09T09:03:49.000Z</time>
</trkpt>
<trkpt lat="46.1710530" lon="10.4860250">
	<ele>2492.40</ele>
	<time>2023-08-09T09:03:50.000Z</time>
</trkpt>
<trkpt lat="46.1710520" lon="10.4860270">
	<ele>2492.40</ele>
	<time>2023-08-09T09:03:51.000Z</time>
</trkpt>
<trkpt lat="46.1710510" lon="10.4860290">
	<ele>2492.60</ele>
	<time>2023-08-09T09:03:52.000Z</time>
</trkpt>
<trkpt lat="46.1710500" lon="10.4860320">
	<ele>2492.60</ele>
	<time>2023-08-09T09:03:53.000Z</time>
</trkpt>
<trkpt lat="46.1710490" lon="10.4860350">
	<ele>2492.80</ele>
	<time>2023-08-09T09:03:54.000Z</time>
</trkpt>
<trkpt lat="46.1710490" lon="10.4860390">
	<ele>2492.80</ele>
	<time>2023-08-09T09:03:55.000Z</time>
</trkpt>
<trkpt lat="46.1710480" lon="10.4860420">
	<ele>2492.80</ele>
	<time>2023-08-09T09:03:56.000Z</time>
</trkpt>
<trkpt lat="46.1710480" lon="10.4860460">
	<ele>2493.00</ele>
	<time>2023-08-09T09:03:57.000Z</time>
</trkpt>
<trkpt lat="46.1710470" lon="10.4860510">
	<ele>2493.00</ele>
	<time>2023-08-09T09:03:58.000Z</time>
</trkpt>
<trkpt lat="46.1710470" lon="10.4860560">
	<ele>2493.00</ele>
	<time>2023-08-09T09:03:59.000Z</time>
</trkpt>
<trkpt lat="46.1710470" lon="10.4860590">
	<ele>2493.00</ele>
	<time>2023-08-09T09:04:00.000Z</time>
</trkpt>
<trkpt lat="46.1710450" lon="10.4860610">
	<ele>2493.20</ele>
	<time>2023-08-09T09:04:01.000Z</time>
</trkpt>
<trkpt lat="46.1710440" lon="10.4860630">
	<ele>2493.20</ele>
	<time>2023-08-09T09:04:02.000Z</time>
</trkpt>
<trkpt lat="46.1710440" lon="10.4860650">
	<ele>2493.20</ele>
	<time>2023-08-09T09:04:03.000Z</time>
</trkpt>
<trkpt lat="46.1710430" lon="10.4860670">
	<ele>2493.20</ele>
	<time>2023-08-09T09:04:04.000Z</time>
</trkpt>
<trkpt lat="46.1710430" lon="10.4860700">
	<ele>2493.20</ele>
	<time>2023-08-09T09:04:05.000Z</time>
</trkpt>
<trkpt lat="46.1710430" lon="10.4860740">
	<ele>2493.20</ele>
	<time>2023-08-09T09:04:06.000Z</time>
</trkpt>
<trkpt lat="46.1710430" lon="10.4860770">
	<ele>2493.20</ele>
	<time>2023-08-09T09:04:07.000Z</time>
</trkpt>
<trkpt lat="46.1710430" lon="10.4860810">
	<ele>2493.40</ele>
	<time>2023-08-09T09:04:08.000Z</time>
</trkpt>
<trkpt lat="46.1710430" lon="10.4860840">
	<ele>2493.40</ele>
	<time>2023-08-09T09:04:09.000Z</time>
</trkpt>
<trkpt lat="46.1710430" lon="10.4860900">
	<ele>2493.40</ele>
	<time>2023-08-09T09:04:10.000Z</time>
</trkpt>
<trkpt lat="46.1710430" lon="10.4860950">
	<ele>2493.60</ele>
	<time>2023-08-09T09:04:11.000Z</time>
</trkpt>
<trkpt lat="46.1710430" lon="10.4860980">
	<ele>2494.00</ele>
	<time>2023-08-09T09:04:12.000Z</time>
</trkpt>
<trkpt lat="46.1710430" lon="10.4861030">
	<ele>2494.20</ele>
	<time>2023-08-09T09:04:13.000Z</time>
</trkpt>
<trkpt lat="46.1710430" lon="10.4861070">
	<ele>2494.40</ele>
	<time>2023-08-09T09:04:14.000Z</time>
</trkpt>
<trkpt lat="46.1710430" lon="10.4861120">
	<ele>2494.40</ele>
	<time>2023-08-09T09:04:15.000Z</time>
</trkpt>
<trkpt lat="46.1710430" lon="10.4861160">
	<ele>2494.40</ele>
	<time>2023-08-09T09:04:16.000Z</time>
</trkpt>
<trkpt lat="46.1710430" lon="10.4861210">
	<ele>2494.60</ele>
	<time>2023-08-09T09:04:17.000Z</time>
</trkpt>
<trkpt lat="46.1710430" lon="10.4861270">
	<ele>2494.60</ele>
	<time>2023-08-09T09:04:18.000Z</time>
</trkpt>
<trkpt lat="46.1710430" lon="10.4861330">
	<ele>2494.60</ele>
	<time>2023-08-09T09:04:19.000Z</time>
</trkpt>
<trkpt lat="46.1710430" lon="10.4861390">
	<ele>2494.60</ele>
	<time>2023-08-09T09:04:20.000Z</time>
</trkpt>
<trkpt lat="46.1710440" lon="10.4861450">
	<ele>2494.80</ele>
	<time>2023-08-09T09:04:21.000Z</time>
</trkpt>
<trkpt lat="46.1710440" lon="10.4861500">
	<ele>2494.80</ele>
	<time>2023-08-09T09:04:22.000Z</time>
</trkpt>
<trkpt lat="46.1710450" lon="10.4861550">
	<ele>2495.00</ele>
	<time>2023-08-09T09:04:23.000Z</time>
</trkpt>
<trkpt lat="46.1710450" lon="10.4861600">
	<ele>2495.20</ele>
	<time>2023-08-09T09:04:24.000Z</time>
</trkpt>
<trkpt lat="46.1710470" lon="10.4861640">
	<ele>2495.20</ele>
	<time>2023-08-09T09:04:25.000Z</time>
</trkpt>
<trkpt lat="46.1710490" lon="10.4861690">
	<ele>2495.20</ele>
	<time>2023-08-09T09:04:26.000Z</time>
</trkpt>
<trkpt lat="46.1710510" lon="10.4861740">
	<ele>2495.40</ele>
	<time>2023-08-09T09:04:27.000Z</time>
</trkpt>
<trkpt lat="46.1710520" lon="10.4861770">
	<ele>2495.60</ele>
	<time>2023-08-09T09:04:28.000Z</time>
</trkpt>
<trkpt lat="46.1710530" lon="10.4861810">
	<ele>2495.60</ele>
	<time>2023-08-09T09:04:29.000Z</time>
</trkpt>
<trkpt lat="46.1710540" lon="10.4861850">
	<ele>2495.80</ele>
	<time>2023-08-09T09:04:30.000Z</time>
</trkpt>
<trkpt lat="46.1710550" lon="10.4861890">
	<ele>2495.80</ele>
	<time>2023-08-09T09:04:31.000Z</time>
</trkpt>
<trkpt lat="46.1710560" lon="10.4861940">
	<ele>2496.00</ele>
	<time>2023-08-09T09:04:32.000Z</time>
</trkpt>
<trkpt lat="46.1710580" lon="10.4861980">
	<ele>2496.20</ele>
	<time>2023-08-09T09:04:33.000Z</time>
</trkpt>
<trkpt lat="46.1710580" lon="10.4862040">
	<ele>2496.20</ele>
	<time>2023-08-09T09:04:34.000Z</time>
</trkpt>
<trkpt lat="46.1710590" lon="10.4862090">
	<ele>2496.20</ele>
	<time>2023-08-09T09:04:35.000Z</time>
</trkpt>
<trkpt lat="46.1710600" lon="10.4862130">
	<ele>2496.40</ele>
	<time>2023-08-09T09:04:36.000Z</time>
</trkpt>
<trkpt lat="46.1710600" lon="10.4862180">
	<ele>2496.40</ele>
	<time>2023-08-09T09:04:37.000Z</time>
</trkpt>
<trkpt lat="46.1710610" lon="10.4862220">
	<ele>2496.60</ele>
	<time>2023-08-09T09:04:38.000Z</time>
</trkpt>
<trkpt lat="46.1710620" lon="10.4862250">
	<ele>2496.80</ele>
	<time>2023-08-09T09:04:39.000Z</time>
</trkpt>
<trkpt lat="46.1710620" lon="10.4862290">
	<ele>2497.00</ele>
	<time>2023-08-09T09:04:40.000Z</time>
</trkpt>
<trkpt lat="46.1710640" lon="10.4862330">
	<ele>2497.20</ele>
	<time>2023-08-09T09:04:41.000Z</time>
</trkpt>
<trkpt lat="46.1710650" lon="10.4862370">
	<ele>2497.20</ele>
	<time>2023-08-09T09:04:42.000Z</time>
</trkpt>
<trkpt lat="46.1710660" lon="10.4862410">
	<ele>2497.20</ele>
	<time>2023-08-09T09:04:43.000Z</time>
</trkpt>
<trkpt lat="46.1710670" lon="10.4862450">
	<ele>2497.20</ele>
	<time>2023-08-09T09:04:44.000Z</time>
</trkpt>
<trkpt lat="46.1710680" lon="10.4862480">
	<ele>2497.40</ele>
	<time>2023-08-09T09:04:45.000Z</time>
</trkpt>
<trkpt lat="46.1710690" lon="10.4862510">
	<ele>2497.40</ele>
	<time>2023-08-09T09:04:46.000Z</time>
</trkpt>
<trkpt lat="46.1710710" lon="10.4862550">
	<ele>2497.40</ele>
	<time>2023-08-09T09:04:47.000Z</time>
</trkpt>
<trkpt lat="46.1710730" lon="10.4862600">
	<ele>2497.60</ele>
	<time>2023-08-09T09:04:48.000Z</time>
</trkpt>
<trkpt lat="46.1710750" lon="10.4862640">
	<ele>2497.80</ele>
	<time>2023-08-09T09:04:49.000Z</time>
</trkpt>
<trkpt lat="46.1710760" lon="10.4862680">
	<ele>2497.80</ele>
	<time>2023-08-09T09:04:50.000Z</time>
</trkpt>
<trkpt lat="46.1710780" lon="10.4862730">
	<ele>2498.00</ele>
	<time>2023-08-09T09:04:51.000Z</time>
</trkpt>
<trkpt lat="46.1710800" lon="10.4862770">
	<ele>2498.20</ele>
	<time>2023-08-09T09:04:52.000Z</time>
</trkpt>
<trkpt lat="46.1710810" lon="10.4862810">
	<ele>2498.20</ele>
	<time>2023-08-09T09:04:53.000Z</time>
</trkpt>
<trkpt lat="46.1710830" lon="10.4862850">
	<ele>2498.40</ele>
	<time>2023-08-09T09:04:54.000Z</time>
</trkpt>
<trkpt lat="46.1710840" lon="10.4862890">
	<ele>2498.60</ele>
	<time>2023-08-09T09:04:55.000Z</time>
</trkpt>
<trkpt lat="46.1710850" lon="10.4862920">
	<ele>2498.60</ele>
	<time>2023-08-09T09:04:56.000Z</time>
</trkpt>
<trkpt lat="46.1710860" lon="10.4862950">
	<ele>2498.80</ele>
	<time>2023-08-09T09:04:57.000Z</time>
</trkpt>
<trkpt lat="46.1710870" lon="10.4862980">
	<ele>2498.80</ele>
	<time>2023-08-09T09:04:58.000Z</time>
</trkpt>
<trkpt lat="46.1710880" lon="10.4863000">
	<ele>2499.00</ele>
	<time>2023-08-09T09:04:59.000Z</time>
</trkpt>
<trkpt lat="46.1710890" lon="10.4863030">
	<ele>2499.20</ele>
	<time>2023-08-09T09:05:00.000Z</time>
</trkpt>
<trkpt lat="46.1710900" lon="10.4863060">
	<ele>2499.40</ele>
	<time>2023-08-09T09:05:01.000Z</time>
</trkpt>
<trkpt lat="46.1710900" lon="10.4863090">
	<ele>2499.40</ele>
	<time>2023-08-09T09:05:02.000Z</time>
</trkpt>
<trkpt lat="46.1710910" lon="10.4863120">
	<ele>2499.60</ele>
	<time>2023-08-09T09:05:03.000Z</time>
</trkpt>
<trkpt lat="46.1710920" lon="10.4863150">
	<ele>2499.80</ele>
	<time>2023-08-09T09:05:04.000Z</time>
</trkpt>
<trkpt lat="46.1710920" lon="10.4863180">
	<ele>2499.80</ele>
	<time>2023-08-09T09:05:05.000Z</time>
</trkpt>
<trkpt lat="46.1710930" lon="10.4863200">
	<ele>2500.00</ele>
	<time>2023-08-09T09:05:06.000Z</time>
</trkpt>
<trkpt lat="46.1710930" lon="10.4863220">
	<ele>2500.00</ele>
	<time>2023-08-09T09:05:07.000Z</time>
</trkpt>
<trkpt lat="46.1710930" lon="10.4863250">
	<ele>2500.00</ele>
	<time>2023-08-09T09:05:08.000Z</time>
</trkpt>
<trkpt lat="46.1710940" lon="10.4863270">
	<ele>2500.00</ele>
	<time>2023-08-09T09:05:09.000Z</time>
</trkpt>
<trkpt lat="46.1710940" lon="10.4863290">
	<ele>2500.20</ele>
	<time>2023-08-09T09:05:10.000Z</time>
</trkpt>
<trkpt lat="46.1710950" lon="10.4863310">
	<ele>2500.40</ele>
	<time>2023-08-09T09:05:11.000Z</time>
</trkpt>
<trkpt lat="46.1710950" lon="10.4863330">
	<ele>2500.40</ele>
	<time>2023-08-09T09:05:12.000Z</time>
</trkpt>
<trkpt lat="46.1710950" lon="10.4863340">
	<ele>2500.60</ele>
	<time>2023-08-09T09:05:13.000Z</time>
</trkpt>
<trkpt lat="46.1710950" lon="10.4863360">
	<ele>2500.60</ele>
	<time>2023-08-09T09:05:14.000Z</time>
</trkpt>
<trkpt lat="46.1710960" lon="10.4863370">
	<ele>2500.80</ele>
	<time>2023-08-09T09:05:15.000Z</time>
</trkpt>
<trkpt lat="46.1710960" lon="10.4863390">
	<ele>2500.80</ele>
	<time>2023-08-09T09:05:16.000Z</time>
</trkpt>
<trkpt lat="46.1710960" lon="10.4863400">
	<ele>2501.00</ele>
	<time>2023-08-09T09:05:17.000Z</time>
</trkpt>
<trkpt lat="46.1710960" lon="10.4863410">
	<ele>2501.00</ele>
	<time>2023-08-09T09:05:18.000Z</time>
</trkpt>
<trkpt lat="46.1710960" lon="10.4863420">
	<ele>2501.20</ele>
	<time>2023-08-09T09:05:19.000Z</time>
</trkpt>
<trkpt lat="46.1710960" lon="10.4863430">
	<ele>2501.20</ele>
	<time>2023-08-09T09:05:20.000Z</time>
</trkpt>
<trkpt lat="46.1710960" lon="10.4863430">
	<ele>2501.20</ele>
	<time>2023-08-09T09:05:21.000Z</time>
</trkpt>
<trkpt lat="46.1710960" lon="10.4863430">
	<ele>2501.40</ele>
	<time>2023-08-09T09:05:22.000Z</time>
</trkpt>
<trkpt lat="46.1710960" lon="10.4863440">
	<ele>2501.60</ele>
	<time>2023-08-09T09:05:23.000Z</time>
</trkpt>
<trkpt lat="46.1710960" lon="10.4863440">
	<ele>2501.60</ele>
	<time>2023-08-09T09:05:24.000Z</time>
</trkpt>
<trkpt lat="46.1710970" lon="10.4863440">
	<ele>2501.80</ele>
	<time>2023-08-09T09:05:25.000Z</time>
</trkpt>
<trkpt lat="46.1710970" lon="10.4863440">
	<ele>2501.80</ele>
	<time>2023-08-09T09:05:26.000Z</time>
</trkpt>
<trkpt lat="46.1710970" lon="10.4863450">
	<ele>2501.80</ele>
	<time>2023-08-09T09:05:27.000Z</time>
</trkpt>
<trkpt lat="46.1710970" lon="10.4863450">
	<ele>2501.80</ele>
	<time>2023-08-09T09:05:28.000Z</time>
</trkpt>
<trkpt lat="46.1710970" lon="10.4863450">
	<ele>2502.00</ele>
	<time>2023-08-09T09:05:29.000Z</time>
</trkpt>
<trkpt lat="46.1710970" lon="10.4863450">
	<ele>2502.00</ele>
	<time>2023-08-09T09:05:30.000Z</time>
</trkpt>
<trkpt lat="46.1710970" lon="10.4863460">
	<ele>2502.40</ele>
	<time>2023-08-09T09:05:31.000Z</time>
</trkpt>
<trkpt lat="46.1710970" lon="10.4863460">
	<ele>2502.40</ele>
	<time>2023-08-09T09:05:32.000Z</time>
</trkpt>
<trkpt lat="46.1710970" lon="10.4863460">
	<ele>2502.60</ele>
	<time>2023-08-09T09:05:33.000Z</time>
</trkpt>
<trkpt lat="46.1710970" lon="10.4863470">
	<ele>2502.60</ele>
	<time>2023-08-09T09:05:34.000Z</time>
</trkpt>
<trkpt lat="46.1710970" lon="10.4863470">
	<ele>2502.80</ele>
	<time>2023-08-09T09:05:35.000Z</time>
</trkpt>
<trkpt lat="46.1710980" lon="10.4863470">
	<ele>2502.80</ele>
	<time>2023-08-09T09:05:36.000Z</time>
</trkpt>
<trkpt lat="46.1710980" lon="10.4863470">
	<ele>2502.80</ele>
	<time>2023-08-09T09:05:37.000Z</time>
</trkpt>
<trkpt lat="46.1710980" lon="10.4863480">
	<ele>2502.80</ele>
	<time>2023-08-09T09:05:38.000Z</time>
</trkpt>
<trkpt lat="46.1710980" lon="10.4863480">
	<ele>2502.80</ele>
	<time>2023-08-09T09:05:39.000Z</time>
</trkpt>
<trkpt lat="46.1710980" lon="10.4863480">
	<ele>2503.20</ele>
	<time>2023-08-09T09:05:40.000Z</time>
</trkpt>
<trkpt lat="46.1710980" lon="10.4863490">
	<ele>2503.60</ele>
	<time>2023-08-09T09:05:41.000Z</time>
</trkpt>
<trkpt lat="46.1710980" lon="10.4863490">
	<ele>2503.80</ele>
	<time>2023-08-09T09:05:42.000Z</time>
</trkpt>
<trkpt lat="46.1710990" lon="10.4863490">
	<ele>2503.80</ele>
	<time>2023-08-09T09:05:43.000Z</time>
</trkpt>
<trkpt lat="46.1710990" lon="10.4863490">
	<ele>2503.80</ele>
	<time>2023-08-09T09:05:44.000Z</time>
</trkpt>
<trkpt lat="46.1710990" lon="10.4863500">
	<ele>2504.00</ele>
	<time>2023-08-09T09:05:45.000Z</time>
</trkpt>
<trkpt lat="46.1710990" lon="10.4863500">
	<ele>2504.00</ele>
	<time>2023-08-09T09:05:46.000Z</time>
</trkpt>
<trkpt lat="46.1710990" lon="10.4863500">
	<ele>2504.00</ele>
	<time>2023-08-09T09:05:47.000Z</time>
</trkpt>
<trkpt lat="46.1710990" lon="10.4863500">
	<ele>2504.00</ele>
	<time>2023-08-09T09:05:48.000Z</time>
</trkpt>
<trkpt lat="46.1710990" lon="10.4863510">
	<ele>2504.20</ele>
	<time>2023-08-09T09:05:49.000Z</time>
</trkpt>
<trkpt lat="46.1710990" lon="10.4863510">
	<ele>2504.20</ele>
	<time>2023-08-09T09:05:50.000Z</time>
</trkpt>
<trkpt lat="46.1711000" lon="10.4863510">
	<ele>2504.40</ele>
	<time>2023-08-09T09:05:51.000Z</time>
</trkpt>
<trkpt lat="46.1711000" lon="10.4863520">
	<ele>2504.60</ele>
	<time>2023-08-09T09:05:52.000Z</time>
</trkpt>
<trkpt lat="46.1711000" lon="10.4863520">
	<ele>2504.80</ele>
	<time>2023-08-09T09:05:53.000Z</time>
</trkpt>
<trkpt lat="46.1711000" lon="10.4863520">
	<ele>2504.80</ele>
	<time>2023-08-09T09:05:54.000Z</time>
</trkpt>
<trkpt lat="46.1711000" lon="10.4863530">
	<ele>2505.00</ele>
	<time>2023-08-09T09:05:55.000Z</time>
</trkpt>
<trkpt lat="46.1711000" lon="10.4863530">
	<ele>2505.00</ele>
	<time>2023-08-09T09:05:56.000Z</time>
</trkpt>
<trkpt lat="46.1711000" lon="10.4863530">
	<ele>2505.20</ele>
	<time>2023-08-09T09:05:57.000Z</time>
</trkpt>
<trkpt lat="46.1711010" lon="10.4863540">
	<ele>2505.20</ele>
	<time>2023-08-09T09:05:58.000Z</time>
</trkpt>
<trkpt lat="46.1711010" lon="10.4863540">
	<ele>2505.20</ele>
	<time>2023-08-09T09:05:59.000Z</time>
</trkpt>
<trkpt lat="46.1711010" lon="10.4863540">
	<ele>2505.40</ele>
	<time>2023-08-09T09:06:00.000Z</time>
</trkpt>
<trkpt lat="46.1711010" lon="10.4863540">
	<ele>2505.60</ele>
	<time>2023-08-09T09:06:01.000Z</time>
</trkpt>
<trkpt lat="46.1711010" lon="10.4863550">
	<ele>2505.60</ele>
	<time>2023-08-09T09:06:02.000Z</time>
</trkpt>
<trkpt lat="46.1711010" lon="10.4863550">
	<ele>2505.60</ele>
	<time>2023-08-09T09:06:03.000Z</time>
</trkpt>
<trkpt lat="46.1711020" lon="10.4863560">
	<ele>2505.60</ele>
	<time>2023-08-09T09:06:04.000Z</time>
</trkpt>
<trkpt lat="46.1711020" lon="10.4863560">
	<ele>2505.80</ele>
	<time>2023-08-09T09:06:05.000Z</time>
</trkpt>
<trkpt lat="46.1711020" lon="10.4863560">
	<ele>2505.80</ele>
	<time>2023-08-09T09:06:06.000Z</time>
</trkpt>
<trkpt lat="46.1711020" lon="10.4863570">
	<ele>2505.80</ele>
	<time>2023-08-09T09:06:07.000Z</time>
</trkpt>
<trkpt lat="46.1711020" lon="10.4863570">
	<ele>2506.00</ele>
	<time>2023-08-09T09:06:08.000Z</time>
</trkpt>
<trkpt lat="46.1711020" lon="10.4863570">
	<ele>2506.20</ele>
	<time>2023-08-09T09:06:09.000Z</time>
</trkpt>
<trkpt lat="46.1711030" lon="10.4863580">
	<ele>2506.40</ele>
	<time>2023-08-09T09:06:10.000Z</time>
</trkpt>
<trkpt lat="46.1711030" lon="10.4863580">
	<ele>2506.60</ele>
	<time>2023-08-09T09:06:11.000Z</time>
</trkpt>
<trkpt lat="46.1711030" lon="10.4863580">
	<ele>2506.80</ele>
	<time>2023-08-09T09:06:12.000Z</time>
</trkpt>
<trkpt lat="46.1711030" lon="10.4863590">
	<ele>2506.80</ele>
	<time>2023-08-09T09:06:13.000Z</time>
</trkpt>
<trkpt lat="46.1711030" lon="10.4863590">
	<ele>2507.00</ele>
	<time>2023-08-09T09:06:14.000Z</time>
</trkpt>
<trkpt lat="46.1711030" lon="10.4863590">
	<ele>2507.00</ele>
	<time>2023-08-09T09:06:15.000Z</time>
</trkpt>
<trkpt lat="46.1711040" lon="10.4863600">
	<ele>2507.20</ele>
	<time>2023-08-09T09:06:16.000Z</time>
</trkpt>
<trkpt lat="46.1711040" lon="10.4863600">
	<ele>2507.40</ele>
	<time>2023-08-09T09:06:17.000Z</time>
</trkpt>
<trkpt lat="46.1711040" lon="10.4863600">
	<ele>2507.60</ele>
	<time>2023-08-09T09:06:18.000Z</time>
</trkpt>
<trkpt lat="46.1711040" lon="10.4863610">
	<ele>2507.60</ele>
	<time>2023-08-09T09:06:19.000Z</time>
</trkpt>
<trkpt lat="46.1711040" lon="10.4863610">
	<ele>2507.80</ele>
	<time>2023-08-09T09:06:20.000Z</time>
</trkpt>
<trkpt lat="46.1711040" lon="10.4863620">
	<ele>2507.80</ele>
	<time>2023-08-09T09:06:21.000Z</time>
</trkpt>
<trkpt lat="46.1711040" lon="10.4863620">
	<ele>2508.00</ele>
	<time>2023-08-09T09:06:22.000Z</time>
</trkpt>
<trkpt lat="46.1711040" lon="10.4863620">
	<ele>2508.00</ele>
	<time>2023-08-09T09:06:23.000Z</time>
</trkpt>
<trkpt lat="46.1711040" lon="10.4863630">
	<ele>2508.00</ele>
	<time>2023-08-09T09:06:24.000Z</time>
</trkpt>
<trkpt lat="46.1711050" lon="10.4863630">
	<ele>2508.20</ele>
	<time>2023-08-09T09:06:25.000Z</time>
</trkpt>
<trkpt lat="46.1711050" lon="10.4863640">
	<ele>2508.20</ele>
	<time>2023-08-09T09:06:26.000Z</time>
</trkpt>
<trkpt lat="46.1711050" lon="10.4863640">
	<ele>2508.20</ele>
	<time>2023-08-09T09:06:27.000Z</time>
</trkpt>
<trkpt lat="46.1711050" lon="10.4863650">
	<ele>2508.40</ele>
	<time>2023-08-09T09:06:28.000Z</time>
</trkpt>
<trkpt lat="46.1711050" lon="10.4863650">
	<ele>2508.40</ele>
	<time>2023-08-09T09:06:29.000Z</time>
</trkpt>
<trkpt lat="46.1711050" lon="10.4863650">
	<ele>2508.60</ele>
	<time>2023-08-09T09:06:30.000Z</time>
</trkpt>
<trkpt lat="46.1711050" lon="10.4863660">
	<ele>2508.60</ele>
	<time>2023-08-09T09:06:31.000Z</time>
</trkpt>
<trkpt lat="46.1711050" lon="10.4863660">
	<ele>2508.80</ele>
	<time>2023-08-09T09:06:32.000Z</time>
</trkpt>
<trkpt lat="46.1711060" lon="10.4863670">
	<ele>2509.00</ele>
	<time>2023-08-09T09:06:33.000Z</time>
</trkpt>
<trkpt lat="46.1711060" lon="10.4863670">
	<ele>2509.00</ele>
	<time>2023-08-09T09:06:34.000Z</time>
</trkpt>
<trkpt lat="46.1711060" lon="10.4863680">
	<ele>2509.00</ele>
	<time>2023-08-09T09:06:35.000Z</time>
</trkpt>
<trkpt lat="46.1711060" lon="10.4863680">
	<ele>2509.20</ele>
	<time>2023-08-09T09:06:36.000Z</time>
</trkpt>
<trkpt lat="46.1711060" lon="10.4863680">
	<ele>2509.20</ele>
	<time>2023-08-09T09:06:37.000Z</time>
</trkpt>
<trkpt lat="46.1711060" lon="10.4863680">
	<ele>2509.40</ele>
	<time>2023-08-09T09:06:38.000Z</time>
</trkpt>
<trkpt lat="46.1711060" lon="10.4863690">
	<ele>2509.60</ele>
	<time>2023-08-09T09:06:39.000Z</time>
</trkpt>
<trkpt lat="46.1711070" lon="10.4863690">
	<ele>2509.60</ele>
	<time>2023-08-09T09:06:40.000Z</time>
</trkpt>
<trkpt lat="46.1711070" lon="10.4863700">
	<ele>2509.80</ele>
	<time>2023-08-09T09:06:41.000Z</time>
</trkpt>
<trkpt lat="46.1711070" lon="10.4863700">
	<ele>2509.80</ele>
	<time>2023-08-09T09:06:42.000Z</time>
</trkpt>
<trkpt lat="46.1711070" lon="10.4863710">
	<ele>2510.20</ele>
	<time>2023-08-09T09:06:43.000Z</time>
</trkpt>
<trkpt lat="46.1711070" lon="10.4863710">
	<ele>2510.40</ele>
	<time>2023-08-09T09:06:44.000Z</time>
</trkpt>
<trkpt lat="46.1711080" lon="10.4863720">
	<ele>2510.60</ele>
	<time>2023-08-09T09:06:45.000Z</time>
</trkpt>
<trkpt lat="46.1711080" lon="10.4863720">
	<ele>2510.80</ele>
	<time>2023-08-09T09:06:46.000Z</time>
</trkpt>
<trkpt lat="46.1711080" lon="10.4863730">
	<ele>2510.80</ele>
	<time>2023-08-09T09:06:47.000Z</time>
</trkpt>
<trkpt lat="46.1711080" lon="10.4863730">
	<ele>2510.80</ele>
	<time>2023-08-09T09:06:48.000Z</time>
</trkpt>
<trkpt lat="46.1711080" lon="10.4863740">
	<ele>2510.80</ele>
	<time>2023-08-09T09:06:49.000Z</time>
</trkpt>
<trkpt lat="46.1711090" lon="10.4863740">
	<ele>2511.00</ele>
	<time>2023-08-09T09:06:50.000Z</time>
</trkpt>
<trkpt lat="46.1711090" lon="10.4863750">
	<ele>2511.20</ele>
	<time>2023-08-09T09:06:51.000Z</time>
</trkpt>
<trkpt lat="46.1711090" lon="10.4863750">
	<ele>2511.40</ele>
	<time>2023-08-09T09:06:52.000Z</time>
</trkpt>
<trkpt lat="46.1711090" lon="10.4863760">
	<ele>2511.40</ele>
	<time>2023-08-09T09:06:53.000Z</time>
</trkpt>
<trkpt lat="46.1711090" lon="10.4863760">
	<ele>2511.40</ele>
	<time>2023-08-09T09:06:54.000Z</time>
</trkpt>
<trkpt lat="46.1711100" lon="10.4863770">
	<ele>2511.60</ele>
	<time>2023-08-09T09:06:55.000Z</time>
</trkpt>
<trkpt lat="46.1711100" lon="10.4863770">
	<ele>2511.60</ele>
	<time>2023-08-09T09:06:56.000Z</time>
</trkpt>
<trkpt lat="46.1711100" lon="10.4863780">
	<ele>2511.60</ele>
	<time>2023-08-09T09:06:57.000Z</time>
</trkpt>
<trkpt lat="46.1711100" lon="10.4863780">
	<ele>2511.80</ele>
	<time>2023-08-09T09:06:58.000Z</time>
</trkpt>
<trkpt lat="46.1711250" lon="10.4864110">
	<ele>2511.80</ele>
	<time>2023-08-09T09:06:59.000Z</time>
</trkpt>
<trkpt lat="46.1711470" lon="10.4864520">
	<ele>2512.00</ele>
	<time>2023-08-09T09:07:00.000Z</time>
</trkpt>
<trkpt lat="46.1711700" lon="10.4864970">
	<ele>2512.20</ele>
	<time>2023-08-09T09:07:01.000Z</time>
</trkpt>
<trkpt lat="46.1711910" lon="10.4865430">
	<ele>2512.20</ele>
	<time>2023-08-09T09:07:02.000Z</time>
</trkpt>
<trkpt lat="46.1712090" lon="10.4865820">
	<ele>2512.40</ele>
	<time>2023-08-09T09:07:03.000Z</time>
</trkpt>
<trkpt lat="46.1712260" lon="10.4866200">
	<ele>2512.60</ele>
	<time>2023-08-09T09:07:04.000Z</time>
</trkpt>
<trkpt lat="46.1712410" lon="10.4866520">
	<ele>2513.00</ele>
	<time>2023-08-09T09:07:05.000Z</time>
</trkpt>
<trkpt lat="46.1712580" lon="10.4866850">
	<ele>2513.00</ele>
	<time>2023-08-09T09:07:06.000Z</time>
</trkpt>
<trkpt lat="46.1712760" lon="10.4867180">
	<ele>2513.20</ele>
	<time>2023-08-09T09:07:07.000Z</time>
</trkpt>
<trkpt lat="46.1713010" lon="10.4867750">
	<ele>2513.20</ele>
	<time>2023-08-09T09:07:08.000Z</time>
</trkpt>
<trkpt lat="46.1713150" lon="10.4867990">
	<ele>2513.20</ele>
	<time>2023-08-09T09:07:09.000Z</time>
</trkpt>
<trkpt lat="46.1713240" lon="10.4868130">
	<ele>2513.40</ele>
	<time>2023-08-09T09:07:10.000Z</time>
</trkpt>
<trkpt lat="46.1713320" lon="10.4868210">
	<ele>2513.60</ele>
	<time>2023-08-09T09:07:11.000Z</time>
</trkpt>
<trkpt lat="46.1713370" lon="10.4868280">
	<ele>2513.60</ele>
	<time>2023-08-09T09:07:12.000Z</time>
</trkpt>
<trkpt lat="46.1713410" lon="10.4868380">
	<ele>2513.80</ele>
	<time>2023-08-09T09:07:13.000Z</time>
</trkpt>
<trkpt lat="46.1713470" lon="10.4868440">
	<ele>2514.00</ele>
	<time>2023-08-09T09:07:14.000Z</time>
</trkpt>
<trkpt lat="46.1713480" lon="10.4868500">
	<ele>2514.00</ele>
	<time>2023-08-09T09:07:15.000Z</time>
</trkpt>
<trkpt lat="46.1713540" lon="10.4868670">
	<ele>2514.00</ele>
	<time>2023-08-09T09:07:16.000Z</time>
</trkpt>
<trkpt lat="46.1713450" lon="10.4868620">
	<ele>2514.00</ele>
	<time>2023-08-09T09:07:17.000Z</time>
</trkpt>
<trkpt lat="46.1713440" lon="10.4868660">
	<ele>2514.20</ele>
	<time>2023-08-09T09:07:18.000Z</time>
</trkpt>
<trkpt lat="46.1713450" lon="10.4868690">
	<ele>2514.20</ele>
	<time>2023-08-09T09:07:19.000Z</time>
</trkpt>
<trkpt lat="46.1713460" lon="10.4868710">
	<ele>2514.40</ele>
	<time>2023-08-09T09:07:20.000Z</time>
</trkpt>
<trkpt lat="46.1713480" lon="10.4868730">
	<ele>2514.40</ele>
	<time>2023-08-09T09:07:21.000Z</time>
</trkpt>
<trkpt lat="46.1713490" lon="10.4868750">
	<ele>2514.40</ele>
	<time>2023-08-09T09:07:22.000Z</time>
</trkpt>
<trkpt lat="46.1713510" lon="10.4868740">
	<ele>2514.40</ele>
	<time>2023-08-09T09:07:23.000Z</time>
</trkpt>
<trkpt lat="46.1713500" lon="10.4868740">
	<ele>2514.60</ele>
	<time>2023-08-09T09:07:24.000Z</time>
</trkpt>
<trkpt lat="46.1713500" lon="10.4868730">
	<ele>2514.60</ele>
	<time>2023-08-09T09:07:25.000Z</time>
</trkpt>
<trkpt lat="46.1713490" lon="10.4868720">
	<ele>2514.60</ele>
	<time>2023-08-09T09:07:26.000Z</time>
</trkpt>
<trkpt lat="46.1713490" lon="10.4868710">
	<ele>2514.60</ele>
	<time>2023-08-09T09:07:27.000Z</time>
</trkpt>
<trkpt lat="46.1713490" lon="10.4868710">
	<ele>2514.60</ele>
	<time>2023-08-09T09:07:28.000Z</time>
</trkpt>
<trkpt lat="46.1713490" lon="10.4868710">
	<ele>2514.60</ele>
	<time>2023-08-09T09:07:29.000Z</time>
</trkpt>
<trkpt lat="46.1713490" lon="10.4868710">
	<ele>2514.60</ele>
	<time>2023-08-09T09:07:30.000Z</time>
</trkpt>
<trkpt lat="46.1713490" lon="10.4868710">
	<ele>2514.40</ele>
	<time>2023-08-09T09:07:31.000Z</time>
</trkpt>
<trkpt lat="46.1713490" lon="10.4868710">
	<ele>2514.40</ele>
	<time>2023-08-09T09:07:32.000Z</time>
</trkpt>
<trkpt lat="46.1713490" lon="10.4868710">
	<ele>2514.40</ele>
	<time>2023-08-09T09:07:33.000Z</time>
</trkpt>
<trkpt lat="46.1713490" lon="10.4868710">
	<ele>2514.40</ele>
	<time>2023-08-09T09:07:34.000Z</time>
</trkpt>
<trkpt lat="46.1713490" lon="10.4868710">
	<ele>2514.60</ele>
	<time>2023-08-09T09:07:35.000Z</time>
</trkpt>
<trkpt lat="46.1713490" lon="10.4868710">
	<ele>2514.60</ele>
	<time>2023-08-09T09:07:36.000Z</time>
</trkpt>
<trkpt lat="46.1713490" lon="10.4868710">
	<ele>2514.60</ele>
	<time>2023-08-09T09:07:37.000Z</time>
</trkpt>
<trkpt lat="46.1713490" lon="10.4868710">
	<ele>2514.60</ele>
	<time>2023-08-09T09:07:38.000Z</time>
</trkpt>
<trkpt lat="46.1713490" lon="10.4868710">
	<ele>2514.60</ele>
	<time>2023-08-09T09:07:39.000Z</time>
</trkpt>
<trkpt lat="46.1713500" lon="10.4868720">
	<ele>2514.40</ele>
	<time>2023-08-09T09:07:40.000Z</time>
</trkpt>
<trkpt lat="46.1713500" lon="10.4868720">
	<ele>2514.20</ele>
	<time>2023-08-09T09:07:41.000Z</time>
</trkpt>
<trkpt lat="46.1713510" lon="10.4868720">
	<ele>2514.20</ele>
	<time>2023-08-09T09:07:42.000Z</time>
</trkpt>
<trkpt lat="46.1713510" lon="10.4868720">
	<ele>2514.20</ele>
	<time>2023-08-09T09:07:43.000Z</time>
</trkpt>
<trkpt lat="46.1713520" lon="10.4868720">
	<ele>2514.40</ele>
	<time>2023-08-09T09:07:44.000Z</time>
</trkpt>
<trkpt lat="46.1713530" lon="10.4868730">
	<ele>2514.60</ele>
	<time>2023-08-09T09:07:45.000Z</time>
</trkpt>
<trkpt lat="46.1713540" lon="10.4868730">
	<ele>2514.60</ele>
	<time>2023-08-09T09:07:46.000Z</time>
</trkpt>
<trkpt lat="46.1713540" lon="10.4868730">
	<ele>2514.80</ele>
	<time>2023-08-09T09:07:47.000Z</time>
</trkpt>
<trkpt lat="46.1713540" lon="10.4868730">
	<ele>2514.80</ele>
	<time>2023-08-09T09:07:48.000Z</time>
</trkpt>
<trkpt lat="46.1713550" lon="10.4868730">
	<ele>2514.80</ele>
	<time>2023-08-09T09:07:49.000Z</time>
</trkpt>
<trkpt lat="46.1713550" lon="10.4868730">
	<ele>2514.60</ele>
	<time>2023-08-09T09:07:50.000Z</time>
</trkpt>
<trkpt lat="46.1713560" lon="10.4868730">
	<ele>2514.60</ele>
	<time>2023-08-09T09:07:51.000Z</time>
</trkpt>
<trkpt lat="46.1713590" lon="10.4868730">
	<ele>2514.40</ele>
	<time>2023-08-09T09:07:52.000Z</time>
</trkpt>
<trkpt lat="46.1713620" lon="10.4868730">
	<ele>2514.40</ele>
	<time>2023-08-09T09:07:53.000Z</time>
</trkpt>
<trkpt lat="46.1713630" lon="10.4868730">
	<ele>2514.40</ele>
	<time>2023-08-09T09:07:54.000Z</time>
</trkpt>
<trkpt lat="46.1713610" lon="10.4868700">
	<ele>2514.20</ele>
	<time>2023-08-09T09:07:55.000Z</time>
</trkpt>
<trkpt lat="46.1713560" lon="10.4868610">
	<ele>2514.20</ele>
	<time>2023-08-09T09:07:56.000Z</time>
</trkpt>
<trkpt lat="46.1713550" lon="10.4868570">
	<ele>2514.20</ele>
	<time>2023-08-09T09:07:57.000Z</time>
</trkpt>
<trkpt lat="46.1713600" lon="10.4868660">
	<ele>2514.40</ele>
	<time>2023-08-09T09:07:58.000Z</time>
</trkpt>
<trkpt lat="46.1713600" lon="10.4868650">
	<ele>2514.40</ele>
	<time>2023-08-09T09:07:59.000Z</time>
</trkpt>
<trkpt lat="46.1713600" lon="10.4868650">
	<ele>2514.40</ele>
	<time>2023-08-09T09:08:00.000Z</time>
</trkpt>
<trkpt lat="46.1713600" lon="10.4868650">
	<ele>2514.60</ele>
	<time>2023-08-09T09:08:01.000Z</time>
</trkpt>
<trkpt lat="46.1713600" lon="10.4868650">
	<ele>2514.60</ele>
	<time>2023-08-09T09:08:02.000Z</time>
</trkpt>
<trkpt lat="46.1713600" lon="10.4868650">
	<ele>2514.60</ele>
	<time>2023-08-09T09:08:03.000Z</time>
</trkpt>
<trkpt lat="46.1713600" lon="10.4868650">
	<ele>2514.80</ele>
	<time>2023-08-09T09:08:04.000Z</time>
</trkpt>
<trkpt lat="46.1713600" lon="10.4868650">
	<ele>2514.80</ele>
	<time>2023-08-09T09:08:05.000Z</time>
</trkpt>
<trkpt lat="46.1713600" lon="10.4868650">
	<ele>2514.80</ele>
	<time>2023-08-09T09:08:06.000Z</time>
</trkpt>
<trkpt lat="46.1713600" lon="10.4868650">
	<ele>2514.80</ele>
	<time>2023-08-09T09:08:07.000Z</time>
</trkpt>
<trkpt lat="46.1713600" lon="10.4868650">
	<ele>2514.80</ele>
	<time>2023-08-09T09:08:08.000Z</time>
</trkpt>
<trkpt lat="46.1713600" lon="10.4868560">
	<ele>2514.80</ele>
	<time>2023-08-09T09:08:09.000Z</time>
</trkpt>
<trkpt lat="46.1713600" lon="10.4868560">
	<ele>2514.60</ele>
	<time>2023-08-09T09:08:10.000Z</time>
</trkpt>
<trkpt lat="46.1713600" lon="10.4868560">
	<ele>2514.40</ele>
	<time>2023-08-09T09:08:11.000Z</time>
</trkpt>
<trkpt lat="46.1713600" lon="10.4868560">
	<ele>2514.00</ele>
	<time>2023-08-09T09:08:12.000Z</time>
</trkpt>
<trkpt lat="46.1713600" lon="10.4868560">
	<ele>2514.00</ele>
	<time>2023-08-09T09:08:13.000Z</time>
</trkpt>
<trkpt lat="46.1713570" lon="10.4868500">
	<ele>2513.80</ele>
	<time>2023-08-09T09:08:14.000Z</time>
</trkpt>
<trkpt lat="46.1713520" lon="10.4868450">
	<ele>2513.80</ele>
	<time>2023-08-09T09:08:15.000Z</time>
</trkpt>
<trkpt lat="46.1713530" lon="10.4868450">
	<ele>2513.80</ele>
	<time>2023-08-09T09:08:16.000Z</time>
</trkpt>
<trkpt lat="46.1713550" lon="10.4868390">
	<ele>2513.80</ele>
	<time>2023-08-09T09:08:17.000Z</time>
</trkpt>
<trkpt lat="46.1713550" lon="10.4868290">
	<ele>2514.00</ele>
	<time>2023-08-09T09:08:18.000Z</time>
</trkpt>
<trkpt lat="46.1713460" lon="10.4868150">
	<ele>2514.00</ele>
	<time>2023-08-09T09:08:19.000Z</time>
</trkpt>
<trkpt lat="46.1713400" lon="10.4868040">
	<ele>2514.20</ele>
	<time>2023-08-09T09:08:20.000Z</time>
</trkpt>
<trkpt lat="46.1713370" lon="10.4867970">
	<ele>2514.20</ele>
	<time>2023-08-09T09:08:21.000Z</time>
</trkpt>
<trkpt lat="46.1713340" lon="10.4867920">
	<ele>2514.20</ele>
	<time>2023-08-09T09:08:22.000Z</time>
</trkpt>
<trkpt lat="46.1713320" lon="10.4867870">
	<ele>2514.20</ele>
	<time>2023-08-09T09:08:23.000Z</time>
</trkpt>
<trkpt lat="46.1713300" lon="10.4867780">
	<ele>2514.20</ele>
	<time>2023-08-09T09:08:24.000Z</time>
</trkpt>
<trkpt lat="46.1713280" lon="10.4867680">
	<ele>2514.20</ele>
	<time>2023-08-09T09:08:25.000Z</time>
</trkpt>
<trkpt lat="46.1713280" lon="10.4867690">
	<ele>2514.20</ele>
	<time>2023-08-09T09:08:26.000Z</time>
</trkpt>
<trkpt lat="46.1713280" lon="10.4867710">
	<ele>2514.20</ele>
	<time>2023-08-09T09:08:27.000Z</time>
</trkpt>
<trkpt lat="46.1713280" lon="10.4867710">
	<ele>2514.20</ele>
	<time>2023-08-09T09:08:28.000Z</time>
</trkpt>
<trkpt lat="46.1713280" lon="10.4867710">
	<ele>2514.20</ele>
	<time>2023-08-09T09:08:29.000Z</time>
</trkpt>
<trkpt lat="46.1713280" lon="10.4867710">
	<ele>2514.40</ele>
	<time>2023-08-09T09:08:30.000Z</time>
</trkpt>
<trkpt lat="46.1713280" lon="10.4867710">
	<ele>2514.40</ele>
	<time>2023-08-09T09:08:31.000Z</time>
</trkpt>
<trkpt lat="46.1713280" lon="10.4867710">
	<ele>2514.20</ele>
	<time>2023-08-09T09:08:32.000Z</time>
</trkpt>
<trkpt lat="46.1713280" lon="10.4867710">
	<ele>2514.20</ele>
	<time>2023-08-09T09:08:33.000Z</time>
</trkpt>
<trkpt lat="46.1713280" lon="10.4867710">
	<ele>2514.00</ele>
	<time>2023-08-09T09:08:34.000Z</time>
</trkpt>
<trkpt lat="46.1713280" lon="10.4867710">
	<ele>2514.00</ele>
	<time>2023-08-09T09:08:35.000Z</time>
</trkpt>
<trkpt lat="46.1713260" lon="10.4867680">
	<ele>2513.80</ele>
	<time>2023-08-09T09:08:36.000Z</time>
</trkpt>
<trkpt lat="46.1713280" lon="10.4867710">
	<ele>2513.80</ele>
	<time>2023-08-09T09:08:37.000Z</time>
</trkpt>
<trkpt lat="46.1713210" lon="10.4867630">
	<ele>2513.80</ele>
	<time>2023-08-09T09:08:38.000Z</time>
</trkpt>
<trkpt lat="46.1713170" lon="10.4867620">
	<ele>2513.80</ele>
	<time>2023-08-09T09:08:39.000Z</time>
</trkpt>
<trkpt lat="46.1713140" lon="10.4867500">
	<ele>2513.60</ele>
	<time>2023-08-09T09:08:40.000Z</time>
</trkpt>
<trkpt lat="46.1713100" lon="10.4867450">
	<ele>2513.60</ele>
	<time>2023-08-09T09:08:41.000Z</time>
</trkpt>
<trkpt lat="46.1713140" lon="10.4867490">
	<ele>2513.60</ele>
	<time>2023-08-09T09:08:42.000Z</time>
</trkpt>
<trkpt lat="46.1713130" lon="10.4867330">
	<ele>2513.60</ele>
	<time>2023-08-09T09:08:43.000Z</time>
</trkpt>
<trkpt lat="46.1713140" lon="10.4867310">
	<ele>2513.60</ele>
	<time>2023-08-09T09:08:44.000Z</time>
</trkpt>
<trkpt lat="46.1713230" lon="10.4867370">
	<ele>2513.80</ele>
	<time>2023-08-09T09:08:45.000Z</time>
</trkpt>
<trkpt lat="46.1713350" lon="10.4867470">
	<ele>2514.00</ele>
	<time>2023-08-09T09:08:46.000Z</time>
</trkpt>
<trkpt lat="46.1713430" lon="10.4867580">
	<ele>2514.20</ele>
	<time>2023-08-09T09:08:47.000Z</time>
</trkpt>
<trkpt lat="46.1713560" lon="10.4867720">
	<ele>2514.40</ele>
	<time>2023-08-09T09:08:48.000Z</time>
</trkpt>
<trkpt lat="46.1713570" lon="10.4867720">
	<ele>2514.40</ele>
	<time>2023-08-09T09:08:49.000Z</time>
</trkpt>
<trkpt lat="46.1713560" lon="10.4867600">
	<ele>2514.40</ele>
	<time>2023-08-09T09:08:50.000Z</time>
</trkpt>
<trkpt lat="46.1713600" lon="10.4867520">
	<ele>2514.60</ele>
	<time>2023-08-09T09:08:51.000Z</time>
</trkpt>
<trkpt lat="46.1713620" lon="10.4867450">
	<ele>2514.60</ele>
	<time>2023-08-09T09:08:52.000Z</time>
</trkpt>
<trkpt lat="46.1713650" lon="10.4867380">
	<ele>2514.60</ele>
	<time>2023-08-09T09:08:53.000Z</time>
</trkpt>
<trkpt lat="46.1713700" lon="10.4867410">
	<ele>2514.80</ele>
	<time>2023-08-09T09:08:54.000Z</time>
</trkpt>
<trkpt lat="46.1713740" lon="10.4867410">
	<ele>2515.00</ele>
	<time>2023-08-09T09:08:55.000Z</time>
</trkpt>
<trkpt lat="46.1713760" lon="10.4867480">
	<ele>2515.20</ele>
	<time>2023-08-09T09:08:56.000Z</time>
</trkpt>
<trkpt lat="46.1713770" lon="10.4867520">
	<ele>2515.40</ele>
	<time>2023-08-09T09:08:57.000Z</time>
</trkpt>
<trkpt lat="46.1713640" lon="10.4867380">
	<ele>2515.40</ele>
	<time>2023-08-09T09:08:58.000Z</time>
</trkpt>
<trkpt lat="46.1713550" lon="10.4867310">
	<ele>2515.60</ele>
	<time>2023-08-09T09:08:59.000Z</time>
</trkpt>
<trkpt lat="46.1713490" lon="10.4867310">
	<ele>2515.60</ele>
	<time>2023-08-09T09:09:00.000Z</time>
</trkpt>
<trkpt lat="46.1713460" lon="10.4867390">
	<ele>2515.80</ele>
	<time>2023-08-09T09:09:01.000Z</time>
</trkpt>
<trkpt lat="46.1713420" lon="10.4867430">
	<ele>2516.00</ele>
	<time>2023-08-09T09:09:02.000Z</time>
</trkpt>
<trkpt lat="46.1713340" lon="10.4867410">
	<ele>2516.00</ele>
	<time>2023-08-09T09:09:03.000Z</time>
</trkpt>
<trkpt lat="46.1713290" lon="10.4867440">
	<ele>2516.20</ele>
	<time>2023-08-09T09:09:04.000Z</time>
</trkpt>
<trkpt lat="46.1713270" lon="10.4867490">
	<ele>2516.40</ele>
	<time>2023-08-09T09:09:05.000Z</time>
</trkpt>
<trkpt lat="46.1713240" lon="10.4867570">
	<ele>2516.60</ele>
	<time>2023-08-09T09:09:06.000Z</time>
</trkpt>
<trkpt lat="46.1713250" lon="10.4867710">
	<ele>2516.60</ele>
	<time>2023-08-09T09:09:07.000Z</time>
</trkpt>
<trkpt lat="46.1713190" lon="10.4867690">
	<ele>2516.80</ele>
	<time>2023-08-09T09:09:08.000Z</time>
</trkpt>
<trkpt lat="46.1713050" lon="10.4867550">
	<ele>2517.00</ele>
	<time>2023-08-09T09:09:09.000Z</time>
</trkpt>
<trkpt lat="46.1713030" lon="10.4867610">
	<ele>2517.00</ele>
	<time>2023-08-09T09:09:10.000Z</time>
</trkpt>
<trkpt lat="46.1713100" lon="10.4867840">
	<ele>2517.20</ele>
	<time>2023-08-09T09:09:11.000Z</time>
</trkpt>
<trkpt lat="46.1713160" lon="10.4867980">
	<ele>2517.40</ele>
	<time>2023-08-09T09:09:12.000Z</time>
</trkpt>
<trkpt lat="46.1713180" lon="10.4868110">
	<ele>2517.60</ele>
	<time>2023-08-09T09:09:13.000Z</time>
</trkpt>
<trkpt lat="46.1713210" lon="10.4868210">
	<ele>2517.80</ele>
	<time>2023-08-09T09:09:14.000Z</time>
</trkpt>
<trkpt lat="46.1713220" lon="10.4868270">
	<ele>2517.80</ele>
	<time>2023-08-09T09:09:15.000Z</time>
</trkpt>
<trkpt lat="46.1713220" lon="10.4868290">
	<ele>2517.80</ele>
	<time>2023-08-09T09:09:16.000Z</time>
</trkpt>
<trkpt lat="46.1713280" lon="10.4868440">
	<ele>2518.00</ele>
	<time>2023-08-09T09:09:17.000Z</time>
</trkpt>
<trkpt lat="46.1713310" lon="10.4868530">
	<ele>2518.00</ele>
	<time>2023-08-09T09:09:18.000Z</time>
</trkpt>
<trkpt lat="46.1713320" lon="10.4868600">
	<ele>2518.40</ele>
	<time>2023-08-09T09:09:19.000Z</time>
</trkpt>
<trkpt lat="46.1713340" lon="10.4868620">
	<ele>2518.40</ele>
	<time>2023-08-09T09:09:20.000Z</time>
</trkpt>
<trkpt lat="46.1713370" lon="10.4868530">
	<ele>2518.60</ele>
	<time>2023-08-09T09:09:21.000Z</time>
</trkpt>
<trkpt lat="46.1713370" lon="10.4868560">
	<ele>2518.60</ele>
	<time>2023-08-09T09:09:22.000Z</time>
</trkpt>
<trkpt lat="46.1713370" lon="10.4868550">
	<ele>2518.80</ele>
	<time>2023-08-09T09:09:23.000Z</time>
</trkpt>
<trkpt lat="46.1713400" lon="10.4868590">
	<ele>2519.00</ele>
	<time>2023-08-09T09:09:24.000Z</time>
</trkpt>
<trkpt lat="46.1713450" lon="10.4868650">
	<ele>2519.00</ele>
	<time>2023-08-09T09:09:25.000Z</time>
</trkpt>
<trkpt lat="46.1713380" lon="10.4868510">
	<ele>2519.40</ele>
	<time>2023-08-09T09:09:26.000Z</time>
</trkpt>
<trkpt lat="46.1713310" lon="10.4868340">
	<ele>2519.40</ele>
	<time>2023-08-09T09:09:27.000Z</time>
</trkpt>
<trkpt lat="46.1713260" lon="10.4868220">
	<ele>2519.60</ele>
	<time>2023-08-09T09:09:28.000Z</time>
</trkpt>
<trkpt lat="46.1713380" lon="10.4868450">
	<ele>2519.80</ele>
	<time>2023-08-09T09:09:29.000Z</time>
</trkpt>
<trkpt lat="46.1713390" lon="10.4868460">
	<ele>2520.00</ele>
	<time>2023-08-09T09:09:30.000Z</time>
</trkpt>
<trkpt lat="46.1713390" lon="10.4868460">
	<ele>2520.00</ele>
	<time>2023-08-09T09:09:31.000Z</time>
</trkpt>
<trkpt lat="46.1713390" lon="10.4868460">
	<ele>2520.20</ele>
	<time>2023-08-09T09:09:32.000Z</time>
</trkpt>
<trkpt lat="46.1713390" lon="10.4868460">
	<ele>2520.20</ele>
	<time>2023-08-09T09:09:33.000Z</time>
</trkpt>
<trkpt lat="46.1713390" lon="10.4868460">
	<ele>2520.40</ele>
	<time>2023-08-09T09:09:34.000Z</time>
</trkpt>
<trkpt lat="46.1713390" lon="10.4868460">
	<ele>2520.60</ele>
	<time>2023-08-09T09:09:35.000Z</time>
</trkpt>
<trkpt lat="46.1713390" lon="10.4868460">
	<ele>2520.80</ele>
	<time>2023-08-09T09:09:36.000Z</time>
</trkpt>
<trkpt lat="46.1713390" lon="10.4868460">
	<ele>2520.80</ele>
	<time>2023-08-09T09:09:37.000Z</time>
</trkpt>
<trkpt lat="46.1713390" lon="10.4868460">
	<ele>2520.80</ele>
	<time>2023-08-09T09:09:38.000Z</time>
</trkpt>
<trkpt lat="46.1713390" lon="10.4868460">
	<ele>2521.00</ele>
	<time>2023-08-09T09:09:39.000Z</time>
</trkpt>
<trkpt lat="46.1713390" lon="10.4868460">
	<ele>2521.00</ele>
	<time>2023-08-09T09:09:40.000Z</time>
</trkpt>
<trkpt lat="46.1713370" lon="10.4868540">
	<ele>2521.20</ele>
	<time>2023-08-09T09:09:41.000Z</time>
</trkpt>
<trkpt lat="46.1713360" lon="10.4868700">
	<ele>2521.40</ele>
	<time>2023-08-09T09:09:42.000Z</time>
</trkpt>
<trkpt lat="46.1713320" lon="10.4868780">
	<ele>2521.40</ele>
	<time>2023-08-09T09:09:43.000Z</time>
</trkpt>
<trkpt lat="46.1713260" lon="10.4868870">
	<ele>2521.60</ele>
	<time>2023-08-09T09:09:44.000Z</time>
</trkpt>
<trkpt lat="46.1713250" lon="10.4869010">
	<ele>2521.80</ele>
	<time>2023-08-09T09:09:45.000Z</time>
</trkpt>
<trkpt lat="46.1713280" lon="10.4869110">
	<ele>2522.00</ele>
	<time>2023-08-09T09:09:46.000Z</time>
</trkpt>
<trkpt lat="46.1713290" lon="10.4869230">
	<ele>2522.20</ele>
	<time>2023-08-09T09:09:47.000Z</time>
</trkpt>
<trkpt lat="46.1713260" lon="10.4869310">
	<ele>2522.20</ele>
	<time>2023-08-09T09:09:48.000Z</time>
</trkpt>
<trkpt lat="46.1713190" lon="10.4869320">
	<ele>2522.40</ele>
	<time>2023-08-09T09:09:49.000Z</time>
</trkpt>
<trkpt lat="46.1713120" lon="10.4869240">
	<ele>2522.60</ele>
	<time>2023-08-09T09:09:50.000Z</time>
</trkpt>
<trkpt lat="46.1712970" lon="10.4868890">
	<ele>2522.60</ele>
	<time>2023-08-09T09:09:51.000Z</time>
</trkpt>
<trkpt lat="46.1712890" lon="10.4868730">
	<ele>2522.80</ele>
	<time>2023-08-09T09:09:52.000Z</time>
</trkpt>
<trkpt lat="46.1712920" lon="10.4868720">
	<ele>2522.80</ele>
	<time>2023-08-09T09:09:53.000Z</time>
</trkpt>
<trkpt lat="46.1712890" lon="10.4868650">
	<ele>2523.00</ele>
	<time>2023-08-09T09:09:54.000Z</time>
</trkpt>
<trkpt lat="46.1712900" lon="10.4868610">
	<ele>2523.00</ele>
	<time>2023-08-09T09:09:55.000Z</time>
</trkpt>
<trkpt lat="46.1713010" lon="10.4868740">
	<ele>2523.20</ele>
	<time>2023-08-09T09:09:56.000Z</time>
</trkpt>
<trkpt lat="46.1713090" lon="10.4868890">
	<ele>2523.20</ele>
	<time>2023-08-09T09:09:57.000Z</time>
</trkpt>
<trkpt lat="46.1713160" lon="10.4869010">
	<ele>2523.40</ele>
	<time>2023-08-09T09:09:58.000Z</time>
</trkpt>
<trkpt lat="46.1713190" lon="10.4869070">
	<ele>2523.40</ele>
	<time>2023-08-09T09:09:59.000Z</time>
</trkpt>
<trkpt lat="46.1713200" lon="10.4869080">
	<ele>2523.60</ele>
	<time>2023-08-09T09:10:00.000Z</time>
</trkpt>
<trkpt lat="46.1713200" lon="10.4869080">
	<ele>2523.80</ele>
	<time>2023-08-09T09:10:01.000Z</time>
</trkpt>
<trkpt lat="46.1713220" lon="10.4869110">
	<ele>2523.80</ele>
	<time>2023-08-09T09:10:02.000Z</time>
</trkpt>
<trkpt lat="46.1713300" lon="10.4869160">
	<ele>2524.00</ele>
	<time>2023-08-09T09:10:03.000Z</time>
</trkpt>
<trkpt lat="46.1713380" lon="10.4869210">
	<ele>2524.20</ele>
	<time>2023-08-09T09:10:04.000Z</time>
</trkpt>
<trkpt lat="46.1713380" lon="10.4869240">
	<ele>2524.20</ele>
	<time>2023-08-09T09:10:05.000Z</time>
</trkpt>
<trkpt lat="46.1713410" lon="10.4869260">
	<ele>2524.20</ele>
	<time>2023-08-09T09:10:06.000Z</time>
</trkpt>
<trkpt lat="46.1713430" lon="10.4869280">
	<ele>2524.20</ele>
	<time>2023-08-09T09:10:07.000Z</time>
</trkpt>
<trkpt lat="46.1713440" lon="10.4869300">
	<ele>2524.40</ele>
	<time>2023-08-09T09:10:08.000Z</time>
</trkpt>
<trkpt lat="46.1713570" lon="10.4869510">
	<ele>2524.60</ele>
	<time>2023-08-09T09:10:09.000Z</time>
</trkpt>
<trkpt lat="46.1713690" lon="10.4869770">
	<ele>2525.00</ele>
	<time>2023-08-09T09:10:10.000Z</time>
</trkpt>
<trkpt lat="46.1713730" lon="10.4869870">
	<ele>2525.00</ele>
	<time>2023-08-09T09:10:11.000Z</time>
</trkpt>
<trkpt lat="46.1713770" lon="10.4870020">
	<ele>2525.20</ele>
	<time>2023-08-09T09:10:12.000Z</time>
</trkpt>
<trkpt lat="46.1713780" lon="10.4870040">
	<ele>2525.40</ele>
	<time>2023-08-09T09:10:13.000Z</time>
</trkpt>
<trkpt lat="46.1713870" lon="10.4870190">
	<ele>2525.40</ele>
	<time>2023-08-09T09:10:14.000Z</time>
</trkpt>
<trkpt lat="46.1713920" lon="10.4870300">
	<ele>2525.60</ele>
	<time>2023-08-09T09:10:15.000Z</time>
</trkpt>
<trkpt lat="46.1714010" lon="10.4870390">
	<ele>2525.80</ele>
	<time>2023-08-09T09:10:16.000Z</time>
</trkpt>
<trkpt lat="46.1714140" lon="10.4870600">
	<ele>2525.80</ele>
	<time>2023-08-09T09:10:17.000Z</time>
</trkpt>
<trkpt lat="46.1714200" lon="10.4870630">
	<ele>2526.00</ele>
	<time>2023-08-09T09:10:18.000Z</time>
</trkpt>
<trkpt lat="46.1714180" lon="10.4870590">
	<ele>2526.00</ele>
	<time>2023-08-09T09:10:19.000Z</time>
</trkpt>
<trkpt lat="46.1714170" lon="10.4870610">
	<ele>2526.00</ele>
	<time>2023-08-09T09:10:20.000Z</time>
</trkpt>
<trkpt lat="46.1714180" lon="10.4870560">
	<ele>2526.00</ele>
	<time>2023-08-09T09:10:21.000Z</time>
</trkpt>
<trkpt lat="46.1714180" lon="10.4870530">
	<ele>2526.00</ele>
	<time>2023-08-09T09:10:22.000Z</time>
</trkpt>
<trkpt lat="46.1714160" lon="10.4870430">
	<ele>2526.20</ele>
	<time>2023-08-09T09:10:23.000Z</time>
</trkpt>
<trkpt lat="46.1714140" lon="10.4870410">
	<ele>2526.40</ele>
	<time>2023-08-09T09:10:24.000Z</time>
</trkpt>
<trkpt lat="46.1714060" lon="10.4870400">
	<ele>2526.40</ele>
	<time>2023-08-09T09:10:25.000Z</time>
</trkpt>
<trkpt lat="46.1714030" lon="10.4870380">
	<ele>2526.40</ele>
	<time>2023-08-09T09:10:26.000Z</time>
</trkpt>
<trkpt lat="46.1714060" lon="10.4870300">
	<ele>2526.40</ele>
	<time>2023-08-09T09:10:27.000Z</time>
</trkpt>
<trkpt lat="46.1714120" lon="10.4870420">
	<ele>2526.40</ele>
	<time>2023-08-09T09:10:28.000Z</time>
</trkpt>
<trkpt lat="46.1714160" lon="10.4870430">
	<ele>2526.40</ele>
	<time>2023-08-09T09:10:29.000Z</time>
</trkpt>
<trkpt lat="46.1714180" lon="10.4870430">
	<ele>2526.40</ele>
	<time>2023-08-09T09:10:30.000Z</time>
</trkpt>
<trkpt lat="46.1714190" lon="10.4870450">
	<ele>2526.40</ele>
	<time>2023-08-09T09:10:31.000Z</time>
</trkpt>
<trkpt lat="46.1714200" lon="10.4870460">
	<ele>2526.40</ele>
	<time>2023-08-09T09:10:32.000Z</time>
</trkpt>
<trkpt lat="46.1714210" lon="10.4870480">
	<ele>2526.40</ele>
	<time>2023-08-09T09:10:33.000Z</time>
</trkpt>
<trkpt lat="46.1714210" lon="10.4870490">
	<ele>2526.40</ele>
	<time>2023-08-09T09:10:34.000Z</time>
</trkpt>
<trkpt lat="46.1714310" lon="10.4870600">
	<ele>2526.40</ele>
	<time>2023-08-09T09:10:35.000Z</time>
</trkpt>
<trkpt lat="46.1714350" lon="10.4870590">
	<ele>2526.40</ele>
	<time>2023-08-09T09:10:36.000Z</time>
</trkpt>
<trkpt lat="46.1714350" lon="10.4870500">
	<ele>2526.20</ele>
	<time>2023-08-09T09:10:37.000Z</time>
</trkpt>
<trkpt lat="46.1714330" lon="10.4870400">
	<ele>2526.00</ele>
	<time>2023-08-09T09:10:38.000Z</time>
</trkpt>
<trkpt lat="46.1714240" lon="10.4870250">
	<ele>2526.00</ele>
	<time>2023-08-09T09:10:39.000Z</time>
</trkpt>
<trkpt lat="46.1714250" lon="10.4870410">
	<ele>2525.80</ele>
	<time>2023-08-09T09:10:40.000Z</time>
</trkpt>
<trkpt lat="46.1714220" lon="10.4870320">
	<ele>2525.80</ele>
	<time>2023-08-09T09:10:41.000Z</time>
</trkpt>
<trkpt lat="46.1714200" lon="10.4870290">
	<ele>2526.00</ele>
	<time>2023-08-09T09:10:42.000Z</time>
</trkpt>
<trkpt lat="46.1714250" lon="10.4870350">
	<ele>2526.00</ele>
	<time>2023-08-09T09:10:43.000Z</time>
</trkpt>
<trkpt lat="46.1714240" lon="10.4870410">
	<ele>2526.00</ele>
	<time>2023-08-09T09:10:44.000Z</time>
</trkpt>
<trkpt lat="46.1714220" lon="10.4870440">
	<ele>2526.20</ele>
	<time>2023-08-09T09:10:45.000Z</time>
</trkpt>
<trkpt lat="46.1714210" lon="10.4870500">
	<ele>2526.20</ele>
	<time>2023-08-09T09:10:46.000Z</time>
</trkpt>
<trkpt lat="46.1714220" lon="10.4870550">
	<ele>2526.20</ele>
	<time>2023-08-09T09:10:47.000Z</time>
</trkpt>
<trkpt lat="46.1714220" lon="10.4870600">
	<ele>2526.40</ele>
	<time>2023-08-09T09:10:48.000Z</time>
</trkpt>
<trkpt lat="46.1714180" lon="10.4870650">
	<ele>2526.60</ele>
	<time>2023-08-09T09:10:49.000Z</time>
</trkpt>
<trkpt lat="46.1714130" lon="10.4870670">
	<ele>2527.00</ele>
	<time>2023-08-09T09:10:50.000Z</time>
</trkpt>
<trkpt lat="46.1714110" lon="10.4870710">
	<ele>2527.20</ele>
	<time>2023-08-09T09:10:51.000Z</time>
</trkpt>
<trkpt lat="46.1714100" lon="10.4870740">
	<ele>2527.60</ele>
	<time>2023-08-09T09:10:52.000Z</time>
</trkpt>
<trkpt lat="46.1714080" lon="10.4870780">
	<ele>2527.80</ele>
	<time>2023-08-09T09:10:53.000Z</time>
</trkpt>
<trkpt lat="46.1714070" lon="10.4870840">
	<ele>2527.80</ele>
	<time>2023-08-09T09:10:54.000Z</time>
</trkpt>
<trkpt lat="46.1714000" lon="10.4870720">
	<ele>2528.00</ele>
	<time>2023-08-09T09:10:55.000Z</time>
</trkpt>
<trkpt lat="46.1713890" lon="10.4870550">
	<ele>2528.00</ele>
	<time>2023-08-09T09:10:56.000Z</time>
</trkpt>
<trkpt lat="46.1713870" lon="10.4870410">
	<ele>2528.20</ele>
	<time>2023-08-09T09:10:57.000Z</time>
</trkpt>
<trkpt lat="46.1713830" lon="10.4870390">
	<ele>2528.40</ele>
	<time>2023-08-09T09:10:58.000Z</time>
</trkpt>
<trkpt lat="46.1713790" lon="10.4870380">
	<ele>2528.40</ele>
	<time>2023-08-09T09:10:59.000Z</time>
</trkpt>
<trkpt lat="46.1713770" lon="10.4870440">
	<ele>2528.40</ele>
	<time>2023-08-09T09:11:00.000Z</time>
</trkpt>
<trkpt lat="46.1713720" lon="10.4870390">
	<ele>2528.80</ele>
	<time>2023-08-09T09:11:01.000Z</time>
</trkpt>
<trkpt lat="46.1713740" lon="10.4870460">
	<ele>2528.80</ele>
	<time>2023-08-09T09:11:02.000Z</time>
</trkpt>
<trkpt lat="46.1713730" lon="10.4870450">
	<ele>2529.00</ele>
	<time>2023-08-09T09:11:03.000Z</time>
</trkpt>
<trkpt lat="46.1713770" lon="10.4870510">
	<ele>2529.00</ele>
	<time>2023-08-09T09:11:04.000Z</time>
</trkpt>
<trkpt lat="46.1713860" lon="10.4870680">
	<ele>2529.40</ele>
	<time>2023-08-09T09:11:05.000Z</time>
</trkpt>
<trkpt lat="46.1713900" lon="10.4870750">
	<ele>2529.60</ele>
	<time>2023-08-09T09:11:06.000Z</time>
</trkpt>
<trkpt lat="46.1713940" lon="10.4870820">
	<ele>2529.60</ele>
	<time>2023-08-09T09:11:07.000Z</time>
</trkpt>
<trkpt lat="46.1713950" lon="10.4870840">
	<ele>2529.80</ele>
	<time>2023-08-09T09:11:08.000Z</time>
</trkpt>
<trkpt lat="46.1713940" lon="10.4870870">
	<ele>2529.80</ele>
	<time>2023-08-09T09:11:09.000Z</time>
</trkpt>
<trkpt lat="46.1713990" lon="10.4871130">
	<ele>2529.80</ele>
	<time>2023-08-09T09:11:10.000Z</time>
</trkpt>
<trkpt lat="46.1714060" lon="10.4871390">
	<ele>2530.00</ele>
	<time>2023-08-09T09:11:11.000Z</time>
</trkpt>
<trkpt lat="46.1714050" lon="10.4871470">
	<ele>2530.20</ele>
	<time>2023-08-09T09:11:12.000Z</time>
</trkpt>
<trkpt lat="46.1713990" lon="10.4871480">
	<ele>2530.40</ele>
	<time>2023-08-09T09:11:13.000Z</time>
</trkpt>
<trkpt lat="46.1713960" lon="10.4871440">
	<ele>2530.60</ele>
	<time>2023-08-09T09:11:14.000Z</time>
</trkpt>
<trkpt lat="46.1713920" lon="10.4871430">
	<ele>2530.60</ele>
	<time>2023-08-09T09:11:15.000Z</time>
</trkpt>
<trkpt lat="46.1713880" lon="10.4871430">
	<ele>2530.60</ele>
	<time>2023-08-09T09:11:16.000Z</time>
</trkpt>
<trkpt lat="46.1713820" lon="10.4871350">
	<ele>2530.80</ele>
	<time>2023-08-09T09:11:17.000Z</time>
</trkpt>
<trkpt lat="46.1713790" lon="10.4871320">
	<ele>2530.80</ele>
	<time>2023-08-09T09:11:18.000Z</time>
</trkpt>
<trkpt lat="46.1713750" lon="10.4871360">
	<ele>2531.00</ele>
	<time>2023-08-09T09:11:19.000Z</time>
</trkpt>
<trkpt lat="46.1713750" lon="10.4871390">
	<ele>2531.20</ele>
	<time>2023-08-09T09:11:20.000Z</time>
</trkpt>
<trkpt lat="46.1713760" lon="10.4871410">
	<ele>2531.40</ele>
	<time>2023-08-09T09:11:21.000Z</time>
</trkpt>
<trkpt lat="46.1713800" lon="10.4871420">
	<ele>2531.60</ele>
	<time>2023-08-09T09:11:22.000Z</time>
</trkpt>
<trkpt lat="46.1713830" lon="10.4871420">
	<ele>2531.60</ele>
	<time>2023-08-09T09:11:23.000Z</time>
</trkpt>
<trkpt lat="46.1713870" lon="10.4871430">
	<ele>2531.80</ele>
	<time>2023-08-09T09:11:24.000Z</time>
</trkpt>
<trkpt lat="46.1713890" lon="10.4871430">
	<ele>2532.00</ele>
	<time>2023-08-09T09:11:25.000Z</time>
</trkpt>
<trkpt lat="46.1713930" lon="10.4871420">
	<ele>2532.20</ele>
	<time>2023-08-09T09:11:26.000Z</time>
</trkpt>
<trkpt lat="46.1713940" lon="10.4871470">
	<ele>2532.20</ele>
	<time>2023-08-09T09:11:27.000Z</time>
</trkpt>
<trkpt lat="46.1713980" lon="10.4871440">
	<ele>2532.40</ele>
	<time>2023-08-09T09:11:28.000Z</time>
</trkpt>
<trkpt lat="46.1714010" lon="10.4871500">
	<ele>2532.40</ele>
	<time>2023-08-09T09:11:29.000Z</time>
</trkpt>
<trkpt lat="46.1714050" lon="10.4871640">
	<ele>2532.40</ele>
	<time>2023-08-09T09:11:30.000Z</time>
</trkpt>
<trkpt lat="46.1714010" lon="10.4871670">
	<ele>2532.60</ele>
	<time>2023-08-09T09:11:31.000Z</time>
</trkpt>
<trkpt lat="46.1713930" lon="10.4871630">
	<ele>2532.80</ele>
	<time>2023-08-09T09:11:32.000Z</time>
</trkpt>
<trkpt lat="46.1713930" lon="10.4871720">
	<ele>2532.80</ele>
	<time>2023-08-09T09:11:33.000Z</time>
</trkpt>
<trkpt lat="46.1713910" lon="10.4871800">
	<ele>2533.00</ele>
	<time>2023-08-09T09:11:34.000Z</time>
</trkpt>
<trkpt lat="46.1713830" lon="10.4871650">
	<ele>2533.00</ele>
	<time>2023-08-09T09:11:35.000Z</time>
</trkpt>
<trkpt lat="46.1713780" lon="10.4871590">
	<ele>2533.20</ele>
	<time>2023-08-09T09:11:36.000Z</time>
</trkpt>
<trkpt lat="46.1713860" lon="10.4871760">
	<ele>2533.20</ele>
	<time>2023-08-09T09:11:37.000Z</time>
</trkpt>
<trkpt lat="46.1713830" lon="10.4871630">
	<ele>2533.40</ele>
	<time>2023-08-09T09:11:38.000Z</time>
</trkpt>
<trkpt lat="46.1713840" lon="10.4871630">
	<ele>2533.60</ele>
	<time>2023-08-09T09:11:39.000Z</time>
</trkpt>
<trkpt lat="46.1713840" lon="10.4871710">
	<ele>2533.60</ele>
	<time>2023-08-09T09:11:40.000Z</time>
</trkpt>
<trkpt lat="46.1713830" lon="10.4871650">
	<ele>2533.80</ele>
	<time>2023-08-09T09:11:41.000Z</time>
</trkpt>
<trkpt lat="46.1713800" lon="10.4871650">
	<ele>2534.00</ele>
	<time>2023-08-09T09:11:42.000Z</time>
</trkpt>
<trkpt lat="46.1713790" lon="10.4871660">
	<ele>2534.20</ele>
	<time>2023-08-09T09:11:43.000Z</time>
</trkpt>
<trkpt lat="46.1713760" lon="10.4871640">
	<ele>2534.20</ele>
	<time>2023-08-09T09:11:44.000Z</time>
</trkpt>
<trkpt lat="46.1713770" lon="10.4871620">
	<ele>2534.40</ele>
	<time>2023-08-09T09:11:45.000Z</time>
</trkpt>
<trkpt lat="46.1713780" lon="10.4871730">
	<ele>2534.40</ele>
	<time>2023-08-09T09:11:46.000Z</time>
</trkpt>
<trkpt lat="46.1713810" lon="10.4872010">
	<ele>2534.40</ele>
	<time>2023-08-09T09:11:47.000Z</time>
</trkpt>
<trkpt lat="46.1713900" lon="10.4872210">
	<ele>2534.60</ele>
	<time>2023-08-09T09:11:48.000Z</time>
</trkpt>
<trkpt lat="46.1713920" lon="10.4872260">
	<ele>2534.80</ele>
	<time>2023-08-09T09:11:49.000Z</time>
</trkpt>
<trkpt lat="46.1713920" lon="10.4872290">
	<ele>2534.80</ele>
	<time>2023-08-09T09:11:50.000Z</time>
</trkpt>
<trkpt lat="46.1713930" lon="10.4872340">
	<ele>2535.00</ele>
	<time>2023-08-09T09:11:51.000Z</time>
</trkpt>
<trkpt lat="46.1713930" lon="10.4872440">
	<ele>2535.00</ele>
	<time>2023-08-09T09:11:52.000Z</time>
</trkpt>
<trkpt lat="46.1713950" lon="10.4872460">
	<ele>2535.20</ele>
	<time>2023-08-09T09:11:53.000Z</time>
</trkpt>
<trkpt lat="46.1713990" lon="10.4872520">
	<ele>2535.20</ele>
	<time>2023-08-09T09:11:54.000Z</time>
</trkpt>
<trkpt lat="46.1713990" lon="10.4872510">
	<ele>2535.40</ele>
	<time>2023-08-09T09:11:55.000Z</time>
</trkpt>
<trkpt lat="46.1713980" lon="10.4872510">
	<ele>2535.60</ele>
	<time>2023-08-09T09:11:56.000Z</time>
</trkpt>
<trkpt lat="46.1713950" lon="10.4872430">
	<ele>2535.60</ele>
	<time>2023-08-09T09:11:57.000Z</time>
</trkpt>
<trkpt lat="46.1713960" lon="10.4872490">
	<ele>2535.80</ele>
	<time>2023-08-09T09:11:58.000Z</time>
</trkpt>
<trkpt lat="46.1714020" lon="10.4872520">
	<ele>2536.00</ele>
	<time>2023-08-09T09:11:59.000Z</time>
</trkpt>
<trkpt lat="46.1714030" lon="10.4872560">
	<ele>2536.00</ele>
	<time>2023-08-09T09:12:00.000Z</time>
</trkpt>
<trkpt lat="46.1714030" lon="10.4872640">
	<ele>2536.00</ele>
	<time>2023-08-09T09:12:01.000Z</time>
</trkpt>
<trkpt lat="46.1713980" lon="10.4872610">
	<ele>2536.20</ele>
	<time>2023-08-09T09:12:02.000Z</time>
</trkpt>
<trkpt lat="46.1713960" lon="10.4872600">
	<ele>2536.20</ele>
	<time>2023-08-09T09:12:03.000Z</time>
</trkpt>
<trkpt lat="46.1713930" lon="10.4872610">
	<ele>2536.40</ele>
	<time>2023-08-09T09:12:04.000Z</time>
</trkpt>
<trkpt lat="46.1713910" lon="10.4872690">
	<ele>2536.60</ele>
	<time>2023-08-09T09:12:05.000Z</time>
</trkpt>
<trkpt lat="46.1713850" lon="10.4872740">
	<ele>2536.80</ele>
	<time>2023-08-09T09:12:06.000Z</time>
</trkpt>
<trkpt lat="46.1713820" lon="10.4872790">
	<ele>2537.00</ele>
	<time>2023-08-09T09:12:07.000Z</time>
</trkpt>
<trkpt lat="46.1713820" lon="10.4872850">
	<ele>2537.20</ele>
	<time>2023-08-09T09:12:08.000Z</time>
</trkpt>
<trkpt lat="46.1713850" lon="10.4872830">
	<ele>2537.20</ele>
	<time>2023-08-09T09:12:09.000Z</time>
</trkpt>
<trkpt lat="46.1713870" lon="10.4872760">
	<ele>2537.40</ele>
	<time>2023-08-09T09:12:10.000Z</time>
</trkpt>
<trkpt lat="46.1713860" lon="10.4872770">
	<ele>2537.40</ele>
	<time>2023-08-09T09:12:11.000Z</time>
</trkpt>
<trkpt lat="46.1713810" lon="10.4872730">
	<ele>2537.60</ele>
	<time>2023-08-09T09:12:12.000Z</time>
</trkpt>
<trkpt lat="46.1713800" lon="10.4872770">
	<ele>2537.80</ele>
	<time>2023-08-09T09:12:13.000Z</time>
</trkpt>
<trkpt lat="46.1713770" lon="10.4872800">
	<ele>2538.00</ele>
	<time>2023-08-09T09:12:14.000Z</time>
</trkpt>
<trkpt lat="46.1713750" lon="10.4872810">
	<ele>2538.00</ele>
	<time>2023-08-09T09:12:15.000Z</time>
</trkpt>
<trkpt lat="46.1713730" lon="10.4872800">
	<ele>2538.20</ele>
	<time>2023-08-09T09:12:16.000Z</time>
</trkpt>
<trkpt lat="46.1713750" lon="10.4872820">
	<ele>2538.20</ele>
	<time>2023-08-09T09:12:17.000Z</time>
</trkpt>
<trkpt lat="46.1713770" lon="10.4872840">
	<ele>2538.40</ele>
	<time>2023-08-09T09:12:18.000Z</time>
</trkpt>
<trkpt lat="46.1713780" lon="10.4872840">
	<ele>2538.40</ele>
	<time>2023-08-09T09:12:19.000Z</time>
</trkpt>
<trkpt lat="46.1713760" lon="10.4872770">
	<ele>2538.60</ele>
	<time>2023-08-09T09:12:20.000Z</time>
</trkpt>
<trkpt lat="46.1713760" lon="10.4872740">
	<ele>2538.80</ele>
	<time>2023-08-09T09:12:21.000Z</time>
</trkpt>
<trkpt lat="46.1713700" lon="10.4872570">
	<ele>2539.00</ele>
	<time>2023-08-09T09:12:22.000Z</time>
</trkpt>
<trkpt lat="46.1713680" lon="10.4872410">
	<ele>2539.00</ele>
	<time>2023-08-09T09:12:23.000Z</time>
</trkpt>
<trkpt lat="46.1713650" lon="10.4872280">
	<ele>2539.20</ele>
	<time>2023-08-09T09:12:24.000Z</time>
</trkpt>
<trkpt lat="46.1713700" lon="10.4872320">
	<ele>2539.20</ele>
	<time>2023-08-09T09:12:25.000Z</time>
</trkpt>
<trkpt lat="46.1713710" lon="10.4872390">
	<ele>2539.20</ele>
	<time>2023-08-09T09:12:26.000Z</time>
</trkpt>
<trkpt lat="46.1713700" lon="10.4872410">
	<ele>2539.40</ele>
	<time>2023-08-09T09:12:27.000Z</time>
</trkpt>
<trkpt lat="46.1713630" lon="10.4872280">
	<ele>2539.60</ele>
	<time>2023-08-09T09:12:28.000Z</time>
</trkpt>
<trkpt lat="46.1713490" lon="10.4872040">
	<ele>2539.80</ele>
	<time>2023-08-09T09:12:29.000Z</time>
</trkpt>
<trkpt lat="46.1713340" lon="10.4871830">
	<ele>2540.00</ele>
	<time>2023-08-09T09:12:30.000Z</time>
</trkpt>
<trkpt lat="46.1713290" lon="10.4871880">
	<ele>2540.20</ele>
	<time>2023-08-09T09:12:31.000Z</time>
</trkpt>
<trkpt lat="46.1713310" lon="10.4871990">
	<ele>2540.20</ele>
	<time>2023-08-09T09:12:32.000Z</time>
</trkpt>
<trkpt lat="46.1713280" lon="10.4872000">
	<ele>2540.40</ele>
	<time>2023-08-09T09:12:33.000Z</time>
</trkpt>
<trkpt lat="46.1713290" lon="10.4872030">
	<ele>2540.60</ele>
	<time>2023-08-09T09:12:34.000Z</time>
</trkpt>
<trkpt lat="46.1713210" lon="10.4871970">
	<ele>2540.80</ele>
	<time>2023-08-09T09:12:35.000Z</time>
</trkpt>
<trkpt lat="46.1713180" lon="10.4871940">
	<ele>2540.80</ele>
	<time>2023-08-09T09:12:36.000Z</time>
</trkpt>
<trkpt lat="46.1713060" lon="10.4871960">
	<ele>2540.80</ele>
	<time>2023-08-09T09:12:37.000Z</time>
</trkpt>
<trkpt lat="46.1713040" lon="10.4871960">
	<ele>2541.00</ele>
	<time>2023-08-09T09:12:38.000Z</time>
</trkpt>
<trkpt lat="46.1713030" lon="10.4872040">
	<ele>2541.00</ele>
	<time>2023-08-09T09:12:39.000Z</time>
</trkpt>
<trkpt lat="46.1713100" lon="10.4872240">
	<ele>2541.00</ele>
	<time>2023-08-09T09:12:40.000Z</time>
</trkpt>
<trkpt lat="46.1713120" lon="10.4872260">
	<ele>2541.20</ele>
	<time>2023-08-09T09:12:41.000Z</time>
</trkpt>
<trkpt lat="46.1713130" lon="10.4872210">
	<ele>2541.20</ele>
	<time>2023-08-09T09:12:42.000Z</time>
</trkpt>
<trkpt lat="46.1713100" lon="10.4872160">
	<ele>2541.40</ele>
	<time>2023-08-09T09:12:43.000Z</time>
</trkpt>
<trkpt lat="46.1713090" lon="10.4872120">
	<ele>2541.80</ele>
	<time>2023-08-09T09:12:44.000Z</time>
</trkpt>
<trkpt lat="46.1713090" lon="10.4872090">
	<ele>2542.00</ele>
	<time>2023-08-09T09:12:45.000Z</time>
</trkpt>
<trkpt lat="46.1713130" lon="10.4872180">
	<ele>2542.20</ele>
	<time>2023-08-09T09:12:46.000Z</time>
</trkpt>
<trkpt lat="46.1713170" lon="10.4872370">
	<ele>2542.40</ele>
	<time>2023-08-09T09:12:47.000Z</time>
</trkpt>
<trkpt lat="46.1713170" lon="10.4872410">
	<ele>2542.40</ele>
	<time>2023-08-09T09:12:48.000Z</time>
</trkpt>
<trkpt lat="46.1713270" lon="10.4872710">
	<ele>2542.40</ele>
	<time>2023-08-09T09:12:49.000Z</time>
</trkpt>
<trkpt lat="46.1713270" lon="10.4872810">
	<ele>2542.40</ele>
	<time>2023-08-09T09:12:50.000Z</time>
</trkpt>
<trkpt lat="46.1713210" lon="10.4872830">
	<ele>2542.60</ele>
	<time>2023-08-09T09:12:51.000Z</time>
</trkpt>
<trkpt lat="46.1713140" lon="10.4872700">
	<ele>2542.80</ele>
	<time>2023-08-09T09:12:52.000Z</time>
</trkpt>
<trkpt lat="46.1713110" lon="10.4872600">
	<ele>2542.80</ele>
	<time>2023-08-09T09:12:53.000Z</time>
</trkpt>
<trkpt lat="46.1713170" lon="10.4872770">
	<ele>2543.00</ele>
	<time>2023-08-09T09:12:54.000Z</time>
</trkpt>
<trkpt lat="46.1713180" lon="10.4872870">
	<ele>2543.00</ele>
	<time>2023-08-09T09:12:55.000Z</time>
</trkpt>
<trkpt lat="46.1713180" lon="10.4872960">
	<ele>2543.00</ele>
	<time>2023-08-09T09:12:56.000Z</time>
</trkpt>
<trkpt lat="46.1713270" lon="10.4873210">
	<ele>2543.20</ele>
	<time>2023-08-09T09:12:57.000Z</time>
</trkpt>
<trkpt lat="46.1713380" lon="10.4873580">
	<ele>2543.40</ele>
	<time>2023-08-09T09:12:58.000Z</time>
</trkpt>
<trkpt lat="46.1713250" lon="10.4873710">
	<ele>2543.40</ele>
	<time>2023-08-09T09:12:59.000Z</time>
</trkpt>
<trkpt lat="46.1713230" lon="10.4873530">
	<ele>2543.60</ele>
	<time>2023-08-09T09:13:00.000Z</time>
</trkpt>
<trkpt lat="46.1713260" lon="10.4873550">
	<ele>2543.60</ele>
	<time>2023-08-09T09:13:01.000Z</time>
</trkpt>
<trkpt lat="46.1713310" lon="10.4873640">
	<ele>2543.60</ele>
	<time>2023-08-09T09:13:02.000Z</time>
</trkpt>
<trkpt lat="46.1713320" lon="10.4873680">
	<ele>2543.80</ele>
	<time>2023-08-09T09:13:03.000Z</time>
</trkpt>
<trkpt lat="46.1713340" lon="10.4873700">
	<ele>2543.80</ele>
	<time>2023-08-09T09:13:04.000Z</time>
</trkpt>
<trkpt lat="46.1713360" lon="10.4873760">
	<ele>2544.00</ele>
	<time>2023-08-09T09:13:05.000Z</time>
</trkpt>
<trkpt lat="46.1713360" lon="10.4873750">
	<ele>2544.00</ele>
	<time>2023-08-09T09:13:06.000Z</time>
</trkpt>
<trkpt lat="46.1713370" lon="10.4873740">
	<ele>2544.20</ele>
	<time>2023-08-09T09:13:07.000Z</time>
</trkpt>
<trkpt lat="46.1713380" lon="10.4873700">
	<ele>2544.40</ele>
	<time>2023-08-09T09:13:08.000Z</time>
</trkpt>
<trkpt lat="46.1713390" lon="10.4873690">
	<ele>2544.60</ele>
	<time>2023-08-09T09:13:09.000Z</time>
</trkpt>
<trkpt lat="46.1713440" lon="10.4873760">
	<ele>2544.60</ele>
	<time>2023-08-09T09:13:10.000Z</time>
</trkpt>
<trkpt lat="46.1713470" lon="10.4873780">
	<ele>2544.80</ele>
	<time>2023-08-09T09:13:11.000Z</time>
</trkpt>
<trkpt lat="46.1713490" lon="10.4873750">
	<ele>2544.80</ele>
	<time>2023-08-09T09:13:12.000Z</time>
</trkpt>
<trkpt lat="46.1713480" lon="10.4873760">
	<ele>2545.00</ele>
	<time>2023-08-09T09:13:13.000Z</time>
</trkpt>
<trkpt lat="46.1713430" lon="10.4873670">
	<ele>2545.00</ele>
	<time>2023-08-09T09:13:14.000Z</time>
</trkpt>
<trkpt lat="46.1713450" lon="10.4873810">
	<ele>2545.20</ele>
	<time>2023-08-09T09:13:15.000Z</time>
</trkpt>
<trkpt lat="46.1713430" lon="10.4873810">
	<ele>2545.40</ele>
	<time>2023-08-09T09:13:16.000Z</time>
</trkpt>
<trkpt lat="46.1713390" lon="10.4873790">
	<ele>2545.60</ele>
	<time>2023-08-09T09:13:17.000Z</time>
</trkpt>
<trkpt lat="46.1713360" lon="10.4873630">
	<ele>2545.60</ele>
	<time>2023-08-09T09:13:18.000Z</time>
</trkpt>
<trkpt lat="46.1713280" lon="10.4873430">
	<ele>2546.00</ele>
	<time>2023-08-09T09:13:19.000Z</time>
</trkpt>
<trkpt lat="46.1713270" lon="10.4873360">
	<ele>2546.00</ele>
	<time>2023-08-09T09:13:20.000Z</time>
</trkpt>
<trkpt lat="46.1713220" lon="10.4873250">
	<ele>2546.20</ele>
	<time>2023-08-09T09:13:21.000Z</time>
</trkpt>
<trkpt lat="46.1713010" lon="10.4872910">
	<ele>2546.20</ele>
	<time>2023-08-09T09:13:22.000Z</time>
</trkpt>
<trkpt lat="46.1712980" lon="10.4872930">
	<ele>2546.60</ele>
	<time>2023-08-09T09:13:23.000Z</time>
</trkpt>
<trkpt lat="46.1712950" lon="10.4872960">
	<ele>2546.80</ele>
	<time>2023-08-09T09:13:24.000Z</time>
</trkpt>
<trkpt lat="46.1712900" lon="10.4872720">
	<ele>2547.20</ele>
	<time>2023-08-09T09:13:25.000Z</time>
</trkpt>
<trkpt lat="46.1712850" lon="10.4872550">
	<ele>2547.20</ele>
	<time>2023-08-09T09:13:26.000Z</time>
</trkpt>
<trkpt lat="46.1712640" lon="10.4872120">
	<ele>2547.40</ele>
	<time>2023-08-09T09:13:27.000Z</time>
</trkpt>
<trkpt lat="46.1712570" lon="10.4872050">
	<ele>2547.60</ele>
	<time>2023-08-09T09:13:28.000Z</time>
</trkpt>
<trkpt lat="46.1712520" lon="10.4872010">
	<ele>2547.60</ele>
	<time>2023-08-09T09:13:29.000Z</time>
</trkpt>
<trkpt lat="46.1712530" lon="10.4872030">
	<ele>2547.80</ele>
	<time>2023-08-09T09:13:30.000Z</time>
</trkpt>
<trkpt lat="46.1712610" lon="10.4872190">
	<ele>2548.00</ele>
	<time>2023-08-09T09:13:31.000Z</time>
</trkpt>
<trkpt lat="46.1712660" lon="10.4872310">
	<ele>2548.00</ele>
	<time>2023-08-09T09:13:32.000Z</time>
</trkpt>
<trkpt lat="46.1712620" lon="10.4872490">
	<ele>2548.20</ele>
	<time>2023-08-09T09:13:33.000Z</time>
</trkpt>
<trkpt lat="46.1712590" lon="10.4872550">
	<ele>2548.20</ele>
	<time>2023-08-09T09:13:34.000Z</time>
</trkpt>
<trkpt lat="46.1712700" lon="10.4872920">
	<ele>2548.40</ele>
	<time>2023-08-09T09:13:35.000Z</time>
</trkpt>
<trkpt lat="46.1712740" lon="10.4873040">
	<ele>2548.60</ele>
	<time>2023-08-09T09:13:36.000Z</time>
</trkpt>
<trkpt lat="46.1712740" lon="10.4873050">
	<ele>2548.80</ele>
	<time>2023-08-09T09:13:37.000Z</time>
</trkpt>
<trkpt lat="46.1712750" lon="10.4873190">
	<ele>2548.80</ele>
	<time>2023-08-09T09:13:38.000Z</time>
</trkpt>
<trkpt lat="46.1712780" lon="10.4873360">
	<ele>2549.00</ele>
	<time>2023-08-09T09:13:39.000Z</time>
</trkpt>
<trkpt lat="46.1712710" lon="10.4873310">
	<ele>2549.00</ele>
	<time>2023-08-09T09:13:40.000Z</time>
</trkpt>
<trkpt lat="46.1712730" lon="10.4873320">
	<ele>2549.20</ele>
	<time>2023-08-09T09:13:41.000Z</time>
</trkpt>
<trkpt lat="46.1712730" lon="10.4873320">
	<ele>2549.40</ele>
	<time>2023-08-09T09:13:42.000Z</time>
</trkpt>
<trkpt lat="46.1712720" lon="10.4873330">
	<ele>2549.60</ele>
	<time>2023-08-09T09:13:43.000Z</time>
</trkpt>
<trkpt lat="46.1712810" lon="10.4873520">
	<ele>2549.80</ele>
	<time>2023-08-09T09:13:44.000Z</time>
</trkpt>
<trkpt lat="46.1712810" lon="10.4873580">
	<ele>2549.80</ele>
	<time>2023-08-09T09:13:45.000Z</time>
</trkpt>
<trkpt lat="46.1712900" lon="10.4873850">
	<ele>2550.00</ele>
	<time>2023-08-09T09:13:46.000Z</time>
</trkpt>
<trkpt lat="46.1712900" lon="10.4873890">
	<ele>2550.20</ele>
	<time>2023-08-09T09:13:47.000Z</time>
</trkpt>
<trkpt lat="46.1712920" lon="10.4873900">
	<ele>2550.40</ele>
	<time>2023-08-09T09:13:48.000Z</time>
</trkpt>
<trkpt lat="46.1712920" lon="10.4873900">
	<ele>2550.40</ele>
	<time>2023-08-09T09:13:49.000Z</time>
</trkpt>
<trkpt lat="46.1712930" lon="10.4873890">
	<ele>2550.60</ele>
	<time>2023-08-09T09:13:50.000Z</time>
</trkpt>
<trkpt lat="46.1713030" lon="10.4874060">
	<ele>2550.60</ele>
	<time>2023-08-09T09:13:51.000Z</time>
</trkpt>
<trkpt lat="46.1713230" lon="10.4874330">
	<ele>2550.80</ele>
	<time>2023-08-09T09:13:52.000Z</time>
</trkpt>
<trkpt lat="46.1713360" lon="10.4874560">
	<ele>2550.80</ele>
	<time>2023-08-09T09:13:53.000Z</time>
</trkpt>
<trkpt lat="46.1713330" lon="10.4874660">
	<ele>2550.80</ele>
	<time>2023-08-09T09:13:54.000Z</time>
</trkpt>
<trkpt lat="46.1713350" lon="10.4874780">
	<ele>2550.80</ele>
	<time>2023-08-09T09:13:55.000Z</time>
</trkpt>
<trkpt lat="46.1713340" lon="10.4874810">
	<ele>2551.00</ele>
	<time>2023-08-09T09:13:56.000Z</time>
</trkpt>
<trkpt lat="46.1713360" lon="10.4874880">
	<ele>2551.20</ele>
	<time>2023-08-09T09:13:57.000Z</time>
</trkpt>
<trkpt lat="46.1713350" lon="10.4874930">
	<ele>2551.40</ele>
	<time>2023-08-09T09:13:58.000Z</time>
</trkpt>
<trkpt lat="46.1713290" lon="10.4874920">
	<ele>2551.60</ele>
	<time>2023-08-09T09:13:59.000Z</time>
</trkpt>
<trkpt lat="46.1713270" lon="10.4874970">
	<ele>2551.80</ele>
	<time>2023-08-09T09:14:00.000Z</time>
</trkpt>
<trkpt lat="46.1713240" lon="10.4874990">
	<ele>2551.80</ele>
	<time>2023-08-09T09:14:01.000Z</time>
</trkpt>
<trkpt lat="46.1713300" lon="10.4875220">
	<ele>2552.00</ele>
	<time>2023-08-09T09:14:02.000Z</time>
</trkpt>
<trkpt lat="46.1713310" lon="10.4875320">
	<ele>2552.20</ele>
	<time>2023-08-09T09:14:03.000Z</time>
</trkpt>
<trkpt lat="46.1713280" lon="10.4875340">
	<ele>2552.20</ele>
	<time>2023-08-09T09:14:04.000Z</time>
</trkpt>
<trkpt lat="46.1713300" lon="10.4875400">
	<ele>2552.20</ele>
	<time>2023-08-09T09:14:05.000Z</time>
</trkpt>
<trkpt lat="46.1713320" lon="10.4875420">
	<ele>2552.20</ele>
	<time>2023-08-09T09:14:06.000Z</time>
</trkpt>
<trkpt lat="46.1713300" lon="10.4875390">
	<ele>2552.40</ele>
	<time>2023-08-09T09:14:07.000Z</time>
</trkpt>
<trkpt lat="46.1713290" lon="10.4875390">
	<ele>2552.40</ele>
	<time>2023-08-09T09:14:08.000Z</time>
</trkpt>
<trkpt lat="46.1713240" lon="10.4875500">
	<ele>2552.40</ele>
	<time>2023-08-09T09:14:09.000Z</time>
</trkpt>
<trkpt lat="46.1713160" lon="10.4875370">
	<ele>2552.40</ele>
	<time>2023-08-09T09:14:10.000Z</time>
</trkpt>
<trkpt lat="46.1713120" lon="10.4875350">
	<ele>2552.80</ele>
	<time>2023-08-09T09:14:11.000Z</time>
</trkpt>
<trkpt lat="46.1713070" lon="10.4875240">
	<ele>2553.00</ele>
	<time>2023-08-09T09:14:12.000Z</time>
</trkpt>
<trkpt lat="46.1713050" lon="10.4875230">
	<ele>2553.00</ele>
	<time>2023-08-09T09:14:13.000Z</time>
</trkpt>
<trkpt lat="46.1713040" lon="10.4875250">
	<ele>2553.20</ele>
	<time>2023-08-09T09:14:14.000Z</time>
</trkpt>
<trkpt lat="46.1713100" lon="10.4875500">
	<ele>2553.20</ele>
	<time>2023-08-09T09:14:15.000Z</time>
</trkpt>
<trkpt lat="46.1713200" lon="10.4875730">
	<ele>2553.40</ele>
	<time>2023-08-09T09:14:16.000Z</time>
</trkpt>
<trkpt lat="46.1713240" lon="10.4875830">
	<ele>2553.40</ele>
	<time>2023-08-09T09:14:17.000Z</time>
</trkpt>
<trkpt lat="46.1713190" lon="10.4875970">
	<ele>2553.60</ele>
	<time>2023-08-09T09:14:18.000Z</time>
</trkpt>
<trkpt lat="46.1713180" lon="10.4876010">
	<ele>2553.80</ele>
	<time>2023-08-09T09:14:19.000Z</time>
</trkpt>
<trkpt lat="46.1713200" lon="10.4876130">
	<ele>2553.80</ele>
	<time>2023-08-09T09:14:20.000Z</time>
</trkpt>
<trkpt lat="46.1713150" lon="10.4875960">
	<ele>2554.00</ele>
	<time>2023-08-09T09:14:21.000Z</time>
</trkpt>
<trkpt lat="46.1713150" lon="10.4875910">
	<ele>2554.00</ele>
	<time>2023-08-09T09:14:22.000Z</time>
</trkpt>
<trkpt lat="46.1713150" lon="10.4875920">
	<ele>2554.20</ele>
	<time>2023-08-09T09:14:23.000Z</time>
</trkpt>
<trkpt lat="46.1713160" lon="10.4875880">
	<ele>2554.20</ele>
	<time>2023-08-09T09:14:24.000Z</time>
</trkpt>
<trkpt lat="46.1713120" lon="10.4875840">
	<ele>2554.20</ele>
	<time>2023-08-09T09:14:25.000Z</time>
</trkpt>
<trkpt lat="46.1713070" lon="10.4875890">
	<ele>2554.40</ele>
	<time>2023-08-09T09:14:26.000Z</time>
</trkpt>
<trkpt lat="46.1712970" lon="10.4875640">
	<ele>2554.60</ele>
	<time>2023-08-09T09:14:27.000Z</time>
</trkpt>
<trkpt lat="46.1712930" lon="10.4875570">
	<ele>2554.60</ele>
	<time>2023-08-09T09:14:28.000Z</time>
</trkpt>
<trkpt lat="46.1712920" lon="10.4875470">
	<ele>2554.80</ele>
	<time>2023-08-09T09:14:29.000Z</time>
</trkpt>
<trkpt lat="46.1712930" lon="10.4875690">
	<ele>2555.00</ele>
	<time>2023-08-09T09:14:30.000Z</time>
</trkpt>
<trkpt lat="46.1712870" lon="10.4875550">
	<ele>2555.00</ele>
	<time>2023-08-09T09:14:31.000Z</time>
</trkpt>
<trkpt lat="46.1712970" lon="10.4875590">
	<ele>2555.20</ele>
	<time>2023-08-09T09:14:32.000Z</time>
</trkpt>
<trkpt lat="46.1713000" lon="10.4875580">
	<ele>2555.40</ele>
	<time>2023-08-09T09:14:33.000Z</time>
</trkpt>
<trkpt lat="46.1712970" lon="10.4875610">
	<ele>2555.40</ele>
	<time>2023-08-09T09:14:34.000Z</time>
</trkpt>
<trkpt lat="46.1712980" lon="10.4875660">
	<ele>2555.80</ele>
	<time>2023-08-09T09:14:35.000Z</time>
</trkpt>
<trkpt lat="46.1712990" lon="10.4875740">
	<ele>2555.80</ele>
	<time>2023-08-09T09:14:36.000Z</time>
</trkpt>
<trkpt lat="46.1712910" lon="10.4875680">
	<ele>2556.00</ele>
	<time>2023-08-09T09:14:37.000Z</time>
</trkpt>
<trkpt lat="46.1712850" lon="10.4875650">
	<ele>2556.20</ele>
	<time>2023-08-09T09:14:38.000Z</time>
</trkpt>
<trkpt lat="46.1712900" lon="10.4875760">
	<ele>2556.40</ele>
	<time>2023-08-09T09:14:39.000Z</time>
</trkpt>
<trkpt lat="46.1712970" lon="10.4875900">
	<ele>2556.60</ele>
	<time>2023-08-09T09:14:40.000Z</time>
</trkpt>
<trkpt lat="46.1713030" lon="10.4876050">
	<ele>2556.60</ele>
	<time>2023-08-09T09:14:41.000Z</time>
</trkpt>
<trkpt lat="46.1713070" lon="10.4876170">
	<ele>2556.80</ele>
	<time>2023-08-09T09:14:42.000Z</time>
</trkpt>
<trkpt lat="46.1713130" lon="10.4876380">
	<ele>2556.80</ele>
	<time>2023-08-09T09:14:43.000Z</time>
</trkpt>
<trkpt lat="46.1713180" lon="10.4876570">
	<ele>2557.00</ele>
	<time>2023-08-09T09:14:44.000Z</time>
</trkpt>
<trkpt lat="46.1713220" lon="10.4876680">
	<ele>2557.20</ele>
	<time>2023-08-09T09:14:45.000Z</time>
</trkpt>
<trkpt lat="46.1713270" lon="10.4876780">
	<ele>2557.20</ele>
	<time>2023-08-09T09:14:46.000Z</time>
</trkpt>
<trkpt lat="46.1713310" lon="10.4876860">
	<ele>2557.40</ele>
	<time>2023-08-09T09:14:47.000Z</time>
</trkpt>
<trkpt lat="46.1713400" lon="10.4877030">
	<ele>2557.40</ele>
	<time>2023-08-09T09:14:48.000Z</time>
</trkpt>
<trkpt lat="46.1713470" lon="10.4877180">
	<ele>2557.60</ele>
	<time>2023-08-09T09:14:49.000Z</time>
</trkpt>
<trkpt lat="46.1713520" lon="10.4877300">
	<ele>2557.80</ele>
	<time>2023-08-09T09:14:50.000Z</time>
</trkpt>
<trkpt lat="46.1713600" lon="10.4877450">
	<ele>2558.00</ele>
	<time>2023-08-09T09:14:51.000Z</time>
</trkpt>
<trkpt lat="46.1713650" lon="10.4877510">
	<ele>2558.20</ele>
	<time>2023-08-09T09:14:52.000Z</time>
</trkpt>
<trkpt lat="46.1713720" lon="10.4877650">
	<ele>2558.20</ele>
	<time>2023-08-09T09:14:53.000Z</time>
</trkpt>
<trkpt lat="46.1713610" lon="10.4877530">
	<ele>2558.20</ele>
	<time>2023-08-09T09:14:54.000Z</time>
</trkpt>
<trkpt lat="46.1713580" lon="10.4877560">
	<ele>2558.60</ele>
	<time>2023-08-09T09:14:55.000Z</time>
</trkpt>
<trkpt lat="46.1713550" lon="10.4877520">
	<ele>2558.80</ele>
	<time>2023-08-09T09:14:56.000Z</time>
</trkpt>
<trkpt lat="46.1713540" lon="10.4877520">
	<ele>2558.80</ele>
	<time>2023-08-09T09:14:57.000Z</time>
</trkpt>
<trkpt lat="46.1713510" lon="10.4877650">
	<ele>2559.00</ele>
	<time>2023-08-09T09:14:58.000Z</time>
</trkpt>
<trkpt lat="46.1713470" lon="10.4877710">
	<ele>2559.00</ele>
	<time>2023-08-09T09:14:59.000Z</time>
</trkpt>
<trkpt lat="46.1713460" lon="10.4877770">
	<ele>2559.20</ele>
	<time>2023-08-09T09:15:00.000Z</time>
</trkpt>
<trkpt lat="46.1713450" lon="10.4877830">
	<ele>2559.20</ele>
	<time>2023-08-09T09:15:01.000Z</time>
</trkpt>
<trkpt lat="46.1713430" lon="10.4877900">
	<ele>2559.40</ele>
	<time>2023-08-09T09:15:02.000Z</time>
</trkpt>
<trkpt lat="46.1713390" lon="10.4877920">
	<ele>2559.40</ele>
	<time>2023-08-09T09:15:03.000Z</time>
</trkpt>
<trkpt lat="46.1713250" lon="10.4877770">
	<ele>2559.60</ele>
	<time>2023-08-09T09:15:04.000Z</time>
</trkpt>
<trkpt lat="46.1712790" lon="10.4876680">
	<ele>2559.80</ele>
	<time>2023-08-09T09:15:05.000Z</time>
</trkpt>
<trkpt lat="46.1712420" lon="10.4875850">
	<ele>2560.00</ele>
	<time>2023-08-09T09:15:06.000Z</time>
</trkpt>
<trkpt lat="46.1712110" lon="10.4875160">
	<ele>2560.20</ele>
	<time>2023-08-09T09:15:07.000Z</time>
</trkpt>
<trkpt lat="46.1711950" lon="10.4874700">
	<ele>2560.40</ele>
	<time>2023-08-09T09:15:08.000Z</time>
</trkpt>
<trkpt lat="46.1711820" lon="10.4874410">
	<ele>2560.60</ele>
	<time>2023-08-09T09:15:09.000Z</time>
</trkpt>
<trkpt lat="46.1711820" lon="10.4874600">
	<ele>2560.60</ele>
	<time>2023-08-09T09:15:10.000Z</time>
</trkpt>
<trkpt lat="46.1711830" lon="10.4874740">
	<ele>2560.60</ele>
	<time>2023-08-09T09:15:11.000Z</time>
</trkpt>
<trkpt lat="46.1711890" lon="10.4874890">
	<ele>2560.80</ele>
	<time>2023-08-09T09:15:12.000Z</time>
</trkpt>
<trkpt lat="46.1711920" lon="10.4874950">
	<ele>2560.80</ele>
	<time>2023-08-09T09:15:13.000Z</time>
</trkpt>
<trkpt lat="46.1711970" lon="10.4875030">
	<ele>2561.00</ele>
	<time>2023-08-09T09:15:14.000Z</time>
</trkpt>
<trkpt lat="46.1711970" lon="10.4875070">
	<ele>2561.00</ele>
	<time>2023-08-09T09:15:15.000Z</time>
</trkpt>
<trkpt lat="46.1711970" lon="10.4875100">
	<ele>2561.00</ele>
	<time>2023-08-09T09:15:16.000Z</time>
</trkpt>
<trkpt lat="46.1712040" lon="10.4875190">
	<ele>2561.20</ele>
	<time>2023-08-09T09:15:17.000Z</time>
</trkpt>
<trkpt lat="46.1712080" lon="10.4875260">
	<ele>2561.20</ele>
	<time>2023-08-09T09:15:18.000Z</time>
</trkpt>
<trkpt lat="46.1712110" lon="10.4875310">
	<ele>2561.40</ele>
	<time>2023-08-09T09:15:19.000Z</time>
</trkpt>
<trkpt lat="46.1712130" lon="10.4875330">
	<ele>2561.60</ele>
	<time>2023-08-09T09:15:20.000Z</time>
</trkpt>
<trkpt lat="46.1712100" lon="10.4875280">
	<ele>2561.80</ele>
	<time>2023-08-09T09:15:21.000Z</time>
</trkpt>
<trkpt lat="46.1712100" lon="10.4875250">
	<ele>2562.00</ele>
	<time>2023-08-09T09:15:22.000Z</time>
</trkpt>
<trkpt lat="46.1712100" lon="10.4875230">
	<ele>2562.00</ele>
	<time>2023-08-09T09:15:23.000Z</time>
</trkpt>
<trkpt lat="46.1712090" lon="10.4875220">
	<ele>2562.20</ele>
	<time>2023-08-09T09:15:24.000Z</time>
</trkpt>
<trkpt lat="46.1712160" lon="10.4875340">
	<ele>2562.20</ele>
	<time>2023-08-09T09:15:25.000Z</time>
</trkpt>
<trkpt lat="46.1712260" lon="10.4875500">
	<ele>2562.40</ele>
	<time>2023-08-09T09:15:26.000Z</time>
</trkpt>
<trkpt lat="46.1712350" lon="10.4875620">
	<ele>2562.40</ele>
	<time>2023-08-09T09:15:27.000Z</time>
</trkpt>
<trkpt lat="46.1712520" lon="10.4875690">
	<ele>2563.00</ele>
	<time>2023-08-09T09:15:28.000Z</time>
</trkpt>
<trkpt lat="46.1712630" lon="10.4875740">
	<ele>2563.20</ele>
	<time>2023-08-09T09:15:29.000Z</time>
</trkpt>
<trkpt lat="46.1712650" lon="10.4875780">
	<ele>2563.40</ele>
	<time>2023-08-09T09:15:30.000Z</time>
</trkpt>
<trkpt lat="46.1712670" lon="10.4875800">
	<ele>2563.40</ele>
	<time>2023-08-09T09:15:31.000Z</time>
</trkpt>
<trkpt lat="46.1712630" lon="10.4875780">
	<ele>2563.60</ele>
	<time>2023-08-09T09:15:32.000Z</time>
</trkpt>
<trkpt lat="46.1712630" lon="10.4875790">
	<ele>2563.60</ele>
	<time>2023-08-09T09:15:33.000Z</time>
</trkpt>
<trkpt lat="46.1712640" lon="10.4875840">
	<ele>2563.80</ele>
	<time>2023-08-09T09:15:34.000Z</time>
</trkpt>
<trkpt lat="46.1712600" lon="10.4875860">
	<ele>2563.80</ele>
	<time>2023-08-09T09:15:35.000Z</time>
</trkpt>
<trkpt lat="46.1712560" lon="10.4875920">
	<ele>2564.00</ele>
	<time>2023-08-09T09:15:36.000Z</time>
</trkpt>
<trkpt lat="46.1712480" lon="10.4875940">
	<ele>2564.20</ele>
	<time>2023-08-09T09:15:37.000Z</time>
</trkpt>
<trkpt lat="46.1712440" lon="10.4875970">
	<ele>2564.20</ele>
	<time>2023-08-09T09:15:38.000Z</time>
</trkpt>
<trkpt lat="46.1712410" lon="10.4876000">
	<ele>2564.20</ele>
	<time>2023-08-09T09:15:39.000Z</time>
</trkpt>
<trkpt lat="46.1712340" lon="10.4876000">
	<ele>2564.40</ele>
	<time>2023-08-09T09:15:40.000Z</time>
</trkpt>
<trkpt lat="46.1712250" lon="10.4876010">
	<ele>2564.40</ele>
	<time>2023-08-09T09:15:41.000Z</time>
</trkpt>
<trkpt lat="46.1712220" lon="10.4876070">
	<ele>2564.60</ele>
	<time>2023-08-09T09:15:42.000Z</time>
</trkpt>
<trkpt lat="46.1712230" lon="10.4876030">
	<ele>2564.60</ele>
	<time>2023-08-09T09:15:43.000Z</time>
</trkpt>
<trkpt lat="46.1712200" lon="10.4876010">
	<ele>2564.60</ele>
	<time>2023-08-09T09:15:44.000Z</time>
</trkpt>
<trkpt lat="46.1712160" lon="10.4876010">
	<ele>2564.80</ele>
	<time>2023-08-09T09:15:45.000Z</time>
</trkpt>
<trkpt lat="46.1712120" lon="10.4876030">
	<ele>2564.80</ele>
	<time>2023-08-09T09:15:46.000Z</time>
</trkpt>
<trkpt lat="46.1712130" lon="10.4876070">
	<ele>2565.00</ele>
	<time>2023-08-09T09:15:47.000Z</time>
</trkpt>
<trkpt lat="46.1712200" lon="10.4876130">
	<ele>2565.20</ele>
	<time>2023-08-09T09:15:48.000Z</time>
</trkpt>
<trkpt lat="46.1712340" lon="10.4876240">
	<ele>2565.20</ele>
	<time>2023-08-09T09:15:49.000Z</time>
</trkpt>
<trkpt lat="46.1712410" lon="10.4876300">
	<ele>2565.40</ele>
	<time>2023-08-09T09:15:50.000Z</time>
</trkpt>
<trkpt lat="46.1712380" lon="10.4876190">
	<ele>2565.60</ele>
	<time>2023-08-09T09:15:51.000Z</time>
</trkpt>
<trkpt lat="46.1712290" lon="10.4876070">
	<ele>2565.60</ele>
	<time>2023-08-09T09:15:52.000Z</time>
</trkpt>
<trkpt lat="46.1712250" lon="10.4876090">
	<ele>2565.80</ele>
	<time>2023-08-09T09:15:53.000Z</time>
</trkpt>
<trkpt lat="46.1712300" lon="10.4876190">
	<ele>2566.00</ele>
	<time>2023-08-09T09:15:54.000Z</time>
</trkpt>
<trkpt lat="46.1712320" lon="10.4876250">
	<ele>2566.20</ele>
	<time>2023-08-09T09:15:55.000Z</time>
</trkpt>
<trkpt lat="46.1712320" lon="10.4876260">
	<ele>2566.40</ele>
	<time>2023-08-09T09:15:56.000Z</time>
</trkpt>
<trkpt lat="46.1712350" lon="10.4876290">
	<ele>2566.60</ele>
	<time>2023-08-09T09:15:57.000Z</time>
</trkpt>
<trkpt lat="46.1712330" lon="10.4876340">
	<ele>2566.60</ele>
	<time>2023-08-09T09:15:58.000Z</time>
</trkpt>
<trkpt lat="46.1712360" lon="10.4876430">
	<ele>2566.80</ele>
	<time>2023-08-09T09:15:59.000Z</time>
</trkpt>
<trkpt lat="46.1712320" lon="10.4876490">
	<ele>2567.00</ele>
	<time>2023-08-09T09:16:00.000Z</time>
</trkpt>
<trkpt lat="46.1712390" lon="10.4876570">
	<ele>2567.20</ele>
	<time>2023-08-09T09:16:01.000Z</time>
</trkpt>
<trkpt lat="46.1712390" lon="10.4876580">
	<ele>2567.20</ele>
	<time>2023-08-09T09:16:02.000Z</time>
</trkpt>
<trkpt lat="46.1712390" lon="10.4876580">
	<ele>2567.40</ele>
	<time>2023-08-09T09:16:03.000Z</time>
</trkpt>
<trkpt lat="46.1712390" lon="10.4876580">
	<ele>2567.60</ele>
	<time>2023-08-09T09:16:04.000Z</time>
</trkpt>
<trkpt lat="46.1712390" lon="10.4876580">
	<ele>2567.80</ele>
	<time>2023-08-09T09:16:05.000Z</time>
</trkpt>
<trkpt lat="46.1712390" lon="10.4876580">
	<ele>2567.80</ele>
	<time>2023-08-09T09:16:06.000Z</time>
</trkpt>
<trkpt lat="46.1712390" lon="10.4876580">
	<ele>2568.20</ele>
	<time>2023-08-09T09:16:07.000Z</time>
</trkpt>
<trkpt lat="46.1712390" lon="10.4876580">
	<ele>2568.20</ele>
	<time>2023-08-09T09:16:08.000Z</time>
</trkpt>
<trkpt lat="46.1712390" lon="10.4876580">
	<ele>2568.40</ele>
	<time>2023-08-09T09:16:09.000Z</time>
</trkpt>
<trkpt lat="46.1712390" lon="10.4876580">
	<ele>2568.40</ele>
	<time>2023-08-09T09:16:10.000Z</time>
</trkpt>
<trkpt lat="46.1712390" lon="10.4876580">
	<ele>2568.60</ele>
	<time>2023-08-09T09:16:11.000Z</time>
</trkpt>
<trkpt lat="46.1712390" lon="10.4876580">
	<ele>2568.80</ele>
	<time>2023-08-09T09:16:12.000Z</time>
</trkpt>
<trkpt lat="46.1712390" lon="10.4876580">
	<ele>2569.00</ele>
	<time>2023-08-09T09:16:13.000Z</time>
</trkpt>
<trkpt lat="46.1712380" lon="10.4876620">
	<ele>2569.00</ele>
	<time>2023-08-09T09:16:14.000Z</time>
</trkpt>
<trkpt lat="46.1712350" lon="10.4876710">
	<ele>2569.20</ele>
	<time>2023-08-09T09:16:15.000Z</time>
</trkpt>
<trkpt lat="46.1712320" lon="10.4876790">
	<ele>2569.40</ele>
	<time>2023-08-09T09:16:16.000Z</time>
</trkpt>
<trkpt lat="46.1712290" lon="10.4876850">
	<ele>2569.60</ele>
	<time>2023-08-09T09:16:17.000Z</time>
</trkpt>
<trkpt lat="46.1712250" lon="10.4876880">
	<ele>2569.60</ele>
	<time>2023-08-09T09:16:18.000Z</time>
</trkpt>
<trkpt lat="46.1712240" lon="10.4876950">
	<ele>2569.80</ele>
	<time>2023-08-09T09:16:19.000Z</time>
</trkpt>
<trkpt lat="46.1712220" lon="10.4877030">
	<ele>2569.80</ele>
	<time>2023-08-09T09:16:20.000Z</time>
</trkpt>
<trkpt lat="46.1712180" lon="10.4877070">
	<ele>2570.00</ele>
	<time>2023-08-09T09:16:21.000Z</time>
</trkpt>
<trkpt lat="46.1712080" lon="10.4876990">
	<ele>2570.00</ele>
	<time>2023-08-09T09:16:22.000Z</time>
</trkpt>
<trkpt lat="46.1712040" lon="10.4877040">
	<ele>2570.00</ele>
	<time>2023-08-09T09:16:23.000Z</time>
</trkpt>
<trkpt lat="46.1712040" lon="10.4877070">
	<ele>2570.20</ele>
	<time>2023-08-09T09:16:24.000Z</time>
</trkpt>
<trkpt lat="46.1712060" lon="10.4877140">
	<ele>2570.60</ele>
	<time>2023-08-09T09:16:25.000Z</time>
</trkpt>
<trkpt lat="46.1712030" lon="10.4877160">
	<ele>2570.80</ele>
	<time>2023-08-09T09:16:26.000Z</time>
</trkpt>
<trkpt lat="46.1711990" lon="10.4877150">
	<ele>2571.00</ele>
	<time>2023-08-09T09:16:27.000Z</time>
</trkpt>
<trkpt lat="46.1711970" lon="10.4877200">
	<ele>2571.00</ele>
	<time>2023-08-09T09:16:28.000Z</time>
</trkpt>
<trkpt lat="46.1711940" lon="10.4877220">
	<ele>2571.00</ele>
	<time>2023-08-09T09:16:29.000Z</time>
</trkpt>
<trkpt lat="46.1711920" lon="10.4877210">
	<ele>2571.20</ele>
	<time>2023-08-09T09:16:30.000Z</time>
</trkpt>
<trkpt lat="46.1711940" lon="10.4877230">
	<ele>2571.40</ele>
	<time>2023-08-09T09:16:31.000Z</time>
</trkpt>
<trkpt lat="46.1711950" lon="10.4877240">
	<ele>2571.60</ele>
	<time>2023-08-09T09:16:32.000Z</time>
</trkpt>
<trkpt lat="46.1711940" lon="10.4877280">
	<ele>2571.60</ele>
	<time>2023-08-09T09:16:33.000Z</time>
</trkpt>
<trkpt lat="46.1711930" lon="10.4877310">
	<ele>2571.80</ele>
	<time>2023-08-09T09:16:34.000Z</time>
</trkpt>
<trkpt lat="46.1711930" lon="10.4877330">
	<ele>2572.00</ele>
	<time>2023-08-09T09:16:35.000Z</time>
</trkpt>
<trkpt lat="46.1711910" lon="10.4877330">
	<ele>2572.20</ele>
	<time>2023-08-09T09:16:36.000Z</time>
</trkpt>
<trkpt lat="46.1711870" lon="10.4877320">
	<ele>2572.40</ele>
	<time>2023-08-09T09:16:37.000Z</time>
</trkpt>
<trkpt lat="46.1711870" lon="10.4877310">
	<ele>2572.60</ele>
	<time>2023-08-09T09:16:38.000Z</time>
</trkpt>
<trkpt lat="46.1711840" lon="10.4877330">
	<ele>2572.80</ele>
	<time>2023-08-09T09:16:39.000Z</time>
</trkpt>
<trkpt lat="46.1711830" lon="10.4877350">
	<ele>2573.00</ele>
	<time>2023-08-09T09:16:40.000Z</time>
</trkpt>
<trkpt lat="46.1711820" lon="10.4877360">
	<ele>2573.20</ele>
	<time>2023-08-09T09:16:41.000Z</time>
</trkpt>
<trkpt lat="46.1711840" lon="10.4877380">
	<ele>2573.40</ele>
	<time>2023-08-09T09:16:42.000Z</time>
</trkpt>
<trkpt lat="46.1711860" lon="10.4877410">
	<ele>2573.40</ele>
	<time>2023-08-09T09:16:43.000Z</time>
</trkpt>
<trkpt lat="46.1711880" lon="10.4877420">
	<ele>2573.40</ele>
	<time>2023-08-09T09:16:44.000Z</time>
</trkpt>
<trkpt lat="46.1711870" lon="10.4877420">
	<ele>2573.40</ele>
	<time>2023-08-09T09:16:45.000Z</time>
</trkpt>
<trkpt lat="46.1711840" lon="10.4877410">
	<ele>2573.40</ele>
	<time>2023-08-09T09:16:46.000Z</time>
</trkpt>
<trkpt lat="46.1711830" lon="10.4877420">
	<ele>2573.40</ele>
	<time>2023-08-09T09:16:47.000Z</time>
</trkpt>
<trkpt lat="46.1711840" lon="10.4877450">
	<ele>2573.40</ele>
	<time>2023-08-09T09:16:48.000Z</time>
</trkpt>
<trkpt lat="46.1711920" lon="10.4877540">
	<ele>2573.40</ele>
	<time>2023-08-09T09:16:49.000Z</time>
</trkpt>
<trkpt lat="46.1711920" lon="10.4877570">
	<ele>2573.60</ele>
	<time>2023-08-09T09:16:50.000Z</time>
</trkpt>
<trkpt lat="46.1711920" lon="10.4877600">
	<ele>2574.20</ele>
	<time>2023-08-09T09:16:51.000Z</time>
</trkpt>
<trkpt lat="46.1711920" lon="10.4877610">
	<ele>2574.60</ele>
	<time>2023-08-09T09:16:52.000Z</time>
</trkpt>
<trkpt lat="46.1711920" lon="10.4877630">
	<ele>2574.80</ele>
	<time>2023-08-09T09:16:53.000Z</time>
</trkpt>
<trkpt lat="46.1711940" lon="10.4877640">
	<ele>2575.00</ele>
	<time>2023-08-09T09:16:54.000Z</time>
</trkpt>
<trkpt lat="46.1711950" lon="10.4877680">
	<ele>2575.20</ele>
	<time>2023-08-09T09:16:55.000Z</time>
</trkpt>
<trkpt lat="46.1711960" lon="10.4877710">
	<ele>2575.40</ele>
	<time>2023-08-09T09:16:56.000Z</time>
</trkpt>
<trkpt lat="46.1712020" lon="10.4877740">
	<ele>2575.40</ele>
	<time>2023-08-09T09:16:57.000Z</time>
</trkpt>
<trkpt lat="46.1712060" lon="10.4877780">
	<ele>2575.40</ele>
	<time>2023-08-09T09:16:58.000Z</time>
</trkpt>
<trkpt lat="46.1712050" lon="10.4877820">
	<ele>2575.40</ele>
	<time>2023-08-09T09:16:59.000Z</time>
</trkpt>
<trkpt lat="46.1712060" lon="10.4877850">
	<ele>2575.60</ele>
	<time>2023-08-09T09:17:00.000Z</time>
</trkpt>
<trkpt lat="46.1712070" lon="10.4877890">
	<ele>2575.80</ele>
	<time>2023-08-09T09:17:01.000Z</time>
</trkpt>
<trkpt lat="46.1711970" lon="10.4877860">
	<ele>2576.00</ele>
	<time>2023-08-09T09:17:02.000Z</time>
</trkpt>
<trkpt lat="46.1711910" lon="10.4877860">
	<ele>2576.20</ele>
	<time>2023-08-09T09:17:03.000Z</time>
</trkpt>
<trkpt lat="46.1711880" lon="10.4877860">
	<ele>2576.20</ele>
	<time>2023-08-09T09:17:04.000Z</time>
</trkpt>
<trkpt lat="46.1711840" lon="10.4877850">
	<ele>2576.40</ele>
	<time>2023-08-09T09:17:05.000Z</time>
</trkpt>
<trkpt lat="46.1711770" lon="10.4877850">
	<ele>2576.40</ele>
	<time>2023-08-09T09:17:06.000Z</time>
</trkpt>
<trkpt lat="46.1711750" lon="10.4877860">
	<ele>2576.60</ele>
	<time>2023-08-09T09:17:07.000Z</time>
</trkpt>
<trkpt lat="46.1711730" lon="10.4877870">
	<ele>2577.00</ele>
	<time>2023-08-09T09:17:08.000Z</time>
</trkpt>
<trkpt lat="46.1711710" lon="10.4877840">
	<ele>2577.20</ele>
	<time>2023-08-09T09:17:09.000Z</time>
</trkpt>
<trkpt lat="46.1711680" lon="10.4877850">
	<ele>2577.20</ele>
	<time>2023-08-09T09:17:10.000Z</time>
</trkpt>
<trkpt lat="46.1711670" lon="10.4877890">
	<ele>2577.40</ele>
	<time>2023-08-09T09:17:11.000Z</time>
</trkpt>
<trkpt lat="46.1711670" lon="10.4877930">
	<ele>2577.80</ele>
	<time>2023-08-09T09:17:12.000Z</time>
</trkpt>
<trkpt lat="46.1711700" lon="10.4877960">
	<ele>2578.00</ele>
	<time>2023-08-09T09:17:13.000Z</time>
</trkpt>
<trkpt lat="46.1711720" lon="10.4878000">
	<ele>2578.00</ele>
	<time>2023-08-09T09:17:14.000Z</time>
</trkpt>
<trkpt lat="46.1711730" lon="10.4878030">
	<ele>2578.00</ele>
	<time>2023-08-09T09:17:15.000Z</time>
</trkpt>
<trkpt lat="46.1711740" lon="10.4878080">
	<ele>2578.00</ele>
	<time>2023-08-09T09:17:16.000Z</time>
</trkpt>
<trkpt lat="46.1711760" lon="10.4878110">
	<ele>2577.80</ele>
	<time>2023-08-09T09:17:17.000Z</time>
</trkpt>
<trkpt lat="46.1711790" lon="10.4878110">
	<ele>2577.80</ele>
	<time>2023-08-09T09:17:18.000Z</time>
</trkpt>
<trkpt lat="46.1711760" lon="10.4878080">
	<ele>2577.80</ele>
	<time>2023-08-09T09:17:19.000Z</time>
</trkpt>
<trkpt lat="46.1711740" lon="10.4878070">
	<ele>2577.80</ele>
	<time>2023-08-09T09:17:20.000Z</time>
</trkpt>
<trkpt lat="46.1711720" lon="10.4878070">
	<ele>2577.80</ele>
	<time>2023-08-09T09:17:21.000Z</time>
</trkpt>
<trkpt lat="46.1711720" lon="10.4878080">
	<ele>2577.80</ele>
	<time>2023-08-09T09:17:22.000Z</time>
</trkpt>
<trkpt lat="46.1711700" lon="10.4878080">
	<ele>2578.00</ele>
	<time>2023-08-09T09:17:23.000Z</time>
</trkpt>
<trkpt lat="46.1711710" lon="10.4878080">
	<ele>2578.00</ele>
	<time>2023-08-09T09:17:24.000Z</time>
</trkpt>
<trkpt lat="46.1711710" lon="10.4878080">
	<ele>2578.20</ele>
	<time>2023-08-09T09:17:25.000Z</time>
</trkpt>
<trkpt lat="46.1711710" lon="10.4878080">
	<ele>2578.20</ele>
	<time>2023-08-09T09:17:26.000Z</time>
</trkpt>
<trkpt lat="46.1711710" lon="10.4878080">
	<ele>2578.40</ele>
	<time>2023-08-09T09:17:27.000Z</time>
</trkpt>
<trkpt lat="46.1711710" lon="10.4878080">
	<ele>2578.40</ele>
	<time>2023-08-09T09:17:28.000Z</time>
</trkpt>
<trkpt lat="46.1711710" lon="10.4878080">
	<ele>2578.40</ele>
	<time>2023-08-09T09:17:29.000Z</time>
</trkpt>
<trkpt lat="46.1711710" lon="10.4878080">
	<ele>2578.40</ele>
	<time>2023-08-09T09:17:30.000Z</time>
</trkpt>
<trkpt lat="46.1711710" lon="10.4878080">
	<ele>2578.40</ele>
	<time>2023-08-09T09:17:31.000Z</time>
</trkpt>
<trkpt lat="46.1711710" lon="10.4878080">
	<ele>2578.40</ele>
	<time>2023-08-09T09:17:32.000Z</time>
</trkpt>
<trkpt lat="46.1711710" lon="10.4878080">
	<ele>2578.40</ele>
	<time>2023-08-09T09:17:33.000Z</time>
</trkpt>
<trkpt lat="46.1711710" lon="10.4878080">
	<ele>2578.40</ele>
	<time>2023-08-09T09:17:34.000Z</time>
</trkpt>
<trkpt lat="46.1711710" lon="10.4878080">
	<ele>2578.40</ele>
	<time>2023-08-09T09:17:35.000Z</time>
</trkpt>
<trkpt lat="46.1711710" lon="10.4878080">
	<ele>2578.40</ele>
	<time>2023-08-09T09:17:36.000Z</time>
</trkpt>
<trkpt lat="46.1711710" lon="10.4878080">
	<ele>2578.40</ele>
	<time>2023-08-09T09:17:37.000Z</time>
</trkpt>
<trkpt lat="46.1711710" lon="10.4878080">
	<ele>2578.40</ele>
	<time>2023-08-09T09:17:38.000Z</time>
</trkpt>
<trkpt lat="46.1711710" lon="10.4878080">
	<ele>2578.40</ele>
	<time>2023-08-09T09:17:39.000Z</time>
</trkpt>
<trkpt lat="46.1711710" lon="10.4878080">
	<ele>2578.40</ele>
	<time>2023-08-09T09:17:40.000Z</time>
</trkpt>
<trkpt lat="46.1711700" lon="10.4878080">
	<ele>2578.40</ele>
	<time>2023-08-09T09:17:41.000Z</time>
</trkpt>
<trkpt lat="46.1711700" lon="10.4878080">
	<ele>2578.20</ele>
	<time>2023-08-09T09:17:42.000Z</time>
</trkpt>
<trkpt lat="46.1711690" lon="10.4878080">
	<ele>2578.40</ele>
	<time>2023-08-09T09:17:43.000Z</time>
</trkpt>
<trkpt lat="46.1711670" lon="10.4878080">
	<ele>2578.40</ele>
	<time>2023-08-09T09:17:44.000Z</time>
</trkpt>
<trkpt lat="46.1711620" lon="10.4878080">
	<ele>2578.40</ele>
	<time>2023-08-09T09:17:45.000Z</time>
</trkpt>
<trkpt lat="46.1711610" lon="10.4878080">
	<ele>2578.40</ele>
	<time>2023-08-09T09:17:46.000Z</time>
</trkpt>
<trkpt lat="46.1711610" lon="10.4878080">
	<ele>2578.40</ele>
	<time>2023-08-09T09:17:47.000Z</time>
</trkpt>
<trkpt lat="46.1711520" lon="10.4878070">
	<ele>2578.40</ele>
	<time>2023-08-09T09:17:48.000Z</time>
</trkpt>
<trkpt lat="46.1711500" lon="10.4878060">
	<ele>2578.60</ele>
	<time>2023-08-09T09:17:49.000Z</time>
</trkpt>
<trkpt lat="46.1711450" lon="10.4878040">
	<ele>2578.80</ele>
	<time>2023-08-09T09:17:50.000Z</time>
</trkpt>
<trkpt lat="46.1711440" lon="10.4878030">
	<ele>2578.80</ele>
	<time>2023-08-09T09:17:51.000Z</time>
</trkpt>
<trkpt lat="46.1711430" lon="10.4878020">
	<ele>2578.80</ele>
	<time>2023-08-09T09:17:52.000Z</time>
</trkpt>
<trkpt lat="46.1711420" lon="10.4878020">
	<ele>2578.80</ele>
	<time>2023-08-09T09:17:53.000Z</time>
</trkpt>
<trkpt lat="46.1711400" lon="10.4878020">
	<ele>2578.80</ele>
	<time>2023-08-09T09:17:54.000Z</time>
</trkpt>
<trkpt lat="46.1711400" lon="10.4878000">
	<ele>2578.80</ele>
	<time>2023-08-09T09:17:55.000Z</time>
</trkpt>
<trkpt lat="46.1711390" lon="10.4877990">
	<ele>2578.60</ele>
	<time>2023-08-09T09:17:56.000Z</time>
</trkpt>
<trkpt lat="46.1711390" lon="10.4877980">
	<ele>2578.60</ele>
	<time>2023-08-09T09:17:57.000Z</time>
</trkpt>
<trkpt lat="46.1711390" lon="10.4877980">
	<ele>2578.40</ele>
	<time>2023-08-09T09:17:58.000Z</time>
</trkpt>
<trkpt lat="46.1711380" lon="10.4877980">
	<ele>2578.40</ele>
	<time>2023-08-09T09:17:59.000Z</time>
</trkpt>
<trkpt lat="46.1711380" lon="10.4877970">
	<ele>2578.40</ele>
	<time>2023-08-09T09:18:00.000Z</time>
</trkpt>
<trkpt lat="46.1711370" lon="10.4877960">
	<ele>2578.40</ele>
	<time>2023-08-09T09:18:01.000Z</time>
</trkpt>
<trkpt lat="46.1711370" lon="10.4877950">
	<ele>2578.20</ele>
	<time>2023-08-09T09:18:02.000Z</time>
</trkpt>
<trkpt lat="46.1711370" lon="10.4877950">
	<ele>2578.20</ele>
	<time>2023-08-09T09:18:03.000Z</time>
</trkpt>
<trkpt lat="46.1711370" lon="10.4877920">
	<ele>2578.20</ele>
	<time>2023-08-09T09:18:04.000Z</time>
</trkpt>
<trkpt lat="46.1711360" lon="10.4877910">
	<ele>2578.20</ele>
	<time>2023-08-09T09:18:05.000Z</time>
</trkpt>
<trkpt lat="46.1711350" lon="10.4877910">
	<ele>2578.20</ele>
	<time>2023-08-09T09:18:06.000Z</time>
</trkpt>
<trkpt lat="46.1711340" lon="10.4877910">
	<ele>2578.20</ele>
	<time>2023-08-09T09:18:07.000Z</time>
</trkpt>
<trkpt lat="46.1711340" lon="10.4877910">
	<ele>2578.20</ele>
	<time>2023-08-09T09:18:08.000Z</time>
</trkpt>
<trkpt lat="46.1711320" lon="10.4877910">
	<ele>2578.20</ele>
	<time>2023-08-09T09:18:09.000Z</time>
</trkpt>
<trkpt lat="46.1711300" lon="10.4877910">
	<ele>2578.40</ele>
	<time>2023-08-09T09:18:10.000Z</time>
</trkpt>
<trkpt lat="46.1711290" lon="10.4877900">
	<ele>2578.40</ele>
	<time>2023-08-09T09:18:11.000Z</time>
</trkpt>
<trkpt lat="46.1711270" lon="10.4877880">
	<ele>2578.40</ele>
	<time>2023-08-09T09:18:12.000Z</time>
</trkpt>
<trkpt lat="46.1711260" lon="10.4877870">
	<ele>2578.40</ele>
	<time>2023-08-09T09:18:13.000Z</time>
</trkpt>
<trkpt lat="46.1711250" lon="10.4877860">
	<ele>2578.40</ele>
	<time>2023-08-09T09:18:14.000Z</time>
</trkpt>
<trkpt lat="46.1711240" lon="10.4877850">
	<ele>2578.40</ele>
	<time>2023-08-09T09:18:15.000Z</time>
</trkpt>
<trkpt lat="46.1711230" lon="10.4877850">
	<ele>2578.40</ele>
	<time>2023-08-09T09:18:16.000Z</time>
</trkpt>
<trkpt lat="46.1711220" lon="10.4877840">
	<ele>2578.40</ele>
	<time>2023-08-09T09:18:17.000Z</time>
</trkpt>
<trkpt lat="46.1711210" lon="10.4877830">
	<ele>2578.40</ele>
	<time>2023-08-09T09:18:18.000Z</time>
</trkpt>
<trkpt lat="46.1711210" lon="10.4877830">
	<ele>2578.40</ele>
	<time>2023-08-09T09:18:19.000Z</time>
</trkpt>
<trkpt lat="46.1711200" lon="10.4877820">
	<ele>2578.40</ele>
	<time>2023-08-09T09:18:20.000Z</time>
</trkpt>
<trkpt lat="46.1711190" lon="10.4877820">
	<ele>2578.20</ele>
	<time>2023-08-09T09:18:21.000Z</time>
</trkpt>
<trkpt lat="46.1711180" lon="10.4877820">
	<ele>2578.20</ele>
	<time>2023-08-09T09:18:22.000Z</time>
</trkpt>
<trkpt lat="46.1711180" lon="10.4877820">
	<ele>2578.20</ele>
	<time>2023-08-09T09:18:23.000Z</time>
</trkpt>
<trkpt lat="46.1711160" lon="10.4877820">
	<ele>2578.20</ele>
	<time>2023-08-09T09:18:24.000Z</time>
</trkpt>
<trkpt lat="46.1711150" lon="10.4877820">
	<ele>2578.40</ele>
	<time>2023-08-09T09:18:25.000Z</time>
</trkpt>
<trkpt lat="46.1711140" lon="10.4877820">
	<ele>2578.40</ele>
	<time>2023-08-09T09:18:26.000Z</time>
</trkpt>
<trkpt lat="46.1711130" lon="10.4877810">
	<ele>2578.40</ele>
	<time>2023-08-09T09:18:27.000Z</time>
</trkpt>
<trkpt lat="46.1711120" lon="10.4877810">
	<ele>2578.40</ele>
	<time>2023-08-09T09:18:28.000Z</time>
</trkpt>
<trkpt lat="46.1711120" lon="10.4877810">
	<ele>2578.60</ele>
	<time>2023-08-09T09:18:29.000Z</time>
</trkpt>
<trkpt lat="46.1711110" lon="10.4877810">
	<ele>2578.60</ele>
	<time>2023-08-09T09:18:30.000Z</time>
</trkpt>
<trkpt lat="46.1711100" lon="10.4877810">
	<ele>2578.60</ele>
	<time>2023-08-09T09:18:31.000Z</time>
</trkpt>
<trkpt lat="46.1711100" lon="10.4877810">
	<ele>2578.80</ele>
	<time>2023-08-09T09:18:32.000Z</time>
</trkpt>
<trkpt lat="46.1711100" lon="10.4877810">
	<ele>2578.80</ele>
	<time>2023-08-09T09:18:33.000Z</time>
</trkpt>
<trkpt lat="46.1711090" lon="10.4877810">
	<ele>2578.80</ele>
	<time>2023-08-09T09:18:34.000Z</time>
</trkpt>
<trkpt lat="46.1711090" lon="10.4877800">
	<ele>2579.00</ele>
	<time>2023-08-09T09:18:35.000Z</time>
</trkpt>
<trkpt lat="46.1711090" lon="10.4877800">
	<ele>2579.00</ele>
	<time>2023-08-09T09:18:36.000Z</time>
</trkpt>
<trkpt lat="46.1711090" lon="10.4877800">
	<ele>2579.20</ele>
	<time>2023-08-09T09:18:37.000Z</time>
</trkpt>
<trkpt lat="46.1711090" lon="10.4877800">
	<ele>2579.20</ele>
	<time>2023-08-09T09:18:38.000Z</time>
</trkpt>
<trkpt lat="46.1711090" lon="10.4877800">
	<ele>2579.20</ele>
	<time>2023-08-09T09:18:39.000Z</time>
</trkpt>
<trkpt lat="46.1711080" lon="10.4877790">
	<ele>2579.20</ele>
	<time>2023-08-09T09:18:40.000Z</time>
</trkpt>
<trkpt lat="46.1711080" lon="10.4877780">
	<ele>2579.20</ele>
	<time>2023-08-09T09:18:41.000Z</time>
</trkpt>
<trkpt lat="46.1711080" lon="10.4877760">
	<ele>2579.20</ele>
	<time>2023-08-09T09:18:42.000Z</time>
</trkpt>
<trkpt lat="46.1711080" lon="10.4877740">
	<ele>2579.20</ele>
	<time>2023-08-09T09:18:43.000Z</time>
</trkpt>
<trkpt lat="46.1711080" lon="10.4877740">
	<ele>2579.20</ele>
	<time>2023-08-09T09:18:44.000Z</time>
</trkpt>
<trkpt lat="46.1711070" lon="10.4877740">
	<ele>2579.20</ele>
	<time>2023-08-09T09:18:45.000Z</time>
</trkpt>
<trkpt lat="46.1711060" lon="10.4877730">
	<ele>2579.00</ele>
	<time>2023-08-09T09:18:46.000Z</time>
</trkpt>
<trkpt lat="46.1711060" lon="10.4877730">
	<ele>2579.00</ele>
	<time>2023-08-09T09:18:47.000Z</time>
</trkpt>
<trkpt lat="46.1711050" lon="10.4877720">
	<ele>2579.00</ele>
	<time>2023-08-09T09:18:48.000Z</time>
</trkpt>
<trkpt lat="46.1711050" lon="10.4877720">
	<ele>2579.00</ele>
	<time>2023-08-09T09:18:49.000Z</time>
</trkpt>
<trkpt lat="46.1711040" lon="10.4877720">
	<ele>2579.00</ele>
	<time>2023-08-09T09:18:50.000Z</time>
</trkpt>
<trkpt lat="46.1711040" lon="10.4877720">
	<ele>2579.00</ele>
	<time>2023-08-09T09:18:51.000Z</time>
</trkpt>
<trkpt lat="46.1711040" lon="10.4877710">
	<ele>2579.00</ele>
	<time>2023-08-09T09:18:52.000Z</time>
</trkpt>
<trkpt lat="46.1711040" lon="10.4877710">
	<ele>2579.00</ele>
	<time>2023-08-09T09:18:53.000Z</time>
</trkpt>
<trkpt lat="46.1711040" lon="10.4877710">
	<ele>2579.00</ele>
	<time>2023-08-09T09:18:54.000Z</time>
</trkpt>
<trkpt lat="46.1711040" lon="10.4877700">
	<ele>2579.00</ele>
	<time>2023-08-09T09:18:55.000Z</time>
</trkpt>
<trkpt lat="46.1711040" lon="10.4877700">
	<ele>2579.00</ele>
	<time>2023-08-09T09:18:56.000Z</time>
</trkpt>
<trkpt lat="46.1711040" lon="10.4877700">
	<ele>2579.00</ele>
	<time>2023-08-09T09:18:57.000Z</time>
</trkpt>
<trkpt lat="46.1711040" lon="10.4877690">
	<ele>2579.00</ele>
	<time>2023-08-09T09:18:58.000Z</time>
</trkpt>
<trkpt lat="46.1711040" lon="10.4877680">
	<ele>2579.00</ele>
	<time>2023-08-09T09:18:59.000Z</time>
</trkpt>
<trkpt lat="46.1711040" lon="10.4877680">
	<ele>2579.00</ele>
	<time>2023-08-09T09:19:00.000Z</time>
</trkpt>
<trkpt lat="46.1711040" lon="10.4877680">
	<ele>2579.00</ele>
	<time>2023-08-09T09:19:01.000Z</time>
</trkpt>
<trkpt lat="46.1711040" lon="10.4877670">
	<ele>2579.00</ele>
	<time>2023-08-09T09:19:02.000Z</time>
</trkpt>
<trkpt lat="46.1711040" lon="10.4877670">
	<ele>2579.00</ele>
	<time>2023-08-09T09:19:03.000Z</time>
</trkpt>
<trkpt lat="46.1711040" lon="10.4877660">
	<ele>2579.00</ele>
	<time>2023-08-09T09:19:04.000Z</time>
</trkpt>
<trkpt lat="46.1711040" lon="10.4877650">
	<ele>2579.00</ele>
	<time>2023-08-09T09:19:05.000Z</time>
</trkpt>
<trkpt lat="46.1711040" lon="10.4877640">
	<ele>2579.00</ele>
	<time>2023-08-09T09:19:06.000Z</time>
</trkpt>
<trkpt lat="46.1711050" lon="10.4877630">
	<ele>2579.00</ele>
	<time>2023-08-09T09:19:07.000Z</time>
</trkpt>
<trkpt lat="46.1711050" lon="10.4877620">
	<ele>2579.00</ele>
	<time>2023-08-09T09:19:08.000Z</time>
</trkpt>
<trkpt lat="46.1711050" lon="10.4877610">
	<ele>2579.00</ele>
	<time>2023-08-09T09:19:09.000Z</time>
</trkpt>
<trkpt lat="46.1711060" lon="10.4877610">
	<ele>2579.00</ele>
	<time>2023-08-09T09:19:10.000Z</time>
</trkpt>
<trkpt lat="46.1711080" lon="10.4877610">
	<ele>2579.00</ele>
	<time>2023-08-09T09:19:11.000Z</time>
</trkpt>
<trkpt lat="46.1711090" lon="10.4877600">
	<ele>2579.00</ele>
	<time>2023-08-09T09:19:12.000Z</time>
</trkpt>
<trkpt lat="46.1711110" lon="10.4877600">
	<ele>2579.00</ele>
	<time>2023-08-09T09:19:13.000Z</time>
</trkpt>
<trkpt lat="46.1711120" lon="10.4877600">
	<ele>2579.00</ele>
	<time>2023-08-09T09:19:14.000Z</time>
</trkpt>
<trkpt lat="46.1711130" lon="10.4877600">
	<ele>2579.00</ele>
	<time>2023-08-09T09:19:15.000Z</time>
</trkpt>
<trkpt lat="46.1711140" lon="10.4877600">
	<ele>2579.00</ele>
	<time>2023-08-09T09:19:16.000Z</time>
</trkpt>
<trkpt lat="46.1711150" lon="10.4877600">
	<ele>2579.00</ele>
	<time>2023-08-09T09:19:17.000Z</time>
</trkpt>
<trkpt lat="46.1711160" lon="10.4877600">
	<ele>2579.00</ele>
	<time>2023-08-09T09:19:18.000Z</time>
</trkpt>
<trkpt lat="46.1711160" lon="10.4877600">
	<ele>2579.00</ele>
	<time>2023-08-09T09:19:19.000Z</time>
</trkpt>
<trkpt lat="46.1711170" lon="10.4877590">
	<ele>2579.00</ele>
	<time>2023-08-09T09:19:20.000Z</time>
</trkpt>
<trkpt lat="46.1711180" lon="10.4877590">
	<ele>2579.00</ele>
	<time>2023-08-09T09:19:21.000Z</time>
</trkpt>
<trkpt lat="46.1711190" lon="10.4877580">
	<ele>2579.00</ele>
	<time>2023-08-09T09:19:22.000Z</time>
</trkpt>
<trkpt lat="46.1711200" lon="10.4877580">
	<ele>2579.00</ele>
	<time>2023-08-09T09:19:23.000Z</time>
</trkpt>
<trkpt lat="46.1711220" lon="10.4877580">
	<ele>2579.00</ele>
	<time>2023-08-09T09:19:24.000Z</time>
</trkpt>
<trkpt lat="46.1711230" lon="10.4877580">
	<ele>2579.00</ele>
	<time>2023-08-09T09:19:25.000Z</time>
</trkpt>
<trkpt lat="46.1711240" lon="10.4877580">
	<ele>2579.00</ele>
	<time>2023-08-09T09:19:26.000Z</time>
</trkpt>
<trkpt lat="46.1711240" lon="10.4877580">
	<ele>2579.00</ele>
	<time>2023-08-09T09:19:27.000Z</time>
</trkpt>
<trkpt lat="46.1711250" lon="10.4877590">
	<ele>2579.00</ele>
	<time>2023-08-09T09:19:28.000Z</time>
</trkpt>
<trkpt lat="46.1711260" lon="10.4877590">
	<ele>2579.00</ele>
	<time>2023-08-09T09:19:29.000Z</time>
</trkpt>
<trkpt lat="46.1711260" lon="10.4877600">
	<ele>2579.00</ele>
	<time>2023-08-09T09:19:30.000Z</time>
</trkpt>
<trkpt lat="46.1711260" lon="10.4877600">
	<ele>2579.00</ele>
	<time>2023-08-09T09:19:31.000Z</time>
</trkpt>
<trkpt lat="46.1711260" lon="10.4877600">
	<ele>2579.00</ele>
	<time>2023-08-09T09:19:32.000Z</time>
</trkpt>
<trkpt lat="46.1711260" lon="10.4877610">
	<ele>2579.00</ele>
	<time>2023-08-09T09:19:33.000Z</time>
</trkpt>
<trkpt lat="46.1711260" lon="10.4877620">
	<ele>2579.00</ele>
	<time>2023-08-09T09:19:34.000Z</time>
</trkpt>
<trkpt lat="46.1711260" lon="10.4877620">
	<ele>2579.00</ele>
	<time>2023-08-09T09:19:35.000Z</time>
</trkpt>
<trkpt lat="46.1711260" lon="10.4877630">
	<ele>2579.00</ele>
	<time>2023-08-09T09:19:36.000Z</time>
</trkpt>
<trkpt lat="46.1711260" lon="10.4877630">
	<ele>2579.00</ele>
	<time>2023-08-09T09:19:37.000Z</time>
</trkpt>
<trkpt lat="46.1711260" lon="10.4877630">
	<ele>2579.00</ele>
	<time>2023-08-09T09:19:38.000Z</time>
</trkpt>
<trkpt lat="46.1711260" lon="10.4877630">
	<ele>2579.00</ele>
	<time>2023-08-09T09:19:39.000Z</time>
</trkpt>
<trkpt lat="46.1711260" lon="10.4877630">
	<ele>2579.00</ele>
	<time>2023-08-09T09:19:40.000Z</time>
</trkpt>
<trkpt lat="46.1711260" lon="10.4877630">
	<ele>2579.00</ele>
	<time>2023-08-09T09:19:41.000Z</time>
</trkpt>
<trkpt lat="46.1711260" lon="10.4877630">
	<ele>2579.00</ele>
	<time>2023-08-09T09:19:42.000Z</time>
</trkpt>
<trkpt lat="46.1711250" lon="10.4877630">
	<ele>2579.00</ele>
	<time>2023-08-09T09:19:43.000Z</time>
</trkpt>
<trkpt lat="46.1711250" lon="10.4877630">
	<ele>2579.00</ele>
	<time>2023-08-09T09:19:44.000Z</time>
</trkpt>
<trkpt lat="46.1711250" lon="10.4877630">
	<ele>2579.00</ele>
	<time>2023-08-09T09:19:45.000Z</time>
</trkpt>
<trkpt lat="46.1711250" lon="10.4877640">
	<ele>2579.00</ele>
	<time>2023-08-09T09:19:46.000Z</time>
</trkpt>
<trkpt lat="46.1711240" lon="10.4877640">
	<ele>2579.00</ele>
	<time>2023-08-09T09:19:47.000Z</time>
</trkpt>
<trkpt lat="46.1711240" lon="10.4877650">
	<ele>2579.00</ele>
	<time>2023-08-09T09:19:48.000Z</time>
</trkpt>
<trkpt lat="46.1711240" lon="10.4877660">
	<ele>2579.00</ele>
	<time>2023-08-09T09:19:49.000Z</time>
</trkpt>
<trkpt lat="46.1711240" lon="10.4877670">
	<ele>2579.00</ele>
	<time>2023-08-09T09:19:50.000Z</time>
</trkpt>
<trkpt lat="46.1711240" lon="10.4877670">
	<ele>2579.00</ele>
	<time>2023-08-09T09:19:51.000Z</time>
</trkpt>
<trkpt lat="46.1711240" lon="10.4877680">
	<ele>2579.00</ele>
	<time>2023-08-09T09:19:52.000Z</time>
</trkpt>
<trkpt lat="46.1711240" lon="10.4877680">
	<ele>2579.00</ele>
	<time>2023-08-09T09:19:53.000Z</time>
</trkpt>
<trkpt lat="46.1711240" lon="10.4877690">
	<ele>2579.00</ele>
	<time>2023-08-09T09:19:54.000Z</time>
</trkpt>
<trkpt lat="46.1711240" lon="10.4877690">
	<ele>2579.00</ele>
	<time>2023-08-09T09:19:55.000Z</time>
</trkpt>
<trkpt lat="46.1711240" lon="10.4877700">
	<ele>2579.00</ele>
	<time>2023-08-09T09:19:56.000Z</time>
</trkpt>
<trkpt lat="46.1711240" lon="10.4877700">
	<ele>2579.00</ele>
	<time>2023-08-09T09:19:57.000Z</time>
</trkpt>
<trkpt lat="46.1711240" lon="10.4877710">
	<ele>2579.00</ele>
	<time>2023-08-09T09:19:58.000Z</time>
</trkpt>
<trkpt lat="46.1711260" lon="10.4877720">
	<ele>2579.00</ele>
	<time>2023-08-09T09:19:59.000Z</time>
</trkpt>
<trkpt lat="46.1711270" lon="10.4877740">
	<ele>2579.00</ele>
	<time>2023-08-09T09:20:00.000Z</time>
</trkpt>
<trkpt lat="46.1711280" lon="10.4877760">
	<ele>2579.00</ele>
	<time>2023-08-09T09:20:01.000Z</time>
</trkpt>
<trkpt lat="46.1711290" lon="10.4877770">
	<ele>2579.00</ele>
	<time>2023-08-09T09:20:02.000Z</time>
</trkpt>
<trkpt lat="46.1711300" lon="10.4877780">
	<ele>2579.00</ele>
	<time>2023-08-09T09:20:03.000Z</time>
</trkpt>
<trkpt lat="46.1711310" lon="10.4877790">
	<ele>2579.00</ele>
	<time>2023-08-09T09:20:04.000Z</time>
</trkpt>
<trkpt lat="46.1711310" lon="10.4877800">
	<ele>2579.00</ele>
	<time>2023-08-09T09:20:05.000Z</time>
</trkpt>
<trkpt lat="46.1711310" lon="10.4877810">
	<ele>2579.00</ele>
	<time>2023-08-09T09:20:06.000Z</time>
</trkpt>
<trkpt lat="46.1711320" lon="10.4877810">
	<ele>2579.00</ele>
	<time>2023-08-09T09:20:07.000Z</time>
</trkpt>
<trkpt lat="46.1711320" lon="10.4877820">
	<ele>2579.00</ele>
	<time>2023-08-09T09:20:08.000Z</time>
</trkpt>
<trkpt lat="46.1711320" lon="10.4877820">
	<ele>2579.00</ele>
	<time>2023-08-09T09:20:09.000Z</time>
</trkpt>
<trkpt lat="46.1711330" lon="10.4877820">
	<ele>2579.00</ele>
	<time>2023-08-09T09:20:10.000Z</time>
</trkpt>
<trkpt lat="46.1711330" lon="10.4877830">
	<ele>2579.00</ele>
	<time>2023-08-09T09:20:11.000Z</time>
</trkpt>
<trkpt lat="46.1711330" lon="10.4877830">
	<ele>2579.00</ele>
	<time>2023-08-09T09:20:12.000Z</time>
</trkpt>
<trkpt lat="46.1711330" lon="10.4877830">
	<ele>2579.00</ele>
	<time>2023-08-09T09:20:13.000Z</time>
</trkpt>
<trkpt lat="46.1711330" lon="10.4877830">
	<ele>2579.00</ele>
	<time>2023-08-09T09:20:14.000Z</time>
</trkpt>
<trkpt lat="46.1711330" lon="10.4877830">
	<ele>2579.00</ele>
	<time>2023-08-09T09:20:15.000Z</time>
</trkpt>
<trkpt lat="46.1711330" lon="10.4877840">
	<ele>2579.00</ele>
	<time>2023-08-09T09:20:16.000Z</time>
</trkpt>
<trkpt lat="46.1711330" lon="10.4877840">
	<ele>2579.00</ele>
	<time>2023-08-09T09:20:17.000Z</time>
</trkpt>
<trkpt lat="46.1711330" lon="10.4877850">
	<ele>2579.00</ele>
	<time>2023-08-09T09:20:18.000Z</time>
</trkpt>
<trkpt lat="46.1711320" lon="10.4877860">
	<ele>2579.00</ele>
	<time>2023-08-09T09:20:19.000Z</time>
</trkpt>
<trkpt lat="46.1711320" lon="10.4877870">
	<ele>2579.00</ele>
	<time>2023-08-09T09:20:20.000Z</time>
</trkpt>
<trkpt lat="46.1711320" lon="10.4877880">
	<ele>2579.00</ele>
	<time>2023-08-09T09:20:21.000Z</time>
</trkpt>
<trkpt lat="46.1711310" lon="10.4877880">
	<ele>2579.00</ele>
	<time>2023-08-09T09:20:22.000Z</time>
</trkpt>
<trkpt lat="46.1711310" lon="10.4877890">
	<ele>2579.00</ele>
	<time>2023-08-09T09:20:23.000Z</time>
</trkpt>
<trkpt lat="46.1711310" lon="10.4877900">
	<ele>2579.00</ele>
	<time>2023-08-09T09:20:24.000Z</time>
</trkpt>
<trkpt lat="46.1711310" lon="10.4877900">
	<ele>2579.00</ele>
	<time>2023-08-09T09:20:25.000Z</time>
</trkpt>
<trkpt lat="46.1711310" lon="10.4877910">
	<ele>2579.00</ele>
	<time>2023-08-09T09:20:26.000Z</time>
</trkpt>
<trkpt lat="46.1711310" lon="10.4877920">
	<ele>2579.00</ele>
	<time>2023-08-09T09:20:27.000Z</time>
</trkpt>
<trkpt lat="46.1711310" lon="10.4877920">
	<ele>2579.00</ele>
	<time>2023-08-09T09:20:28.000Z</time>
</trkpt>
<trkpt lat="46.1711310" lon="10.4877930">
	<ele>2579.00</ele>
	<time>2023-08-09T09:20:29.000Z</time>
</trkpt>
<trkpt lat="46.1711300" lon="10.4877930">
	<ele>2579.00</ele>
	<time>2023-08-09T09:20:30.000Z</time>
</trkpt>
<trkpt lat="46.1711300" lon="10.4877930">
	<ele>2579.00</ele>
	<time>2023-08-09T09:20:31.000Z</time>
</trkpt>
<trkpt lat="46.1711310" lon="10.4877940">
	<ele>2579.00</ele>
	<time>2023-08-09T09:20:32.000Z</time>
</trkpt>
<trkpt lat="46.1711310" lon="10.4877940">
	<ele>2579.00</ele>
	<time>2023-08-09T09:20:33.000Z</time>
</trkpt>
<trkpt lat="46.1711310" lon="10.4877940">
	<ele>2579.00</ele>
	<time>2023-08-09T09:20:34.000Z</time>
</trkpt>
<trkpt lat="46.1711310" lon="10.4877940">
	<ele>2579.00</ele>
	<time>2023-08-09T09:20:35.000Z</time>
</trkpt>
<trkpt lat="46.1711310" lon="10.4877950">
	<ele>2579.00</ele>
	<time>2023-08-09T09:20:36.000Z</time>
</trkpt>
<trkpt lat="46.1711310" lon="10.4877950">
	<ele>2579.00</ele>
	<time>2023-08-09T09:20:37.000Z</time>
</trkpt>
<trkpt lat="46.1711310" lon="10.4877950">
	<ele>2579.00</ele>
	<time>2023-08-09T09:20:38.000Z</time>
</trkpt>
<trkpt lat="46.1711310" lon="10.4877950">
	<ele>2579.00</ele>
	<time>2023-08-09T09:20:39.000Z</time>
</trkpt>
<trkpt lat="46.1711310" lon="10.4877950">
	<ele>2579.00</ele>
	<time>2023-08-09T09:20:40.000Z</time>
</trkpt>
<trkpt lat="46.1711310" lon="10.4877950">
	<ele>2579.00</ele>
	<time>2023-08-09T09:20:41.000Z</time>
</trkpt>
<trkpt lat="46.1711310" lon="10.4877950">
	<ele>2579.00</ele>
	<time>2023-08-09T09:20:42.000Z</time>
</trkpt>
<trkpt lat="46.1711310" lon="10.4877950">
	<ele>2579.00</ele>
	<time>2023-08-09T09:20:43.000Z</time>
</trkpt>
<trkpt lat="46.1711310" lon="10.4877950">
	<ele>2579.00</ele>
	<time>2023-08-09T09:20:44.000Z</time>
</trkpt>
<trkpt lat="46.1711310" lon="10.4877950">
	<ele>2579.00</ele>
	<time>2023-08-09T09:20:45.000Z</time>
</trkpt>
<trkpt lat="46.1711310" lon="10.4877950">
	<ele>2579.00</ele>
	<time>2023-08-09T09:20:46.000Z</time>
</trkpt>
<trkpt lat="46.1711310" lon="10.4877950">
	<ele>2579.00</ele>
	<time>2023-08-09T09:20:47.000Z</time>
</trkpt>
<trkpt lat="46.1711310" lon="10.4877950">
	<ele>2579.00</ele>
	<time>2023-08-09T09:20:48.000Z</time>
</trkpt>
<trkpt lat="46.1711310" lon="10.4877950">
	<ele>2579.00</ele>
	<time>2023-08-09T09:20:49.000Z</time>
</trkpt>
<trkpt lat="46.1711310" lon="10.4877950">
	<ele>2579.00</ele>
	<time>2023-08-09T09:20:50.000Z</time>
</trkpt>
<trkpt lat="46.1711310" lon="10.4877950">
	<ele>2579.00</ele>
	<time>2023-08-09T09:20:51.000Z</time>
</trkpt>
<trkpt lat="46.1711310" lon="10.4877950">
	<ele>2579.00</ele>
	<time>2023-08-09T09:20:52.000Z</time>
</trkpt>
<trkpt lat="46.1711310" lon="10.4877950">
	<ele>2579.00</ele>
	<time>2023-08-09T09:20:53.000Z</time>
</trkpt>
<trkpt lat="46.1711310" lon="10.4877950">
	<ele>2579.00</ele>
	<time>2023-08-09T09:20:54.000Z</time>
</trkpt>
<trkpt lat="46.1711310" lon="10.4877950">
	<ele>2579.00</ele>
	<time>2023-08-09T09:20:55.000Z</time>
</trkpt>
<trkpt lat="46.1711310" lon="10.4877950">
	<ele>2579.00</ele>
	<time>2023-08-09T09:20:56.000Z</time>
</trkpt>
<trkpt lat="46.1711310" lon="10.4877950">
	<ele>2579.00</ele>
	<time>2023-08-09T09:20:57.000Z</time>
</trkpt>
<trkpt lat="46.1711310" lon="10.4877950">
	<ele>2579.00</ele>
	<time>2023-08-09T09:20:58.000Z</time>
</trkpt>
<trkpt lat="46.1711310" lon="10.4877950">
	<ele>2579.00</ele>
	<time>2023-08-09T09:20:59.000Z</time>
</trkpt>
<trkpt lat="46.1711310" lon="10.4877950">
	<ele>2579.00</ele>
	<time>2023-08-09T09:21:00.000Z</time>
</trkpt>
<trkpt lat="46.1711310" lon="10.4877950">
	<ele>2579.00</ele>
	<time>2023-08-09T09:21:01.000Z</time>
</trkpt>
<trkpt lat="46.1711310" lon="10.4877950">
	<ele>2579.00</ele>
	<time>2023-08-09T09:21:02.000Z</time>
</trkpt>
<trkpt lat="46.1711330" lon="10.4877940">
	<ele>2579.00</ele>
	<time>2023-08-09T09:21:03.000Z</time>
</trkpt>
<trkpt lat="46.1711350" lon="10.4877910">
	<ele>2579.00</ele>
	<time>2023-08-09T09:21:04.000Z</time>
</trkpt>
<trkpt lat="46.1711360" lon="10.4877870">
	<ele>2579.00</ele>
	<time>2023-08-09T09:21:05.000Z</time>
</trkpt>
<trkpt lat="46.1711380" lon="10.4877860">
	<ele>2579.00</ele>
	<time>2023-08-09T09:21:06.000Z</time>
</trkpt>
<trkpt lat="46.1711410" lon="10.4877870">
	<ele>2579.00</ele>
	<time>2023-08-09T09:21:07.000Z</time>
</trkpt>
<trkpt lat="46.1711430" lon="10.4877860">
	<ele>2579.00</ele>
	<time>2023-08-09T09:21:08.000Z</time>
</trkpt>
<trkpt lat="46.1711430" lon="10.4877860">
	<ele>2579.00</ele>
	<time>2023-08-09T09:21:09.000Z</time>
</trkpt>
<trkpt lat="46.1711430" lon="10.4877860">
	<ele>2579.00</ele>
	<time>2023-08-09T09:21:10.000Z</time>
</trkpt>
<trkpt lat="46.1711430" lon="10.4877860">
	<ele>2579.00</ele>
	<time>2023-08-09T09:21:11.000Z</time>
</trkpt>
<trkpt lat="46.1711430" lon="10.4877860">
	<ele>2579.00</ele>
	<time>2023-08-09T09:21:12.000Z</time>
</trkpt>
<trkpt lat="46.1711430" lon="10.4877860">
	<ele>2579.00</ele>
	<time>2023-08-09T09:21:13.000Z</time>
</trkpt>
<trkpt lat="46.1711430" lon="10.4877860">
	<ele>2579.00</ele>
	<time>2023-08-09T09:21:14.000Z</time>
</trkpt>
<trkpt lat="46.1711430" lon="10.4877840">
	<ele>2579.00</ele>
	<time>2023-08-09T09:21:15.000Z</time>
</trkpt>
<trkpt lat="46.1711430" lon="10.4877840">
	<ele>2579.00</ele>
	<time>2023-08-09T09:21:16.000Z</time>
</trkpt>
<trkpt lat="46.1711460" lon="10.4877840">
	<ele>2579.00</ele>
	<time>2023-08-09T09:21:17.000Z</time>
</trkpt>
<trkpt lat="46.1711480" lon="10.4877830">
	<ele>2579.00</ele>
	<time>2023-08-09T09:21:18.000Z</time>
</trkpt>
<trkpt lat="46.1711480" lon="10.4877820">
	<ele>2579.00</ele>
	<time>2023-08-09T09:21:19.000Z</time>
</trkpt>
<trkpt lat="46.1711480" lon="10.4877820">
	<ele>2579.00</ele>
	<time>2023-08-09T09:21:20.000Z</time>
</trkpt>
<trkpt lat="46.1711490" lon="10.4877820">
	<ele>2579.00</ele>
	<time>2023-08-09T09:21:21.000Z</time>
</trkpt>
<trkpt lat="46.1711490" lon="10.4877820">
	<ele>2579.00</ele>
	<time>2023-08-09T09:21:22.000Z</time>
</trkpt>
<trkpt lat="46.1711490" lon="10.4877820">
	<ele>2579.00</ele>
	<time>2023-08-09T09:21:23.000Z</time>
</trkpt>
<trkpt lat="46.1711490" lon="10.4877810">
	<ele>2579.00</ele>
	<time>2023-08-09T09:21:24.000Z</time>
</trkpt>
<trkpt lat="46.1711490" lon="10.4877810">
	<ele>2579.00</ele>
	<time>2023-08-09T09:21:25.000Z</time>
</trkpt>
<trkpt lat="46.1711490" lon="10.4877810">
	<ele>2579.00</ele>
	<time>2023-08-09T09:21:26.000Z</time>
</trkpt>
<trkpt lat="46.1711490" lon="10.4877810">
	<ele>2579.00</ele>
	<time>2023-08-09T09:21:27.000Z</time>
</trkpt>
<trkpt lat="46.1711490" lon="10.4877810">
	<ele>2579.00</ele>
	<time>2023-08-09T09:21:28.000Z</time>
</trkpt>
<trkpt lat="46.1711490" lon="10.4877800">
	<ele>2579.00</ele>
	<time>2023-08-09T09:21:29.000Z</time>
</trkpt>
<trkpt lat="46.1711490" lon="10.4877800">
	<ele>2579.00</ele>
	<time>2023-08-09T09:21:30.000Z</time>
</trkpt>
<trkpt lat="46.1711490" lon="10.4877800">
	<ele>2579.00</ele>
	<time>2023-08-09T09:21:31.000Z</time>
</trkpt>
<trkpt lat="46.1711490" lon="10.4877800">
	<ele>2579.00</ele>
	<time>2023-08-09T09:21:32.000Z</time>
</trkpt>
<trkpt lat="46.1711490" lon="10.4877800">
	<ele>2579.00</ele>
	<time>2023-08-09T09:21:33.000Z</time>
</trkpt>
<trkpt lat="46.1711480" lon="10.4877800">
	<ele>2579.00</ele>
	<time>2023-08-09T09:21:34.000Z</time>
</trkpt>
<trkpt lat="46.1711480" lon="10.4877810">
	<ele>2579.00</ele>
	<time>2023-08-09T09:21:35.000Z</time>
</trkpt>
<trkpt lat="46.1711480" lon="10.4877810">
	<ele>2579.00</ele>
	<time>2023-08-09T09:21:36.000Z</time>
</trkpt>
<trkpt lat="46.1711470" lon="10.4877810">
	<ele>2579.00</ele>
	<time>2023-08-09T09:21:37.000Z</time>
</trkpt>
<trkpt lat="46.1711450" lon="10.4877810">
	<ele>2579.00</ele>
	<time>2023-08-09T09:21:38.000Z</time>
</trkpt>
<trkpt lat="46.1711430" lon="10.4877810">
	<ele>2579.00</ele>
	<time>2023-08-09T09:21:39.000Z</time>
</trkpt>
<trkpt lat="46.1711420" lon="10.4877810">
	<ele>2579.00</ele>
	<time>2023-08-09T09:21:40.000Z</time>
</trkpt>
<trkpt lat="46.1711370" lon="10.4877810">
	<ele>2579.00</ele>
	<time>2023-08-09T09:21:41.000Z</time>
</trkpt>
<trkpt lat="46.1711340" lon="10.4877810">
	<ele>2579.00</ele>
	<time>2023-08-09T09:21:42.000Z</time>
</trkpt>
<trkpt lat="46.1711330" lon="10.4877820">
	<ele>2579.00</ele>
	<time>2023-08-09T09:21:43.000Z</time>
</trkpt>
<trkpt lat="46.1711300" lon="10.4877820">
	<ele>2579.00</ele>
	<time>2023-08-09T09:21:44.000Z</time>
</trkpt>
<trkpt lat="46.1711280" lon="10.4877840">
	<ele>2579.00</ele>
	<time>2023-08-09T09:21:45.000Z</time>
</trkpt>
<trkpt lat="46.1711280" lon="10.4877880">
	<ele>2579.00</ele>
	<time>2023-08-09T09:21:46.000Z</time>
</trkpt>
<trkpt lat="46.1711230" lon="10.4877890">
	<ele>2579.00</ele>
	<time>2023-08-09T09:21:47.000Z</time>
</trkpt>
<trkpt lat="46.1711210" lon="10.4877930">
	<ele>2579.00</ele>
	<time>2023-08-09T09:21:48.000Z</time>
</trkpt>
<trkpt lat="46.1711190" lon="10.4877970">
	<ele>2579.00</ele>
	<time>2023-08-09T09:21:49.000Z</time>
</trkpt>
<trkpt lat="46.1711170" lon="10.4878040">
	<ele>2576.00</ele>
	<time>2023-08-09T09:21:50.000Z</time>
</trkpt>
<trkpt lat="46.1711160" lon="10.4878070">
	<ele>2576.00</ele>
	<time>2023-08-09T09:21:51.000Z</time>
</trkpt>
<trkpt lat="46.1711160" lon="10.4878130">
	<ele>2576.00</ele>
	<time>2023-08-09T09:21:52.000Z</time>
</trkpt>
<trkpt lat="46.1711160" lon="10.4878150">
	<ele>2576.00</ele>
	<time>2023-08-09T09:21:53.000Z</time>
</trkpt>
<trkpt lat="46.1711160" lon="10.4878160">
	<ele>2576.00</ele>
	<time>2023-08-09T09:21:54.000Z</time>
</trkpt>
<trkpt lat="46.1711160" lon="10.4878180">
	<ele>2576.00</ele>
	<time>2023-08-09T09:21:55.000Z</time>
</trkpt>
<trkpt lat="46.1711170" lon="10.4878240">
	<ele>2575.80</ele>
	<time>2023-08-09T09:21:56.000Z</time>
</trkpt>
<trkpt lat="46.1711200" lon="10.4878320">
	<ele>2575.60</ele>
	<time>2023-08-09T09:21:57.000Z</time>
</trkpt>
<trkpt lat="46.1711250" lon="10.4878400">
	<ele>2575.60</ele>
	<time>2023-08-09T09:21:58.000Z</time>
</trkpt>
<trkpt lat="46.1711290" lon="10.4878470">
	<ele>2575.40</ele>
	<time>2023-08-09T09:21:59.000Z</time>
</trkpt>
<trkpt lat="46.1711340" lon="10.4878520">
	<ele>2575.20</ele>
	<time>2023-08-09T09:22:00.000Z</time>
</trkpt>
<trkpt lat="46.1711380" lon="10.4878620">
	<ele>2575.20</ele>
	<time>2023-08-09T09:22:01.000Z</time>
</trkpt>
<trkpt lat="46.1711400" lon="10.4878720">
	<ele>2575.00</ele>
	<time>2023-08-09T09:22:02.000Z</time>
</trkpt>
<trkpt lat="46.1711410" lon="10.4878860">
	<ele>2575.00</ele>
	<time>2023-08-09T09:22:03.000Z</time>
</trkpt>
<trkpt lat="46.1711420" lon="10.4878960">
	<ele>2574.80</ele>
	<time>2023-08-09T09:22:04.000Z</time>
</trkpt>
<trkpt lat="46.1711440" lon="10.4879020">
	<ele>2574.80</ele>
	<time>2023-08-09T09:22:05.000Z</time>
</trkpt>
<trkpt lat="46.1711430" lon="10.4879000">
	<ele>2574.60</ele>
	<time>2023-08-09T09:22:06.000Z</time>
</trkpt>
<trkpt lat="46.1711420" lon="10.4879010">
	<ele>2574.60</ele>
	<time>2023-08-09T09:22:07.000Z</time>
</trkpt>
<trkpt lat="46.1711420" lon="10.4879050">
	<ele>2574.40</ele>
	<time>2023-08-09T09:22:08.000Z</time>
</trkpt>
<trkpt lat="46.1711430" lon="10.4879080">
	<ele>2574.40</ele>
	<time>2023-08-09T09:22:09.000Z</time>
</trkpt>
<trkpt lat="46.1711430" lon="10.4879110">
	<ele>2574.40</ele>
	<time>2023-08-09T09:22:10.000Z</time>
</trkpt>
<trkpt lat="46.1711450" lon="10.4879140">
	<ele>2574.00</ele>
	<time>2023-08-09T09:22:11.000Z</time>
</trkpt>
<trkpt lat="46.1711450" lon="10.4879180">
	<ele>2573.80</ele>
	<time>2023-08-09T09:22:12.000Z</time>
</trkpt>
<trkpt lat="46.1711480" lon="10.4879230">
	<ele>2573.80</ele>
	<time>2023-08-09T09:22:13.000Z</time>
</trkpt>
<trkpt lat="46.1711490" lon="10.4879250">
	<ele>2573.60</ele>
	<time>2023-08-09T09:22:14.000Z</time>
</trkpt>
<trkpt lat="46.1711530" lon="10.4879290">
	<ele>2573.40</ele>
	<time>2023-08-09T09:22:15.000Z</time>
</trkpt>
<trkpt lat="46.1711580" lon="10.4879320">
	<ele>2573.40</ele>
	<time>2023-08-09T09:22:16.000Z</time>
</trkpt>
<trkpt lat="46.1711600" lon="10.4879330">
	<ele>2573.20</ele>
	<time>2023-08-09T09:22:17.000Z</time>
</trkpt>
<trkpt lat="46.1711670" lon="10.4879410">
	<ele>2573.20</ele>
	<time>2023-08-09T09:22:18.000Z</time>
</trkpt>
<trkpt lat="46.1711680" lon="10.4879490">
	<ele>2573.00</ele>
	<time>2023-08-09T09:22:19.000Z</time>
</trkpt>
<trkpt lat="46.1711690" lon="10.4879550">
	<ele>2572.80</ele>
	<time>2023-08-09T09:22:20.000Z</time>
</trkpt>
<trkpt lat="46.1711690" lon="10.4879600">
	<ele>2572.80</ele>
	<time>2023-08-09T09:22:21.000Z</time>
</trkpt>
<trkpt lat="46.1711680" lon="10.4879690">
	<ele>2572.60</ele>
	<time>2023-08-09T09:22:22.000Z</time>
</trkpt>
<trkpt lat="46.1711690" lon="10.4879740">
	<ele>2572.40</ele>
	<time>2023-08-09T09:22:23.000Z</time>
</trkpt>
<trkpt lat="46.1711710" lon="10.4879800">
	<ele>2572.20</ele>
	<time>2023-08-09T09:22:24.000Z</time>
</trkpt>
<trkpt lat="46.1711700" lon="10.4879850">
	<ele>2572.20</ele>
	<time>2023-08-09T09:22:25.000Z</time>
</trkpt>
<trkpt lat="46.1711720" lon="10.4879900">
	<ele>2571.80</ele>
	<time>2023-08-09T09:22:26.000Z</time>
</trkpt>
<trkpt lat="46.1711760" lon="10.4879950">
	<ele>2571.80</ele>
	<time>2023-08-09T09:22:27.000Z</time>
</trkpt>
<trkpt lat="46.1711740" lon="10.4879980">
	<ele>2571.60</ele>
	<time>2023-08-09T09:22:28.000Z</time>
</trkpt>
<trkpt lat="46.1711700" lon="10.4880010">
	<ele>2571.60</ele>
	<time>2023-08-09T09:22:29.000Z</time>
</trkpt>
<trkpt lat="46.1711670" lon="10.4880030">
	<ele>2571.60</ele>
	<time>2023-08-09T09:22:30.000Z</time>
</trkpt>
<trkpt lat="46.1711610" lon="10.4879970">
	<ele>2571.60</ele>
	<time>2023-08-09T09:22:31.000Z</time>
</trkpt>
<trkpt lat="46.1711570" lon="10.4879940">
	<ele>2571.60</ele>
	<time>2023-08-09T09:22:32.000Z</time>
</trkpt>
<trkpt lat="46.1711520" lon="10.4879910">
	<ele>2571.60</ele>
	<time>2023-08-09T09:22:33.000Z</time>
</trkpt>
<trkpt lat="46.1711380" lon="10.4879830">
	<ele>2571.40</ele>
	<time>2023-08-09T09:22:34.000Z</time>
</trkpt>
<trkpt lat="46.1711300" lon="10.4879800">
	<ele>2571.20</ele>
	<time>2023-08-09T09:22:35.000Z</time>
</trkpt>
<trkpt lat="46.1711260" lon="10.4879850">
	<ele>2571.20</ele>
	<time>2023-08-09T09:22:36.000Z</time>
</trkpt>
<trkpt lat="46.1711220" lon="10.4879840">
	<ele>2571.20</ele>
	<time>2023-08-09T09:22:37.000Z</time>
</trkpt>
<trkpt lat="46.1711230" lon="10.4879810">
	<ele>2571.20</ele>
	<time>2023-08-09T09:22:38.000Z</time>
</trkpt>
<trkpt lat="46.1711260" lon="10.4879770">
	<ele>2571.00</ele>
	<time>2023-08-09T09:22:39.000Z</time>
</trkpt>
<trkpt lat="46.1711300" lon="10.4879700">
	<ele>2571.00</ele>
	<time>2023-08-09T09:22:40.000Z</time>
</trkpt>
<trkpt lat="46.1711310" lon="10.4879690">
	<ele>2571.00</ele>
	<time>2023-08-09T09:22:41.000Z</time>
</trkpt>
<trkpt lat="46.1711320" lon="10.4879690">
	<ele>2570.80</ele>
	<time>2023-08-09T09:22:42.000Z</time>
</trkpt>
<trkpt lat="46.1711340" lon="10.4879700">
	<ele>2570.80</ele>
	<time>2023-08-09T09:22:43.000Z</time>
</trkpt>
<trkpt lat="46.1711320" lon="10.4879720">
	<ele>2570.60</ele>
	<time>2023-08-09T09:22:44.000Z</time>
</trkpt>
<trkpt lat="46.1711330" lon="10.4879790">
	<ele>2570.40</ele>
	<time>2023-08-09T09:22:45.000Z</time>
</trkpt>
<trkpt lat="46.1711350" lon="10.4879820">
	<ele>2570.20</ele>
	<time>2023-08-09T09:22:46.000Z</time>
</trkpt>
<trkpt lat="46.1711340" lon="10.4879860">
	<ele>2570.00</ele>
	<time>2023-08-09T09:22:47.000Z</time>
</trkpt>
<trkpt lat="46.1711370" lon="10.4879860">
	<ele>2569.80</ele>
	<time>2023-08-09T09:22:48.000Z</time>
</trkpt>
<trkpt lat="46.1711340" lon="10.4879810">
	<ele>2569.40</ele>
	<time>2023-08-09T09:22:49.000Z</time>
</trkpt>
<trkpt lat="46.1711290" lon="10.4879840">
	<ele>2569.20</ele>
	<time>2023-08-09T09:22:50.000Z</time>
</trkpt>
<trkpt lat="46.1711280" lon="10.4879900">
	<ele>2569.20</ele>
	<time>2023-08-09T09:22:51.000Z</time>
</trkpt>
<trkpt lat="46.1711270" lon="10.4879900">
	<ele>2569.00</ele>
	<time>2023-08-09T09:22:52.000Z</time>
</trkpt>
<trkpt lat="46.1711260" lon="10.4879970">
	<ele>2569.00</ele>
	<time>2023-08-09T09:22:53.000Z</time>
</trkpt>
<trkpt lat="46.1711240" lon="10.4879970">
	<ele>2569.00</ele>
	<time>2023-08-09T09:22:54.000Z</time>
</trkpt>
<trkpt lat="46.1711270" lon="10.4879980">
	<ele>2568.80</ele>
	<time>2023-08-09T09:22:55.000Z</time>
</trkpt>
<trkpt lat="46.1711270" lon="10.4879980">
	<ele>2568.80</ele>
	<time>2023-08-09T09:22:56.000Z</time>
</trkpt>
<trkpt lat="46.1711290" lon="10.4880000">
	<ele>2568.80</ele>
	<time>2023-08-09T09:22:57.000Z</time>
</trkpt>
<trkpt lat="46.1711310" lon="10.4880040">
	<ele>2568.40</ele>
	<time>2023-08-09T09:22:58.000Z</time>
</trkpt>
<trkpt lat="46.1711320" lon="10.4880060">
	<ele>2568.20</ele>
	<time>2023-08-09T09:22:59.000Z</time>
</trkpt>
<trkpt lat="46.1711290" lon="10.4880100">
	<ele>2568.20</ele>
	<time>2023-08-09T09:23:00.000Z</time>
</trkpt>
<trkpt lat="46.1711330" lon="10.4880180">
	<ele>2568.00</ele>
	<time>2023-08-09T09:23:01.000Z</time>
</trkpt>
<trkpt lat="46.1711350" lon="10.4880230">
	<ele>2568.00</ele>
	<time>2023-08-09T09:23:02.000Z</time>
</trkpt>
<trkpt lat="46.1711400" lon="10.4880300">
	<ele>2567.80</ele>
	<time>2023-08-09T09:23:03.000Z</time>
</trkpt>
<trkpt lat="46.1711420" lon="10.4880340">
	<ele>2567.60</ele>
	<time>2023-08-09T09:23:04.000Z</time>
</trkpt>
<trkpt lat="46.1711450" lon="10.4880360">
	<ele>2567.40</ele>
	<time>2023-08-09T09:23:05.000Z</time>
</trkpt>
<trkpt lat="46.1711480" lon="10.4880370">
	<ele>2567.40</ele>
	<time>2023-08-09T09:23:06.000Z</time>
</trkpt>
<trkpt lat="46.1711490" lon="10.4880370">
	<ele>2567.20</ele>
	<time>2023-08-09T09:23:07.000Z</time>
</trkpt>
<trkpt lat="46.1711500" lon="10.4880390">
	<ele>2567.00</ele>
	<time>2023-08-09T09:23:08.000Z</time>
</trkpt>
<trkpt lat="46.1711510" lon="10.4880430">
	<ele>2567.00</ele>
	<time>2023-08-09T09:23:09.000Z</time>
</trkpt>
<trkpt lat="46.1711500" lon="10.4880450">
	<ele>2566.80</ele>
	<time>2023-08-09T09:23:10.000Z</time>
</trkpt>
<trkpt lat="46.1711500" lon="10.4880490">
	<ele>2566.80</ele>
	<time>2023-08-09T09:23:11.000Z</time>
</trkpt>
<trkpt lat="46.1711510" lon="10.4880540">
	<ele>2566.60</ele>
	<time>2023-08-09T09:23:12.000Z</time>
</trkpt>
<trkpt lat="46.1711560" lon="10.4880640">
	<ele>2566.40</ele>
	<time>2023-08-09T09:23:13.000Z</time>
</trkpt>
<trkpt lat="46.1711590" lon="10.4880710">
	<ele>2566.20</ele>
	<time>2023-08-09T09:23:14.000Z</time>
</trkpt>
<trkpt lat="46.1711620" lon="10.4880760">
	<ele>2566.00</ele>
	<time>2023-08-09T09:23:15.000Z</time>
</trkpt>
<trkpt lat="46.1711590" lon="10.4880770">
	<ele>2566.00</ele>
	<time>2023-08-09T09:23:16.000Z</time>
</trkpt>
<trkpt lat="46.1711580" lon="10.4880780">
	<ele>2565.80</ele>
	<time>2023-08-09T09:23:17.000Z</time>
</trkpt>
<trkpt lat="46.1711590" lon="10.4880780">
	<ele>2565.60</ele>
	<time>2023-08-09T09:23:18.000Z</time>
</trkpt>
<trkpt lat="46.1711590" lon="10.4880830">
	<ele>2565.40</ele>
	<time>2023-08-09T09:23:19.000Z</time>
</trkpt>
<trkpt lat="46.1711620" lon="10.4880850">
	<ele>2565.40</ele>
	<time>2023-08-09T09:23:20.000Z</time>
</trkpt>
<trkpt lat="46.1711630" lon="10.4880910">
	<ele>2565.20</ele>
	<time>2023-08-09T09:23:21.000Z</time>
</trkpt>
<trkpt lat="46.1711650" lon="10.4880960">
	<ele>2565.00</ele>
	<time>2023-08-09T09:23:22.000Z</time>
</trkpt>
<trkpt lat="46.1711660" lon="10.4881010">
	<ele>2564.80</ele>
	<time>2023-08-09T09:23:23.000Z</time>
</trkpt>
<trkpt lat="46.1711690" lon="10.4881030">
	<ele>2564.60</ele>
	<time>2023-08-09T09:23:24.000Z</time>
</trkpt>
<trkpt lat="46.1711720" lon="10.4881070">
	<ele>2564.20</ele>
	<time>2023-08-09T09:23:25.000Z</time>
</trkpt>
<trkpt lat="46.1711740" lon="10.4881090">
	<ele>2564.00</ele>
	<time>2023-08-09T09:23:26.000Z</time>
</trkpt>
<trkpt lat="46.1711780" lon="10.4881120">
	<ele>2563.80</ele>
	<time>2023-08-09T09:23:27.000Z</time>
</trkpt>
<trkpt lat="46.1711800" lon="10.4881160">
	<ele>2563.60</ele>
	<time>2023-08-09T09:23:28.000Z</time>
</trkpt>
<trkpt lat="46.1711800" lon="10.4881210">
	<ele>2563.40</ele>
	<time>2023-08-09T09:23:29.000Z</time>
</trkpt>
<trkpt lat="46.1711790" lon="10.4881240">
	<ele>2563.20</ele>
	<time>2023-08-09T09:23:30.000Z</time>
</trkpt>
<trkpt lat="46.1711800" lon="10.4881350">
	<ele>2563.00</ele>
	<time>2023-08-09T09:23:31.000Z</time>
</trkpt>
<trkpt lat="46.1711800" lon="10.4881400">
	<ele>2562.80</ele>
	<time>2023-08-09T09:23:32.000Z</time>
</trkpt>
<trkpt lat="46.1711780" lon="10.4881450">
	<ele>2562.60</ele>
	<time>2023-08-09T09:23:33.000Z</time>
</trkpt>
<trkpt lat="46.1711780" lon="10.4881520">
	<ele>2562.60</ele>
	<time>2023-08-09T09:23:34.000Z</time>
</trkpt>
<trkpt lat="46.1711800" lon="10.4881570">
	<ele>2562.40</ele>
	<time>2023-08-09T09:23:35.000Z</time>
</trkpt>
<trkpt lat="46.1711840" lon="10.4881590">
	<ele>2562.40</ele>
	<time>2023-08-09T09:23:36.000Z</time>
</trkpt>
<trkpt lat="46.1711850" lon="10.4881700">
	<ele>2562.20</ele>
	<time>2023-08-09T09:23:37.000Z</time>
</trkpt>
<trkpt lat="46.1711860" lon="10.4881770">
	<ele>2562.20</ele>
	<time>2023-08-09T09:23:38.000Z</time>
</trkpt>
<trkpt lat="46.1711850" lon="10.4881820">
	<ele>2562.00</ele>
	<time>2023-08-09T09:23:39.000Z</time>
</trkpt>
<trkpt lat="46.1711860" lon="10.4881860">
	<ele>2561.80</ele>
	<time>2023-08-09T09:23:40.000Z</time>
</trkpt>
<trkpt lat="46.1711810" lon="10.4881920">
	<ele>2561.60</ele>
	<time>2023-08-09T09:23:41.000Z</time>
</trkpt>
<trkpt lat="46.1711790" lon="10.4881930">
	<ele>2561.60</ele>
	<time>2023-08-09T09:23:42.000Z</time>
</trkpt>
<trkpt lat="46.1711760" lon="10.4881930">
	<ele>2561.40</ele>
	<time>2023-08-09T09:23:43.000Z</time>
</trkpt>
<trkpt lat="46.1711740" lon="10.4881940">
	<ele>2561.20</ele>
	<time>2023-08-09T09:23:44.000Z</time>
</trkpt>
<trkpt lat="46.1711730" lon="10.4881960">
	<ele>2561.00</ele>
	<time>2023-08-09T09:23:45.000Z</time>
</trkpt>
<trkpt lat="46.1711760" lon="10.4882030">
	<ele>2561.00</ele>
	<time>2023-08-09T09:23:46.000Z</time>
</trkpt>
<trkpt lat="46.1711810" lon="10.4882010">
	<ele>2561.00</ele>
	<time>2023-08-09T09:23:47.000Z</time>
</trkpt>
<trkpt lat="46.1711840" lon="10.4882050">
	<ele>2560.80</ele>
	<time>2023-08-09T09:23:48.000Z</time>
</trkpt>
<trkpt lat="46.1711840" lon="10.4882060">
	<ele>2560.40</ele>
	<time>2023-08-09T09:23:49.000Z</time>
</trkpt>
<trkpt lat="46.1711850" lon="10.4882020">
	<ele>2560.20</ele>
	<time>2023-08-09T09:23:50.000Z</time>
</trkpt>
<trkpt lat="46.1711850" lon="10.4882040">
	<ele>2560.20</ele>
	<time>2023-08-09T09:23:51.000Z</time>
</trkpt>
<trkpt lat="46.1711850" lon="10.4882090">
	<ele>2560.00</ele>
	<time>2023-08-09T09:23:52.000Z</time>
</trkpt>
<trkpt lat="46.1711860" lon="10.4882140">
	<ele>2559.80</ele>
	<time>2023-08-09T09:23:53.000Z</time>
</trkpt>
<trkpt lat="46.1711850" lon="10.4882220">
	<ele>2559.80</ele>
	<time>2023-08-09T09:23:54.000Z</time>
</trkpt>
<trkpt lat="46.1711870" lon="10.4882290">
	<ele>2559.60</ele>
	<time>2023-08-09T09:23:55.000Z</time>
</trkpt>
<trkpt lat="46.1711910" lon="10.4882330">
	<ele>2559.60</ele>
	<time>2023-08-09T09:23:56.000Z</time>
</trkpt>
<trkpt lat="46.1711920" lon="10.4882360">
	<ele>2559.40</ele>
	<time>2023-08-09T09:23:57.000Z</time>
</trkpt>
<trkpt lat="46.1711920" lon="10.4882400">
	<ele>2559.20</ele>
	<time>2023-08-09T09:23:58.000Z</time>
</trkpt>
<trkpt lat="46.1711910" lon="10.4882440">
	<ele>2559.00</ele>
	<time>2023-08-09T09:23:59.000Z</time>
</trkpt>
<trkpt lat="46.1711910" lon="10.4882480">
	<ele>2558.80</ele>
	<time>2023-08-09T09:24:00.000Z</time>
</trkpt>
<trkpt lat="46.1711920" lon="10.4882560">
	<ele>2558.80</ele>
	<time>2023-08-09T09:24:01.000Z</time>
</trkpt>
<trkpt lat="46.1711870" lon="10.4882610">
	<ele>2558.60</ele>
	<time>2023-08-09T09:24:02.000Z</time>
</trkpt>
<trkpt lat="46.1711850" lon="10.4882630">
	<ele>2558.20</ele>
	<time>2023-08-09T09:24:03.000Z</time>
</trkpt>
<trkpt lat="46.1711840" lon="10.4882630">
	<ele>2558.20</ele>
	<time>2023-08-09T09:24:04.000Z</time>
</trkpt>
<trkpt lat="46.1711830" lon="10.4882600">
	<ele>2558.00</ele>
	<time>2023-08-09T09:24:05.000Z</time>
</trkpt>
<trkpt lat="46.1711830" lon="10.4882570">
	<ele>2558.00</ele>
	<time>2023-08-09T09:24:06.000Z</time>
</trkpt>
<trkpt lat="46.1711820" lon="10.4882550">
	<ele>2557.80</ele>
	<time>2023-08-09T09:24:07.000Z</time>
</trkpt>
<trkpt lat="46.1711850" lon="10.4882430">
	<ele>2557.80</ele>
	<time>2023-08-09T09:24:08.000Z</time>
</trkpt>
<trkpt lat="46.1711850" lon="10.4882420">
	<ele>2557.80</ele>
	<time>2023-08-09T09:24:09.000Z</time>
</trkpt>
<trkpt lat="46.1711850" lon="10.4882370">
	<ele>2557.80</ele>
	<time>2023-08-09T09:24:10.000Z</time>
</trkpt>
<trkpt lat="46.1711850" lon="10.4882350">
	<ele>2557.80</ele>
	<time>2023-08-09T09:24:11.000Z</time>
</trkpt>
<trkpt lat="46.1711850" lon="10.4882340">
	<ele>2557.80</ele>
	<time>2023-08-09T09:24:12.000Z</time>
</trkpt>
<trkpt lat="46.1711850" lon="10.4882340">
	<ele>2557.80</ele>
	<time>2023-08-09T09:24:13.000Z</time>
</trkpt>
<trkpt lat="46.1711850" lon="10.4882340">
	<ele>2557.80</ele>
	<time>2023-08-09T09:24:14.000Z</time>
</trkpt>
<trkpt lat="46.1711850" lon="10.4882340">
	<ele>2557.80</ele>
	<time>2023-08-09T09:24:15.000Z</time>
</trkpt>
<trkpt lat="46.1711850" lon="10.4882340">
	<ele>2557.80</ele>
	<time>2023-08-09T09:24:16.000Z</time>
</trkpt>
<trkpt lat="46.1711850" lon="10.4882340">
	<ele>2557.80</ele>
	<time>2023-08-09T09:24:17.000Z</time>
</trkpt>
<trkpt lat="46.1711850" lon="10.4882340">
	<ele>2557.60</ele>
	<time>2023-08-09T09:24:18.000Z</time>
</trkpt>
<trkpt lat="46.1711850" lon="10.4882340">
	<ele>2557.60</ele>
	<time>2023-08-09T09:24:19.000Z</time>
</trkpt>
<trkpt lat="46.1711850" lon="10.4882340">
	<ele>2557.60</ele>
	<time>2023-08-09T09:24:20.000Z</time>
</trkpt>
<trkpt lat="46.1711850" lon="10.4882340">
	<ele>2557.60</ele>
	<time>2023-08-09T09:24:21.000Z</time>
</trkpt>
<trkpt lat="46.1711850" lon="10.4882340">
	<ele>2557.60</ele>
	<time>2023-08-09T09:24:22.000Z</time>
</trkpt>
<trkpt lat="46.1711850" lon="10.4882340">
	<ele>2557.60</ele>
	<time>2023-08-09T09:24:23.000Z</time>
</trkpt>
<trkpt lat="46.1711850" lon="10.4882350">
	<ele>2557.40</ele>
	<time>2023-08-09T09:24:24.000Z</time>
</trkpt>
<trkpt lat="46.1711850" lon="10.4882350">
	<ele>2557.40</ele>
	<time>2023-08-09T09:24:25.000Z</time>
</trkpt>
<trkpt lat="46.1711850" lon="10.4882360">
	<ele>2557.20</ele>
	<time>2023-08-09T09:24:26.000Z</time>
</trkpt>
<trkpt lat="46.1711850" lon="10.4882370">
	<ele>2557.20</ele>
	<time>2023-08-09T09:24:27.000Z</time>
</trkpt>
<trkpt lat="46.1711840" lon="10.4882370">
	<ele>2557.00</ele>
	<time>2023-08-09T09:24:28.000Z</time>
</trkpt>
<trkpt lat="46.1711840" lon="10.4882380">
	<ele>2557.00</ele>
	<time>2023-08-09T09:24:29.000Z</time>
</trkpt>
<trkpt lat="46.1711830" lon="10.4882390">
	<ele>2557.00</ele>
	<time>2023-08-09T09:24:30.000Z</time>
</trkpt>
<trkpt lat="46.1711830" lon="10.4882400">
	<ele>2557.00</ele>
	<time>2023-08-09T09:24:31.000Z</time>
</trkpt>
<trkpt lat="46.1711830" lon="10.4882410">
	<ele>2557.00</ele>
	<time>2023-08-09T09:24:32.000Z</time>
</trkpt>
<trkpt lat="46.1711830" lon="10.4882420">
	<ele>2557.00</ele>
	<time>2023-08-09T09:24:33.000Z</time>
</trkpt>
<trkpt lat="46.1711830" lon="10.4882420">
	<ele>2557.00</ele>
	<time>2023-08-09T09:24:34.000Z</time>
</trkpt>
<trkpt lat="46.1711830" lon="10.4882420">
	<ele>2557.00</ele>
	<time>2023-08-09T09:24:35.000Z</time>
</trkpt>
<trkpt lat="46.1711830" lon="10.4882420">
	<ele>2557.00</ele>
	<time>2023-08-09T09:24:36.000Z</time>
</trkpt>
<trkpt lat="46.1711830" lon="10.4882420">
	<ele>2557.00</ele>
	<time>2023-08-09T09:24:37.000Z</time>
</trkpt>
<trkpt lat="46.1711830" lon="10.4882420">
	<ele>2556.80</ele>
	<time>2023-08-09T09:24:38.000Z</time>
</trkpt>
<trkpt lat="46.1711820" lon="10.4882450">
	<ele>2556.80</ele>
	<time>2023-08-09T09:24:39.000Z</time>
</trkpt>
<trkpt lat="46.1711820" lon="10.4882510">
	<ele>2556.40</ele>
	<time>2023-08-09T09:24:40.000Z</time>
</trkpt>
<trkpt lat="46.1711820" lon="10.4882550">
	<ele>2556.20</ele>
	<time>2023-08-09T09:24:41.000Z</time>
</trkpt>
<trkpt lat="46.1711830" lon="10.4882600">
	<ele>2556.20</ele>
	<time>2023-08-09T09:24:42.000Z</time>
</trkpt>
<trkpt lat="46.1711840" lon="10.4882650">
	<ele>2556.00</ele>
	<time>2023-08-09T09:24:43.000Z</time>
</trkpt>
<trkpt lat="46.1711820" lon="10.4882740">
	<ele>2556.00</ele>
	<time>2023-08-09T09:24:44.000Z</time>
</trkpt>
<trkpt lat="46.1711810" lon="10.4882820">
	<ele>2555.80</ele>
	<time>2023-08-09T09:24:45.000Z</time>
</trkpt>
<trkpt lat="46.1711810" lon="10.4882900">
	<ele>2555.60</ele>
	<time>2023-08-09T09:24:46.000Z</time>
</trkpt>
<trkpt lat="46.1711820" lon="10.4882930">
	<ele>2555.40</ele>
	<time>2023-08-09T09:24:47.000Z</time>
</trkpt>
<trkpt lat="46.1711820" lon="10.4882980">
	<ele>2555.20</ele>
	<time>2023-08-09T09:24:48.000Z</time>
</trkpt>
<trkpt lat="46.1711800" lon="10.4883040">
	<ele>2555.00</ele>
	<time>2023-08-09T09:24:49.000Z</time>
</trkpt>
<trkpt lat="46.1711790" lon="10.4883110">
	<ele>2555.00</ele>
	<time>2023-08-09T09:24:50.000Z</time>
</trkpt>
<trkpt lat="46.1711780" lon="10.4883160">
	<ele>2555.00</ele>
	<time>2023-08-09T09:24:51.000Z</time>
</trkpt>
<trkpt lat="46.1711780" lon="10.4883200">
	<ele>2554.60</ele>
	<time>2023-08-09T09:24:52.000Z</time>
</trkpt>
<trkpt lat="46.1711780" lon="10.4883240">
	<ele>2554.60</ele>
	<time>2023-08-09T09:24:53.000Z</time>
</trkpt>
<trkpt lat="46.1711770" lon="10.4883260">
	<ele>2554.40</ele>
	<time>2023-08-09T09:24:54.000Z</time>
</trkpt>
<trkpt lat="46.1711770" lon="10.4883280">
	<ele>2554.20</ele>
	<time>2023-08-09T09:24:55.000Z</time>
</trkpt>
<trkpt lat="46.1711790" lon="10.4883310">
	<ele>2554.20</ele>
	<time>2023-08-09T09:24:56.000Z</time>
</trkpt>
<trkpt lat="46.1711800" lon="10.4883320">
	<ele>2554.00</ele>
	<time>2023-08-09T09:24:57.000Z</time>
</trkpt>
<trkpt lat="46.1711830" lon="10.4883350">
	<ele>2553.80</ele>
	<time>2023-08-09T09:24:58.000Z</time>
</trkpt>
<trkpt lat="46.1711910" lon="10.4883460">
	<ele>2553.80</ele>
	<time>2023-08-09T09:24:59.000Z</time>
</trkpt>
<trkpt lat="46.1711930" lon="10.4883500">
	<ele>2553.60</ele>
	<time>2023-08-09T09:25:00.000Z</time>
</trkpt>
<trkpt lat="46.1711950" lon="10.4883540">
	<ele>2553.40</ele>
	<time>2023-08-09T09:25:01.000Z</time>
</trkpt>
<trkpt lat="46.1711980" lon="10.4883560">
	<ele>2553.20</ele>
	<time>2023-08-09T09:25:02.000Z</time>
</trkpt>
<trkpt lat="46.1712000" lon="10.4883580">
	<ele>2553.00</ele>
	<time>2023-08-09T09:25:03.000Z</time>
</trkpt>
<trkpt lat="46.1711990" lon="10.4883540">
	<ele>2552.80</ele>
	<time>2023-08-09T09:25:04.000Z</time>
</trkpt>
<trkpt lat="46.1712030" lon="10.4883560">
	<ele>2552.60</ele>
	<time>2023-08-09T09:25:05.000Z</time>
</trkpt>
<trkpt lat="46.1712050" lon="10.4883550">
	<ele>2552.20</ele>
	<time>2023-08-09T09:25:06.000Z</time>
</trkpt>
<trkpt lat="46.1712090" lon="10.4883580">
	<ele>2552.00</ele>
	<time>2023-08-09T09:25:07.000Z</time>
</trkpt>
<trkpt lat="46.1712140" lon="10.4883600">
	<ele>2551.80</ele>
	<time>2023-08-09T09:25:08.000Z</time>
</trkpt>
<trkpt lat="46.1712200" lon="10.4883640">
	<ele>2551.80</ele>
	<time>2023-08-09T09:25:09.000Z</time>
</trkpt>
<trkpt lat="46.1712260" lon="10.4883720">
	<ele>2551.60</ele>
	<time>2023-08-09T09:25:10.000Z</time>
</trkpt>
<trkpt lat="46.1712290" lon="10.4883770">
	<ele>2551.40</ele>
	<time>2023-08-09T09:25:11.000Z</time>
</trkpt>
<trkpt lat="46.1712340" lon="10.4883790">
	<ele>2551.20</ele>
	<time>2023-08-09T09:25:12.000Z</time>
</trkpt>
<trkpt lat="46.1712330" lon="10.4883860">
	<ele>2551.00</ele>
	<time>2023-08-09T09:25:13.000Z</time>
</trkpt>
<trkpt lat="46.1712370" lon="10.4883880">
	<ele>2551.00</ele>
	<time>2023-08-09T09:25:14.000Z</time>
</trkpt>
<trkpt lat="46.1712450" lon="10.4883910">
	<ele>2550.80</ele>
	<time>2023-08-09T09:25:15.000Z</time>
</trkpt>
<trkpt lat="46.1712480" lon="10.4883940">
	<ele>2550.60</ele>
	<time>2023-08-09T09:25:16.000Z</time>
</trkpt>
<trkpt lat="46.1712500" lon="10.4884000">
	<ele>2550.40</ele>
	<time>2023-08-09T09:25:17.000Z</time>
</trkpt>
<trkpt lat="46.1712580" lon="10.4884110">
	<ele>2550.40</ele>
	<time>2023-08-09T09:25:18.000Z</time>
</trkpt>
<trkpt lat="46.1712590" lon="10.4884190">
	<ele>2550.20</ele>
	<time>2023-08-09T09:25:19.000Z</time>
</trkpt>
<trkpt lat="46.1712560" lon="10.4884280">
	<ele>2550.00</ele>
	<time>2023-08-09T09:25:20.000Z</time>
</trkpt>
<trkpt lat="46.1712540" lon="10.4884340">
	<ele>2550.00</ele>
	<time>2023-08-09T09:25:21.000Z</time>
</trkpt>
<trkpt lat="46.1712520" lon="10.4884390">
	<ele>2549.80</ele>
	<time>2023-08-09T09:25:22.000Z</time>
</trkpt>
<trkpt lat="46.1712530" lon="10.4884470">
	<ele>2549.80</ele>
	<time>2023-08-09T09:25:23.000Z</time>
</trkpt>
<trkpt lat="46.1712550" lon="10.4884530">
	<ele>2549.80</ele>
	<time>2023-08-09T09:25:24.000Z</time>
</trkpt>
<trkpt lat="46.1712580" lon="10.4884600">
	<ele>2549.60</ele>
	<time>2023-08-09T09:25:25.000Z</time>
</trkpt>
<trkpt lat="46.1712570" lon="10.4884610">
	<ele>2549.20</ele>
	<time>2023-08-09T09:25:26.000Z</time>
</trkpt>
<trkpt lat="46.1712550" lon="10.4884600">
	<ele>2549.20</ele>
	<time>2023-08-09T09:25:27.000Z</time>
</trkpt>
<trkpt lat="46.1712540" lon="10.4884600">
	<ele>2549.00</ele>
	<time>2023-08-09T09:25:28.000Z</time>
</trkpt>
<trkpt lat="46.1712520" lon="10.4884600">
	<ele>2549.00</ele>
	<time>2023-08-09T09:25:29.000Z</time>
</trkpt>
<trkpt lat="46.1712510" lon="10.4884610">
	<ele>2549.00</ele>
	<time>2023-08-09T09:25:30.000Z</time>
</trkpt>
<trkpt lat="46.1712510" lon="10.4884630">
	<ele>2549.00</ele>
	<time>2023-08-09T09:25:31.000Z</time>
</trkpt>
<trkpt lat="46.1712510" lon="10.4884640">
	<ele>2549.40</ele>
	<time>2023-08-09T09:25:32.000Z</time>
</trkpt>
<trkpt lat="46.1712520" lon="10.4884650">
	<ele>2549.60</ele>
	<time>2023-08-09T09:25:33.000Z</time>
</trkpt>
<trkpt lat="46.1712520" lon="10.4884660">
	<ele>2549.80</ele>
	<time>2023-08-09T09:25:34.000Z</time>
</trkpt>
<trkpt lat="46.1712520" lon="10.4884660">
	<ele>2549.80</ele>
	<time>2023-08-09T09:25:35.000Z</time>
</trkpt>
<trkpt lat="46.1712520" lon="10.4884660">
	<ele>2549.80</ele>
	<time>2023-08-09T09:25:36.000Z</time>
</trkpt>
<trkpt lat="46.1712520" lon="10.4884660">
	<ele>2549.80</ele>
	<time>2023-08-09T09:25:37.000Z</time>
</trkpt>
<trkpt lat="46.1712520" lon="10.4884660">
	<ele>2549.60</ele>
	<time>2023-08-09T09:25:38.000Z</time>
</trkpt>
<trkpt lat="46.1712520" lon="10.4884660">
	<ele>2549.20</ele>
	<time>2023-08-09T09:25:39.000Z</time>
</trkpt>
<trkpt lat="46.1712520" lon="10.4884660">
	<ele>2549.00</ele>
	<time>2023-08-09T09:25:40.000Z</time>
</trkpt>
<trkpt lat="46.1712520" lon="10.4884660">
	<ele>2549.00</ele>
	<time>2023-08-09T09:25:41.000Z</time>
</trkpt>
<trkpt lat="46.1712520" lon="10.4884660">
	<ele>2548.80</ele>
	<time>2023-08-09T09:25:42.000Z</time>
</trkpt>
<trkpt lat="46.1712520" lon="10.4884660">
	<ele>2548.80</ele>
	<time>2023-08-09T09:25:43.000Z</time>
</trkpt>
<trkpt lat="46.1712520" lon="10.4884660">
	<ele>2548.80</ele>
	<time>2023-08-09T09:25:44.000Z</time>
</trkpt>
<trkpt lat="46.1712520" lon="10.4884660">
	<ele>2548.80</ele>
	<time>2023-08-09T09:25:45.000Z</time>
</trkpt>
<trkpt lat="46.1712520" lon="10.4884660">
	<ele>2548.80</ele>
	<time>2023-08-09T09:25:46.000Z</time>
</trkpt>
<trkpt lat="46.1712520" lon="10.4884660">
	<ele>2548.60</ele>
	<time>2023-08-09T09:25:47.000Z</time>
</trkpt>
<trkpt lat="46.1712520" lon="10.4884660">
	<ele>2548.60</ele>
	<time>2023-08-09T09:25:48.000Z</time>
</trkpt>
<trkpt lat="46.1712520" lon="10.4884660">
	<ele>2548.60</ele>
	<time>2023-08-09T09:25:49.000Z</time>
</trkpt>
<trkpt lat="46.1712520" lon="10.4884660">
	<ele>2548.60</ele>
	<time>2023-08-09T09:25:50.000Z</time>
</trkpt>
<trkpt lat="46.1712520" lon="10.4884660">
	<ele>2548.40</ele>
	<time>2023-08-09T09:25:51.000Z</time>
</trkpt>
<trkpt lat="46.1712520" lon="10.4884660">
	<ele>2548.40</ele>
	<time>2023-08-09T09:25:52.000Z</time>
</trkpt>
<trkpt lat="46.1712520" lon="10.4884660">
	<ele>2548.20</ele>
	<time>2023-08-09T09:25:53.000Z</time>
</trkpt>
<trkpt lat="46.1712520" lon="10.4884660">
	<ele>2548.20</ele>
	<time>2023-08-09T09:25:54.000Z</time>
</trkpt>
<trkpt lat="46.1712530" lon="10.4884660">
	<ele>2548.20</ele>
	<time>2023-08-09T09:25:55.000Z</time>
</trkpt>
<trkpt lat="46.1712530" lon="10.4884660">
	<ele>2548.20</ele>
	<time>2023-08-09T09:25:56.000Z</time>
</trkpt>
<trkpt lat="46.1712520" lon="10.4884670">
	<ele>2548.00</ele>
	<time>2023-08-09T09:25:57.000Z</time>
</trkpt>
<trkpt lat="46.1712520" lon="10.4884670">
	<ele>2548.00</ele>
	<time>2023-08-09T09:25:58.000Z</time>
</trkpt>
<trkpt lat="46.1712520" lon="10.4884670">
	<ele>2547.60</ele>
	<time>2023-08-09T09:25:59.000Z</time>
</trkpt>
<trkpt lat="46.1712520" lon="10.4884670">
	<ele>2547.40</ele>
	<time>2023-08-09T09:26:00.000Z</time>
</trkpt>
<trkpt lat="46.1712520" lon="10.4884670">
	<ele>2547.20</ele>
	<time>2023-08-09T09:26:01.000Z</time>
</trkpt>
<trkpt lat="46.1712520" lon="10.4884680">
	<ele>2547.00</ele>
	<time>2023-08-09T09:26:02.000Z</time>
</trkpt>
<trkpt lat="46.1712520" lon="10.4884690">
	<ele>2547.00</ele>
	<time>2023-08-09T09:26:03.000Z</time>
</trkpt>
<trkpt lat="46.1712520" lon="10.4884690">
	<ele>2547.00</ele>
	<time>2023-08-09T09:26:04.000Z</time>
</trkpt>
<trkpt lat="46.1712510" lon="10.4884700">
	<ele>2546.80</ele>
	<time>2023-08-09T09:26:05.000Z</time>
</trkpt>
<trkpt lat="46.1712510" lon="10.4884750">
	<ele>2546.60</ele>
	<time>2023-08-09T09:26:06.000Z</time>
</trkpt>
<trkpt lat="46.1712510" lon="10.4884800">
	<ele>2546.40</ele>
	<time>2023-08-09T09:26:07.000Z</time>
</trkpt>
<trkpt lat="46.1712510" lon="10.4884840">
	<ele>2546.40</ele>
	<time>2023-08-09T09:26:08.000Z</time>
</trkpt>
<trkpt lat="46.1712510" lon="10.4884880">
	<ele>2546.40</ele>
	<time>2023-08-09T09:26:09.000Z</time>
</trkpt>
<trkpt lat="46.1712510" lon="10.4884910">
	<ele>2546.20</ele>
	<time>2023-08-09T09:26:10.000Z</time>
</trkpt>
<trkpt lat="46.1712500" lon="10.4884940">
	<ele>2546.20</ele>
	<time>2023-08-09T09:26:11.000Z</time>
</trkpt>
<trkpt lat="46.1712460" lon="10.4884970">
	<ele>2546.20</ele>
	<time>2023-08-09T09:26:12.000Z</time>
</trkpt>
<trkpt lat="46.1712430" lon="10.4884990">
	<ele>2546.00</ele>
	<time>2023-08-09T09:26:13.000Z</time>
</trkpt>
<trkpt lat="46.1712390" lon="10.4885000">
	<ele>2545.80</ele>
	<time>2023-08-09T09:26:14.000Z</time>
</trkpt>
<trkpt lat="46.1712380" lon="10.4885010">
	<ele>2545.80</ele>
	<time>2023-08-09T09:26:15.000Z</time>
</trkpt>
<trkpt lat="46.1712380" lon="10.4885040">
	<ele>2545.60</ele>
	<time>2023-08-09T09:26:16.000Z</time>
</trkpt>
<trkpt lat="46.1712380" lon="10.4885080">
	<ele>2545.60</ele>
	<time>2023-08-09T09:26:17.000Z</time>
</trkpt>
<trkpt lat="46.1712380" lon="10.4885130">
	<ele>2545.40</ele>
	<time>2023-08-09T09:26:18.000Z</time>
</trkpt>
<trkpt lat="46.1712380" lon="10.4885180">
	<ele>2545.40</ele>
	<time>2023-08-09T09:26:19.000Z</time>
</trkpt>
<trkpt lat="46.1712380" lon="10.4885250">
	<ele>2545.40</ele>
	<time>2023-08-09T09:26:20.000Z</time>
</trkpt>
<trkpt lat="46.1712370" lon="10.4885340">
	<ele>2545.20</ele>
	<time>2023-08-09T09:26:21.000Z</time>
</trkpt>
<trkpt lat="46.1712360" lon="10.4885390">
	<ele>2545.00</ele>
	<time>2023-08-09T09:26:22.000Z</time>
</trkpt>
<trkpt lat="46.1712360" lon="10.4885420">
	<ele>2545.00</ele>
	<time>2023-08-09T09:26:23.000Z</time>
</trkpt>
<trkpt lat="46.1712360" lon="10.4885450">
	<ele>2544.80</ele>
	<time>2023-08-09T09:26:24.000Z</time>
</trkpt>
<trkpt lat="46.1712350" lon="10.4885500">
	<ele>2544.80</ele>
	<time>2023-08-09T09:26:25.000Z</time>
</trkpt>
<trkpt lat="46.1712350" lon="10.4885560">
	<ele>2544.80</ele>
	<time>2023-08-09T09:26:26.000Z</time>
</trkpt>
<trkpt lat="46.1712350" lon="10.4885610">
	<ele>2544.80</ele>
	<time>2023-08-09T09:26:27.000Z</time>
</trkpt>
<trkpt lat="46.1712350" lon="10.4885660">
	<ele>2544.80</ele>
	<time>2023-08-09T09:26:28.000Z</time>
</trkpt>
<trkpt lat="46.1712340" lon="10.4885720">
	<ele>2544.80</ele>
	<time>2023-08-09T09:26:29.000Z</time>
</trkpt>
<trkpt lat="46.1712340" lon="10.4885770">
	<ele>2544.80</ele>
	<time>2023-08-09T09:26:30.000Z</time>
</trkpt>
<trkpt lat="46.1712340" lon="10.4885850">
	<ele>2544.80</ele>
	<time>2023-08-09T09:26:31.000Z</time>
</trkpt>
<trkpt lat="46.1712340" lon="10.4885930">
	<ele>2544.80</ele>
	<time>2023-08-09T09:26:32.000Z</time>
</trkpt>
<trkpt lat="46.1712340" lon="10.4886040">
	<ele>2544.80</ele>
	<time>2023-08-09T09:26:33.000Z</time>
</trkpt>
<trkpt lat="46.1712340" lon="10.4886180">
	<ele>2544.60</ele>
	<time>2023-08-09T09:26:34.000Z</time>
</trkpt>
<trkpt lat="46.1712340" lon="10.4886290">
	<ele>2544.60</ele>
	<time>2023-08-09T09:26:35.000Z</time>
</trkpt>
<trkpt lat="46.1712340" lon="10.4886380">
	<ele>2544.60</ele>
	<time>2023-08-09T09:26:36.000Z</time>
</trkpt>
<trkpt lat="46.1712320" lon="10.4886450">
	<ele>2544.60</ele>
	<time>2023-08-09T09:26:37.000Z</time>
</trkpt>
<trkpt lat="46.1712280" lon="10.4886530">
	<ele>2544.40</ele>
	<time>2023-08-09T09:26:38.000Z</time>
</trkpt>
<trkpt lat="46.1712270" lon="10.4886600">
	<ele>2544.40</ele>
	<time>2023-08-09T09:26:39.000Z</time>
</trkpt>
<trkpt lat="46.1712240" lon="10.4886680">
	<ele>2544.60</ele>
	<time>2023-08-09T09:26:40.000Z</time>
</trkpt>
<trkpt lat="46.1712200" lon="10.4886770">
	<ele>2544.60</ele>
	<time>2023-08-09T09:26:41.000Z</time>
</trkpt>
<trkpt lat="46.1712150" lon="10.4886830">
	<ele>2544.60</ele>
	<time>2023-08-09T09:26:42.000Z</time>
</trkpt>
<trkpt lat="46.1712120" lon="10.4886880">
	<ele>2544.60</ele>
	<time>2023-08-09T09:26:43.000Z</time>
</trkpt>
<trkpt lat="46.1712090" lon="10.4886920">
	<ele>2544.60</ele>
	<time>2023-08-09T09:26:44.000Z</time>
</trkpt>
<trkpt lat="46.1712070" lon="10.4886970">
	<ele>2544.60</ele>
	<time>2023-08-09T09:26:45.000Z</time>
</trkpt>
<trkpt lat="46.1712050" lon="10.4887030">
	<ele>2544.40</ele>
	<time>2023-08-09T09:26:46.000Z</time>
</trkpt>
<trkpt lat="46.1712030" lon="10.4887090">
	<ele>2544.40</ele>
	<time>2023-08-09T09:26:47.000Z</time>
</trkpt>
<trkpt lat="46.1712000" lon="10.4887150">
	<ele>2544.20</ele>
	<time>2023-08-09T09:26:48.000Z</time>
</trkpt>
<trkpt lat="46.1711980" lon="10.4887190">
	<ele>2544.20</ele>
	<time>2023-08-09T09:26:49.000Z</time>
</trkpt>
<trkpt lat="46.1711940" lon="10.4887210">
	<ele>2544.20</ele>
	<time>2023-08-09T09:26:50.000Z</time>
</trkpt>
<trkpt lat="46.1711880" lon="10.4887220">
	<ele>2544.00</ele>
	<time>2023-08-09T09:26:51.000Z</time>
</trkpt>
<trkpt lat="46.1711810" lon="10.4887230">
	<ele>2544.20</ele>
	<time>2023-08-09T09:26:52.000Z</time>
</trkpt>
<trkpt lat="46.1711760" lon="10.4887250">
	<ele>2544.20</ele>
	<time>2023-08-09T09:26:53.000Z</time>
</trkpt>
<trkpt lat="46.1711740" lon="10.4887290">
	<ele>2544.00</ele>
	<time>2023-08-09T09:26:54.000Z</time>
</trkpt>
<trkpt lat="46.1711730" lon="10.4887320">
	<ele>2544.00</ele>
	<time>2023-08-09T09:26:55.000Z</time>
</trkpt>
<trkpt lat="46.1711720" lon="10.4887380">
	<ele>2543.80</ele>
	<time>2023-08-09T09:26:56.000Z</time>
</trkpt>
<trkpt lat="46.1711710" lon="10.4887450">
	<ele>2543.80</ele>
	<time>2023-08-09T09:26:57.000Z</time>
</trkpt>
<trkpt lat="46.1711700" lon="10.4887530">
	<ele>2543.60</ele>
	<time>2023-08-09T09:26:58.000Z</time>
</trkpt>
<trkpt lat="46.1711690" lon="10.4887620">
	<ele>2543.60</ele>
	<time>2023-08-09T09:26:59.000Z</time>
</trkpt>
<trkpt lat="46.1711680" lon="10.4887710">
	<ele>2543.60</ele>
	<time>2023-08-09T09:27:00.000Z</time>
</trkpt>
<trkpt lat="46.1711670" lon="10.4887770">
	<ele>2543.40</ele>
	<time>2023-08-09T09:27:01.000Z</time>
</trkpt>
<trkpt lat="46.1711650" lon="10.4887860">
	<ele>2543.40</ele>
	<time>2023-08-09T09:27:02.000Z</time>
</trkpt>
<trkpt lat="46.1711640" lon="10.4887970">
	<ele>2543.40</ele>
	<time>2023-08-09T09:27:03.000Z</time>
</trkpt>
<trkpt lat="46.1711630" lon="10.4888050">
	<ele>2543.20</ele>
	<time>2023-08-09T09:27:04.000Z</time>
</trkpt>
<trkpt lat="46.1711620" lon="10.4888110">
	<ele>2543.00</ele>
	<time>2023-08-09T09:27:05.000Z</time>
</trkpt>
<trkpt lat="46.1711610" lon="10.4888170">
	<ele>2542.80</ele>
	<time>2023-08-09T09:27:06.000Z</time>
</trkpt>
<trkpt lat="46.1711590" lon="10.4888220">
	<ele>2542.60</ele>
	<time>2023-08-09T09:27:07.000Z</time>
</trkpt>
<trkpt lat="46.1711580" lon="10.4888270">
	<ele>2542.60</ele>
	<time>2023-08-09T09:27:08.000Z</time>
</trkpt>
<trkpt lat="46.1711580" lon="10.4888310">
	<ele>2542.40</ele>
	<time>2023-08-09T09:27:09.000Z</time>
</trkpt>
<trkpt lat="46.1711570" lon="10.4888330">
	<ele>2542.20</ele>
	<time>2023-08-09T09:27:10.000Z</time>
</trkpt>
<trkpt lat="46.1711570" lon="10.4888370">
	<ele>2542.20</ele>
	<time>2023-08-09T09:27:11.000Z</time>
</trkpt>
<trkpt lat="46.1711560" lon="10.4888410">
	<ele>2542.00</ele>
	<time>2023-08-09T09:27:12.000Z</time>
</trkpt>
<trkpt lat="46.1711560" lon="10.4888430">
	<ele>2542.00</ele>
	<time>2023-08-09T09:27:13.000Z</time>
</trkpt>
<trkpt lat="46.1711550" lon="10.4888450">
	<ele>2542.00</ele>
	<time>2023-08-09T09:27:14.000Z</time>
</trkpt>
<trkpt lat="46.1711540" lon="10.4888500">
	<ele>2541.80</ele>
	<time>2023-08-09T09:27:15.000Z</time>
</trkpt>
<trkpt lat="46.1711530" lon="10.4888540">
	<ele>2541.60</ele>
	<time>2023-08-09T09:27:16.000Z</time>
</trkpt>
<trkpt lat="46.1711530" lon="10.4888580">
	<ele>2541.60</ele>
	<time>2023-08-09T09:27:17.000Z</time>
</trkpt>
<trkpt lat="46.1711530" lon="10.4888630">
	<ele>2541.40</ele>
	<time>2023-08-09T09:27:18.000Z</time>
</trkpt>
<trkpt lat="46.1711520" lon="10.4888680">
	<ele>2541.20</ele>
	<time>2023-08-09T09:27:19.000Z</time>
</trkpt>
<trkpt lat="46.1711520" lon="10.4888730">
	<ele>2541.20</ele>
	<time>2023-08-09T09:27:20.000Z</time>
</trkpt>
<trkpt lat="46.1711520" lon="10.4888770">
	<ele>2541.00</ele>
	<time>2023-08-09T09:27:21.000Z</time>
</trkpt>
<trkpt lat="46.1711520" lon="10.4888830">
	<ele>2541.00</ele>
	<time>2023-08-09T09:27:22.000Z</time>
</trkpt>
<trkpt lat="46.1711520" lon="10.4888890">
	<ele>2540.80</ele>
	<time>2023-08-09T09:27:23.000Z</time>
</trkpt>
<trkpt lat="46.1711520" lon="10.4888940">
	<ele>2540.40</ele>
	<time>2023-08-09T09:27:24.000Z</time>
</trkpt>
<trkpt lat="46.1711520" lon="10.4888970">
	<ele>2540.20</ele>
	<time>2023-08-09T09:27:25.000Z</time>
</trkpt>
<trkpt lat="46.1711520" lon="10.4889000">
	<ele>2540.20</ele>
	<time>2023-08-09T09:27:26.000Z</time>
</trkpt>
<trkpt lat="46.1711520" lon="10.4889010">
	<ele>2540.00</ele>
	<time>2023-08-09T09:27:27.000Z</time>
</trkpt>
<trkpt lat="46.1711520" lon="10.4889030">
	<ele>2540.00</ele>
	<time>2023-08-09T09:27:28.000Z</time>
</trkpt>
<trkpt lat="46.1711520" lon="10.4889040">
	<ele>2540.00</ele>
	<time>2023-08-09T09:27:29.000Z</time>
</trkpt>
<trkpt lat="46.1711520" lon="10.4889050">
	<ele>2540.00</ele>
	<time>2023-08-09T09:27:30.000Z</time>
</trkpt>
<trkpt lat="46.1711530" lon="10.4889060">
	<ele>2539.80</ele>
	<time>2023-08-09T09:27:31.000Z</time>
</trkpt>
<trkpt lat="46.1711530" lon="10.4889070">
	<ele>2539.80</ele>
	<time>2023-08-09T09:27:32.000Z</time>
</trkpt>
<trkpt lat="46.1711550" lon="10.4889080">
	<ele>2539.80</ele>
	<time>2023-08-09T09:27:33.000Z</time>
</trkpt>
<trkpt lat="46.1711590" lon="10.4889100">
	<ele>2539.60</ele>
	<time>2023-08-09T09:27:34.000Z</time>
</trkpt>
<trkpt lat="46.1711620" lon="10.4889120">
	<ele>2539.40</ele>
	<time>2023-08-09T09:27:35.000Z</time>
</trkpt>
<trkpt lat="46.1711650" lon="10.4889130">
	<ele>2539.20</ele>
	<time>2023-08-09T09:27:36.000Z</time>
</trkpt>
<trkpt lat="46.1711690" lon="10.4889140">
	<ele>2539.00</ele>
	<time>2023-08-09T09:27:37.000Z</time>
</trkpt>
<trkpt lat="46.1711730" lon="10.4889150">
	<ele>2539.00</ele>
	<time>2023-08-09T09:27:38.000Z</time>
</trkpt>
<trkpt lat="46.1711760" lon="10.4889150">
	<ele>2538.80</ele>
	<time>2023-08-09T09:27:39.000Z</time>
</trkpt>
<trkpt lat="46.1711790" lon="10.4889150">
	<ele>2538.60</ele>
	<time>2023-08-09T09:27:40.000Z</time>
</trkpt>
<trkpt lat="46.1711810" lon="10.4889160">
	<ele>2538.60</ele>
	<time>2023-08-09T09:27:41.000Z</time>
</trkpt>
<trkpt lat="46.1711830" lon="10.4889150">
	<ele>2538.40</ele>
	<time>2023-08-09T09:27:42.000Z</time>
</trkpt>
<trkpt lat="46.1711840" lon="10.4889140">
	<ele>2538.00</ele>
	<time>2023-08-09T09:27:43.000Z</time>
</trkpt>
<trkpt lat="46.1711850" lon="10.4889140">
	<ele>2537.80</ele>
	<time>2023-08-09T09:27:44.000Z</time>
</trkpt>
<trkpt lat="46.1711850" lon="10.4889130">
	<ele>2537.60</ele>
	<time>2023-08-09T09:27:45.000Z</time>
</trkpt>
<trkpt lat="46.1711860" lon="10.4889120">
	<ele>2537.40</ele>
	<time>2023-08-09T09:27:46.000Z</time>
</trkpt>
<trkpt lat="46.1711870" lon="10.4889120">
	<ele>2537.20</ele>
	<time>2023-08-09T09:27:47.000Z</time>
</trkpt>
<trkpt lat="46.1711890" lon="10.4889120">
	<ele>2537.00</ele>
	<time>2023-08-09T09:27:48.000Z</time>
</trkpt>
<trkpt lat="46.1711900" lon="10.4889120">
	<ele>2536.80</ele>
	<time>2023-08-09T09:27:49.000Z</time>
</trkpt>
<trkpt lat="46.1711920" lon="10.4889110">
	<ele>2536.60</ele>
	<time>2023-08-09T09:27:50.000Z</time>
</trkpt>
<trkpt lat="46.1711950" lon="10.4889110">
	<ele>2536.60</ele>
	<time>2023-08-09T09:27:51.000Z</time>
</trkpt>
<trkpt lat="46.1711970" lon="10.4889110">
	<ele>2536.40</ele>
	<time>2023-08-09T09:27:52.000Z</time>
</trkpt>
<trkpt lat="46.1711990" lon="10.4889110">
	<ele>2536.40</ele>
	<time>2023-08-09T09:27:53.000Z</time>
</trkpt>
<trkpt lat="46.1712010" lon="10.4889120">
	<ele>2536.20</ele>
	<time>2023-08-09T09:27:54.000Z</time>
</trkpt>
<trkpt lat="46.1712030" lon="10.4889120">
	<ele>2536.20</ele>
	<time>2023-08-09T09:27:55.000Z</time>
</trkpt>
<trkpt lat="46.1712060" lon="10.4889120">
	<ele>2536.00</ele>
	<time>2023-08-09T09:27:56.000Z</time>
</trkpt>
<trkpt lat="46.1712090" lon="10.4889120">
	<ele>2535.80</ele>
	<time>2023-08-09T09:27:57.000Z</time>
</trkpt>
<trkpt lat="46.1712120" lon="10.4889120">
	<ele>2535.60</ele>
	<time>2023-08-09T09:27:58.000Z</time>
</trkpt>
<trkpt lat="46.1712160" lon="10.4889120">
	<ele>2535.20</ele>
	<time>2023-08-09T09:27:59.000Z</time>
</trkpt>
<trkpt lat="46.1712200" lon="10.4889120">
	<ele>2535.00</ele>
	<time>2023-08-09T09:28:00.000Z</time>
</trkpt>
<trkpt lat="46.1712250" lon="10.4889120">
	<ele>2534.80</ele>
	<time>2023-08-09T09:28:01.000Z</time>
</trkpt>
<trkpt lat="46.1712300" lon="10.4889120">
	<ele>2534.80</ele>
	<time>2023-08-09T09:28:02.000Z</time>
</trkpt>
<trkpt lat="46.1712330" lon="10.4889120">
	<ele>2534.80</ele>
	<time>2023-08-09T09:28:03.000Z</time>
</trkpt>
<trkpt lat="46.1712360" lon="10.4889120">
	<ele>2534.80</ele>
	<time>2023-08-09T09:28:04.000Z</time>
</trkpt>
<trkpt lat="46.1712380" lon="10.4889120">
	<ele>2534.60</ele>
	<time>2023-08-09T09:28:05.000Z</time>
</trkpt>
<trkpt lat="46.1712390" lon="10.4889120">
	<ele>2534.60</ele>
	<time>2023-08-09T09:28:06.000Z</time>
</trkpt>
<trkpt lat="46.1712410" lon="10.4889130">
	<ele>2534.40</ele>
	<time>2023-08-09T09:28:07.000Z</time>
</trkpt>
<trkpt lat="46.1712420" lon="10.4889140">
	<ele>2534.60</ele>
	<time>2023-08-09T09:28:08.000Z</time>
</trkpt>
<trkpt lat="46.1712430" lon="10.4889150">
	<ele>2534.60</ele>
	<time>2023-08-09T09:28:09.000Z</time>
</trkpt>
<trkpt lat="46.1712440" lon="10.4889160">
	<ele>2534.60</ele>
	<time>2023-08-09T09:28:10.000Z</time>
</trkpt>
<trkpt lat="46.1712450" lon="10.4889170">
	<ele>2534.80</ele>
	<time>2023-08-09T09:28:11.000Z</time>
</trkpt>
<trkpt lat="46.1712450" lon="10.4889180">
	<ele>2534.80</ele>
	<time>2023-08-09T09:28:12.000Z</time>
</trkpt>
<trkpt lat="46.1712460" lon="10.4889190">
	<ele>2534.80</ele>
	<time>2023-08-09T09:28:13.000Z</time>
</trkpt>
<trkpt lat="46.1712470" lon="10.4889200">
	<ele>2534.80</ele>
	<time>2023-08-09T09:28:14.000Z</time>
</trkpt>
<trkpt lat="46.1712480" lon="10.4889210">
	<ele>2534.60</ele>
	<time>2023-08-09T09:28:15.000Z</time>
</trkpt>
<trkpt lat="46.1712490" lon="10.4889230">
	<ele>2534.60</ele>
	<time>2023-08-09T09:28:16.000Z</time>
</trkpt>
<trkpt lat="46.1712570" lon="10.4889320">
	<ele>2534.60</ele>
	<time>2023-08-09T09:28:17.000Z</time>
</trkpt>
<trkpt lat="46.1712710" lon="10.4889500">
	<ele>2534.40</ele>
	<time>2023-08-09T09:28:18.000Z</time>
</trkpt>
<trkpt lat="46.1712840" lon="10.4889690">
	<ele>2534.20</ele>
	<time>2023-08-09T09:28:19.000Z</time>
</trkpt>
<trkpt lat="46.1712930" lon="10.4889910">
	<ele>2534.20</ele>
	<time>2023-08-09T09:28:20.000Z</time>
</trkpt>
<trkpt lat="46.1713000" lon="10.4890130">
	<ele>2534.00</ele>
	<time>2023-08-09T09:28:21.000Z</time>
</trkpt>
<trkpt lat="46.1713090" lon="10.4890330">
	<ele>2534.00</ele>
	<time>2023-08-09T09:28:22.000Z</time>
</trkpt>
<trkpt lat="46.1713180" lon="10.4890470">
	<ele>2534.00</ele>
	<time>2023-08-09T09:28:23.000Z</time>
</trkpt>
<trkpt lat="46.1713310" lon="10.4890600">
	<ele>2534.00</ele>
	<time>2023-08-09T09:28:24.000Z</time>
</trkpt>
<trkpt lat="46.1713480" lon="10.4890690">
	<ele>2534.00</ele>
	<time>2023-08-09T09:28:25.000Z</time>
</trkpt>
<trkpt lat="46.1713590" lon="10.4890790">
	<ele>2533.80</ele>
	<time>2023-08-09T09:28:26.000Z</time>
</trkpt>
<trkpt lat="46.1713590" lon="10.4890760">
	<ele>2533.80</ele>
	<time>2023-08-09T09:28:27.000Z</time>
</trkpt>
<trkpt lat="46.1713590" lon="10.4890740">
	<ele>2533.80</ele>
	<time>2023-08-09T09:28:28.000Z</time>
</trkpt>
<trkpt lat="46.1713580" lon="10.4890730">
	<ele>2533.60</ele>
	<time>2023-08-09T09:28:29.000Z</time>
</trkpt>
<trkpt lat="46.1713590" lon="10.4890720">
	<ele>2533.60</ele>
	<time>2023-08-09T09:28:30.000Z</time>
</trkpt>
<trkpt lat="46.1713590" lon="10.4890700">
	<ele>2533.60</ele>
	<time>2023-08-09T09:28:31.000Z</time>
</trkpt>
<trkpt lat="46.1713600" lon="10.4890680">
	<ele>2533.60</ele>
	<time>2023-08-09T09:28:32.000Z</time>
</trkpt>
<trkpt lat="46.1713590" lon="10.4890670">
	<ele>2533.60</ele>
	<time>2023-08-09T09:28:33.000Z</time>
</trkpt>
<trkpt lat="46.1713570" lon="10.4890620">
	<ele>2533.60</ele>
	<time>2023-08-09T09:28:34.000Z</time>
</trkpt>
<trkpt lat="46.1713550" lon="10.4890590">
	<ele>2533.80</ele>
	<time>2023-08-09T09:28:35.000Z</time>
</trkpt>
<trkpt lat="46.1713550" lon="10.4890570">
	<ele>2534.00</ele>
	<time>2023-08-09T09:28:36.000Z</time>
</trkpt>
<trkpt lat="46.1713550" lon="10.4890560">
	<ele>2534.00</ele>
	<time>2023-08-09T09:28:37.000Z</time>
</trkpt>
<trkpt lat="46.1713550" lon="10.4890560">
	<ele>2534.20</ele>
	<time>2023-08-09T09:28:38.000Z</time>
</trkpt>
<trkpt lat="46.1713550" lon="10.4890560">
	<ele>2534.20</ele>
	<time>2023-08-09T09:28:39.000Z</time>
</trkpt>
<trkpt lat="46.1713550" lon="10.4890560">
	<ele>2534.20</ele>
	<time>2023-08-09T09:28:40.000Z</time>
</trkpt>
<trkpt lat="46.1713550" lon="10.4890560">
	<ele>2534.20</ele>
	<time>2023-08-09T09:28:41.000Z</time>
</trkpt>
<trkpt lat="46.1713550" lon="10.4890560">
	<ele>2534.20</ele>
	<time>2023-08-09T09:28:42.000Z</time>
</trkpt>
<trkpt lat="46.1713550" lon="10.4890560">
	<ele>2534.40</ele>
	<time>2023-08-09T09:28:43.000Z</time>
</trkpt>
<trkpt lat="46.1713550" lon="10.4890560">
	<ele>2534.40</ele>
	<time>2023-08-09T09:28:44.000Z</time>
</trkpt>
<trkpt lat="46.1713550" lon="10.4890560">
	<ele>2534.40</ele>
	<time>2023-08-09T09:28:45.000Z</time>
</trkpt>
<trkpt lat="46.1713550" lon="10.4890560">
	<ele>2534.40</ele>
	<time>2023-08-09T09:28:46.000Z</time>
</trkpt>
<trkpt lat="46.1713550" lon="10.4890560">
	<ele>2534.40</ele>
	<time>2023-08-09T09:28:47.000Z</time>
</trkpt>
<trkpt lat="46.1713550" lon="10.4890560">
	<ele>2534.40</ele>
	<time>2023-08-09T09:28:48.000Z</time>
</trkpt>
<trkpt lat="46.1713550" lon="10.4890560">
	<ele>2534.40</ele>
	<time>2023-08-09T09:28:49.000Z</time>
</trkpt>
<trkpt lat="46.1713550" lon="10.4890560">
	<ele>2534.20</ele>
	<time>2023-08-09T09:28:50.000Z</time>
</trkpt>
<trkpt lat="46.1713550" lon="10.4890560">
	<ele>2534.20</ele>
	<time>2023-08-09T09:28:51.000Z</time>
</trkpt>
<trkpt lat="46.1713550" lon="10.4890560">
	<ele>2534.20</ele>
	<time>2023-08-09T09:28:52.000Z</time>
</trkpt>
<trkpt lat="46.1713550" lon="10.4890560">
	<ele>2534.00</ele>
	<time>2023-08-09T09:28:53.000Z</time>
</trkpt>
<trkpt lat="46.1713540" lon="10.4890550">
	<ele>2534.00</ele>
	<time>2023-08-09T09:28:54.000Z</time>
</trkpt>
<trkpt lat="46.1713540" lon="10.4890550">
	<ele>2533.60</ele>
	<time>2023-08-09T09:28:55.000Z</time>
</trkpt>
<trkpt lat="46.1713540" lon="10.4890550">
	<ele>2533.40</ele>
	<time>2023-08-09T09:28:56.000Z</time>
</trkpt>
<trkpt lat="46.1713540" lon="10.4890550">
	<ele>2533.40</ele>
	<time>2023-08-09T09:28:57.000Z</time>
</trkpt>
<trkpt lat="46.1713540" lon="10.4890550">
	<ele>2533.20</ele>
	<time>2023-08-09T09:28:58.000Z</time>
</trkpt>
<trkpt lat="46.1713530" lon="10.4890550">
	<ele>2533.40</ele>
	<time>2023-08-09T09:28:59.000Z</time>
</trkpt>
<trkpt lat="46.1713530" lon="10.4890550">
	<ele>2533.40</ele>
	<time>2023-08-09T09:29:00.000Z</time>
</trkpt>
<trkpt lat="46.1713520" lon="10.4890550">
	<ele>2533.60</ele>
	<time>2023-08-09T09:29:01.000Z</time>
</trkpt>
<trkpt lat="46.1713520" lon="10.4890550">
	<ele>2533.80</ele>
	<time>2023-08-09T09:29:02.000Z</time>
</trkpt>
<trkpt lat="46.1713520" lon="10.4890550">
	<ele>2533.80</ele>
	<time>2023-08-09T09:29:03.000Z</time>
</trkpt>
<trkpt lat="46.1713520" lon="10.4890550">
	<ele>2533.80</ele>
	<time>2023-08-09T09:29:04.000Z</time>
</trkpt>
<trkpt lat="46.1713510" lon="10.4890550">
	<ele>2533.80</ele>
	<time>2023-08-09T09:29:05.000Z</time>
</trkpt>
<trkpt lat="46.1713510" lon="10.4890550">
	<ele>2533.80</ele>
	<time>2023-08-09T09:29:06.000Z</time>
</trkpt>
<trkpt lat="46.1713510" lon="10.4890540">
	<ele>2533.80</ele>
	<time>2023-08-09T09:29:07.000Z</time>
</trkpt>
<trkpt lat="46.1713510" lon="10.4890540">
	<ele>2533.80</ele>
	<time>2023-08-09T09:29:08.000Z</time>
</trkpt>
<trkpt lat="46.1713510" lon="10.4890540">
	<ele>2533.60</ele>
	<time>2023-08-09T09:29:09.000Z</time>
</trkpt>
<trkpt lat="46.1713510" lon="10.4890540">
	<ele>2533.80</ele>
	<time>2023-08-09T09:29:10.000Z</time>
</trkpt>
<trkpt lat="46.1713520" lon="10.4890540">
	<ele>2533.80</ele>
	<time>2023-08-09T09:29:11.000Z</time>
</trkpt>
<trkpt lat="46.1713520" lon="10.4890540">
	<ele>2533.80</ele>
	<time>2023-08-09T09:29:12.000Z</time>
</trkpt>
<trkpt lat="46.1713520" lon="10.4890540">
	<ele>2533.80</ele>
	<time>2023-08-09T09:29:13.000Z</time>
</trkpt>
<trkpt lat="46.1713520" lon="10.4890540">
	<ele>2534.00</ele>
	<time>2023-08-09T09:29:14.000Z</time>
</trkpt>
<trkpt lat="46.1713530" lon="10.4890550">
	<ele>2534.00</ele>
	<time>2023-08-09T09:29:15.000Z</time>
</trkpt>
<trkpt lat="46.1713540" lon="10.4890550">
	<ele>2534.00</ele>
	<time>2023-08-09T09:29:16.000Z</time>
</trkpt>
<trkpt lat="46.1713540" lon="10.4890550">
	<ele>2534.00</ele>
	<time>2023-08-09T09:29:17.000Z</time>
</trkpt>
<trkpt lat="46.1713550" lon="10.4890550">
	<ele>2534.20</ele>
	<time>2023-08-09T09:29:18.000Z</time>
</trkpt>
<trkpt lat="46.1713550" lon="10.4890560">
	<ele>2534.40</ele>
	<time>2023-08-09T09:29:19.000Z</time>
</trkpt>
<trkpt lat="46.1713550" lon="10.4890560">
	<ele>2534.40</ele>
	<time>2023-08-09T09:29:20.000Z</time>
</trkpt>
<trkpt lat="46.1713550" lon="10.4890570">
	<ele>2534.40</ele>
	<time>2023-08-09T09:29:21.000Z</time>
</trkpt>
<trkpt lat="46.1713560" lon="10.4890570">
	<ele>2534.60</ele>
	<time>2023-08-09T09:29:22.000Z</time>
</trkpt>
<trkpt lat="46.1713570" lon="10.4890570">
	<ele>2534.80</ele>
	<time>2023-08-09T09:29:23.000Z</time>
</trkpt>
<trkpt lat="46.1713620" lon="10.4890580">
	<ele>2534.80</ele>
	<time>2023-08-09T09:29:24.000Z</time>
</trkpt>
<trkpt lat="46.1713630" lon="10.4890700">
	<ele>2534.80</ele>
	<time>2023-08-09T09:29:25.000Z</time>
</trkpt>
<trkpt lat="46.1713640" lon="10.4890890">
	<ele>2534.80</ele>
	<time>2023-08-09T09:29:26.000Z</time>
</trkpt>
<trkpt lat="46.1713660" lon="10.4891090">
	<ele>2534.80</ele>
	<time>2023-08-09T09:29:27.000Z</time>
</trkpt>
<trkpt lat="46.1713690" lon="10.4891300">
	<ele>2534.80</ele>
	<time>2023-08-09T09:29:28.000Z</time>
</trkpt>
<trkpt lat="46.1713700" lon="10.4891480">
	<ele>2534.80</ele>
	<time>2023-08-09T09:29:29.000Z</time>
</trkpt>
<trkpt lat="46.1713690" lon="10.4891650">
	<ele>2534.60</ele>
	<time>2023-08-09T09:29:30.000Z</time>
</trkpt>
<trkpt lat="46.1713700" lon="10.4891840">
	<ele>2534.60</ele>
	<time>2023-08-09T09:29:31.000Z</time>
</trkpt>
<trkpt lat="46.1713710" lon="10.4892030">
	<ele>2534.60</ele>
	<time>2023-08-09T09:29:32.000Z</time>
</trkpt>
<trkpt lat="46.1713730" lon="10.4892220">
	<ele>2534.60</ele>
	<time>2023-08-09T09:29:33.000Z</time>
</trkpt>
<trkpt lat="46.1713740" lon="10.4892400">
	<ele>2534.20</ele>
	<time>2023-08-09T09:29:34.000Z</time>
</trkpt>
<trkpt lat="46.1713740" lon="10.4892460">
	<ele>2534.20</ele>
	<time>2023-08-09T09:29:35.000Z</time>
</trkpt>
<trkpt lat="46.1713750" lon="10.4892560">
	<ele>2534.00</ele>
	<time>2023-08-09T09:29:36.000Z</time>
</trkpt>
<trkpt lat="46.1713750" lon="10.4892660">
	<ele>2534.00</ele>
	<time>2023-08-09T09:29:37.000Z</time>
</trkpt>
<trkpt lat="46.1713740" lon="10.4892720">
	<ele>2534.00</ele>
	<time>2023-08-09T09:29:38.000Z</time>
</trkpt>
<trkpt lat="46.1713720" lon="10.4892770">
	<ele>2534.20</ele>
	<time>2023-08-09T09:29:39.000Z</time>
</trkpt>
<trkpt lat="46.1713720" lon="10.4892840">
	<ele>2534.40</ele>
	<time>2023-08-09T09:29:40.000Z</time>
</trkpt>
<trkpt lat="46.1713710" lon="10.4892950">
	<ele>2534.40</ele>
	<time>2023-08-09T09:29:41.000Z</time>
</trkpt>
<trkpt lat="46.1713680" lon="10.4893020">
	<ele>2534.60</ele>
	<time>2023-08-09T09:29:42.000Z</time>
</trkpt>
<trkpt lat="46.1713680" lon="10.4893080">
	<ele>2534.60</ele>
	<time>2023-08-09T09:29:43.000Z</time>
</trkpt>
<trkpt lat="46.1713680" lon="10.4893140">
	<ele>2534.60</ele>
	<time>2023-08-09T09:29:44.000Z</time>
</trkpt>
<trkpt lat="46.1713700" lon="10.4893220">
	<ele>2534.80</ele>
	<time>2023-08-09T09:29:45.000Z</time>
</trkpt>
<trkpt lat="46.1713670" lon="10.4893300">
	<ele>2534.80</ele>
	<time>2023-08-09T09:29:46.000Z</time>
</trkpt>
<trkpt lat="46.1713640" lon="10.4893350">
	<ele>2534.80</ele>
	<time>2023-08-09T09:29:47.000Z</time>
</trkpt>
<trkpt lat="46.1713630" lon="10.4893380">
	<ele>2534.80</ele>
	<time>2023-08-09T09:29:48.000Z</time>
</trkpt>
<trkpt lat="46.1713620" lon="10.4893410">
	<ele>2534.80</ele>
	<time>2023-08-09T09:29:49.000Z</time>
</trkpt>
<trkpt lat="46.1713640" lon="10.4893400">
	<ele>2534.80</ele>
	<time>2023-08-09T09:29:50.000Z</time>
</trkpt>
<trkpt lat="46.1713690" lon="10.4893430">
	<ele>2534.60</ele>
	<time>2023-08-09T09:29:51.000Z</time>
</trkpt>
<trkpt lat="46.1713680" lon="10.4893390">
	<ele>2534.60</ele>
	<time>2023-08-09T09:29:52.000Z</time>
</trkpt>
<trkpt lat="46.1713700" lon="10.4893380">
	<ele>2534.40</ele>
	<time>2023-08-09T09:29:53.000Z</time>
</trkpt>
<trkpt lat="46.1713740" lon="10.4893400">
	<ele>2534.20</ele>
	<time>2023-08-09T09:29:54.000Z</time>
</trkpt>
<trkpt lat="46.1713750" lon="10.4893450">
	<ele>2534.20</ele>
	<time>2023-08-09T09:29:55.000Z</time>
</trkpt>
<trkpt lat="46.1713750" lon="10.4893530">
	<ele>2534.20</ele>
	<time>2023-08-09T09:29:56.000Z</time>
</trkpt>
<trkpt lat="46.1713770" lon="10.4893590">
	<ele>2534.00</ele>
	<time>2023-08-09T09:29:57.000Z</time>
</trkpt>
<trkpt lat="46.1713790" lon="10.4893670">
	<ele>2533.20</ele>
	<time>2023-08-09T09:29:58.000Z</time>
</trkpt>
<trkpt lat="46.1713790" lon="10.4893730">
	<ele>2533.20</ele>
	<time>2023-08-09T09:29:59.000Z</time>
</trkpt>
<trkpt lat="46.1713800" lon="10.4893830">
	<ele>2533.20</ele>
	<time>2023-08-09T09:30:00.000Z</time>
</trkpt>
<trkpt lat="46.1713840" lon="10.4893910">
	<ele>2533.20</ele>
	<time>2023-08-09T09:30:01.000Z</time>
</trkpt>
<trkpt lat="46.1713850" lon="10.4893940">
	<ele>2533.20</ele>
	<time>2023-08-09T09:30:02.000Z</time>
</trkpt>
<trkpt lat="46.1713890" lon="10.4893980">
	<ele>2533.20</ele>
	<time>2023-08-09T09:30:03.000Z</time>
</trkpt>
<trkpt lat="46.1713920" lon="10.4894030">
	<ele>2533.20</ele>
	<time>2023-08-09T09:30:04.000Z</time>
</trkpt>
<trkpt lat="46.1713950" lon="10.4894070">
	<ele>2533.20</ele>
	<time>2023-08-09T09:30:05.000Z</time>
</trkpt>
<trkpt lat="46.1714010" lon="10.4894180">
	<ele>2533.20</ele>
	<time>2023-08-09T09:30:06.000Z</time>
</trkpt>
<trkpt lat="46.1714030" lon="10.4894240">
	<ele>2533.20</ele>
	<time>2023-08-09T09:30:07.000Z</time>
</trkpt>
<trkpt lat="46.1714070" lon="10.4894330">
	<ele>2533.20</ele>
	<time>2023-08-09T09:30:08.000Z</time>
</trkpt>
<trkpt lat="46.1714090" lon="10.4894390">
	<ele>2533.20</ele>
	<time>2023-08-09T09:30:09.000Z</time>
</trkpt>
<trkpt lat="46.1714130" lon="10.4894470">
	<ele>2533.20</ele>
	<time>2023-08-09T09:30:10.000Z</time>
</trkpt>
<trkpt lat="46.1714200" lon="10.4894580">
	<ele>2533.20</ele>
	<time>2023-08-09T09:30:11.000Z</time>
</trkpt>
<trkpt lat="46.1714320" lon="10.4894670">
	<ele>2533.20</ele>
	<time>2023-08-09T09:30:12.000Z</time>
</trkpt>
<trkpt lat="46.1714370" lon="10.4894770">
	<ele>2533.20</ele>
	<time>2023-08-09T09:30:13.000Z</time>
</trkpt>
<trkpt lat="46.1714390" lon="10.4894900">
	<ele>2533.20</ele>
	<time>2023-08-09T09:30:14.000Z</time>
</trkpt>
<trkpt lat="46.1714400" lon="10.4894960">
	<ele>2533.20</ele>
	<time>2023-08-09T09:30:15.000Z</time>
</trkpt>
<trkpt lat="46.1714420" lon="10.4895010">
	<ele>2533.20</ele>
	<time>2023-08-09T09:30:16.000Z</time>
</trkpt>
<trkpt lat="46.1714460" lon="10.4895040">
	<ele>2533.20</ele>
	<time>2023-08-09T09:30:17.000Z</time>
</trkpt>
<trkpt lat="46.1714520" lon="10.4895100">
	<ele>2533.20</ele>
	<time>2023-08-09T09:30:18.000Z</time>
</trkpt>
<trkpt lat="46.1714560" lon="10.4895160">
	<ele>2533.20</ele>
	<time>2023-08-09T09:30:19.000Z</time>
</trkpt>
<trkpt lat="46.1714600" lon="10.4895270">
	<ele>2533.20</ele>
	<time>2023-08-09T09:30:20.000Z</time>
</trkpt>
<trkpt lat="46.1714620" lon="10.4895410">
	<ele>2533.20</ele>
	<time>2023-08-09T09:30:21.000Z</time>
</trkpt>
<trkpt lat="46.1714610" lon="10.4895520">
	<ele>2533.20</ele>
	<time>2023-08-09T09:30:22.000Z</time>
</trkpt>
<trkpt lat="46.1714610" lon="10.4895640">
	<ele>2533.20</ele>
	<time>2023-08-09T09:30:23.000Z</time>
</trkpt>
<trkpt lat="46.1714590" lon="10.4895730">
	<ele>2533.20</ele>
	<time>2023-08-09T09:30:24.000Z</time>
</trkpt>
<trkpt lat="46.1714580" lon="10.4895810">
	<ele>2533.20</ele>
	<time>2023-08-09T09:30:25.000Z</time>
</trkpt>
<trkpt lat="46.1714570" lon="10.4895870">
	<ele>2533.20</ele>
	<time>2023-08-09T09:30:26.000Z</time>
</trkpt>
<trkpt lat="46.1714560" lon="10.4895930">
	<ele>2533.20</ele>
	<time>2023-08-09T09:30:27.000Z</time>
</trkpt>
<trkpt lat="46.1714550" lon="10.4895980">
	<ele>2533.20</ele>
	<time>2023-08-09T09:30:28.000Z</time>
</trkpt>
<trkpt lat="46.1714540" lon="10.4896050">
	<ele>2533.20</ele>
	<time>2023-08-09T09:30:29.000Z</time>
</trkpt>
<trkpt lat="46.1714540" lon="10.4896100">
	<ele>2533.20</ele>
	<time>2023-08-09T09:30:30.000Z</time>
</trkpt>
<trkpt lat="46.1714560" lon="10.4896150">
	<ele>2533.20</ele>
	<time>2023-08-09T09:30:31.000Z</time>
</trkpt>
<trkpt lat="46.1714600" lon="10.4896190">
	<ele>2533.20</ele>
	<time>2023-08-09T09:30:32.000Z</time>
</trkpt>
<trkpt lat="46.1714660" lon="10.4896230">
	<ele>2533.20</ele>
	<time>2023-08-09T09:30:33.000Z</time>
</trkpt>
<trkpt lat="46.1714740" lon="10.4896290">
	<ele>2533.20</ele>
	<time>2023-08-09T09:30:34.000Z</time>
</trkpt>
<trkpt lat="46.1714790" lon="10.4896380">
	<ele>2533.20</ele>
	<time>2023-08-09T09:30:35.000Z</time>
</trkpt>
<trkpt lat="46.1714840" lon="10.4896450">
	<ele>2533.20</ele>
	<time>2023-08-09T09:30:36.000Z</time>
</trkpt>
<trkpt lat="46.1714870" lon="10.4896540">
	<ele>2533.20</ele>
	<time>2023-08-09T09:30:37.000Z</time>
</trkpt>
<trkpt lat="46.1714910" lon="10.4896630">
	<ele>2533.20</ele>
	<time>2023-08-09T09:30:38.000Z</time>
</trkpt>
<trkpt lat="46.1714960" lon="10.4896730">
	<ele>2533.20</ele>
	<time>2023-08-09T09:30:39.000Z</time>
</trkpt>
<trkpt lat="46.1714990" lon="10.4896810">
	<ele>2533.20</ele>
	<time>2023-08-09T09:30:40.000Z</time>
</trkpt>
<trkpt lat="46.1715020" lon="10.4896870">
	<ele>2533.20</ele>
	<time>2023-08-09T09:30:41.000Z</time>
</trkpt>
<trkpt lat="46.1715060" lon="10.4896890">
	<ele>2533.20</ele>
	<time>2023-08-09T09:30:42.000Z</time>
</trkpt>
<trkpt lat="46.1715090" lon="10.4896900">
	<ele>2533.20</ele>
	<time>2023-08-09T09:30:43.000Z</time>
</trkpt>
<trkpt lat="46.1715140" lon="10.4896910">
	<ele>2533.20</ele>
	<time>2023-08-09T09:30:44.000Z</time>
</trkpt>
<trkpt lat="46.1715190" lon="10.4896920">
	<ele>2533.20</ele>
	<time>2023-08-09T09:30:45.000Z</time>
</trkpt>
<trkpt lat="46.1715190" lon="10.4896980">
	<ele>2533.20</ele>
	<time>2023-08-09T09:30:46.000Z</time>
</trkpt>
<trkpt lat="46.1715190" lon="10.4897070">
	<ele>2533.20</ele>
	<time>2023-08-09T09:30:47.000Z</time>
</trkpt>
<trkpt lat="46.1715190" lon="10.4897160">
	<ele>2533.20</ele>
	<time>2023-08-09T09:30:48.000Z</time>
</trkpt>
<trkpt lat="46.1715170" lon="10.4897250">
	<ele>2533.20</ele>
	<time>2023-08-09T09:30:49.000Z</time>
</trkpt>
<trkpt lat="46.1715140" lon="10.4897370">
	<ele>2533.20</ele>
	<time>2023-08-09T09:30:50.000Z</time>
</trkpt>
<trkpt lat="46.1715120" lon="10.4897490">
	<ele>2533.20</ele>
	<time>2023-08-09T09:30:51.000Z</time>
</trkpt>
<trkpt lat="46.1715100" lon="10.4897570">
	<ele>2533.20</ele>
	<time>2023-08-09T09:30:52.000Z</time>
</trkpt>
<trkpt lat="46.1715080" lon="10.4897640">
	<ele>2533.20</ele>
	<time>2023-08-09T09:30:53.000Z</time>
</trkpt>
<trkpt lat="46.1715090" lon="10.4897690">
	<ele>2533.20</ele>
	<time>2023-08-09T09:30:54.000Z</time>
</trkpt>
<trkpt lat="46.1715110" lon="10.4897710">
	<ele>2533.20</ele>
	<time>2023-08-09T09:30:55.000Z</time>
</trkpt>
<trkpt lat="46.1715130" lon="10.4897700">
	<ele>2533.20</ele>
	<time>2023-08-09T09:30:56.000Z</time>
</trkpt>
<trkpt lat="46.1715140" lon="10.4897710">
	<ele>2533.20</ele>
	<time>2023-08-09T09:30:57.000Z</time>
</trkpt>
<trkpt lat="46.1715140" lon="10.4897710">
	<ele>2533.20</ele>
	<time>2023-08-09T09:30:58.000Z</time>
</trkpt>
<trkpt lat="46.1715150" lon="10.4897690">
	<ele>2529.80</ele>
	<time>2023-08-09T09:30:59.000Z</time>
</trkpt>
<trkpt lat="46.1715160" lon="10.4897660">
	<ele>2529.80</ele>
	<time>2023-08-09T09:31:00.000Z</time>
</trkpt>
<trkpt lat="46.1715150" lon="10.4897650">
	<ele>2529.80</ele>
	<time>2023-08-09T09:31:01.000Z</time>
</trkpt>
<trkpt lat="46.1715140" lon="10.4897640">
	<ele>2529.80</ele>
	<time>2023-08-09T09:31:02.000Z</time>
</trkpt>
<trkpt lat="46.1715130" lon="10.4897640">
	<ele>2529.80</ele>
	<time>2023-08-09T09:31:03.000Z</time>
</trkpt>
<trkpt lat="46.1715120" lon="10.4897630">
	<ele>2530.00</ele>
	<time>2023-08-09T09:31:04.000Z</time>
</trkpt>
<trkpt lat="46.1715120" lon="10.4897630">
	<ele>2530.00</ele>
	<time>2023-08-09T09:31:05.000Z</time>
</trkpt>
<trkpt lat="46.1715120" lon="10.4897630">
	<ele>2530.00</ele>
	<time>2023-08-09T09:31:06.000Z</time>
</trkpt>
<trkpt lat="46.1715120" lon="10.4897630">
	<ele>2530.20</ele>
	<time>2023-08-09T09:31:07.000Z</time>
</trkpt>
<trkpt lat="46.1715120" lon="10.4897630">
	<ele>2530.20</ele>
	<time>2023-08-09T09:31:08.000Z</time>
</trkpt>
<trkpt lat="46.1715120" lon="10.4897630">
	<ele>2530.20</ele>
	<time>2023-08-09T09:31:09.000Z</time>
</trkpt>
<trkpt lat="46.1715120" lon="10.4897630">
	<ele>2530.20</ele>
	<time>2023-08-09T09:31:10.000Z</time>
</trkpt>
<trkpt lat="46.1715120" lon="10.4897630">
	<ele>2530.20</ele>
	<time>2023-08-09T09:31:11.000Z</time>
</trkpt>
<trkpt lat="46.1715120" lon="10.4897630">
	<ele>2530.00</ele>
	<time>2023-08-09T09:31:12.000Z</time>
</trkpt>
<trkpt lat="46.1715120" lon="10.4897630">
	<ele>2530.00</ele>
	<time>2023-08-09T09:31:13.000Z</time>
</trkpt>
<trkpt lat="46.1715120" lon="10.4897640">
	<ele>2529.60</ele>
	<time>2023-08-09T09:31:14.000Z</time>
</trkpt>
<trkpt lat="46.1715120" lon="10.4897640">
	<ele>2529.60</ele>
	<time>2023-08-09T09:31:15.000Z</time>
</trkpt>
<trkpt lat="46.1715120" lon="10.4897640">
	<ele>2529.40</ele>
	<time>2023-08-09T09:31:16.000Z</time>
</trkpt>
<trkpt lat="46.1715120" lon="10.4897640">
	<ele>2529.40</ele>
	<time>2023-08-09T09:31:17.000Z</time>
</trkpt>
<trkpt lat="46.1715120" lon="10.4897640">
	<ele>2529.40</ele>
	<time>2023-08-09T09:31:18.000Z</time>
</trkpt>
<trkpt lat="46.1715120" lon="10.4897640">
	<ele>2529.40</ele>
	<time>2023-08-09T09:31:19.000Z</time>
</trkpt>
<trkpt lat="46.1715120" lon="10.4897650">
	<ele>2529.60</ele>
	<time>2023-08-09T09:31:20.000Z</time>
</trkpt>
<trkpt lat="46.1715120" lon="10.4897650">
	<ele>2529.60</ele>
	<time>2023-08-09T09:31:21.000Z</time>
</trkpt>
<trkpt lat="46.1715120" lon="10.4897660">
	<ele>2530.00</ele>
	<time>2023-08-09T09:31:22.000Z</time>
</trkpt>
<trkpt lat="46.1715060" lon="10.4897730">
	<ele>2530.20</ele>
	<time>2023-08-09T09:31:23.000Z</time>
</trkpt>
<trkpt lat="46.1714930" lon="10.4897860">
	<ele>2530.40</ele>
	<time>2023-08-09T09:31:24.000Z</time>
</trkpt>
<trkpt lat="46.1714780" lon="10.4898000">
	<ele>2530.80</ele>
	<time>2023-08-09T09:31:25.000Z</time>
</trkpt>
<trkpt lat="46.1714660" lon="10.4898130">
	<ele>2531.00</ele>
	<time>2023-08-09T09:31:26.000Z</time>
</trkpt>
<trkpt lat="46.1714550" lon="10.4898290">
	<ele>2531.00</ele>
	<time>2023-08-09T09:31:27.000Z</time>
</trkpt>
<trkpt lat="46.1714440" lon="10.4898480">
	<ele>2531.00</ele>
	<time>2023-08-09T09:31:28.000Z</time>
</trkpt>
<trkpt lat="46.1714350" lon="10.4898680">
	<ele>2531.20</ele>
	<time>2023-08-09T09:31:29.000Z</time>
</trkpt>
<trkpt lat="46.1714220" lon="10.4898850">
	<ele>2531.20</ele>
	<time>2023-08-09T09:31:30.000Z</time>
</trkpt>
<trkpt lat="46.1714100" lon="10.4899000">
	<ele>2531.40</ele>
	<time>2023-08-09T09:31:31.000Z</time>
</trkpt>
<trkpt lat="46.1713980" lon="10.4899120">
	<ele>2531.60</ele>
	<time>2023-08-09T09:31:32.000Z</time>
</trkpt>
<trkpt lat="46.1713920" lon="10.4899180">
	<ele>2531.60</ele>
	<time>2023-08-09T09:31:33.000Z</time>
</trkpt>
<trkpt lat="46.1713850" lon="10.4899240">
	<ele>2531.80</ele>
	<time>2023-08-09T09:31:34.000Z</time>
</trkpt>
<trkpt lat="46.1713820" lon="10.4899320">
	<ele>2532.00</ele>
	<time>2023-08-09T09:31:35.000Z</time>
</trkpt>
<trkpt lat="46.1713810" lon="10.4899420">
	<ele>2532.00</ele>
	<time>2023-08-09T09:31:36.000Z</time>
</trkpt>
<trkpt lat="46.1713800" lon="10.4899560">
	<ele>2532.00</ele>
	<time>2023-08-09T09:31:37.000Z</time>
</trkpt>
<trkpt lat="46.1713820" lon="10.4899690">
	<ele>2532.00</ele>
	<time>2023-08-09T09:31:38.000Z</time>
</trkpt>
<trkpt lat="46.1713800" lon="10.4899810">
	<ele>2532.00</ele>
	<time>2023-08-09T09:31:39.000Z</time>
</trkpt>
<trkpt lat="46.1713800" lon="10.4899940">
	<ele>2532.00</ele>
	<time>2023-08-09T09:31:40.000Z</time>
</trkpt>
<trkpt lat="46.1713770" lon="10.4900020">
	<ele>2532.00</ele>
	<time>2023-08-09T09:31:41.000Z</time>
</trkpt>
<trkpt lat="46.1713770" lon="10.4900130">
	<ele>2532.00</ele>
	<time>2023-08-09T09:31:42.000Z</time>
</trkpt>
<trkpt lat="46.1713780" lon="10.4900250">
	<ele>2532.00</ele>
	<time>2023-08-09T09:31:43.000Z</time>
</trkpt>
<trkpt lat="46.1713780" lon="10.4900360">
	<ele>2532.00</ele>
	<time>2023-08-09T09:31:44.000Z</time>
</trkpt>
<trkpt lat="46.1713780" lon="10.4900440">
	<ele>2532.00</ele>
	<time>2023-08-09T09:31:45.000Z</time>
</trkpt>
<trkpt lat="46.1713790" lon="10.4900530">
	<ele>2531.80</ele>
	<time>2023-08-09T09:31:46.000Z</time>
</trkpt>
<trkpt lat="46.1713790" lon="10.4900620">
	<ele>2531.80</ele>
	<time>2023-08-09T09:31:47.000Z</time>
</trkpt>
<trkpt lat="46.1713760" lon="10.4900710">
	<ele>2531.80</ele>
	<time>2023-08-09T09:31:48.000Z</time>
</trkpt>
<trkpt lat="46.1713730" lon="10.4900770">
	<ele>2531.80</ele>
	<time>2023-08-09T09:31:49.000Z</time>
</trkpt>
<trkpt lat="46.1713700" lon="10.4900810">
	<ele>2531.80</ele>
	<time>2023-08-09T09:31:50.000Z</time>
</trkpt>
<trkpt lat="46.1713660" lon="10.4900900">
	<ele>2531.80</ele>
	<time>2023-08-09T09:31:51.000Z</time>
</trkpt>
<trkpt lat="46.1713640" lon="10.4900990">
	<ele>2531.60</ele>
	<time>2023-08-09T09:31:52.000Z</time>
</trkpt>
<trkpt lat="46.1713630" lon="10.4901090">
	<ele>2531.80</ele>
	<time>2023-08-09T09:31:53.000Z</time>
</trkpt>
<trkpt lat="46.1713590" lon="10.4901180">
	<ele>2531.80</ele>
	<time>2023-08-09T09:31:54.000Z</time>
</trkpt>
<trkpt lat="46.1713570" lon="10.4901250">
	<ele>2531.80</ele>
	<time>2023-08-09T09:31:55.000Z</time>
</trkpt>
<trkpt lat="46.1713540" lon="10.4901330">
	<ele>2532.00</ele>
	<time>2023-08-09T09:31:56.000Z</time>
</trkpt>
<trkpt lat="46.1713490" lon="10.4901390">
	<ele>2532.20</ele>
	<time>2023-08-09T09:31:57.000Z</time>
</trkpt>
<trkpt lat="46.1713450" lon="10.4901410">
	<ele>2532.20</ele>
	<time>2023-08-09T09:31:58.000Z</time>
</trkpt>
<trkpt lat="46.1713410" lon="10.4901430">
	<ele>2532.40</ele>
	<time>2023-08-09T09:31:59.000Z</time>
</trkpt>
<trkpt lat="46.1713340" lon="10.4901490">
	<ele>2532.40</ele>
	<time>2023-08-09T09:32:00.000Z</time>
</trkpt>
<trkpt lat="46.1713320" lon="10.4901570">
	<ele>2532.40</ele>
	<time>2023-08-09T09:32:01.000Z</time>
</trkpt>
<trkpt lat="46.1713310" lon="10.4901620">
	<ele>2532.40</ele>
	<time>2023-08-09T09:32:02.000Z</time>
</trkpt>
<trkpt lat="46.1713300" lon="10.4901740">
	<ele>2532.20</ele>
	<time>2023-08-09T09:32:03.000Z</time>
</trkpt>
<trkpt lat="46.1713300" lon="10.4901850">
	<ele>2532.20</ele>
	<time>2023-08-09T09:32:04.000Z</time>
</trkpt>
<trkpt lat="46.1713350" lon="10.4901930">
	<ele>2532.20</ele>
	<time>2023-08-09T09:32:05.000Z</time>
</trkpt>
<trkpt lat="46.1713390" lon="10.4902000">
	<ele>2532.00</ele>
	<time>2023-08-09T09:32:06.000Z</time>
</trkpt>
<trkpt lat="46.1713400" lon="10.4902040">
	<ele>2532.00</ele>
	<time>2023-08-09T09:32:07.000Z</time>
</trkpt>
<trkpt lat="46.1713390" lon="10.4902050">
	<ele>2532.00</ele>
	<time>2023-08-09T09:32:08.000Z</time>
</trkpt>
<trkpt lat="46.1713380" lon="10.4902050">
	<ele>2532.00</ele>
	<time>2023-08-09T09:32:09.000Z</time>
</trkpt>
<trkpt lat="46.1713390" lon="10.4902060">
	<ele>2532.00</ele>
	<time>2023-08-09T09:32:10.000Z</time>
</trkpt>
<trkpt lat="46.1713400" lon="10.4902060">
	<ele>2532.00</ele>
	<time>2023-08-09T09:32:11.000Z</time>
</trkpt>
<trkpt lat="46.1713380" lon="10.4902040">
	<ele>2532.00</ele>
	<time>2023-08-09T09:32:12.000Z</time>
</trkpt>
<trkpt lat="46.1713340" lon="10.4902020">
	<ele>2532.00</ele>
	<time>2023-08-09T09:32:13.000Z</time>
</trkpt>
<trkpt lat="46.1713310" lon="10.4902010">
	<ele>2532.00</ele>
	<time>2023-08-09T09:32:14.000Z</time>
</trkpt>
<trkpt lat="46.1713280" lon="10.4901990">
	<ele>2532.00</ele>
	<time>2023-08-09T09:32:15.000Z</time>
</trkpt>
<trkpt lat="46.1713250" lon="10.4901980">
	<ele>2532.00</ele>
	<time>2023-08-09T09:32:16.000Z</time>
</trkpt>
<trkpt lat="46.1713240" lon="10.4901980">
	<ele>2532.20</ele>
	<time>2023-08-09T09:32:17.000Z</time>
</trkpt>
<trkpt lat="46.1713240" lon="10.4901980">
	<ele>2532.20</ele>
	<time>2023-08-09T09:32:18.000Z</time>
</trkpt>
<trkpt lat="46.1713240" lon="10.4901980">
	<ele>2532.20</ele>
	<time>2023-08-09T09:32:19.000Z</time>
</trkpt>
<trkpt lat="46.1713240" lon="10.4901980">
	<ele>2532.40</ele>
	<time>2023-08-09T09:32:20.000Z</time>
</trkpt>
<trkpt lat="46.1713240" lon="10.4901980">
	<ele>2532.60</ele>
	<time>2023-08-09T09:32:21.000Z</time>
</trkpt>
<trkpt lat="46.1713240" lon="10.4901980">
	<ele>2532.60</ele>
	<time>2023-08-09T09:32:22.000Z</time>
</trkpt>
<trkpt lat="46.1713240" lon="10.4901980">
	<ele>2532.80</ele>
	<time>2023-08-09T09:32:23.000Z</time>
</trkpt>
<trkpt lat="46.1713240" lon="10.4901980">
	<ele>2532.80</ele>
	<time>2023-08-09T09:32:24.000Z</time>
</trkpt>
<trkpt lat="46.1713240" lon="10.4901980">
	<ele>2532.80</ele>
	<time>2023-08-09T09:32:25.000Z</time>
</trkpt>
<trkpt lat="46.1713240" lon="10.4901990">
	<ele>2532.80</ele>
	<time>2023-08-09T09:32:26.000Z</time>
</trkpt>
<trkpt lat="46.1713240" lon="10.4901990">
	<ele>2532.80</ele>
	<time>2023-08-09T09:32:27.000Z</time>
</trkpt>
<trkpt lat="46.1713240" lon="10.4902000">
	<ele>2532.80</ele>
	<time>2023-08-09T09:32:28.000Z</time>
</trkpt>
<trkpt lat="46.1713240" lon="10.4902000">
	<ele>2532.80</ele>
	<time>2023-08-09T09:32:29.000Z</time>
</trkpt>
<trkpt lat="46.1713240" lon="10.4902010">
	<ele>2532.60</ele>
	<time>2023-08-09T09:32:30.000Z</time>
</trkpt>
<trkpt lat="46.1713240" lon="10.4902010">
	<ele>2532.40</ele>
	<time>2023-08-09T09:32:31.000Z</time>
</trkpt>
<trkpt lat="46.1713240" lon="10.4902010">
	<ele>2532.20</ele>
	<time>2023-08-09T09:32:32.000Z</time>
</trkpt>
<trkpt lat="46.1713240" lon="10.4902010">
	<ele>2532.20</ele>
	<time>2023-08-09T09:32:33.000Z</time>
</trkpt>
<trkpt lat="46.1713240" lon="10.4902020">
	<ele>2532.00</ele>
	<time>2023-08-09T09:32:34.000Z</time>
</trkpt>
<trkpt lat="46.1713240" lon="10.4902030">
	<ele>2532.00</ele>
	<time>2023-08-09T09:32:35.000Z</time>
</trkpt>
<trkpt lat="46.1713240" lon="10.4902040">
	<ele>2531.80</ele>
	<time>2023-08-09T09:32:36.000Z</time>
</trkpt>
<trkpt lat="46.1713250" lon="10.4902040">
	<ele>2531.80</ele>
	<time>2023-08-09T09:32:37.000Z</time>
</trkpt>
<trkpt lat="46.1713250" lon="10.4902040">
	<ele>2531.60</ele>
	<time>2023-08-09T09:32:38.000Z</time>
</trkpt>
<trkpt lat="46.1713250" lon="10.4902040">
	<ele>2531.60</ele>
	<time>2023-08-09T09:32:39.000Z</time>
</trkpt>
<trkpt lat="46.1713250" lon="10.4902040">
	<ele>2531.60</ele>
	<time>2023-08-09T09:32:40.000Z</time>
</trkpt>
<trkpt lat="46.1713250" lon="10.4902040">
	<ele>2531.60</ele>
	<time>2023-08-09T09:32:41.000Z</time>
</trkpt>
<trkpt lat="46.1713250" lon="10.4902050">
	<ele>2531.40</ele>
	<time>2023-08-09T09:32:42.000Z</time>
</trkpt>
<trkpt lat="46.1713250" lon="10.4902050">
	<ele>2531.20</ele>
	<time>2023-08-09T09:32:43.000Z</time>
</trkpt>
<trkpt lat="46.1713270" lon="10.4902160">
	<ele>2531.20</ele>
	<time>2023-08-09T09:32:44.000Z</time>
</trkpt>
<trkpt lat="46.1713300" lon="10.4902380">
	<ele>2531.20</ele>
	<time>2023-08-09T09:32:45.000Z</time>
</trkpt>
<trkpt lat="46.1713350" lon="10.4902580">
	<ele>2531.00</ele>
	<time>2023-08-09T09:32:46.000Z</time>
</trkpt>
<trkpt lat="46.1713420" lon="10.4902840">
	<ele>2531.00</ele>
	<time>2023-08-09T09:32:47.000Z</time>
</trkpt>
<trkpt lat="46.1713510" lon="10.4903100">
	<ele>2531.00</ele>
	<time>2023-08-09T09:32:48.000Z</time>
</trkpt>
<trkpt lat="46.1713610" lon="10.4903330">
	<ele>2531.00</ele>
	<time>2023-08-09T09:32:49.000Z</time>
</trkpt>
<trkpt lat="46.1713690" lon="10.4903570">
	<ele>2531.20</ele>
	<time>2023-08-09T09:32:50.000Z</time>
</trkpt>
<trkpt lat="46.1713780" lon="10.4903830">
	<ele>2531.40</ele>
	<time>2023-08-09T09:32:51.000Z</time>
</trkpt>
<trkpt lat="46.1713850" lon="10.4904100">
	<ele>2531.40</ele>
	<time>2023-08-09T09:32:52.000Z</time>
</trkpt>
<trkpt lat="46.1713920" lon="10.4904340">
	<ele>2531.60</ele>
	<time>2023-08-09T09:32:53.000Z</time>
</trkpt>
<trkpt lat="46.1713980" lon="10.4904400">
	<ele>2531.60</ele>
	<time>2023-08-09T09:32:54.000Z</time>
</trkpt>
<trkpt lat="46.1714080" lon="10.4904440">
	<ele>2531.20</ele>
	<time>2023-08-09T09:32:55.000Z</time>
</trkpt>
<trkpt lat="46.1714180" lon="10.4904470">
	<ele>2531.00</ele>
	<time>2023-08-09T09:32:56.000Z</time>
</trkpt>
<trkpt lat="46.1714290" lon="10.4904500">
	<ele>2531.00</ele>
	<time>2023-08-09T09:32:57.000Z</time>
</trkpt>
<trkpt lat="46.1714360" lon="10.4904520">
	<ele>2530.80</ele>
	<time>2023-08-09T09:32:58.000Z</time>
</trkpt>
<trkpt lat="46.1714410" lon="10.4904550">
	<ele>2530.80</ele>
	<time>2023-08-09T09:32:59.000Z</time>
</trkpt>
<trkpt lat="46.1714530" lon="10.4904600">
	<ele>2530.80</ele>
	<time>2023-08-09T09:33:00.000Z</time>
</trkpt>
<trkpt lat="46.1714640" lon="10.4904630">
	<ele>2530.80</ele>
	<time>2023-08-09T09:33:01.000Z</time>
</trkpt>
<trkpt lat="46.1714720" lon="10.4904650">
	<ele>2530.80</ele>
	<time>2023-08-09T09:33:02.000Z</time>
</trkpt>
<trkpt lat="46.1714800" lon="10.4904620">
	<ele>2530.60</ele>
	<time>2023-08-09T09:33:03.000Z</time>
</trkpt>
<trkpt lat="46.1714930" lon="10.4904570">
	<ele>2530.60</ele>
	<time>2023-08-09T09:33:04.000Z</time>
</trkpt>
<trkpt lat="46.1715050" lon="10.4904550">
	<ele>2530.60</ele>
	<time>2023-08-09T09:33:05.000Z</time>
</trkpt>
<trkpt lat="46.1715160" lon="10.4904580">
	<ele>2530.60</ele>
	<time>2023-08-09T09:33:06.000Z</time>
</trkpt>
<trkpt lat="46.1715270" lon="10.4904660">
	<ele>2530.60</ele>
	<time>2023-08-09T09:33:07.000Z</time>
</trkpt>
<trkpt lat="46.1715360" lon="10.4904690">
	<ele>2530.60</ele>
	<time>2023-08-09T09:33:08.000Z</time>
</trkpt>
<trkpt lat="46.1715420" lon="10.4904770">
	<ele>2530.60</ele>
	<time>2023-08-09T09:33:09.000Z</time>
</trkpt>
<trkpt lat="46.1715470" lon="10.4904850">
	<ele>2530.80</ele>
	<time>2023-08-09T09:33:10.000Z</time>
</trkpt>
<trkpt lat="46.1715420" lon="10.4904880">
	<ele>2530.80</ele>
	<time>2023-08-09T09:33:11.000Z</time>
</trkpt>
<trkpt lat="46.1715500" lon="10.4905010">
	<ele>2530.80</ele>
	<time>2023-08-09T09:33:12.000Z</time>
</trkpt>
<trkpt lat="46.1715540" lon="10.4905140">
	<ele>2530.80</ele>
	<time>2023-08-09T09:33:13.000Z</time>
</trkpt>
<trkpt lat="46.1715590" lon="10.4905250">
	<ele>2530.80</ele>
	<time>2023-08-09T09:33:14.000Z</time>
</trkpt>
<trkpt lat="46.1715680" lon="10.4905420">
	<ele>2530.60</ele>
	<time>2023-08-09T09:33:15.000Z</time>
</trkpt>
<trkpt lat="46.1715760" lon="10.4905490">
	<ele>2530.60</ele>
	<time>2023-08-09T09:33:16.000Z</time>
</trkpt>
<trkpt lat="46.1715840" lon="10.4905550">
	<ele>2530.60</ele>
	<time>2023-08-09T09:33:17.000Z</time>
</trkpt>
<trkpt lat="46.1715910" lon="10.4905700">
	<ele>2530.80</ele>
	<time>2023-08-09T09:33:18.000Z</time>
</trkpt>
<trkpt lat="46.1716020" lon="10.4905780">
	<ele>2530.80</ele>
	<time>2023-08-09T09:33:19.000Z</time>
</trkpt>
<trkpt lat="46.1716050" lon="10.4905810">
	<ele>2530.80</ele>
	<time>2023-08-09T09:33:20.000Z</time>
</trkpt>
<trkpt lat="46.1716070" lon="10.4905810">
	<ele>2530.80</ele>
	<time>2023-08-09T09:33:21.000Z</time>
</trkpt>
<trkpt lat="46.1716090" lon="10.4905820">
	<ele>2530.80</ele>
	<time>2023-08-09T09:33:22.000Z</time>
</trkpt>
<trkpt lat="46.1716110" lon="10.4905820">
	<ele>2530.80</ele>
	<time>2023-08-09T09:33:23.000Z</time>
</trkpt>
<trkpt lat="46.1716140" lon="10.4905820">
	<ele>2530.80</ele>
	<time>2023-08-09T09:33:24.000Z</time>
</trkpt>
<trkpt lat="46.1716140" lon="10.4905820">
	<ele>2530.80</ele>
	<time>2023-08-09T09:33:25.000Z</time>
</trkpt>
<trkpt lat="46.1716140" lon="10.4905820">
	<ele>2531.00</ele>
	<time>2023-08-09T09:33:26.000Z</time>
</trkpt>
<trkpt lat="46.1716140" lon="10.4905820">
	<ele>2531.40</ele>
	<time>2023-08-09T09:33:27.000Z</time>
</trkpt>
<trkpt lat="46.1716150" lon="10.4905820">
	<ele>2531.40</ele>
	<time>2023-08-09T09:33:28.000Z</time>
</trkpt>
<trkpt lat="46.1716140" lon="10.4905830">
	<ele>2531.60</ele>
	<time>2023-08-09T09:33:29.000Z</time>
</trkpt>
<trkpt lat="46.1716130" lon="10.4905830">
	<ele>2531.80</ele>
	<time>2023-08-09T09:33:30.000Z</time>
</trkpt>
<trkpt lat="46.1716130" lon="10.4905820">
	<ele>2531.80</ele>
	<time>2023-08-09T09:33:31.000Z</time>
</trkpt>
<trkpt lat="46.1716130" lon="10.4905820">
	<ele>2531.80</ele>
	<time>2023-08-09T09:33:32.000Z</time>
</trkpt>
<trkpt lat="46.1716130" lon="10.4905820">
	<ele>2531.80</ele>
	<time>2023-08-09T09:33:33.000Z</time>
</trkpt>
<trkpt lat="46.1716130" lon="10.4905820">
	<ele>2531.60</ele>
	<time>2023-08-09T09:33:34.000Z</time>
</trkpt>
<trkpt lat="46.1716130" lon="10.4905820">
	<ele>2532.00</ele>
	<time>2023-08-09T09:33:35.000Z</time>
</trkpt>
<trkpt lat="46.1716130" lon="10.4905820">
	<ele>2532.00</ele>
	<time>2023-08-09T09:33:36.000Z</time>
</trkpt>
<trkpt lat="46.1716130" lon="10.4905820">
	<ele>2532.00</ele>
	<time>2023-08-09T09:33:37.000Z</time>
</trkpt>
<trkpt lat="46.1716130" lon="10.4905820">
	<ele>2532.00</ele>
	<time>2023-08-09T09:33:38.000Z</time>
</trkpt>
<trkpt lat="46.1716130" lon="10.4905820">
	<ele>2532.00</ele>
	<time>2023-08-09T09:33:39.000Z</time>
</trkpt>
<trkpt lat="46.1716130" lon="10.4905820">
	<ele>2532.00</ele>
	<time>2023-08-09T09:33:40.000Z</time>
</trkpt>
<trkpt lat="46.1716130" lon="10.4905820">
	<ele>2532.00</ele>
	<time>2023-08-09T09:33:41.000Z</time>
</trkpt>
<trkpt lat="46.1716130" lon="10.4905820">
	<ele>2532.00</ele>
	<time>2023-08-09T09:33:42.000Z</time>
</trkpt>
<trkpt lat="46.1716130" lon="10.4905820">
	<ele>2532.00</ele>
	<time>2023-08-09T09:33:43.000Z</time>
</trkpt>
<trkpt lat="46.1716130" lon="10.4905820">
	<ele>2532.00</ele>
	<time>2023-08-09T09:33:44.000Z</time>
</trkpt>
<trkpt lat="46.1716130" lon="10.4905820">
	<ele>2532.00</ele>
	<time>2023-08-09T09:33:45.000Z</time>
</trkpt>
<trkpt lat="46.1716110" lon="10.4905820">
	<ele>2532.00</ele>
	<time>2023-08-09T09:33:46.000Z</time>
</trkpt>
<trkpt lat="46.1716110" lon="10.4905780">
	<ele>2532.00</ele>
	<time>2023-08-09T09:33:47.000Z</time>
</trkpt>
<trkpt lat="46.1716110" lon="10.4905770">
	<ele>2532.00</ele>
	<time>2023-08-09T09:33:48.000Z</time>
</trkpt>
<trkpt lat="46.1716110" lon="10.4905760">
	<ele>2532.00</ele>
	<time>2023-08-09T09:33:49.000Z</time>
</trkpt>
<trkpt lat="46.1716110" lon="10.4905760">
	<ele>2532.00</ele>
	<time>2023-08-09T09:33:50.000Z</time>
</trkpt>
<trkpt lat="46.1716110" lon="10.4905760">
	<ele>2532.00</ele>
	<time>2023-08-09T09:33:51.000Z</time>
</trkpt>
<trkpt lat="46.1716110" lon="10.4905750">
	<ele>2532.00</ele>
	<time>2023-08-09T09:33:52.000Z</time>
</trkpt>
<trkpt lat="46.1716110" lon="10.4905740">
	<ele>2532.00</ele>
	<time>2023-08-09T09:33:53.000Z</time>
</trkpt>
<trkpt lat="46.1716110" lon="10.4905740">
	<ele>2532.00</ele>
	<time>2023-08-09T09:33:54.000Z</time>
</trkpt>
<trkpt lat="46.1716110" lon="10.4905740">
	<ele>2532.00</ele>
	<time>2023-08-09T09:33:55.000Z</time>
</trkpt>
<trkpt lat="46.1716110" lon="10.4905740">
	<ele>2532.00</ele>
	<time>2023-08-09T09:33:56.000Z</time>
</trkpt>
<trkpt lat="46.1716110" lon="10.4905740">
	<ele>2532.00</ele>
	<time>2023-08-09T09:33:57.000Z</time>
</trkpt>
<trkpt lat="46.1716110" lon="10.4905730">
	<ele>2532.00</ele>
	<time>2023-08-09T09:33:58.000Z</time>
</trkpt>
<trkpt lat="46.1716110" lon="10.4905730">
	<ele>2532.00</ele>
	<time>2023-08-09T09:33:59.000Z</time>
</trkpt>
<trkpt lat="46.1716110" lon="10.4905730">
	<ele>2532.00</ele>
	<time>2023-08-09T09:34:00.000Z</time>
</trkpt>
<trkpt lat="46.1716110" lon="10.4905730">
	<ele>2532.00</ele>
	<time>2023-08-09T09:34:01.000Z</time>
</trkpt>
<trkpt lat="46.1716110" lon="10.4905730">
	<ele>2532.00</ele>
	<time>2023-08-09T09:34:02.000Z</time>
</trkpt>
<trkpt lat="46.1716180" lon="10.4905750">
	<ele>2532.00</ele>
	<time>2023-08-09T09:34:03.000Z</time>
</trkpt>
<trkpt lat="46.1716350" lon="10.4905810">
	<ele>2532.00</ele>
	<time>2023-08-09T09:34:04.000Z</time>
</trkpt>
<trkpt lat="46.1716510" lon="10.4905840">
	<ele>2532.00</ele>
	<time>2023-08-09T09:34:05.000Z</time>
</trkpt>
<trkpt lat="46.1716670" lon="10.4905870">
	<ele>2532.00</ele>
	<time>2023-08-09T09:34:06.000Z</time>
</trkpt>
<trkpt lat="46.1716820" lon="10.4905880">
	<ele>2532.00</ele>
	<time>2023-08-09T09:34:07.000Z</time>
</trkpt>
<trkpt lat="46.1716930" lon="10.4905870">
	<ele>2532.00</ele>
	<time>2023-08-09T09:34:08.000Z</time>
</trkpt>
<trkpt lat="46.1717040" lon="10.4905870">
	<ele>2532.00</ele>
	<time>2023-08-09T09:34:09.000Z</time>
</trkpt>
<trkpt lat="46.1717170" lon="10.4905830">
	<ele>2532.00</ele>
	<time>2023-08-09T09:34:10.000Z</time>
</trkpt>
<trkpt lat="46.1717320" lon="10.4905790">
	<ele>2532.00</ele>
	<time>2023-08-09T09:34:11.000Z</time>
</trkpt>
<trkpt lat="46.1717450" lon="10.4905770">
	<ele>2532.00</ele>
	<time>2023-08-09T09:34:12.000Z</time>
</trkpt>
<trkpt lat="46.1717550" lon="10.4905750">
	<ele>2532.00</ele>
	<time>2023-08-09T09:34:13.000Z</time>
</trkpt>
<trkpt lat="46.1717640" lon="10.4905770">
	<ele>2530.20</ele>
	<time>2023-08-09T09:34:14.000Z</time>
</trkpt>
<trkpt lat="46.1717730" lon="10.4905840">
	<ele>2529.20</ele>
	<time>2023-08-09T09:34:15.000Z</time>
</trkpt>
<trkpt lat="46.1717830" lon="10.4905920">
	<ele>2528.80</ele>
	<time>2023-08-09T09:34:16.000Z</time>
</trkpt>
<trkpt lat="46.1717910" lon="10.4905970">
	<ele>2528.40</ele>
	<time>2023-08-09T09:34:17.000Z</time>
</trkpt>
<trkpt lat="46.1717990" lon="10.4906010">
	<ele>2528.20</ele>
	<time>2023-08-09T09:34:18.000Z</time>
</trkpt>
<trkpt lat="46.1718050" lon="10.4906090">
	<ele>2528.20</ele>
	<time>2023-08-09T09:34:19.000Z</time>
</trkpt>
<trkpt lat="46.1718090" lon="10.4906150">
	<ele>2528.20</ele>
	<time>2023-08-09T09:34:20.000Z</time>
</trkpt>
<trkpt lat="46.1718120" lon="10.4906120">
	<ele>2528.20</ele>
	<time>2023-08-09T09:34:21.000Z</time>
</trkpt>
<trkpt lat="46.1718140" lon="10.4906160">
	<ele>2528.20</ele>
	<time>2023-08-09T09:34:22.000Z</time>
</trkpt>
<trkpt lat="46.1718180" lon="10.4906220">
	<ele>2528.20</ele>
	<time>2023-08-09T09:34:23.000Z</time>
</trkpt>
<trkpt lat="46.1718270" lon="10.4906280">
	<ele>2528.20</ele>
	<time>2023-08-09T09:34:24.000Z</time>
</trkpt>
<trkpt lat="46.1718370" lon="10.4906340">
	<ele>2528.20</ele>
	<time>2023-08-09T09:34:25.000Z</time>
</trkpt>
<trkpt lat="46.1718450" lon="10.4906420">
	<ele>2528.20</ele>
	<time>2023-08-09T09:34:26.000Z</time>
</trkpt>
<trkpt lat="46.1718490" lon="10.4906490">
	<ele>2528.20</ele>
	<time>2023-08-09T09:34:27.000Z</time>
</trkpt>
<trkpt lat="46.1718550" lon="10.4906540">
	<ele>2528.20</ele>
	<time>2023-08-09T09:34:28.000Z</time>
</trkpt>
<trkpt lat="46.1718640" lon="10.4906600">
	<ele>2528.40</ele>
	<time>2023-08-09T09:34:29.000Z</time>
</trkpt>
<trkpt lat="46.1718730" lon="10.4906640">
	<ele>2528.40</ele>
	<time>2023-08-09T09:34:30.000Z</time>
</trkpt>
<trkpt lat="46.1718830" lon="10.4906670">
	<ele>2528.40</ele>
	<time>2023-08-09T09:34:31.000Z</time>
</trkpt>
<trkpt lat="46.1718920" lon="10.4906690">
	<ele>2528.20</ele>
	<time>2023-08-09T09:34:32.000Z</time>
</trkpt>
<trkpt lat="46.1719000" lon="10.4906760">
	<ele>2528.20</ele>
	<time>2023-08-09T09:34:33.000Z</time>
</trkpt>
<trkpt lat="46.1719050" lon="10.4906820">
	<ele>2528.20</ele>
	<time>2023-08-09T09:34:34.000Z</time>
</trkpt>
<trkpt lat="46.1719090" lon="10.4906850">
	<ele>2527.80</ele>
	<time>2023-08-09T09:34:35.000Z</time>
</trkpt>
<trkpt lat="46.1719180" lon="10.4906870">
	<ele>2527.80</ele>
	<time>2023-08-09T09:34:36.000Z</time>
</trkpt>
<trkpt lat="46.1719260" lon="10.4906890">
	<ele>2527.60</ele>
	<time>2023-08-09T09:34:37.000Z</time>
</trkpt>
<trkpt lat="46.1719390" lon="10.4906930">
	<ele>2527.60</ele>
	<time>2023-08-09T09:34:38.000Z</time>
</trkpt>
<trkpt lat="46.1719530" lon="10.4907010">
	<ele>2527.60</ele>
	<time>2023-08-09T09:34:39.000Z</time>
</trkpt>
<trkpt lat="46.1719570" lon="10.4907110">
	<ele>2527.60</ele>
	<time>2023-08-09T09:34:40.000Z</time>
</trkpt>
<trkpt lat="46.1719620" lon="10.4907220">
	<ele>2527.60</ele>
	<time>2023-08-09T09:34:41.000Z</time>
</trkpt>
<trkpt lat="46.1719650" lon="10.4907250">
	<ele>2527.60</ele>
	<time>2023-08-09T09:34:42.000Z</time>
</trkpt>
<trkpt lat="46.1719680" lon="10.4907250">
	<ele>2527.60</ele>
	<time>2023-08-09T09:34:43.000Z</time>
</trkpt>
<trkpt lat="46.1719720" lon="10.4907270">
	<ele>2527.60</ele>
	<time>2023-08-09T09:34:44.000Z</time>
</trkpt>
<trkpt lat="46.1719800" lon="10.4907230">
	<ele>2527.80</ele>
	<time>2023-08-09T09:34:45.000Z</time>
</trkpt>
<trkpt lat="46.1719840" lon="10.4907230">
	<ele>2527.80</ele>
	<time>2023-08-09T09:34:46.000Z</time>
</trkpt>
<trkpt lat="46.1719910" lon="10.4907230">
	<ele>2527.80</ele>
	<time>2023-08-09T09:34:47.000Z</time>
</trkpt>
<trkpt lat="46.1720000" lon="10.4907260">
	<ele>2527.80</ele>
	<time>2023-08-09T09:34:48.000Z</time>
</trkpt>
<trkpt lat="46.1720090" lon="10.4907270">
	<ele>2527.60</ele>
	<time>2023-08-09T09:34:49.000Z</time>
</trkpt>
<trkpt lat="46.1720170" lon="10.4907270">
	<ele>2527.80</ele>
	<time>2023-08-09T09:34:50.000Z</time>
</trkpt>
<trkpt lat="46.1720250" lon="10.4907280">
	<ele>2527.80</ele>
	<time>2023-08-09T09:34:51.000Z</time>
</trkpt>
<trkpt lat="46.1720340" lon="10.4907280">
	<ele>2527.80</ele>
	<time>2023-08-09T09:34:52.000Z</time>
</trkpt>
<trkpt lat="46.1720400" lon="10.4907260">
	<ele>2527.80</ele>
	<time>2023-08-09T09:34:53.000Z</time>
</trkpt>
<trkpt lat="46.1720450" lon="10.4907220">
	<ele>2527.80</ele>
	<time>2023-08-09T09:34:54.000Z</time>
</trkpt>
<trkpt lat="46.1720500" lon="10.4907170">
	<ele>2527.80</ele>
	<time>2023-08-09T09:34:55.000Z</time>
</trkpt>
<trkpt lat="46.1720530" lon="10.4907130">
	<ele>2527.80</ele>
	<time>2023-08-09T09:34:56.000Z</time>
</trkpt>
<trkpt lat="46.1720560" lon="10.4907040">
	<ele>2527.80</ele>
	<time>2023-08-09T09:34:57.000Z</time>
</trkpt>
<trkpt lat="46.1720610" lon="10.4906940">
	<ele>2527.60</ele>
	<time>2023-08-09T09:34:58.000Z</time>
</trkpt>
<trkpt lat="46.1720680" lon="10.4906880">
	<ele>2527.40</ele>
	<time>2023-08-09T09:34:59.000Z</time>
</trkpt>
<trkpt lat="46.1720760" lon="10.4906890">
	<ele>2527.20</ele>
	<time>2023-08-09T09:35:00.000Z</time>
</trkpt>
<trkpt lat="46.1720840" lon="10.4906950">
	<ele>2526.80</ele>
	<time>2023-08-09T09:35:01.000Z</time>
</trkpt>
<trkpt lat="46.1720910" lon="10.4907040">
	<ele>2526.60</ele>
	<time>2023-08-09T09:35:02.000Z</time>
</trkpt>
<trkpt lat="46.1720920" lon="10.4907140">
	<ele>2526.40</ele>
	<time>2023-08-09T09:35:03.000Z</time>
</trkpt>
<trkpt lat="46.1720960" lon="10.4907270">
	<ele>2526.00</ele>
	<time>2023-08-09T09:35:04.000Z</time>
</trkpt>
<trkpt lat="46.1721000" lon="10.4907410">
	<ele>2526.00</ele>
	<time>2023-08-09T09:35:05.000Z</time>
</trkpt>
<trkpt lat="46.1721010" lon="10.4907550">
	<ele>2525.80</ele>
	<time>2023-08-09T09:35:06.000Z</time>
</trkpt>
<trkpt lat="46.1721030" lon="10.4907670">
	<ele>2525.80</ele>
	<time>2023-08-09T09:35:07.000Z</time>
</trkpt>
<trkpt lat="46.1721070" lon="10.4907800">
	<ele>2525.80</ele>
	<time>2023-08-09T09:35:08.000Z</time>
</trkpt>
<trkpt lat="46.1721130" lon="10.4907910">
	<ele>2525.60</ele>
	<time>2023-08-09T09:35:09.000Z</time>
</trkpt>
<trkpt lat="46.1721210" lon="10.4908000">
	<ele>2525.60</ele>
	<time>2023-08-09T09:35:10.000Z</time>
</trkpt>
<trkpt lat="46.1721280" lon="10.4908080">
	<ele>2525.60</ele>
	<time>2023-08-09T09:35:11.000Z</time>
</trkpt>
<trkpt lat="46.1721360" lon="10.4908190">
	<ele>2525.40</ele>
	<time>2023-08-09T09:35:12.000Z</time>
</trkpt>
<trkpt lat="46.1721440" lon="10.4908260">
	<ele>2525.40</ele>
	<time>2023-08-09T09:35:13.000Z</time>
</trkpt>
<trkpt lat="46.1721560" lon="10.4908350">
	<ele>2525.40</ele>
	<time>2023-08-09T09:35:14.000Z</time>
</trkpt>
<trkpt lat="46.1721680" lon="10.4908460">
	<ele>2525.40</ele>
	<time>2023-08-09T09:35:15.000Z</time>
</trkpt>
<trkpt lat="46.1721750" lon="10.4908560">
	<ele>2525.40</ele>
	<time>2023-08-09T09:35:16.000Z</time>
</trkpt>
<trkpt lat="46.1721840" lon="10.4908660">
	<ele>2525.20</ele>
	<time>2023-08-09T09:35:17.000Z</time>
</trkpt>
<trkpt lat="46.1721900" lon="10.4908760">
	<ele>2525.20</ele>
	<time>2023-08-09T09:35:18.000Z</time>
</trkpt>
<trkpt lat="46.1721950" lon="10.4908820">
	<ele>2525.20</ele>
	<time>2023-08-09T09:35:19.000Z</time>
</trkpt>
<trkpt lat="46.1722010" lon="10.4908870">
	<ele>2525.20</ele>
	<time>2023-08-09T09:35:20.000Z</time>
</trkpt>
<trkpt lat="46.1722050" lon="10.4908920">
	<ele>2525.20</ele>
	<time>2023-08-09T09:35:21.000Z</time>
</trkpt>
<trkpt lat="46.1722070" lon="10.4909030">
	<ele>2525.20</ele>
	<time>2023-08-09T09:35:22.000Z</time>
</trkpt>
<trkpt lat="46.1722060" lon="10.4909140">
	<ele>2525.20</ele>
	<time>2023-08-09T09:35:23.000Z</time>
</trkpt>
<trkpt lat="46.1722050" lon="10.4909270">
	<ele>2525.40</ele>
	<time>2023-08-09T09:35:24.000Z</time>
</trkpt>
<trkpt lat="46.1722080" lon="10.4909340">
	<ele>2525.40</ele>
	<time>2023-08-09T09:35:25.000Z</time>
</trkpt>
<trkpt lat="46.1722120" lon="10.4909380">
	<ele>2525.40</ele>
	<time>2023-08-09T09:35:26.000Z</time>
</trkpt>
<trkpt lat="46.1722140" lon="10.4909350">
	<ele>2525.40</ele>
	<time>2023-08-09T09:35:27.000Z</time>
</trkpt>
<trkpt lat="46.1722140" lon="10.4909320">
	<ele>2525.40</ele>
	<time>2023-08-09T09:35:28.000Z</time>
</trkpt>
<trkpt lat="46.1722130" lon="10.4909320">
	<ele>2525.40</ele>
	<time>2023-08-09T09:35:29.000Z</time>
</trkpt>
<trkpt lat="46.1722130" lon="10.4909320">
	<ele>2525.40</ele>
	<time>2023-08-09T09:35:30.000Z</time>
</trkpt>
<trkpt lat="46.1722140" lon="10.4909290">
	<ele>2525.40</ele>
	<time>2023-08-09T09:35:31.000Z</time>
</trkpt>
<trkpt lat="46.1722130" lon="10.4909260">
	<ele>2525.40</ele>
	<time>2023-08-09T09:35:32.000Z</time>
</trkpt>
<trkpt lat="46.1722080" lon="10.4909300">
	<ele>2525.40</ele>
	<time>2023-08-09T09:35:33.000Z</time>
</trkpt>
<trkpt lat="46.1722010" lon="10.4909280">
	<ele>2525.40</ele>
	<time>2023-08-09T09:35:34.000Z</time>
</trkpt>
<trkpt lat="46.1721930" lon="10.4909220">
	<ele>2525.40</ele>
	<time>2023-08-09T09:35:35.000Z</time>
</trkpt>
<trkpt lat="46.1721850" lon="10.4909200">
	<ele>2525.40</ele>
	<time>2023-08-09T09:35:36.000Z</time>
</trkpt>
<trkpt lat="46.1721830" lon="10.4909200">
	<ele>2525.40</ele>
	<time>2023-08-09T09:35:37.000Z</time>
</trkpt>
<trkpt lat="46.1721810" lon="10.4909180">
	<ele>2525.60</ele>
	<time>2023-08-09T09:35:38.000Z</time>
</trkpt>
<trkpt lat="46.1721810" lon="10.4909180">
	<ele>2525.80</ele>
	<time>2023-08-09T09:35:39.000Z</time>
</trkpt>
<trkpt lat="46.1721810" lon="10.4909180">
	<ele>2526.00</ele>
	<time>2023-08-09T09:35:40.000Z</time>
</trkpt>
<trkpt lat="46.1721810" lon="10.4909180">
	<ele>2526.00</ele>
	<time>2023-08-09T09:35:41.000Z</time>
</trkpt>
<trkpt lat="46.1721810" lon="10.4909180">
	<ele>2526.20</ele>
	<time>2023-08-09T09:35:42.000Z</time>
</trkpt>
<trkpt lat="46.1721810" lon="10.4909180">
	<ele>2526.20</ele>
	<time>2023-08-09T09:35:43.000Z</time>
</trkpt>
<trkpt lat="46.1721810" lon="10.4909180">
	<ele>2526.00</ele>
	<time>2023-08-09T09:35:44.000Z</time>
</trkpt>
<trkpt lat="46.1721810" lon="10.4909180">
	<ele>2525.80</ele>
	<time>2023-08-09T09:35:45.000Z</time>
</trkpt>
<trkpt lat="46.1721810" lon="10.4909180">
	<ele>2525.60</ele>
	<time>2023-08-09T09:35:46.000Z</time>
</trkpt>
<trkpt lat="46.1721810" lon="10.4909180">
	<ele>2525.40</ele>
	<time>2023-08-09T09:35:47.000Z</time>
</trkpt>
<trkpt lat="46.1721810" lon="10.4909180">
	<ele>2525.40</ele>
	<time>2023-08-09T09:35:48.000Z</time>
</trkpt>
<trkpt lat="46.1721810" lon="10.4909180">
	<ele>2525.40</ele>
	<time>2023-08-09T09:35:49.000Z</time>
</trkpt>
<trkpt lat="46.1721810" lon="10.4909200">
	<ele>2525.40</ele>
	<time>2023-08-09T09:35:50.000Z</time>
</trkpt>
<trkpt lat="46.1721810" lon="10.4909200">
	<ele>2525.20</ele>
	<time>2023-08-09T09:35:51.000Z</time>
</trkpt>
<trkpt lat="46.1721810" lon="10.4909220">
	<ele>2525.20</ele>
	<time>2023-08-09T09:35:52.000Z</time>
</trkpt>
<trkpt lat="46.1721810" lon="10.4909230">
	<ele>2525.20</ele>
	<time>2023-08-09T09:35:53.000Z</time>
</trkpt>
<trkpt lat="46.1721810" lon="10.4909240">
	<ele>2525.20</ele>
	<time>2023-08-09T09:35:54.000Z</time>
</trkpt>
<trkpt lat="46.1721810" lon="10.4909240">
	<ele>2525.20</ele>
	<time>2023-08-09T09:35:55.000Z</time>
</trkpt>
<trkpt lat="46.1721820" lon="10.4909250">
	<ele>2525.20</ele>
	<time>2023-08-09T09:35:56.000Z</time>
</trkpt>
<trkpt lat="46.1721830" lon="10.4909250">
	<ele>2525.00</ele>
	<time>2023-08-09T09:35:57.000Z</time>
</trkpt>
<trkpt lat="46.1721830" lon="10.4909250">
	<ele>2525.00</ele>
	<time>2023-08-09T09:35:58.000Z</time>
</trkpt>
<trkpt lat="46.1721830" lon="10.4909250">
	<ele>2524.80</ele>
	<time>2023-08-09T09:35:59.000Z</time>
</trkpt>
<trkpt lat="46.1721830" lon="10.4909250">
	<ele>2524.60</ele>
	<time>2023-08-09T09:36:00.000Z</time>
</trkpt>
<trkpt lat="46.1721830" lon="10.4909250">
	<ele>2524.60</ele>
	<time>2023-08-09T09:36:01.000Z</time>
</trkpt>
<trkpt lat="46.1721830" lon="10.4909250">
	<ele>2524.40</ele>
	<time>2023-08-09T09:36:02.000Z</time>
</trkpt>
<trkpt lat="46.1721830" lon="10.4909250">
	<ele>2524.20</ele>
	<time>2023-08-09T09:36:03.000Z</time>
</trkpt>
<trkpt lat="46.1721880" lon="10.4909300">
	<ele>2524.00</ele>
	<time>2023-08-09T09:36:04.000Z</time>
</trkpt>
<trkpt lat="46.1721980" lon="10.4909450">
	<ele>2523.80</ele>
	<time>2023-08-09T09:36:05.000Z</time>
</trkpt>
<trkpt lat="46.1722070" lon="10.4909630">
	<ele>2523.60</ele>
	<time>2023-08-09T09:36:06.000Z</time>
</trkpt>
<trkpt lat="46.1722170" lon="10.4909790">
	<ele>2523.60</ele>
	<time>2023-08-09T09:36:07.000Z</time>
</trkpt>
<trkpt lat="46.1722270" lon="10.4909940">
	<ele>2523.40</ele>
	<time>2023-08-09T09:36:08.000Z</time>
</trkpt>
<trkpt lat="46.1722390" lon="10.4910060">
	<ele>2523.20</ele>
	<time>2023-08-09T09:36:09.000Z</time>
</trkpt>
<trkpt lat="46.1722500" lon="10.4910160">
	<ele>2523.20</ele>
	<time>2023-08-09T09:36:10.000Z</time>
</trkpt>
<trkpt lat="46.1722630" lon="10.4910320">
	<ele>2523.20</ele>
	<time>2023-08-09T09:36:11.000Z</time>
</trkpt>
<trkpt lat="46.1722740" lon="10.4910430">
	<ele>2523.00</ele>
	<time>2023-08-09T09:36:12.000Z</time>
</trkpt>
<trkpt lat="46.1722860" lon="10.4910550">
	<ele>2522.80</ele>
	<time>2023-08-09T09:36:13.000Z</time>
</trkpt>
<trkpt lat="46.1722910" lon="10.4910620">
	<ele>2522.40</ele>
	<time>2023-08-09T09:36:14.000Z</time>
</trkpt>
<trkpt lat="46.1722970" lon="10.4910740">
	<ele>2522.00</ele>
	<time>2023-08-09T09:36:15.000Z</time>
</trkpt>
<trkpt lat="46.1723020" lon="10.4910830">
	<ele>2521.80</ele>
	<time>2023-08-09T09:36:16.000Z</time>
</trkpt>
<trkpt lat="46.1723060" lon="10.4910930">
	<ele>2521.80</ele>
	<time>2023-08-09T09:36:17.000Z</time>
</trkpt>
<trkpt lat="46.1723080" lon="10.4911010">
	<ele>2521.60</ele>
	<time>2023-08-09T09:36:18.000Z</time>
</trkpt>
<trkpt lat="46.1723130" lon="10.4911120">
	<ele>2521.40</ele>
	<time>2023-08-09T09:36:19.000Z</time>
</trkpt>
<trkpt lat="46.1723180" lon="10.4911240">
	<ele>2521.40</ele>
	<time>2023-08-09T09:36:20.000Z</time>
</trkpt>
<trkpt lat="46.1723200" lon="10.4911320">
	<ele>2521.20</ele>
	<time>2023-08-09T09:36:21.000Z</time>
</trkpt>
<trkpt lat="46.1723260" lon="10.4911410">
	<ele>2521.20</ele>
	<time>2023-08-09T09:36:22.000Z</time>
</trkpt>
<trkpt lat="46.1723310" lon="10.4911530">
	<ele>2521.00</ele>
	<time>2023-08-09T09:36:23.000Z</time>
</trkpt>
<trkpt lat="46.1723330" lon="10.4911660">
	<ele>2521.00</ele>
	<time>2023-08-09T09:36:24.000Z</time>
</trkpt>
<trkpt lat="46.1723350" lon="10.4911790">
	<ele>2520.80</ele>
	<time>2023-08-09T09:36:25.000Z</time>
</trkpt>
<trkpt lat="46.1723350" lon="10.4911900">
	<ele>2520.40</ele>
	<time>2023-08-09T09:36:26.000Z</time>
</trkpt>
<trkpt lat="46.1723340" lon="10.4911990">
	<ele>2520.20</ele>
	<time>2023-08-09T09:36:27.000Z</time>
</trkpt>
<trkpt lat="46.1723370" lon="10.4912110">
	<ele>2520.20</ele>
	<time>2023-08-09T09:36:28.000Z</time>
</trkpt>
<trkpt lat="46.1723440" lon="10.4912160">
	<ele>2520.00</ele>
	<time>2023-08-09T09:36:29.000Z</time>
</trkpt>
<trkpt lat="46.1723510" lon="10.4912170">
	<ele>2520.00</ele>
	<time>2023-08-09T09:36:30.000Z</time>
</trkpt>
<trkpt lat="46.1723580" lon="10.4912120">
	<ele>2519.80</ele>
	<time>2023-08-09T09:36:31.000Z</time>
</trkpt>
<trkpt lat="46.1723620" lon="10.4912030">
	<ele>2519.80</ele>
	<time>2023-08-09T09:36:32.000Z</time>
</trkpt>
<trkpt lat="46.1723690" lon="10.4911960">
	<ele>2519.60</ele>
	<time>2023-08-09T09:36:33.000Z</time>
</trkpt>
<trkpt lat="46.1723780" lon="10.4911930">
	<ele>2519.40</ele>
	<time>2023-08-09T09:36:34.000Z</time>
</trkpt>
<trkpt lat="46.1723870" lon="10.4911940">
	<ele>2519.40</ele>
	<time>2023-08-09T09:36:35.000Z</time>
</trkpt>
<trkpt lat="46.1723950" lon="10.4911950">
	<ele>2519.00</ele>
	<time>2023-08-09T09:36:36.000Z</time>
</trkpt>
<trkpt lat="46.1724050" lon="10.4911950">
	<ele>2518.80</ele>
	<time>2023-08-09T09:36:37.000Z</time>
</trkpt>
<trkpt lat="46.1724140" lon="10.4911990">
	<ele>2518.80</ele>
	<time>2023-08-09T09:36:38.000Z</time>
</trkpt>
<trkpt lat="46.1724190" lon="10.4912030">
	<ele>2518.60</ele>
	<time>2023-08-09T09:36:39.000Z</time>
</trkpt>
<trkpt lat="46.1724210" lon="10.4912090">
	<ele>2518.60</ele>
	<time>2023-08-09T09:36:40.000Z</time>
</trkpt>
<trkpt lat="46.1724210" lon="10.4912130">
	<ele>2518.40</ele>
	<time>2023-08-09T09:36:41.000Z</time>
</trkpt>
<trkpt lat="46.1724220" lon="10.4912140">
	<ele>2518.40</ele>
	<time>2023-08-09T09:36:42.000Z</time>
</trkpt>
<trkpt lat="46.1724250" lon="10.4912160">
	<ele>2518.40</ele>
	<time>2023-08-09T09:36:43.000Z</time>
</trkpt>
<trkpt lat="46.1724350" lon="10.4912180">
	<ele>2518.40</ele>
	<time>2023-08-09T09:36:44.000Z</time>
</trkpt>
<trkpt lat="46.1724470" lon="10.4912260">
	<ele>2518.20</ele>
	<time>2023-08-09T09:36:45.000Z</time>
</trkpt>
<trkpt lat="46.1724560" lon="10.4912350">
	<ele>2518.20</ele>
	<time>2023-08-09T09:36:46.000Z</time>
</trkpt>
<trkpt lat="46.1724650" lon="10.4912440">
	<ele>2518.20</ele>
	<time>2023-08-09T09:36:47.000Z</time>
</trkpt>
<trkpt lat="46.1724720" lon="10.4912540">
	<ele>2518.20</ele>
	<time>2023-08-09T09:36:48.000Z</time>
</trkpt>
<trkpt lat="46.1724790" lon="10.4912600">
	<ele>2518.00</ele>
	<time>2023-08-09T09:36:49.000Z</time>
</trkpt>
<trkpt lat="46.1724870" lon="10.4912690">
	<ele>2517.80</ele>
	<time>2023-08-09T09:36:50.000Z</time>
</trkpt>
<trkpt lat="46.1724940" lon="10.4912780">
	<ele>2517.60</ele>
	<time>2023-08-09T09:36:51.000Z</time>
</trkpt>
<trkpt lat="46.1725010" lon="10.4912840">
	<ele>2517.40</ele>
	<time>2023-08-09T09:36:52.000Z</time>
</trkpt>
<trkpt lat="46.1725060" lon="10.4912860">
	<ele>2517.40</ele>
	<time>2023-08-09T09:36:53.000Z</time>
</trkpt>
<trkpt lat="46.1725130" lon="10.4912830">
	<ele>2517.20</ele>
	<time>2023-08-09T09:36:54.000Z</time>
</trkpt>
<trkpt lat="46.1725200" lon="10.4912780">
	<ele>2517.20</ele>
	<time>2023-08-09T09:36:55.000Z</time>
</trkpt>
<trkpt lat="46.1725240" lon="10.4912820">
	<ele>2517.00</ele>
	<time>2023-08-09T09:36:56.000Z</time>
</trkpt>
<trkpt lat="46.1725290" lon="10.4912870">
	<ele>2516.80</ele>
	<time>2023-08-09T09:36:57.000Z</time>
</trkpt>
<trkpt lat="46.1725320" lon="10.4912890">
	<ele>2516.40</ele>
	<time>2023-08-09T09:36:58.000Z</time>
</trkpt>
<trkpt lat="46.1725340" lon="10.4912910">
	<ele>2516.20</ele>
	<time>2023-08-09T09:36:59.000Z</time>
</trkpt>
<trkpt lat="46.1725400" lon="10.4912930">
	<ele>2515.80</ele>
	<time>2023-08-09T09:37:00.000Z</time>
</trkpt>
<trkpt lat="46.1725470" lon="10.4912940">
	<ele>2515.60</ele>
	<time>2023-08-09T09:37:01.000Z</time>
</trkpt>
<trkpt lat="46.1725540" lon="10.4912940">
	<ele>2515.60</ele>
	<time>2023-08-09T09:37:02.000Z</time>
</trkpt>
<trkpt lat="46.1725610" lon="10.4912960">
	<ele>2515.40</ele>
	<time>2023-08-09T09:37:03.000Z</time>
</trkpt>
<trkpt lat="46.1725670" lon="10.4912950">
	<ele>2515.20</ele>
	<time>2023-08-09T09:37:04.000Z</time>
</trkpt>
<trkpt lat="46.1725680" lon="10.4912960">
	<ele>2515.20</ele>
	<time>2023-08-09T09:37:05.000Z</time>
</trkpt>
<trkpt lat="46.1725690" lon="10.4912960">
	<ele>2515.00</ele>
	<time>2023-08-09T09:37:06.000Z</time>
</trkpt>
<trkpt lat="46.1725690" lon="10.4912940">
	<ele>2515.00</ele>
	<time>2023-08-09T09:37:07.000Z</time>
</trkpt>
<trkpt lat="46.1725710" lon="10.4912910">
	<ele>2515.00</ele>
	<time>2023-08-09T09:37:08.000Z</time>
</trkpt>
<trkpt lat="46.1725740" lon="10.4912900">
	<ele>2514.80</ele>
	<time>2023-08-09T09:37:09.000Z</time>
</trkpt>
<trkpt lat="46.1725770" lon="10.4912890">
	<ele>2514.80</ele>
	<time>2023-08-09T09:37:10.000Z</time>
</trkpt>
<trkpt lat="46.1725810" lon="10.4912890">
	<ele>2514.80</ele>
	<time>2023-08-09T09:37:11.000Z</time>
</trkpt>
<trkpt lat="46.1725830" lon="10.4912870">
	<ele>2514.60</ele>
	<time>2023-08-09T09:37:12.000Z</time>
</trkpt>
<trkpt lat="46.1725860" lon="10.4912850">
	<ele>2514.60</ele>
	<time>2023-08-09T09:37:13.000Z</time>
</trkpt>
<trkpt lat="46.1725910" lon="10.4912840">
	<ele>2514.60</ele>
	<time>2023-08-09T09:37:14.000Z</time>
</trkpt>
<trkpt lat="46.1725980" lon="10.4912810">
	<ele>2514.40</ele>
	<time>2023-08-09T09:37:15.000Z</time>
</trkpt>
<trkpt lat="46.1726060" lon="10.4912780">
	<ele>2514.20</ele>
	<time>2023-08-09T09:37:16.000Z</time>
</trkpt>
<trkpt lat="46.1726130" lon="10.4912740">
	<ele>2514.00</ele>
	<time>2023-08-09T09:37:17.000Z</time>
</trkpt>
<trkpt lat="46.1726210" lon="10.4912730">
	<ele>2513.80</ele>
	<time>2023-08-09T09:37:18.000Z</time>
</trkpt>
<trkpt lat="46.1726280" lon="10.4912710">
	<ele>2513.60</ele>
	<time>2023-08-09T09:37:19.000Z</time>
</trkpt>
<trkpt lat="46.1726350" lon="10.4912670">
	<ele>2513.40</ele>
	<time>2023-08-09T09:37:20.000Z</time>
</trkpt>
<trkpt lat="46.1726400" lon="10.4912640">
	<ele>2513.20</ele>
	<time>2023-08-09T09:37:21.000Z</time>
</trkpt>
<trkpt lat="46.1726460" lon="10.4912590">
	<ele>2513.00</ele>
	<time>2023-08-09T09:37:22.000Z</time>
</trkpt>
<trkpt lat="46.1726530" lon="10.4912550">
	<ele>2512.80</ele>
	<time>2023-08-09T09:37:23.000Z</time>
</trkpt>
<trkpt lat="46.1726610" lon="10.4912510">
	<ele>2512.80</ele>
	<time>2023-08-09T09:37:24.000Z</time>
</trkpt>
<trkpt lat="46.1726670" lon="10.4912470">
	<ele>2512.40</ele>
	<time>2023-08-09T09:37:25.000Z</time>
</trkpt>
<trkpt lat="46.1726740" lon="10.4912460">
	<ele>2512.20</ele>
	<time>2023-08-09T09:37:26.000Z</time>
</trkpt>
<trkpt lat="46.1726800" lon="10.4912470">
	<ele>2512.00</ele>
	<time>2023-08-09T09:37:27.000Z</time>
</trkpt>
<trkpt lat="46.1726830" lon="10.4912460">
	<ele>2512.00</ele>
	<time>2023-08-09T09:37:28.000Z</time>
</trkpt>
<trkpt lat="46.1726880" lon="10.4912450">
	<ele>2511.80</ele>
	<time>2023-08-09T09:37:29.000Z</time>
</trkpt>
<trkpt lat="46.1726940" lon="10.4912410">
	<ele>2511.60</ele>
	<time>2023-08-09T09:37:30.000Z</time>
</trkpt>
<trkpt lat="46.1726970" lon="10.4912320">
	<ele>2511.40</ele>
	<time>2023-08-09T09:37:31.000Z</time>
</trkpt>
<trkpt lat="46.1727010" lon="10.4912210">
	<ele>2511.40</ele>
	<time>2023-08-09T09:37:32.000Z</time>
</trkpt>
<trkpt lat="46.1727070" lon="10.4912120">
	<ele>2511.40</ele>
	<time>2023-08-09T09:37:33.000Z</time>
</trkpt>
<trkpt lat="46.1727140" lon="10.4912000">
	<ele>2511.40</ele>
	<time>2023-08-09T09:37:34.000Z</time>
</trkpt>
<trkpt lat="46.1727210" lon="10.4911920">
	<ele>2511.20</ele>
	<time>2023-08-09T09:37:35.000Z</time>
</trkpt>
<trkpt lat="46.1727270" lon="10.4911830">
	<ele>2511.20</ele>
	<time>2023-08-09T09:37:36.000Z</time>
</trkpt>
<trkpt lat="46.1727340" lon="10.4911760">
	<ele>2511.20</ele>
	<time>2023-08-09T09:37:37.000Z</time>
</trkpt>
<trkpt lat="46.1727430" lon="10.4911680">
	<ele>2511.00</ele>
	<time>2023-08-09T09:37:38.000Z</time>
</trkpt>
<trkpt lat="46.1727500" lon="10.4911550">
	<ele>2510.80</ele>
	<time>2023-08-09T09:37:39.000Z</time>
</trkpt>
<trkpt lat="46.1727580" lon="10.4911430">
	<ele>2510.80</ele>
	<time>2023-08-09T09:37:40.000Z</time>
</trkpt>
<trkpt lat="46.1727640" lon="10.4911320">
	<ele>2510.80</ele>
	<time>2023-08-09T09:37:41.000Z</time>
</trkpt>
<trkpt lat="46.1727700" lon="10.4911210">
	<ele>2510.80</ele>
	<time>2023-08-09T09:37:42.000Z</time>
</trkpt>
<trkpt lat="46.1727750" lon="10.4911110">
	<ele>2510.60</ele>
	<time>2023-08-09T09:37:43.000Z</time>
</trkpt>
<trkpt lat="46.1727830" lon="10.4911040">
	<ele>2510.40</ele>
	<time>2023-08-09T09:37:44.000Z</time>
</trkpt>
<trkpt lat="46.1727880" lon="10.4910970">
	<ele>2510.40</ele>
	<time>2023-08-09T09:37:45.000Z</time>
</trkpt>
<trkpt lat="46.1727920" lon="10.4910900">
	<ele>2510.40</ele>
	<time>2023-08-09T09:37:46.000Z</time>
</trkpt>
<trkpt lat="46.1727960" lon="10.4910800">
	<ele>2510.20</ele>
	<time>2023-08-09T09:37:47.000Z</time>
</trkpt>
<trkpt lat="46.1728040" lon="10.4910730">
	<ele>2510.00</ele>
	<time>2023-08-09T09:37:48.000Z</time>
</trkpt>
<trkpt lat="46.1728130" lon="10.4910640">
	<ele>2509.80</ele>
	<time>2023-08-09T09:37:49.000Z</time>
</trkpt>
<trkpt lat="46.1728200" lon="10.4910530">
	<ele>2509.60</ele>
	<time>2023-08-09T09:37:50.000Z</time>
</trkpt>
<trkpt lat="46.1728250" lon="10.4910420">
	<ele>2509.60</ele>
	<time>2023-08-09T09:37:51.000Z</time>
</trkpt>
<trkpt lat="46.1728300" lon="10.4910340">
	<ele>2509.20</ele>
	<time>2023-08-09T09:37:52.000Z</time>
</trkpt>
<trkpt lat="46.1728360" lon="10.4910250">
	<ele>2509.00</ele>
	<time>2023-08-09T09:37:53.000Z</time>
</trkpt>
<trkpt lat="46.1728420" lon="10.4910180">
	<ele>2509.00</ele>
	<time>2023-08-09T09:37:54.000Z</time>
</trkpt>
<trkpt lat="46.1728510" lon="10.4910160">
	<ele>2508.80</ele>
	<time>2023-08-09T09:37:55.000Z</time>
</trkpt>
<trkpt lat="46.1728590" lon="10.4910090">
	<ele>2508.80</ele>
	<time>2023-08-09T09:37:56.000Z</time>
</trkpt>
<trkpt lat="46.1728650" lon="10.4910000">
	<ele>2508.60</ele>
	<time>2023-08-09T09:37:57.000Z</time>
</trkpt>
<trkpt lat="46.1728710" lon="10.4909890">
	<ele>2508.60</ele>
	<time>2023-08-09T09:37:58.000Z</time>
</trkpt>
<trkpt lat="46.1728770" lon="10.4909780">
	<ele>2508.60</ele>
	<time>2023-08-09T09:37:59.000Z</time>
</trkpt>
<trkpt lat="46.1728800" lon="10.4909700">
	<ele>2508.20</ele>
	<time>2023-08-09T09:38:00.000Z</time>
</trkpt>
<trkpt lat="46.1728850" lon="10.4909620">
	<ele>2508.00</ele>
	<time>2023-08-09T09:38:01.000Z</time>
</trkpt>
<trkpt lat="46.1728930" lon="10.4909590">
	<ele>2507.60</ele>
	<time>2023-08-09T09:38:02.000Z</time>
</trkpt>
<trkpt lat="46.1729000" lon="10.4909590">
	<ele>2507.20</ele>
	<time>2023-08-09T09:38:03.000Z</time>
</trkpt>
<trkpt lat="46.1729070" lon="10.4909640">
	<ele>2506.80</ele>
	<time>2023-08-09T09:38:04.000Z</time>
</trkpt>
<trkpt lat="46.1729130" lon="10.4909720">
	<ele>2506.60</ele>
	<time>2023-08-09T09:38:05.000Z</time>
</trkpt>
<trkpt lat="46.1729170" lon="10.4909780">
	<ele>2506.40</ele>
	<time>2023-08-09T09:38:06.000Z</time>
</trkpt>
<trkpt lat="46.1729200" lon="10.4909820">
	<ele>2506.40</ele>
	<time>2023-08-09T09:38:07.000Z</time>
</trkpt>
<trkpt lat="46.1729220" lon="10.4909840">
	<ele>2506.20</ele>
	<time>2023-08-09T09:38:08.000Z</time>
</trkpt>
<trkpt lat="46.1729240" lon="10.4909850">
	<ele>2506.20</ele>
	<time>2023-08-09T09:38:09.000Z</time>
</trkpt>
<trkpt lat="46.1729290" lon="10.4909890">
	<ele>2506.00</ele>
	<time>2023-08-09T09:38:10.000Z</time>
</trkpt>
<trkpt lat="46.1729350" lon="10.4909940">
	<ele>2506.00</ele>
	<time>2023-08-09T09:38:11.000Z</time>
</trkpt>
<trkpt lat="46.1729350" lon="10.4909970">
	<ele>2505.80</ele>
	<time>2023-08-09T09:38:12.000Z</time>
</trkpt>
<trkpt lat="46.1729320" lon="10.4910010">
	<ele>2505.80</ele>
	<time>2023-08-09T09:38:13.000Z</time>
</trkpt>
<trkpt lat="46.1729310" lon="10.4910030">
	<ele>2505.80</ele>
	<time>2023-08-09T09:38:14.000Z</time>
</trkpt>
<trkpt lat="46.1729330" lon="10.4910070">
	<ele>2505.60</ele>
	<time>2023-08-09T09:38:15.000Z</time>
</trkpt>
<trkpt lat="46.1729390" lon="10.4910110">
	<ele>2505.40</ele>
	<time>2023-08-09T09:38:16.000Z</time>
</trkpt>
<trkpt lat="46.1729440" lon="10.4910110">
	<ele>2505.20</ele>
	<time>2023-08-09T09:38:17.000Z</time>
</trkpt>
<trkpt lat="46.1729500" lon="10.4910140">
	<ele>2505.20</ele>
	<time>2023-08-09T09:38:18.000Z</time>
</trkpt>
<trkpt lat="46.1729550" lon="10.4910130">
	<ele>2505.00</ele>
	<time>2023-08-09T09:38:19.000Z</time>
</trkpt>
<trkpt lat="46.1729610" lon="10.4910140">
	<ele>2504.80</ele>
	<time>2023-08-09T09:38:20.000Z</time>
</trkpt>
<trkpt lat="46.1729630" lon="10.4910220">
	<ele>2504.60</ele>
	<time>2023-08-09T09:38:21.000Z</time>
</trkpt>
<trkpt lat="46.1729670" lon="10.4910300">
	<ele>2504.40</ele>
	<time>2023-08-09T09:38:22.000Z</time>
</trkpt>
<trkpt lat="46.1729710" lon="10.4910360">
	<ele>2504.40</ele>
	<time>2023-08-09T09:38:23.000Z</time>
</trkpt>
<trkpt lat="46.1729710" lon="10.4910450">
	<ele>2504.00</ele>
	<time>2023-08-09T09:38:24.000Z</time>
</trkpt>
<trkpt lat="46.1729720" lon="10.4910510">
	<ele>2504.00</ele>
	<time>2023-08-09T09:38:25.000Z</time>
</trkpt>
<trkpt lat="46.1729770" lon="10.4910540">
	<ele>2503.80</ele>
	<time>2023-08-09T09:38:26.000Z</time>
</trkpt>
<trkpt lat="46.1729820" lon="10.4910570">
	<ele>2503.60</ele>
	<time>2023-08-09T09:38:27.000Z</time>
</trkpt>
<trkpt lat="46.1729870" lon="10.4910590">
	<ele>2503.60</ele>
	<time>2023-08-09T09:38:28.000Z</time>
</trkpt>
<trkpt lat="46.1729930" lon="10.4910590">
	<ele>2503.40</ele>
	<time>2023-08-09T09:38:29.000Z</time>
</trkpt>
<trkpt lat="46.1729950" lon="10.4910540">
	<ele>2503.40</ele>
	<time>2023-08-09T09:38:30.000Z</time>
</trkpt>
<trkpt lat="46.1730000" lon="10.4910500">
	<ele>2503.20</ele>
	<time>2023-08-09T09:38:31.000Z</time>
</trkpt>
<trkpt lat="46.1730040" lon="10.4910440">
	<ele>2503.00</ele>
	<time>2023-08-09T09:38:32.000Z</time>
</trkpt>
<trkpt lat="46.1730060" lon="10.4910400">
	<ele>2502.80</ele>
	<time>2023-08-09T09:38:33.000Z</time>
</trkpt>
<trkpt lat="46.1730090" lon="10.4910370">
	<ele>2502.60</ele>
	<time>2023-08-09T09:38:34.000Z</time>
</trkpt>
<trkpt lat="46.1730150" lon="10.4910400">
	<ele>2502.60</ele>
	<time>2023-08-09T09:38:35.000Z</time>
</trkpt>
<trkpt lat="46.1730190" lon="10.4910470">
	<ele>2502.20</ele>
	<time>2023-08-09T09:38:36.000Z</time>
</trkpt>
<trkpt lat="46.1730230" lon="10.4910590">
	<ele>2502.00</ele>
	<time>2023-08-09T09:38:37.000Z</time>
</trkpt>
<trkpt lat="46.1730270" lon="10.4910680">
	<ele>2502.00</ele>
	<time>2023-08-09T09:38:38.000Z</time>
</trkpt>
<trkpt lat="46.1730330" lon="10.4910780">
	<ele>2501.80</ele>
	<time>2023-08-09T09:38:39.000Z</time>
</trkpt>
<trkpt lat="46.1730390" lon="10.4910850">
	<ele>2501.80</ele>
	<time>2023-08-09T09:38:40.000Z</time>
</trkpt>
<trkpt lat="46.1730440" lon="10.4910930">
	<ele>2501.60</ele>
	<time>2023-08-09T09:38:41.000Z</time>
</trkpt>
<trkpt lat="46.1730470" lon="10.4911000">
	<ele>2501.60</ele>
	<time>2023-08-09T09:38:42.000Z</time>
</trkpt>
<trkpt lat="46.1730480" lon="10.4911050">
	<ele>2501.40</ele>
	<time>2023-08-09T09:38:43.000Z</time>
</trkpt>
<trkpt lat="46.1730480" lon="10.4911090">
	<ele>2501.00</ele>
	<time>2023-08-09T09:38:44.000Z</time>
</trkpt>
<trkpt lat="46.1730450" lon="10.4911140">
	<ele>2500.80</ele>
	<time>2023-08-09T09:38:45.000Z</time>
</trkpt>
<trkpt lat="46.1730430" lon="10.4911170">
	<ele>2500.80</ele>
	<time>2023-08-09T09:38:46.000Z</time>
</trkpt>
<trkpt lat="46.1730430" lon="10.4911180">
	<ele>2500.60</ele>
	<time>2023-08-09T09:38:47.000Z</time>
</trkpt>
<trkpt lat="46.1730450" lon="10.4911170">
	<ele>2500.40</ele>
	<time>2023-08-09T09:38:48.000Z</time>
</trkpt>
<trkpt lat="46.1730480" lon="10.4911130">
	<ele>2500.40</ele>
	<time>2023-08-09T09:38:49.000Z</time>
</trkpt>
<trkpt lat="46.1730540" lon="10.4911120">
	<ele>2500.20</ele>
	<time>2023-08-09T09:38:50.000Z</time>
</trkpt>
<trkpt lat="46.1730610" lon="10.4911090">
	<ele>2500.00</ele>
	<time>2023-08-09T09:38:51.000Z</time>
</trkpt>
<trkpt lat="46.1730670" lon="10.4911060">
	<ele>2500.00</ele>
	<time>2023-08-09T09:38:52.000Z</time>
</trkpt>
<trkpt lat="46.1730720" lon="10.4911060">
	<ele>2499.80</ele>
	<time>2023-08-09T09:38:53.000Z</time>
</trkpt>
<trkpt lat="46.1730780" lon="10.4911060">
	<ele>2499.80</ele>
	<time>2023-08-09T09:38:54.000Z</time>
</trkpt>
<trkpt lat="46.1730810" lon="10.4911070">
	<ele>2499.60</ele>
	<time>2023-08-09T09:38:55.000Z</time>
</trkpt>
<trkpt lat="46.1730840" lon="10.4911080">
	<ele>2499.40</ele>
	<time>2023-08-09T09:38:56.000Z</time>
</trkpt>
<trkpt lat="46.1730860" lon="10.4911080">
	<ele>2499.40</ele>
	<time>2023-08-09T09:38:57.000Z</time>
</trkpt>
<trkpt lat="46.1730890" lon="10.4911090">
	<ele>2499.20</ele>
	<time>2023-08-09T09:38:58.000Z</time>
</trkpt>
<trkpt lat="46.1730950" lon="10.4911110">
	<ele>2499.00</ele>
	<time>2023-08-09T09:38:59.000Z</time>
</trkpt>
<trkpt lat="46.1731000" lon="10.4911120">
	<ele>2498.80</ele>
	<time>2023-08-09T09:39:00.000Z</time>
</trkpt>
<trkpt lat="46.1731030" lon="10.4911140">
	<ele>2498.40</ele>
	<time>2023-08-09T09:39:01.000Z</time>
</trkpt>
<trkpt lat="46.1731040" lon="10.4911190">
	<ele>2498.20</ele>
	<time>2023-08-09T09:39:02.000Z</time>
</trkpt>
<trkpt lat="46.1731030" lon="10.4911260">
	<ele>2498.00</ele>
	<time>2023-08-09T09:39:03.000Z</time>
</trkpt>
<trkpt lat="46.1731040" lon="10.4911340">
	<ele>2497.60</ele>
	<time>2023-08-09T09:39:04.000Z</time>
</trkpt>
<trkpt lat="46.1731040" lon="10.4911400">
	<ele>2497.60</ele>
	<time>2023-08-09T09:39:05.000Z</time>
</trkpt>
<trkpt lat="46.1731040" lon="10.4911460">
	<ele>2497.40</ele>
	<time>2023-08-09T09:39:06.000Z</time>
</trkpt>
<trkpt lat="46.1731010" lon="10.4911560">
	<ele>2497.40</ele>
	<time>2023-08-09T09:39:07.000Z</time>
</trkpt>
<trkpt lat="46.1731000" lon="10.4911570">
	<ele>2497.00</ele>
	<time>2023-08-09T09:39:08.000Z</time>
</trkpt>
<trkpt lat="46.1730980" lon="10.4911570">
	<ele>2496.80</ele>
	<time>2023-08-09T09:39:09.000Z</time>
</trkpt>
<trkpt lat="46.1730980" lon="10.4911570">
	<ele>2496.80</ele>
	<time>2023-08-09T09:39:10.000Z</time>
</trkpt>
<trkpt lat="46.1730990" lon="10.4911550">
	<ele>2496.60</ele>
	<time>2023-08-09T09:39:11.000Z</time>
</trkpt>
<trkpt lat="46.1730980" lon="10.4911550">
	<ele>2496.60</ele>
	<time>2023-08-09T09:39:12.000Z</time>
</trkpt>
<trkpt lat="46.1730960" lon="10.4911550">
	<ele>2496.60</ele>
	<time>2023-08-09T09:39:13.000Z</time>
</trkpt>
<trkpt lat="46.1730950" lon="10.4911550">
	<ele>2496.80</ele>
	<time>2023-08-09T09:39:14.000Z</time>
</trkpt>
<trkpt lat="46.1730950" lon="10.4911560">
	<ele>2496.80</ele>
	<time>2023-08-09T09:39:15.000Z</time>
</trkpt>
<trkpt lat="46.1730950" lon="10.4911560">
	<ele>2497.00</ele>
	<time>2023-08-09T09:39:16.000Z</time>
</trkpt>
<trkpt lat="46.1730950" lon="10.4911560">
	<ele>2497.20</ele>
	<time>2023-08-09T09:39:17.000Z</time>
</trkpt>
<trkpt lat="46.1730950" lon="10.4911560">
	<ele>2497.20</ele>
	<time>2023-08-09T09:39:18.000Z</time>
</trkpt>
<trkpt lat="46.1730950" lon="10.4911560">
	<ele>2497.20</ele>
	<time>2023-08-09T09:39:19.000Z</time>
</trkpt>
<trkpt lat="46.1730950" lon="10.4911560">
	<ele>2497.20</ele>
	<time>2023-08-09T09:39:20.000Z</time>
</trkpt>
<trkpt lat="46.1730950" lon="10.4911560">
	<ele>2497.20</ele>
	<time>2023-08-09T09:39:21.000Z</time>
</trkpt>
<trkpt lat="46.1730950" lon="10.4911560">
	<ele>2497.20</ele>
	<time>2023-08-09T09:39:22.000Z</time>
</trkpt>
<trkpt lat="46.1730950" lon="10.4911560">
	<ele>2497.20</ele>
	<time>2023-08-09T09:39:23.000Z</time>
</trkpt>
<trkpt lat="46.1730950" lon="10.4911560">
	<ele>2497.00</ele>
	<time>2023-08-09T09:39:24.000Z</time>
</trkpt>
<trkpt lat="46.1730950" lon="10.4911560">
	<ele>2497.00</ele>
	<time>2023-08-09T09:39:25.000Z</time>
</trkpt>
<trkpt lat="46.1730950" lon="10.4911560">
	<ele>2497.00</ele>
	<time>2023-08-09T09:39:26.000Z</time>
</trkpt>
<trkpt lat="46.1730950" lon="10.4911560">
	<ele>2497.00</ele>
	<time>2023-08-09T09:39:27.000Z</time>
</trkpt>
<trkpt lat="46.1730950" lon="10.4911560">
	<ele>2497.00</ele>
	<time>2023-08-09T09:39:28.000Z</time>
</trkpt>
<trkpt lat="46.1730950" lon="10.4911560">
	<ele>2497.00</ele>
	<time>2023-08-09T09:39:29.000Z</time>
</trkpt>
<trkpt lat="46.1730950" lon="10.4911560">
	<ele>2497.00</ele>
	<time>2023-08-09T09:39:30.000Z</time>
</trkpt>
<trkpt lat="46.1730950" lon="10.4911560">
	<ele>2497.00</ele>
	<time>2023-08-09T09:39:31.000Z</time>
</trkpt>
<trkpt lat="46.1730950" lon="10.4911560">
	<ele>2496.80</ele>
	<time>2023-08-09T09:39:32.000Z</time>
</trkpt>
<trkpt lat="46.1730950" lon="10.4911560">
	<ele>2496.80</ele>
	<time>2023-08-09T09:39:33.000Z</time>
</trkpt>
<trkpt lat="46.1730950" lon="10.4911560">
	<ele>2496.80</ele>
	<time>2023-08-09T09:39:34.000Z</time>
</trkpt>
<trkpt lat="46.1730950" lon="10.4911570">
	<ele>2496.80</ele>
	<time>2023-08-09T09:39:35.000Z</time>
</trkpt>
<trkpt lat="46.1730950" lon="10.4911570">
	<ele>2496.80</ele>
	<time>2023-08-09T09:39:36.000Z</time>
</trkpt>
<trkpt lat="46.1730950" lon="10.4911570">
	<ele>2496.60</ele>
	<time>2023-08-09T09:39:37.000Z</time>
</trkpt>
<trkpt lat="46.1730950" lon="10.4911570">
	<ele>2496.60</ele>
	<time>2023-08-09T09:39:38.000Z</time>
</trkpt>
<trkpt lat="46.1730950" lon="10.4911570">
	<ele>2496.60</ele>
	<time>2023-08-09T09:39:39.000Z</time>
</trkpt>
<trkpt lat="46.1730950" lon="10.4911580">
	<ele>2496.60</ele>
	<time>2023-08-09T09:39:40.000Z</time>
</trkpt>
<trkpt lat="46.1730950" lon="10.4911610">
	<ele>2496.40</ele>
	<time>2023-08-09T09:39:41.000Z</time>
</trkpt>
<trkpt lat="46.1730950" lon="10.4911640">
	<ele>2496.20</ele>
	<time>2023-08-09T09:39:42.000Z</time>
</trkpt>
<trkpt lat="46.1730950" lon="10.4911650">
	<ele>2496.20</ele>
	<time>2023-08-09T09:39:43.000Z</time>
</trkpt>
<trkpt lat="46.1730950" lon="10.4911660">
	<ele>2496.00</ele>
	<time>2023-08-09T09:39:44.000Z</time>
</trkpt>
<trkpt lat="46.1730950" lon="10.4911670">
	<ele>2495.80</ele>
	<time>2023-08-09T09:39:45.000Z</time>
</trkpt>
<trkpt lat="46.1730950" lon="10.4911670">
	<ele>2495.80</ele>
	<time>2023-08-09T09:39:46.000Z</time>
</trkpt>
<trkpt lat="46.1730950" lon="10.4911710">
	<ele>2495.80</ele>
	<time>2023-08-09T09:39:47.000Z</time>
</trkpt>
<trkpt lat="46.1730960" lon="10.4911730">
	<ele>2495.40</ele>
	<time>2023-08-09T09:39:48.000Z</time>
</trkpt>
<trkpt lat="46.1730970" lon="10.4911780">
	<ele>2495.20</ele>
	<time>2023-08-09T09:39:49.000Z</time>
</trkpt>
<trkpt lat="46.1730970" lon="10.4911810">
	<ele>2495.00</ele>
	<time>2023-08-09T09:39:50.000Z</time>
</trkpt>
<trkpt lat="46.1730980" lon="10.4911820">
	<ele>2494.80</ele>
	<time>2023-08-09T09:39:51.000Z</time>
</trkpt>
<trkpt lat="46.1730980" lon="10.4911830">
	<ele>2494.80</ele>
	<time>2023-08-09T09:39:52.000Z</time>
</trkpt>
<trkpt lat="46.1730980" lon="10.4911870">
	<ele>2494.80</ele>
	<time>2023-08-09T09:39:53.000Z</time>
</trkpt>
<trkpt lat="46.1730990" lon="10.4911910">
	<ele>2494.80</ele>
	<time>2023-08-09T09:39:54.000Z</time>
</trkpt>
<trkpt lat="46.1730990" lon="10.4911940">
	<ele>2494.60</ele>
	<time>2023-08-09T09:39:55.000Z</time>
</trkpt>
<trkpt lat="46.1731000" lon="10.4911950">
	<ele>2494.60</ele>
	<time>2023-08-09T09:39:56.000Z</time>
</trkpt>
<trkpt lat="46.1731000" lon="10.4911980">
	<ele>2494.60</ele>
	<time>2023-08-09T09:39:57.000Z</time>
</trkpt>
<trkpt lat="46.1731000" lon="10.4912010">
	<ele>2494.40</ele>
	<time>2023-08-09T09:39:58.000Z</time>
</trkpt>
<trkpt lat="46.1731000" lon="10.4912040">
	<ele>2494.20</ele>
	<time>2023-08-09T09:39:59.000Z</time>
</trkpt>
<trkpt lat="46.1731000" lon="10.4912100">
	<ele>2494.00</ele>
	<time>2023-08-09T09:40:00.000Z</time>
</trkpt>
<trkpt lat="46.1731000" lon="10.4912140">
	<ele>2494.00</ele>
	<time>2023-08-09T09:40:01.000Z</time>
</trkpt>
<trkpt lat="46.1731010" lon="10.4912220">
	<ele>2494.00</ele>
	<time>2023-08-09T09:40:02.000Z</time>
</trkpt>
<trkpt lat="46.1731010" lon="10.4912250">
	<ele>2493.80</ele>
	<time>2023-08-09T09:40:03.000Z</time>
</trkpt>
<trkpt lat="46.1731010" lon="10.4912290">
	<ele>2494.00</ele>
	<time>2023-08-09T09:40:04.000Z</time>
</trkpt>
<trkpt lat="46.1731010" lon="10.4912330">
	<ele>2494.00</ele>
	<time>2023-08-09T09:40:05.000Z</time>
</trkpt>
<trkpt lat="46.1731010" lon="10.4912440">
	<ele>2494.20</ele>
	<time>2023-08-09T09:40:06.000Z</time>
</trkpt>
<trkpt lat="46.1731010" lon="10.4912500">
	<ele>2494.40</ele>
	<time>2023-08-09T09:40:07.000Z</time>
</trkpt>
<trkpt lat="46.1731010" lon="10.4912570">
	<ele>2494.40</ele>
	<time>2023-08-09T09:40:08.000Z</time>
</trkpt>
<trkpt lat="46.1731010" lon="10.4912640">
	<ele>2494.60</ele>
	<time>2023-08-09T09:40:09.000Z</time>
</trkpt>
<trkpt lat="46.1731010" lon="10.4912700">
	<ele>2494.80</ele>
	<time>2023-08-09T09:40:10.000Z</time>
</trkpt>
<trkpt lat="46.1731010" lon="10.4912760">
	<ele>2495.00</ele>
	<time>2023-08-09T09:40:11.000Z</time>
</trkpt>
<trkpt lat="46.1731010" lon="10.4912840">
	<ele>2495.20</ele>
	<time>2023-08-09T09:40:12.000Z</time>
</trkpt>
<trkpt lat="46.1731010" lon="10.4912960">
	<ele>2495.40</ele>
	<time>2023-08-09T09:40:13.000Z</time>
</trkpt>
<trkpt lat="46.1731010" lon="10.4913070">
	<ele>2495.40</ele>
	<time>2023-08-09T09:40:14.000Z</time>
</trkpt>
<trkpt lat="46.1731000" lon="10.4913140">
	<ele>2495.60</ele>
	<time>2023-08-09T09:40:15.000Z</time>
</trkpt>
<trkpt lat="46.1730990" lon="10.4913200">
	<ele>2495.60</ele>
	<time>2023-08-09T09:40:16.000Z</time>
</trkpt>
<trkpt lat="46.1730980" lon="10.4913260">
	<ele>2495.60</ele>
	<time>2023-08-09T09:40:17.000Z</time>
</trkpt>
<trkpt lat="46.1730970" lon="10.4913300">
	<ele>2495.60</ele>
	<time>2023-08-09T09:40:18.000Z</time>
</trkpt>
<trkpt lat="46.1730940" lon="10.4913380">
	<ele>2495.60</ele>
	<time>2023-08-09T09:40:19.000Z</time>
</trkpt>
<trkpt lat="46.1730920" lon="10.4913440">
	<ele>2495.60</ele>
	<time>2023-08-09T09:40:20.000Z</time>
</trkpt>
<trkpt lat="46.1730890" lon="10.4913470">
	<ele>2495.80</ele>
	<time>2023-08-09T09:40:21.000Z</time>
</trkpt>
<trkpt lat="46.1730880" lon="10.4913540">
	<ele>2495.80</ele>
	<time>2023-08-09T09:40:22.000Z</time>
</trkpt>
<trkpt lat="46.1730860" lon="10.4913630">
	<ele>2495.80</ele>
	<time>2023-08-09T09:40:23.000Z</time>
</trkpt>
<trkpt lat="46.1730830" lon="10.4913720">
	<ele>2495.80</ele>
	<time>2023-08-09T09:40:24.000Z</time>
</trkpt>
<trkpt lat="46.1730810" lon="10.4913770">
	<ele>2495.80</ele>
	<time>2023-08-09T09:40:25.000Z</time>
</trkpt>
<trkpt lat="46.1730770" lon="10.4913850">
	<ele>2496.00</ele>
	<time>2023-08-09T09:40:26.000Z</time>
</trkpt>
<trkpt lat="46.1730740" lon="10.4913910">
	<ele>2496.00</ele>
	<time>2023-08-09T09:40:27.000Z</time>
</trkpt>
<trkpt lat="46.1730730" lon="10.4913960">
	<ele>2496.00</ele>
	<time>2023-08-09T09:40:28.000Z</time>
</trkpt>
<trkpt lat="46.1730720" lon="10.4914010">
	<ele>2496.00</ele>
	<time>2023-08-09T09:40:29.000Z</time>
</trkpt>
<trkpt lat="46.1730720" lon="10.4914090">
	<ele>2496.20</ele>
	<time>2023-08-09T09:40:30.000Z</time>
</trkpt>
<trkpt lat="46.1730710" lon="10.4914150">
	<ele>2496.20</ele>
	<time>2023-08-09T09:40:31.000Z</time>
</trkpt>
<trkpt lat="46.1730700" lon="10.4914220">
	<ele>2496.20</ele>
	<time>2023-08-09T09:40:32.000Z</time>
</trkpt>
<trkpt lat="46.1730690" lon="10.4914320">
	<ele>2496.20</ele>
	<time>2023-08-09T09:40:33.000Z</time>
</trkpt>
<trkpt lat="46.1730680" lon="10.4914410">
	<ele>2496.20</ele>
	<time>2023-08-09T09:40:34.000Z</time>
</trkpt>
<trkpt lat="46.1730670" lon="10.4914510">
	<ele>2496.40</ele>
	<time>2023-08-09T09:40:35.000Z</time>
</trkpt>
<trkpt lat="46.1730660" lon="10.4914630">
	<ele>2496.40</ele>
	<time>2023-08-09T09:40:36.000Z</time>
</trkpt>
<trkpt lat="46.1730660" lon="10.4914710">
	<ele>2496.40</ele>
	<time>2023-08-09T09:40:37.000Z</time>
</trkpt>
<trkpt lat="46.1730650" lon="10.4914770">
	<ele>2496.40</ele>
	<time>2023-08-09T09:40:38.000Z</time>
</trkpt>
<trkpt lat="46.1730650" lon="10.4914840">
	<ele>2496.20</ele>
	<time>2023-08-09T09:40:39.000Z</time>
</trkpt>
<trkpt lat="46.1730640" lon="10.4914910">
	<ele>2496.20</ele>
	<time>2023-08-09T09:40:40.000Z</time>
</trkpt>
<trkpt lat="46.1730640" lon="10.4914970">
	<ele>2496.00</ele>
	<time>2023-08-09T09:40:41.000Z</time>
</trkpt>
<trkpt lat="46.1730640" lon="10.4915040">
	<ele>2496.00</ele>
	<time>2023-08-09T09:40:42.000Z</time>
</trkpt>
<trkpt lat="46.1730640" lon="10.4915120">
	<ele>2495.80</ele>
	<time>2023-08-09T09:40:43.000Z</time>
</trkpt>
<trkpt lat="46.1730640" lon="10.4915180">
	<ele>2495.60</ele>
	<time>2023-08-09T09:40:44.000Z</time>
</trkpt>
<trkpt lat="46.1730640" lon="10.4915220">
	<ele>2495.60</ele>
	<time>2023-08-09T09:40:45.000Z</time>
</trkpt>
<trkpt lat="46.1730640" lon="10.4915240">
	<ele>2495.80</ele>
	<time>2023-08-09T09:40:46.000Z</time>
</trkpt>
<trkpt lat="46.1730640" lon="10.4915280">
	<ele>2495.80</ele>
	<time>2023-08-09T09:40:47.000Z</time>
</trkpt>
<trkpt lat="46.1730640" lon="10.4915320">
	<ele>2495.80</ele>
	<time>2023-08-09T09:40:48.000Z</time>
</trkpt>
<trkpt lat="46.1730640" lon="10.4915360">
	<ele>2495.60</ele>
	<time>2023-08-09T09:40:49.000Z</time>
</trkpt>
<trkpt lat="46.1730640" lon="10.4915430">
	<ele>2495.60</ele>
	<time>2023-08-09T09:40:50.000Z</time>
</trkpt>
<trkpt lat="46.1730640" lon="10.4915490">
	<ele>2495.60</ele>
	<time>2023-08-09T09:40:51.000Z</time>
</trkpt>
<trkpt lat="46.1730640" lon="10.4915540">
	<ele>2495.60</ele>
	<time>2023-08-09T09:40:52.000Z</time>
</trkpt>
<trkpt lat="46.1730640" lon="10.4915580">
	<ele>2495.60</ele>
	<time>2023-08-09T09:40:53.000Z</time>
</trkpt>
<trkpt lat="46.1730640" lon="10.4915600">
	<ele>2495.60</ele>
	<time>2023-08-09T09:40:54.000Z</time>
</trkpt>
<trkpt lat="46.1730660" lon="10.4915610">
	<ele>2495.80</ele>
	<time>2023-08-09T09:40:55.000Z</time>
</trkpt>
<trkpt lat="46.1730710" lon="10.4915740">
	<ele>2495.80</ele>
	<time>2023-08-09T09:40:56.000Z</time>
</trkpt>
<trkpt lat="46.1730670" lon="10.4915930">
	<ele>2496.00</ele>
	<time>2023-08-09T09:40:57.000Z</time>
</trkpt>
<trkpt lat="46.1730630" lon="10.4916120">
	<ele>2496.00</ele>
	<time>2023-08-09T09:40:58.000Z</time>
</trkpt>
<trkpt lat="46.1730580" lon="10.4916300">
	<ele>2496.00</ele>
	<time>2023-08-09T09:40:59.000Z</time>
</trkpt>
<trkpt lat="46.1730550" lon="10.4916470">
	<ele>2496.00</ele>
	<time>2023-08-09T09:41:00.000Z</time>
</trkpt>
<trkpt lat="46.1730510" lon="10.4916630">
	<ele>2496.00</ele>
	<time>2023-08-09T09:41:01.000Z</time>
</trkpt>
<trkpt lat="46.1730470" lon="10.4916810">
	<ele>2496.00</ele>
	<time>2023-08-09T09:41:02.000Z</time>
</trkpt>
<trkpt lat="46.1730470" lon="10.4916990">
	<ele>2496.00</ele>
	<time>2023-08-09T09:41:03.000Z</time>
</trkpt>
<trkpt lat="46.1730490" lon="10.4917180">
	<ele>2496.00</ele>
	<time>2023-08-09T09:41:04.000Z</time>
</trkpt>
<trkpt lat="46.1730520" lon="10.4917390">
	<ele>2496.00</ele>
	<time>2023-08-09T09:41:05.000Z</time>
</trkpt>
<trkpt lat="46.1730500" lon="10.4917480">
	<ele>2496.20</ele>
	<time>2023-08-09T09:41:06.000Z</time>
</trkpt>
<trkpt lat="46.1730470" lon="10.4917580">
	<ele>2496.20</ele>
	<time>2023-08-09T09:41:07.000Z</time>
</trkpt>
<trkpt lat="46.1730440" lon="10.4917650">
	<ele>2496.60</ele>
	<time>2023-08-09T09:41:08.000Z</time>
</trkpt>
<trkpt lat="46.1730410" lon="10.4917750">
	<ele>2496.80</ele>
	<time>2023-08-09T09:41:09.000Z</time>
</trkpt>
<trkpt lat="46.1730400" lon="10.4917830">
	<ele>2497.00</ele>
	<time>2023-08-09T09:41:10.000Z</time>
</trkpt>
<trkpt lat="46.1730390" lon="10.4917890">
	<ele>2497.00</ele>
	<time>2023-08-09T09:41:11.000Z</time>
</trkpt>
<trkpt lat="46.1730380" lon="10.4918010">
	<ele>2497.00</ele>
	<time>2023-08-09T09:41:12.000Z</time>
</trkpt>
<trkpt lat="46.1730380" lon="10.4918140">
	<ele>2497.00</ele>
	<time>2023-08-09T09:41:13.000Z</time>
</trkpt>
<trkpt lat="46.1730400" lon="10.4918250">
	<ele>2497.20</ele>
	<time>2023-08-09T09:41:14.000Z</time>
</trkpt>
<trkpt lat="46.1730440" lon="10.4918340">
	<ele>2497.20</ele>
	<time>2023-08-09T09:41:15.000Z</time>
</trkpt>
<trkpt lat="46.1730480" lon="10.4918390">
	<ele>2497.20</ele>
	<time>2023-08-09T09:41:16.000Z</time>
</trkpt>
<trkpt lat="46.1730500" lon="10.4918450">
	<ele>2497.20</ele>
	<time>2023-08-09T09:41:17.000Z</time>
</trkpt>
<trkpt lat="46.1730570" lon="10.4918490">
	<ele>2497.20</ele>
	<time>2023-08-09T09:41:18.000Z</time>
</trkpt>
<trkpt lat="46.1730640" lon="10.4918510">
	<ele>2497.20</ele>
	<time>2023-08-09T09:41:19.000Z</time>
</trkpt>
<trkpt lat="46.1730700" lon="10.4918550">
	<ele>2497.00</ele>
	<time>2023-08-09T09:41:20.000Z</time>
</trkpt>
<trkpt lat="46.1730710" lon="10.4918600">
	<ele>2497.20</ele>
	<time>2023-08-09T09:41:21.000Z</time>
</trkpt>
<trkpt lat="46.1730720" lon="10.4918610">
	<ele>2497.20</ele>
	<time>2023-08-09T09:41:22.000Z</time>
</trkpt>
<trkpt lat="46.1730710" lon="10.4918620">
	<ele>2497.40</ele>
	<time>2023-08-09T09:41:23.000Z</time>
</trkpt>
<trkpt lat="46.1730720" lon="10.4918620">
	<ele>2497.40</ele>
	<time>2023-08-09T09:41:24.000Z</time>
</trkpt>
<trkpt lat="46.1730720" lon="10.4918620">
	<ele>2497.40</ele>
	<time>2023-08-09T09:41:25.000Z</time>
</trkpt>
<trkpt lat="46.1730720" lon="10.4918620">
	<ele>2497.60</ele>
	<time>2023-08-09T09:41:26.000Z</time>
</trkpt>
<trkpt lat="46.1730730" lon="10.4918620">
	<ele>2497.60</ele>
	<time>2023-08-09T09:41:27.000Z</time>
</trkpt>
<trkpt lat="46.1730740" lon="10.4918620">
	<ele>2497.60</ele>
	<time>2023-08-09T09:41:28.000Z</time>
</trkpt>
<trkpt lat="46.1730750" lon="10.4918610">
	<ele>2497.60</ele>
	<time>2023-08-09T09:41:29.000Z</time>
</trkpt>
<trkpt lat="46.1730740" lon="10.4918610">
	<ele>2497.40</ele>
	<time>2023-08-09T09:41:30.000Z</time>
</trkpt>
<trkpt lat="46.1730720" lon="10.4918610">
	<ele>2497.20</ele>
	<time>2023-08-09T09:41:31.000Z</time>
</trkpt>
<trkpt lat="46.1730710" lon="10.4918610">
	<ele>2497.20</ele>
	<time>2023-08-09T09:41:32.000Z</time>
</trkpt>
<trkpt lat="46.1730710" lon="10.4918610">
	<ele>2497.00</ele>
	<time>2023-08-09T09:41:33.000Z</time>
</trkpt>
<trkpt lat="46.1730710" lon="10.4918610">
	<ele>2497.00</ele>
	<time>2023-08-09T09:41:34.000Z</time>
</trkpt>
<trkpt lat="46.1730710" lon="10.4918610">
	<ele>2497.00</ele>
	<time>2023-08-09T09:41:35.000Z</time>
</trkpt>
<trkpt lat="46.1730710" lon="10.4918610">
	<ele>2497.00</ele>
	<time>2023-08-09T09:41:36.000Z</time>
</trkpt>
<trkpt lat="46.1730710" lon="10.4918610">
	<ele>2497.00</ele>
	<time>2023-08-09T09:41:37.000Z</time>
</trkpt>
<trkpt lat="46.1730710" lon="10.4918610">
	<ele>2497.00</ele>
	<time>2023-08-09T09:41:38.000Z</time>
</trkpt>
<trkpt lat="46.1730710" lon="10.4918610">
	<ele>2496.80</ele>
	<time>2023-08-09T09:41:39.000Z</time>
</trkpt>
<trkpt lat="46.1730710" lon="10.4918610">
	<ele>2496.80</ele>
	<time>2023-08-09T09:41:40.000Z</time>
</trkpt>
<trkpt lat="46.1730710" lon="10.4918610">
	<ele>2497.00</ele>
	<time>2023-08-09T09:41:41.000Z</time>
</trkpt>
<trkpt lat="46.1730710" lon="10.4918610">
	<ele>2496.80</ele>
	<time>2023-08-09T09:41:42.000Z</time>
</trkpt>
<trkpt lat="46.1730710" lon="10.4918610">
	<ele>2496.80</ele>
	<time>2023-08-09T09:41:43.000Z</time>
</trkpt>
<trkpt lat="46.1730710" lon="10.4918610">
	<ele>2496.80</ele>
	<time>2023-08-09T09:41:44.000Z</time>
</trkpt>
<trkpt lat="46.1730710" lon="10.4918610">
	<ele>2496.80</ele>
	<time>2023-08-09T09:41:45.000Z</time>
</trkpt>
<trkpt lat="46.1730710" lon="10.4918610">
	<ele>2496.80</ele>
	<time>2023-08-09T09:41:46.000Z</time>
</trkpt>
<trkpt lat="46.1730710" lon="10.4918610">
	<ele>2496.80</ele>
	<time>2023-08-09T09:41:47.000Z</time>
</trkpt>
<trkpt lat="46.1730710" lon="10.4918610">
	<ele>2496.80</ele>
	<time>2023-08-09T09:41:48.000Z</time>
</trkpt>
<trkpt lat="46.1730720" lon="10.4918610">
	<ele>2496.80</ele>
	<time>2023-08-09T09:41:49.000Z</time>
</trkpt>
<trkpt lat="46.1730720" lon="10.4918610">
	<ele>2496.80</ele>
	<time>2023-08-09T09:41:50.000Z</time>
</trkpt>
<trkpt lat="46.1730720" lon="10.4918610">
	<ele>2496.80</ele>
	<time>2023-08-09T09:41:51.000Z</time>
</trkpt>
<trkpt lat="46.1730720" lon="10.4918610">
	<ele>2496.60</ele>
	<time>2023-08-09T09:41:52.000Z</time>
</trkpt>
<trkpt lat="46.1730730" lon="10.4918610">
	<ele>2496.60</ele>
	<time>2023-08-09T09:41:53.000Z</time>
</trkpt>
<trkpt lat="46.1730740" lon="10.4918610">
	<ele>2496.60</ele>
	<time>2023-08-09T09:41:54.000Z</time>
</trkpt>
<trkpt lat="46.1730740" lon="10.4918610">
	<ele>2496.60</ele>
	<time>2023-08-09T09:41:55.000Z</time>
</trkpt>
<trkpt lat="46.1730740" lon="10.4918610">
	<ele>2496.60</ele>
	<time>2023-08-09T09:41:56.000Z</time>
</trkpt>
<trkpt lat="46.1730750" lon="10.4918610">
	<ele>2496.80</ele>
	<time>2023-08-09T09:41:57.000Z</time>
</trkpt>
<trkpt lat="46.1730760" lon="10.4918610">
	<ele>2496.80</ele>
	<time>2023-08-09T09:41:58.000Z</time>
</trkpt>
<trkpt lat="46.1730780" lon="10.4918610">
	<ele>2496.80</ele>
	<time>2023-08-09T09:41:59.000Z</time>
</trkpt>
<trkpt lat="46.1730790" lon="10.4918620">
	<ele>2497.00</ele>
	<time>2023-08-09T09:42:00.000Z</time>
</trkpt>
<trkpt lat="46.1730800" lon="10.4918630">
	<ele>2497.20</ele>
	<time>2023-08-09T09:42:01.000Z</time>
</trkpt>
<trkpt lat="46.1730810" lon="10.4918650">
	<ele>2497.40</ele>
	<time>2023-08-09T09:42:02.000Z</time>
</trkpt>
<trkpt lat="46.1730810" lon="10.4918690">
	<ele>2497.40</ele>
	<time>2023-08-09T09:42:03.000Z</time>
</trkpt>
<trkpt lat="46.1730810" lon="10.4918710">
	<ele>2497.60</ele>
	<time>2023-08-09T09:42:04.000Z</time>
</trkpt>
<trkpt lat="46.1730860" lon="10.4918740">
	<ele>2497.60</ele>
	<time>2023-08-09T09:42:05.000Z</time>
</trkpt>
<trkpt lat="46.1730890" lon="10.4918770">
	<ele>2497.60</ele>
	<time>2023-08-09T09:42:06.000Z</time>
</trkpt>
<trkpt lat="46.1730910" lon="10.4918820">
	<ele>2497.60</ele>
	<time>2023-08-09T09:42:07.000Z</time>
</trkpt>
<trkpt lat="46.1730940" lon="10.4918830">
	<ele>2497.80</ele>
	<time>2023-08-09T09:42:08.000Z</time>
</trkpt>
<trkpt lat="46.1731010" lon="10.4918810">
	<ele>2497.80</ele>
	<time>2023-08-09T09:42:09.000Z</time>
</trkpt>
<trkpt lat="46.1731130" lon="10.4918690">
	<ele>2497.80</ele>
	<time>2023-08-09T09:42:10.000Z</time>
</trkpt>
<trkpt lat="46.1731270" lon="10.4918520">
	<ele>2497.80</ele>
	<time>2023-08-09T09:42:11.000Z</time>
</trkpt>
<trkpt lat="46.1731420" lon="10.4918380">
	<ele>2497.80</ele>
	<time>2023-08-09T09:42:12.000Z</time>
</trkpt>
<trkpt lat="46.1731540" lon="10.4918250">
	<ele>2497.80</ele>
	<time>2023-08-09T09:42:13.000Z</time>
</trkpt>
<trkpt lat="46.1731650" lon="10.4918120">
	<ele>2497.80</ele>
	<time>2023-08-09T09:42:14.000Z</time>
</trkpt>
<trkpt lat="46.1731730" lon="10.4917970">
	<ele>2497.80</ele>
	<time>2023-08-09T09:42:15.000Z</time>
</trkpt>
<trkpt lat="46.1731820" lon="10.4917860">
	<ele>2497.80</ele>
	<time>2023-08-09T09:42:16.000Z</time>
</trkpt>
<trkpt lat="46.1731910" lon="10.4917690">
	<ele>2497.80</ele>
	<time>2023-08-09T09:42:17.000Z</time>
</trkpt>
<trkpt lat="46.1732020" lon="10.4917540">
	<ele>2497.80</ele>
	<time>2023-08-09T09:42:18.000Z</time>
</trkpt>
<trkpt lat="46.1732070" lon="10.4917410">
	<ele>2497.80</ele>
	<time>2023-08-09T09:42:19.000Z</time>
</trkpt>
<trkpt lat="46.1732130" lon="10.4917280">
	<ele>2497.80</ele>
	<time>2023-08-09T09:42:20.000Z</time>
</trkpt>
<trkpt lat="46.1732180" lon="10.4917160">
	<ele>2497.80</ele>
	<time>2023-08-09T09:42:21.000Z</time>
</trkpt>
<trkpt lat="46.1732240" lon="10.4917100">
	<ele>2497.60</ele>
	<time>2023-08-09T09:42:22.000Z</time>
</trkpt>
<trkpt lat="46.1732320" lon="10.4917030">
	<ele>2497.60</ele>
	<time>2023-08-09T09:42:23.000Z</time>
</trkpt>
<trkpt lat="46.1732390" lon="10.4916940">
	<ele>2497.40</ele>
	<time>2023-08-09T09:42:24.000Z</time>
</trkpt>
<trkpt lat="46.1732450" lon="10.4916830">
	<ele>2497.20</ele>
	<time>2023-08-09T09:42:25.000Z</time>
</trkpt>
<trkpt lat="46.1732540" lon="10.4916720">
	<ele>2497.20</ele>
	<time>2023-08-09T09:42:26.000Z</time>
</trkpt>
<trkpt lat="46.1732600" lon="10.4916610">
	<ele>2497.00</ele>
	<time>2023-08-09T09:42:27.000Z</time>
</trkpt>
<trkpt lat="46.1732620" lon="10.4916520">
	<ele>2497.00</ele>
	<time>2023-08-09T09:42:28.000Z</time>
</trkpt>
<trkpt lat="46.1732650" lon="10.4916460">
	<ele>2496.80</ele>
	<time>2023-08-09T09:42:29.000Z</time>
</trkpt>
<trkpt lat="46.1732670" lon="10.4916410">
	<ele>2496.80</ele>
	<time>2023-08-09T09:42:30.000Z</time>
</trkpt>
<trkpt lat="46.1732740" lon="10.4916380">
	<ele>2496.80</ele>
	<time>2023-08-09T09:42:31.000Z</time>
</trkpt>
<trkpt lat="46.1732770" lon="10.4916320">
	<ele>2496.80</ele>
	<time>2023-08-09T09:42:32.000Z</time>
</trkpt>
<trkpt lat="46.1732780" lon="10.4916240">
	<ele>2496.80</ele>
	<time>2023-08-09T09:42:33.000Z</time>
</trkpt>
<trkpt lat="46.1732780" lon="10.4916200">
	<ele>2497.00</ele>
	<time>2023-08-09T09:42:34.000Z</time>
</trkpt>
<trkpt lat="46.1732770" lon="10.4916180">
	<ele>2497.00</ele>
	<time>2023-08-09T09:42:35.000Z</time>
</trkpt>
<trkpt lat="46.1732760" lon="10.4916070">
	<ele>2497.00</ele>
	<time>2023-08-09T09:42:36.000Z</time>
</trkpt>
<trkpt lat="46.1732730" lon="10.4915930">
	<ele>2496.80</ele>
	<time>2023-08-09T09:42:37.000Z</time>
</trkpt>
<trkpt lat="46.1732700" lon="10.4915830">
	<ele>2496.80</ele>
	<time>2023-08-09T09:42:38.000Z</time>
</trkpt>
<trkpt lat="46.1732690" lon="10.4915760">
	<ele>2496.60</ele>
	<time>2023-08-09T09:42:39.000Z</time>
</trkpt>
<trkpt lat="46.1732680" lon="10.4915720">
	<ele>2496.40</ele>
	<time>2023-08-09T09:42:40.000Z</time>
</trkpt>
<trkpt lat="46.1732670" lon="10.4915650">
	<ele>2496.20</ele>
	<time>2023-08-09T09:42:41.000Z</time>
</trkpt>
<trkpt lat="46.1732700" lon="10.4915600">
	<ele>2496.00</ele>
	<time>2023-08-09T09:42:42.000Z</time>
</trkpt>
<trkpt lat="46.1732730" lon="10.4915560">
	<ele>2496.00</ele>
	<time>2023-08-09T09:42:43.000Z</time>
</trkpt>
<trkpt lat="46.1732770" lon="10.4915510">
	<ele>2495.60</ele>
	<time>2023-08-09T09:42:44.000Z</time>
</trkpt>
<trkpt lat="46.1732810" lon="10.4915430">
	<ele>2495.60</ele>
	<time>2023-08-09T09:42:45.000Z</time>
</trkpt>
<trkpt lat="46.1732870" lon="10.4915360">
	<ele>2495.40</ele>
	<time>2023-08-09T09:42:46.000Z</time>
</trkpt>
<trkpt lat="46.1732930" lon="10.4915270">
	<ele>2495.20</ele>
	<time>2023-08-09T09:42:47.000Z</time>
</trkpt>
<trkpt lat="46.1733010" lon="10.4915190">
	<ele>2495.00</ele>
	<time>2023-08-09T09:42:48.000Z</time>
</trkpt>
<trkpt lat="46.1733070" lon="10.4915120">
	<ele>2495.00</ele>
	<time>2023-08-09T09:42:49.000Z</time>
</trkpt>
<trkpt lat="46.1733120" lon="10.4915100">
	<ele>2494.80</ele>
	<time>2023-08-09T09:42:50.000Z</time>
</trkpt>
<trkpt lat="46.1733150" lon="10.4915080">
	<ele>2494.80</ele>
	<time>2023-08-09T09:42:51.000Z</time>
</trkpt>
<trkpt lat="46.1733170" lon="10.4915010">
	<ele>2494.80</ele>
	<time>2023-08-09T09:42:52.000Z</time>
</trkpt>
<trkpt lat="46.1733190" lon="10.4914920">
	<ele>2494.80</ele>
	<time>2023-08-09T09:42:53.000Z</time>
</trkpt>
<trkpt lat="46.1733190" lon="10.4914800">
	<ele>2494.80</ele>
	<time>2023-08-09T09:42:54.000Z</time>
</trkpt>
<trkpt lat="46.1733210" lon="10.4914690">
	<ele>2494.80</ele>
	<time>2023-08-09T09:42:55.000Z</time>
</trkpt>
<trkpt lat="46.1733240" lon="10.4914600">
	<ele>2494.60</ele>
	<time>2023-08-09T09:42:56.000Z</time>
</trkpt>
<trkpt lat="46.1733270" lon="10.4914540">
	<ele>2494.60</ele>
	<time>2023-08-09T09:42:57.000Z</time>
</trkpt>
<trkpt lat="46.1733320" lon="10.4914430">
	<ele>2494.20</ele>
	<time>2023-08-09T09:42:58.000Z</time>
</trkpt>
<trkpt lat="46.1733360" lon="10.4914320">
	<ele>2494.00</ele>
	<time>2023-08-09T09:42:59.000Z</time>
</trkpt>
<trkpt lat="46.1733410" lon="10.4914230">
	<ele>2494.00</ele>
	<time>2023-08-09T09:43:00.000Z</time>
</trkpt>
<trkpt lat="46.1733470" lon="10.4914160">
	<ele>2493.80</ele>
	<time>2023-08-09T09:43:01.000Z</time>
</trkpt>
<trkpt lat="46.1733540" lon="10.4914070">
	<ele>2493.80</ele>
	<time>2023-08-09T09:43:02.000Z</time>
</trkpt>
<trkpt lat="46.1733580" lon="10.4913950">
	<ele>2493.60</ele>
	<time>2023-08-09T09:43:03.000Z</time>
</trkpt>
<trkpt lat="46.1733590" lon="10.4913810">
	<ele>2493.60</ele>
	<time>2023-08-09T09:43:04.000Z</time>
</trkpt>
<trkpt lat="46.1733660" lon="10.4913660">
	<ele>2493.60</ele>
	<time>2023-08-09T09:43:05.000Z</time>
</trkpt>
<trkpt lat="46.1733730" lon="10.4913520">
	<ele>2493.60</ele>
	<time>2023-08-09T09:43:06.000Z</time>
</trkpt>
<trkpt lat="46.1733800" lon="10.4913370">
	<ele>2493.60</ele>
	<time>2023-08-09T09:43:07.000Z</time>
</trkpt>
<trkpt lat="46.1733890" lon="10.4913270">
	<ele>2493.60</ele>
	<time>2023-08-09T09:43:08.000Z</time>
</trkpt>
<trkpt lat="46.1734000" lon="10.4913200">
	<ele>2493.60</ele>
	<time>2023-08-09T09:43:09.000Z</time>
</trkpt>
<trkpt lat="46.1734080" lon="10.4913140">
	<ele>2493.60</ele>
	<time>2023-08-09T09:43:10.000Z</time>
</trkpt>
<trkpt lat="46.1734150" lon="10.4913070">
	<ele>2493.60</ele>
	<time>2023-08-09T09:43:11.000Z</time>
</trkpt>
<trkpt lat="46.1734230" lon="10.4912990">
	<ele>2493.60</ele>
	<time>2023-08-09T09:43:12.000Z</time>
</trkpt>
<trkpt lat="46.1734290" lon="10.4912920">
	<ele>2493.60</ele>
	<time>2023-08-09T09:43:13.000Z</time>
</trkpt>
<trkpt lat="46.1734360" lon="10.4912870">
	<ele>2493.80</ele>
	<time>2023-08-09T09:43:14.000Z</time>
</trkpt>
<trkpt lat="46.1734420" lon="10.4912760">
	<ele>2493.80</ele>
	<time>2023-08-09T09:43:15.000Z</time>
</trkpt>
<trkpt lat="46.1734490" lon="10.4912670">
	<ele>2493.80</ele>
	<time>2023-08-09T09:43:16.000Z</time>
</trkpt>
<trkpt lat="46.1734570" lon="10.4912600">
	<ele>2493.80</ele>
	<time>2023-08-09T09:43:17.000Z</time>
</trkpt>
<trkpt lat="46.1734640" lon="10.4912540">
	<ele>2493.80</ele>
	<time>2023-08-09T09:43:18.000Z</time>
</trkpt>
<trkpt lat="46.1734710" lon="10.4912470">
	<ele>2493.60</ele>
	<time>2023-08-09T09:43:19.000Z</time>
</trkpt>
<trkpt lat="46.1734750" lon="10.4912400">
	<ele>2493.60</ele>
	<time>2023-08-09T09:43:20.000Z</time>
</trkpt>
<trkpt lat="46.1734810" lon="10.4912310">
	<ele>2493.60</ele>
	<time>2023-08-09T09:43:21.000Z</time>
</trkpt>
<trkpt lat="46.1734860" lon="10.4912220">
	<ele>2493.40</ele>
	<time>2023-08-09T09:43:22.000Z</time>
</trkpt>
<trkpt lat="46.1734920" lon="10.4912150">
	<ele>2493.40</ele>
	<time>2023-08-09T09:43:23.000Z</time>
</trkpt>
<trkpt lat="46.1734990" lon="10.4912080">
	<ele>2493.20</ele>
	<time>2023-08-09T09:43:24.000Z</time>
</trkpt>
<trkpt lat="46.1735050" lon="10.4912050">
	<ele>2493.20</ele>
	<time>2023-08-09T09:43:25.000Z</time>
</trkpt>
<trkpt lat="46.1735100" lon="10.4911990">
	<ele>2493.20</ele>
	<time>2023-08-09T09:43:26.000Z</time>
</trkpt>
<trkpt lat="46.1735120" lon="10.4911940">
	<ele>2493.00</ele>
	<time>2023-08-09T09:43:27.000Z</time>
</trkpt>
<trkpt lat="46.1735130" lon="10.4911890">
	<ele>2493.00</ele>
	<time>2023-08-09T09:43:28.000Z</time>
</trkpt>
<trkpt lat="46.1735140" lon="10.4911850">
	<ele>2492.80</ele>
	<time>2023-08-09T09:43:29.000Z</time>
</trkpt>
<trkpt lat="46.1735160" lon="10.4911790">
	<ele>2492.60</ele>
	<time>2023-08-09T09:43:30.000Z</time>
</trkpt>
<trkpt lat="46.1735210" lon="10.4911750">
	<ele>2492.60</ele>
	<time>2023-08-09T09:43:31.000Z</time>
</trkpt>
<trkpt lat="46.1735280" lon="10.4911760">
	<ele>2492.20</ele>
	<time>2023-08-09T09:43:32.000Z</time>
</trkpt>
<trkpt lat="46.1735400" lon="10.4911830">
	<ele>2492.00</ele>
	<time>2023-08-09T09:43:33.000Z</time>
</trkpt>
<trkpt lat="46.1735520" lon="10.4911880">
	<ele>2491.80</ele>
	<time>2023-08-09T09:43:34.000Z</time>
</trkpt>
<trkpt lat="46.1735630" lon="10.4911900">
	<ele>2491.80</ele>
	<time>2023-08-09T09:43:35.000Z</time>
</trkpt>
<trkpt lat="46.1735730" lon="10.4911910">
	<ele>2491.80</ele>
	<time>2023-08-09T09:43:36.000Z</time>
</trkpt>
<trkpt lat="46.1735850" lon="10.4911930">
	<ele>2491.80</ele>
	<time>2023-08-09T09:43:37.000Z</time>
</trkpt>
<trkpt lat="46.1735920" lon="10.4911970">
	<ele>2491.80</ele>
	<time>2023-08-09T09:43:38.000Z</time>
</trkpt>
<trkpt lat="46.1735990" lon="10.4911980">
	<ele>2491.80</ele>
	<time>2023-08-09T09:43:39.000Z</time>
</trkpt>
<trkpt lat="46.1736110" lon="10.4911980">
	<ele>2491.80</ele>
	<time>2023-08-09T09:43:40.000Z</time>
</trkpt>
<trkpt lat="46.1736230" lon="10.4911960">
	<ele>2491.80</ele>
	<time>2023-08-09T09:43:41.000Z</time>
</trkpt>
<trkpt lat="46.1736340" lon="10.4911930">
	<ele>2492.00</ele>
	<time>2023-08-09T09:43:42.000Z</time>
</trkpt>
<trkpt lat="46.1736460" lon="10.4911910">
	<ele>2492.00</ele>
	<time>2023-08-09T09:43:43.000Z</time>
</trkpt>
<trkpt lat="46.1736520" lon="10.4911890">
	<ele>2492.00</ele>
	<time>2023-08-09T09:43:44.000Z</time>
</trkpt>
<trkpt lat="46.1736570" lon="10.4911840">
	<ele>2492.00</ele>
	<time>2023-08-09T09:43:45.000Z</time>
</trkpt>
<trkpt lat="46.1736640" lon="10.4911790">
	<ele>2492.00</ele>
	<time>2023-08-09T09:43:46.000Z</time>
</trkpt>
<trkpt lat="46.1736730" lon="10.4911690">
	<ele>2492.20</ele>
	<time>2023-08-09T09:43:47.000Z</time>
</trkpt>
<trkpt lat="46.1736830" lon="10.4911610">
	<ele>2492.20</ele>
	<time>2023-08-09T09:43:48.000Z</time>
</trkpt>
<trkpt lat="46.1736940" lon="10.4911570">
	<ele>2492.20</ele>
	<time>2023-08-09T09:43:49.000Z</time>
</trkpt>
<trkpt lat="46.1737050" lon="10.4911510">
	<ele>2492.20</ele>
	<time>2023-08-09T09:43:50.000Z</time>
</trkpt>
<trkpt lat="46.1737160" lon="10.4911490">
	<ele>2492.20</ele>
	<time>2023-08-09T09:43:51.000Z</time>
</trkpt>
<trkpt lat="46.1737290" lon="10.4911470">
	<ele>2492.00</ele>
	<time>2023-08-09T09:43:52.000Z</time>
</trkpt>
<trkpt lat="46.1737390" lon="10.4911420">
	<ele>2492.00</ele>
	<time>2023-08-09T09:43:53.000Z</time>
</trkpt>
<trkpt lat="46.1737460" lon="10.4911350">
	<ele>2492.00</ele>
	<time>2023-08-09T09:43:54.000Z</time>
</trkpt>
<trkpt lat="46.1737540" lon="10.4911300">
	<ele>2491.80</ele>
	<time>2023-08-09T09:43:55.000Z</time>
</trkpt>
<trkpt lat="46.1737660" lon="10.4911280">
	<ele>2491.80</ele>
	<time>2023-08-09T09:43:56.000Z</time>
</trkpt>
<trkpt lat="46.1737770" lon="10.4911280">
	<ele>2491.80</ele>
	<time>2023-08-09T09:43:57.000Z</time>
</trkpt>
<trkpt lat="46.1737860" lon="10.4911300">
	<ele>2491.80</ele>
	<time>2023-08-09T09:43:58.000Z</time>
</trkpt>
<trkpt lat="46.1737960" lon="10.4911330">
	<ele>2491.60</ele>
	<time>2023-08-09T09:43:59.000Z</time>
</trkpt>
<trkpt lat="46.1738060" lon="10.4911370">
	<ele>2491.60</ele>
	<time>2023-08-09T09:44:00.000Z</time>
</trkpt>
<trkpt lat="46.1738150" lon="10.4911430">
	<ele>2491.40</ele>
	<time>2023-08-09T09:44:01.000Z</time>
</trkpt>
<trkpt lat="46.1738260" lon="10.4911480">
	<ele>2491.40</ele>
	<time>2023-08-09T09:44:02.000Z</time>
</trkpt>
<trkpt lat="46.1738330" lon="10.4911530">
	<ele>2491.20</ele>
	<time>2023-08-09T09:44:03.000Z</time>
</trkpt>
<trkpt lat="46.1738400" lon="10.4911590">
	<ele>2491.20</ele>
	<time>2023-08-09T09:44:04.000Z</time>
</trkpt>
<trkpt lat="46.1738470" lon="10.4911620">
	<ele>2491.20</ele>
	<time>2023-08-09T09:44:05.000Z</time>
</trkpt>
<trkpt lat="46.1738560" lon="10.4911690">
	<ele>2491.20</ele>
	<time>2023-08-09T09:44:06.000Z</time>
</trkpt>
<trkpt lat="46.1738650" lon="10.4911760">
	<ele>2491.00</ele>
	<time>2023-08-09T09:44:07.000Z</time>
</trkpt>
<trkpt lat="46.1738720" lon="10.4911840">
	<ele>2490.80</ele>
	<time>2023-08-09T09:44:08.000Z</time>
</trkpt>
<trkpt lat="46.1738800" lon="10.4911910">
	<ele>2490.60</ele>
	<time>2023-08-09T09:44:09.000Z</time>
</trkpt>
<trkpt lat="46.1738860" lon="10.4911930">
	<ele>2490.60</ele>
	<time>2023-08-09T09:44:10.000Z</time>
</trkpt>
<trkpt lat="46.1738940" lon="10.4911960">
	<ele>2490.40</ele>
	<time>2023-08-09T09:44:11.000Z</time>
</trkpt>
<trkpt lat="46.1739050" lon="10.4911970">
	<ele>2490.20</ele>
	<time>2023-08-09T09:44:12.000Z</time>
</trkpt>
<trkpt lat="46.1739130" lon="10.4911940">
	<ele>2490.20</ele>
	<time>2023-08-09T09:44:13.000Z</time>
</trkpt>
<trkpt lat="46.1739210" lon="10.4911950">
	<ele>2490.00</ele>
	<time>2023-08-09T09:44:14.000Z</time>
</trkpt>
<trkpt lat="46.1739330" lon="10.4911970">
	<ele>2490.00</ele>
	<time>2023-08-09T09:44:15.000Z</time>
</trkpt>
<trkpt lat="46.1739430" lon="10.4911980">
	<ele>2489.80</ele>
	<time>2023-08-09T09:44:16.000Z</time>
</trkpt>
<trkpt lat="46.1739520" lon="10.4911970">
	<ele>2489.80</ele>
	<time>2023-08-09T09:44:17.000Z</time>
</trkpt>
<trkpt lat="46.1739610" lon="10.4911960">
	<ele>2489.60</ele>
	<time>2023-08-09T09:44:18.000Z</time>
</trkpt>
<trkpt lat="46.1739700" lon="10.4911960">
	<ele>2489.60</ele>
	<time>2023-08-09T09:44:19.000Z</time>
</trkpt>
<trkpt lat="46.1739840" lon="10.4912020">
	<ele>2489.60</ele>
	<time>2023-08-09T09:44:20.000Z</time>
</trkpt>
<trkpt lat="46.1739960" lon="10.4912080">
	<ele>2489.40</ele>
	<time>2023-08-09T09:44:21.000Z</time>
</trkpt>
<trkpt lat="46.1740070" lon="10.4912110">
	<ele>2489.20</ele>
	<time>2023-08-09T09:44:22.000Z</time>
</trkpt>
<trkpt lat="46.1740130" lon="10.4912120">
	<ele>2489.20</ele>
	<time>2023-08-09T09:44:23.000Z</time>
</trkpt>
<trkpt lat="46.1740220" lon="10.4912140">
	<ele>2489.20</ele>
	<time>2023-08-09T09:44:24.000Z</time>
</trkpt>
<trkpt lat="46.1740310" lon="10.4912190">
	<ele>2489.20</ele>
	<time>2023-08-09T09:44:25.000Z</time>
</trkpt>
<trkpt lat="46.1740420" lon="10.4912220">
	<ele>2489.20</ele>
	<time>2023-08-09T09:44:26.000Z</time>
</trkpt>
<trkpt lat="46.1740540" lon="10.4912260">
	<ele>2489.20</ele>
	<time>2023-08-09T09:44:27.000Z</time>
</trkpt>
<trkpt lat="46.1740630" lon="10.4912260">
	<ele>2489.20</ele>
	<time>2023-08-09T09:44:28.000Z</time>
</trkpt>
<trkpt lat="46.1740720" lon="10.4912260">
	<ele>2489.20</ele>
	<time>2023-08-09T09:44:29.000Z</time>
</trkpt>
<trkpt lat="46.1740770" lon="10.4912270">
	<ele>2489.20</ele>
	<time>2023-08-09T09:44:30.000Z</time>
</trkpt>
<trkpt lat="46.1740850" lon="10.4912280">
	<ele>2489.00</ele>
	<time>2023-08-09T09:44:31.000Z</time>
</trkpt>
<trkpt lat="46.1740950" lon="10.4912310">
	<ele>2489.00</ele>
	<time>2023-08-09T09:44:32.000Z</time>
</trkpt>
<trkpt lat="46.1741060" lon="10.4912350">
	<ele>2489.00</ele>
	<time>2023-08-09T09:44:33.000Z</time>
</trkpt>
<trkpt lat="46.1741190" lon="10.4912390">
	<ele>2488.80</ele>
	<time>2023-08-09T09:44:34.000Z</time>
</trkpt>
<trkpt lat="46.1741320" lon="10.4912420">
	<ele>2488.80</ele>
	<time>2023-08-09T09:44:35.000Z</time>
</trkpt>
<trkpt lat="46.1741400" lon="10.4912440">
	<ele>2489.00</ele>
	<time>2023-08-09T09:44:36.000Z</time>
</trkpt>
<trkpt lat="46.1741480" lon="10.4912470">
	<ele>2488.80</ele>
	<time>2023-08-09T09:44:37.000Z</time>
</trkpt>
<trkpt lat="46.1741560" lon="10.4912520">
	<ele>2488.80</ele>
	<time>2023-08-09T09:44:38.000Z</time>
</trkpt>
<trkpt lat="46.1741630" lon="10.4912560">
	<ele>2488.80</ele>
	<time>2023-08-09T09:44:39.000Z</time>
</trkpt>
<trkpt lat="46.1741670" lon="10.4912600">
	<ele>2488.80</ele>
	<time>2023-08-09T09:44:40.000Z</time>
</trkpt>
<trkpt lat="46.1741720" lon="10.4912630">
	<ele>2488.60</ele>
	<time>2023-08-09T09:44:41.000Z</time>
</trkpt>
<trkpt lat="46.1741790" lon="10.4912650">
	<ele>2488.60</ele>
	<time>2023-08-09T09:44:42.000Z</time>
</trkpt>
<trkpt lat="46.1741910" lon="10.4912700">
	<ele>2488.60</ele>
	<time>2023-08-09T09:44:43.000Z</time>
</trkpt>
<trkpt lat="46.1742030" lon="10.4912750">
	<ele>2488.20</ele>
	<time>2023-08-09T09:44:44.000Z</time>
</trkpt>
<trkpt lat="46.1742140" lon="10.4912790">
	<ele>2488.00</ele>
	<time>2023-08-09T09:44:45.000Z</time>
</trkpt>
<trkpt lat="46.1742220" lon="10.4912840">
	<ele>2487.80</ele>
	<time>2023-08-09T09:44:46.000Z</time>
</trkpt>
<trkpt lat="46.1742320" lon="10.4912920">
	<ele>2487.60</ele>
	<time>2023-08-09T09:44:47.000Z</time>
</trkpt>
<trkpt lat="46.1742390" lon="10.4913010">
	<ele>2487.60</ele>
	<time>2023-08-09T09:44:48.000Z</time>
</trkpt>
<trkpt lat="46.1742460" lon="10.4913050">
	<ele>2487.40</ele>
	<time>2023-08-09T09:44:49.000Z</time>
</trkpt>
<trkpt lat="46.1742560" lon="10.4913130">
	<ele>2487.40</ele>
	<time>2023-08-09T09:44:50.000Z</time>
</trkpt>
<trkpt lat="46.1742640" lon="10.4913230">
	<ele>2487.40</ele>
	<time>2023-08-09T09:44:51.000Z</time>
</trkpt>
<trkpt lat="46.1742700" lon="10.4913330">
	<ele>2487.40</ele>
	<time>2023-08-09T09:44:52.000Z</time>
</trkpt>
<trkpt lat="46.1742710" lon="10.4913420">
	<ele>2487.40</ele>
	<time>2023-08-09T09:44:53.000Z</time>
</trkpt>
<trkpt lat="46.1742750" lon="10.4913510">
	<ele>2487.40</ele>
	<time>2023-08-09T09:44:54.000Z</time>
</trkpt>
<trkpt lat="46.1742800" lon="10.4913600">
	<ele>2487.40</ele>
	<time>2023-08-09T09:44:55.000Z</time>
</trkpt>
<trkpt lat="46.1742870" lon="10.4913690">
	<ele>2487.40</ele>
	<time>2023-08-09T09:44:56.000Z</time>
</trkpt>
<trkpt lat="46.1742950" lon="10.4913770">
	<ele>2487.40</ele>
	<time>2023-08-09T09:44:57.000Z</time>
</trkpt>
<trkpt lat="46.1743030" lon="10.4913850">
	<ele>2487.20</ele>
	<time>2023-08-09T09:44:58.000Z</time>
</trkpt>
<trkpt lat="46.1743120" lon="10.4913900">
	<ele>2487.20</ele>
	<time>2023-08-09T09:44:59.000Z</time>
</trkpt>
<trkpt lat="46.1743240" lon="10.4913930">
	<ele>2487.20</ele>
	<time>2023-08-09T09:45:00.000Z</time>
</trkpt>
<trkpt lat="46.1743340" lon="10.4913910">
	<ele>2487.20</ele>
	<time>2023-08-09T09:45:01.000Z</time>
</trkpt>
<trkpt lat="46.1743420" lon="10.4913860">
	<ele>2487.00</ele>
	<time>2023-08-09T09:45:02.000Z</time>
</trkpt>
<trkpt lat="46.1743520" lon="10.4913800">
	<ele>2487.00</ele>
	<time>2023-08-09T09:45:03.000Z</time>
</trkpt>
<trkpt lat="46.1743650" lon="10.4913780">
	<ele>2487.00</ele>
	<time>2023-08-09T09:45:04.000Z</time>
</trkpt>
<trkpt lat="46.1743750" lon="10.4913780">
	<ele>2486.80</ele>
	<time>2023-08-09T09:45:05.000Z</time>
</trkpt>
<trkpt lat="46.1743830" lon="10.4913760">
	<ele>2486.80</ele>
	<time>2023-08-09T09:45:06.000Z</time>
</trkpt>
<trkpt lat="46.1743870" lon="10.4913730">
	<ele>2486.80</ele>
	<time>2023-08-09T09:45:07.000Z</time>
</trkpt>
<trkpt lat="46.1743910" lon="10.4913690">
	<ele>2486.60</ele>
	<time>2023-08-09T09:45:08.000Z</time>
</trkpt>
<trkpt lat="46.1743980" lon="10.4913680">
	<ele>2486.40</ele>
	<time>2023-08-09T09:45:09.000Z</time>
</trkpt>
<trkpt lat="46.1744030" lon="10.4913690">
	<ele>2486.40</ele>
	<time>2023-08-09T09:45:10.000Z</time>
</trkpt>
<trkpt lat="46.1744050" lon="10.4913690">
	<ele>2486.40</ele>
	<time>2023-08-09T09:45:11.000Z</time>
</trkpt>
<trkpt lat="46.1744050" lon="10.4913680">
	<ele>2486.60</ele>
	<time>2023-08-09T09:45:12.000Z</time>
</trkpt>
<trkpt lat="46.1744050" lon="10.4913680">
	<ele>2486.80</ele>
	<time>2023-08-09T09:45:13.000Z</time>
</trkpt>
<trkpt lat="46.1744050" lon="10.4913690">
	<ele>2487.00</ele>
	<time>2023-08-09T09:45:14.000Z</time>
</trkpt>
<trkpt lat="46.1744050" lon="10.4913690">
	<ele>2487.00</ele>
	<time>2023-08-09T09:45:15.000Z</time>
</trkpt>
<trkpt lat="46.1744050" lon="10.4913690">
	<ele>2487.20</ele>
	<time>2023-08-09T09:45:16.000Z</time>
</trkpt>
<trkpt lat="46.1744060" lon="10.4913690">
	<ele>2487.20</ele>
	<time>2023-08-09T09:45:17.000Z</time>
</trkpt>
<trkpt lat="46.1744080" lon="10.4913700">
	<ele>2487.20</ele>
	<time>2023-08-09T09:45:18.000Z</time>
</trkpt>
<trkpt lat="46.1744100" lon="10.4913720">
	<ele>2487.20</ele>
	<time>2023-08-09T09:45:19.000Z</time>
</trkpt>
<trkpt lat="46.1744110" lon="10.4913730">
	<ele>2487.20</ele>
	<time>2023-08-09T09:45:20.000Z</time>
</trkpt>
<trkpt lat="46.1744110" lon="10.4913730">
	<ele>2487.20</ele>
	<time>2023-08-09T09:45:21.000Z</time>
</trkpt>
<trkpt lat="46.1744110" lon="10.4913730">
	<ele>2487.20</ele>
	<time>2023-08-09T09:45:22.000Z</time>
</trkpt>
<trkpt lat="46.1744110" lon="10.4913730">
	<ele>2487.40</ele>
	<time>2023-08-09T09:45:23.000Z</time>
</trkpt>
<trkpt lat="46.1744110" lon="10.4913730">
	<ele>2487.40</ele>
	<time>2023-08-09T09:45:24.000Z</time>
</trkpt>
<trkpt lat="46.1744110" lon="10.4913730">
	<ele>2487.40</ele>
	<time>2023-08-09T09:45:25.000Z</time>
</trkpt>
<trkpt lat="46.1744110" lon="10.4913730">
	<ele>2487.40</ele>
	<time>2023-08-09T09:45:26.000Z</time>
</trkpt>
<trkpt lat="46.1744110" lon="10.4913730">
	<ele>2487.60</ele>
	<time>2023-08-09T09:45:27.000Z</time>
</trkpt>
<trkpt lat="46.1744110" lon="10.4913730">
	<ele>2487.60</ele>
	<time>2023-08-09T09:45:28.000Z</time>
</trkpt>
<trkpt lat="46.1744110" lon="10.4913730">
	<ele>2487.60</ele>
	<time>2023-08-09T09:45:29.000Z</time>
</trkpt>
<trkpt lat="46.1744100" lon="10.4913730">
	<ele>2487.60</ele>
	<time>2023-08-09T09:45:30.000Z</time>
</trkpt>
<trkpt lat="46.1744100" lon="10.4913730">
	<ele>2487.60</ele>
	<time>2023-08-09T09:45:31.000Z</time>
</trkpt>
<trkpt lat="46.1744090" lon="10.4913730">
	<ele>2487.60</ele>
	<time>2023-08-09T09:45:32.000Z</time>
</trkpt>
<trkpt lat="46.1744090" lon="10.4913730">
	<ele>2487.40</ele>
	<time>2023-08-09T09:45:33.000Z</time>
</trkpt>
<trkpt lat="46.1744090" lon="10.4913730">
	<ele>2487.20</ele>
	<time>2023-08-09T09:45:34.000Z</time>
</trkpt>
<trkpt lat="46.1744090" lon="10.4913730">
	<ele>2487.20</ele>
	<time>2023-08-09T09:45:35.000Z</time>
</trkpt>
<trkpt lat="46.1744090" lon="10.4913730">
	<ele>2487.00</ele>
	<time>2023-08-09T09:45:36.000Z</time>
</trkpt>
<trkpt lat="46.1744090" lon="10.4913730">
	<ele>2487.00</ele>
	<time>2023-08-09T09:45:37.000Z</time>
</trkpt>
<trkpt lat="46.1744090" lon="10.4913730">
	<ele>2487.00</ele>
	<time>2023-08-09T09:45:38.000Z</time>
</trkpt>
<trkpt lat="46.1744090" lon="10.4913730">
	<ele>2486.80</ele>
	<time>2023-08-09T09:45:39.000Z</time>
</trkpt>
<trkpt lat="46.1744090" lon="10.4913730">
	<ele>2486.60</ele>
	<time>2023-08-09T09:45:40.000Z</time>
</trkpt>
<trkpt lat="46.1744090" lon="10.4913730">
	<ele>2486.60</ele>
	<time>2023-08-09T09:45:41.000Z</time>
</trkpt>
<trkpt lat="46.1744090" lon="10.4913730">
	<ele>2486.60</ele>
	<time>2023-08-09T09:45:42.000Z</time>
</trkpt>
<trkpt lat="46.1744090" lon="10.4913730">
	<ele>2486.60</ele>
	<time>2023-08-09T09:45:43.000Z</time>
</trkpt>
<trkpt lat="46.1744090" lon="10.4913730">
	<ele>2486.60</ele>
	<time>2023-08-09T09:45:44.000Z</time>
</trkpt>
<trkpt lat="46.1744140" lon="10.4913700">
	<ele>2486.60</ele>
	<time>2023-08-09T09:45:45.000Z</time>
</trkpt>
<trkpt lat="46.1744290" lon="10.4913660">
	<ele>2486.60</ele>
	<time>2023-08-09T09:45:46.000Z</time>
</trkpt>
<trkpt lat="46.1744440" lon="10.4913680">
	<ele>2486.60</ele>
	<time>2023-08-09T09:45:47.000Z</time>
</trkpt>
<trkpt lat="46.1744610" lon="10.4913680">
	<ele>2486.60</ele>
	<time>2023-08-09T09:45:48.000Z</time>
</trkpt>
<trkpt lat="46.1744750" lon="10.4913680">
	<ele>2486.60</ele>
	<time>2023-08-09T09:45:49.000Z</time>
</trkpt>
<trkpt lat="46.1744910" lon="10.4913620">
	<ele>2486.80</ele>
	<time>2023-08-09T09:45:50.000Z</time>
</trkpt>
<trkpt lat="46.1745040" lon="10.4913530">
	<ele>2486.80</ele>
	<time>2023-08-09T09:45:51.000Z</time>
</trkpt>
<trkpt lat="46.1745190" lon="10.4913450">
	<ele>2486.80</ele>
	<time>2023-08-09T09:45:52.000Z</time>
</trkpt>
<trkpt lat="46.1745330" lon="10.4913440">
	<ele>2486.80</ele>
	<time>2023-08-09T09:45:53.000Z</time>
</trkpt>
<trkpt lat="46.1745450" lon="10.4913480">
	<ele>2487.00</ele>
	<time>2023-08-09T09:45:54.000Z</time>
</trkpt>
<trkpt lat="46.1745480" lon="10.4913590">
	<ele>2487.20</ele>
	<time>2023-08-09T09:45:55.000Z</time>
</trkpt>
<trkpt lat="46.1745490" lon="10.4913700">
	<ele>2487.20</ele>
	<time>2023-08-09T09:45:56.000Z</time>
</trkpt>
<trkpt lat="46.1745520" lon="10.4913810">
	<ele>2487.40</ele>
	<time>2023-08-09T09:45:57.000Z</time>
</trkpt>
<trkpt lat="46.1745550" lon="10.4913910">
	<ele>2487.60</ele>
	<time>2023-08-09T09:45:58.000Z</time>
</trkpt>
<trkpt lat="46.1745550" lon="10.4914000">
	<ele>2487.60</ele>
	<time>2023-08-09T09:45:59.000Z</time>
</trkpt>
<trkpt lat="46.1745600" lon="10.4914140">
	<ele>2487.80</ele>
	<time>2023-08-09T09:46:00.000Z</time>
</trkpt>
<trkpt lat="46.1745640" lon="10.4914240">
	<ele>2487.80</ele>
	<time>2023-08-09T09:46:01.000Z</time>
</trkpt>
<trkpt lat="46.1745660" lon="10.4914290">
	<ele>2487.80</ele>
	<time>2023-08-09T09:46:02.000Z</time>
</trkpt>
<trkpt lat="46.1745700" lon="10.4914420">
	<ele>2488.00</ele>
	<time>2023-08-09T09:46:03.000Z</time>
</trkpt>
<trkpt lat="46.1745750" lon="10.4914530">
	<ele>2488.20</ele>
	<time>2023-08-09T09:46:04.000Z</time>
</trkpt>
<trkpt lat="46.1745780" lon="10.4914660">
	<ele>2488.40</ele>
	<time>2023-08-09T09:46:05.000Z</time>
</trkpt>
<trkpt lat="46.1745800" lon="10.4914800">
	<ele>2488.60</ele>
	<time>2023-08-09T09:46:06.000Z</time>
</trkpt>
<trkpt lat="46.1745840" lon="10.4914930">
	<ele>2488.60</ele>
	<time>2023-08-09T09:46:07.000Z</time>
</trkpt>
<trkpt lat="46.1745880" lon="10.4915060">
	<ele>2488.80</ele>
	<time>2023-08-09T09:46:08.000Z</time>
</trkpt>
<trkpt lat="46.1745920" lon="10.4915200">
	<ele>2488.80</ele>
	<time>2023-08-09T09:46:09.000Z</time>
</trkpt>
<trkpt lat="46.1745950" lon="10.4915280">
	<ele>2489.00</ele>
	<time>2023-08-09T09:46:10.000Z</time>
</trkpt>
<trkpt lat="46.1745980" lon="10.4915320">
	<ele>2489.00</ele>
	<time>2023-08-09T09:46:11.000Z</time>
</trkpt>
<trkpt lat="46.1746060" lon="10.4915370">
	<ele>2489.00</ele>
	<time>2023-08-09T09:46:12.000Z</time>
</trkpt>
<trkpt lat="46.1746150" lon="10.4915410">
	<ele>2489.20</ele>
	<time>2023-08-09T09:46:13.000Z</time>
</trkpt>
<trkpt lat="46.1746260" lon="10.4915430">
	<ele>2489.20</ele>
	<time>2023-08-09T09:46:14.000Z</time>
</trkpt>
<trkpt lat="46.1746350" lon="10.4915470">
	<ele>2489.20</ele>
	<time>2023-08-09T09:46:15.000Z</time>
</trkpt>
<trkpt lat="46.1746460" lon="10.4915510">
	<ele>2489.40</ele>
	<time>2023-08-09T09:46:16.000Z</time>
</trkpt>
<trkpt lat="46.1746520" lon="10.4915550">
	<ele>2489.40</ele>
	<time>2023-08-09T09:46:17.000Z</time>
</trkpt>
<trkpt lat="46.1746600" lon="10.4915630">
	<ele>2489.40</ele>
	<time>2023-08-09T09:46:18.000Z</time>
</trkpt>
<trkpt lat="46.1746710" lon="10.4915660">
	<ele>2489.40</ele>
	<time>2023-08-09T09:46:19.000Z</time>
</trkpt>
<trkpt lat="46.1746790" lon="10.4915630">
	<ele>2489.60</ele>
	<time>2023-08-09T09:46:20.000Z</time>
</trkpt>
<trkpt lat="46.1746870" lon="10.4915580">
	<ele>2489.60</ele>
	<time>2023-08-09T09:46:21.000Z</time>
</trkpt>
<trkpt lat="46.1746950" lon="10.4915520">
	<ele>2489.60</ele>
	<time>2023-08-09T09:46:22.000Z</time>
</trkpt>
<trkpt lat="46.1746990" lon="10.4915480">
	<ele>2489.80</ele>
	<time>2023-08-09T09:46:23.000Z</time>
</trkpt>
<trkpt lat="46.1747020" lon="10.4915450">
	<ele>2489.80</ele>
	<time>2023-08-09T09:46:24.000Z</time>
</trkpt>
<trkpt lat="46.1747040" lon="10.4915420">
	<ele>2490.00</ele>
	<time>2023-08-09T09:46:25.000Z</time>
</trkpt>
<trkpt lat="46.1747080" lon="10.4915410">
	<ele>2490.00</ele>
	<time>2023-08-09T09:46:26.000Z</time>
</trkpt>
<trkpt lat="46.1747100" lon="10.4915430">
	<ele>2490.20</ele>
	<time>2023-08-09T09:46:27.000Z</time>
</trkpt>
<trkpt lat="46.1747100" lon="10.4915440">
	<ele>2490.40</ele>
	<time>2023-08-09T09:46:28.000Z</time>
</trkpt>
<trkpt lat="46.1747100" lon="10.4915440">
	<ele>2490.40</ele>
	<time>2023-08-09T09:46:29.000Z</time>
</trkpt>
<trkpt lat="46.1747100" lon="10.4915450">
	<ele>2490.60</ele>
	<time>2023-08-09T09:46:30.000Z</time>
</trkpt>
<trkpt lat="46.1747090" lon="10.4915470">
	<ele>2490.60</ele>
	<time>2023-08-09T09:46:31.000Z</time>
</trkpt>
<trkpt lat="46.1747070" lon="10.4915500">
	<ele>2490.60</ele>
	<time>2023-08-09T09:46:32.000Z</time>
</trkpt>
<trkpt lat="46.1747040" lon="10.4915540">
	<ele>2490.60</ele>
	<time>2023-08-09T09:46:33.000Z</time>
</trkpt>
<trkpt lat="46.1746990" lon="10.4915580">
	<ele>2490.40</ele>
	<time>2023-08-09T09:46:34.000Z</time>
</trkpt>
<trkpt lat="46.1746940" lon="10.4915640">
	<ele>2490.40</ele>
	<time>2023-08-09T09:46:35.000Z</time>
</trkpt>
<trkpt lat="46.1746910" lon="10.4915740">
	<ele>2490.20</ele>
	<time>2023-08-09T09:46:36.000Z</time>
</trkpt>
<trkpt lat="46.1746860" lon="10.4915830">
	<ele>2490.20</ele>
	<time>2023-08-09T09:46:37.000Z</time>
</trkpt>
<trkpt lat="46.1746770" lon="10.4915850">
	<ele>2490.20</ele>
	<time>2023-08-09T09:46:38.000Z</time>
</trkpt>
<trkpt lat="46.1746680" lon="10.4915910">
	<ele>2490.20</ele>
	<time>2023-08-09T09:46:39.000Z</time>
</trkpt>
<trkpt lat="46.1746610" lon="10.4915900">
	<ele>2490.00</ele>
	<time>2023-08-09T09:46:40.000Z</time>
</trkpt>
<trkpt lat="46.1746570" lon="10.4915910">
	<ele>2490.00</ele>
	<time>2023-08-09T09:46:41.000Z</time>
</trkpt>
<trkpt lat="46.1746560" lon="10.4915940">
	<ele>2490.00</ele>
	<time>2023-08-09T09:46:42.000Z</time>
</trkpt>
<trkpt lat="46.1746610" lon="10.4915990">
	<ele>2490.20</ele>
	<time>2023-08-09T09:46:43.000Z</time>
</trkpt>
<trkpt lat="46.1746630" lon="10.4916070">
	<ele>2490.20</ele>
	<time>2023-08-09T09:46:44.000Z</time>
</trkpt>
<trkpt lat="46.1746630" lon="10.4916140">
	<ele>2490.40</ele>
	<time>2023-08-09T09:46:45.000Z</time>
</trkpt>
<trkpt lat="46.1746640" lon="10.4916190">
	<ele>2490.80</ele>
	<time>2023-08-09T09:46:46.000Z</time>
</trkpt>
<trkpt lat="46.1746630" lon="10.4916220">
	<ele>2491.00</ele>
	<time>2023-08-09T09:46:47.000Z</time>
</trkpt>
<trkpt lat="46.1746580" lon="10.4916220">
	<ele>2491.20</ele>
	<time>2023-08-09T09:46:48.000Z</time>
</trkpt>
<trkpt lat="46.1746560" lon="10.4916260">
	<ele>2491.20</ele>
	<time>2023-08-09T09:46:49.000Z</time>
</trkpt>
<trkpt lat="46.1746550" lon="10.4916310">
	<ele>2491.40</ele>
	<time>2023-08-09T09:46:50.000Z</time>
</trkpt>
<trkpt lat="46.1746560" lon="10.4916330">
	<ele>2491.60</ele>
	<time>2023-08-09T09:46:51.000Z</time>
</trkpt>
<trkpt lat="46.1746570" lon="10.4916350">
	<ele>2491.60</ele>
	<time>2023-08-09T09:46:52.000Z</time>
</trkpt>
<trkpt lat="46.1746590" lon="10.4916400">
	<ele>2491.80</ele>
	<time>2023-08-09T09:46:53.000Z</time>
</trkpt>
<trkpt lat="46.1746620" lon="10.4916440">
	<ele>2491.80</ele>
	<time>2023-08-09T09:46:54.000Z</time>
</trkpt>
<trkpt lat="46.1746650" lon="10.4916480">
	<ele>2492.00</ele>
	<time>2023-08-09T09:46:55.000Z</time>
</trkpt>
<trkpt lat="46.1746670" lon="10.4916510">
	<ele>2492.40</ele>
	<time>2023-08-09T09:46:56.000Z</time>
</trkpt>
<trkpt lat="46.1746690" lon="10.4916530">
	<ele>2492.60</ele>
	<time>2023-08-09T09:46:57.000Z</time>
</trkpt>
<trkpt lat="46.1746720" lon="10.4916570">
	<ele>2492.80</ele>
	<time>2023-08-09T09:46:58.000Z</time>
</trkpt>
<trkpt lat="46.1746770" lon="10.4916660">
	<ele>2492.80</ele>
	<time>2023-08-09T09:46:59.000Z</time>
</trkpt>
<trkpt lat="46.1746810" lon="10.4916720">
	<ele>2493.00</ele>
	<time>2023-08-09T09:47:00.000Z</time>
</trkpt>
<trkpt lat="46.1746830" lon="10.4916790">
	<ele>2493.00</ele>
	<time>2023-08-09T09:47:01.000Z</time>
</trkpt>
<trkpt lat="46.1746820" lon="10.4916840">
	<ele>2493.00</ele>
	<time>2023-08-09T09:47:02.000Z</time>
</trkpt>
<trkpt lat="46.1746810" lon="10.4916900">
	<ele>2493.20</ele>
	<time>2023-08-09T09:47:03.000Z</time>
</trkpt>
<trkpt lat="46.1746800" lon="10.4916940">
	<ele>2493.20</ele>
	<time>2023-08-09T09:47:04.000Z</time>
</trkpt>
<trkpt lat="46.1746780" lon="10.4916970">
	<ele>2493.40</ele>
	<time>2023-08-09T09:47:05.000Z</time>
</trkpt>
<trkpt lat="46.1746790" lon="10.4917010">
	<ele>2493.60</ele>
	<time>2023-08-09T09:47:06.000Z</time>
</trkpt>
<trkpt lat="46.1746800" lon="10.4917080">
	<ele>2493.60</ele>
	<time>2023-08-09T09:47:07.000Z</time>
</trkpt>
<trkpt lat="46.1746800" lon="10.4917090">
	<ele>2493.60</ele>
	<time>2023-08-09T09:47:08.000Z</time>
</trkpt>
<trkpt lat="46.1746810" lon="10.4917150">
	<ele>2493.60</ele>
	<time>2023-08-09T09:47:09.000Z</time>
</trkpt>
<trkpt lat="46.1746800" lon="10.4917210">
	<ele>2493.80</ele>
	<time>2023-08-09T09:47:10.000Z</time>
</trkpt>
<trkpt lat="46.1746820" lon="10.4917250">
	<ele>2494.00</ele>
	<time>2023-08-09T09:47:11.000Z</time>
</trkpt>
<trkpt lat="46.1746850" lon="10.4917240">
	<ele>2494.00</ele>
	<time>2023-08-09T09:47:12.000Z</time>
</trkpt>
<trkpt lat="46.1746880" lon="10.4917250">
	<ele>2494.20</ele>
	<time>2023-08-09T09:47:13.000Z</time>
</trkpt>
<trkpt lat="46.1746930" lon="10.4917280">
	<ele>2494.20</ele>
	<time>2023-08-09T09:47:14.000Z</time>
</trkpt>
<trkpt lat="46.1746970" lon="10.4917320">
	<ele>2494.40</ele>
	<time>2023-08-09T09:47:15.000Z</time>
</trkpt>
<trkpt lat="46.1747000" lon="10.4917350">
	<ele>2494.60</ele>
	<time>2023-08-09T09:47:16.000Z</time>
</trkpt>
<trkpt lat="46.1747020" lon="10.4917420">
	<ele>2494.60</ele>
	<time>2023-08-09T09:47:17.000Z</time>
</trkpt>
<trkpt lat="46.1747010" lon="10.4917470">
	<ele>2494.80</ele>
	<time>2023-08-09T09:47:18.000Z</time>
</trkpt>
<trkpt lat="46.1746980" lon="10.4917490">
	<ele>2494.80</ele>
	<time>2023-08-09T09:47:19.000Z</time>
</trkpt>
<trkpt lat="46.1746970" lon="10.4917510">
	<ele>2495.00</ele>
	<time>2023-08-09T09:47:20.000Z</time>
</trkpt>
<trkpt lat="46.1746990" lon="10.4917600">
	<ele>2495.00</ele>
	<time>2023-08-09T09:47:21.000Z</time>
</trkpt>
<trkpt lat="46.1747000" lon="10.4917640">
	<ele>2495.00</ele>
	<time>2023-08-09T09:47:22.000Z</time>
</trkpt>
<trkpt lat="46.1747020" lon="10.4917650">
	<ele>2495.00</ele>
	<time>2023-08-09T09:47:23.000Z</time>
</trkpt>
<trkpt lat="46.1747050" lon="10.4917650">
	<ele>2495.20</ele>
	<time>2023-08-09T09:47:24.000Z</time>
</trkpt>
<trkpt lat="46.1747090" lon="10.4917670">
	<ele>2495.20</ele>
	<time>2023-08-09T09:47:25.000Z</time>
</trkpt>
<trkpt lat="46.1747160" lon="10.4917680">
	<ele>2495.40</ele>
	<time>2023-08-09T09:47:26.000Z</time>
</trkpt>
<trkpt lat="46.1747180" lon="10.4917700">
	<ele>2495.60</ele>
	<time>2023-08-09T09:47:27.000Z</time>
</trkpt>
<trkpt lat="46.1747210" lon="10.4917730">
	<ele>2495.60</ele>
	<time>2023-08-09T09:47:28.000Z</time>
</trkpt>
<trkpt lat="46.1747240" lon="10.4917750">
	<ele>2496.00</ele>
	<time>2023-08-09T09:47:29.000Z</time>
</trkpt>
<trkpt lat="46.1747270" lon="10.4917760">
	<ele>2496.00</ele>
	<time>2023-08-09T09:47:30.000Z</time>
</trkpt>
<trkpt lat="46.1747290" lon="10.4917750">
	<ele>2496.20</ele>
	<time>2023-08-09T09:47:31.000Z</time>
</trkpt>
<trkpt lat="46.1747330" lon="10.4917750">
	<ele>2496.20</ele>
	<time>2023-08-09T09:47:32.000Z</time>
</trkpt>
<trkpt lat="46.1747360" lon="10.4917730">
	<ele>2496.40</ele>
	<time>2023-08-09T09:47:33.000Z</time>
</trkpt>
<trkpt lat="46.1747420" lon="10.4917700">
	<ele>2496.40</ele>
	<time>2023-08-09T09:47:34.000Z</time>
</trkpt>
<trkpt lat="46.1747440" lon="10.4917670">
	<ele>2496.80</ele>
	<time>2023-08-09T09:47:35.000Z</time>
</trkpt>
<trkpt lat="46.1747500" lon="10.4917690">
	<ele>2496.80</ele>
	<time>2023-08-09T09:47:36.000Z</time>
</trkpt>
<trkpt lat="46.1747540" lon="10.4917730">
	<ele>2497.00</ele>
	<time>2023-08-09T09:47:37.000Z</time>
</trkpt>
<trkpt lat="46.1747580" lon="10.4917720">
	<ele>2497.00</ele>
	<time>2023-08-09T09:47:38.000Z</time>
</trkpt>
<trkpt lat="46.1747620" lon="10.4917720">
	<ele>2497.00</ele>
	<time>2023-08-09T09:47:39.000Z</time>
</trkpt>
<trkpt lat="46.1747650" lon="10.4917700">
	<ele>2497.00</ele>
	<time>2023-08-09T09:47:40.000Z</time>
</trkpt>
<trkpt lat="46.1747690" lon="10.4917640">
	<ele>2497.00</ele>
	<time>2023-08-09T09:47:41.000Z</time>
</trkpt>
<trkpt lat="46.1747730" lon="10.4917610">
	<ele>2497.00</ele>
	<time>2023-08-09T09:47:42.000Z</time>
</trkpt>
<trkpt lat="46.1747770" lon="10.4917590">
	<ele>2497.00</ele>
	<time>2023-08-09T09:47:43.000Z</time>
</trkpt>
<trkpt lat="46.1747820" lon="10.4917550">
	<ele>2497.00</ele>
	<time>2023-08-09T09:47:44.000Z</time>
</trkpt>
<trkpt lat="46.1747870" lon="10.4917500">
	<ele>2497.20</ele>
	<time>2023-08-09T09:47:45.000Z</time>
</trkpt>
<trkpt lat="46.1747890" lon="10.4917420">
	<ele>2497.20</ele>
	<time>2023-08-09T09:47:46.000Z</time>
</trkpt>
<trkpt lat="46.1747880" lon="10.4917310">
	<ele>2497.20</ele>
	<time>2023-08-09T09:47:47.000Z</time>
</trkpt>
<trkpt lat="46.1747910" lon="10.4917260">
	<ele>2497.20</ele>
	<time>2023-08-09T09:47:48.000Z</time>
</trkpt>
<trkpt lat="46.1747960" lon="10.4917260">
	<ele>2497.20</ele>
	<time>2023-08-09T09:47:49.000Z</time>
</trkpt>
<trkpt lat="46.1748040" lon="10.4917260">
	<ele>2497.40</ele>
	<time>2023-08-09T09:47:50.000Z</time>
</trkpt>
<trkpt lat="46.1748120" lon="10.4917250">
	<ele>2497.40</ele>
	<time>2023-08-09T09:47:51.000Z</time>
</trkpt>
<trkpt lat="46.1748170" lon="10.4917200">
	<ele>2497.40</ele>
	<time>2023-08-09T09:47:52.000Z</time>
</trkpt>
<trkpt lat="46.1748180" lon="10.4917110">
	<ele>2497.40</ele>
	<time>2023-08-09T09:47:53.000Z</time>
</trkpt>
<trkpt lat="46.1748190" lon="10.4917070">
	<ele>2497.40</ele>
	<time>2023-08-09T09:47:54.000Z</time>
</trkpt>
<trkpt lat="46.1748200" lon="10.4917050">
	<ele>2497.40</ele>
	<time>2023-08-09T09:47:55.000Z</time>
</trkpt>
<trkpt lat="46.1748220" lon="10.4917040">
	<ele>2497.40</ele>
	<time>2023-08-09T09:47:56.000Z</time>
</trkpt>
<trkpt lat="46.1748220" lon="10.4917040">
	<ele>2497.60</ele>
	<time>2023-08-09T09:47:57.000Z</time>
</trkpt>
<trkpt lat="46.1748210" lon="10.4917040">
	<ele>2497.60</ele>
	<time>2023-08-09T09:47:58.000Z</time>
</trkpt>
<trkpt lat="46.1748210" lon="10.4917050">
	<ele>2497.80</ele>
	<time>2023-08-09T09:47:59.000Z</time>
</trkpt>
<trkpt lat="46.1748210" lon="10.4917050">
	<ele>2497.80</ele>
	<time>2023-08-09T09:48:00.000Z</time>
</trkpt>
<trkpt lat="46.1748210" lon="10.4917050">
	<ele>2498.00</ele>
	<time>2023-08-09T09:48:01.000Z</time>
</trkpt>
<trkpt lat="46.1748210" lon="10.4917050">
	<ele>2498.00</ele>
	<time>2023-08-09T09:48:02.000Z</time>
</trkpt>
<trkpt lat="46.1748210" lon="10.4917050">
	<ele>2498.20</ele>
	<time>2023-08-09T09:48:03.000Z</time>
</trkpt>
<trkpt lat="46.1748210" lon="10.4917050">
	<ele>2498.40</ele>
	<time>2023-08-09T09:48:04.000Z</time>
</trkpt>
<trkpt lat="46.1748210" lon="10.4917050">
	<ele>2498.40</ele>
	<time>2023-08-09T09:48:05.000Z</time>
</trkpt>
<trkpt lat="46.1748210" lon="10.4917050">
	<ele>2498.40</ele>
	<time>2023-08-09T09:48:06.000Z</time>
</trkpt>
<trkpt lat="46.1748210" lon="10.4917050">
	<ele>2498.40</ele>
	<time>2023-08-09T09:48:07.000Z</time>
</trkpt>
<trkpt lat="46.1748210" lon="10.4917050">
	<ele>2498.40</ele>
	<time>2023-08-09T09:48:08.000Z</time>
</trkpt>
<trkpt lat="46.1748210" lon="10.4917050">
	<ele>2498.40</ele>
	<time>2023-08-09T09:48:09.000Z</time>
</trkpt>
<trkpt lat="46.1748210" lon="10.4917050">
	<ele>2498.20</ele>
	<time>2023-08-09T09:48:10.000Z</time>
</trkpt>
<trkpt lat="46.1748210" lon="10.4917050">
	<ele>2498.00</ele>
	<time>2023-08-09T09:48:11.000Z</time>
</trkpt>
<trkpt lat="46.1748210" lon="10.4917050">
	<ele>2497.80</ele>
	<time>2023-08-09T09:48:12.000Z</time>
</trkpt>
<trkpt lat="46.1748210" lon="10.4917050">
	<ele>2497.80</ele>
	<time>2023-08-09T09:48:13.000Z</time>
</trkpt>
<trkpt lat="46.1748210" lon="10.4917050">
	<ele>2497.60</ele>
	<time>2023-08-09T09:48:14.000Z</time>
</trkpt>
<trkpt lat="46.1748210" lon="10.4917050">
	<ele>2497.60</ele>
	<time>2023-08-09T09:48:15.000Z</time>
</trkpt>
<trkpt lat="46.1748210" lon="10.4917050">
	<ele>2497.40</ele>
	<time>2023-08-09T09:48:16.000Z</time>
</trkpt>
<trkpt lat="46.1748210" lon="10.4917050">
	<ele>2497.40</ele>
	<time>2023-08-09T09:48:17.000Z</time>
</trkpt>
<trkpt lat="46.1748210" lon="10.4917050">
	<ele>2497.40</ele>
	<time>2023-08-09T09:48:18.000Z</time>
</trkpt>
<trkpt lat="46.1748210" lon="10.4917050">
	<ele>2497.40</ele>
	<time>2023-08-09T09:48:19.000Z</time>
</trkpt>
<trkpt lat="46.1748210" lon="10.4917050">
	<ele>2497.40</ele>
	<time>2023-08-09T09:48:20.000Z</time>
</trkpt>
<trkpt lat="46.1748210" lon="10.4917050">
	<ele>2497.40</ele>
	<time>2023-08-09T09:48:21.000Z</time>
</trkpt>
<trkpt lat="46.1748210" lon="10.4917040">
	<ele>2497.40</ele>
	<time>2023-08-09T09:48:22.000Z</time>
</trkpt>
<trkpt lat="46.1748210" lon="10.4917040">
	<ele>2497.40</ele>
	<time>2023-08-09T09:48:23.000Z</time>
</trkpt>
<trkpt lat="46.1748250" lon="10.4916970">
	<ele>2497.40</ele>
	<time>2023-08-09T09:48:24.000Z</time>
</trkpt>
<trkpt lat="46.1748360" lon="10.4916790">
	<ele>2497.60</ele>
	<time>2023-08-09T09:48:25.000Z</time>
</trkpt>
<trkpt lat="46.1748460" lon="10.4916630">
	<ele>2497.60</ele>
	<time>2023-08-09T09:48:26.000Z</time>
</trkpt>
<trkpt lat="46.1748560" lon="10.4916500">
	<ele>2497.60</ele>
	<time>2023-08-09T09:48:27.000Z</time>
</trkpt>
<trkpt lat="46.1748640" lon="10.4916380">
	<ele>2497.60</ele>
	<time>2023-08-09T09:48:28.000Z</time>
</trkpt>
<trkpt lat="46.1748700" lon="10.4916260">
	<ele>2497.60</ele>
	<time>2023-08-09T09:48:29.000Z</time>
</trkpt>
<trkpt lat="46.1748780" lon="10.4916160">
	<ele>2497.60</ele>
	<time>2023-08-09T09:48:30.000Z</time>
</trkpt>
<trkpt lat="46.1748870" lon="10.4916060">
	<ele>2497.80</ele>
	<time>2023-08-09T09:48:31.000Z</time>
</trkpt>
<trkpt lat="46.1748940" lon="10.4915930">
	<ele>2498.00</ele>
	<time>2023-08-09T09:48:32.000Z</time>
</trkpt>
<trkpt lat="46.1749000" lon="10.4915810">
	<ele>2498.20</ele>
	<time>2023-08-09T09:48:33.000Z</time>
</trkpt>
<trkpt lat="46.1749040" lon="10.4915760">
	<ele>2498.40</ele>
	<time>2023-08-09T09:48:34.000Z</time>
</trkpt>
<trkpt lat="46.1749080" lon="10.4915690">
	<ele>2498.60</ele>
	<time>2023-08-09T09:48:35.000Z</time>
</trkpt>
<trkpt lat="46.1749140" lon="10.4915630">
	<ele>2498.80</ele>
	<time>2023-08-09T09:48:36.000Z</time>
</trkpt>
<trkpt lat="46.1749220" lon="10.4915580">
	<ele>2499.00</ele>
	<time>2023-08-09T09:48:37.000Z</time>
</trkpt>
<trkpt lat="46.1749300" lon="10.4915560">
	<ele>2499.00</ele>
	<time>2023-08-09T09:48:38.000Z</time>
</trkpt>
<trkpt lat="46.1749370" lon="10.4915530">
	<ele>2499.20</ele>
	<time>2023-08-09T09:48:39.000Z</time>
</trkpt>
<trkpt lat="46.1749460" lon="10.4915490">
	<ele>2499.20</ele>
	<time>2023-08-09T09:48:40.000Z</time>
</trkpt>
<trkpt lat="46.1749550" lon="10.4915490">
	<ele>2499.20</ele>
	<time>2023-08-09T09:48:41.000Z</time>
</trkpt>
<trkpt lat="46.1749580" lon="10.4915420">
	<ele>2499.40</ele>
	<time>2023-08-09T09:48:42.000Z</time>
</trkpt>
<trkpt lat="46.1749650" lon="10.4915400">
	<ele>2499.40</ele>
	<time>2023-08-09T09:48:43.000Z</time>
</trkpt>
<trkpt lat="46.1749700" lon="10.4915370">
	<ele>2499.40</ele>
	<time>2023-08-09T09:48:44.000Z</time>
</trkpt>
<trkpt lat="46.1749740" lon="10.4915290">
	<ele>2499.60</ele>
	<time>2023-08-09T09:48:45.000Z</time>
</trkpt>
<trkpt lat="46.1749820" lon="10.4915220">
	<ele>2499.60</ele>
	<time>2023-08-09T09:48:46.000Z</time>
</trkpt>
<trkpt lat="46.1749890" lon="10.4915140">
	<ele>2499.80</ele>
	<time>2023-08-09T09:48:47.000Z</time>
</trkpt>
<trkpt lat="46.1749930" lon="10.4915100">
	<ele>2500.00</ele>
	<time>2023-08-09T09:48:48.000Z</time>
</trkpt>
<trkpt lat="46.1749940" lon="10.4915030">
	<ele>2500.20</ele>
	<time>2023-08-09T09:48:49.000Z</time>
</trkpt>
<trkpt lat="46.1750000" lon="10.4914960">
	<ele>2500.20</ele>
	<time>2023-08-09T09:48:50.000Z</time>
</trkpt>
<trkpt lat="46.1750040" lon="10.4914850">
	<ele>2500.20</ele>
	<time>2023-08-09T09:48:51.000Z</time>
</trkpt>
<trkpt lat="46.1750060" lon="10.4914750">
	<ele>2500.60</ele>
	<time>2023-08-09T09:48:52.000Z</time>
</trkpt>
<trkpt lat="46.1750120" lon="10.4914740">
	<ele>2500.80</ele>
	<time>2023-08-09T09:48:53.000Z</time>
</trkpt>
<trkpt lat="46.1750170" lon="10.4914720">
	<ele>2501.00</ele>
	<time>2023-08-09T09:48:54.000Z</time>
</trkpt>
<trkpt lat="46.1750210" lon="10.4914670">
	<ele>2501.00</ele>
	<time>2023-08-09T09:48:55.000Z</time>
</trkpt>
<trkpt lat="46.1750270" lon="10.4914620">
	<ele>2501.00</ele>
	<time>2023-08-09T09:48:56.000Z</time>
</trkpt>
<trkpt lat="46.1750330" lon="10.4914550">
	<ele>2501.00</ele>
	<time>2023-08-09T09:48:57.000Z</time>
</trkpt>
<trkpt lat="46.1750380" lon="10.4914520">
	<ele>2501.00</ele>
	<time>2023-08-09T09:48:58.000Z</time>
</trkpt>
<trkpt lat="46.1750420" lon="10.4914440">
	<ele>2501.00</ele>
	<time>2023-08-09T09:48:59.000Z</time>
</trkpt>
<trkpt lat="46.1750470" lon="10.4914370">
	<ele>2501.20</ele>
	<time>2023-08-09T09:49:00.000Z</time>
</trkpt>
<trkpt lat="46.1750500" lon="10.4914310">
	<ele>2501.40</ele>
	<time>2023-08-09T09:49:01.000Z</time>
</trkpt>
<trkpt lat="46.1750550" lon="10.4914260">
	<ele>2501.60</ele>
	<time>2023-08-09T09:49:02.000Z</time>
</trkpt>
<trkpt lat="46.1750620" lon="10.4914240">
	<ele>2501.80</ele>
	<time>2023-08-09T09:49:03.000Z</time>
</trkpt>
<trkpt lat="46.1750690" lon="10.4914180">
	<ele>2501.80</ele>
	<time>2023-08-09T09:49:04.000Z</time>
</trkpt>
<trkpt lat="46.1750730" lon="10.4914080">
	<ele>2501.80</ele>
	<time>2023-08-09T09:49:05.000Z</time>
</trkpt>
<trkpt lat="46.1750760" lon="10.4914000">
	<ele>2502.00</ele>
	<time>2023-08-09T09:49:06.000Z</time>
</trkpt>
<trkpt lat="46.1750800" lon="10.4913950">
	<ele>2502.20</ele>
	<time>2023-08-09T09:49:07.000Z</time>
</trkpt>
<trkpt lat="46.1750850" lon="10.4913940">
	<ele>2502.40</ele>
	<time>2023-08-09T09:49:08.000Z</time>
</trkpt>
<trkpt lat="46.1750900" lon="10.4913930">
	<ele>2502.60</ele>
	<time>2023-08-09T09:49:09.000Z</time>
</trkpt>
<trkpt lat="46.1750950" lon="10.4913930">
	<ele>2502.60</ele>
	<time>2023-08-09T09:49:10.000Z</time>
</trkpt>
<trkpt lat="46.1751040" lon="10.4913950">
	<ele>2502.80</ele>
	<time>2023-08-09T09:49:11.000Z</time>
</trkpt>
<trkpt lat="46.1751110" lon="10.4913970">
	<ele>2502.80</ele>
	<time>2023-08-09T09:49:12.000Z</time>
</trkpt>
<trkpt lat="46.1751150" lon="10.4913980">
	<ele>2503.00</ele>
	<time>2023-08-09T09:49:13.000Z</time>
</trkpt>
<trkpt lat="46.1751170" lon="10.4913970">
	<ele>2503.00</ele>
	<time>2023-08-09T09:49:14.000Z</time>
</trkpt>
<trkpt lat="46.1751210" lon="10.4913990">
	<ele>2503.20</ele>
	<time>2023-08-09T09:49:15.000Z</time>
</trkpt>
<trkpt lat="46.1751250" lon="10.4913990">
	<ele>2503.20</ele>
	<time>2023-08-09T09:49:16.000Z</time>
</trkpt>
<trkpt lat="46.1751290" lon="10.4913980">
	<ele>2503.40</ele>
	<time>2023-08-09T09:49:17.000Z</time>
</trkpt>
<trkpt lat="46.1751330" lon="10.4913980">
	<ele>2503.40</ele>
	<time>2023-08-09T09:49:18.000Z</time>
</trkpt>
<trkpt lat="46.1751380" lon="10.4913960">
	<ele>2503.60</ele>
	<time>2023-08-09T09:49:19.000Z</time>
</trkpt>
<trkpt lat="46.1751420" lon="10.4913940">
	<ele>2503.80</ele>
	<time>2023-08-09T09:49:20.000Z</time>
</trkpt>
<trkpt lat="46.1751470" lon="10.4913900">
	<ele>2504.00</ele>
	<time>2023-08-09T09:49:21.000Z</time>
</trkpt>
<trkpt lat="46.1751510" lon="10.4913900">
	<ele>2504.00</ele>
	<time>2023-08-09T09:49:22.000Z</time>
</trkpt>
<trkpt lat="46.1751570" lon="10.4913890">
	<ele>2504.20</ele>
	<time>2023-08-09T09:49:23.000Z</time>
</trkpt>
<trkpt lat="46.1751640" lon="10.4913880">
	<ele>2504.60</ele>
	<time>2023-08-09T09:49:24.000Z</time>
</trkpt>
<trkpt lat="46.1751700" lon="10.4913910">
	<ele>2504.60</ele>
	<time>2023-08-09T09:49:25.000Z</time>
</trkpt>
<trkpt lat="46.1751740" lon="10.4913890">
	<ele>2504.80</ele>
	<time>2023-08-09T09:49:26.000Z</time>
</trkpt>
<trkpt lat="46.1751780" lon="10.4913880">
	<ele>2505.00</ele>
	<time>2023-08-09T09:49:27.000Z</time>
</trkpt>
<trkpt lat="46.1751820" lon="10.4913870">
	<ele>2505.20</ele>
	<time>2023-08-09T09:49:28.000Z</time>
</trkpt>
<trkpt lat="46.1751830" lon="10.4913830">
	<ele>2505.40</ele>
	<time>2023-08-09T09:49:29.000Z</time>
</trkpt>
<trkpt lat="46.1751860" lon="10.4913780">
	<ele>2505.60</ele>
	<time>2023-08-09T09:49:30.000Z</time>
</trkpt>
<trkpt lat="46.1751890" lon="10.4913760">
	<ele>2505.60</ele>
	<time>2023-08-09T09:49:31.000Z</time>
</trkpt>
<trkpt lat="46.1751910" lon="10.4913760">
	<ele>2506.00</ele>
	<time>2023-08-09T09:49:32.000Z</time>
</trkpt>
<trkpt lat="46.1751940" lon="10.4913750">
	<ele>2506.00</ele>
	<time>2023-08-09T09:49:33.000Z</time>
</trkpt>
<trkpt lat="46.1751990" lon="10.4913720">
	<ele>2506.20</ele>
	<time>2023-08-09T09:49:34.000Z</time>
</trkpt>
<trkpt lat="46.1752040" lon="10.4913690">
	<ele>2506.20</ele>
	<time>2023-08-09T09:49:35.000Z</time>
</trkpt>
<trkpt lat="46.1752070" lon="10.4913660">
	<ele>2506.40</ele>
	<time>2023-08-09T09:49:36.000Z</time>
</trkpt>
<trkpt lat="46.1752100" lon="10.4913630">
	<ele>2506.60</ele>
	<time>2023-08-09T09:49:37.000Z</time>
</trkpt>
<trkpt lat="46.1752160" lon="10.4913610">
	<ele>2506.60</ele>
	<time>2023-08-09T09:49:38.000Z</time>
</trkpt>
<trkpt lat="46.1752210" lon="10.4913590">
	<ele>2506.80</ele>
	<time>2023-08-09T09:49:39.000Z</time>
</trkpt>
<trkpt lat="46.1752250" lon="10.4913570">
	<ele>2506.80</ele>
	<time>2023-08-09T09:49:40.000Z</time>
</trkpt>
<trkpt lat="46.1752230" lon="10.4913510">
	<ele>2507.20</ele>
	<time>2023-08-09T09:49:41.000Z</time>
</trkpt>
<trkpt lat="46.1752230" lon="10.4913500">
	<ele>2507.40</ele>
	<time>2023-08-09T09:49:42.000Z</time>
</trkpt>
<trkpt lat="46.1752240" lon="10.4913460">
	<ele>2507.60</ele>
	<time>2023-08-09T09:49:43.000Z</time>
</trkpt>
<trkpt lat="46.1752290" lon="10.4913400">
	<ele>2507.60</ele>
	<time>2023-08-09T09:49:44.000Z</time>
</trkpt>
<trkpt lat="46.1752360" lon="10.4913360">
	<ele>2507.80</ele>
	<time>2023-08-09T09:49:45.000Z</time>
</trkpt>
<trkpt lat="46.1752410" lon="10.4913310">
	<ele>2507.80</ele>
	<time>2023-08-09T09:49:46.000Z</time>
</trkpt>
<trkpt lat="46.1752440" lon="10.4913240">
	<ele>2507.80</ele>
	<time>2023-08-09T09:49:47.000Z</time>
</trkpt>
<trkpt lat="46.1752470" lon="10.4913190">
	<ele>2508.00</ele>
	<time>2023-08-09T09:49:48.000Z</time>
</trkpt>
<trkpt lat="46.1752500" lon="10.4913130">
	<ele>2508.00</ele>
	<time>2023-08-09T09:49:49.000Z</time>
</trkpt>
<trkpt lat="46.1752520" lon="10.4913110">
	<ele>2508.20</ele>
	<time>2023-08-09T09:49:50.000Z</time>
</trkpt>
<trkpt lat="46.1752540" lon="10.4913100">
	<ele>2508.60</ele>
	<time>2023-08-09T09:49:51.000Z</time>
</trkpt>
<trkpt lat="46.1752550" lon="10.4913090">
	<ele>2508.80</ele>
	<time>2023-08-09T09:49:52.000Z</time>
</trkpt>
<trkpt lat="46.1752560" lon="10.4913090">
	<ele>2508.80</ele>
	<time>2023-08-09T09:49:53.000Z</time>
</trkpt>
<trkpt lat="46.1752560" lon="10.4913080">
	<ele>2509.00</ele>
	<time>2023-08-09T09:49:54.000Z</time>
</trkpt>
<trkpt lat="46.1752560" lon="10.4913070">
	<ele>2509.00</ele>
	<time>2023-08-09T09:49:55.000Z</time>
</trkpt>
<trkpt lat="46.1752550" lon="10.4913070">
	<ele>2509.00</ele>
	<time>2023-08-09T09:49:56.000Z</time>
</trkpt>
<trkpt lat="46.1752570" lon="10.4913060">
	<ele>2509.00</ele>
	<time>2023-08-09T09:49:57.000Z</time>
</trkpt>
<trkpt lat="46.1752580" lon="10.4913080">
	<ele>2509.00</ele>
	<time>2023-08-09T09:49:58.000Z</time>
</trkpt>
<trkpt lat="46.1752570" lon="10.4913110">
	<ele>2509.00</ele>
	<time>2023-08-09T09:49:59.000Z</time>
</trkpt>
<trkpt lat="46.1752560" lon="10.4913130">
	<ele>2508.80</ele>
	<time>2023-08-09T09:50:00.000Z</time>
</trkpt>
<trkpt lat="46.1752560" lon="10.4913120">
	<ele>2508.80</ele>
	<time>2023-08-09T09:50:01.000Z</time>
</trkpt>
<trkpt lat="46.1752560" lon="10.4913120">
	<ele>2508.80</ele>
	<time>2023-08-09T09:50:02.000Z</time>
</trkpt>
<trkpt lat="46.1752560" lon="10.4913120">
	<ele>2508.80</ele>
	<time>2023-08-09T09:50:03.000Z</time>
</trkpt>
<trkpt lat="46.1752560" lon="10.4913120">
	<ele>2508.80</ele>
	<time>2023-08-09T09:50:04.000Z</time>
</trkpt>
<trkpt lat="46.1752560" lon="10.4913120">
	<ele>2508.60</ele>
	<time>2023-08-09T09:50:05.000Z</time>
</trkpt>
<trkpt lat="46.1752560" lon="10.4913120">
	<ele>2508.60</ele>
	<time>2023-08-09T09:50:06.000Z</time>
</trkpt>
<trkpt lat="46.1752560" lon="10.4913120">
	<ele>2508.60</ele>
	<time>2023-08-09T09:50:07.000Z</time>
</trkpt>
<trkpt lat="46.1752560" lon="10.4913120">
	<ele>2508.60</ele>
	<time>2023-08-09T09:50:08.000Z</time>
</trkpt>
<trkpt lat="46.1752560" lon="10.4913120">
	<ele>2508.80</ele>
	<time>2023-08-09T09:50:09.000Z</time>
</trkpt>
<trkpt lat="46.1752560" lon="10.4913110">
	<ele>2508.80</ele>
	<time>2023-08-09T09:50:10.000Z</time>
</trkpt>
<trkpt lat="46.1752560" lon="10.4913110">
	<ele>2508.80</ele>
	<time>2023-08-09T09:50:11.000Z</time>
</trkpt>
<trkpt lat="46.1752560" lon="10.4913090">
	<ele>2508.80</ele>
	<time>2023-08-09T09:50:12.000Z</time>
</trkpt>
<trkpt lat="46.1752560" lon="10.4913090">
	<ele>2508.80</ele>
	<time>2023-08-09T09:50:13.000Z</time>
</trkpt>
<trkpt lat="46.1752560" lon="10.4913090">
	<ele>2508.80</ele>
	<time>2023-08-09T09:50:14.000Z</time>
</trkpt>
<trkpt lat="46.1752560" lon="10.4913090">
	<ele>2508.80</ele>
	<time>2023-08-09T09:50:15.000Z</time>
</trkpt>
<trkpt lat="46.1752560" lon="10.4913090">
	<ele>2508.60</ele>
	<time>2023-08-09T09:50:16.000Z</time>
</trkpt>
<trkpt lat="46.1752560" lon="10.4913090">
	<ele>2508.60</ele>
	<time>2023-08-09T09:50:17.000Z</time>
</trkpt>
<trkpt lat="46.1752560" lon="10.4913080">
	<ele>2508.60</ele>
	<time>2023-08-09T09:50:18.000Z</time>
</trkpt>
<trkpt lat="46.1752560" lon="10.4913080">
	<ele>2508.60</ele>
	<time>2023-08-09T09:50:19.000Z</time>
</trkpt>
<trkpt lat="46.1752560" lon="10.4913080">
	<ele>2508.40</ele>
	<time>2023-08-09T09:50:20.000Z</time>
</trkpt>
<trkpt lat="46.1752570" lon="10.4913080">
	<ele>2508.40</ele>
	<time>2023-08-09T09:50:21.000Z</time>
</trkpt>
<trkpt lat="46.1752570" lon="10.4913080">
	<ele>2508.20</ele>
	<time>2023-08-09T09:50:22.000Z</time>
</trkpt>
<trkpt lat="46.1752580" lon="10.4913080">
	<ele>2508.40</ele>
	<time>2023-08-09T09:50:23.000Z</time>
</trkpt>
<trkpt lat="46.1752580" lon="10.4913080">
	<ele>2508.40</ele>
	<time>2023-08-09T09:50:24.000Z</time>
</trkpt>
<trkpt lat="46.1752580" lon="10.4913080">
	<ele>2508.40</ele>
	<time>2023-08-09T09:50:25.000Z</time>
</trkpt>
<trkpt lat="46.1752580" lon="10.4913080">
	<ele>2508.40</ele>
	<time>2023-08-09T09:50:26.000Z</time>
</trkpt>
<trkpt lat="46.1752580" lon="10.4913080">
	<ele>2508.20</ele>
	<time>2023-08-09T09:50:27.000Z</time>
</trkpt>
<trkpt lat="46.1752590" lon="10.4913070">
	<ele>2508.20</ele>
	<time>2023-08-09T09:50:28.000Z</time>
</trkpt>
<trkpt lat="46.1752590" lon="10.4913070">
	<ele>2508.20</ele>
	<time>2023-08-09T09:50:29.000Z</time>
</trkpt>
<trkpt lat="46.1752590" lon="10.4913060">
	<ele>2508.00</ele>
	<time>2023-08-09T09:50:30.000Z</time>
</trkpt>
<trkpt lat="46.1752610" lon="10.4913050">
	<ele>2508.20</ele>
	<time>2023-08-09T09:50:31.000Z</time>
</trkpt>
<trkpt lat="46.1752640" lon="10.4913000">
	<ele>2508.20</ele>
	<time>2023-08-09T09:50:32.000Z</time>
</trkpt>
<trkpt lat="46.1752670" lon="10.4912960">
	<ele>2508.20</ele>
	<time>2023-08-09T09:50:33.000Z</time>
</trkpt>
<trkpt lat="46.1752690" lon="10.4912900">
	<ele>2508.40</ele>
	<time>2023-08-09T09:50:34.000Z</time>
</trkpt>
<trkpt lat="46.1752700" lon="10.4912850">
	<ele>2508.60</ele>
	<time>2023-08-09T09:50:35.000Z</time>
</trkpt>
<trkpt lat="46.1752710" lon="10.4912830">
	<ele>2508.80</ele>
	<time>2023-08-09T09:50:36.000Z</time>
</trkpt>
<trkpt lat="46.1752720" lon="10.4912820">
	<ele>2508.80</ele>
	<time>2023-08-09T09:50:37.000Z</time>
</trkpt>
<trkpt lat="46.1752730" lon="10.4912820">
	<ele>2509.00</ele>
	<time>2023-08-09T09:50:38.000Z</time>
</trkpt>
<trkpt lat="46.1752730" lon="10.4912820">
	<ele>2509.00</ele>
	<time>2023-08-09T09:50:39.000Z</time>
</trkpt>
<trkpt lat="46.1752740" lon="10.4912820">
	<ele>2509.00</ele>
	<time>2023-08-09T09:50:40.000Z</time>
</trkpt>
<trkpt lat="46.1752740" lon="10.4912820">
	<ele>2509.00</ele>
	<time>2023-08-09T09:50:41.000Z</time>
</trkpt>
<trkpt lat="46.1752750" lon="10.4912820">
	<ele>2509.00</ele>
	<time>2023-08-09T09:50:42.000Z</time>
</trkpt>
<trkpt lat="46.1752750" lon="10.4912820">
	<ele>2509.00</ele>
	<time>2023-08-09T09:50:43.000Z</time>
</trkpt>
<trkpt lat="46.1752760" lon="10.4912820">
	<ele>2509.00</ele>
	<time>2023-08-09T09:50:44.000Z</time>
</trkpt>
<trkpt lat="46.1752760" lon="10.4912820">
	<ele>2509.00</ele>
	<time>2023-08-09T09:50:45.000Z</time>
</trkpt>
<trkpt lat="46.1752760" lon="10.4912820">
	<ele>2509.00</ele>
	<time>2023-08-09T09:50:46.000Z</time>
</trkpt>
<trkpt lat="46.1752760" lon="10.4912820">
	<ele>2508.80</ele>
	<time>2023-08-09T09:50:47.000Z</time>
</trkpt>
<trkpt lat="46.1752760" lon="10.4912820">
	<ele>2508.80</ele>
	<time>2023-08-09T09:50:48.000Z</time>
</trkpt>
<trkpt lat="46.1752770" lon="10.4912820">
	<ele>2508.60</ele>
	<time>2023-08-09T09:50:49.000Z</time>
</trkpt>
<trkpt lat="46.1752770" lon="10.4912820">
	<ele>2508.20</ele>
	<time>2023-08-09T09:50:50.000Z</time>
</trkpt>
<trkpt lat="46.1752770" lon="10.4912820">
	<ele>2508.00</ele>
	<time>2023-08-09T09:50:51.000Z</time>
</trkpt>
<trkpt lat="46.1752770" lon="10.4912820">
	<ele>2508.00</ele>
	<time>2023-08-09T09:50:52.000Z</time>
</trkpt>
<trkpt lat="46.1752770" lon="10.4912820">
	<ele>2507.80</ele>
	<time>2023-08-09T09:50:53.000Z</time>
</trkpt>
<trkpt lat="46.1752770" lon="10.4912820">
	<ele>2507.80</ele>
	<time>2023-08-09T09:50:54.000Z</time>
</trkpt>
<trkpt lat="46.1752770" lon="10.4912820">
	<ele>2507.60</ele>
	<time>2023-08-09T09:50:55.000Z</time>
</trkpt>
<trkpt lat="46.1752770" lon="10.4912820">
	<ele>2507.60</ele>
	<time>2023-08-09T09:50:56.000Z</time>
</trkpt>
<trkpt lat="46.1752770" lon="10.4912830">
	<ele>2507.60</ele>
	<time>2023-08-09T09:50:57.000Z</time>
</trkpt>
<trkpt lat="46.1752780" lon="10.4912830">
	<ele>2507.60</ele>
	<time>2023-08-09T09:50:58.000Z</time>
</trkpt>
<trkpt lat="46.1752780" lon="10.4912830">
	<ele>2507.80</ele>
	<time>2023-08-09T09:50:59.000Z</time>
</trkpt>
<trkpt lat="46.1752800" lon="10.4912790">
	<ele>2507.80</ele>
	<time>2023-08-09T09:51:00.000Z</time>
</trkpt>
<trkpt lat="46.1752860" lon="10.4912610">
	<ele>2507.80</ele>
	<time>2023-08-09T09:51:01.000Z</time>
</trkpt>
<trkpt lat="46.1752960" lon="10.4912460">
	<ele>2507.80</ele>
	<time>2023-08-09T09:51:02.000Z</time>
</trkpt>
<trkpt lat="46.1753040" lon="10.4912310">
	<ele>2508.00</ele>
	<time>2023-08-09T09:51:03.000Z</time>
</trkpt>
<trkpt lat="46.1753140" lon="10.4912150">
	<ele>2508.00</ele>
	<time>2023-08-09T09:51:04.000Z</time>
</trkpt>
<trkpt lat="46.1753250" lon="10.4912040">
	<ele>2508.00</ele>
	<time>2023-08-09T09:51:05.000Z</time>
</trkpt>
<trkpt lat="46.1753350" lon="10.4911890">
	<ele>2508.00</ele>
	<time>2023-08-09T09:51:06.000Z</time>
</trkpt>
<trkpt lat="46.1753460" lon="10.4911760">
	<ele>2508.00</ele>
	<time>2023-08-09T09:51:07.000Z</time>
</trkpt>
<trkpt lat="46.1753530" lon="10.4911650">
	<ele>2508.20</ele>
	<time>2023-08-09T09:51:08.000Z</time>
</trkpt>
<trkpt lat="46.1753610" lon="10.4911590">
	<ele>2508.40</ele>
	<time>2023-08-09T09:51:09.000Z</time>
</trkpt>
<trkpt lat="46.1753660" lon="10.4911550">
	<ele>2508.40</ele>
	<time>2023-08-09T09:51:10.000Z</time>
</trkpt>
<trkpt lat="46.1753690" lon="10.4911470">
	<ele>2508.60</ele>
	<time>2023-08-09T09:51:11.000Z</time>
</trkpt>
<trkpt lat="46.1753710" lon="10.4911350">
	<ele>2508.60</ele>
	<time>2023-08-09T09:51:12.000Z</time>
</trkpt>
<trkpt lat="46.1753750" lon="10.4911260">
	<ele>2508.80</ele>
	<time>2023-08-09T09:51:13.000Z</time>
</trkpt>
<trkpt lat="46.1753810" lon="10.4911240">
	<ele>2509.00</ele>
	<time>2023-08-09T09:51:14.000Z</time>
</trkpt>
<trkpt lat="46.1753870" lon="10.4911240">
	<ele>2509.20</ele>
	<time>2023-08-09T09:51:15.000Z</time>
</trkpt>
<trkpt lat="46.1753930" lon="10.4911250">
	<ele>2509.20</ele>
	<time>2023-08-09T09:51:16.000Z</time>
</trkpt>
<trkpt lat="46.1753970" lon="10.4911250">
	<ele>2509.40</ele>
	<time>2023-08-09T09:51:17.000Z</time>
</trkpt>
<trkpt lat="46.1753980" lon="10.4911250">
	<ele>2509.80</ele>
	<time>2023-08-09T09:51:18.000Z</time>
</trkpt>
<trkpt lat="46.1754020" lon="10.4911250">
	<ele>2510.00</ele>
	<time>2023-08-09T09:51:19.000Z</time>
</trkpt>
<trkpt lat="46.1754140" lon="10.4911320">
	<ele>2510.40</ele>
	<time>2023-08-09T09:51:20.000Z</time>
</trkpt>
<trkpt lat="46.1754180" lon="10.4911300">
	<ele>2510.60</ele>
	<time>2023-08-09T09:51:21.000Z</time>
</trkpt>
<trkpt lat="46.1754220" lon="10.4911270">
	<ele>2510.80</ele>
	<time>2023-08-09T09:51:22.000Z</time>
</trkpt>
<trkpt lat="46.1754270" lon="10.4911240">
	<ele>2511.00</ele>
	<time>2023-08-09T09:51:23.000Z</time>
</trkpt>
<trkpt lat="46.1754320" lon="10.4911220">
	<ele>2511.00</ele>
	<time>2023-08-09T09:51:24.000Z</time>
</trkpt>
<trkpt lat="46.1754360" lon="10.4911200">
	<ele>2511.20</ele>
	<time>2023-08-09T09:51:25.000Z</time>
</trkpt>
<trkpt lat="46.1754400" lon="10.4911190">
	<ele>2511.40</ele>
	<time>2023-08-09T09:51:26.000Z</time>
</trkpt>
<trkpt lat="46.1754410" lon="10.4911160">
	<ele>2511.60</ele>
	<time>2023-08-09T09:51:27.000Z</time>
</trkpt>
<trkpt lat="46.1754420" lon="10.4911140">
	<ele>2511.80</ele>
	<time>2023-08-09T09:51:28.000Z</time>
</trkpt>
<trkpt lat="46.1754430" lon="10.4911120">
	<ele>2512.00</ele>
	<time>2023-08-09T09:51:29.000Z</time>
</trkpt>
<trkpt lat="46.1754470" lon="10.4911110">
	<ele>2512.20</ele>
	<time>2023-08-09T09:51:30.000Z</time>
</trkpt>
<trkpt lat="46.1754540" lon="10.4911040">
	<ele>2512.20</ele>
	<time>2023-08-09T09:51:31.000Z</time>
</trkpt>
<trkpt lat="46.1754590" lon="10.4910980">
	<ele>2512.40</ele>
	<time>2023-08-09T09:51:32.000Z</time>
</trkpt>
<trkpt lat="46.1754630" lon="10.4910960">
	<ele>2512.40</ele>
	<time>2023-08-09T09:51:33.000Z</time>
</trkpt>
<trkpt lat="46.1754700" lon="10.4910940">
	<ele>2512.60</ele>
	<time>2023-08-09T09:51:34.000Z</time>
</trkpt>
<trkpt lat="46.1754750" lon="10.4910900">
	<ele>2512.60</ele>
	<time>2023-08-09T09:51:35.000Z</time>
</trkpt>
<trkpt lat="46.1754780" lon="10.4910850">
	<ele>2512.80</ele>
	<time>2023-08-09T09:51:36.000Z</time>
</trkpt>
<trkpt lat="46.1754800" lon="10.4910840">
	<ele>2512.80</ele>
	<time>2023-08-09T09:51:37.000Z</time>
</trkpt>
<trkpt lat="46.1754840" lon="10.4910870">
	<ele>2513.00</ele>
	<time>2023-08-09T09:51:38.000Z</time>
</trkpt>
<trkpt lat="46.1754890" lon="10.4910920">
	<ele>2513.00</ele>
	<time>2023-08-09T09:51:39.000Z</time>
</trkpt>
<trkpt lat="46.1754920" lon="10.4910960">
	<ele>2513.20</ele>
	<time>2023-08-09T09:51:40.000Z</time>
</trkpt>
<trkpt lat="46.1754960" lon="10.4910990">
	<ele>2513.20</ele>
	<time>2023-08-09T09:51:41.000Z</time>
</trkpt>
<trkpt lat="46.1755020" lon="10.4911030">
	<ele>2513.40</ele>
	<time>2023-08-09T09:51:42.000Z</time>
</trkpt>
<trkpt lat="46.1755060" lon="10.4911070">
	<ele>2513.40</ele>
	<time>2023-08-09T09:51:43.000Z</time>
</trkpt>
<trkpt lat="46.1755140" lon="10.4911080">
	<ele>2513.60</ele>
	<time>2023-08-09T09:51:44.000Z</time>
</trkpt>
<trkpt lat="46.1755230" lon="10.4911130">
	<ele>2513.80</ele>
	<time>2023-08-09T09:51:45.000Z</time>
</trkpt>
<trkpt lat="46.1755280" lon="10.4911200">
	<ele>2514.00</ele>
	<time>2023-08-09T09:51:46.000Z</time>
</trkpt>
<trkpt lat="46.1755290" lon="10.4911240">
	<ele>2514.00</ele>
	<time>2023-08-09T09:51:47.000Z</time>
</trkpt>
<trkpt lat="46.1755320" lon="10.4911310">
	<ele>2514.20</ele>
	<time>2023-08-09T09:51:48.000Z</time>
</trkpt>
<trkpt lat="46.1755370" lon="10.4911390">
	<ele>2514.40</ele>
	<time>2023-08-09T09:51:49.000Z</time>
</trkpt>
<trkpt lat="46.1755400" lon="10.4911490">
	<ele>2514.40</ele>
	<time>2023-08-09T09:51:50.000Z</time>
</trkpt>
<trkpt lat="46.1755410" lon="10.4911540">
	<ele>2514.60</ele>
	<time>2023-08-09T09:51:51.000Z</time>
</trkpt>
<trkpt lat="46.1755420" lon="10.4911580">
	<ele>2514.80</ele>
	<time>2023-08-09T09:51:52.000Z</time>
</trkpt>
<trkpt lat="46.1755430" lon="10.4911610">
	<ele>2514.80</ele>
	<time>2023-08-09T09:51:53.000Z</time>
</trkpt>
<trkpt lat="46.1755430" lon="10.4911640">
	<ele>2515.00</ele>
	<time>2023-08-09T09:51:54.000Z</time>
</trkpt>
<trkpt lat="46.1755420" lon="10.4911640">
	<ele>2515.00</ele>
	<time>2023-08-09T09:51:55.000Z</time>
</trkpt>
<trkpt lat="46.1755410" lon="10.4911650">
	<ele>2515.20</ele>
	<time>2023-08-09T09:51:56.000Z</time>
</trkpt>
<trkpt lat="46.1755400" lon="10.4911670">
	<ele>2515.20</ele>
	<time>2023-08-09T09:51:57.000Z</time>
</trkpt>
<trkpt lat="46.1755400" lon="10.4911690">
	<ele>2515.20</ele>
	<time>2023-08-09T09:51:58.000Z</time>
</trkpt>
<trkpt lat="46.1755410" lon="10.4911700">
	<ele>2515.20</ele>
	<time>2023-08-09T09:51:59.000Z</time>
</trkpt>
<trkpt lat="46.1755450" lon="10.4911650">
	<ele>2515.20</ele>
	<time>2023-08-09T09:52:00.000Z</time>
</trkpt>
<trkpt lat="46.1755480" lon="10.4911710">
	<ele>2515.20</ele>
	<time>2023-08-09T09:52:01.000Z</time>
</trkpt>
<trkpt lat="46.1755530" lon="10.4911710">
	<ele>2515.20</ele>
	<time>2023-08-09T09:52:02.000Z</time>
</trkpt>
<trkpt lat="46.1755560" lon="10.4911750">
	<ele>2515.20</ele>
	<time>2023-08-09T09:52:03.000Z</time>
</trkpt>
<trkpt lat="46.1755590" lon="10.4911780">
	<ele>2515.00</ele>
	<time>2023-08-09T09:52:04.000Z</time>
</trkpt>
<trkpt lat="46.1755670" lon="10.4911820">
	<ele>2515.00</ele>
	<time>2023-08-09T09:52:05.000Z</time>
</trkpt>
<trkpt lat="46.1755730" lon="10.4911880">
	<ele>2515.00</ele>
	<time>2023-08-09T09:52:06.000Z</time>
</trkpt>
<trkpt lat="46.1755790" lon="10.4911860">
	<ele>2514.80</ele>
	<time>2023-08-09T09:52:07.000Z</time>
</trkpt>
<trkpt lat="46.1755800" lon="10.4911880">
	<ele>2514.60</ele>
	<time>2023-08-09T09:52:08.000Z</time>
</trkpt>
<trkpt lat="46.1755800" lon="10.4911900">
	<ele>2514.60</ele>
	<time>2023-08-09T09:52:09.000Z</time>
</trkpt>
<trkpt lat="46.1755770" lon="10.4911920">
	<ele>2514.40</ele>
	<time>2023-08-09T09:52:10.000Z</time>
</trkpt>
<trkpt lat="46.1755760" lon="10.4911940">
	<ele>2514.40</ele>
	<time>2023-08-09T09:52:11.000Z</time>
</trkpt>
<trkpt lat="46.1755760" lon="10.4911950">
	<ele>2514.40</ele>
	<time>2023-08-09T09:52:12.000Z</time>
</trkpt>
<trkpt lat="46.1755740" lon="10.4911980">
	<ele>2514.40</ele>
	<time>2023-08-09T09:52:13.000Z</time>
</trkpt>
<trkpt lat="46.1755730" lon="10.4912000">
	<ele>2514.40</ele>
	<time>2023-08-09T09:52:14.000Z</time>
</trkpt>
<trkpt lat="46.1755720" lon="10.4912000">
	<ele>2514.60</ele>
	<time>2023-08-09T09:52:15.000Z</time>
</trkpt>
<trkpt lat="46.1755710" lon="10.4912010">
	<ele>2514.80</ele>
	<time>2023-08-09T09:52:16.000Z</time>
</trkpt>
<trkpt lat="46.1755710" lon="10.4912010">
	<ele>2515.00</ele>
	<time>2023-08-09T09:52:17.000Z</time>
</trkpt>
<trkpt lat="46.1755710" lon="10.4912010">
	<ele>2515.20</ele>
	<time>2023-08-09T09:52:18.000Z</time>
</trkpt>
<trkpt lat="46.1755710" lon="10.4912010">
	<ele>2515.20</ele>
	<time>2023-08-09T09:52:19.000Z</time>
</trkpt>
<trkpt lat="46.1755710" lon="10.4912010">
	<ele>2515.20</ele>
	<time>2023-08-09T09:52:20.000Z</time>
</trkpt>
<trkpt lat="46.1755710" lon="10.4912010">
	<ele>2515.20</ele>
	<time>2023-08-09T09:52:21.000Z</time>
</trkpt>
<trkpt lat="46.1755710" lon="10.4912010">
	<ele>2515.20</ele>
	<time>2023-08-09T09:52:22.000Z</time>
</trkpt>
<trkpt lat="46.1755710" lon="10.4912010">
	<ele>2515.20</ele>
	<time>2023-08-09T09:52:23.000Z</time>
</trkpt>
<trkpt lat="46.1755710" lon="10.4912010">
	<ele>2515.20</ele>
	<time>2023-08-09T09:52:24.000Z</time>
</trkpt>
<trkpt lat="46.1755710" lon="10.4912000">
	<ele>2515.20</ele>
	<time>2023-08-09T09:52:25.000Z</time>
</trkpt>
<trkpt lat="46.1755710" lon="10.4912000">
	<ele>2515.40</ele>
	<time>2023-08-09T09:52:26.000Z</time>
</trkpt>
<trkpt lat="46.1755710" lon="10.4912000">
	<ele>2515.40</ele>
	<time>2023-08-09T09:52:27.000Z</time>
</trkpt>
<trkpt lat="46.1755710" lon="10.4912000">
	<ele>2515.40</ele>
	<time>2023-08-09T09:52:28.000Z</time>
</trkpt>
<trkpt lat="46.1755710" lon="10.4912000">
	<ele>2515.40</ele>
	<time>2023-08-09T09:52:29.000Z</time>
</trkpt>
<trkpt lat="46.1755710" lon="10.4912000">
	<ele>2515.40</ele>
	<time>2023-08-09T09:52:30.000Z</time>
</trkpt>
<trkpt lat="46.1755710" lon="10.4912000">
	<ele>2515.40</ele>
	<time>2023-08-09T09:52:31.000Z</time>
</trkpt>
<trkpt lat="46.1755700" lon="10.4912000">
	<ele>2515.40</ele>
	<time>2023-08-09T09:52:32.000Z</time>
</trkpt>
<trkpt lat="46.1755700" lon="10.4912000">
	<ele>2515.40</ele>
	<time>2023-08-09T09:52:33.000Z</time>
</trkpt>
<trkpt lat="46.1755700" lon="10.4912000">
	<ele>2515.40</ele>
	<time>2023-08-09T09:52:34.000Z</time>
</trkpt>
<trkpt lat="46.1755700" lon="10.4912000">
	<ele>2515.20</ele>
	<time>2023-08-09T09:52:35.000Z</time>
</trkpt>
<trkpt lat="46.1755700" lon="10.4912000">
	<ele>2515.20</ele>
	<time>2023-08-09T09:52:36.000Z</time>
</trkpt>
<trkpt lat="46.1755700" lon="10.4912000">
	<ele>2515.00</ele>
	<time>2023-08-09T09:52:37.000Z</time>
</trkpt>
<trkpt lat="46.1755700" lon="10.4912000">
	<ele>2515.00</ele>
	<time>2023-08-09T09:52:38.000Z</time>
</trkpt>
<trkpt lat="46.1755700" lon="10.4912000">
	<ele>2515.20</ele>
	<time>2023-08-09T09:52:39.000Z</time>
</trkpt>
<trkpt lat="46.1755700" lon="10.4912000">
	<ele>2515.40</ele>
	<time>2023-08-09T09:52:40.000Z</time>
</trkpt>
<trkpt lat="46.1755700" lon="10.4912000">
	<ele>2515.40</ele>
	<time>2023-08-09T09:52:41.000Z</time>
</trkpt>
<trkpt lat="46.1755700" lon="10.4912000">
	<ele>2515.40</ele>
	<time>2023-08-09T09:52:42.000Z</time>
</trkpt>
<trkpt lat="46.1755700" lon="10.4912000">
	<ele>2515.40</ele>
	<time>2023-08-09T09:52:43.000Z</time>
</trkpt>
<trkpt lat="46.1755720" lon="10.4912060">
	<ele>2515.60</ele>
	<time>2023-08-09T09:52:44.000Z</time>
</trkpt>
<trkpt lat="46.1755780" lon="10.4912140">
	<ele>2515.80</ele>
	<time>2023-08-09T09:52:45.000Z</time>
</trkpt>
<trkpt lat="46.1755860" lon="10.4912240">
	<ele>2515.80</ele>
	<time>2023-08-09T09:52:46.000Z</time>
</trkpt>
<trkpt lat="46.1755910" lon="10.4912380">
	<ele>2516.00</ele>
	<time>2023-08-09T09:52:47.000Z</time>
</trkpt>
<trkpt lat="46.1755980" lon="10.4912520">
	<ele>2516.00</ele>
	<time>2023-08-09T09:52:48.000Z</time>
</trkpt>
<trkpt lat="46.1756090" lon="10.4912610">
	<ele>2516.00</ele>
	<time>2023-08-09T09:52:49.000Z</time>
</trkpt>
<trkpt lat="46.1756210" lon="10.4912700">
	<ele>2516.00</ele>
	<time>2023-08-09T09:52:50.000Z</time>
</trkpt>
<trkpt lat="46.1756330" lon="10.4912810">
	<ele>2516.00</ele>
	<time>2023-08-09T09:52:51.000Z</time>
</trkpt>
<trkpt lat="46.1756420" lon="10.4912920">
	<ele>2516.00</ele>
	<time>2023-08-09T09:52:52.000Z</time>
</trkpt>
<trkpt lat="46.1756520" lon="10.4913010">
	<ele>2516.00</ele>
	<time>2023-08-09T09:52:53.000Z</time>
</trkpt>
<trkpt lat="46.1756610" lon="10.4913060">
	<ele>2516.00</ele>
	<time>2023-08-09T09:52:54.000Z</time>
</trkpt>
<trkpt lat="46.1756670" lon="10.4913130">
	<ele>2516.20</ele>
	<time>2023-08-09T09:52:55.000Z</time>
</trkpt>
<trkpt lat="46.1756740" lon="10.4913170">
	<ele>2516.20</ele>
	<time>2023-08-09T09:52:56.000Z</time>
</trkpt>
<trkpt lat="46.1756820" lon="10.4913210">
	<ele>2516.20</ele>
	<time>2023-08-09T09:52:57.000Z</time>
</trkpt>
<trkpt lat="46.1756890" lon="10.4913210">
	<ele>2516.00</ele>
	<time>2023-08-09T09:52:58.000Z</time>
</trkpt>
<trkpt lat="46.1756930" lon="10.4913230">
	<ele>2516.00</ele>
	<time>2023-08-09T09:52:59.000Z</time>
</trkpt>
<trkpt lat="46.1756970" lon="10.4913240">
	<ele>2515.80</ele>
	<time>2023-08-09T09:53:00.000Z</time>
</trkpt>
<trkpt lat="46.1757000" lon="10.4913280">
	<ele>2515.80</ele>
	<time>2023-08-09T09:53:01.000Z</time>
</trkpt>
<trkpt lat="46.1757040" lon="10.4913310">
	<ele>2515.60</ele>
	<time>2023-08-09T09:53:02.000Z</time>
</trkpt>
<trkpt lat="46.1757090" lon="10.4913340">
	<ele>2515.60</ele>
	<time>2023-08-09T09:53:03.000Z</time>
</trkpt>
<trkpt lat="46.1757110" lon="10.4913370">
	<ele>2515.60</ele>
	<time>2023-08-09T09:53:04.000Z</time>
</trkpt>
<trkpt lat="46.1757140" lon="10.4913410">
	<ele>2515.20</ele>
	<time>2023-08-09T09:53:05.000Z</time>
</trkpt>
<trkpt lat="46.1757200" lon="10.4913430">
	<ele>2515.00</ele>
	<time>2023-08-09T09:53:06.000Z</time>
</trkpt>
<trkpt lat="46.1757230" lon="10.4913440">
	<ele>2514.80</ele>
	<time>2023-08-09T09:53:07.000Z</time>
</trkpt>
<trkpt lat="46.1757280" lon="10.4913500">
	<ele>2514.60</ele>
	<time>2023-08-09T09:53:08.000Z</time>
</trkpt>
<trkpt lat="46.1757400" lon="10.4913560">
	<ele>2514.60</ele>
	<time>2023-08-09T09:53:09.000Z</time>
</trkpt>
<trkpt lat="46.1757490" lon="10.4913660">
	<ele>2514.40</ele>
	<time>2023-08-09T09:53:10.000Z</time>
</trkpt>
<trkpt lat="46.1757560" lon="10.4913740">
	<ele>2514.40</ele>
	<time>2023-08-09T09:53:11.000Z</time>
</trkpt>
<trkpt lat="46.1757650" lon="10.4913780">
	<ele>2514.20</ele>
	<time>2023-08-09T09:53:12.000Z</time>
</trkpt>
<trkpt lat="46.1757720" lon="10.4913820">
	<ele>2514.00</ele>
	<time>2023-08-09T09:53:13.000Z</time>
</trkpt>
<trkpt lat="46.1757810" lon="10.4913870">
	<ele>2514.00</ele>
	<time>2023-08-09T09:53:14.000Z</time>
</trkpt>
<trkpt lat="46.1757890" lon="10.4913920">
	<ele>2513.80</ele>
	<time>2023-08-09T09:53:15.000Z</time>
</trkpt>
<trkpt lat="46.1757970" lon="10.4913980">
	<ele>2513.80</ele>
	<time>2023-08-09T09:53:16.000Z</time>
</trkpt>
<trkpt lat="46.1758060" lon="10.4914030">
	<ele>2513.60</ele>
	<time>2023-08-09T09:53:17.000Z</time>
</trkpt>
<trkpt lat="46.1758120" lon="10.4914090">
	<ele>2513.60</ele>
	<time>2023-08-09T09:53:18.000Z</time>
</trkpt>
<trkpt lat="46.1758180" lon="10.4914140">
	<ele>2513.40</ele>
	<time>2023-08-09T09:53:19.000Z</time>
</trkpt>
<trkpt lat="46.1758220" lon="10.4914190">
	<ele>2513.20</ele>
	<time>2023-08-09T09:53:20.000Z</time>
</trkpt>
<trkpt lat="46.1758290" lon="10.4914210">
	<ele>2513.20</ele>
	<time>2023-08-09T09:53:21.000Z</time>
</trkpt>
<trkpt lat="46.1758340" lon="10.4914250">
	<ele>2513.00</ele>
	<time>2023-08-09T09:53:22.000Z</time>
</trkpt>
<trkpt lat="46.1758390" lon="10.4914270">
	<ele>2513.00</ele>
	<time>2023-08-09T09:53:23.000Z</time>
</trkpt>
<trkpt lat="46.1758460" lon="10.4914290">
	<ele>2512.80</ele>
	<time>2023-08-09T09:53:24.000Z</time>
</trkpt>
<trkpt lat="46.1758500" lon="10.4914330">
	<ele>2512.60</ele>
	<time>2023-08-09T09:53:25.000Z</time>
</trkpt>
<trkpt lat="46.1758540" lon="10.4914370">
	<ele>2512.40</ele>
	<time>2023-08-09T09:53:26.000Z</time>
</trkpt>
<trkpt lat="46.1758560" lon="10.4914370">
	<ele>2512.40</ele>
	<time>2023-08-09T09:53:27.000Z</time>
</trkpt>
<trkpt lat="46.1758600" lon="10.4914370">
	<ele>2512.20</ele>
	<time>2023-08-09T09:53:28.000Z</time>
</trkpt>
<trkpt lat="46.1758660" lon="10.4914380">
	<ele>2512.00</ele>
	<time>2023-08-09T09:53:29.000Z</time>
</trkpt>
<trkpt lat="46.1758710" lon="10.4914400">
	<ele>2511.80</ele>
	<time>2023-08-09T09:53:30.000Z</time>
</trkpt>
<trkpt lat="46.1758770" lon="10.4914380">
	<ele>2511.60</ele>
	<time>2023-08-09T09:53:31.000Z</time>
</trkpt>
<trkpt lat="46.1758840" lon="10.4914350">
	<ele>2511.40</ele>
	<time>2023-08-09T09:53:32.000Z</time>
</trkpt>
<trkpt lat="46.1758910" lon="10.4914340">
	<ele>2511.20</ele>
	<time>2023-08-09T09:53:33.000Z</time>
</trkpt>
<trkpt lat="46.1758970" lon="10.4914330">
	<ele>2511.00</ele>
	<time>2023-08-09T09:53:34.000Z</time>
</trkpt>
<trkpt lat="46.1759040" lon="10.4914330">
	<ele>2510.80</ele>
	<time>2023-08-09T09:53:35.000Z</time>
</trkpt>
<trkpt lat="46.1759080" lon="10.4914370">
	<ele>2510.40</ele>
	<time>2023-08-09T09:53:36.000Z</time>
</trkpt>
<trkpt lat="46.1759130" lon="10.4914450">
	<ele>2510.20</ele>
	<time>2023-08-09T09:53:37.000Z</time>
</trkpt>
<trkpt lat="46.1759190" lon="10.4914540">
	<ele>2510.00</ele>
	<time>2023-08-09T09:53:38.000Z</time>
</trkpt>
<trkpt lat="46.1759250" lon="10.4914610">
	<ele>2509.80</ele>
	<time>2023-08-09T09:53:39.000Z</time>
</trkpt>
<trkpt lat="46.1759310" lon="10.4914640">
	<ele>2509.80</ele>
	<time>2023-08-09T09:53:40.000Z</time>
</trkpt>
<trkpt lat="46.1759370" lon="10.4914650">
	<ele>2509.60</ele>
	<time>2023-08-09T09:53:41.000Z</time>
</trkpt>
<trkpt lat="46.1759430" lon="10.4914650">
	<ele>2509.60</ele>
	<time>2023-08-09T09:53:42.000Z</time>
</trkpt>
<trkpt lat="46.1759490" lon="10.4914710">
	<ele>2509.40</ele>
	<time>2023-08-09T09:53:43.000Z</time>
</trkpt>
<trkpt lat="46.1759530" lon="10.4914780">
	<ele>2509.20</ele>
	<time>2023-08-09T09:53:44.000Z</time>
</trkpt>
<trkpt lat="46.1759570" lon="10.4914820">
	<ele>2509.20</ele>
	<time>2023-08-09T09:53:45.000Z</time>
</trkpt>
<trkpt lat="46.1759610" lon="10.4914850">
	<ele>2509.20</ele>
	<time>2023-08-09T09:53:46.000Z</time>
</trkpt>
<trkpt lat="46.1759660" lon="10.4914890">
	<ele>2508.80</ele>
	<time>2023-08-09T09:53:47.000Z</time>
</trkpt>
<trkpt lat="46.1759700" lon="10.4914910">
	<ele>2508.80</ele>
	<time>2023-08-09T09:53:48.000Z</time>
</trkpt>
<trkpt lat="46.1759730" lon="10.4914930">
	<ele>2508.60</ele>
	<time>2023-08-09T09:53:49.000Z</time>
</trkpt>
<trkpt lat="46.1759790" lon="10.4914960">
	<ele>2508.60</ele>
	<time>2023-08-09T09:53:50.000Z</time>
</trkpt>
<trkpt lat="46.1759830" lon="10.4914960">
	<ele>2508.40</ele>
	<time>2023-08-09T09:53:51.000Z</time>
</trkpt>
<trkpt lat="46.1759890" lon="10.4914970">
	<ele>2508.00</ele>
	<time>2023-08-09T09:53:52.000Z</time>
</trkpt>
<trkpt lat="46.1759940" lon="10.4914980">
	<ele>2507.80</ele>
	<time>2023-08-09T09:53:53.000Z</time>
</trkpt>
<trkpt lat="46.1759970" lon="10.4914980">
	<ele>2507.60</ele>
	<time>2023-08-09T09:53:54.000Z</time>
</trkpt>
<trkpt lat="46.1760020" lon="10.4914990">
	<ele>2507.40</ele>
	<time>2023-08-09T09:53:55.000Z</time>
</trkpt>
<trkpt lat="46.1760050" lon="10.4914990">
	<ele>2507.20</ele>
	<time>2023-08-09T09:53:56.000Z</time>
</trkpt>
<trkpt lat="46.1760080" lon="10.4914980">
	<ele>2507.00</ele>
	<time>2023-08-09T09:53:57.000Z</time>
</trkpt>
<trkpt lat="46.1760100" lon="10.4914990">
	<ele>2506.80</ele>
	<time>2023-08-09T09:53:58.000Z</time>
</trkpt>
<trkpt lat="46.1760130" lon="10.4914990">
	<ele>2506.80</ele>
	<time>2023-08-09T09:53:59.000Z</time>
</trkpt>
<trkpt lat="46.1760140" lon="10.4915000">
	<ele>2506.60</ele>
	<time>2023-08-09T09:54:00.000Z</time>
</trkpt>
<trkpt lat="46.1760140" lon="10.4915010">
	<ele>2506.40</ele>
	<time>2023-08-09T09:54:01.000Z</time>
</trkpt>
<trkpt lat="46.1760150" lon="10.4914990">
	<ele>2506.60</ele>
	<time>2023-08-09T09:54:02.000Z</time>
</trkpt>
<trkpt lat="46.1760140" lon="10.4914980">
	<ele>2506.40</ele>
	<time>2023-08-09T09:54:03.000Z</time>
</trkpt>
<trkpt lat="46.1760160" lon="10.4914980">
	<ele>2506.40</ele>
	<time>2023-08-09T09:54:04.000Z</time>
</trkpt>
<trkpt lat="46.1760190" lon="10.4915000">
	<ele>2506.40</ele>
	<time>2023-08-09T09:54:05.000Z</time>
</trkpt>
<trkpt lat="46.1760210" lon="10.4915030">
	<ele>2506.20</ele>
	<time>2023-08-09T09:54:06.000Z</time>
</trkpt>
<trkpt lat="46.1760230" lon="10.4915050">
	<ele>2506.20</ele>
	<time>2023-08-09T09:54:07.000Z</time>
</trkpt>
<trkpt lat="46.1760260" lon="10.4915080">
	<ele>2506.00</ele>
	<time>2023-08-09T09:54:08.000Z</time>
</trkpt>
<trkpt lat="46.1760290" lon="10.4915090">
	<ele>2506.00</ele>
	<time>2023-08-09T09:54:09.000Z</time>
</trkpt>
<trkpt lat="46.1760360" lon="10.4915080">
	<ele>2505.80</ele>
	<time>2023-08-09T09:54:10.000Z</time>
</trkpt>
<trkpt lat="46.1760420" lon="10.4915060">
	<ele>2505.60</ele>
	<time>2023-08-09T09:54:11.000Z</time>
</trkpt>
<trkpt lat="46.1760460" lon="10.4915080">
	<ele>2505.20</ele>
	<time>2023-08-09T09:54:12.000Z</time>
</trkpt>
<trkpt lat="46.1760500" lon="10.4915080">
	<ele>2505.20</ele>
	<time>2023-08-09T09:54:13.000Z</time>
</trkpt>
<trkpt lat="46.1760540" lon="10.4915120">
	<ele>2504.80</ele>
	<time>2023-08-09T09:54:14.000Z</time>
</trkpt>
<trkpt lat="46.1760590" lon="10.4915150">
	<ele>2504.60</ele>
	<time>2023-08-09T09:54:15.000Z</time>
</trkpt>
<trkpt lat="46.1760650" lon="10.4915190">
	<ele>2504.60</ele>
	<time>2023-08-09T09:54:16.000Z</time>
</trkpt>
<trkpt lat="46.1760680" lon="10.4915240">
	<ele>2504.20</ele>
	<time>2023-08-09T09:54:17.000Z</time>
</trkpt>
<trkpt lat="46.1760730" lon="10.4915310">
	<ele>2504.00</ele>
	<time>2023-08-09T09:54:18.000Z</time>
</trkpt>
<trkpt lat="46.1760770" lon="10.4915380">
	<ele>2503.80</ele>
	<time>2023-08-09T09:54:19.000Z</time>
</trkpt>
<trkpt lat="46.1760810" lon="10.4915440">
	<ele>2503.60</ele>
	<time>2023-08-09T09:54:20.000Z</time>
</trkpt>
<trkpt lat="46.1760880" lon="10.4915490">
	<ele>2503.40</ele>
	<time>2023-08-09T09:54:21.000Z</time>
</trkpt>
<trkpt lat="46.1760940" lon="10.4915510">
	<ele>2503.40</ele>
	<time>2023-08-09T09:54:22.000Z</time>
</trkpt>
<trkpt lat="46.1761000" lon="10.4915520">
	<ele>2503.20</ele>
	<time>2023-08-09T09:54:23.000Z</time>
</trkpt>
<trkpt lat="46.1761060" lon="10.4915550">
	<ele>2503.00</ele>
	<time>2023-08-09T09:54:24.000Z</time>
</trkpt>
<trkpt lat="46.1761120" lon="10.4915610">
	<ele>2502.60</ele>
	<time>2023-08-09T09:54:25.000Z</time>
</trkpt>
<trkpt lat="46.1761170" lon="10.4915670">
	<ele>2502.60</ele>
	<time>2023-08-09T09:54:26.000Z</time>
</trkpt>
<trkpt lat="46.1761210" lon="10.4915740">
	<ele>2502.40</ele>
	<time>2023-08-09T09:54:27.000Z</time>
</trkpt>
<trkpt lat="46.1761230" lon="10.4915800">
	<ele>2502.40</ele>
	<time>2023-08-09T09:54:28.000Z</time>
</trkpt>
<trkpt lat="46.1761260" lon="10.4915840">
	<ele>2502.20</ele>
	<time>2023-08-09T09:54:29.000Z</time>
</trkpt>
<trkpt lat="46.1761340" lon="10.4915890">
	<ele>2502.00</ele>
	<time>2023-08-09T09:54:30.000Z</time>
</trkpt>
<trkpt lat="46.1761410" lon="10.4915980">
	<ele>2502.00</ele>
	<time>2023-08-09T09:54:31.000Z</time>
</trkpt>
<trkpt lat="46.1761470" lon="10.4916050">
	<ele>2501.80</ele>
	<time>2023-08-09T09:54:32.000Z</time>
</trkpt>
<trkpt lat="46.1761530" lon="10.4916140">
	<ele>2501.80</ele>
	<time>2023-08-09T09:54:33.000Z</time>
</trkpt>
<trkpt lat="46.1761560" lon="10.4916250">
	<ele>2501.80</ele>
	<time>2023-08-09T09:54:34.000Z</time>
</trkpt>
<trkpt lat="46.1761600" lon="10.4916360">
	<ele>2501.80</ele>
	<time>2023-08-09T09:54:35.000Z</time>
</trkpt>
<trkpt lat="46.1761650" lon="10.4916470">
	<ele>2501.80</ele>
	<time>2023-08-09T09:54:36.000Z</time>
</trkpt>
<trkpt lat="46.1761700" lon="10.4916580">
	<ele>2501.80</ele>
	<time>2023-08-09T09:54:37.000Z</time>
</trkpt>
<trkpt lat="46.1761740" lon="10.4916640">
	<ele>2501.80</ele>
	<time>2023-08-09T09:54:38.000Z</time>
</trkpt>
<trkpt lat="46.1761780" lon="10.4916710">
	<ele>2501.60</ele>
	<time>2023-08-09T09:54:39.000Z</time>
</trkpt>
<trkpt lat="46.1761830" lon="10.4916770">
	<ele>2501.40</ele>
	<time>2023-08-09T09:54:40.000Z</time>
</trkpt>
<trkpt lat="46.1761900" lon="10.4916820">
	<ele>2501.40</ele>
	<time>2023-08-09T09:54:41.000Z</time>
</trkpt>
<trkpt lat="46.1761970" lon="10.4916840">
	<ele>2501.20</ele>
	<time>2023-08-09T09:54:42.000Z</time>
</trkpt>
<trkpt lat="46.1762010" lon="10.4916860">
	<ele>2501.00</ele>
	<time>2023-08-09T09:54:43.000Z</time>
</trkpt>
<trkpt lat="46.1762060" lon="10.4916870">
	<ele>2500.80</ele>
	<time>2023-08-09T09:54:44.000Z</time>
</trkpt>
<trkpt lat="46.1762150" lon="10.4916880">
	<ele>2500.60</ele>
	<time>2023-08-09T09:54:45.000Z</time>
</trkpt>
<trkpt lat="46.1762220" lon="10.4916890">
	<ele>2500.40</ele>
	<time>2023-08-09T09:54:46.000Z</time>
</trkpt>
<trkpt lat="46.1762260" lon="10.4916920">
	<ele>2500.20</ele>
	<time>2023-08-09T09:54:47.000Z</time>
</trkpt>
<trkpt lat="46.1762280" lon="10.4916990">
	<ele>2500.00</ele>
	<time>2023-08-09T09:54:48.000Z</time>
</trkpt>
<trkpt lat="46.1762280" lon="10.4917040">
	<ele>2500.00</ele>
	<time>2023-08-09T09:54:49.000Z</time>
</trkpt>
<trkpt lat="46.1762300" lon="10.4917110">
	<ele>2499.60</ele>
	<time>2023-08-09T09:54:50.000Z</time>
</trkpt>
<trkpt lat="46.1762300" lon="10.4917180">
	<ele>2499.40</ele>
	<time>2023-08-09T09:54:51.000Z</time>
</trkpt>
<trkpt lat="46.1762330" lon="10.4917180">
	<ele>2499.20</ele>
	<time>2023-08-09T09:54:52.000Z</time>
</trkpt>
<trkpt lat="46.1762340" lon="10.4917170">
	<ele>2499.20</ele>
	<time>2023-08-09T09:54:53.000Z</time>
</trkpt>
<trkpt lat="46.1762350" lon="10.4917130">
	<ele>2499.00</ele>
	<time>2023-08-09T09:54:54.000Z</time>
</trkpt>
<trkpt lat="46.1762360" lon="10.4917090">
	<ele>2499.00</ele>
	<time>2023-08-09T09:54:55.000Z</time>
</trkpt>
<trkpt lat="46.1762390" lon="10.4917010">
	<ele>2499.00</ele>
	<time>2023-08-09T09:54:56.000Z</time>
</trkpt>
<trkpt lat="46.1762390" lon="10.4916940">
	<ele>2499.00</ele>
	<time>2023-08-09T09:54:57.000Z</time>
</trkpt>
<trkpt lat="46.1762450" lon="10.4916870">
	<ele>2499.00</ele>
	<time>2023-08-09T09:54:58.000Z</time>
</trkpt>
<trkpt lat="46.1762480" lon="10.4916780">
	<ele>2498.80</ele>
	<time>2023-08-09T09:54:59.000Z</time>
</trkpt>
<trkpt lat="46.1762510" lon="10.4916740">
	<ele>2498.40</ele>
	<time>2023-08-09T09:55:00.000Z</time>
</trkpt>
<trkpt lat="46.1762560" lon="10.4916720">
	<ele>2498.00</ele>
	<time>2023-08-09T09:55:01.000Z</time>
</trkpt>
<trkpt lat="46.1762600" lon="10.4916700">
	<ele>2497.80</ele>
	<time>2023-08-09T09:55:02.000Z</time>
</trkpt>
<trkpt lat="46.1762670" lon="10.4916660">
	<ele>2497.40</ele>
	<time>2023-08-09T09:55:03.000Z</time>
</trkpt>
<trkpt lat="46.1762740" lon="10.4916600">
	<ele>2497.40</ele>
	<time>2023-08-09T09:55:04.000Z</time>
</trkpt>
<trkpt lat="46.1762810" lon="10.4916520">
	<ele>2497.20</ele>
	<time>2023-08-09T09:55:05.000Z</time>
</trkpt>
<trkpt lat="46.1762840" lon="10.4916470">
	<ele>2497.20</ele>
	<time>2023-08-09T09:55:06.000Z</time>
</trkpt>
<trkpt lat="46.1762910" lon="10.4916420">
	<ele>2497.00</ele>
	<time>2023-08-09T09:55:07.000Z</time>
</trkpt>
<trkpt lat="46.1763000" lon="10.4916370">
	<ele>2496.40</ele>
	<time>2023-08-09T09:55:08.000Z</time>
</trkpt>
<trkpt lat="46.1763080" lon="10.4916320">
	<ele>2496.20</ele>
	<time>2023-08-09T09:55:09.000Z</time>
</trkpt>
<trkpt lat="46.1763180" lon="10.4916300">
	<ele>2496.00</ele>
	<time>2023-08-09T09:55:10.000Z</time>
</trkpt>
<trkpt lat="46.1763300" lon="10.4916270">
	<ele>2495.80</ele>
	<time>2023-08-09T09:55:11.000Z</time>
</trkpt>
<trkpt lat="46.1763420" lon="10.4916270">
	<ele>2495.60</ele>
	<time>2023-08-09T09:55:12.000Z</time>
</trkpt>
<trkpt lat="46.1763500" lon="10.4916260">
	<ele>2495.40</ele>
	<time>2023-08-09T09:55:13.000Z</time>
</trkpt>
<trkpt lat="46.1763580" lon="10.4916250">
	<ele>2495.40</ele>
	<time>2023-08-09T09:55:14.000Z</time>
</trkpt>
<trkpt lat="46.1763620" lon="10.4916200">
	<ele>2495.40</ele>
	<time>2023-08-09T09:55:15.000Z</time>
</trkpt>
<trkpt lat="46.1763680" lon="10.4916180">
	<ele>2495.20</ele>
	<time>2023-08-09T09:55:16.000Z</time>
</trkpt>
<trkpt lat="46.1763730" lon="10.4916200">
	<ele>2495.20</ele>
	<time>2023-08-09T09:55:17.000Z</time>
</trkpt>
<trkpt lat="46.1763820" lon="10.4916170">
	<ele>2495.20</ele>
	<time>2023-08-09T09:55:18.000Z</time>
</trkpt>
<trkpt lat="46.1763910" lon="10.4916150">
	<ele>2495.00</ele>
	<time>2023-08-09T09:55:19.000Z</time>
</trkpt>
<trkpt lat="46.1764000" lon="10.4916110">
	<ele>2495.00</ele>
	<time>2023-08-09T09:55:20.000Z</time>
</trkpt>
<trkpt lat="46.1764080" lon="10.4916080">
	<ele>2494.60</ele>
	<time>2023-08-09T09:55:21.000Z</time>
</trkpt>
<trkpt lat="46.1764180" lon="10.4916080">
	<ele>2494.40</ele>
	<time>2023-08-09T09:55:22.000Z</time>
</trkpt>
<trkpt lat="46.1764280" lon="10.4916090">
	<ele>2494.20</ele>
	<time>2023-08-09T09:55:23.000Z</time>
</trkpt>
<trkpt lat="46.1764400" lon="10.4916100">
	<ele>2494.00</ele>
	<time>2023-08-09T09:55:24.000Z</time>
</trkpt>
<trkpt lat="46.1764500" lon="10.4916090">
	<ele>2494.00</ele>
	<time>2023-08-09T09:55:25.000Z</time>
</trkpt>
<trkpt lat="46.1764560" lon="10.4916120">
	<ele>2494.00</ele>
	<time>2023-08-09T09:55:26.000Z</time>
</trkpt>
<trkpt lat="46.1764610" lon="10.4916150">
	<ele>2494.00</ele>
	<time>2023-08-09T09:55:27.000Z</time>
</trkpt>
<trkpt lat="46.1764680" lon="10.4916190">
	<ele>2494.00</ele>
	<time>2023-08-09T09:55:28.000Z</time>
</trkpt>
<trkpt lat="46.1764750" lon="10.4916240">
	<ele>2494.00</ele>
	<time>2023-08-09T09:55:29.000Z</time>
</trkpt>
<trkpt lat="46.1764850" lon="10.4916300">
	<ele>2494.00</ele>
	<time>2023-08-09T09:55:30.000Z</time>
</trkpt>
<trkpt lat="46.1764930" lon="10.4916320">
	<ele>2494.00</ele>
	<time>2023-08-09T09:55:31.000Z</time>
</trkpt>
<trkpt lat="46.1765000" lon="10.4916350">
	<ele>2493.80</ele>
	<time>2023-08-09T09:55:32.000Z</time>
</trkpt>
<trkpt lat="46.1765040" lon="10.4916400">
	<ele>2493.80</ele>
	<time>2023-08-09T09:55:33.000Z</time>
</trkpt>
<trkpt lat="46.1765090" lon="10.4916420">
	<ele>2493.60</ele>
	<time>2023-08-09T09:55:34.000Z</time>
</trkpt>
<trkpt lat="46.1765160" lon="10.4916430">
	<ele>2493.60</ele>
	<time>2023-08-09T09:55:35.000Z</time>
</trkpt>
<trkpt lat="46.1765230" lon="10.4916390">
	<ele>2493.40</ele>
	<time>2023-08-09T09:55:36.000Z</time>
</trkpt>
<trkpt lat="46.1765300" lon="10.4916310">
	<ele>2493.40</ele>
	<time>2023-08-09T09:55:37.000Z</time>
</trkpt>
<trkpt lat="46.1765370" lon="10.4916250">
	<ele>2493.40</ele>
	<time>2023-08-09T09:55:38.000Z</time>
</trkpt>
<trkpt lat="46.1765440" lon="10.4916240">
	<ele>2493.20</ele>
	<time>2023-08-09T09:55:39.000Z</time>
</trkpt>
<trkpt lat="46.1765500" lon="10.4916240">
	<ele>2493.20</ele>
	<time>2023-08-09T09:55:40.000Z</time>
</trkpt>
<trkpt lat="46.1765560" lon="10.4916270">
	<ele>2493.00</ele>
	<time>2023-08-09T09:55:41.000Z</time>
</trkpt>
<trkpt lat="46.1765620" lon="10.4916310">
	<ele>2493.00</ele>
	<time>2023-08-09T09:55:42.000Z</time>
</trkpt>
<trkpt lat="46.1765680" lon="10.4916340">
	<ele>2493.00</ele>
	<time>2023-08-09T09:55:43.000Z</time>
</trkpt>
<trkpt lat="46.1765720" lon="10.4916370">
	<ele>2493.00</ele>
	<time>2023-08-09T09:55:44.000Z</time>
</trkpt>
<trkpt lat="46.1765760" lon="10.4916360">
	<ele>2492.60</ele>
	<time>2023-08-09T09:55:45.000Z</time>
</trkpt>
<trkpt lat="46.1765820" lon="10.4916380">
	<ele>2492.40</ele>
	<time>2023-08-09T09:55:46.000Z</time>
</trkpt>
<trkpt lat="46.1765830" lon="10.4916470">
	<ele>2492.40</ele>
	<time>2023-08-09T09:55:47.000Z</time>
</trkpt>
<trkpt lat="46.1765770" lon="10.4916590">
	<ele>2492.20</ele>
	<time>2023-08-09T09:55:48.000Z</time>
</trkpt>
<trkpt lat="46.1765750" lon="10.4916640">
	<ele>2492.00</ele>
	<time>2023-08-09T09:55:49.000Z</time>
</trkpt>
<trkpt lat="46.1765770" lon="10.4916670">
	<ele>2492.00</ele>
	<time>2023-08-09T09:55:50.000Z</time>
</trkpt>
<trkpt lat="46.1765770" lon="10.4916680">
	<ele>2491.80</ele>
	<time>2023-08-09T09:55:51.000Z</time>
</trkpt>
<trkpt lat="46.1765770" lon="10.4916670">
	<ele>2491.80</ele>
	<time>2023-08-09T09:55:52.000Z</time>
</trkpt>
<trkpt lat="46.1765780" lon="10.4916680">
	<ele>2491.60</ele>
	<time>2023-08-09T09:55:53.000Z</time>
</trkpt>
<trkpt lat="46.1765800" lon="10.4916690">
	<ele>2491.60</ele>
	<time>2023-08-09T09:55:54.000Z</time>
</trkpt>
<trkpt lat="46.1765850" lon="10.4916700">
	<ele>2491.60</ele>
	<time>2023-08-09T09:55:55.000Z</time>
</trkpt>
<trkpt lat="46.1765920" lon="10.4916660">
	<ele>2491.40</ele>
	<time>2023-08-09T09:55:56.000Z</time>
</trkpt>
<trkpt lat="46.1765970" lon="10.4916620">
	<ele>2491.40</ele>
	<time>2023-08-09T09:55:57.000Z</time>
</trkpt>
<trkpt lat="46.1766020" lon="10.4916550">
	<ele>2491.40</ele>
	<time>2023-08-09T09:55:58.000Z</time>
</trkpt>
<trkpt lat="46.1766060" lon="10.4916520">
	<ele>2491.20</ele>
	<time>2023-08-09T09:55:59.000Z</time>
</trkpt>
<trkpt lat="46.1766090" lon="10.4916480">
	<ele>2491.00</ele>
	<time>2023-08-09T09:56:00.000Z</time>
</trkpt>
<trkpt lat="46.1766160" lon="10.4916420">
	<ele>2490.80</ele>
	<time>2023-08-09T09:56:01.000Z</time>
</trkpt>
<trkpt lat="46.1766250" lon="10.4916360">
	<ele>2490.80</ele>
	<time>2023-08-09T09:56:02.000Z</time>
</trkpt>
<trkpt lat="46.1766310" lon="10.4916320">
	<ele>2490.80</ele>
	<time>2023-08-09T09:56:03.000Z</time>
</trkpt>
<trkpt lat="46.1766360" lon="10.4916330">
	<ele>2490.60</ele>
	<time>2023-08-09T09:56:04.000Z</time>
</trkpt>
<trkpt lat="46.1766400" lon="10.4916320">
	<ele>2490.60</ele>
	<time>2023-08-09T09:56:05.000Z</time>
</trkpt>
<trkpt lat="46.1766460" lon="10.4916320">
	<ele>2490.40</ele>
	<time>2023-08-09T09:56:06.000Z</time>
</trkpt>
<trkpt lat="46.1766560" lon="10.4916320">
	<ele>2490.40</ele>
	<time>2023-08-09T09:56:07.000Z</time>
</trkpt>
<trkpt lat="46.1766640" lon="10.4916370">
	<ele>2490.20</ele>
	<time>2023-08-09T09:56:08.000Z</time>
</trkpt>
<trkpt lat="46.1766720" lon="10.4916400">
	<ele>2490.20</ele>
	<time>2023-08-09T09:56:09.000Z</time>
</trkpt>
<trkpt lat="46.1766760" lon="10.4916440">
	<ele>2490.20</ele>
	<time>2023-08-09T09:56:10.000Z</time>
</trkpt>
<trkpt lat="46.1766830" lon="10.4916470">
	<ele>2490.00</ele>
	<time>2023-08-09T09:56:11.000Z</time>
</trkpt>
<trkpt lat="46.1766860" lon="10.4916470">
	<ele>2489.80</ele>
	<time>2023-08-09T09:56:12.000Z</time>
</trkpt>
<trkpt lat="46.1766880" lon="10.4916450">
	<ele>2489.40</ele>
	<time>2023-08-09T09:56:13.000Z</time>
</trkpt>
<trkpt lat="46.1766940" lon="10.4916360">
	<ele>2489.20</ele>
	<time>2023-08-09T09:56:14.000Z</time>
</trkpt>
<trkpt lat="46.1767020" lon="10.4916260">
	<ele>2489.20</ele>
	<time>2023-08-09T09:56:15.000Z</time>
</trkpt>
<trkpt lat="46.1767100" lon="10.4916210">
	<ele>2488.80</ele>
	<time>2023-08-09T09:56:16.000Z</time>
</trkpt>
<trkpt lat="46.1767160" lon="10.4916190">
	<ele>2488.80</ele>
	<time>2023-08-09T09:56:17.000Z</time>
</trkpt>
<trkpt lat="46.1767270" lon="10.4916190">
	<ele>2488.60</ele>
	<time>2023-08-09T09:56:18.000Z</time>
</trkpt>
<trkpt lat="46.1767370" lon="10.4916160">
	<ele>2488.40</ele>
	<time>2023-08-09T09:56:19.000Z</time>
</trkpt>
<trkpt lat="46.1767510" lon="10.4916150">
	<ele>2488.00</ele>
	<time>2023-08-09T09:56:20.000Z</time>
</trkpt>
<trkpt lat="46.1767610" lon="10.4916190">
	<ele>2488.00</ele>
	<time>2023-08-09T09:56:21.000Z</time>
</trkpt>
<trkpt lat="46.1767700" lon="10.4916230">
	<ele>2487.80</ele>
	<time>2023-08-09T09:56:22.000Z</time>
</trkpt>
<trkpt lat="46.1767780" lon="10.4916270">
	<ele>2487.80</ele>
	<time>2023-08-09T09:56:23.000Z</time>
</trkpt>
<trkpt lat="46.1767860" lon="10.4916270">
	<ele>2487.60</ele>
	<time>2023-08-09T09:56:24.000Z</time>
</trkpt>
<trkpt lat="46.1767970" lon="10.4916240">
	<ele>2487.40</ele>
	<time>2023-08-09T09:56:25.000Z</time>
</trkpt>
<trkpt lat="46.1768070" lon="10.4916240">
	<ele>2487.40</ele>
	<time>2023-08-09T09:56:26.000Z</time>
</trkpt>
<trkpt lat="46.1768150" lon="10.4916260">
	<ele>2487.40</ele>
	<time>2023-08-09T09:56:27.000Z</time>
</trkpt>
<trkpt lat="46.1768250" lon="10.4916290">
	<ele>2487.40</ele>
	<time>2023-08-09T09:56:28.000Z</time>
</trkpt>
<trkpt lat="46.1768330" lon="10.4916290">
	<ele>2487.60</ele>
	<time>2023-08-09T09:56:29.000Z</time>
</trkpt>
<trkpt lat="46.1768410" lon="10.4916260">
	<ele>2487.80</ele>
	<time>2023-08-09T09:56:30.000Z</time>
</trkpt>
<trkpt lat="46.1768480" lon="10.4916220">
	<ele>2487.80</ele>
	<time>2023-08-09T09:56:31.000Z</time>
</trkpt>
<trkpt lat="46.1768560" lon="10.4916170">
	<ele>2487.80</ele>
	<time>2023-08-09T09:56:32.000Z</time>
</trkpt>
<trkpt lat="46.1768630" lon="10.4916120">
	<ele>2487.80</ele>
	<time>2023-08-09T09:56:33.000Z</time>
</trkpt>
<trkpt lat="46.1768690" lon="10.4916100">
	<ele>2487.60</ele>
	<time>2023-08-09T09:56:34.000Z</time>
</trkpt>
<trkpt lat="46.1768740" lon="10.4916110">
	<ele>2487.60</ele>
	<time>2023-08-09T09:56:35.000Z</time>
</trkpt>
<trkpt lat="46.1768760" lon="10.4916150">
	<ele>2487.60</ele>
	<time>2023-08-09T09:56:36.000Z</time>
</trkpt>
<trkpt lat="46.1768730" lon="10.4916200">
	<ele>2487.60</ele>
	<time>2023-08-09T09:56:37.000Z</time>
</trkpt>
<trkpt lat="46.1768720" lon="10.4916270">
	<ele>2487.60</ele>
	<time>2023-08-09T09:56:38.000Z</time>
</trkpt>
<trkpt lat="46.1768690" lon="10.4916320">
	<ele>2487.60</ele>
	<time>2023-08-09T09:56:39.000Z</time>
</trkpt>
<trkpt lat="46.1768680" lon="10.4916360">
	<ele>2487.60</ele>
	<time>2023-08-09T09:56:40.000Z</time>
</trkpt>
<trkpt lat="46.1768690" lon="10.4916370">
	<ele>2488.00</ele>
	<time>2023-08-09T09:56:41.000Z</time>
</trkpt>
<trkpt lat="46.1768700" lon="10.4916380">
	<ele>2488.20</ele>
	<time>2023-08-09T09:56:42.000Z</time>
</trkpt>
<trkpt lat="46.1768700" lon="10.4916370">
	<ele>2488.40</ele>
	<time>2023-08-09T09:56:43.000Z</time>
</trkpt>
<trkpt lat="46.1768710" lon="10.4916370">
	<ele>2488.60</ele>
	<time>2023-08-09T09:56:44.000Z</time>
</trkpt>
<trkpt lat="46.1768710" lon="10.4916370">
	<ele>2488.60</ele>
	<time>2023-08-09T09:56:45.000Z</time>
</trkpt>
<trkpt lat="46.1768710" lon="10.4916370">
	<ele>2488.60</ele>
	<time>2023-08-09T09:56:46.000Z</time>
</trkpt>
<trkpt lat="46.1768710" lon="10.4916370">
	<ele>2488.60</ele>
	<time>2023-08-09T09:56:47.000Z</time>
</trkpt>
<trkpt lat="46.1768710" lon="10.4916370">
	<ele>2488.20</ele>
	<time>2023-08-09T09:56:48.000Z</time>
</trkpt>
<trkpt lat="46.1768710" lon="10.4916370">
	<ele>2488.20</ele>
	<time>2023-08-09T09:56:49.000Z</time>
</trkpt>
<trkpt lat="46.1768710" lon="10.4916370">
	<ele>2488.00</ele>
	<time>2023-08-09T09:56:50.000Z</time>
</trkpt>
<trkpt lat="46.1768710" lon="10.4916370">
	<ele>2488.00</ele>
	<time>2023-08-09T09:56:51.000Z</time>
</trkpt>
<trkpt lat="46.1768710" lon="10.4916370">
	<ele>2487.80</ele>
	<time>2023-08-09T09:56:52.000Z</time>
</trkpt>
<trkpt lat="46.1768710" lon="10.4916370">
	<ele>2487.60</ele>
	<time>2023-08-09T09:56:53.000Z</time>
</trkpt>
<trkpt lat="46.1768710" lon="10.4916370">
	<ele>2487.60</ele>
	<time>2023-08-09T09:56:54.000Z</time>
</trkpt>
<trkpt lat="46.1768710" lon="10.4916370">
	<ele>2487.40</ele>
	<time>2023-08-09T09:56:55.000Z</time>
</trkpt>
<trkpt lat="46.1768710" lon="10.4916360">
	<ele>2487.40</ele>
	<time>2023-08-09T09:56:56.000Z</time>
</trkpt>
<trkpt lat="46.1768700" lon="10.4916360">
	<ele>2487.40</ele>
	<time>2023-08-09T09:56:57.000Z</time>
</trkpt>
<trkpt lat="46.1768700" lon="10.4916360">
	<ele>2487.40</ele>
	<time>2023-08-09T09:56:58.000Z</time>
</trkpt>
<trkpt lat="46.1768700" lon="10.4916360">
	<ele>2487.40</ele>
	<time>2023-08-09T09:56:59.000Z</time>
</trkpt>
<trkpt lat="46.1768700" lon="10.4916360">
	<ele>2487.40</ele>
	<time>2023-08-09T09:57:00.000Z</time>
</trkpt>
<trkpt lat="46.1768700" lon="10.4916360">
	<ele>2487.60</ele>
	<time>2023-08-09T09:57:01.000Z</time>
</trkpt>
<trkpt lat="46.1768700" lon="10.4916360">
	<ele>2487.60</ele>
	<time>2023-08-09T09:57:02.000Z</time>
</trkpt>
<trkpt lat="46.1768690" lon="10.4916360">
	<ele>2487.80</ele>
	<time>2023-08-09T09:57:03.000Z</time>
</trkpt>
<trkpt lat="46.1768690" lon="10.4916360">
	<ele>2487.80</ele>
	<time>2023-08-09T09:57:04.000Z</time>
</trkpt>
<trkpt lat="46.1768690" lon="10.4916360">
	<ele>2488.00</ele>
	<time>2023-08-09T09:57:05.000Z</time>
</trkpt>
<trkpt lat="46.1768690" lon="10.4916360">
	<ele>2488.00</ele>
	<time>2023-08-09T09:57:06.000Z</time>
</trkpt>
<trkpt lat="46.1768690" lon="10.4916370">
	<ele>2488.00</ele>
	<time>2023-08-09T09:57:07.000Z</time>
</trkpt>
<trkpt lat="46.1768680" lon="10.4916370">
	<ele>2488.00</ele>
	<time>2023-08-09T09:57:08.000Z</time>
</trkpt>
<trkpt lat="46.1768680" lon="10.4916370">
	<ele>2488.00</ele>
	<time>2023-08-09T09:57:09.000Z</time>
</trkpt>
<trkpt lat="46.1768680" lon="10.4916370">
	<ele>2487.80</ele>
	<time>2023-08-09T09:57:10.000Z</time>
</trkpt>
<trkpt lat="46.1768680" lon="10.4916380">
	<ele>2487.80</ele>
	<time>2023-08-09T09:57:11.000Z</time>
</trkpt>
<trkpt lat="46.1768680" lon="10.4916410">
	<ele>2487.80</ele>
	<time>2023-08-09T09:57:12.000Z</time>
</trkpt>
<trkpt lat="46.1768680" lon="10.4916440">
	<ele>2487.60</ele>
	<time>2023-08-09T09:57:13.000Z</time>
</trkpt>
<trkpt lat="46.1768680" lon="10.4916470">
	<ele>2487.60</ele>
	<time>2023-08-09T09:57:14.000Z</time>
</trkpt>
<trkpt lat="46.1768680" lon="10.4916490">
	<ele>2487.60</ele>
	<time>2023-08-09T09:57:15.000Z</time>
</trkpt>
<trkpt lat="46.1768680" lon="10.4916500">
	<ele>2487.60</ele>
	<time>2023-08-09T09:57:16.000Z</time>
</trkpt>
<trkpt lat="46.1768680" lon="10.4916500">
	<ele>2487.60</ele>
	<time>2023-08-09T09:57:17.000Z</time>
</trkpt>
<trkpt lat="46.1768680" lon="10.4916510">
	<ele>2487.40</ele>
	<time>2023-08-09T09:57:18.000Z</time>
</trkpt>
<trkpt lat="46.1768690" lon="10.4916520">
	<ele>2487.40</ele>
	<time>2023-08-09T09:57:19.000Z</time>
</trkpt>
<trkpt lat="46.1768690" lon="10.4916520">
	<ele>2487.40</ele>
	<time>2023-08-09T09:57:20.000Z</time>
</trkpt>
<trkpt lat="46.1768690" lon="10.4916520">
	<ele>2487.40</ele>
	<time>2023-08-09T09:57:21.000Z</time>
</trkpt>
<trkpt lat="46.1768690" lon="10.4916520">
	<ele>2487.40</ele>
	<time>2023-08-09T09:57:22.000Z</time>
</trkpt>
<trkpt lat="46.1768690" lon="10.4916520">
	<ele>2487.40</ele>
	<time>2023-08-09T09:57:23.000Z</time>
</trkpt>
<trkpt lat="46.1768690" lon="10.4916520">
	<ele>2487.40</ele>
	<time>2023-08-09T09:57:24.000Z</time>
</trkpt>
<trkpt lat="46.1768690" lon="10.4916520">
	<ele>2487.40</ele>
	<time>2023-08-09T09:57:25.000Z</time>
</trkpt>
<trkpt lat="46.1768690" lon="10.4916520">
	<ele>2487.40</ele>
	<time>2023-08-09T09:57:26.000Z</time>
</trkpt>
<trkpt lat="46.1768690" lon="10.4916520">
	<ele>2487.40</ele>
	<time>2023-08-09T09:57:27.000Z</time>
</trkpt>
<trkpt lat="46.1768690" lon="10.4916520">
	<ele>2487.40</ele>
	<time>2023-08-09T09:57:28.000Z</time>
</trkpt>
<trkpt lat="46.1768680" lon="10.4916520">
	<ele>2487.40</ele>
	<time>2023-08-09T09:57:29.000Z</time>
</trkpt>
<trkpt lat="46.1768680" lon="10.4916520">
	<ele>2487.40</ele>
	<time>2023-08-09T09:57:30.000Z</time>
</trkpt>
<trkpt lat="46.1768680" lon="10.4916520">
	<ele>2487.40</ele>
	<time>2023-08-09T09:57:31.000Z</time>
</trkpt>
<trkpt lat="46.1768680" lon="10.4916510">
	<ele>2487.40</ele>
	<time>2023-08-09T09:57:32.000Z</time>
</trkpt>
<trkpt lat="46.1768680" lon="10.4916510">
	<ele>2487.40</ele>
	<time>2023-08-09T09:57:33.000Z</time>
</trkpt>
<trkpt lat="46.1768680" lon="10.4916510">
	<ele>2487.60</ele>
	<time>2023-08-09T09:57:34.000Z</time>
</trkpt>
<trkpt lat="46.1768680" lon="10.4916510">
	<ele>2487.60</ele>
	<time>2023-08-09T09:57:35.000Z</time>
</trkpt>
<trkpt lat="46.1768680" lon="10.4916510">
	<ele>2487.60</ele>
	<time>2023-08-09T09:57:36.000Z</time>
</trkpt>
<trkpt lat="46.1768700" lon="10.4916570">
	<ele>2487.80</ele>
	<time>2023-08-09T09:57:37.000Z</time>
</trkpt>
<trkpt lat="46.1768800" lon="10.4916700">
	<ele>2487.80</ele>
	<time>2023-08-09T09:57:38.000Z</time>
</trkpt>
<trkpt lat="46.1768890" lon="10.4916800">
	<ele>2487.80</ele>
	<time>2023-08-09T09:57:39.000Z</time>
</trkpt>
<trkpt lat="46.1768950" lon="10.4916860">
	<ele>2487.80</ele>
	<time>2023-08-09T09:57:40.000Z</time>
</trkpt>
<trkpt lat="46.1768980" lon="10.4916920">
	<ele>2488.00</ele>
	<time>2023-08-09T09:57:41.000Z</time>
</trkpt>
<trkpt lat="46.1769010" lon="10.4916970">
	<ele>2487.80</ele>
	<time>2023-08-09T09:57:42.000Z</time>
</trkpt>
<trkpt lat="46.1769030" lon="10.4917020">
	<ele>2487.80</ele>
	<time>2023-08-09T09:57:43.000Z</time>
</trkpt>
<trkpt lat="46.1769060" lon="10.4917060">
	<ele>2487.80</ele>
	<time>2023-08-09T09:57:44.000Z</time>
</trkpt>
<trkpt lat="46.1769090" lon="10.4917110">
	<ele>2487.80</ele>
	<time>2023-08-09T09:57:45.000Z</time>
</trkpt>
<trkpt lat="46.1769160" lon="10.4917280">
	<ele>2487.80</ele>
	<time>2023-08-09T09:57:46.000Z</time>
</trkpt>
<trkpt lat="46.1769180" lon="10.4917310">
	<ele>2487.80</ele>
	<time>2023-08-09T09:57:47.000Z</time>
</trkpt>
<trkpt lat="46.1769190" lon="10.4917330">
	<ele>2488.20</ele>
	<time>2023-08-09T09:57:48.000Z</time>
</trkpt>
<trkpt lat="46.1769190" lon="10.4917340">
	<ele>2488.40</ele>
	<time>2023-08-09T09:57:49.000Z</time>
</trkpt>
<trkpt lat="46.1769190" lon="10.4917340">
	<ele>2488.60</ele>
	<time>2023-08-09T09:57:50.000Z</time>
</trkpt>
<trkpt lat="46.1769180" lon="10.4917340">
	<ele>2488.60</ele>
	<time>2023-08-09T09:57:51.000Z</time>
</trkpt>
<trkpt lat="46.1769180" lon="10.4917340">
	<ele>2488.60</ele>
	<time>2023-08-09T09:57:52.000Z</time>
</trkpt>
<trkpt lat="46.1769180" lon="10.4917340">
	<ele>2488.60</ele>
	<time>2023-08-09T09:57:53.000Z</time>
</trkpt>
<trkpt lat="46.1769180" lon="10.4917340">
	<ele>2488.80</ele>
	<time>2023-08-09T09:57:54.000Z</time>
</trkpt>
<trkpt lat="46.1769180" lon="10.4917340">
	<ele>2488.80</ele>
	<time>2023-08-09T09:57:55.000Z</time>
</trkpt>
<trkpt lat="46.1769180" lon="10.4917340">
	<ele>2488.80</ele>
	<time>2023-08-09T09:57:56.000Z</time>
</trkpt>
<trkpt lat="46.1769180" lon="10.4917340">
	<ele>2488.80</ele>
	<time>2023-08-09T09:57:57.000Z</time>
</trkpt>
<trkpt lat="46.1769180" lon="10.4917340">
	<ele>2488.80</ele>
	<time>2023-08-09T09:57:58.000Z</time>
</trkpt>
<trkpt lat="46.1769180" lon="10.4917340">
	<ele>2488.80</ele>
	<time>2023-08-09T09:57:59.000Z</time>
</trkpt>
<trkpt lat="46.1769180" lon="10.4917340">
	<ele>2488.80</ele>
	<time>2023-08-09T09:58:00.000Z</time>
</trkpt>
<trkpt lat="46.1769180" lon="10.4917340">
	<ele>2488.80</ele>
	<time>2023-08-09T09:58:01.000Z</time>
</trkpt>
<trkpt lat="46.1769180" lon="10.4917340">
	<ele>2488.60</ele>
	<time>2023-08-09T09:58:02.000Z</time>
</trkpt>
<trkpt lat="46.1769180" lon="10.4917340">
	<ele>2488.40</ele>
	<time>2023-08-09T09:58:03.000Z</time>
</trkpt>
<trkpt lat="46.1769180" lon="10.4917340">
	<ele>2488.20</ele>
	<time>2023-08-09T09:58:04.000Z</time>
</trkpt>
<trkpt lat="46.1769180" lon="10.4917340">
	<ele>2488.20</ele>
	<time>2023-08-09T09:58:05.000Z</time>
</trkpt>
<trkpt lat="46.1769180" lon="10.4917340">
	<ele>2488.20</ele>
	<time>2023-08-09T09:58:06.000Z</time>
</trkpt>
<trkpt lat="46.1769180" lon="10.4917340">
	<ele>2488.20</ele>
	<time>2023-08-09T09:58:07.000Z</time>
</trkpt>
<trkpt lat="46.1769190" lon="10.4917330">
	<ele>2488.00</ele>
	<time>2023-08-09T09:58:08.000Z</time>
</trkpt>
<trkpt lat="46.1769190" lon="10.4917320">
	<ele>2487.80</ele>
	<time>2023-08-09T09:58:09.000Z</time>
</trkpt>
<trkpt lat="46.1769190" lon="10.4917300">
	<ele>2487.60</ele>
	<time>2023-08-09T09:58:10.000Z</time>
</trkpt>
<trkpt lat="46.1769190" lon="10.4917280">
	<ele>2487.60</ele>
	<time>2023-08-09T09:58:11.000Z</time>
</trkpt>
<trkpt lat="46.1769190" lon="10.4917270">
	<ele>2487.20</ele>
	<time>2023-08-09T09:58:12.000Z</time>
</trkpt>
<trkpt lat="46.1769200" lon="10.4917260">
	<ele>2486.80</ele>
	<time>2023-08-09T09:58:13.000Z</time>
</trkpt>
<trkpt lat="46.1769200" lon="10.4917260">
	<ele>2486.60</ele>
	<time>2023-08-09T09:58:14.000Z</time>
</trkpt>
<trkpt lat="46.1769200" lon="10.4917260">
	<ele>2486.40</ele>
	<time>2023-08-09T09:58:15.000Z</time>
</trkpt>
<trkpt lat="46.1769200" lon="10.4917220">
	<ele>2486.40</ele>
	<time>2023-08-09T09:58:16.000Z</time>
</trkpt>
<trkpt lat="46.1769210" lon="10.4917170">
	<ele>2486.60</ele>
	<time>2023-08-09T09:58:17.000Z</time>
</trkpt>
<trkpt lat="46.1769250" lon="10.4917060">
	<ele>2486.60</ele>
	<time>2023-08-09T09:58:18.000Z</time>
</trkpt>
<trkpt lat="46.1769380" lon="10.4916870">
	<ele>2486.60</ele>
	<time>2023-08-09T09:58:19.000Z</time>
</trkpt>
<trkpt lat="46.1769500" lon="10.4916730">
	<ele>2486.60</ele>
	<time>2023-08-09T09:58:20.000Z</time>
</trkpt>
<trkpt lat="46.1769640" lon="10.4916620">
	<ele>2486.60</ele>
	<time>2023-08-09T09:58:21.000Z</time>
</trkpt>
<trkpt lat="46.1769800" lon="10.4916530">
	<ele>2486.60</ele>
	<time>2023-08-09T09:58:22.000Z</time>
</trkpt>
<trkpt lat="46.1769990" lon="10.4916380">
	<ele>2486.60</ele>
	<time>2023-08-09T09:58:23.000Z</time>
</trkpt>
<trkpt lat="46.1770140" lon="10.4916220">
	<ele>2486.80</ele>
	<time>2023-08-09T09:58:24.000Z</time>
</trkpt>
<trkpt lat="46.1770280" lon="10.4916090">
	<ele>2486.80</ele>
	<time>2023-08-09T09:58:25.000Z</time>
</trkpt>
<trkpt lat="46.1770410" lon="10.4915970">
	<ele>2486.80</ele>
	<time>2023-08-09T09:58:26.000Z</time>
</trkpt>
<trkpt lat="46.1770560" lon="10.4915860">
	<ele>2486.80</ele>
	<time>2023-08-09T09:58:27.000Z</time>
</trkpt>
<trkpt lat="46.1770640" lon="10.4915880">
	<ele>2486.80</ele>
	<time>2023-08-09T09:58:28.000Z</time>
</trkpt>
<trkpt lat="46.1770720" lon="10.4915840">
	<ele>2487.00</ele>
	<time>2023-08-09T09:58:29.000Z</time>
</trkpt>
<trkpt lat="46.1770800" lon="10.4915780">
	<ele>2487.00</ele>
	<time>2023-08-09T09:58:30.000Z</time>
</trkpt>
<trkpt lat="46.1770890" lon="10.4915730">
	<ele>2487.00</ele>
	<time>2023-08-09T09:58:31.000Z</time>
</trkpt>
<trkpt lat="46.1770990" lon="10.4915720">
	<ele>2487.00</ele>
	<time>2023-08-09T09:58:32.000Z</time>
</trkpt>
<trkpt lat="46.1771050" lon="10.4915800">
	<ele>2487.00</ele>
	<time>2023-08-09T09:58:33.000Z</time>
</trkpt>
<trkpt lat="46.1771120" lon="10.4915840">
	<ele>2487.00</ele>
	<time>2023-08-09T09:58:34.000Z</time>
</trkpt>
<trkpt lat="46.1771210" lon="10.4915870">
	<ele>2487.00</ele>
	<time>2023-08-09T09:58:35.000Z</time>
</trkpt>
<trkpt lat="46.1771310" lon="10.4915880">
	<ele>2487.00</ele>
	<time>2023-08-09T09:58:36.000Z</time>
</trkpt>
<trkpt lat="46.1771370" lon="10.4915900">
	<ele>2487.00</ele>
	<time>2023-08-09T09:58:37.000Z</time>
</trkpt>
<trkpt lat="46.1771460" lon="10.4915910">
	<ele>2487.00</ele>
	<time>2023-08-09T09:58:38.000Z</time>
</trkpt>
<trkpt lat="46.1771560" lon="10.4915910">
	<ele>2486.80</ele>
	<time>2023-08-09T09:58:39.000Z</time>
</trkpt>
<trkpt lat="46.1771670" lon="10.4915930">
	<ele>2486.80</ele>
	<time>2023-08-09T09:58:40.000Z</time>
</trkpt>
<trkpt lat="46.1771780" lon="10.4915950">
	<ele>2486.80</ele>
	<time>2023-08-09T09:58:41.000Z</time>
</trkpt>
<trkpt lat="46.1771860" lon="10.4915980">
	<ele>2486.60</ele>
	<time>2023-08-09T09:58:42.000Z</time>
</trkpt>
<trkpt lat="46.1771950" lon="10.4915980">
	<ele>2486.60</ele>
	<time>2023-08-09T09:58:43.000Z</time>
</trkpt>
<trkpt lat="46.1772070" lon="10.4915950">
	<ele>2486.60</ele>
	<time>2023-08-09T09:58:44.000Z</time>
</trkpt>
<trkpt lat="46.1772180" lon="10.4915950">
	<ele>2486.60</ele>
	<time>2023-08-09T09:58:45.000Z</time>
</trkpt>
<trkpt lat="46.1772280" lon="10.4915920">
	<ele>2486.60</ele>
	<time>2023-08-09T09:58:46.000Z</time>
</trkpt>
<trkpt lat="46.1772370" lon="10.4915890">
	<ele>2486.60</ele>
	<time>2023-08-09T09:58:47.000Z</time>
</trkpt>
<trkpt lat="46.1772470" lon="10.4915850">
	<ele>2486.60</ele>
	<time>2023-08-09T09:58:48.000Z</time>
</trkpt>
<trkpt lat="46.1772560" lon="10.4915790">
	<ele>2486.60</ele>
	<time>2023-08-09T09:58:49.000Z</time>
</trkpt>
<trkpt lat="46.1772640" lon="10.4915760">
	<ele>2486.80</ele>
	<time>2023-08-09T09:58:50.000Z</time>
</trkpt>
<trkpt lat="46.1772710" lon="10.4915740">
	<ele>2487.00</ele>
	<time>2023-08-09T09:58:51.000Z</time>
</trkpt>
<trkpt lat="46.1772770" lon="10.4915700">
	<ele>2487.00</ele>
	<time>2023-08-09T09:58:52.000Z</time>
</trkpt>
<trkpt lat="46.1772870" lon="10.4915650">
	<ele>2487.00</ele>
	<time>2023-08-09T09:58:53.000Z</time>
</trkpt>
<trkpt lat="46.1772980" lon="10.4915560">
	<ele>2487.00</ele>
	<time>2023-08-09T09:58:54.000Z</time>
</trkpt>
<trkpt lat="46.1773040" lon="10.4915470">
	<ele>2487.00</ele>
	<time>2023-08-09T09:58:55.000Z</time>
</trkpt>
<trkpt lat="46.1773120" lon="10.4915340">
	<ele>2487.00</ele>
	<time>2023-08-09T09:58:56.000Z</time>
</trkpt>
<trkpt lat="46.1773230" lon="10.4915200">
	<ele>2487.00</ele>
	<time>2023-08-09T09:58:57.000Z</time>
</trkpt>
<trkpt lat="46.1773340" lon="10.4915130">
	<ele>2486.80</ele>
	<time>2023-08-09T09:58:58.000Z</time>
</trkpt>
<trkpt lat="46.1773470" lon="10.4915100">
	<ele>2486.80</ele>
	<time>2023-08-09T09:58:59.000Z</time>
</trkpt>
<trkpt lat="46.1773550" lon="10.4915060">
	<ele>2486.80</ele>
	<time>2023-08-09T09:59:00.000Z</time>
</trkpt>
<trkpt lat="46.1773620" lon="10.4915040">
	<ele>2486.80</ele>
	<time>2023-08-09T09:59:01.000Z</time>
</trkpt>
<trkpt lat="46.1773730" lon="10.4915030">
	<ele>2486.80</ele>
	<time>2023-08-09T09:59:02.000Z</time>
</trkpt>
<trkpt lat="46.1774000" lon="10.4915250">
	<ele>2486.80</ele>
	<time>2023-08-09T09:59:03.000Z</time>
</trkpt>
<trkpt lat="46.1774050" lon="10.4915270">
	<ele>2486.80</ele>
	<time>2023-08-09T09:59:04.000Z</time>
</trkpt>
<trkpt lat="46.1774090" lon="10.4915140">
	<ele>2486.80</ele>
	<time>2023-08-09T09:59:05.000Z</time>
</trkpt>
<trkpt lat="46.1774090" lon="10.4915140">
	<ele>2486.80</ele>
	<time>2023-08-09T09:59:06.000Z</time>
</trkpt>
<trkpt lat="46.1774140" lon="10.4915040">
	<ele>2486.80</ele>
	<time>2023-08-09T09:59:07.000Z</time>
</trkpt>
<trkpt lat="46.1774260" lon="10.4915110">
	<ele>2486.80</ele>
	<time>2023-08-09T09:59:08.000Z</time>
</trkpt>
<trkpt lat="46.1774390" lon="10.4915130">
	<ele>2486.80</ele>
	<time>2023-08-09T09:59:09.000Z</time>
</trkpt>
<trkpt lat="46.1774470" lon="10.4915120">
	<ele>2486.80</ele>
	<time>2023-08-09T09:59:10.000Z</time>
</trkpt>
<trkpt lat="46.1774560" lon="10.4915070">
	<ele>2486.60</ele>
	<time>2023-08-09T09:59:11.000Z</time>
</trkpt>
<trkpt lat="46.1774680" lon="10.4915030">
	<ele>2486.60</ele>
	<time>2023-08-09T09:59:12.000Z</time>
</trkpt>
<trkpt lat="46.1774800" lon="10.4914980">
	<ele>2486.60</ele>
	<time>2023-08-09T09:59:13.000Z</time>
</trkpt>
<trkpt lat="46.1774910" lon="10.4914930">
	<ele>2486.60</ele>
	<time>2023-08-09T09:59:14.000Z</time>
</trkpt>
<trkpt lat="46.1775030" lon="10.4914950">
	<ele>2486.60</ele>
	<time>2023-08-09T09:59:15.000Z</time>
</trkpt>
<trkpt lat="46.1775140" lon="10.4914890">
	<ele>2486.60</ele>
	<time>2023-08-09T09:59:16.000Z</time>
</trkpt>
<trkpt lat="46.1775250" lon="10.4914850">
	<ele>2486.80</ele>
	<time>2023-08-09T09:59:17.000Z</time>
</trkpt>
<trkpt lat="46.1775330" lon="10.4914780">
	<ele>2486.80</ele>
	<time>2023-08-09T09:59:18.000Z</time>
</trkpt>
<trkpt lat="46.1775420" lon="10.4914780">
	<ele>2486.80</ele>
	<time>2023-08-09T09:59:19.000Z</time>
</trkpt>
<trkpt lat="46.1775520" lon="10.4914760">
	<ele>2486.80</ele>
	<time>2023-08-09T09:59:20.000Z</time>
</trkpt>
<trkpt lat="46.1775660" lon="10.4914680">
	<ele>2486.80</ele>
	<time>2023-08-09T09:59:21.000Z</time>
</trkpt>
<trkpt lat="46.1775750" lon="10.4914600">
	<ele>2486.80</ele>
	<time>2023-08-09T09:59:22.000Z</time>
</trkpt>
<trkpt lat="46.1775850" lon="10.4914570">
	<ele>2486.80</ele>
	<time>2023-08-09T09:59:23.000Z</time>
</trkpt>
<trkpt lat="46.1775950" lon="10.4914550">
	<ele>2486.80</ele>
	<time>2023-08-09T09:59:24.000Z</time>
</trkpt>
<trkpt lat="46.1776050" lon="10.4914500">
	<ele>2486.80</ele>
	<time>2023-08-09T09:59:25.000Z</time>
</trkpt>
<trkpt lat="46.1776160" lon="10.4914430">
	<ele>2486.80</ele>
	<time>2023-08-09T09:59:26.000Z</time>
</trkpt>
<trkpt lat="46.1776270" lon="10.4914410">
	<ele>2486.80</ele>
	<time>2023-08-09T09:59:27.000Z</time>
</trkpt>
<trkpt lat="46.1776380" lon="10.4914400">
	<ele>2486.80</ele>
	<time>2023-08-09T09:59:28.000Z</time>
</trkpt>
<trkpt lat="46.1776480" lon="10.4914440">
	<ele>2486.80</ele>
	<time>2023-08-09T09:59:29.000Z</time>
</trkpt>
<trkpt lat="46.1776580" lon="10.4914410">
	<ele>2486.80</ele>
	<time>2023-08-09T09:59:30.000Z</time>
</trkpt>
<trkpt lat="46.1776720" lon="10.4914400">
	<ele>2487.00</ele>
	<time>2023-08-09T09:59:31.000Z</time>
</trkpt>
<trkpt lat="46.1776820" lon="10.4914340">
	<ele>2487.00</ele>
	<time>2023-08-09T09:59:32.000Z</time>
</trkpt>
<trkpt lat="46.1776890" lon="10.4914290">
	<ele>2487.00</ele>
	<time>2023-08-09T09:59:33.000Z</time>
</trkpt>
<trkpt lat="46.1777000" lon="10.4914270">
	<ele>2486.80</ele>
	<time>2023-08-09T09:59:34.000Z</time>
</trkpt>
<trkpt lat="46.1777130" lon="10.4914240">
	<ele>2486.80</ele>
	<time>2023-08-09T09:59:35.000Z</time>
</trkpt>
<trkpt lat="46.1777230" lon="10.4914220">
	<ele>2486.80</ele>
	<time>2023-08-09T09:59:36.000Z</time>
</trkpt>
<trkpt lat="46.1777350" lon="10.4914220">
	<ele>2486.80</ele>
	<time>2023-08-09T09:59:37.000Z</time>
</trkpt>
<trkpt lat="46.1777470" lon="10.4914230">
	<ele>2486.80</ele>
	<time>2023-08-09T09:59:38.000Z</time>
</trkpt>
<trkpt lat="46.1777600" lon="10.4914270">
	<ele>2486.80</ele>
	<time>2023-08-09T09:59:39.000Z</time>
</trkpt>
<trkpt lat="46.1777670" lon="10.4914320">
	<ele>2486.80</ele>
	<time>2023-08-09T09:59:40.000Z</time>
</trkpt>
<trkpt lat="46.1777820" lon="10.4914330">
	<ele>2486.80</ele>
	<time>2023-08-09T09:59:41.000Z</time>
</trkpt>
<trkpt lat="46.1777940" lon="10.4914370">
	<ele>2486.80</ele>
	<time>2023-08-09T09:59:42.000Z</time>
</trkpt>
<trkpt lat="46.1778070" lon="10.4914400">
	<ele>2486.80</ele>
	<time>2023-08-09T09:59:43.000Z</time>
</trkpt>
<trkpt lat="46.1778170" lon="10.4914420">
	<ele>2486.80</ele>
	<time>2023-08-09T09:59:44.000Z</time>
</trkpt>
<trkpt lat="46.1778290" lon="10.4914410">
	<ele>2486.60</ele>
	<time>2023-08-09T09:59:45.000Z</time>
</trkpt>
<trkpt lat="46.1778420" lon="10.4914400">
	<ele>2486.60</ele>
	<time>2023-08-09T09:59:46.000Z</time>
</trkpt>
<trkpt lat="46.1778560" lon="10.4914440">
	<ele>2486.80</ele>
	<time>2023-08-09T09:59:47.000Z</time>
</trkpt>
<trkpt lat="46.1778670" lon="10.4914510">
	<ele>2486.80</ele>
	<time>2023-08-09T09:59:48.000Z</time>
</trkpt>
<trkpt lat="46.1778760" lon="10.4914550">
	<ele>2486.80</ele>
	<time>2023-08-09T09:59:49.000Z</time>
</trkpt>
<trkpt lat="46.1778870" lon="10.4914610">
	<ele>2486.80</ele>
	<time>2023-08-09T09:59:50.000Z</time>
</trkpt>
<trkpt lat="46.1778960" lon="10.4914570">
	<ele>2486.80</ele>
	<time>2023-08-09T09:59:51.000Z</time>
</trkpt>
<trkpt lat="46.1779010" lon="10.4914490">
	<ele>2486.80</ele>
	<time>2023-08-09T09:59:52.000Z</time>
</trkpt>
<trkpt lat="46.1779050" lon="10.4914360">
	<ele>2486.80</ele>
	<time>2023-08-09T09:59:53.000Z</time>
</trkpt>
<trkpt lat="46.1779150" lon="10.4914260">
	<ele>2486.80</ele>
	<time>2023-08-09T09:59:54.000Z</time>
</trkpt>
<trkpt lat="46.1779260" lon="10.4914170">
	<ele>2486.80</ele>
	<time>2023-08-09T09:59:55.000Z</time>
</trkpt>
<trkpt lat="46.1779310" lon="10.4914130">
	<ele>2486.60</ele>
	<time>2023-08-09T09:59:56.000Z</time>
</trkpt>
<trkpt lat="46.1779450" lon="10.4914120">
	<ele>2486.60</ele>
	<time>2023-08-09T09:59:57.000Z</time>
</trkpt>
<trkpt lat="46.1779590" lon="10.4914100">
	<ele>2486.60</ele>
	<time>2023-08-09T09:59:58.000Z</time>
</trkpt>
<trkpt lat="46.1779700" lon="10.4914150">
	<ele>2486.60</ele>
	<time>2023-08-09T09:59:59.000Z</time>
</trkpt>
<trkpt lat="46.1779820" lon="10.4914170">
	<ele>2486.60</ele>
	<time>2023-08-09T10:00:00.000Z</time>
</trkpt>
<trkpt lat="46.1779950" lon="10.4914190">
	<ele>2486.60</ele>
	<time>2023-08-09T10:00:01.000Z</time>
</trkpt>
<trkpt lat="46.1780000" lon="10.4914070">
	<ele>2486.60</ele>
	<time>2023-08-09T10:00:02.000Z</time>
</trkpt>
<trkpt lat="46.1780050" lon="10.4914060">
	<ele>2486.80</ele>
	<time>2023-08-09T10:00:03.000Z</time>
</trkpt>
<trkpt lat="46.1780100" lon="10.4914130">
	<ele>2486.80</ele>
	<time>2023-08-09T10:00:04.000Z</time>
</trkpt>
<trkpt lat="46.1780190" lon="10.4914080">
	<ele>2486.80</ele>
	<time>2023-08-09T10:00:05.000Z</time>
</trkpt>
<trkpt lat="46.1780300" lon="10.4914060">
	<ele>2486.80</ele>
	<time>2023-08-09T10:00:06.000Z</time>
</trkpt>
<trkpt lat="46.1780410" lon="10.4914000">
	<ele>2486.80</ele>
	<time>2023-08-09T10:00:07.000Z</time>
</trkpt>
<trkpt lat="46.1780520" lon="10.4913990">
	<ele>2486.80</ele>
	<time>2023-08-09T10:00:08.000Z</time>
</trkpt>
<trkpt lat="46.1780630" lon="10.4913990">
	<ele>2486.80</ele>
	<time>2023-08-09T10:00:09.000Z</time>
</trkpt>
<trkpt lat="46.1780800" lon="10.4913990">
	<ele>2486.80</ele>
	<time>2023-08-09T10:00:10.000Z</time>
</trkpt>
<trkpt lat="46.1780960" lon="10.4913930">
	<ele>2486.80</ele>
	<time>2023-08-09T10:00:11.000Z</time>
</trkpt>
<trkpt lat="46.1781080" lon="10.4913890">
	<ele>2486.80</ele>
	<time>2023-08-09T10:00:12.000Z</time>
</trkpt>
<trkpt lat="46.1781210" lon="10.4913880">
	<ele>2486.80</ele>
	<time>2023-08-09T10:00:13.000Z</time>
</trkpt>
<trkpt lat="46.1781310" lon="10.4913860">
	<ele>2486.80</ele>
	<time>2023-08-09T10:00:14.000Z</time>
</trkpt>
<trkpt lat="46.1781410" lon="10.4913840">
	<ele>2486.80</ele>
	<time>2023-08-09T10:00:15.000Z</time>
</trkpt>
<trkpt lat="46.1781520" lon="10.4913850">
	<ele>2486.80</ele>
	<time>2023-08-09T10:00:16.000Z</time>
</trkpt>
<trkpt lat="46.1781620" lon="10.4913870">
	<ele>2486.60</ele>
	<time>2023-08-09T10:00:17.000Z</time>
</trkpt>
<trkpt lat="46.1781760" lon="10.4913850">
	<ele>2486.60</ele>
	<time>2023-08-09T10:00:18.000Z</time>
</trkpt>
<trkpt lat="46.1781900" lon="10.4913860">
	<ele>2486.60</ele>
	<time>2023-08-09T10:00:19.000Z</time>
</trkpt>
<trkpt lat="46.1782000" lon="10.4913810">
	<ele>2486.60</ele>
	<time>2023-08-09T10:00:20.000Z</time>
</trkpt>
<trkpt lat="46.1782110" lon="10.4913730">
	<ele>2486.60</ele>
	<time>2023-08-09T10:00:21.000Z</time>
</trkpt>
<trkpt lat="46.1782230" lon="10.4913700">
	<ele>2486.60</ele>
	<time>2023-08-09T10:00:22.000Z</time>
</trkpt>
<trkpt lat="46.1782310" lon="10.4913690">
	<ele>2486.60</ele>
	<time>2023-08-09T10:00:23.000Z</time>
</trkpt>
<trkpt lat="46.1782420" lon="10.4913700">
	<ele>2486.80</ele>
	<time>2023-08-09T10:00:24.000Z</time>
</trkpt>
<trkpt lat="46.1782550" lon="10.4913780">
	<ele>2486.80</ele>
	<time>2023-08-09T10:00:25.000Z</time>
</trkpt>
<trkpt lat="46.1782640" lon="10.4913880">
	<ele>2486.80</ele>
	<time>2023-08-09T10:00:26.000Z</time>
</trkpt>
<trkpt lat="46.1782690" lon="10.4913990">
	<ele>2486.60</ele>
	<time>2023-08-09T10:00:27.000Z</time>
</trkpt>
<trkpt lat="46.1782770" lon="10.4914070">
	<ele>2486.60</ele>
	<time>2023-08-09T10:00:28.000Z</time>
</trkpt>
<trkpt lat="46.1782840" lon="10.4914150">
	<ele>2486.60</ele>
	<time>2023-08-09T10:00:29.000Z</time>
</trkpt>
<trkpt lat="46.1782960" lon="10.4914240">
	<ele>2486.60</ele>
	<time>2023-08-09T10:00:30.000Z</time>
</trkpt>
<trkpt lat="46.1783030" lon="10.4914350">
	<ele>2486.60</ele>
	<time>2023-08-09T10:00:31.000Z</time>
</trkpt>
<trkpt lat="46.1783120" lon="10.4914480">
	<ele>2486.60</ele>
	<time>2023-08-09T10:00:32.000Z</time>
</trkpt>
<trkpt lat="46.1783170" lon="10.4914640">
	<ele>2486.60</ele>
	<time>2023-08-09T10:00:33.000Z</time>
</trkpt>
<trkpt lat="46.1783190" lon="10.4914720">
	<ele>2486.40</ele>
	<time>2023-08-09T10:00:34.000Z</time>
</trkpt>
<trkpt lat="46.1783300" lon="10.4914830">
	<ele>2486.40</ele>
	<time>2023-08-09T10:00:35.000Z</time>
</trkpt>
<trkpt lat="46.1783430" lon="10.4914990">
	<ele>2486.40</ele>
	<time>2023-08-09T10:00:36.000Z</time>
</trkpt>
<trkpt lat="46.1783570" lon="10.4915120">
	<ele>2486.40</ele>
	<time>2023-08-09T10:00:37.000Z</time>
</trkpt>
<trkpt lat="46.1783660" lon="10.4915140">
	<ele>2486.40</ele>
	<time>2023-08-09T10:00:38.000Z</time>
</trkpt>
<trkpt lat="46.1783740" lon="10.4915110">
	<ele>2486.40</ele>
	<time>2023-08-09T10:00:39.000Z</time>
</trkpt>
<trkpt lat="46.1783850" lon="10.4915110">
	<ele>2486.40</ele>
	<time>2023-08-09T10:00:40.000Z</time>
</trkpt>
<trkpt lat="46.1783990" lon="10.4915170">
	<ele>2486.40</ele>
	<time>2023-08-09T10:00:41.000Z</time>
</trkpt>
<trkpt lat="46.1784140" lon="10.4915180">
	<ele>2486.40</ele>
	<time>2023-08-09T10:00:42.000Z</time>
</trkpt>
<trkpt lat="46.1784230" lon="10.4915240">
	<ele>2486.40</ele>
	<time>2023-08-09T10:00:43.000Z</time>
</trkpt>
<trkpt lat="46.1784350" lon="10.4915350">
	<ele>2486.40</ele>
	<time>2023-08-09T10:00:44.000Z</time>
</trkpt>
<trkpt lat="46.1784360" lon="10.4915530">
	<ele>2486.40</ele>
	<time>2023-08-09T10:00:45.000Z</time>
</trkpt>
<trkpt lat="46.1784430" lon="10.4915740">
	<ele>2486.40</ele>
	<time>2023-08-09T10:00:46.000Z</time>
</trkpt>
<trkpt lat="46.1784490" lon="10.4915980">
	<ele>2486.40</ele>
	<time>2023-08-09T10:00:47.000Z</time>
</trkpt>
<trkpt lat="46.1784530" lon="10.4916160">
	<ele>2486.40</ele>
	<time>2023-08-09T10:00:48.000Z</time>
</trkpt>
<trkpt lat="46.1784600" lon="10.4916330">
	<ele>2486.40</ele>
	<time>2023-08-09T10:00:49.000Z</time>
</trkpt>
<trkpt lat="46.1784700" lon="10.4916540">
	<ele>2486.40</ele>
	<time>2023-08-09T10:00:50.000Z</time>
</trkpt>
<trkpt lat="46.1784770" lon="10.4916690">
	<ele>2486.40</ele>
	<time>2023-08-09T10:00:51.000Z</time>
</trkpt>
<trkpt lat="46.1784790" lon="10.4916920">
	<ele>2486.40</ele>
	<time>2023-08-09T10:00:52.000Z</time>
</trkpt>
<trkpt lat="46.1784790" lon="10.4917090">
	<ele>2486.40</ele>
	<time>2023-08-09T10:00:53.000Z</time>
</trkpt>
<trkpt lat="46.1784830" lon="10.4917240">
	<ele>2486.40</ele>
	<time>2023-08-09T10:00:54.000Z</time>
</trkpt>
<trkpt lat="46.1784930" lon="10.4917430">
	<ele>2486.20</ele>
	<time>2023-08-09T10:00:55.000Z</time>
</trkpt>
<trkpt lat="46.1785030" lon="10.4917620">
	<ele>2486.20</ele>
	<time>2023-08-09T10:00:56.000Z</time>
</trkpt>
<trkpt lat="46.1785060" lon="10.4917750">
	<ele>2486.40</ele>
	<time>2023-08-09T10:00:57.000Z</time>
</trkpt>
<trkpt lat="46.1785040" lon="10.4917860">
	<ele>2486.40</ele>
	<time>2023-08-09T10:00:58.000Z</time>
</trkpt>
<trkpt lat="46.1785020" lon="10.4918060">
	<ele>2486.40</ele>
	<time>2023-08-09T10:00:59.000Z</time>
</trkpt>
<trkpt lat="46.1785080" lon="10.4918240">
	<ele>2486.60</ele>
	<time>2023-08-09T10:01:00.000Z</time>
</trkpt>
<trkpt lat="46.1785140" lon="10.4918430">
	<ele>2486.60</ele>
	<time>2023-08-09T10:01:01.000Z</time>
</trkpt>
<trkpt lat="46.1785160" lon="10.4918490">
	<ele>2486.80</ele>
	<time>2023-08-09T10:01:02.000Z</time>
</trkpt>
<trkpt lat="46.1785190" lon="10.4918530">
	<ele>2486.80</ele>
	<time>2023-08-09T10:01:03.000Z</time>
</trkpt>
<trkpt lat="46.1785200" lon="10.4918550">
	<ele>2486.80</ele>
	<time>2023-08-09T10:01:04.000Z</time>
</trkpt>
<trkpt lat="46.1785210" lon="10.4918550">
	<ele>2487.00</ele>
	<time>2023-08-09T10:01:05.000Z</time>
</trkpt>
<trkpt lat="46.1785210" lon="10.4918550">
	<ele>2487.00</ele>
	<time>2023-08-09T10:01:06.000Z</time>
</trkpt>
<trkpt lat="46.1785200" lon="10.4918560">
	<ele>2487.00</ele>
	<time>2023-08-09T10:01:07.000Z</time>
</trkpt>
<trkpt lat="46.1785190" lon="10.4918570">
	<ele>2487.20</ele>
	<time>2023-08-09T10:01:08.000Z</time>
</trkpt>
<trkpt lat="46.1785190" lon="10.4918580">
	<ele>2487.20</ele>
	<time>2023-08-09T10:01:09.000Z</time>
</trkpt>
<trkpt lat="46.1785160" lon="10.4918560">
	<ele>2487.20</ele>
	<time>2023-08-09T10:01:10.000Z</time>
</trkpt>
<trkpt lat="46.1785120" lon="10.4918650">
	<ele>2487.20</ele>
	<time>2023-08-09T10:01:11.000Z</time>
</trkpt>
<trkpt lat="46.1785110" lon="10.4918680">
	<ele>2487.20</ele>
	<time>2023-08-09T10:01:12.000Z</time>
</trkpt>
<trkpt lat="46.1785100" lon="10.4918690">
	<ele>2487.20</ele>
	<time>2023-08-09T10:01:13.000Z</time>
</trkpt>
<trkpt lat="46.1785100" lon="10.4918690">
	<ele>2487.20</ele>
	<time>2023-08-09T10:01:14.000Z</time>
</trkpt>
<trkpt lat="46.1785100" lon="10.4918690">
	<ele>2487.00</ele>
	<time>2023-08-09T10:01:15.000Z</time>
</trkpt>
<trkpt lat="46.1785100" lon="10.4918690">
	<ele>2487.00</ele>
	<time>2023-08-09T10:01:16.000Z</time>
</trkpt>
<trkpt lat="46.1785100" lon="10.4918690">
	<ele>2486.80</ele>
	<time>2023-08-09T10:01:17.000Z</time>
</trkpt>
<trkpt lat="46.1785100" lon="10.4918690">
	<ele>2486.40</ele>
	<time>2023-08-09T10:01:18.000Z</time>
</trkpt>
<trkpt lat="46.1785100" lon="10.4918690">
	<ele>2486.20</ele>
	<time>2023-08-09T10:01:19.000Z</time>
</trkpt>
<trkpt lat="46.1785120" lon="10.4918740">
	<ele>2486.20</ele>
	<time>2023-08-09T10:01:20.000Z</time>
</trkpt>
<trkpt lat="46.1785150" lon="10.4918920">
	<ele>2486.20</ele>
	<time>2023-08-09T10:01:21.000Z</time>
</trkpt>
<trkpt lat="46.1785170" lon="10.4919100">
	<ele>2486.20</ele>
	<time>2023-08-09T10:01:22.000Z</time>
</trkpt>
<trkpt lat="46.1785190" lon="10.4919290">
	<ele>2486.00</ele>
	<time>2023-08-09T10:01:23.000Z</time>
</trkpt>
<trkpt lat="46.1785200" lon="10.4919460">
	<ele>2486.00</ele>
	<time>2023-08-09T10:01:24.000Z</time>
</trkpt>
<trkpt lat="46.1785210" lon="10.4919610">
	<ele>2486.00</ele>
	<time>2023-08-09T10:01:25.000Z</time>
</trkpt>
<trkpt lat="46.1785230" lon="10.4919760">
	<ele>2486.00</ele>
	<time>2023-08-09T10:01:26.000Z</time>
</trkpt>
<trkpt lat="46.1785260" lon="10.4919920">
	<ele>2486.00</ele>
	<time>2023-08-09T10:01:27.000Z</time>
</trkpt>
<trkpt lat="46.1785280" lon="10.4920090">
	<ele>2486.00</ele>
	<time>2023-08-09T10:01:28.000Z</time>
</trkpt>
<trkpt lat="46.1785310" lon="10.4920260">
	<ele>2486.00</ele>
	<time>2023-08-09T10:01:29.000Z</time>
</trkpt>
<trkpt lat="46.1785350" lon="10.4920380">
	<ele>2486.00</ele>
	<time>2023-08-09T10:01:30.000Z</time>
</trkpt>
<trkpt lat="46.1785390" lon="10.4920520">
	<ele>2486.00</ele>
	<time>2023-08-09T10:01:31.000Z</time>
</trkpt>
<trkpt lat="46.1785400" lon="10.4920670">
	<ele>2486.00</ele>
	<time>2023-08-09T10:01:32.000Z</time>
</trkpt>
<trkpt lat="46.1785430" lon="10.4920760">
	<ele>2486.00</ele>
	<time>2023-08-09T10:01:33.000Z</time>
</trkpt>
<trkpt lat="46.1785460" lon="10.4920860">
	<ele>2486.20</ele>
	<time>2023-08-09T10:01:34.000Z</time>
</trkpt>
<trkpt lat="46.1785540" lon="10.4920960">
	<ele>2486.20</ele>
	<time>2023-08-09T10:01:35.000Z</time>
</trkpt>
<trkpt lat="46.1785620" lon="10.4921110">
	<ele>2486.20</ele>
	<time>2023-08-09T10:01:36.000Z</time>
</trkpt>
<trkpt lat="46.1785700" lon="10.4921270">
	<ele>2486.20</ele>
	<time>2023-08-09T10:01:37.000Z</time>
</trkpt>
<trkpt lat="46.1785770" lon="10.4921410">
	<ele>2486.20</ele>
	<time>2023-08-09T10:01:38.000Z</time>
</trkpt>
<trkpt lat="46.1785810" lon="10.4921530">
	<ele>2486.20</ele>
	<time>2023-08-09T10:01:39.000Z</time>
</trkpt>
<trkpt lat="46.1785880" lon="10.4921680">
	<ele>2486.20</ele>
	<time>2023-08-09T10:01:40.000Z</time>
</trkpt>
<trkpt lat="46.1785920" lon="10.4921820">
	<ele>2486.20</ele>
	<time>2023-08-09T10:01:41.000Z</time>
</trkpt>
<trkpt lat="46.1785940" lon="10.4921980">
	<ele>2486.00</ele>
	<time>2023-08-09T10:01:42.000Z</time>
</trkpt>
<trkpt lat="46.1785980" lon="10.4922100">
	<ele>2486.00</ele>
	<time>2023-08-09T10:01:43.000Z</time>
</trkpt>
<trkpt lat="46.1786030" lon="10.4922260">
	<ele>2486.00</ele>
	<time>2023-08-09T10:01:44.000Z</time>
</trkpt>
<trkpt lat="46.1786050" lon="10.4922410">
	<ele>2486.20</ele>
	<time>2023-08-09T10:01:45.000Z</time>
</trkpt>
<trkpt lat="46.1786080" lon="10.4922570">
	<ele>2486.20</ele>
	<time>2023-08-09T10:01:46.000Z</time>
</trkpt>
<trkpt lat="46.1786110" lon="10.4922700">
	<ele>2486.20</ele>
	<time>2023-08-09T10:01:47.000Z</time>
</trkpt>
<trkpt lat="46.1786150" lon="10.4922820">
	<ele>2486.20</ele>
	<time>2023-08-09T10:01:48.000Z</time>
</trkpt>
<trkpt lat="46.1786170" lon="10.4922920">
	<ele>2486.20</ele>
	<time>2023-08-09T10:01:49.000Z</time>
</trkpt>
<trkpt lat="46.1786160" lon="10.4923030">
	<ele>2486.40</ele>
	<time>2023-08-09T10:01:50.000Z</time>
</trkpt>
<trkpt lat="46.1786150" lon="10.4923090">
	<ele>2486.40</ele>
	<time>2023-08-09T10:01:51.000Z</time>
</trkpt>
<trkpt lat="46.1786160" lon="10.4923140">
	<ele>2486.40</ele>
	<time>2023-08-09T10:01:52.000Z</time>
</trkpt>
<trkpt lat="46.1786150" lon="10.4923180">
	<ele>2486.40</ele>
	<time>2023-08-09T10:01:53.000Z</time>
</trkpt>
<trkpt lat="46.1786080" lon="10.4923230">
	<ele>2486.40</ele>
	<time>2023-08-09T10:01:54.000Z</time>
</trkpt>
<trkpt lat="46.1786040" lon="10.4923330">
	<ele>2486.40</ele>
	<time>2023-08-09T10:01:55.000Z</time>
</trkpt>
<trkpt lat="46.1786090" lon="10.4923390">
	<ele>2486.40</ele>
	<time>2023-08-09T10:01:56.000Z</time>
</trkpt>
<trkpt lat="46.1786100" lon="10.4923530">
	<ele>2486.20</ele>
	<time>2023-08-09T10:01:57.000Z</time>
</trkpt>
<trkpt lat="46.1786140" lon="10.4923730">
	<ele>2486.20</ele>
	<time>2023-08-09T10:01:58.000Z</time>
</trkpt>
<trkpt lat="46.1786190" lon="10.4923880">
	<ele>2486.20</ele>
	<time>2023-08-09T10:01:59.000Z</time>
</trkpt>
<trkpt lat="46.1786240" lon="10.4924000">
	<ele>2486.00</ele>
	<time>2023-08-09T10:02:00.000Z</time>
</trkpt>
<trkpt lat="46.1786280" lon="10.4924130">
	<ele>2486.00</ele>
	<time>2023-08-09T10:02:01.000Z</time>
</trkpt>
<trkpt lat="46.1786340" lon="10.4924310">
	<ele>2486.00</ele>
	<time>2023-08-09T10:02:02.000Z</time>
</trkpt>
<trkpt lat="46.1786380" lon="10.4924420">
	<ele>2486.00</ele>
	<time>2023-08-09T10:02:03.000Z</time>
</trkpt>
<trkpt lat="46.1786370" lon="10.4924550">
	<ele>2486.00</ele>
	<time>2023-08-09T10:02:04.000Z</time>
</trkpt>
<trkpt lat="46.1786360" lon="10.4924610">
	<ele>2486.00</ele>
	<time>2023-08-09T10:02:05.000Z</time>
</trkpt>
<trkpt lat="46.1786370" lon="10.4924760">
	<ele>2486.00</ele>
	<time>2023-08-09T10:02:06.000Z</time>
</trkpt>
<trkpt lat="46.1786380" lon="10.4925000">
	<ele>2486.00</ele>
	<time>2023-08-09T10:02:07.000Z</time>
</trkpt>
<trkpt lat="46.1786380" lon="10.4925160">
	<ele>2486.00</ele>
	<time>2023-08-09T10:02:08.000Z</time>
</trkpt>
<trkpt lat="46.1786400" lon="10.4925290">
	<ele>2486.00</ele>
	<time>2023-08-09T10:02:09.000Z</time>
</trkpt>
<trkpt lat="46.1786460" lon="10.4925430">
	<ele>2486.20</ele>
	<time>2023-08-09T10:02:10.000Z</time>
</trkpt>
<trkpt lat="46.1786440" lon="10.4925580">
	<ele>2486.20</ele>
	<time>2023-08-09T10:02:11.000Z</time>
</trkpt>
<trkpt lat="46.1786430" lon="10.4925700">
	<ele>2486.40</ele>
	<time>2023-08-09T10:02:12.000Z</time>
</trkpt>
<trkpt lat="46.1786470" lon="10.4925820">
	<ele>2486.40</ele>
	<time>2023-08-09T10:02:13.000Z</time>
</trkpt>
<trkpt lat="46.1786530" lon="10.4925960">
	<ele>2486.20</ele>
	<time>2023-08-09T10:02:14.000Z</time>
</trkpt>
<trkpt lat="46.1786620" lon="10.4926060">
	<ele>2486.20</ele>
	<time>2023-08-09T10:02:15.000Z</time>
</trkpt>
<trkpt lat="46.1786680" lon="10.4926230">
	<ele>2486.20</ele>
	<time>2023-08-09T10:02:16.000Z</time>
</trkpt>
<trkpt lat="46.1786720" lon="10.4926440">
	<ele>2486.00</ele>
	<time>2023-08-09T10:02:17.000Z</time>
</trkpt>
<trkpt lat="46.1786750" lon="10.4926580">
	<ele>2486.00</ele>
	<time>2023-08-09T10:02:18.000Z</time>
</trkpt>
<trkpt lat="46.1786800" lon="10.4926710">
	<ele>2486.00</ele>
	<time>2023-08-09T10:02:19.000Z</time>
</trkpt>
<trkpt lat="46.1786870" lon="10.4926810">
	<ele>2486.00</ele>
	<time>2023-08-09T10:02:20.000Z</time>
</trkpt>
<trkpt lat="46.1786960" lon="10.4926880">
	<ele>2486.00</ele>
	<time>2023-08-09T10:02:21.000Z</time>
</trkpt>
<trkpt lat="46.1787030" lon="10.4926980">
	<ele>2486.00</ele>
	<time>2023-08-09T10:02:22.000Z</time>
</trkpt>
<trkpt lat="46.1787100" lon="10.4927070">
	<ele>2486.00</ele>
	<time>2023-08-09T10:02:23.000Z</time>
</trkpt>
<trkpt lat="46.1787150" lon="10.4927190">
	<ele>2486.00</ele>
	<time>2023-08-09T10:02:24.000Z</time>
</trkpt>
<trkpt lat="46.1787220" lon="10.4927280">
	<ele>2486.00</ele>
	<time>2023-08-09T10:02:25.000Z</time>
</trkpt>
<trkpt lat="46.1787300" lon="10.4927370">
	<ele>2486.00</ele>
	<time>2023-08-09T10:02:26.000Z</time>
</trkpt>
<trkpt lat="46.1787380" lon="10.4927480">
	<ele>2485.80</ele>
	<time>2023-08-09T10:02:27.000Z</time>
</trkpt>
<trkpt lat="46.1787480" lon="10.4927590">
	<ele>2486.00</ele>
	<time>2023-08-09T10:02:28.000Z</time>
</trkpt>
<trkpt lat="46.1787570" lon="10.4927720">
	<ele>2486.00</ele>
	<time>2023-08-09T10:02:29.000Z</time>
</trkpt>
<trkpt lat="46.1787660" lon="10.4927820">
	<ele>2486.00</ele>
	<time>2023-08-09T10:02:30.000Z</time>
</trkpt>
<trkpt lat="46.1787760" lon="10.4927910">
	<ele>2486.00</ele>
	<time>2023-08-09T10:02:31.000Z</time>
</trkpt>
<trkpt lat="46.1787870" lon="10.4927990">
	<ele>2486.00</ele>
	<time>2023-08-09T10:02:32.000Z</time>
</trkpt>
<trkpt lat="46.1787940" lon="10.4928070">
	<ele>2486.00</ele>
	<time>2023-08-09T10:02:33.000Z</time>
</trkpt>
<trkpt lat="46.1787990" lon="10.4928190">
	<ele>2486.00</ele>
	<time>2023-08-09T10:02:34.000Z</time>
</trkpt>
<trkpt lat="46.1788080" lon="10.4928230">
	<ele>2486.00</ele>
	<time>2023-08-09T10:02:35.000Z</time>
</trkpt>
<trkpt lat="46.1788170" lon="10.4928270">
	<ele>2486.00</ele>
	<time>2023-08-09T10:02:36.000Z</time>
</trkpt>
<trkpt lat="46.1788240" lon="10.4928330">
	<ele>2486.00</ele>
	<time>2023-08-09T10:02:37.000Z</time>
</trkpt>
<trkpt lat="46.1788320" lon="10.4928380">
	<ele>2486.00</ele>
	<time>2023-08-09T10:02:38.000Z</time>
</trkpt>
<trkpt lat="46.1788400" lon="10.4928440">
	<ele>2486.00</ele>
	<time>2023-08-09T10:02:39.000Z</time>
</trkpt>
<trkpt lat="46.1788490" lon="10.4928510">
	<ele>2486.00</ele>
	<time>2023-08-09T10:02:40.000Z</time>
</trkpt>
<trkpt lat="46.1788550" lon="10.4928580">
	<ele>2485.80</ele>
	<time>2023-08-09T10:02:41.000Z</time>
</trkpt>
<trkpt lat="46.1788640" lon="10.4928670">
	<ele>2485.80</ele>
	<time>2023-08-09T10:02:42.000Z</time>
</trkpt>
<trkpt lat="46.1788740" lon="10.4928760">
	<ele>2485.80</ele>
	<time>2023-08-09T10:02:43.000Z</time>
</trkpt>
<trkpt lat="46.1788850" lon="10.4928830">
	<ele>2485.80</ele>
	<time>2023-08-09T10:02:44.000Z</time>
</trkpt>
<trkpt lat="46.1788950" lon="10.4928880">
	<ele>2485.80</ele>
	<time>2023-08-09T10:02:45.000Z</time>
</trkpt>
<trkpt lat="46.1789020" lon="10.4928940">
	<ele>2485.80</ele>
	<time>2023-08-09T10:02:46.000Z</time>
</trkpt>
<trkpt lat="46.1789090" lon="10.4929000">
	<ele>2485.80</ele>
	<time>2023-08-09T10:02:47.000Z</time>
</trkpt>
<trkpt lat="46.1789190" lon="10.4929040">
	<ele>2485.80</ele>
	<time>2023-08-09T10:02:48.000Z</time>
</trkpt>
<trkpt lat="46.1789280" lon="10.4929040">
	<ele>2485.80</ele>
	<time>2023-08-09T10:02:49.000Z</time>
</trkpt>
<trkpt lat="46.1789390" lon="10.4929150">
	<ele>2485.80</ele>
	<time>2023-08-09T10:02:50.000Z</time>
</trkpt>
<trkpt lat="46.1789480" lon="10.4929240">
	<ele>2485.80</ele>
	<time>2023-08-09T10:02:51.000Z</time>
</trkpt>
<trkpt lat="46.1789570" lon="10.4929280">
	<ele>2485.80</ele>
	<time>2023-08-09T10:02:52.000Z</time>
</trkpt>
<trkpt lat="46.1789660" lon="10.4929350">
	<ele>2485.80</ele>
	<time>2023-08-09T10:02:53.000Z</time>
</trkpt>
<trkpt lat="46.1789750" lon="10.4929380">
	<ele>2485.80</ele>
	<time>2023-08-09T10:02:54.000Z</time>
</trkpt>
<trkpt lat="46.1789800" lon="10.4929430">
	<ele>2485.80</ele>
	<time>2023-08-09T10:02:55.000Z</time>
</trkpt>
<trkpt lat="46.1789880" lon="10.4929480">
	<ele>2485.80</ele>
	<time>2023-08-09T10:02:56.000Z</time>
</trkpt>
<trkpt lat="46.1789950" lon="10.4929520">
	<ele>2485.80</ele>
	<time>2023-08-09T10:02:57.000Z</time>
</trkpt>
<trkpt lat="46.1790060" lon="10.4929550">
	<ele>2485.80</ele>
	<time>2023-08-09T10:02:58.000Z</time>
</trkpt>
<trkpt lat="46.1790190" lon="10.4929590">
	<ele>2485.80</ele>
	<time>2023-08-09T10:02:59.000Z</time>
</trkpt>
<trkpt lat="46.1790300" lon="10.4929680">
	<ele>2485.80</ele>
	<time>2023-08-09T10:03:00.000Z</time>
</trkpt>
<trkpt lat="46.1790370" lon="10.4929730">
	<ele>2486.00</ele>
	<time>2023-08-09T10:03:01.000Z</time>
</trkpt>
<trkpt lat="46.1790450" lon="10.4929780">
	<ele>2486.00</ele>
	<time>2023-08-09T10:03:02.000Z</time>
</trkpt>
<trkpt lat="46.1790510" lon="10.4929810">
	<ele>2485.80</ele>
	<time>2023-08-09T10:03:03.000Z</time>
</trkpt>
<trkpt lat="46.1790590" lon="10.4929840">
	<ele>2485.80</ele>
	<time>2023-08-09T10:03:04.000Z</time>
</trkpt>
<trkpt lat="46.1790700" lon="10.4929860">
	<ele>2485.80</ele>
	<time>2023-08-09T10:03:05.000Z</time>
</trkpt>
<trkpt lat="46.1790810" lon="10.4929910">
	<ele>2485.80</ele>
	<time>2023-08-09T10:03:06.000Z</time>
</trkpt>
<trkpt lat="46.1790910" lon="10.4929950">
	<ele>2485.80</ele>
	<time>2023-08-09T10:03:07.000Z</time>
</trkpt>
<trkpt lat="46.1791010" lon="10.4930090">
	<ele>2485.80</ele>
	<time>2023-08-09T10:03:08.000Z</time>
</trkpt>
<trkpt lat="46.1791100" lon="10.4930200">
	<ele>2485.80</ele>
	<time>2023-08-09T10:03:09.000Z</time>
</trkpt>
<trkpt lat="46.1791220" lon="10.4930290">
	<ele>2485.80</ele>
	<time>2023-08-09T10:03:10.000Z</time>
</trkpt>
<trkpt lat="46.1791350" lon="10.4930340">
	<ele>2485.80</ele>
	<time>2023-08-09T10:03:11.000Z</time>
</trkpt>
<trkpt lat="46.1791460" lon="10.4930380">
	<ele>2485.60</ele>
	<time>2023-08-09T10:03:12.000Z</time>
</trkpt>
<trkpt lat="46.1791520" lon="10.4930440">
	<ele>2485.60</ele>
	<time>2023-08-09T10:03:13.000Z</time>
</trkpt>
<trkpt lat="46.1791560" lon="10.4930470">
	<ele>2485.60</ele>
	<time>2023-08-09T10:03:14.000Z</time>
</trkpt>
<trkpt lat="46.1791670" lon="10.4930510">
	<ele>2485.80</ele>
	<time>2023-08-09T10:03:15.000Z</time>
</trkpt>
<trkpt lat="46.1791750" lon="10.4930600">
	<ele>2485.80</ele>
	<time>2023-08-09T10:03:16.000Z</time>
</trkpt>
<trkpt lat="46.1791810" lon="10.4930680">
	<ele>2485.80</ele>
	<time>2023-08-09T10:03:17.000Z</time>
</trkpt>
<trkpt lat="46.1791850" lon="10.4930780">
	<ele>2485.80</ele>
	<time>2023-08-09T10:03:18.000Z</time>
</trkpt>
<trkpt lat="46.1791940" lon="10.4930820">
	<ele>2485.80</ele>
	<time>2023-08-09T10:03:19.000Z</time>
</trkpt>
<trkpt lat="46.1792020" lon="10.4930880">
	<ele>2485.80</ele>
	<time>2023-08-09T10:03:20.000Z</time>
</trkpt>
<trkpt lat="46.1792130" lon="10.4930940">
	<ele>2485.80</ele>
	<time>2023-08-09T10:03:21.000Z</time>
</trkpt>
<trkpt lat="46.1792230" lon="10.4931020">
	<ele>2485.80</ele>
	<time>2023-08-09T10:03:22.000Z</time>
</trkpt>
<trkpt lat="46.1792330" lon="10.4931110">
	<ele>2485.80</ele>
	<time>2023-08-09T10:03:23.000Z</time>
</trkpt>
<trkpt lat="46.1792430" lon="10.4931190">
	<ele>2485.60</ele>
	<time>2023-08-09T10:03:24.000Z</time>
</trkpt>
<trkpt lat="46.1792520" lon="10.4931250">
	<ele>2485.60</ele>
	<time>2023-08-09T10:03:25.000Z</time>
</trkpt>
<trkpt lat="46.1792620" lon="10.4931310">
	<ele>2485.60</ele>
	<time>2023-08-09T10:03:26.000Z</time>
</trkpt>
<trkpt lat="46.1792710" lon="10.4931370">
	<ele>2485.60</ele>
	<time>2023-08-09T10:03:27.000Z</time>
</trkpt>
<trkpt lat="46.1792800" lon="10.4931430">
	<ele>2485.60</ele>
	<time>2023-08-09T10:03:28.000Z</time>
</trkpt>
<trkpt lat="46.1792890" lon="10.4931500">
	<ele>2485.60</ele>
	<time>2023-08-09T10:03:29.000Z</time>
</trkpt>
<trkpt lat="46.1792980" lon="10.4931560">
	<ele>2485.40</ele>
	<time>2023-08-09T10:03:30.000Z</time>
</trkpt>
<trkpt lat="46.1793070" lon="10.4931640">
	<ele>2485.40</ele>
	<time>2023-08-09T10:03:31.000Z</time>
</trkpt>
<trkpt lat="46.1793150" lon="10.4931710">
	<ele>2485.60</ele>
	<time>2023-08-09T10:03:32.000Z</time>
</trkpt>
<trkpt lat="46.1793230" lon="10.4931780">
	<ele>2485.60</ele>
	<time>2023-08-09T10:03:33.000Z</time>
</trkpt>
<trkpt lat="46.1793300" lon="10.4931850">
	<ele>2485.60</ele>
	<time>2023-08-09T10:03:34.000Z</time>
</trkpt>
<trkpt lat="46.1793360" lon="10.4931900">
	<ele>2485.60</ele>
	<time>2023-08-09T10:03:35.000Z</time>
</trkpt>
<trkpt lat="46.1793450" lon="10.4931920">
	<ele>2485.60</ele>
	<time>2023-08-09T10:03:36.000Z</time>
</trkpt>
<trkpt lat="46.1793520" lon="10.4931960">
	<ele>2485.60</ele>
	<time>2023-08-09T10:03:37.000Z</time>
</trkpt>
<trkpt lat="46.1793560" lon="10.4931990">
	<ele>2485.60</ele>
	<time>2023-08-09T10:03:38.000Z</time>
</trkpt>
<trkpt lat="46.1793630" lon="10.4932030">
	<ele>2485.60</ele>
	<time>2023-08-09T10:03:39.000Z</time>
</trkpt>
<trkpt lat="46.1793650" lon="10.4932050">
	<ele>2485.60</ele>
	<time>2023-08-09T10:03:40.000Z</time>
</trkpt>
<trkpt lat="46.1793650" lon="10.4932070">
	<ele>2485.60</ele>
	<time>2023-08-09T10:03:41.000Z</time>
</trkpt>
<trkpt lat="46.1793640" lon="10.4932090">
	<ele>2485.60</ele>
	<time>2023-08-09T10:03:42.000Z</time>
</trkpt>
<trkpt lat="46.1793640" lon="10.4932110">
	<ele>2485.60</ele>
	<time>2023-08-09T10:03:43.000Z</time>
</trkpt>
<trkpt lat="46.1793640" lon="10.4932120">
	<ele>2485.60</ele>
	<time>2023-08-09T10:03:44.000Z</time>
</trkpt>
<trkpt lat="46.1793640" lon="10.4932120">
	<ele>2485.60</ele>
	<time>2023-08-09T10:03:45.000Z</time>
</trkpt>
<trkpt lat="46.1793630" lon="10.4932120">
	<ele>2485.80</ele>
	<time>2023-08-09T10:03:46.000Z</time>
</trkpt>
<trkpt lat="46.1793630" lon="10.4932120">
	<ele>2485.80</ele>
	<time>2023-08-09T10:03:47.000Z</time>
</trkpt>
<trkpt lat="46.1793640" lon="10.4932120">
	<ele>2485.80</ele>
	<time>2023-08-09T10:03:48.000Z</time>
</trkpt>
<trkpt lat="46.1793650" lon="10.4932130">
	<ele>2485.80</ele>
	<time>2023-08-09T10:03:49.000Z</time>
</trkpt>
<trkpt lat="46.1793650" lon="10.4932130">
	<ele>2486.00</ele>
	<time>2023-08-09T10:03:50.000Z</time>
</trkpt>
<trkpt lat="46.1793650" lon="10.4932130">
	<ele>2486.00</ele>
	<time>2023-08-09T10:03:51.000Z</time>
</trkpt>
<trkpt lat="46.1793650" lon="10.4932130">
	<ele>2485.80</ele>
	<time>2023-08-09T10:03:52.000Z</time>
</trkpt>
<trkpt lat="46.1793650" lon="10.4932130">
	<ele>2485.80</ele>
	<time>2023-08-09T10:03:53.000Z</time>
</trkpt>
<trkpt lat="46.1793650" lon="10.4932130">
	<ele>2485.80</ele>
	<time>2023-08-09T10:03:54.000Z</time>
</trkpt>
<trkpt lat="46.1793650" lon="10.4932130">
	<ele>2485.80</ele>
	<time>2023-08-09T10:03:55.000Z</time>
</trkpt>
<trkpt lat="46.1793650" lon="10.4932130">
	<ele>2485.80</ele>
	<time>2023-08-09T10:03:56.000Z</time>
</trkpt>
<trkpt lat="46.1793650" lon="10.4932130">
	<ele>2485.60</ele>
	<time>2023-08-09T10:03:57.000Z</time>
</trkpt>
<trkpt lat="46.1793650" lon="10.4932130">
	<ele>2485.40</ele>
	<time>2023-08-09T10:03:58.000Z</time>
</trkpt>
<trkpt lat="46.1793650" lon="10.4932130">
	<ele>2485.20</ele>
	<time>2023-08-09T10:03:59.000Z</time>
</trkpt>
<trkpt lat="46.1793650" lon="10.4932130">
	<ele>2485.20</ele>
	<time>2023-08-09T10:04:00.000Z</time>
</trkpt>
<trkpt lat="46.1793650" lon="10.4932130">
	<ele>2485.00</ele>
	<time>2023-08-09T10:04:01.000Z</time>
</trkpt>
<trkpt lat="46.1793650" lon="10.4932130">
	<ele>2485.00</ele>
	<time>2023-08-09T10:04:02.000Z</time>
</trkpt>
<trkpt lat="46.1793650" lon="10.4932130">
	<ele>2485.00</ele>
	<time>2023-08-09T10:04:03.000Z</time>
</trkpt>
<trkpt lat="46.1793650" lon="10.4932130">
	<ele>2485.20</ele>
	<time>2023-08-09T10:04:04.000Z</time>
</trkpt>
<trkpt lat="46.1793650" lon="10.4932130">
	<ele>2485.40</ele>
	<time>2023-08-09T10:04:05.000Z</time>
</trkpt>
<trkpt lat="46.1793650" lon="10.4932130">
	<ele>2485.60</ele>
	<time>2023-08-09T10:04:06.000Z</time>
</trkpt>
<trkpt lat="46.1793660" lon="10.4932140">
	<ele>2485.60</ele>
	<time>2023-08-09T10:04:07.000Z</time>
</trkpt>
<trkpt lat="46.1793660" lon="10.4932140">
	<ele>2485.60</ele>
	<time>2023-08-09T10:04:08.000Z</time>
</trkpt>
<trkpt lat="46.1793660" lon="10.4932140">
	<ele>2485.60</ele>
	<time>2023-08-09T10:04:09.000Z</time>
</trkpt>
<trkpt lat="46.1793660" lon="10.4932160">
	<ele>2485.60</ele>
	<time>2023-08-09T10:04:10.000Z</time>
</trkpt>
<trkpt lat="46.1793670" lon="10.4932180">
	<ele>2485.80</ele>
	<time>2023-08-09T10:04:11.000Z</time>
</trkpt>
<trkpt lat="46.1793670" lon="10.4932200">
	<ele>2485.80</ele>
	<time>2023-08-09T10:04:12.000Z</time>
</trkpt>
<trkpt lat="46.1793680" lon="10.4932210">
	<ele>2485.80</ele>
	<time>2023-08-09T10:04:13.000Z</time>
</trkpt>
<trkpt lat="46.1793680" lon="10.4932210">
	<ele>2485.80</ele>
	<time>2023-08-09T10:04:14.000Z</time>
</trkpt>
<trkpt lat="46.1793680" lon="10.4932210">
	<ele>2485.60</ele>
	<time>2023-08-09T10:04:15.000Z</time>
</trkpt>
<trkpt lat="46.1793740" lon="10.4932210">
	<ele>2485.60</ele>
	<time>2023-08-09T10:04:16.000Z</time>
</trkpt>
<trkpt lat="46.1793760" lon="10.4932210">
	<ele>2485.60</ele>
	<time>2023-08-09T10:04:17.000Z</time>
</trkpt>
<trkpt lat="46.1793770" lon="10.4932210">
	<ele>2485.60</ele>
	<time>2023-08-09T10:04:18.000Z</time>
</trkpt>
<trkpt lat="46.1793770" lon="10.4932210">
	<ele>2485.60</ele>
	<time>2023-08-09T10:04:19.000Z</time>
</trkpt>
<trkpt lat="46.1793770" lon="10.4932210">
	<ele>2485.80</ele>
	<time>2023-08-09T10:04:20.000Z</time>
</trkpt>
<trkpt lat="46.1793770" lon="10.4932210">
	<ele>2485.80</ele>
	<time>2023-08-09T10:04:21.000Z</time>
</trkpt>
<trkpt lat="46.1793770" lon="10.4932210">
	<ele>2485.80</ele>
	<time>2023-08-09T10:04:22.000Z</time>
</trkpt>
<trkpt lat="46.1793770" lon="10.4932210">
	<ele>2485.80</ele>
	<time>2023-08-09T10:04:23.000Z</time>
</trkpt>
<trkpt lat="46.1793770" lon="10.4932210">
	<ele>2485.80</ele>
	<time>2023-08-09T10:04:24.000Z</time>
</trkpt>
<trkpt lat="46.1793770" lon="10.4932210">
	<ele>2485.60</ele>
	<time>2023-08-09T10:04:25.000Z</time>
</trkpt>
<trkpt lat="46.1793770" lon="10.4932210">
	<ele>2485.60</ele>
	<time>2023-08-09T10:04:26.000Z</time>
</trkpt>
<trkpt lat="46.1793770" lon="10.4932210">
	<ele>2485.40</ele>
	<time>2023-08-09T10:04:27.000Z</time>
</trkpt>
<trkpt lat="46.1793780" lon="10.4932210">
	<ele>2485.40</ele>
	<time>2023-08-09T10:04:28.000Z</time>
</trkpt>
<trkpt lat="46.1793780" lon="10.4932210">
	<ele>2485.40</ele>
	<time>2023-08-09T10:04:29.000Z</time>
</trkpt>
<trkpt lat="46.1793780" lon="10.4932200">
	<ele>2485.40</ele>
	<time>2023-08-09T10:04:30.000Z</time>
</trkpt>
<trkpt lat="46.1793780" lon="10.4932200">
	<ele>2485.40</ele>
	<time>2023-08-09T10:04:31.000Z</time>
</trkpt>
<trkpt lat="46.1793780" lon="10.4932200">
	<ele>2485.40</ele>
	<time>2023-08-09T10:04:32.000Z</time>
</trkpt>
<trkpt lat="46.1793780" lon="10.4932200">
	<ele>2485.60</ele>
	<time>2023-08-09T10:04:33.000Z</time>
</trkpt>
<trkpt lat="46.1793780" lon="10.4932200">
	<ele>2485.60</ele>
	<time>2023-08-09T10:04:34.000Z</time>
</trkpt>
<trkpt lat="46.1793770" lon="10.4932190">
	<ele>2485.60</ele>
	<time>2023-08-09T10:04:35.000Z</time>
</trkpt>
<trkpt lat="46.1793770" lon="10.4932190">
	<ele>2485.80</ele>
	<time>2023-08-09T10:04:36.000Z</time>
</trkpt>
<trkpt lat="46.1793770" lon="10.4932180">
	<ele>2485.80</ele>
	<time>2023-08-09T10:04:37.000Z</time>
</trkpt>
<trkpt lat="46.1793770" lon="10.4932180">
	<ele>2485.80</ele>
	<time>2023-08-09T10:04:38.000Z</time>
</trkpt>
<trkpt lat="46.1793770" lon="10.4932180">
	<ele>2485.80</ele>
	<time>2023-08-09T10:04:39.000Z</time>
</trkpt>
<trkpt lat="46.1793800" lon="10.4932170">
	<ele>2485.80</ele>
	<time>2023-08-09T10:04:40.000Z</time>
</trkpt>
<trkpt lat="46.1793920" lon="10.4932160">
	<ele>2485.80</ele>
	<time>2023-08-09T10:04:41.000Z</time>
</trkpt>
<trkpt lat="46.1794030" lon="10.4932130">
	<ele>2485.80</ele>
	<time>2023-08-09T10:04:42.000Z</time>
</trkpt>
<trkpt lat="46.1794140" lon="10.4932100">
	<ele>2485.80</ele>
	<time>2023-08-09T10:04:43.000Z</time>
</trkpt>
<trkpt lat="46.1794220" lon="10.4932080">
	<ele>2485.80</ele>
	<time>2023-08-09T10:04:44.000Z</time>
</trkpt>
<trkpt lat="46.1794310" lon="10.4932070">
	<ele>2486.00</ele>
	<time>2023-08-09T10:04:45.000Z</time>
</trkpt>
<trkpt lat="46.1794410" lon="10.4932030">
	<ele>2486.00</ele>
	<time>2023-08-09T10:04:46.000Z</time>
</trkpt>
<trkpt lat="46.1794510" lon="10.4932040">
	<ele>2486.00</ele>
	<time>2023-08-09T10:04:47.000Z</time>
</trkpt>
<trkpt lat="46.1794590" lon="10.4932080">
	<ele>2486.20</ele>
	<time>2023-08-09T10:04:48.000Z</time>
</trkpt>
<trkpt lat="46.1794690" lon="10.4932130">
	<ele>2486.40</ele>
	<time>2023-08-09T10:04:49.000Z</time>
</trkpt>
<trkpt lat="46.1794770" lon="10.4932170">
	<ele>2486.40</ele>
	<time>2023-08-09T10:04:50.000Z</time>
</trkpt>
<trkpt lat="46.1794820" lon="10.4932180">
	<ele>2486.60</ele>
	<time>2023-08-09T10:04:51.000Z</time>
</trkpt>
<trkpt lat="46.1794900" lon="10.4932180">
	<ele>2486.80</ele>
	<time>2023-08-09T10:04:52.000Z</time>
</trkpt>
<trkpt lat="46.1794960" lon="10.4932130">
	<ele>2487.00</ele>
	<time>2023-08-09T10:04:53.000Z</time>
</trkpt>
<trkpt lat="46.1795020" lon="10.4932130">
	<ele>2487.20</ele>
	<time>2023-08-09T10:04:54.000Z</time>
</trkpt>
<trkpt lat="46.1795120" lon="10.4932170">
	<ele>2487.40</ele>
	<time>2023-08-09T10:04:55.000Z</time>
</trkpt>
<trkpt lat="46.1795210" lon="10.4932210">
	<ele>2487.60</ele>
	<time>2023-08-09T10:04:56.000Z</time>
</trkpt>
<trkpt lat="46.1795270" lon="10.4932210">
	<ele>2487.80</ele>
	<time>2023-08-09T10:04:57.000Z</time>
</trkpt>
<trkpt lat="46.1795350" lon="10.4932210">
	<ele>2487.80</ele>
	<time>2023-08-09T10:04:58.000Z</time>
</trkpt>
<trkpt lat="46.1795460" lon="10.4932250">
	<ele>2488.00</ele>
	<time>2023-08-09T10:04:59.000Z</time>
</trkpt>
<trkpt lat="46.1795510" lon="10.4932260">
	<ele>2488.20</ele>
	<time>2023-08-09T10:05:00.000Z</time>
</trkpt>
<trkpt lat="46.1795550" lon="10.4932250">
	<ele>2488.20</ele>
	<time>2023-08-09T10:05:01.000Z</time>
</trkpt>
<trkpt lat="46.1795560" lon="10.4932200">
	<ele>2488.40</ele>
	<time>2023-08-09T10:05:02.000Z</time>
</trkpt>
<trkpt lat="46.1795640" lon="10.4932150">
	<ele>2488.40</ele>
	<time>2023-08-09T10:05:03.000Z</time>
</trkpt>
<trkpt lat="46.1795680" lon="10.4932100">
	<ele>2488.60</ele>
	<time>2023-08-09T10:05:04.000Z</time>
</trkpt>
<trkpt lat="46.1795720" lon="10.4932050">
	<ele>2488.80</ele>
	<time>2023-08-09T10:05:05.000Z</time>
</trkpt>
<trkpt lat="46.1795780" lon="10.4932050">
	<ele>2489.00</ele>
	<time>2023-08-09T10:05:06.000Z</time>
</trkpt>
<trkpt lat="46.1795870" lon="10.4932060">
	<ele>2489.20</ele>
	<time>2023-08-09T10:05:07.000Z</time>
</trkpt>
<trkpt lat="46.1795970" lon="10.4932130">
	<ele>2489.40</ele>
	<time>2023-08-09T10:05:08.000Z</time>
</trkpt>
<trkpt lat="46.1796070" lon="10.4932190">
	<ele>2489.40</ele>
	<time>2023-08-09T10:05:09.000Z</time>
</trkpt>
<trkpt lat="46.1796170" lon="10.4932250">
	<ele>2489.60</ele>
	<time>2023-08-09T10:05:10.000Z</time>
</trkpt>
<trkpt lat="46.1796280" lon="10.4932330">
	<ele>2489.60</ele>
	<time>2023-08-09T10:05:11.000Z</time>
</trkpt>
<trkpt lat="46.1796380" lon="10.4932450">
	<ele>2489.80</ele>
	<time>2023-08-09T10:05:12.000Z</time>
</trkpt>
<trkpt lat="46.1796480" lon="10.4932560">
	<ele>2489.80</ele>
	<time>2023-08-09T10:05:13.000Z</time>
</trkpt>
<trkpt lat="46.1796540" lon="10.4932660">
	<ele>2490.00</ele>
	<time>2023-08-09T10:05:14.000Z</time>
</trkpt>
<trkpt lat="46.1796590" lon="10.4932750">
	<ele>2490.00</ele>
	<time>2023-08-09T10:05:15.000Z</time>
</trkpt>
<trkpt lat="46.1796650" lon="10.4932830">
	<ele>2490.00</ele>
	<time>2023-08-09T10:05:16.000Z</time>
</trkpt>
<trkpt lat="46.1796710" lon="10.4932910">
	<ele>2490.00</ele>
	<time>2023-08-09T10:05:17.000Z</time>
</trkpt>
<trkpt lat="46.1796770" lon="10.4932950">
	<ele>2490.20</ele>
	<time>2023-08-09T10:05:18.000Z</time>
</trkpt>
<trkpt lat="46.1796830" lon="10.4933010">
	<ele>2490.20</ele>
	<time>2023-08-09T10:05:19.000Z</time>
</trkpt>
<trkpt lat="46.1796890" lon="10.4933110">
	<ele>2490.20</ele>
	<time>2023-08-09T10:05:20.000Z</time>
</trkpt>
<trkpt lat="46.1796940" lon="10.4933210">
	<ele>2490.40</ele>
	<time>2023-08-09T10:05:21.000Z</time>
</trkpt>
<trkpt lat="46.1797000" lon="10.4933330">
	<ele>2490.40</ele>
	<time>2023-08-09T10:05:22.000Z</time>
</trkpt>
<trkpt lat="46.1797030" lon="10.4933480">
	<ele>2490.60</ele>
	<time>2023-08-09T10:05:23.000Z</time>
</trkpt>
<trkpt lat="46.1797060" lon="10.4933600">
	<ele>2490.60</ele>
	<time>2023-08-09T10:05:24.000Z</time>
</trkpt>
<trkpt lat="46.1797070" lon="10.4933710">
	<ele>2490.80</ele>
	<time>2023-08-09T10:05:25.000Z</time>
</trkpt>
<trkpt lat="46.1797070" lon="10.4933800">
	<ele>2490.80</ele>
	<time>2023-08-09T10:05:26.000Z</time>
</trkpt>
<trkpt lat="46.1797070" lon="10.4933900">
	<ele>2490.80</ele>
	<time>2023-08-09T10:05:27.000Z</time>
</trkpt>
<trkpt lat="46.1797070" lon="10.4934050">
	<ele>2491.00</ele>
	<time>2023-08-09T10:05:28.000Z</time>
</trkpt>
<trkpt lat="46.1797070" lon="10.4934130">
	<ele>2491.00</ele>
	<time>2023-08-09T10:05:29.000Z</time>
</trkpt>
<trkpt lat="46.1797070" lon="10.4934280">
	<ele>2491.00</ele>
	<time>2023-08-09T10:05:30.000Z</time>
</trkpt>
<trkpt lat="46.1797060" lon="10.4934420">
	<ele>2491.20</ele>
	<time>2023-08-09T10:05:31.000Z</time>
</trkpt>
<trkpt lat="46.1797060" lon="10.4934520">
	<ele>2491.20</ele>
	<time>2023-08-09T10:05:32.000Z</time>
</trkpt>
<trkpt lat="46.1797040" lon="10.4934630">
	<ele>2491.20</ele>
	<time>2023-08-09T10:05:33.000Z</time>
</trkpt>
<trkpt lat="46.1797020" lon="10.4934700">
	<ele>2491.20</ele>
	<time>2023-08-09T10:05:34.000Z</time>
</trkpt>
<trkpt lat="46.1797000" lon="10.4934750">
	<ele>2491.20</ele>
	<time>2023-08-09T10:05:35.000Z</time>
</trkpt>
<trkpt lat="46.1796990" lon="10.4934800">
	<ele>2491.00</ele>
	<time>2023-08-09T10:05:36.000Z</time>
</trkpt>
<trkpt lat="46.1796950" lon="10.4934880">
	<ele>2491.00</ele>
	<time>2023-08-09T10:05:37.000Z</time>
</trkpt>
<trkpt lat="46.1796920" lon="10.4934970">
	<ele>2491.00</ele>
	<time>2023-08-09T10:05:38.000Z</time>
</trkpt>
<trkpt lat="46.1796930" lon="10.4935070">
	<ele>2491.00</ele>
	<time>2023-08-09T10:05:39.000Z</time>
</trkpt>
<trkpt lat="46.1796930" lon="10.4935190">
	<ele>2491.00</ele>
	<time>2023-08-09T10:05:40.000Z</time>
</trkpt>
<trkpt lat="46.1796900" lon="10.4935320">
	<ele>2491.00</ele>
	<time>2023-08-09T10:05:41.000Z</time>
</trkpt>
<trkpt lat="46.1796850" lon="10.4935420">
	<ele>2491.20</ele>
	<time>2023-08-09T10:05:42.000Z</time>
</trkpt>
<trkpt lat="46.1796810" lon="10.4935560">
	<ele>2491.20</ele>
	<time>2023-08-09T10:05:43.000Z</time>
</trkpt>
<trkpt lat="46.1796790" lon="10.4935690">
	<ele>2491.20</ele>
	<time>2023-08-09T10:05:44.000Z</time>
</trkpt>
<trkpt lat="46.1796790" lon="10.4935840">
	<ele>2491.40</ele>
	<time>2023-08-09T10:05:45.000Z</time>
</trkpt>
<trkpt lat="46.1796790" lon="10.4935990">
	<ele>2491.60</ele>
	<time>2023-08-09T10:05:46.000Z</time>
</trkpt>
<trkpt lat="46.1796790" lon="10.4936140">
	<ele>2491.60</ele>
	<time>2023-08-09T10:05:47.000Z</time>
</trkpt>
<trkpt lat="46.1796830" lon="10.4936310">
	<ele>2491.60</ele>
	<time>2023-08-09T10:05:48.000Z</time>
</trkpt>
<trkpt lat="46.1796840" lon="10.4936460">
	<ele>2491.80</ele>
	<time>2023-08-09T10:05:49.000Z</time>
</trkpt>
<trkpt lat="46.1796850" lon="10.4936610">
	<ele>2491.60</ele>
	<time>2023-08-09T10:05:50.000Z</time>
</trkpt>
<trkpt lat="46.1796850" lon="10.4936750">
	<ele>2491.60</ele>
	<time>2023-08-09T10:05:51.000Z</time>
</trkpt>
<trkpt lat="46.1796850" lon="10.4936890">
	<ele>2491.60</ele>
	<time>2023-08-09T10:05:52.000Z</time>
</trkpt>
<trkpt lat="46.1796840" lon="10.4936960">
	<ele>2491.80</ele>
	<time>2023-08-09T10:05:53.000Z</time>
</trkpt>
<trkpt lat="46.1796840" lon="10.4937060">
	<ele>2491.80</ele>
	<time>2023-08-09T10:05:54.000Z</time>
</trkpt>
<trkpt lat="46.1796830" lon="10.4937180">
	<ele>2491.80</ele>
	<time>2023-08-09T10:05:55.000Z</time>
</trkpt>
<trkpt lat="46.1796810" lon="10.4937310">
	<ele>2492.00</ele>
	<time>2023-08-09T10:05:56.000Z</time>
</trkpt>
<trkpt lat="46.1796810" lon="10.4937440">
	<ele>2492.00</ele>
	<time>2023-08-09T10:05:57.000Z</time>
</trkpt>
<trkpt lat="46.1796800" lon="10.4937560">
	<ele>2492.00</ele>
	<time>2023-08-09T10:05:58.000Z</time>
</trkpt>
<trkpt lat="46.1796830" lon="10.4937660">
	<ele>2492.00</ele>
	<time>2023-08-09T10:05:59.000Z</time>
</trkpt>
<trkpt lat="46.1796840" lon="10.4937770">
	<ele>2492.20</ele>
	<time>2023-08-09T10:06:00.000Z</time>
</trkpt>
<trkpt lat="46.1796860" lon="10.4937870">
	<ele>2492.40</ele>
	<time>2023-08-09T10:06:01.000Z</time>
</trkpt>
<trkpt lat="46.1796920" lon="10.4937960">
	<ele>2492.40</ele>
	<time>2023-08-09T10:06:02.000Z</time>
</trkpt>
<trkpt lat="46.1796960" lon="10.4938020">
	<ele>2492.60</ele>
	<time>2023-08-09T10:06:03.000Z</time>
</trkpt>
<trkpt lat="46.1797020" lon="10.4938080">
	<ele>2492.80</ele>
	<time>2023-08-09T10:06:04.000Z</time>
</trkpt>
<trkpt lat="46.1797060" lon="10.4938160">
	<ele>2492.80</ele>
	<time>2023-08-09T10:06:05.000Z</time>
</trkpt>
<trkpt lat="46.1797090" lon="10.4938220">
	<ele>2493.00</ele>
	<time>2023-08-09T10:06:06.000Z</time>
</trkpt>
<trkpt lat="46.1797140" lon="10.4938280">
	<ele>2493.00</ele>
	<time>2023-08-09T10:06:07.000Z</time>
</trkpt>
<trkpt lat="46.1797220" lon="10.4938330">
	<ele>2493.00</ele>
	<time>2023-08-09T10:06:08.000Z</time>
</trkpt>
<trkpt lat="46.1797290" lon="10.4938390">
	<ele>2493.20</ele>
	<time>2023-08-09T10:06:09.000Z</time>
</trkpt>
<trkpt lat="46.1797350" lon="10.4938450">
	<ele>2493.20</ele>
	<time>2023-08-09T10:06:10.000Z</time>
</trkpt>
<trkpt lat="46.1797380" lon="10.4938540">
	<ele>2493.20</ele>
	<time>2023-08-09T10:06:11.000Z</time>
</trkpt>
<trkpt lat="46.1797400" lon="10.4938600">
	<ele>2493.40</ele>
	<time>2023-08-09T10:06:12.000Z</time>
</trkpt>
<trkpt lat="46.1797450" lon="10.4938690">
	<ele>2493.40</ele>
	<time>2023-08-09T10:06:13.000Z</time>
</trkpt>
<trkpt lat="46.1797520" lon="10.4938770">
	<ele>2493.40</ele>
	<time>2023-08-09T10:06:14.000Z</time>
</trkpt>
<trkpt lat="46.1797560" lon="10.4938860">
	<ele>2493.60</ele>
	<time>2023-08-09T10:06:15.000Z</time>
</trkpt>
<trkpt lat="46.1797570" lon="10.4938940">
	<ele>2493.60</ele>
	<time>2023-08-09T10:06:16.000Z</time>
</trkpt>
<trkpt lat="46.1797590" lon="10.4939010">
	<ele>2493.60</ele>
	<time>2023-08-09T10:06:17.000Z</time>
</trkpt>
<trkpt lat="46.1797640" lon="10.4939090">
	<ele>2493.80</ele>
	<time>2023-08-09T10:06:18.000Z</time>
</trkpt>
<trkpt lat="46.1797690" lon="10.4939190">
	<ele>2494.00</ele>
	<time>2023-08-09T10:06:19.000Z</time>
</trkpt>
<trkpt lat="46.1797720" lon="10.4939280">
	<ele>2494.20</ele>
	<time>2023-08-09T10:06:20.000Z</time>
</trkpt>
<trkpt lat="46.1797770" lon="10.4939360">
	<ele>2494.20</ele>
	<time>2023-08-09T10:06:21.000Z</time>
</trkpt>
<trkpt lat="46.1797820" lon="10.4939450">
	<ele>2494.40</ele>
	<time>2023-08-09T10:06:22.000Z</time>
</trkpt>
<trkpt lat="46.1797840" lon="10.4939540">
	<ele>2494.60</ele>
	<time>2023-08-09T10:06:23.000Z</time>
</trkpt>
<trkpt lat="46.1797850" lon="10.4939640">
	<ele>2494.60</ele>
	<time>2023-08-09T10:06:24.000Z</time>
</trkpt>
<trkpt lat="46.1797860" lon="10.4939720">
	<ele>2494.80</ele>
	<time>2023-08-09T10:06:25.000Z</time>
</trkpt>
<trkpt lat="46.1797870" lon="10.4939840">
	<ele>2494.80</ele>
	<time>2023-08-09T10:06:26.000Z</time>
</trkpt>
<trkpt lat="46.1797900" lon="10.4939970">
	<ele>2495.00</ele>
	<time>2023-08-09T10:06:27.000Z</time>
</trkpt>
<trkpt lat="46.1797900" lon="10.4940100">
	<ele>2495.00</ele>
	<time>2023-08-09T10:06:28.000Z</time>
</trkpt>
<trkpt lat="46.1797870" lon="10.4940260">
	<ele>2495.20</ele>
	<time>2023-08-09T10:06:29.000Z</time>
</trkpt>
<trkpt lat="46.1797800" lon="10.4940400">
	<ele>2495.40</ele>
	<time>2023-08-09T10:06:30.000Z</time>
</trkpt>
<trkpt lat="46.1797760" lon="10.4940530">
	<ele>2495.40</ele>
	<time>2023-08-09T10:06:31.000Z</time>
</trkpt>
<trkpt lat="46.1797710" lon="10.4940640">
	<ele>2495.40</ele>
	<time>2023-08-09T10:06:32.000Z</time>
</trkpt>
<trkpt lat="46.1797680" lon="10.4940760">
	<ele>2495.40</ele>
	<time>2023-08-09T10:06:33.000Z</time>
</trkpt>
<trkpt lat="46.1797650" lon="10.4940890">
	<ele>2495.40</ele>
	<time>2023-08-09T10:06:34.000Z</time>
</trkpt>
<trkpt lat="46.1797580" lon="10.4941020">
	<ele>2495.40</ele>
	<time>2023-08-09T10:06:35.000Z</time>
</trkpt>
<trkpt lat="46.1797520" lon="10.4941110">
	<ele>2495.40</ele>
	<time>2023-08-09T10:06:36.000Z</time>
</trkpt>
<trkpt lat="46.1797440" lon="10.4941160">
	<ele>2495.40</ele>
	<time>2023-08-09T10:06:37.000Z</time>
</trkpt>
<trkpt lat="46.1797340" lon="10.4941230">
	<ele>2495.20</ele>
	<time>2023-08-09T10:06:38.000Z</time>
</trkpt>
<trkpt lat="46.1797250" lon="10.4941310">
	<ele>2495.40</ele>
	<time>2023-08-09T10:06:39.000Z</time>
</trkpt>
<trkpt lat="46.1797200" lon="10.4941360">
	<ele>2495.40</ele>
	<time>2023-08-09T10:06:40.000Z</time>
</trkpt>
<trkpt lat="46.1797110" lon="10.4941440">
	<ele>2495.40</ele>
	<time>2023-08-09T10:06:41.000Z</time>
</trkpt>
<trkpt lat="46.1797050" lon="10.4941530">
	<ele>2495.40</ele>
	<time>2023-08-09T10:06:42.000Z</time>
</trkpt>
<trkpt lat="46.1796970" lon="10.4941620">
	<ele>2495.40</ele>
	<time>2023-08-09T10:06:43.000Z</time>
</trkpt>
<trkpt lat="46.1796900" lon="10.4941670">
	<ele>2495.40</ele>
	<time>2023-08-09T10:06:44.000Z</time>
</trkpt>
<trkpt lat="46.1796820" lon="10.4941760">
	<ele>2495.40</ele>
	<time>2023-08-09T10:06:45.000Z</time>
</trkpt>
<trkpt lat="46.1796740" lon="10.4941840">
	<ele>2495.40</ele>
	<time>2023-08-09T10:06:46.000Z</time>
</trkpt>
<trkpt lat="46.1796660" lon="10.4941920">
	<ele>2495.40</ele>
	<time>2023-08-09T10:06:47.000Z</time>
</trkpt>
<trkpt lat="46.1796570" lon="10.4941990">
	<ele>2495.40</ele>
	<time>2023-08-09T10:06:48.000Z</time>
</trkpt>
<trkpt lat="46.1796500" lon="10.4942050">
	<ele>2495.40</ele>
	<time>2023-08-09T10:06:49.000Z</time>
</trkpt>
<trkpt lat="46.1796440" lon="10.4942120">
	<ele>2495.40</ele>
	<time>2023-08-09T10:06:50.000Z</time>
</trkpt>
<trkpt lat="46.1796380" lon="10.4942170">
	<ele>2495.40</ele>
	<time>2023-08-09T10:06:51.000Z</time>
</trkpt>
<trkpt lat="46.1796260" lon="10.4942260">
	<ele>2495.40</ele>
	<time>2023-08-09T10:06:52.000Z</time>
</trkpt>
<trkpt lat="46.1796170" lon="10.4942340">
	<ele>2495.40</ele>
	<time>2023-08-09T10:06:53.000Z</time>
</trkpt>
<trkpt lat="46.1796080" lon="10.4942430">
	<ele>2495.40</ele>
	<time>2023-08-09T10:06:54.000Z</time>
</trkpt>
<trkpt lat="46.1796020" lon="10.4942520">
	<ele>2495.20</ele>
	<time>2023-08-09T10:06:55.000Z</time>
</trkpt>
<trkpt lat="46.1795970" lon="10.4942630">
	<ele>2495.20</ele>
	<time>2023-08-09T10:06:56.000Z</time>
</trkpt>
<trkpt lat="46.1795930" lon="10.4942730">
	<ele>2495.20</ele>
	<time>2023-08-09T10:06:57.000Z</time>
</trkpt>
<trkpt lat="46.1795910" lon="10.4942860">
	<ele>2495.20</ele>
	<time>2023-08-09T10:06:58.000Z</time>
</trkpt>
<trkpt lat="46.1795870" lon="10.4942970">
	<ele>2495.20</ele>
	<time>2023-08-09T10:06:59.000Z</time>
</trkpt>
<trkpt lat="46.1795820" lon="10.4943080">
	<ele>2495.20</ele>
	<time>2023-08-09T10:07:00.000Z</time>
</trkpt>
<trkpt lat="46.1795810" lon="10.4943220">
	<ele>2495.20</ele>
	<time>2023-08-09T10:07:01.000Z</time>
</trkpt>
<trkpt lat="46.1795800" lon="10.4943370">
	<ele>2495.20</ele>
	<time>2023-08-09T10:07:02.000Z</time>
</trkpt>
<trkpt lat="46.1795790" lon="10.4943530">
	<ele>2495.20</ele>
	<time>2023-08-09T10:07:03.000Z</time>
</trkpt>
<trkpt lat="46.1795770" lon="10.4943670">
	<ele>2495.20</ele>
	<time>2023-08-09T10:07:04.000Z</time>
</trkpt>
<trkpt lat="46.1795770" lon="10.4943800">
	<ele>2495.20</ele>
	<time>2023-08-09T10:07:05.000Z</time>
</trkpt>
<trkpt lat="46.1795750" lon="10.4943930">
	<ele>2495.20</ele>
	<time>2023-08-09T10:07:06.000Z</time>
</trkpt>
<trkpt lat="46.1795720" lon="10.4944070">
	<ele>2495.00</ele>
	<time>2023-08-09T10:07:07.000Z</time>
</trkpt>
<trkpt lat="46.1795710" lon="10.4944210">
	<ele>2495.00</ele>
	<time>2023-08-09T10:07:08.000Z</time>
</trkpt>
<trkpt lat="46.1795690" lon="10.4944360">
	<ele>2495.00</ele>
	<time>2023-08-09T10:07:09.000Z</time>
</trkpt>
<trkpt lat="46.1795650" lon="10.4944520">
	<ele>2495.00</ele>
	<time>2023-08-09T10:07:10.000Z</time>
</trkpt>
<trkpt lat="46.1795600" lon="10.4944680">
	<ele>2495.00</ele>
	<time>2023-08-09T10:07:11.000Z</time>
</trkpt>
<trkpt lat="46.1795550" lon="10.4944820">
	<ele>2495.00</ele>
	<time>2023-08-09T10:07:12.000Z</time>
</trkpt>
<trkpt lat="46.1795550" lon="10.4944950">
	<ele>2494.80</ele>
	<time>2023-08-09T10:07:13.000Z</time>
</trkpt>
<trkpt lat="46.1795530" lon="10.4945060">
	<ele>2494.60</ele>
	<time>2023-08-09T10:07:14.000Z</time>
</trkpt>
<trkpt lat="46.1795510" lon="10.4945180">
	<ele>2494.60</ele>
	<time>2023-08-09T10:07:15.000Z</time>
</trkpt>
<trkpt lat="46.1795520" lon="10.4945340">
	<ele>2494.60</ele>
	<time>2023-08-09T10:07:16.000Z</time>
</trkpt>
<trkpt lat="46.1795500" lon="10.4945480">
	<ele>2494.60</ele>
	<time>2023-08-09T10:07:17.000Z</time>
</trkpt>
<trkpt lat="46.1795500" lon="10.4945580">
	<ele>2494.60</ele>
	<time>2023-08-09T10:07:18.000Z</time>
</trkpt>
<trkpt lat="46.1795430" lon="10.4945700">
	<ele>2494.60</ele>
	<time>2023-08-09T10:07:19.000Z</time>
</trkpt>
<trkpt lat="46.1795400" lon="10.4945860">
	<ele>2494.60</ele>
	<time>2023-08-09T10:07:20.000Z</time>
</trkpt>
<trkpt lat="46.1795380" lon="10.4945980">
	<ele>2494.60</ele>
	<time>2023-08-09T10:07:21.000Z</time>
</trkpt>
<trkpt lat="46.1795360" lon="10.4946100">
	<ele>2494.60</ele>
	<time>2023-08-09T10:07:22.000Z</time>
</trkpt>
<trkpt lat="46.1795340" lon="10.4946210">
	<ele>2494.60</ele>
	<time>2023-08-09T10:07:23.000Z</time>
</trkpt>
<trkpt lat="46.1795320" lon="10.4946270">
	<ele>2494.40</ele>
	<time>2023-08-09T10:07:24.000Z</time>
</trkpt>
<trkpt lat="46.1795280" lon="10.4946290">
	<ele>2494.40</ele>
	<time>2023-08-09T10:07:25.000Z</time>
</trkpt>
<trkpt lat="46.1795260" lon="10.4946300">
	<ele>2494.40</ele>
	<time>2023-08-09T10:07:26.000Z</time>
</trkpt>
<trkpt lat="46.1795270" lon="10.4946380">
	<ele>2494.40</ele>
	<time>2023-08-09T10:07:27.000Z</time>
</trkpt>
<trkpt lat="46.1795260" lon="10.4946510">
	<ele>2494.40</ele>
	<time>2023-08-09T10:07:28.000Z</time>
</trkpt>
<trkpt lat="46.1795230" lon="10.4946670">
	<ele>2494.40</ele>
	<time>2023-08-09T10:07:29.000Z</time>
</trkpt>
<trkpt lat="46.1795220" lon="10.4946800">
	<ele>2494.40</ele>
	<time>2023-08-09T10:07:30.000Z</time>
</trkpt>
<trkpt lat="46.1795200" lon="10.4946910">
	<ele>2494.40</ele>
	<time>2023-08-09T10:07:31.000Z</time>
</trkpt>
<trkpt lat="46.1795160" lon="10.4947040">
	<ele>2494.40</ele>
	<time>2023-08-09T10:07:32.000Z</time>
</trkpt>
<trkpt lat="46.1795160" lon="10.4947160">
	<ele>2494.40</ele>
	<time>2023-08-09T10:07:33.000Z</time>
</trkpt>
<trkpt lat="46.1795110" lon="10.4947280">
	<ele>2494.20</ele>
	<time>2023-08-09T10:07:34.000Z</time>
</trkpt>
<trkpt lat="46.1795070" lon="10.4947420">
	<ele>2494.20</ele>
	<time>2023-08-09T10:07:35.000Z</time>
</trkpt>
<trkpt lat="46.1795020" lon="10.4947530">
	<ele>2494.20</ele>
	<time>2023-08-09T10:07:36.000Z</time>
</trkpt>
<trkpt lat="46.1794970" lon="10.4947680">
	<ele>2494.20</ele>
	<time>2023-08-09T10:07:37.000Z</time>
</trkpt>
<trkpt lat="46.1794950" lon="10.4947860">
	<ele>2494.00</ele>
	<time>2023-08-09T10:07:38.000Z</time>
</trkpt>
<trkpt lat="46.1794900" lon="10.4948070">
	<ele>2494.00</ele>
	<time>2023-08-09T10:07:39.000Z</time>
</trkpt>
<trkpt lat="46.1794870" lon="10.4948230">
	<ele>2494.00</ele>
	<time>2023-08-09T10:07:40.000Z</time>
</trkpt>
<trkpt lat="46.1794840" lon="10.4948400">
	<ele>2494.00</ele>
	<time>2023-08-09T10:07:41.000Z</time>
</trkpt>
<trkpt lat="46.1794800" lon="10.4948620">
	<ele>2494.00</ele>
	<time>2023-08-09T10:07:42.000Z</time>
</trkpt>
<trkpt lat="46.1794770" lon="10.4948790">
	<ele>2494.00</ele>
	<time>2023-08-09T10:07:43.000Z</time>
</trkpt>
<trkpt lat="46.1794730" lon="10.4948950">
	<ele>2494.20</ele>
	<time>2023-08-09T10:07:44.000Z</time>
</trkpt>
<trkpt lat="46.1794710" lon="10.4949100">
	<ele>2494.20</ele>
	<time>2023-08-09T10:07:45.000Z</time>
</trkpt>
<trkpt lat="46.1794680" lon="10.4949280">
	<ele>2494.20</ele>
	<time>2023-08-09T10:07:46.000Z</time>
</trkpt>
<trkpt lat="46.1794650" lon="10.4949430">
	<ele>2494.20</ele>
	<time>2023-08-09T10:07:47.000Z</time>
</trkpt>
<trkpt lat="46.1794660" lon="10.4949580">
	<ele>2494.20</ele>
	<time>2023-08-09T10:07:48.000Z</time>
</trkpt>
<trkpt lat="46.1794660" lon="10.4949730">
	<ele>2494.40</ele>
	<time>2023-08-09T10:07:49.000Z</time>
</trkpt>
<trkpt lat="46.1794630" lon="10.4949820">
	<ele>2494.40</ele>
	<time>2023-08-09T10:07:50.000Z</time>
</trkpt>
<trkpt lat="46.1794610" lon="10.4949950">
	<ele>2494.40</ele>
	<time>2023-08-09T10:07:51.000Z</time>
</trkpt>
<trkpt lat="46.1794530" lon="10.4950080">
	<ele>2494.60</ele>
	<time>2023-08-09T10:07:52.000Z</time>
</trkpt>
</trkseg>
</trk>
</gpx>
